<?xml version="1.0" encoding="UTF-8" standalone="no" ?>
<gpx xmlns="http://www.topografix.com/GPX/1/1" xmlns:xsi="http://www.w3.org/2001/XMLSchema-instance" xsi:schemaLocation="http://www.topografix.com/GPX/1/1 http://www.topografix.com/GPX/1/1/gpx.xsd" version="1.1" creator="VisuGPX - https://www.visugpx.com">
  <metadata>
    <name>Briis sous Forges / Boissy la rivière</name>
    <desc><![CDATA[1er jour vers boissy la rivière en passant par Etampe]]></desc>
  </metadata>
  <trk>
    <name><![CDATA[20190310163328-RLzsz]]></name>
    <trkseg>
      <trkpt lat="48.61317" lon="2.10534">
        <ele>115</ele>
        <time>2011-04-15T07:40:17Z</time>
      </trkpt>
      <trkpt lat="48.61289" lon="2.10533">
        <ele>112</ele>
        <time>2011-04-15T07:41:28Z</time>
      </trkpt>
      <trkpt lat="48.61288" lon="2.10533">
        <ele>112</ele>
        <time>2011-04-15T07:41:29Z</time>
      </trkpt>
      <trkpt lat="48.61287" lon="2.10533">
        <ele>112</ele>
        <time>2011-04-15T07:41:30Z</time>
      </trkpt>
      <trkpt lat="48.61286" lon="2.10533">
        <ele>112</ele>
        <time>2011-04-15T07:41:31Z</time>
      </trkpt>
      <trkpt lat="48.61285" lon="2.10532">
        <ele>112</ele>
        <time>2011-04-15T07:41:32Z</time>
      </trkpt>
      <trkpt lat="48.61283" lon="2.10532">
        <ele>112</ele>
        <time>2011-04-15T07:41:33Z</time>
      </trkpt>
      <trkpt lat="48.61282" lon="2.10532">
        <ele>112</ele>
        <time>2011-04-15T07:41:34Z</time>
      </trkpt>
      <trkpt lat="48.61281" lon="2.10532">
        <ele>112</ele>
        <time>2011-04-15T07:41:35Z</time>
      </trkpt>
      <trkpt lat="48.61279" lon="2.10532">
        <ele>112</ele>
        <time>2011-04-15T07:41:36Z</time>
      </trkpt>
      <trkpt lat="48.61278" lon="2.10532">
        <ele>111</ele>
        <time>2011-04-15T07:41:37Z</time>
      </trkpt>
      <trkpt lat="48.61277" lon="2.10532">
        <ele>111</ele>
        <time>2011-04-15T07:41:38Z</time>
      </trkpt>
      <trkpt lat="48.61275" lon="2.10532">
        <ele>111</ele>
        <time>2011-04-15T07:41:39Z</time>
      </trkpt>
      <trkpt lat="48.61274" lon="2.10532">
        <ele>111</ele>
        <time>2011-04-15T07:41:40Z</time>
      </trkpt>
      <trkpt lat="48.61273" lon="2.10532">
        <ele>111</ele>
        <time>2011-04-15T07:41:41Z</time>
      </trkpt>
      <trkpt lat="48.61271" lon="2.10532">
        <ele>111</ele>
        <time>2011-04-15T07:41:42Z</time>
      </trkpt>
      <trkpt lat="48.6127" lon="2.10532">
        <ele>111</ele>
        <time>2011-04-15T07:41:43Z</time>
      </trkpt>
      <trkpt lat="48.61269" lon="2.10532">
        <ele>111</ele>
        <time>2011-04-15T07:41:44Z</time>
      </trkpt>
      <trkpt lat="48.61267" lon="2.10532">
        <ele>111</ele>
        <time>2011-04-15T07:41:45Z</time>
      </trkpt>
      <trkpt lat="48.61266" lon="2.10531">
        <ele>111</ele>
        <time>2011-04-15T07:41:46Z</time>
      </trkpt>
      <trkpt lat="48.61265" lon="2.10531">
        <ele>111</ele>
        <time>2011-04-15T07:41:47Z</time>
      </trkpt>
      <trkpt lat="48.61263" lon="2.1053">
        <ele>111</ele>
        <time>2011-04-15T07:41:48Z</time>
      </trkpt>
      <trkpt lat="48.61261" lon="2.1053">
        <ele>111</ele>
        <time>2011-04-15T07:41:50Z</time>
      </trkpt>
      <trkpt lat="48.6126" lon="2.10529">
        <ele>111</ele>
        <time>2011-04-15T07:41:51Z</time>
      </trkpt>
      <trkpt lat="48.61259" lon="2.10529">
        <ele>111</ele>
        <time>2011-04-15T07:41:52Z</time>
      </trkpt>
      <trkpt lat="48.61257" lon="2.10529">
        <ele>111</ele>
        <time>2011-04-15T07:41:53Z</time>
      </trkpt>
      <trkpt lat="48.61256" lon="2.10529">
        <ele>111</ele>
        <time>2011-04-15T07:41:54Z</time>
      </trkpt>
      <trkpt lat="48.61255" lon="2.10529">
        <ele>111</ele>
        <time>2011-04-15T07:41:55Z</time>
      </trkpt>
      <trkpt lat="48.61253" lon="2.10528">
        <ele>111</ele>
        <time>2011-04-15T07:41:56Z</time>
      </trkpt>
      <trkpt lat="48.61252" lon="2.10528">
        <ele>111</ele>
        <time>2011-04-15T07:41:57Z</time>
      </trkpt>
      <trkpt lat="48.6125" lon="2.10528">
        <ele>111</ele>
        <time>2011-04-15T07:41:58Z</time>
      </trkpt>
      <trkpt lat="48.61249" lon="2.10528">
        <ele>111</ele>
        <time>2011-04-15T07:42:00Z</time>
      </trkpt>
      <trkpt lat="48.61247" lon="2.10528">
        <ele>111</ele>
        <time>2011-04-15T07:42:01Z</time>
      </trkpt>
      <trkpt lat="48.61246" lon="2.10527">
        <ele>111</ele>
        <time>2011-04-15T07:42:02Z</time>
      </trkpt>
      <trkpt lat="48.61245" lon="2.10528">
        <ele>111</ele>
        <time>2011-04-15T07:42:03Z</time>
      </trkpt>
      <trkpt lat="48.61243" lon="2.10528">
        <ele>111</ele>
        <time>2011-04-15T07:42:04Z</time>
      </trkpt>
      <trkpt lat="48.61242" lon="2.10528">
        <ele>111</ele>
        <time>2011-04-15T07:42:05Z</time>
      </trkpt>
      <trkpt lat="48.6124" lon="2.10528">
        <ele>111</ele>
        <time>2011-04-15T07:42:06Z</time>
      </trkpt>
      <trkpt lat="48.61239" lon="2.10527">
        <ele>111</ele>
        <time>2011-04-15T07:42:07Z</time>
      </trkpt>
      <trkpt lat="48.61237" lon="2.10527">
        <ele>111</ele>
        <time>2011-04-15T07:42:08Z</time>
      </trkpt>
      <trkpt lat="48.61236" lon="2.10527">
        <ele>111</ele>
        <time>2011-04-15T07:42:09Z</time>
      </trkpt>
      <trkpt lat="48.61234" lon="2.10526">
        <ele>111</ele>
        <time>2011-04-15T07:42:10Z</time>
      </trkpt>
      <trkpt lat="48.61233" lon="2.10526">
        <ele>111</ele>
        <time>2011-04-15T07:42:11Z</time>
      </trkpt>
      <trkpt lat="48.61231" lon="2.10526">
        <ele>111</ele>
        <time>2011-04-15T07:42:12Z</time>
      </trkpt>
      <trkpt lat="48.6123" lon="2.10526">
        <ele>111</ele>
        <time>2011-04-15T07:42:13Z</time>
      </trkpt>
      <trkpt lat="48.61229" lon="2.10526">
        <ele>111</ele>
        <time>2011-04-15T07:42:14Z</time>
      </trkpt>
      <trkpt lat="48.61227" lon="2.10526">
        <ele>111</ele>
        <time>2011-04-15T07:42:15Z</time>
      </trkpt>
      <trkpt lat="48.61226" lon="2.10526">
        <ele>111</ele>
        <time>2011-04-15T07:42:16Z</time>
      </trkpt>
      <trkpt lat="48.61224" lon="2.10526">
        <ele>111</ele>
        <time>2011-04-15T07:42:17Z</time>
      </trkpt>
      <trkpt lat="48.61223" lon="2.10526">
        <ele>111</ele>
        <time>2011-04-15T07:42:18Z</time>
      </trkpt>
      <trkpt lat="48.61221" lon="2.10526">
        <ele>111</ele>
        <time>2011-04-15T07:42:19Z</time>
      </trkpt>
      <trkpt lat="48.61219" lon="2.10526">
        <ele>111</ele>
        <time>2011-04-15T07:42:20Z</time>
      </trkpt>
      <trkpt lat="48.61218" lon="2.10526">
        <ele>111</ele>
        <time>2011-04-15T07:42:21Z</time>
      </trkpt>
      <trkpt lat="48.61216" lon="2.10526">
        <ele>111</ele>
        <time>2011-04-15T07:42:22Z</time>
      </trkpt>
      <trkpt lat="48.61215" lon="2.10525">
        <ele>111</ele>
        <time>2011-04-15T07:42:23Z</time>
      </trkpt>
      <trkpt lat="48.61213" lon="2.10525">
        <ele>111</ele>
        <time>2011-04-15T07:42:24Z</time>
      </trkpt>
      <trkpt lat="48.61211" lon="2.10525">
        <ele>111</ele>
        <time>2011-04-15T07:42:25Z</time>
      </trkpt>
      <trkpt lat="48.6121" lon="2.10525">
        <ele>111</ele>
        <time>2011-04-15T07:42:26Z</time>
      </trkpt>
      <trkpt lat="48.61208" lon="2.10525">
        <ele>111</ele>
        <time>2011-04-15T07:42:27Z</time>
      </trkpt>
      <trkpt lat="48.61207" lon="2.10525">
        <ele>111</ele>
        <time>2011-04-15T07:42:28Z</time>
      </trkpt>
      <trkpt lat="48.61205" lon="2.10525">
        <ele>111</ele>
        <time>2011-04-15T07:42:29Z</time>
      </trkpt>
      <trkpt lat="48.61204" lon="2.10525">
        <ele>111</ele>
        <time>2011-04-15T07:42:30Z</time>
      </trkpt>
      <trkpt lat="48.61202" lon="2.10524">
        <ele>111</ele>
        <time>2011-04-15T07:42:31Z</time>
      </trkpt>
      <trkpt lat="48.61201" lon="2.10524">
        <ele>111</ele>
        <time>2011-04-15T07:42:32Z</time>
      </trkpt>
      <trkpt lat="48.61199" lon="2.10524">
        <ele>111</ele>
        <time>2011-04-15T07:42:33Z</time>
      </trkpt>
      <trkpt lat="48.61198" lon="2.10524">
        <ele>111</ele>
        <time>2011-04-15T07:42:34Z</time>
      </trkpt>
      <trkpt lat="48.61196" lon="2.10524">
        <ele>111</ele>
        <time>2011-04-15T07:42:35Z</time>
      </trkpt>
      <trkpt lat="48.61195" lon="2.10524">
        <ele>111</ele>
        <time>2011-04-15T07:42:36Z</time>
      </trkpt>
      <trkpt lat="48.61193" lon="2.10523">
        <ele>111</ele>
        <time>2011-04-15T07:42:37Z</time>
      </trkpt>
      <trkpt lat="48.61192" lon="2.10522">
        <ele>111</ele>
        <time>2011-04-15T07:42:38Z</time>
      </trkpt>
      <trkpt lat="48.6119" lon="2.10522">
        <ele>111</ele>
        <time>2011-04-15T07:42:39Z</time>
      </trkpt>
      <trkpt lat="48.61189" lon="2.10522">
        <ele>111</ele>
        <time>2011-04-15T07:42:40Z</time>
      </trkpt>
      <trkpt lat="48.61187" lon="2.10522">
        <ele>111</ele>
        <time>2011-04-15T07:42:41Z</time>
      </trkpt>
      <trkpt lat="48.61186" lon="2.10522">
        <ele>111</ele>
        <time>2011-04-15T07:42:42Z</time>
      </trkpt>
      <trkpt lat="48.61185" lon="2.10521">
        <ele>111</ele>
        <time>2011-04-15T07:42:43Z</time>
      </trkpt>
      <trkpt lat="48.61183" lon="2.10521">
        <ele>111</ele>
        <time>2011-04-15T07:42:44Z</time>
      </trkpt>
      <trkpt lat="48.61181" lon="2.1052">
        <ele>111</ele>
        <time>2011-04-15T07:42:45Z</time>
      </trkpt>
      <trkpt lat="48.6118" lon="2.1052">
        <ele>111</ele>
        <time>2011-04-15T07:42:46Z</time>
      </trkpt>
      <trkpt lat="48.61178" lon="2.1052">
        <ele>111</ele>
        <time>2011-04-15T07:42:47Z</time>
      </trkpt>
      <trkpt lat="48.61177" lon="2.1052">
        <ele>111</ele>
        <time>2011-04-15T07:42:48Z</time>
      </trkpt>
      <trkpt lat="48.61175" lon="2.1052">
        <ele>111</ele>
        <time>2011-04-15T07:42:49Z</time>
      </trkpt>
      <trkpt lat="48.61174" lon="2.10519">
        <ele>111</ele>
        <time>2011-04-15T07:42:50Z</time>
      </trkpt>
      <trkpt lat="48.61172" lon="2.10519">
        <ele>111</ele>
        <time>2011-04-15T07:42:51Z</time>
      </trkpt>
      <trkpt lat="48.6117" lon="2.10519">
        <ele>111</ele>
        <time>2011-04-15T07:42:52Z</time>
      </trkpt>
      <trkpt lat="48.61169" lon="2.10519">
        <ele>111</ele>
        <time>2011-04-15T07:42:53Z</time>
      </trkpt>
      <trkpt lat="48.61167" lon="2.10519">
        <ele>111</ele>
        <time>2011-04-15T07:42:54Z</time>
      </trkpt>
      <trkpt lat="48.61166" lon="2.10518">
        <ele>111</ele>
        <time>2011-04-15T07:42:55Z</time>
      </trkpt>
      <trkpt lat="48.61164" lon="2.10518">
        <ele>111</ele>
        <time>2011-04-15T07:42:56Z</time>
      </trkpt>
      <trkpt lat="48.61163" lon="2.10517">
        <ele>111</ele>
        <time>2011-04-15T07:42:57Z</time>
      </trkpt>
      <trkpt lat="48.61161" lon="2.10517">
        <ele>111</ele>
        <time>2011-04-15T07:42:58Z</time>
      </trkpt>
      <trkpt lat="48.6116" lon="2.10517">
        <ele>111</ele>
        <time>2011-04-15T07:42:59Z</time>
      </trkpt>
      <trkpt lat="48.61158" lon="2.10517">
        <ele>111</ele>
        <time>2011-04-15T07:43:00Z</time>
      </trkpt>
      <trkpt lat="48.61157" lon="2.10517">
        <ele>111</ele>
        <time>2011-04-15T07:43:01Z</time>
      </trkpt>
      <trkpt lat="48.61155" lon="2.10517">
        <ele>111</ele>
        <time>2011-04-15T07:43:02Z</time>
      </trkpt>
      <trkpt lat="48.61154" lon="2.10517">
        <ele>111</ele>
        <time>2011-04-15T07:43:03Z</time>
      </trkpt>
      <trkpt lat="48.61152" lon="2.10517">
        <ele>111</ele>
        <time>2011-04-15T07:43:04Z</time>
      </trkpt>
      <trkpt lat="48.61151" lon="2.10517">
        <ele>111</ele>
        <time>2011-04-15T07:43:05Z</time>
      </trkpt>
      <trkpt lat="48.61149" lon="2.10517">
        <ele>111</ele>
        <time>2011-04-15T07:43:06Z</time>
      </trkpt>
      <trkpt lat="48.61147" lon="2.10517">
        <ele>111</ele>
        <time>2011-04-15T07:43:07Z</time>
      </trkpt>
      <trkpt lat="48.61146" lon="2.10517">
        <ele>111</ele>
        <time>2011-04-15T07:43:08Z</time>
      </trkpt>
      <trkpt lat="48.61144" lon="2.10517">
        <ele>111</ele>
        <time>2011-04-15T07:43:09Z</time>
      </trkpt>
      <trkpt lat="48.61143" lon="2.10516">
        <ele>111</ele>
        <time>2011-04-15T07:43:10Z</time>
      </trkpt>
      <trkpt lat="48.61142" lon="2.10516">
        <ele>111</ele>
        <time>2011-04-15T07:43:11Z</time>
      </trkpt>
      <trkpt lat="48.6114" lon="2.10516">
        <ele>111</ele>
        <time>2011-04-15T07:43:12Z</time>
      </trkpt>
      <trkpt lat="48.61139" lon="2.10516">
        <ele>111</ele>
        <time>2011-04-15T07:43:13Z</time>
      </trkpt>
      <trkpt lat="48.61137" lon="2.10516">
        <ele>111</ele>
        <time>2011-04-15T07:43:14Z</time>
      </trkpt>
      <trkpt lat="48.61136" lon="2.10516">
        <ele>111</ele>
        <time>2011-04-15T07:43:15Z</time>
      </trkpt>
      <trkpt lat="48.61135" lon="2.10516">
        <ele>111</ele>
        <time>2011-04-15T07:43:16Z</time>
      </trkpt>
      <trkpt lat="48.61133" lon="2.10516">
        <ele>111</ele>
        <time>2011-04-15T07:43:17Z</time>
      </trkpt>
      <trkpt lat="48.61132" lon="2.10516">
        <ele>111</ele>
        <time>2011-04-15T07:43:18Z</time>
      </trkpt>
      <trkpt lat="48.6113" lon="2.10516">
        <ele>111</ele>
        <time>2011-04-15T07:43:19Z</time>
      </trkpt>
      <trkpt lat="48.61129" lon="2.10516">
        <ele>111</ele>
        <time>2011-04-15T07:43:20Z</time>
      </trkpt>
      <trkpt lat="48.61128" lon="2.10516">
        <ele>111</ele>
        <time>2011-04-15T07:43:21Z</time>
      </trkpt>
      <trkpt lat="48.61126" lon="2.10516">
        <ele>111</ele>
        <time>2011-04-15T07:43:22Z</time>
      </trkpt>
      <trkpt lat="48.61124" lon="2.10516">
        <ele>111</ele>
        <time>2011-04-15T07:43:23Z</time>
      </trkpt>
      <trkpt lat="48.61123" lon="2.10516">
        <ele>111</ele>
        <time>2011-04-15T07:43:24Z</time>
      </trkpt>
      <trkpt lat="48.61122" lon="2.10515">
        <ele>111</ele>
        <time>2011-04-15T07:43:25Z</time>
      </trkpt>
      <trkpt lat="48.6112" lon="2.10516">
        <ele>111</ele>
        <time>2011-04-15T07:43:26Z</time>
      </trkpt>
      <trkpt lat="48.61119" lon="2.10516">
        <ele>111</ele>
        <time>2011-04-15T07:43:27Z</time>
      </trkpt>
      <trkpt lat="48.61117" lon="2.10515">
        <ele>111</ele>
        <time>2011-04-15T07:43:28Z</time>
      </trkpt>
      <trkpt lat="48.61116" lon="2.10515">
        <ele>111</ele>
        <time>2011-04-15T07:43:29Z</time>
      </trkpt>
      <trkpt lat="48.61114" lon="2.10515">
        <ele>111</ele>
        <time>2011-04-15T07:43:30Z</time>
      </trkpt>
      <trkpt lat="48.61112" lon="2.10515">
        <ele>111</ele>
        <time>2011-04-15T07:43:31Z</time>
      </trkpt>
      <trkpt lat="48.61111" lon="2.10514">
        <ele>111</ele>
        <time>2011-04-15T07:43:32Z</time>
      </trkpt>
      <trkpt lat="48.61109" lon="2.10514">
        <ele>111</ele>
        <time>2011-04-15T07:43:33Z</time>
      </trkpt>
      <trkpt lat="48.61108" lon="2.10515">
        <ele>111</ele>
        <time>2011-04-15T07:43:34Z</time>
      </trkpt>
      <trkpt lat="48.61106" lon="2.10515">
        <ele>111</ele>
        <time>2011-04-15T07:43:35Z</time>
      </trkpt>
      <trkpt lat="48.61105" lon="2.10515">
        <ele>111</ele>
        <time>2011-04-15T07:43:36Z</time>
      </trkpt>
      <trkpt lat="48.61104" lon="2.10515">
        <ele>111</ele>
        <time>2011-04-15T07:43:37Z</time>
      </trkpt>
      <trkpt lat="48.61102" lon="2.10515">
        <ele>111</ele>
        <time>2011-04-15T07:43:38Z</time>
      </trkpt>
      <trkpt lat="48.61101" lon="2.10515">
        <ele>111</ele>
        <time>2011-04-15T07:43:39Z</time>
      </trkpt>
      <trkpt lat="48.61099" lon="2.10514">
        <ele>111</ele>
        <time>2011-04-15T07:43:40Z</time>
      </trkpt>
      <trkpt lat="48.61098" lon="2.10514">
        <ele>111</ele>
        <time>2011-04-15T07:43:41Z</time>
      </trkpt>
      <trkpt lat="48.61096" lon="2.10514">
        <ele>111</ele>
        <time>2011-04-15T07:43:42Z</time>
      </trkpt>
      <trkpt lat="48.61095" lon="2.10514">
        <ele>111</ele>
        <time>2011-04-15T07:43:43Z</time>
      </trkpt>
      <trkpt lat="48.61093" lon="2.10514">
        <ele>111</ele>
        <time>2011-04-15T07:43:44Z</time>
      </trkpt>
      <trkpt lat="48.61091" lon="2.10514">
        <ele>111</ele>
        <time>2011-04-15T07:43:45Z</time>
      </trkpt>
      <trkpt lat="48.6109" lon="2.10514">
        <ele>111</ele>
        <time>2011-04-15T07:43:46Z</time>
      </trkpt>
      <trkpt lat="48.61088" lon="2.10514">
        <ele>111</ele>
        <time>2011-04-15T07:43:47Z</time>
      </trkpt>
      <trkpt lat="48.61087" lon="2.10513">
        <ele>111</ele>
        <time>2011-04-15T07:43:48Z</time>
      </trkpt>
      <trkpt lat="48.61085" lon="2.10513">
        <ele>111</ele>
        <time>2011-04-15T07:43:49Z</time>
      </trkpt>
      <trkpt lat="48.61084" lon="2.10512">
        <ele>111</ele>
        <time>2011-04-15T07:43:50Z</time>
      </trkpt>
      <trkpt lat="48.61083" lon="2.10512">
        <ele>111</ele>
        <time>2011-04-15T07:43:51Z</time>
      </trkpt>
      <trkpt lat="48.61081" lon="2.10512">
        <ele>111</ele>
        <time>2011-04-15T07:43:52Z</time>
      </trkpt>
      <trkpt lat="48.61079" lon="2.10512">
        <ele>111</ele>
        <time>2011-04-15T07:43:53Z</time>
      </trkpt>
      <trkpt lat="48.61078" lon="2.10512">
        <ele>111</ele>
        <time>2011-04-15T07:43:54Z</time>
      </trkpt>
      <trkpt lat="48.61076" lon="2.10512">
        <ele>111</ele>
        <time>2011-04-15T07:43:55Z</time>
      </trkpt>
      <trkpt lat="48.61075" lon="2.10512">
        <ele>111</ele>
        <time>2011-04-15T07:43:56Z</time>
      </trkpt>
      <trkpt lat="48.61073" lon="2.10512">
        <ele>111</ele>
        <time>2011-04-15T07:43:57Z</time>
      </trkpt>
      <trkpt lat="48.61072" lon="2.10512">
        <ele>111</ele>
        <time>2011-04-15T07:43:58Z</time>
      </trkpt>
      <trkpt lat="48.6107" lon="2.10512">
        <ele>111</ele>
        <time>2011-04-15T07:43:59Z</time>
      </trkpt>
      <trkpt lat="48.61068" lon="2.10511">
        <ele>111</ele>
        <time>2011-04-15T07:44:00Z</time>
      </trkpt>
      <trkpt lat="48.61067" lon="2.10511">
        <ele>111</ele>
        <time>2011-04-15T07:44:01Z</time>
      </trkpt>
      <trkpt lat="48.61065" lon="2.10511">
        <ele>111</ele>
        <time>2011-04-15T07:44:02Z</time>
      </trkpt>
      <trkpt lat="48.61064" lon="2.10511">
        <ele>111</ele>
        <time>2011-04-15T07:44:03Z</time>
      </trkpt>
      <trkpt lat="48.61062" lon="2.10511">
        <ele>111</ele>
        <time>2011-04-15T07:44:04Z</time>
      </trkpt>
      <trkpt lat="48.61061" lon="2.1051">
        <ele>111</ele>
        <time>2011-04-15T07:44:05Z</time>
      </trkpt>
      <trkpt lat="48.61059" lon="2.1051">
        <ele>112</ele>
        <time>2011-04-15T07:44:06Z</time>
      </trkpt>
      <trkpt lat="48.61058" lon="2.1051">
        <ele>112</ele>
        <time>2011-04-15T07:44:07Z</time>
      </trkpt>
      <trkpt lat="48.61056" lon="2.1051">
        <ele>112</ele>
        <time>2011-04-15T07:44:08Z</time>
      </trkpt>
      <trkpt lat="48.61055" lon="2.1051">
        <ele>112</ele>
        <time>2011-04-15T07:44:09Z</time>
      </trkpt>
      <trkpt lat="48.61053" lon="2.10509">
        <ele>112</ele>
        <time>2011-04-15T07:44:10Z</time>
      </trkpt>
      <trkpt lat="48.61052" lon="2.10509">
        <ele>112</ele>
        <time>2011-04-15T07:44:11Z</time>
      </trkpt>
      <trkpt lat="48.6105" lon="2.10509">
        <ele>112</ele>
        <time>2011-04-15T07:44:12Z</time>
      </trkpt>
      <trkpt lat="48.61049" lon="2.10509">
        <ele>112</ele>
        <time>2011-04-15T07:44:13Z</time>
      </trkpt>
      <trkpt lat="48.61047" lon="2.10509">
        <ele>112</ele>
        <time>2011-04-15T07:44:14Z</time>
      </trkpt>
      <trkpt lat="48.61046" lon="2.10509">
        <ele>112</ele>
        <time>2011-04-15T07:44:15Z</time>
      </trkpt>
      <trkpt lat="48.61044" lon="2.10509">
        <ele>112</ele>
        <time>2011-04-15T07:44:16Z</time>
      </trkpt>
      <trkpt lat="48.61043" lon="2.10509">
        <ele>112</ele>
        <time>2011-04-15T07:44:17Z</time>
      </trkpt>
      <trkpt lat="48.61041" lon="2.10509">
        <ele>112</ele>
        <time>2011-04-15T07:44:18Z</time>
      </trkpt>
      <trkpt lat="48.6104" lon="2.10509">
        <ele>112</ele>
        <time>2011-04-15T07:44:19Z</time>
      </trkpt>
      <trkpt lat="48.61038" lon="2.10509">
        <ele>112</ele>
        <time>2011-04-15T07:44:20Z</time>
      </trkpt>
      <trkpt lat="48.61037" lon="2.10509">
        <ele>113</ele>
        <time>2011-04-15T07:44:21Z</time>
      </trkpt>
      <trkpt lat="48.61035" lon="2.10508">
        <ele>113</ele>
        <time>2011-04-15T07:44:22Z</time>
      </trkpt>
      <trkpt lat="48.61034" lon="2.10508">
        <ele>113</ele>
        <time>2011-04-15T07:44:23Z</time>
      </trkpt>
      <trkpt lat="48.61032" lon="2.10508">
        <ele>113</ele>
        <time>2011-04-15T07:44:24Z</time>
      </trkpt>
      <trkpt lat="48.61031" lon="2.10508">
        <ele>113</ele>
        <time>2011-04-15T07:44:25Z</time>
      </trkpt>
      <trkpt lat="48.61029" lon="2.10508">
        <ele>113</ele>
        <time>2011-04-15T07:44:26Z</time>
      </trkpt>
      <trkpt lat="48.61028" lon="2.10508">
        <ele>113</ele>
        <time>2011-04-15T07:44:27Z</time>
      </trkpt>
      <trkpt lat="48.61026" lon="2.10508">
        <ele>113</ele>
        <time>2011-04-15T07:44:28Z</time>
      </trkpt>
      <trkpt lat="48.61025" lon="2.10508">
        <ele>113</ele>
        <time>2011-04-15T07:44:29Z</time>
      </trkpt>
      <trkpt lat="48.61023" lon="2.10507">
        <ele>113</ele>
        <time>2011-04-15T07:44:30Z</time>
      </trkpt>
      <trkpt lat="48.61021" lon="2.10507">
        <ele>113</ele>
        <time>2011-04-15T07:44:31Z</time>
      </trkpt>
      <trkpt lat="48.6102" lon="2.10507">
        <ele>113</ele>
        <time>2011-04-15T07:44:32Z</time>
      </trkpt>
      <trkpt lat="48.61018" lon="2.10507">
        <ele>113</ele>
        <time>2011-04-15T07:44:33Z</time>
      </trkpt>
      <trkpt lat="48.61017" lon="2.10506">
        <ele>113</ele>
        <time>2011-04-15T07:44:34Z</time>
      </trkpt>
      <trkpt lat="48.61015" lon="2.10506">
        <ele>113</ele>
        <time>2011-04-15T07:44:35Z</time>
      </trkpt>
      <trkpt lat="48.61014" lon="2.10506">
        <ele>113</ele>
        <time>2011-04-15T07:44:36Z</time>
      </trkpt>
      <trkpt lat="48.61012" lon="2.10506">
        <ele>113</ele>
        <time>2011-04-15T07:44:37Z</time>
      </trkpt>
      <trkpt lat="48.61011" lon="2.10506">
        <ele>113</ele>
        <time>2011-04-15T07:44:38Z</time>
      </trkpt>
      <trkpt lat="48.61009" lon="2.10506">
        <ele>113</ele>
        <time>2011-04-15T07:44:39Z</time>
      </trkpt>
      <trkpt lat="48.61008" lon="2.10506">
        <ele>113</ele>
        <time>2011-04-15T07:44:40Z</time>
      </trkpt>
      <trkpt lat="48.61006" lon="2.10506">
        <ele>113</ele>
        <time>2011-04-15T07:44:41Z</time>
      </trkpt>
      <trkpt lat="48.61005" lon="2.10506">
        <ele>113</ele>
        <time>2011-04-15T07:44:42Z</time>
      </trkpt>
      <trkpt lat="48.61003" lon="2.10506">
        <ele>113</ele>
        <time>2011-04-15T07:44:43Z</time>
      </trkpt>
      <trkpt lat="48.61001" lon="2.10505">
        <ele>113</ele>
        <time>2011-04-15T07:44:44Z</time>
      </trkpt>
      <trkpt lat="48.61" lon="2.10506">
        <ele>113</ele>
        <time>2011-04-15T07:44:45Z</time>
      </trkpt>
      <trkpt lat="48.60999" lon="2.10506">
        <ele>113</ele>
        <time>2011-04-15T07:44:46Z</time>
      </trkpt>
      <trkpt lat="48.60997" lon="2.10506">
        <ele>113</ele>
        <time>2011-04-15T07:44:54Z</time>
      </trkpt>
      <trkpt lat="48.60996" lon="2.10506">
        <ele>113</ele>
        <time>2011-04-15T07:44:55Z</time>
      </trkpt>
      <trkpt lat="48.60994" lon="2.10505">
        <ele>113</ele>
        <time>2011-04-15T07:44:56Z</time>
      </trkpt>
      <trkpt lat="48.60992" lon="2.10505">
        <ele>113</ele>
        <time>2011-04-15T07:44:57Z</time>
      </trkpt>
      <trkpt lat="48.6099" lon="2.10505">
        <ele>113</ele>
        <time>2011-04-15T07:44:58Z</time>
      </trkpt>
      <trkpt lat="48.60987" lon="2.10505">
        <ele>113</ele>
        <time>2011-04-15T07:44:59Z</time>
      </trkpt>
      <trkpt lat="48.60985" lon="2.10505">
        <ele>113</ele>
        <time>2011-04-15T07:45:00Z</time>
      </trkpt>
      <trkpt lat="48.60983" lon="2.10505">
        <ele>113</ele>
        <time>2011-04-15T07:45:01Z</time>
      </trkpt>
      <trkpt lat="48.60982" lon="2.10505">
        <ele>113</ele>
        <time>2011-04-15T07:45:02Z</time>
      </trkpt>
      <trkpt lat="48.6098" lon="2.10505">
        <ele>113</ele>
        <time>2011-04-15T07:45:03Z</time>
      </trkpt>
      <trkpt lat="48.60979" lon="2.10505">
        <ele>113</ele>
        <time>2011-04-15T07:45:04Z</time>
      </trkpt>
      <trkpt lat="48.60977" lon="2.10504">
        <ele>113</ele>
        <time>2011-04-15T07:45:05Z</time>
      </trkpt>
      <trkpt lat="48.60975" lon="2.10504">
        <ele>113</ele>
        <time>2011-04-15T07:45:06Z</time>
      </trkpt>
      <trkpt lat="48.60973" lon="2.10503">
        <ele>113</ele>
        <time>2011-04-15T07:45:07Z</time>
      </trkpt>
      <trkpt lat="48.60971" lon="2.10503">
        <ele>113</ele>
        <time>2011-04-15T07:45:08Z</time>
      </trkpt>
      <trkpt lat="48.6097" lon="2.10503">
        <ele>113</ele>
        <time>2011-04-15T07:45:09Z</time>
      </trkpt>
      <trkpt lat="48.60968" lon="2.10504">
        <ele>113</ele>
        <time>2011-04-15T07:45:10Z</time>
      </trkpt>
      <trkpt lat="48.60967" lon="2.10504">
        <ele>113</ele>
        <time>2011-04-15T07:45:11Z</time>
      </trkpt>
      <trkpt lat="48.60965" lon="2.10504">
        <ele>113</ele>
        <time>2011-04-15T07:45:12Z</time>
      </trkpt>
      <trkpt lat="48.60963" lon="2.10503">
        <ele>113</ele>
        <time>2011-04-15T07:45:13Z</time>
      </trkpt>
      <trkpt lat="48.60962" lon="2.10503">
        <ele>113</ele>
        <time>2011-04-15T07:45:14Z</time>
      </trkpt>
      <trkpt lat="48.6096" lon="2.10503">
        <ele>113</ele>
        <time>2011-04-15T07:45:15Z</time>
      </trkpt>
      <trkpt lat="48.60958" lon="2.10503">
        <ele>113</ele>
        <time>2011-04-15T07:45:16Z</time>
      </trkpt>
      <trkpt lat="48.60957" lon="2.10503">
        <ele>113</ele>
        <time>2011-04-15T07:45:17Z</time>
      </trkpt>
      <trkpt lat="48.60955" lon="2.10502">
        <ele>113</ele>
        <time>2011-04-15T07:45:18Z</time>
      </trkpt>
      <trkpt lat="48.60953" lon="2.10502">
        <ele>113</ele>
        <time>2011-04-15T07:45:19Z</time>
      </trkpt>
      <trkpt lat="48.60952" lon="2.10502">
        <ele>113</ele>
        <time>2011-04-15T07:45:20Z</time>
      </trkpt>
      <trkpt lat="48.6095" lon="2.10501">
        <ele>113</ele>
        <time>2011-04-15T07:45:21Z</time>
      </trkpt>
      <trkpt lat="48.60949" lon="2.10501">
        <ele>113</ele>
        <time>2011-04-15T07:45:22Z</time>
      </trkpt>
      <trkpt lat="48.60947" lon="2.10501">
        <ele>113</ele>
        <time>2011-04-15T07:45:23Z</time>
      </trkpt>
      <trkpt lat="48.60945" lon="2.10501">
        <ele>113</ele>
        <time>2011-04-15T07:45:24Z</time>
      </trkpt>
      <trkpt lat="48.60943" lon="2.105">
        <ele>113</ele>
        <time>2011-04-15T07:45:25Z</time>
      </trkpt>
      <trkpt lat="48.60942" lon="2.105">
        <ele>113</ele>
        <time>2011-04-15T07:45:26Z</time>
      </trkpt>
      <trkpt lat="48.6094" lon="2.10499">
        <ele>113</ele>
        <time>2011-04-15T07:45:27Z</time>
      </trkpt>
      <trkpt lat="48.60938" lon="2.10499">
        <ele>113</ele>
        <time>2011-04-15T07:45:28Z</time>
      </trkpt>
      <trkpt lat="48.60937" lon="2.10499">
        <ele>113</ele>
        <time>2011-04-15T07:45:29Z</time>
      </trkpt>
      <trkpt lat="48.60935" lon="2.10499">
        <ele>113</ele>
        <time>2011-04-15T07:45:30Z</time>
      </trkpt>
      <trkpt lat="48.60933" lon="2.10499">
        <ele>113</ele>
        <time>2011-04-15T07:45:31Z</time>
      </trkpt>
      <trkpt lat="48.60932" lon="2.10499">
        <ele>113</ele>
        <time>2011-04-15T07:45:32Z</time>
      </trkpt>
      <trkpt lat="48.6093" lon="2.10499">
        <ele>113</ele>
        <time>2011-04-15T07:45:33Z</time>
      </trkpt>
      <trkpt lat="48.60928" lon="2.10499">
        <ele>113</ele>
        <time>2011-04-15T07:45:34Z</time>
      </trkpt>
      <trkpt lat="48.60927" lon="2.10499">
        <ele>113</ele>
        <time>2011-04-15T07:45:35Z</time>
      </trkpt>
      <trkpt lat="48.60925" lon="2.10499">
        <ele>113</ele>
        <time>2011-04-15T07:45:36Z</time>
      </trkpt>
      <trkpt lat="48.60923" lon="2.10499">
        <ele>113</ele>
        <time>2011-04-15T07:45:37Z</time>
      </trkpt>
      <trkpt lat="48.60922" lon="2.10499">
        <ele>113</ele>
        <time>2011-04-15T07:45:38Z</time>
      </trkpt>
      <trkpt lat="48.6092" lon="2.10499">
        <ele>113</ele>
        <time>2011-04-15T07:45:39Z</time>
      </trkpt>
      <trkpt lat="48.60918" lon="2.10499">
        <ele>113</ele>
        <time>2011-04-15T07:45:40Z</time>
      </trkpt>
      <trkpt lat="48.60917" lon="2.10499">
        <ele>113</ele>
        <time>2011-04-15T07:45:41Z</time>
      </trkpt>
      <trkpt lat="48.60915" lon="2.10499">
        <ele>113</ele>
        <time>2011-04-15T07:45:42Z</time>
      </trkpt>
      <trkpt lat="48.60914" lon="2.105">
        <ele>113</ele>
        <time>2011-04-15T07:45:43Z</time>
      </trkpt>
      <trkpt lat="48.60913" lon="2.105">
        <ele>113</ele>
        <time>2011-04-15T07:45:44Z</time>
      </trkpt>
      <trkpt lat="48.60911" lon="2.105">
        <ele>113</ele>
        <time>2011-04-15T07:45:45Z</time>
      </trkpt>
      <trkpt lat="48.6091" lon="2.10501">
        <ele>113</ele>
        <time>2011-04-15T07:45:46Z</time>
      </trkpt>
      <trkpt lat="48.60908" lon="2.10501">
        <ele>113</ele>
        <time>2011-04-15T07:45:47Z</time>
      </trkpt>
      <trkpt lat="48.60906" lon="2.10502">
        <ele>113</ele>
        <time>2011-04-15T07:45:48Z</time>
      </trkpt>
      <trkpt lat="48.60905" lon="2.10502">
        <ele>113</ele>
        <time>2011-04-15T07:45:49Z</time>
      </trkpt>
      <trkpt lat="48.60903" lon="2.10503">
        <ele>113</ele>
        <time>2011-04-15T07:45:50Z</time>
      </trkpt>
      <trkpt lat="48.60901" lon="2.10503">
        <ele>113</ele>
        <time>2011-04-15T07:45:51Z</time>
      </trkpt>
      <trkpt lat="48.609" lon="2.10503">
        <ele>113</ele>
        <time>2011-04-15T07:45:53Z</time>
      </trkpt>
      <trkpt lat="48.60899" lon="2.10505">
        <ele>113</ele>
        <time>2011-04-15T07:45:55Z</time>
      </trkpt>
      <trkpt lat="48.60897" lon="2.10507">
        <ele>113</ele>
        <time>2011-04-15T07:45:56Z</time>
      </trkpt>
      <trkpt lat="48.60897" lon="2.10511">
        <ele>113</ele>
        <time>2011-04-15T07:45:57Z</time>
      </trkpt>
      <trkpt lat="48.60896" lon="2.10515">
        <ele>113</ele>
        <time>2011-04-15T07:45:58Z</time>
      </trkpt>
      <trkpt lat="48.60896" lon="2.10518">
        <ele>113</ele>
        <time>2011-04-15T07:45:59Z</time>
      </trkpt>
      <trkpt lat="48.60896" lon="2.10522">
        <ele>113</ele>
        <time>2011-04-15T07:46:00Z</time>
      </trkpt>
      <trkpt lat="48.60896" lon="2.10525">
        <ele>113</ele>
        <time>2011-04-15T07:46:01Z</time>
      </trkpt>
      <trkpt lat="48.60896" lon="2.10528">
        <ele>113</ele>
        <time>2011-04-15T07:46:02Z</time>
      </trkpt>
      <trkpt lat="48.60897" lon="2.10532">
        <ele>113</ele>
        <time>2011-04-15T07:46:03Z</time>
      </trkpt>
      <trkpt lat="48.60897" lon="2.10536">
        <ele>113</ele>
        <time>2011-04-15T07:46:04Z</time>
      </trkpt>
      <trkpt lat="48.60896" lon="2.10539">
        <ele>113</ele>
        <time>2011-04-15T07:46:05Z</time>
      </trkpt>
      <trkpt lat="48.60895" lon="2.10543">
        <ele>113</ele>
        <time>2011-04-15T07:46:06Z</time>
      </trkpt>
      <trkpt lat="48.60894" lon="2.10546">
        <ele>113</ele>
        <time>2011-04-15T07:46:07Z</time>
      </trkpt>
      <trkpt lat="48.60892" lon="2.10549">
        <ele>113</ele>
        <time>2011-04-15T07:46:08Z</time>
      </trkpt>
      <trkpt lat="48.60891" lon="2.10551">
        <ele>113</ele>
        <time>2011-04-15T07:46:09Z</time>
      </trkpt>
      <trkpt lat="48.60889" lon="2.10552">
        <ele>113</ele>
        <time>2011-04-15T07:46:10Z</time>
      </trkpt>
      <trkpt lat="48.60887" lon="2.10553">
        <ele>113</ele>
        <time>2011-04-15T07:46:11Z</time>
      </trkpt>
      <trkpt lat="48.60885" lon="2.10554">
        <ele>113</ele>
        <time>2011-04-15T07:46:12Z</time>
      </trkpt>
      <trkpt lat="48.60883" lon="2.10555">
        <ele>113</ele>
        <time>2011-04-15T07:46:15Z</time>
      </trkpt>
      <trkpt lat="48.60882" lon="2.10556">
        <ele>113</ele>
        <time>2011-04-15T07:46:16Z</time>
      </trkpt>
      <trkpt lat="48.60879" lon="2.10557">
        <ele>113</ele>
        <time>2011-04-15T07:46:17Z</time>
      </trkpt>
      <trkpt lat="48.60877" lon="2.10558">
        <ele>113</ele>
        <time>2011-04-15T07:46:18Z</time>
      </trkpt>
      <trkpt lat="48.60874" lon="2.10558">
        <ele>113</ele>
        <time>2011-04-15T07:46:19Z</time>
      </trkpt>
      <trkpt lat="48.60871" lon="2.10559">
        <ele>113</ele>
        <time>2011-04-15T07:46:20Z</time>
      </trkpt>
      <trkpt lat="48.60869" lon="2.1056">
        <ele>113</ele>
        <time>2011-04-15T07:46:21Z</time>
      </trkpt>
      <trkpt lat="48.60867" lon="2.10561">
        <ele>113</ele>
        <time>2011-04-15T07:46:22Z</time>
      </trkpt>
      <trkpt lat="48.60865" lon="2.10562">
        <ele>113</ele>
        <time>2011-04-15T07:46:23Z</time>
      </trkpt>
      <trkpt lat="48.60863" lon="2.10563">
        <ele>113</ele>
        <time>2011-04-15T07:46:24Z</time>
      </trkpt>
      <trkpt lat="48.60861" lon="2.10563">
        <ele>113</ele>
        <time>2011-04-15T07:46:25Z</time>
      </trkpt>
      <trkpt lat="48.60859" lon="2.10564">
        <ele>113</ele>
        <time>2011-04-15T07:46:26Z</time>
      </trkpt>
      <trkpt lat="48.60857" lon="2.10565">
        <ele>113</ele>
        <time>2011-04-15T07:46:27Z</time>
      </trkpt>
      <trkpt lat="48.60856" lon="2.10566">
        <ele>113</ele>
        <time>2011-04-15T07:46:28Z</time>
      </trkpt>
      <trkpt lat="48.60854" lon="2.10568">
        <ele>113</ele>
        <time>2011-04-15T07:46:29Z</time>
      </trkpt>
      <trkpt lat="48.60852" lon="2.10568">
        <ele>113</ele>
        <time>2011-04-15T07:46:30Z</time>
      </trkpt>
      <trkpt lat="48.6085" lon="2.10569">
        <ele>113</ele>
        <time>2011-04-15T07:46:31Z</time>
      </trkpt>
      <trkpt lat="48.60849" lon="2.10569">
        <ele>113</ele>
        <time>2011-04-15T07:46:32Z</time>
      </trkpt>
      <trkpt lat="48.60847" lon="2.1057">
        <ele>113</ele>
        <time>2011-04-15T07:46:33Z</time>
      </trkpt>
      <trkpt lat="48.60845" lon="2.1057">
        <ele>113</ele>
        <time>2011-04-15T07:46:34Z</time>
      </trkpt>
      <trkpt lat="48.60843" lon="2.10571">
        <ele>113</ele>
        <time>2011-04-15T07:46:35Z</time>
      </trkpt>
      <trkpt lat="48.60841" lon="2.10572">
        <ele>113</ele>
        <time>2011-04-15T07:46:36Z</time>
      </trkpt>
      <trkpt lat="48.60839" lon="2.10573">
        <ele>113</ele>
        <time>2011-04-15T07:46:37Z</time>
      </trkpt>
      <trkpt lat="48.60837" lon="2.10574">
        <ele>113</ele>
        <time>2011-04-15T07:46:38Z</time>
      </trkpt>
      <trkpt lat="48.60834" lon="2.10574">
        <ele>113</ele>
        <time>2011-04-15T07:46:39Z</time>
      </trkpt>
      <trkpt lat="48.60832" lon="2.10575">
        <ele>113</ele>
        <time>2011-04-15T07:46:40Z</time>
      </trkpt>
      <trkpt lat="48.6083" lon="2.10576">
        <ele>113</ele>
        <time>2011-04-15T07:46:41Z</time>
      </trkpt>
      <trkpt lat="48.60827" lon="2.10577">
        <ele>113</ele>
        <time>2011-04-15T07:46:42Z</time>
      </trkpt>
      <trkpt lat="48.60826" lon="2.10577">
        <ele>113</ele>
        <time>2011-04-15T07:46:43Z</time>
      </trkpt>
      <trkpt lat="48.60824" lon="2.10578">
        <ele>113</ele>
        <time>2011-04-15T07:46:44Z</time>
      </trkpt>
      <trkpt lat="48.60822" lon="2.10578">
        <ele>113</ele>
        <time>2011-04-15T07:46:45Z</time>
      </trkpt>
      <trkpt lat="48.60821" lon="2.10579">
        <ele>113</ele>
        <time>2011-04-15T07:46:46Z</time>
      </trkpt>
      <trkpt lat="48.60819" lon="2.1058">
        <ele>113</ele>
        <time>2011-04-15T07:46:47Z</time>
      </trkpt>
      <trkpt lat="48.60817" lon="2.10581">
        <ele>113</ele>
        <time>2011-04-15T07:46:48Z</time>
      </trkpt>
      <trkpt lat="48.60816" lon="2.10581">
        <ele>113</ele>
        <time>2011-04-15T07:46:49Z</time>
      </trkpt>
      <trkpt lat="48.60814" lon="2.10582">
        <ele>113</ele>
        <time>2011-04-15T07:46:50Z</time>
      </trkpt>
      <trkpt lat="48.60813" lon="2.10582">
        <ele>113</ele>
        <time>2011-04-15T07:46:51Z</time>
      </trkpt>
      <trkpt lat="48.60811" lon="2.10583">
        <ele>113</ele>
        <time>2011-04-15T07:46:52Z</time>
      </trkpt>
      <trkpt lat="48.60809" lon="2.10584">
        <ele>113</ele>
        <time>2011-04-15T07:46:53Z</time>
      </trkpt>
      <trkpt lat="48.60808" lon="2.10584">
        <ele>113</ele>
        <time>2011-04-15T07:46:54Z</time>
      </trkpt>
      <trkpt lat="48.60806" lon="2.10585">
        <ele>113</ele>
        <time>2011-04-15T07:46:55Z</time>
      </trkpt>
      <trkpt lat="48.60805" lon="2.10585">
        <ele>113</ele>
        <time>2011-04-15T07:46:56Z</time>
      </trkpt>
      <trkpt lat="48.60803" lon="2.10586">
        <ele>113</ele>
        <time>2011-04-15T07:46:57Z</time>
      </trkpt>
      <trkpt lat="48.60801" lon="2.10587">
        <ele>113</ele>
        <time>2011-04-15T07:46:58Z</time>
      </trkpt>
      <trkpt lat="48.608" lon="2.10588">
        <ele>113</ele>
        <time>2011-04-15T07:46:59Z</time>
      </trkpt>
      <trkpt lat="48.60798" lon="2.10588">
        <ele>113</ele>
        <time>2011-04-15T07:47:00Z</time>
      </trkpt>
      <trkpt lat="48.60797" lon="2.10589">
        <ele>113</ele>
        <time>2011-04-15T07:47:01Z</time>
      </trkpt>
      <trkpt lat="48.60795" lon="2.1059">
        <ele>113</ele>
        <time>2011-04-15T07:47:02Z</time>
      </trkpt>
      <trkpt lat="48.60793" lon="2.10591">
        <ele>113</ele>
        <time>2011-04-15T07:47:03Z</time>
      </trkpt>
      <trkpt lat="48.60792" lon="2.10591">
        <ele>113</ele>
        <time>2011-04-15T07:47:04Z</time>
      </trkpt>
      <trkpt lat="48.6079" lon="2.10592">
        <ele>113</ele>
        <time>2011-04-15T07:47:05Z</time>
      </trkpt>
      <trkpt lat="48.60789" lon="2.10593">
        <ele>113</ele>
        <time>2011-04-15T07:47:06Z</time>
      </trkpt>
      <trkpt lat="48.60787" lon="2.10594">
        <ele>113</ele>
        <time>2011-04-15T07:47:07Z</time>
      </trkpt>
      <trkpt lat="48.60785" lon="2.10595">
        <ele>113</ele>
        <time>2011-04-15T07:47:08Z</time>
      </trkpt>
      <trkpt lat="48.60784" lon="2.10595">
        <ele>113</ele>
        <time>2011-04-15T07:47:09Z</time>
      </trkpt>
      <trkpt lat="48.60782" lon="2.10596">
        <ele>113</ele>
        <time>2011-04-15T07:47:10Z</time>
      </trkpt>
      <trkpt lat="48.6078" lon="2.10597">
        <ele>113</ele>
        <time>2011-04-15T07:47:11Z</time>
      </trkpt>
      <trkpt lat="48.60779" lon="2.10598">
        <ele>113</ele>
        <time>2011-04-15T07:47:12Z</time>
      </trkpt>
      <trkpt lat="48.60777" lon="2.10599">
        <ele>113</ele>
        <time>2011-04-15T07:47:13Z</time>
      </trkpt>
      <trkpt lat="48.60775" lon="2.106">
        <ele>113</ele>
        <time>2011-04-15T07:47:14Z</time>
      </trkpt>
      <trkpt lat="48.60774" lon="2.10601">
        <ele>113</ele>
        <time>2011-04-15T07:47:15Z</time>
      </trkpt>
      <trkpt lat="48.60772" lon="2.10602">
        <ele>113</ele>
        <time>2011-04-15T07:47:16Z</time>
      </trkpt>
      <trkpt lat="48.6077" lon="2.10603">
        <ele>113</ele>
        <time>2011-04-15T07:47:17Z</time>
      </trkpt>
      <trkpt lat="48.60769" lon="2.10604">
        <ele>113</ele>
        <time>2011-04-15T07:47:18Z</time>
      </trkpt>
      <trkpt lat="48.60767" lon="2.10605">
        <ele>113</ele>
        <time>2011-04-15T07:47:19Z</time>
      </trkpt>
      <trkpt lat="48.60765" lon="2.10606">
        <ele>113</ele>
        <time>2011-04-15T07:47:20Z</time>
      </trkpt>
      <trkpt lat="48.60763" lon="2.10607">
        <ele>113</ele>
        <time>2011-04-15T07:47:21Z</time>
      </trkpt>
      <trkpt lat="48.60761" lon="2.10607">
        <ele>113</ele>
        <time>2011-04-15T07:47:22Z</time>
      </trkpt>
      <trkpt lat="48.60759" lon="2.10608">
        <ele>113</ele>
        <time>2011-04-15T07:47:23Z</time>
      </trkpt>
      <trkpt lat="48.60758" lon="2.10609">
        <ele>113</ele>
        <time>2011-04-15T07:47:24Z</time>
      </trkpt>
      <trkpt lat="48.60756" lon="2.1061">
        <ele>113</ele>
        <time>2011-04-15T07:47:25Z</time>
      </trkpt>
      <trkpt lat="48.60755" lon="2.10611">
        <ele>113</ele>
        <time>2011-04-15T07:47:26Z</time>
      </trkpt>
      <trkpt lat="48.60753" lon="2.10612">
        <ele>113</ele>
        <time>2011-04-15T07:47:27Z</time>
      </trkpt>
      <trkpt lat="48.60751" lon="2.10613">
        <ele>113</ele>
        <time>2011-04-15T07:47:28Z</time>
      </trkpt>
      <trkpt lat="48.6075" lon="2.10614">
        <ele>113</ele>
        <time>2011-04-15T07:47:29Z</time>
      </trkpt>
      <trkpt lat="48.60748" lon="2.10615">
        <ele>113</ele>
        <time>2011-04-15T07:47:30Z</time>
      </trkpt>
      <trkpt lat="48.60746" lon="2.10616">
        <ele>113</ele>
        <time>2011-04-15T07:47:31Z</time>
      </trkpt>
      <trkpt lat="48.60745" lon="2.10617">
        <ele>113</ele>
        <time>2011-04-15T07:47:32Z</time>
      </trkpt>
      <trkpt lat="48.60743" lon="2.10617">
        <ele>113</ele>
        <time>2011-04-15T07:47:33Z</time>
      </trkpt>
      <trkpt lat="48.60742" lon="2.10618">
        <ele>113</ele>
        <time>2011-04-15T07:47:34Z</time>
      </trkpt>
      <trkpt lat="48.6074" lon="2.10619">
        <ele>113</ele>
        <time>2011-04-15T07:47:35Z</time>
      </trkpt>
      <trkpt lat="48.60738" lon="2.1062">
        <ele>113</ele>
        <time>2011-04-15T07:47:36Z</time>
      </trkpt>
      <trkpt lat="48.60736" lon="2.10621">
        <ele>113</ele>
        <time>2011-04-15T07:47:37Z</time>
      </trkpt>
      <trkpt lat="48.60734" lon="2.10622">
        <ele>113</ele>
        <time>2011-04-15T07:47:38Z</time>
      </trkpt>
      <trkpt lat="48.60731" lon="2.10623">
        <ele>113</ele>
        <time>2011-04-15T07:47:39Z</time>
      </trkpt>
      <trkpt lat="48.60727" lon="2.10625">
        <ele>113</ele>
        <time>2011-04-15T07:47:40Z</time>
      </trkpt>
      <trkpt lat="48.60724" lon="2.10627">
        <ele>113</ele>
        <time>2011-04-15T07:47:41Z</time>
      </trkpt>
      <trkpt lat="48.60721" lon="2.10628">
        <ele>113</ele>
        <time>2011-04-15T07:47:42Z</time>
      </trkpt>
      <trkpt lat="48.60718" lon="2.1063">
        <ele>113</ele>
        <time>2011-04-15T07:47:43Z</time>
      </trkpt>
      <trkpt lat="48.60715" lon="2.10631">
        <ele>113</ele>
        <time>2011-04-15T07:47:44Z</time>
      </trkpt>
      <trkpt lat="48.60713" lon="2.10632">
        <ele>113</ele>
        <time>2011-04-15T07:47:45Z</time>
      </trkpt>
      <trkpt lat="48.60711" lon="2.10633">
        <ele>113</ele>
        <time>2011-04-15T07:47:46Z</time>
      </trkpt>
      <trkpt lat="48.60709" lon="2.10634">
        <ele>113</ele>
        <time>2011-04-15T07:47:47Z</time>
      </trkpt>
      <trkpt lat="48.60707" lon="2.10635">
        <ele>113</ele>
        <time>2011-04-15T07:47:48Z</time>
      </trkpt>
      <trkpt lat="48.60704" lon="2.10636">
        <ele>113</ele>
        <time>2011-04-15T07:47:49Z</time>
      </trkpt>
      <trkpt lat="48.60702" lon="2.10638">
        <ele>113</ele>
        <time>2011-04-15T07:47:50Z</time>
      </trkpt>
      <trkpt lat="48.60699" lon="2.10639">
        <ele>113</ele>
        <time>2011-04-15T07:47:51Z</time>
      </trkpt>
      <trkpt lat="48.60696" lon="2.10642">
        <ele>113</ele>
        <time>2011-04-15T07:47:52Z</time>
      </trkpt>
      <trkpt lat="48.60693" lon="2.10643">
        <ele>113</ele>
        <time>2011-04-15T07:47:53Z</time>
      </trkpt>
      <trkpt lat="48.60691" lon="2.10643">
        <ele>113</ele>
        <time>2011-04-15T07:47:54Z</time>
      </trkpt>
      <trkpt lat="48.60689" lon="2.10644">
        <ele>113</ele>
        <time>2011-04-15T07:47:55Z</time>
      </trkpt>
      <trkpt lat="48.60686" lon="2.10645">
        <ele>113</ele>
        <time>2011-04-15T07:47:56Z</time>
      </trkpt>
      <trkpt lat="48.60683" lon="2.10646">
        <ele>113</ele>
        <time>2011-04-15T07:47:57Z</time>
      </trkpt>
      <trkpt lat="48.6068" lon="2.10648">
        <ele>113</ele>
        <time>2011-04-15T07:47:58Z</time>
      </trkpt>
      <trkpt lat="48.60677" lon="2.10649">
        <ele>113</ele>
        <time>2011-04-15T07:47:59Z</time>
      </trkpt>
      <trkpt lat="48.60674" lon="2.1065">
        <ele>113</ele>
        <time>2011-04-15T07:48:00Z</time>
      </trkpt>
      <trkpt lat="48.60671" lon="2.10651">
        <ele>113</ele>
        <time>2011-04-15T07:48:01Z</time>
      </trkpt>
      <trkpt lat="48.60667" lon="2.10653">
        <ele>113</ele>
        <time>2011-04-15T07:48:02Z</time>
      </trkpt>
      <trkpt lat="48.60664" lon="2.10654">
        <ele>113</ele>
        <time>2011-04-15T07:48:03Z</time>
      </trkpt>
      <trkpt lat="48.60661" lon="2.10655">
        <ele>113</ele>
        <time>2011-04-15T07:48:04Z</time>
      </trkpt>
      <trkpt lat="48.60658" lon="2.10656">
        <ele>113</ele>
        <time>2011-04-15T07:48:05Z</time>
      </trkpt>
      <trkpt lat="48.60655" lon="2.10657">
        <ele>113</ele>
        <time>2011-04-15T07:48:06Z</time>
      </trkpt>
      <trkpt lat="48.60652" lon="2.10658">
        <ele>113</ele>
        <time>2011-04-15T07:48:07Z</time>
      </trkpt>
      <trkpt lat="48.60649" lon="2.10659">
        <ele>113</ele>
        <time>2011-04-15T07:48:08Z</time>
      </trkpt>
      <trkpt lat="48.60646" lon="2.1066">
        <ele>113</ele>
        <time>2011-04-15T07:48:09Z</time>
      </trkpt>
      <trkpt lat="48.60645" lon="2.1066">
        <ele>113</ele>
        <time>2011-04-15T07:48:11Z</time>
      </trkpt>
      <trkpt lat="48.60643" lon="2.1066">
        <ele>113</ele>
        <time>2011-04-15T07:48:14Z</time>
      </trkpt>
      <trkpt lat="48.60641" lon="2.10661">
        <ele>113</ele>
        <time>2011-04-15T07:48:15Z</time>
      </trkpt>
      <trkpt lat="48.60637" lon="2.10662">
        <ele>113</ele>
        <time>2011-04-15T07:48:16Z</time>
      </trkpt>
      <trkpt lat="48.60634" lon="2.10662">
        <ele>113</ele>
        <time>2011-04-15T07:48:17Z</time>
      </trkpt>
      <trkpt lat="48.60631" lon="2.10662">
        <ele>113</ele>
        <time>2011-04-15T07:48:18Z</time>
      </trkpt>
      <trkpt lat="48.60627" lon="2.10663">
        <ele>113</ele>
        <time>2011-04-15T07:48:19Z</time>
      </trkpt>
      <trkpt lat="48.60624" lon="2.10663">
        <ele>113</ele>
        <time>2011-04-15T07:48:20Z</time>
      </trkpt>
      <trkpt lat="48.60621" lon="2.10662">
        <ele>113</ele>
        <time>2011-04-15T07:48:21Z</time>
      </trkpt>
      <trkpt lat="48.60619" lon="2.10662">
        <ele>113</ele>
        <time>2011-04-15T07:48:22Z</time>
      </trkpt>
      <trkpt lat="48.60617" lon="2.10662">
        <ele>113</ele>
        <time>2011-04-15T07:48:23Z</time>
      </trkpt>
      <trkpt lat="48.60615" lon="2.10662">
        <ele>113</ele>
        <time>2011-04-15T07:48:24Z</time>
      </trkpt>
      <trkpt lat="48.60612" lon="2.10663">
        <ele>113</ele>
        <time>2011-04-15T07:48:25Z</time>
      </trkpt>
      <trkpt lat="48.60609" lon="2.10663">
        <ele>113</ele>
        <time>2011-04-15T07:48:26Z</time>
      </trkpt>
      <trkpt lat="48.60606" lon="2.10663">
        <ele>112</ele>
        <time>2011-04-15T07:48:27Z</time>
      </trkpt>
      <trkpt lat="48.60603" lon="2.10663">
        <ele>112</ele>
        <time>2011-04-15T07:48:28Z</time>
      </trkpt>
      <trkpt lat="48.606" lon="2.10664">
        <ele>112</ele>
        <time>2011-04-15T07:48:29Z</time>
      </trkpt>
      <trkpt lat="48.60597" lon="2.10664">
        <ele>112</ele>
        <time>2011-04-15T07:48:30Z</time>
      </trkpt>
      <trkpt lat="48.60595" lon="2.10663">
        <ele>112</ele>
        <time>2011-04-15T07:48:31Z</time>
      </trkpt>
      <trkpt lat="48.60592" lon="2.10663">
        <ele>112</ele>
        <time>2011-04-15T07:48:32Z</time>
      </trkpt>
      <trkpt lat="48.60589" lon="2.10663">
        <ele>112</ele>
        <time>2011-04-15T07:48:33Z</time>
      </trkpt>
      <trkpt lat="48.60586" lon="2.10663">
        <ele>112</ele>
        <time>2011-04-15T07:48:34Z</time>
      </trkpt>
      <trkpt lat="48.60583" lon="2.10662">
        <ele>112</ele>
        <time>2011-04-15T07:48:35Z</time>
      </trkpt>
      <trkpt lat="48.60579" lon="2.10662">
        <ele>112</ele>
        <time>2011-04-15T07:48:36Z</time>
      </trkpt>
      <trkpt lat="48.60575" lon="2.10662">
        <ele>112</ele>
        <time>2011-04-15T07:48:37Z</time>
      </trkpt>
      <trkpt lat="48.60572" lon="2.10662">
        <ele>112</ele>
        <time>2011-04-15T07:48:38Z</time>
      </trkpt>
      <trkpt lat="48.60568" lon="2.10662">
        <ele>112</ele>
        <time>2011-04-15T07:48:39Z</time>
      </trkpt>
      <trkpt lat="48.60565" lon="2.10662">
        <ele>112</ele>
        <time>2011-04-15T07:48:40Z</time>
      </trkpt>
      <trkpt lat="48.60562" lon="2.10661">
        <ele>112</ele>
        <time>2011-04-15T07:48:41Z</time>
      </trkpt>
      <trkpt lat="48.60559" lon="2.10661">
        <ele>112</ele>
        <time>2011-04-15T07:48:42Z</time>
      </trkpt>
      <trkpt lat="48.60556" lon="2.1066">
        <ele>112</ele>
        <time>2011-04-15T07:48:43Z</time>
      </trkpt>
      <trkpt lat="48.60552" lon="2.1066">
        <ele>112</ele>
        <time>2011-04-15T07:48:44Z</time>
      </trkpt>
      <trkpt lat="48.60549" lon="2.10659">
        <ele>112</ele>
        <time>2011-04-15T07:48:45Z</time>
      </trkpt>
      <trkpt lat="48.60545" lon="2.10659">
        <ele>111</ele>
        <time>2011-04-15T07:48:46Z</time>
      </trkpt>
      <trkpt lat="48.60541" lon="2.10659">
        <ele>111</ele>
        <time>2011-04-15T07:48:47Z</time>
      </trkpt>
      <trkpt lat="48.60537" lon="2.10658">
        <ele>111</ele>
        <time>2011-04-15T07:48:48Z</time>
      </trkpt>
      <trkpt lat="48.60533" lon="2.10658">
        <ele>111</ele>
        <time>2011-04-15T07:48:49Z</time>
      </trkpt>
      <trkpt lat="48.6053" lon="2.10658">
        <ele>111</ele>
        <time>2011-04-15T07:48:50Z</time>
      </trkpt>
      <trkpt lat="48.60527" lon="2.10658">
        <ele>111</ele>
        <time>2011-04-15T07:48:51Z</time>
      </trkpt>
      <trkpt lat="48.60524" lon="2.10658">
        <ele>111</ele>
        <time>2011-04-15T07:48:52Z</time>
      </trkpt>
      <trkpt lat="48.60521" lon="2.10657">
        <ele>111</ele>
        <time>2011-04-15T07:48:53Z</time>
      </trkpt>
      <trkpt lat="48.60519" lon="2.10657">
        <ele>111</ele>
        <time>2011-04-15T07:48:54Z</time>
      </trkpt>
      <trkpt lat="48.60516" lon="2.10657">
        <ele>111</ele>
        <time>2011-04-15T07:48:55Z</time>
      </trkpt>
      <trkpt lat="48.60513" lon="2.10657">
        <ele>111</ele>
        <time>2011-04-15T07:48:56Z</time>
      </trkpt>
      <trkpt lat="48.60509" lon="2.10657">
        <ele>111</ele>
        <time>2011-04-15T07:48:57Z</time>
      </trkpt>
      <trkpt lat="48.60505" lon="2.10657">
        <ele>111</ele>
        <time>2011-04-15T07:48:58Z</time>
      </trkpt>
      <trkpt lat="48.60501" lon="2.10657">
        <ele>111</ele>
        <time>2011-04-15T07:48:59Z</time>
      </trkpt>
      <trkpt lat="48.60497" lon="2.10656">
        <ele>111</ele>
        <time>2011-04-15T07:49:00Z</time>
      </trkpt>
      <trkpt lat="48.60493" lon="2.10657">
        <ele>111</ele>
        <time>2011-04-15T07:49:01Z</time>
      </trkpt>
      <trkpt lat="48.60489" lon="2.10657">
        <ele>111</ele>
        <time>2011-04-15T07:49:02Z</time>
      </trkpt>
      <trkpt lat="48.60486" lon="2.10656">
        <ele>111</ele>
        <time>2011-04-15T07:49:03Z</time>
      </trkpt>
      <trkpt lat="48.60483" lon="2.10656">
        <ele>111</ele>
        <time>2011-04-15T07:49:04Z</time>
      </trkpt>
      <trkpt lat="48.60479" lon="2.10656">
        <ele>111</ele>
        <time>2011-04-15T07:49:05Z</time>
      </trkpt>
      <trkpt lat="48.60476" lon="2.10656">
        <ele>111</ele>
        <time>2011-04-15T07:49:06Z</time>
      </trkpt>
      <trkpt lat="48.60472" lon="2.10655">
        <ele>111</ele>
        <time>2011-04-15T07:49:07Z</time>
      </trkpt>
      <trkpt lat="48.60468" lon="2.10655">
        <ele>111</ele>
        <time>2011-04-15T07:49:08Z</time>
      </trkpt>
      <trkpt lat="48.60464" lon="2.10656">
        <ele>111</ele>
        <time>2011-04-15T07:49:09Z</time>
      </trkpt>
      <trkpt lat="48.6046" lon="2.10656">
        <ele>111</ele>
        <time>2011-04-15T07:49:10Z</time>
      </trkpt>
      <trkpt lat="48.60456" lon="2.10655">
        <ele>111</ele>
        <time>2011-04-15T07:49:11Z</time>
      </trkpt>
      <trkpt lat="48.60453" lon="2.10655">
        <ele>111</ele>
        <time>2011-04-15T07:49:12Z</time>
      </trkpt>
      <trkpt lat="48.6045" lon="2.10656">
        <ele>111</ele>
        <time>2011-04-15T07:49:13Z</time>
      </trkpt>
      <trkpt lat="48.60447" lon="2.10656">
        <ele>111</ele>
        <time>2011-04-15T07:49:14Z</time>
      </trkpt>
      <trkpt lat="48.60445" lon="2.10656">
        <ele>111</ele>
        <time>2011-04-15T07:49:15Z</time>
      </trkpt>
      <trkpt lat="48.60443" lon="2.10656">
        <ele>111</ele>
        <time>2011-04-15T07:49:16Z</time>
      </trkpt>
      <trkpt lat="48.6044" lon="2.10657">
        <ele>111</ele>
        <time>2011-04-15T07:49:17Z</time>
      </trkpt>
      <trkpt lat="48.60438" lon="2.10658">
        <ele>111</ele>
        <time>2011-04-15T07:49:18Z</time>
      </trkpt>
      <trkpt lat="48.60435" lon="2.10658">
        <ele>111</ele>
        <time>2011-04-15T07:49:19Z</time>
      </trkpt>
      <trkpt lat="48.60432" lon="2.10658">
        <ele>111</ele>
        <time>2011-04-15T07:49:20Z</time>
      </trkpt>
      <trkpt lat="48.6043" lon="2.10659">
        <ele>111</ele>
        <time>2011-04-15T07:49:21Z</time>
      </trkpt>
      <trkpt lat="48.60428" lon="2.10659">
        <ele>111</ele>
        <time>2011-04-15T07:49:22Z</time>
      </trkpt>
      <trkpt lat="48.60425" lon="2.1066">
        <ele>111</ele>
        <time>2011-04-15T07:49:23Z</time>
      </trkpt>
      <trkpt lat="48.60422" lon="2.1066">
        <ele>111</ele>
        <time>2011-04-15T07:49:24Z</time>
      </trkpt>
      <trkpt lat="48.60418" lon="2.10661">
        <ele>111</ele>
        <time>2011-04-15T07:49:25Z</time>
      </trkpt>
      <trkpt lat="48.60414" lon="2.10661">
        <ele>111</ele>
        <time>2011-04-15T07:49:26Z</time>
      </trkpt>
      <trkpt lat="48.6041" lon="2.10662">
        <ele>111</ele>
        <time>2011-04-15T07:49:27Z</time>
      </trkpt>
      <trkpt lat="48.60406" lon="2.10662">
        <ele>111</ele>
        <time>2011-04-15T07:49:28Z</time>
      </trkpt>
      <trkpt lat="48.60403" lon="2.10662">
        <ele>111</ele>
        <time>2011-04-15T07:49:29Z</time>
      </trkpt>
      <trkpt lat="48.60401" lon="2.10663">
        <ele>111</ele>
        <time>2011-04-15T07:49:30Z</time>
      </trkpt>
      <trkpt lat="48.60398" lon="2.10663">
        <ele>111</ele>
        <time>2011-04-15T07:49:31Z</time>
      </trkpt>
      <trkpt lat="48.60396" lon="2.10663">
        <ele>111</ele>
        <time>2011-04-15T07:49:32Z</time>
      </trkpt>
      <trkpt lat="48.60393" lon="2.10664">
        <ele>111</ele>
        <time>2011-04-15T07:49:33Z</time>
      </trkpt>
      <trkpt lat="48.6039" lon="2.10665">
        <ele>111</ele>
        <time>2011-04-15T07:49:34Z</time>
      </trkpt>
      <trkpt lat="48.60386" lon="2.10666">
        <ele>111</ele>
        <time>2011-04-15T07:49:35Z</time>
      </trkpt>
      <trkpt lat="48.60382" lon="2.10667">
        <ele>111</ele>
        <time>2011-04-15T07:49:36Z</time>
      </trkpt>
      <trkpt lat="48.60378" lon="2.10667">
        <ele>111</ele>
        <time>2011-04-15T07:49:37Z</time>
      </trkpt>
      <trkpt lat="48.60374" lon="2.10668">
        <ele>111</ele>
        <time>2011-04-15T07:49:38Z</time>
      </trkpt>
      <trkpt lat="48.60371" lon="2.10668">
        <ele>111</ele>
        <time>2011-04-15T07:49:39Z</time>
      </trkpt>
      <trkpt lat="48.60367" lon="2.10668">
        <ele>111</ele>
        <time>2011-04-15T07:49:40Z</time>
      </trkpt>
      <trkpt lat="48.60364" lon="2.10669">
        <ele>111</ele>
        <time>2011-04-15T07:49:41Z</time>
      </trkpt>
      <trkpt lat="48.60361" lon="2.10669">
        <ele>111</ele>
        <time>2011-04-15T07:49:42Z</time>
      </trkpt>
      <trkpt lat="48.60358" lon="2.1067">
        <ele>111</ele>
        <time>2011-04-15T07:49:43Z</time>
      </trkpt>
      <trkpt lat="48.60356" lon="2.10669">
        <ele>111</ele>
        <time>2011-04-15T07:49:44Z</time>
      </trkpt>
      <trkpt lat="48.60354" lon="2.10669">
        <ele>111</ele>
        <time>2011-04-15T07:49:45Z</time>
      </trkpt>
      <trkpt lat="48.60352" lon="2.1067">
        <ele>111</ele>
        <time>2011-04-15T07:49:46Z</time>
      </trkpt>
      <trkpt lat="48.6035" lon="2.10671">
        <ele>111</ele>
        <time>2011-04-15T07:49:47Z</time>
      </trkpt>
      <trkpt lat="48.60347" lon="2.10673">
        <ele>111</ele>
        <time>2011-04-15T07:49:48Z</time>
      </trkpt>
      <trkpt lat="48.60344" lon="2.10676">
        <ele>111</ele>
        <time>2011-04-15T07:49:49Z</time>
      </trkpt>
      <trkpt lat="48.60341" lon="2.10678">
        <ele>111</ele>
        <time>2011-04-15T07:49:50Z</time>
      </trkpt>
      <trkpt lat="48.60337" lon="2.1068">
        <ele>111</ele>
        <time>2011-04-15T07:49:51Z</time>
      </trkpt>
      <trkpt lat="48.60333" lon="2.10682">
        <ele>111</ele>
        <time>2011-04-15T07:49:52Z</time>
      </trkpt>
      <trkpt lat="48.60329" lon="2.10683">
        <ele>111</ele>
        <time>2011-04-15T07:49:53Z</time>
      </trkpt>
      <trkpt lat="48.60325" lon="2.10685">
        <ele>111</ele>
        <time>2011-04-15T07:49:54Z</time>
      </trkpt>
      <trkpt lat="48.60321" lon="2.10685">
        <ele>111</ele>
        <time>2011-04-15T07:49:55Z</time>
      </trkpt>
      <trkpt lat="48.60317" lon="2.10686">
        <ele>111</ele>
        <time>2011-04-15T07:49:56Z</time>
      </trkpt>
      <trkpt lat="48.60314" lon="2.10686">
        <ele>112</ele>
        <time>2011-04-15T07:49:57Z</time>
      </trkpt>
      <trkpt lat="48.60312" lon="2.10686">
        <ele>112</ele>
        <time>2011-04-15T07:49:58Z</time>
      </trkpt>
      <trkpt lat="48.60309" lon="2.10685">
        <ele>112</ele>
        <time>2011-04-15T07:49:59Z</time>
      </trkpt>
      <trkpt lat="48.60306" lon="2.10685">
        <ele>112</ele>
        <time>2011-04-15T07:50:00Z</time>
      </trkpt>
      <trkpt lat="48.60302" lon="2.10685">
        <ele>112</ele>
        <time>2011-04-15T07:50:01Z</time>
      </trkpt>
      <trkpt lat="48.60298" lon="2.10685">
        <ele>112</ele>
        <time>2011-04-15T07:50:02Z</time>
      </trkpt>
      <trkpt lat="48.60294" lon="2.10686">
        <ele>112</ele>
        <time>2011-04-15T07:50:03Z</time>
      </trkpt>
      <trkpt lat="48.60291" lon="2.10686">
        <ele>112</ele>
        <time>2011-04-15T07:50:04Z</time>
      </trkpt>
      <trkpt lat="48.60288" lon="2.10686">
        <ele>112</ele>
        <time>2011-04-15T07:50:05Z</time>
      </trkpt>
      <trkpt lat="48.60286" lon="2.10686">
        <ele>112</ele>
        <time>2011-04-15T07:50:06Z</time>
      </trkpt>
      <trkpt lat="48.60284" lon="2.10686">
        <ele>112</ele>
        <time>2011-04-15T07:50:07Z</time>
      </trkpt>
      <trkpt lat="48.60281" lon="2.10686">
        <ele>112</ele>
        <time>2011-04-15T07:50:08Z</time>
      </trkpt>
      <trkpt lat="48.60278" lon="2.10687">
        <ele>112</ele>
        <time>2011-04-15T07:50:09Z</time>
      </trkpt>
      <trkpt lat="48.60275" lon="2.10688">
        <ele>112</ele>
        <time>2011-04-15T07:50:10Z</time>
      </trkpt>
      <trkpt lat="48.60271" lon="2.10688">
        <ele>112</ele>
        <time>2011-04-15T07:50:11Z</time>
      </trkpt>
      <trkpt lat="48.60268" lon="2.10689">
        <ele>112</ele>
        <time>2011-04-15T07:50:12Z</time>
      </trkpt>
      <trkpt lat="48.60264" lon="2.1069">
        <ele>112</ele>
        <time>2011-04-15T07:50:13Z</time>
      </trkpt>
      <trkpt lat="48.60261" lon="2.10691">
        <ele>112</ele>
        <time>2011-04-15T07:50:14Z</time>
      </trkpt>
      <trkpt lat="48.60258" lon="2.10692">
        <ele>112</ele>
        <time>2011-04-15T07:50:15Z</time>
      </trkpt>
      <trkpt lat="48.60254" lon="2.10693">
        <ele>112</ele>
        <time>2011-04-15T07:50:16Z</time>
      </trkpt>
      <trkpt lat="48.60251" lon="2.10695">
        <ele>112</ele>
        <time>2011-04-15T07:50:17Z</time>
      </trkpt>
      <trkpt lat="48.60248" lon="2.10697">
        <ele>112</ele>
        <time>2011-04-15T07:50:18Z</time>
      </trkpt>
      <trkpt lat="48.60245" lon="2.10698">
        <ele>112</ele>
        <time>2011-04-15T07:50:19Z</time>
      </trkpt>
      <trkpt lat="48.60242" lon="2.10699">
        <ele>112</ele>
        <time>2011-04-15T07:50:20Z</time>
      </trkpt>
      <trkpt lat="48.6024" lon="2.107">
        <ele>112</ele>
        <time>2011-04-15T07:50:21Z</time>
      </trkpt>
      <trkpt lat="48.60238" lon="2.10701">
        <ele>112</ele>
        <time>2011-04-15T07:50:22Z</time>
      </trkpt>
      <trkpt lat="48.60235" lon="2.10702">
        <ele>112</ele>
        <time>2011-04-15T07:50:23Z</time>
      </trkpt>
      <trkpt lat="48.60232" lon="2.10703">
        <ele>112</ele>
        <time>2011-04-15T07:50:24Z</time>
      </trkpt>
      <trkpt lat="48.60229" lon="2.10705">
        <ele>112</ele>
        <time>2011-04-15T07:50:25Z</time>
      </trkpt>
      <trkpt lat="48.60225" lon="2.10706">
        <ele>112</ele>
        <time>2011-04-15T07:50:26Z</time>
      </trkpt>
      <trkpt lat="48.60222" lon="2.10708">
        <ele>112</ele>
        <time>2011-04-15T07:50:27Z</time>
      </trkpt>
      <trkpt lat="48.60219" lon="2.1071">
        <ele>112</ele>
        <time>2011-04-15T07:50:28Z</time>
      </trkpt>
      <trkpt lat="48.60215" lon="2.10713">
        <ele>112</ele>
        <time>2011-04-15T07:50:29Z</time>
      </trkpt>
      <trkpt lat="48.60213" lon="2.10715">
        <ele>112</ele>
        <time>2011-04-15T07:50:30Z</time>
      </trkpt>
      <trkpt lat="48.60211" lon="2.10716">
        <ele>113</ele>
        <time>2011-04-15T07:50:31Z</time>
      </trkpt>
      <trkpt lat="48.60208" lon="2.10717">
        <ele>113</ele>
        <time>2011-04-15T07:50:32Z</time>
      </trkpt>
      <trkpt lat="48.60205" lon="2.10718">
        <ele>114</ele>
        <time>2011-04-15T07:50:33Z</time>
      </trkpt>
      <trkpt lat="48.60202" lon="2.1072">
        <ele>114</ele>
        <time>2011-04-15T07:50:34Z</time>
      </trkpt>
      <trkpt lat="48.60199" lon="2.10721">
        <ele>114</ele>
        <time>2011-04-15T07:50:35Z</time>
      </trkpt>
      <trkpt lat="48.60196" lon="2.10721">
        <ele>115</ele>
        <time>2011-04-15T07:50:36Z</time>
      </trkpt>
      <trkpt lat="48.60194" lon="2.10721">
        <ele>115</ele>
        <time>2011-04-15T07:50:37Z</time>
      </trkpt>
      <trkpt lat="48.60191" lon="2.10722">
        <ele>115</ele>
        <time>2011-04-15T07:50:38Z</time>
      </trkpt>
      <trkpt lat="48.60189" lon="2.10722">
        <ele>115</ele>
        <time>2011-04-15T07:50:39Z</time>
      </trkpt>
      <trkpt lat="48.60187" lon="2.10723">
        <ele>115</ele>
        <time>2011-04-15T07:50:40Z</time>
      </trkpt>
      <trkpt lat="48.60185" lon="2.10723">
        <ele>115</ele>
        <time>2011-04-15T07:50:41Z</time>
      </trkpt>
      <trkpt lat="48.60184" lon="2.10721">
        <ele>115</ele>
        <time>2011-04-15T07:50:44Z</time>
      </trkpt>
      <trkpt lat="48.60183" lon="2.10721">
        <ele>115</ele>
        <time>2011-04-15T07:50:45Z</time>
      </trkpt>
      <trkpt lat="48.60181" lon="2.1072">
        <ele>115</ele>
        <time>2011-04-15T07:50:46Z</time>
      </trkpt>
      <trkpt lat="48.6018" lon="2.10719">
        <ele>115</ele>
        <time>2011-04-15T07:50:47Z</time>
      </trkpt>
      <trkpt lat="48.60178" lon="2.10717">
        <ele>115</ele>
        <time>2011-04-15T07:50:49Z</time>
      </trkpt>
      <trkpt lat="48.60176" lon="2.10717">
        <ele>115</ele>
        <time>2011-04-15T07:50:51Z</time>
      </trkpt>
      <trkpt lat="48.60173" lon="2.10717">
        <ele>115</ele>
        <time>2011-04-15T07:50:53Z</time>
      </trkpt>
      <trkpt lat="48.60172" lon="2.10717">
        <ele>114</ele>
        <time>2011-04-15T07:50:54Z</time>
      </trkpt>
      <trkpt lat="48.6017" lon="2.10718">
        <ele>113</ele>
        <time>2011-04-15T07:50:55Z</time>
      </trkpt>
      <trkpt lat="48.60168" lon="2.10719">
        <ele>113</ele>
        <time>2011-04-15T07:50:56Z</time>
      </trkpt>
      <trkpt lat="48.60167" lon="2.1072">
        <ele>113</ele>
        <time>2011-04-15T07:50:57Z</time>
      </trkpt>
      <trkpt lat="48.60165" lon="2.1072">
        <ele>113</ele>
        <time>2011-04-15T07:50:58Z</time>
      </trkpt>
      <trkpt lat="48.60164" lon="2.1072">
        <ele>113</ele>
        <time>2011-04-15T07:50:59Z</time>
      </trkpt>
      <trkpt lat="48.60162" lon="2.10719">
        <ele>113</ele>
        <time>2011-04-15T07:51:00Z</time>
      </trkpt>
      <trkpt lat="48.6016" lon="2.10719">
        <ele>113</ele>
        <time>2011-04-15T07:51:01Z</time>
      </trkpt>
      <trkpt lat="48.60158" lon="2.10719">
        <ele>113</ele>
        <time>2011-04-15T07:51:02Z</time>
      </trkpt>
      <trkpt lat="48.60157" lon="2.10719">
        <ele>113</ele>
        <time>2011-04-15T07:51:03Z</time>
      </trkpt>
      <trkpt lat="48.60156" lon="2.10718">
        <ele>113</ele>
        <time>2011-04-15T07:51:04Z</time>
      </trkpt>
      <trkpt lat="48.60155" lon="2.10717">
        <ele>113</ele>
        <time>2011-04-15T07:51:05Z</time>
      </trkpt>
      <trkpt lat="48.60153" lon="2.10717">
        <ele>112</ele>
        <time>2011-04-15T07:51:06Z</time>
      </trkpt>
      <trkpt lat="48.60152" lon="2.10716">
        <ele>112</ele>
        <time>2011-04-15T07:51:07Z</time>
      </trkpt>
      <trkpt lat="48.60151" lon="2.10715">
        <ele>111</ele>
        <time>2011-04-15T07:51:08Z</time>
      </trkpt>
      <trkpt lat="48.60149" lon="2.10715">
        <ele>111</ele>
        <time>2011-04-15T07:51:09Z</time>
      </trkpt>
      <trkpt lat="48.60148" lon="2.10714">
        <ele>110</ele>
        <time>2011-04-15T07:51:10Z</time>
      </trkpt>
      <trkpt lat="48.60147" lon="2.10714">
        <ele>110</ele>
        <time>2011-04-15T07:51:11Z</time>
      </trkpt>
      <trkpt lat="48.60145" lon="2.10715">
        <ele>109</ele>
        <time>2011-04-15T07:51:13Z</time>
      </trkpt>
      <trkpt lat="48.60143" lon="2.10715">
        <ele>108</ele>
        <time>2011-04-15T07:51:14Z</time>
      </trkpt>
      <trkpt lat="48.60142" lon="2.10716">
        <ele>108</ele>
        <time>2011-04-15T07:51:15Z</time>
      </trkpt>
      <trkpt lat="48.6014" lon="2.10716">
        <ele>108</ele>
        <time>2011-04-15T07:51:16Z</time>
      </trkpt>
      <trkpt lat="48.60139" lon="2.10715">
        <ele>108</ele>
        <time>2011-04-15T07:51:17Z</time>
      </trkpt>
      <trkpt lat="48.60137" lon="2.10715">
        <ele>108</ele>
        <time>2011-04-15T07:51:18Z</time>
      </trkpt>
      <trkpt lat="48.60135" lon="2.10714">
        <ele>108</ele>
        <time>2011-04-15T07:51:19Z</time>
      </trkpt>
      <trkpt lat="48.60133" lon="2.10713">
        <ele>108</ele>
        <time>2011-04-15T07:51:20Z</time>
      </trkpt>
      <trkpt lat="48.60132" lon="2.10711">
        <ele>108</ele>
        <time>2011-04-15T07:51:21Z</time>
      </trkpt>
      <trkpt lat="48.60131" lon="2.1071">
        <ele>108</ele>
        <time>2011-04-15T07:51:22Z</time>
      </trkpt>
      <trkpt lat="48.60129" lon="2.10708">
        <ele>107</ele>
        <time>2011-04-15T07:51:23Z</time>
      </trkpt>
      <trkpt lat="48.60128" lon="2.10706">
        <ele>107</ele>
        <time>2011-04-15T07:51:24Z</time>
      </trkpt>
      <trkpt lat="48.60127" lon="2.10706">
        <ele>106</ele>
        <time>2011-04-15T07:51:25Z</time>
      </trkpt>
      <trkpt lat="48.60125" lon="2.10705">
        <ele>106</ele>
        <time>2011-04-15T07:51:26Z</time>
      </trkpt>
      <trkpt lat="48.60123" lon="2.10704">
        <ele>105</ele>
        <time>2011-04-15T07:51:27Z</time>
      </trkpt>
      <trkpt lat="48.60121" lon="2.10703">
        <ele>105</ele>
        <time>2011-04-15T07:51:28Z</time>
      </trkpt>
      <trkpt lat="48.60119" lon="2.10702">
        <ele>104</ele>
        <time>2011-04-15T07:51:29Z</time>
      </trkpt>
      <trkpt lat="48.60117" lon="2.107">
        <ele>104</ele>
        <time>2011-04-15T07:51:30Z</time>
      </trkpt>
      <trkpt lat="48.60115" lon="2.10699">
        <ele>104</ele>
        <time>2011-04-15T07:51:31Z</time>
      </trkpt>
      <trkpt lat="48.60114" lon="2.10698">
        <ele>104</ele>
        <time>2011-04-15T07:51:32Z</time>
      </trkpt>
      <trkpt lat="48.60112" lon="2.10697">
        <ele>104</ele>
        <time>2011-04-15T07:51:33Z</time>
      </trkpt>
      <trkpt lat="48.60111" lon="2.10696">
        <ele>104</ele>
        <time>2011-04-15T07:51:34Z</time>
      </trkpt>
      <trkpt lat="48.6011" lon="2.10695">
        <ele>104</ele>
        <time>2011-04-15T07:51:35Z</time>
      </trkpt>
      <trkpt lat="48.60108" lon="2.10692">
        <ele>104</ele>
        <time>2011-04-15T07:51:37Z</time>
      </trkpt>
      <trkpt lat="48.60106" lon="2.10691">
        <ele>104</ele>
        <time>2011-04-15T07:51:38Z</time>
      </trkpt>
      <trkpt lat="48.60105" lon="2.10691">
        <ele>103</ele>
        <time>2011-04-15T07:51:39Z</time>
      </trkpt>
      <trkpt lat="48.60104" lon="2.1069">
        <ele>103</ele>
        <time>2011-04-15T07:51:40Z</time>
      </trkpt>
      <trkpt lat="48.60102" lon="2.10689">
        <ele>102</ele>
        <time>2011-04-15T07:51:42Z</time>
      </trkpt>
      <trkpt lat="48.601" lon="2.10688">
        <ele>102</ele>
        <time>2011-04-15T07:51:43Z</time>
      </trkpt>
      <trkpt lat="48.60099" lon="2.10687">
        <ele>101</ele>
        <time>2011-04-15T07:51:44Z</time>
      </trkpt>
      <trkpt lat="48.60098" lon="2.10686">
        <ele>101</ele>
        <time>2011-04-15T07:51:45Z</time>
      </trkpt>
      <trkpt lat="48.60096" lon="2.10685">
        <ele>101</ele>
        <time>2011-04-15T07:51:46Z</time>
      </trkpt>
      <trkpt lat="48.60095" lon="2.10684">
        <ele>101</ele>
        <time>2011-04-15T07:51:47Z</time>
      </trkpt>
      <trkpt lat="48.60093" lon="2.10683">
        <ele>100</ele>
        <time>2011-04-15T07:51:48Z</time>
      </trkpt>
      <trkpt lat="48.60091" lon="2.10681">
        <ele>100</ele>
        <time>2011-04-15T07:51:50Z</time>
      </trkpt>
      <trkpt lat="48.6009" lon="2.1068">
        <ele>100</ele>
        <time>2011-04-15T07:51:51Z</time>
      </trkpt>
      <trkpt lat="48.60089" lon="2.1068">
        <ele>100</ele>
        <time>2011-04-15T07:51:52Z</time>
      </trkpt>
      <trkpt lat="48.60087" lon="2.10679">
        <ele>100</ele>
        <time>2011-04-15T07:51:53Z</time>
      </trkpt>
      <trkpt lat="48.60085" lon="2.10678">
        <ele>100</ele>
        <time>2011-04-15T07:51:54Z</time>
      </trkpt>
      <trkpt lat="48.60083" lon="2.10678">
        <ele>100</ele>
        <time>2011-04-15T07:51:55Z</time>
      </trkpt>
      <trkpt lat="48.60082" lon="2.10677">
        <ele>100</ele>
        <time>2011-04-15T07:51:56Z</time>
      </trkpt>
      <trkpt lat="48.60081" lon="2.10677">
        <ele>100</ele>
        <time>2011-04-15T07:51:57Z</time>
      </trkpt>
      <trkpt lat="48.60079" lon="2.10677">
        <ele>100</ele>
        <time>2011-04-15T07:51:58Z</time>
      </trkpt>
      <trkpt lat="48.60078" lon="2.10676">
        <ele>100</ele>
        <time>2011-04-15T07:51:59Z</time>
      </trkpt>
      <trkpt lat="48.60077" lon="2.10675">
        <ele>100</ele>
        <time>2011-04-15T07:52:00Z</time>
      </trkpt>
      <trkpt lat="48.60075" lon="2.10674">
        <ele>100</ele>
        <time>2011-04-15T07:52:01Z</time>
      </trkpt>
      <trkpt lat="48.60074" lon="2.10673">
        <ele>100</ele>
        <time>2011-04-15T07:52:02Z</time>
      </trkpt>
      <trkpt lat="48.60073" lon="2.10672">
        <ele>100</ele>
        <time>2011-04-15T07:52:03Z</time>
      </trkpt>
      <trkpt lat="48.60071" lon="2.10671">
        <ele>100</ele>
        <time>2011-04-15T07:52:04Z</time>
      </trkpt>
      <trkpt lat="48.6007" lon="2.1067">
        <ele>100</ele>
        <time>2011-04-15T07:52:05Z</time>
      </trkpt>
      <trkpt lat="48.60068" lon="2.10669">
        <ele>100</ele>
        <time>2011-04-15T07:52:06Z</time>
      </trkpt>
      <trkpt lat="48.60066" lon="2.10669">
        <ele>100</ele>
        <time>2011-04-15T07:52:07Z</time>
      </trkpt>
      <trkpt lat="48.60064" lon="2.10668">
        <ele>100</ele>
        <time>2011-04-15T07:52:08Z</time>
      </trkpt>
      <trkpt lat="48.60062" lon="2.10668">
        <ele>100</ele>
        <time>2011-04-15T07:52:09Z</time>
      </trkpt>
      <trkpt lat="48.60061" lon="2.10667">
        <ele>100</ele>
        <time>2011-04-15T07:52:10Z</time>
      </trkpt>
      <trkpt lat="48.60059" lon="2.10667">
        <ele>100</ele>
        <time>2011-04-15T07:52:11Z</time>
      </trkpt>
      <trkpt lat="48.60058" lon="2.10666">
        <ele>100</ele>
        <time>2011-04-15T07:52:12Z</time>
      </trkpt>
      <trkpt lat="48.60057" lon="2.10666">
        <ele>100</ele>
        <time>2011-04-15T07:52:13Z</time>
      </trkpt>
      <trkpt lat="48.60055" lon="2.10665">
        <ele>100</ele>
        <time>2011-04-15T07:52:14Z</time>
      </trkpt>
      <trkpt lat="48.60054" lon="2.10664">
        <ele>100</ele>
        <time>2011-04-15T07:52:15Z</time>
      </trkpt>
      <trkpt lat="48.60052" lon="2.10664">
        <ele>100</ele>
        <time>2011-04-15T07:52:16Z</time>
      </trkpt>
      <trkpt lat="48.60051" lon="2.10663">
        <ele>100</ele>
        <time>2011-04-15T07:52:17Z</time>
      </trkpt>
      <trkpt lat="48.60049" lon="2.10663">
        <ele>100</ele>
        <time>2011-04-15T07:52:18Z</time>
      </trkpt>
      <trkpt lat="48.60047" lon="2.10663">
        <ele>100</ele>
        <time>2011-04-15T07:52:19Z</time>
      </trkpt>
      <trkpt lat="48.60045" lon="2.10662">
        <ele>100</ele>
        <time>2011-04-15T07:52:20Z</time>
      </trkpt>
      <trkpt lat="48.60044" lon="2.10662">
        <ele>100</ele>
        <time>2011-04-15T07:52:21Z</time>
      </trkpt>
      <trkpt lat="48.60042" lon="2.10661">
        <ele>100</ele>
        <time>2011-04-15T07:52:22Z</time>
      </trkpt>
      <trkpt lat="48.6004" lon="2.1066">
        <ele>100</ele>
        <time>2011-04-15T07:52:23Z</time>
      </trkpt>
      <trkpt lat="48.60039" lon="2.10659">
        <ele>100</ele>
        <time>2011-04-15T07:52:24Z</time>
      </trkpt>
      <trkpt lat="48.60037" lon="2.10659">
        <ele>100</ele>
        <time>2011-04-15T07:52:25Z</time>
      </trkpt>
      <trkpt lat="48.60035" lon="2.10658">
        <ele>100</ele>
        <time>2011-04-15T07:52:26Z</time>
      </trkpt>
      <trkpt lat="48.60034" lon="2.10658">
        <ele>100</ele>
        <time>2011-04-15T07:52:27Z</time>
      </trkpt>
      <trkpt lat="48.60032" lon="2.10658">
        <ele>100</ele>
        <time>2011-04-15T07:52:28Z</time>
      </trkpt>
      <trkpt lat="48.6003" lon="2.10657">
        <ele>100</ele>
        <time>2011-04-15T07:52:29Z</time>
      </trkpt>
      <trkpt lat="48.60029" lon="2.10657">
        <ele>100</ele>
        <time>2011-04-15T07:52:30Z</time>
      </trkpt>
      <trkpt lat="48.60027" lon="2.10656">
        <ele>100</ele>
        <time>2011-04-15T07:52:31Z</time>
      </trkpt>
      <trkpt lat="48.60026" lon="2.10655">
        <ele>100</ele>
        <time>2011-04-15T07:52:32Z</time>
      </trkpt>
      <trkpt lat="48.60024" lon="2.10655">
        <ele>100</ele>
        <time>2011-04-15T07:52:33Z</time>
      </trkpt>
      <trkpt lat="48.60023" lon="2.10654">
        <ele>100</ele>
        <time>2011-04-15T07:52:34Z</time>
      </trkpt>
      <trkpt lat="48.60021" lon="2.10653">
        <ele>100</ele>
        <time>2011-04-15T07:52:35Z</time>
      </trkpt>
      <trkpt lat="48.6002" lon="2.10653">
        <ele>100</ele>
        <time>2011-04-15T07:52:36Z</time>
      </trkpt>
      <trkpt lat="48.60018" lon="2.10652">
        <ele>100</ele>
        <time>2011-04-15T07:52:38Z</time>
      </trkpt>
      <trkpt lat="48.60017" lon="2.1065">
        <ele>100</ele>
        <time>2011-04-15T07:52:39Z</time>
      </trkpt>
      <trkpt lat="48.60015" lon="2.10649">
        <ele>99</ele>
        <time>2011-04-15T07:52:40Z</time>
      </trkpt>
      <trkpt lat="48.60014" lon="2.10648">
        <ele>99</ele>
        <time>2011-04-15T07:52:41Z</time>
      </trkpt>
      <trkpt lat="48.60012" lon="2.10648">
        <ele>98</ele>
        <time>2011-04-15T07:52:42Z</time>
      </trkpt>
      <trkpt lat="48.60011" lon="2.10648">
        <ele>98</ele>
        <time>2011-04-15T07:52:43Z</time>
      </trkpt>
      <trkpt lat="48.60009" lon="2.10647">
        <ele>98</ele>
        <time>2011-04-15T07:52:44Z</time>
      </trkpt>
      <trkpt lat="48.60008" lon="2.10646">
        <ele>98</ele>
        <time>2011-04-15T07:52:45Z</time>
      </trkpt>
      <trkpt lat="48.60006" lon="2.10646">
        <ele>98</ele>
        <time>2011-04-15T07:52:46Z</time>
      </trkpt>
      <trkpt lat="48.60005" lon="2.10645">
        <ele>98</ele>
        <time>2011-04-15T07:52:47Z</time>
      </trkpt>
      <trkpt lat="48.60004" lon="2.10644">
        <ele>98</ele>
        <time>2011-04-15T07:52:48Z</time>
      </trkpt>
      <trkpt lat="48.60002" lon="2.10643">
        <ele>98</ele>
        <time>2011-04-15T07:52:49Z</time>
      </trkpt>
      <trkpt lat="48.6" lon="2.10642">
        <ele>98</ele>
        <time>2011-04-15T07:52:50Z</time>
      </trkpt>
      <trkpt lat="48.59998" lon="2.10641">
        <ele>98</ele>
        <time>2011-04-15T07:52:51Z</time>
      </trkpt>
      <trkpt lat="48.59997" lon="2.1064">
        <ele>98</ele>
        <time>2011-04-15T07:52:52Z</time>
      </trkpt>
      <trkpt lat="48.59995" lon="2.10638">
        <ele>98</ele>
        <time>2011-04-15T07:52:54Z</time>
      </trkpt>
      <trkpt lat="48.59993" lon="2.10638">
        <ele>98</ele>
        <time>2011-04-15T07:52:56Z</time>
      </trkpt>
      <trkpt lat="48.59991" lon="2.10637">
        <ele>98</ele>
        <time>2011-04-15T07:52:58Z</time>
      </trkpt>
      <trkpt lat="48.59989" lon="2.10637">
        <ele>98</ele>
        <time>2011-04-15T07:52:59Z</time>
      </trkpt>
      <trkpt lat="48.59988" lon="2.10636">
        <ele>98</ele>
        <time>2011-04-15T07:53:00Z</time>
      </trkpt>
      <trkpt lat="48.59987" lon="2.10635">
        <ele>98</ele>
        <time>2011-04-15T07:53:01Z</time>
      </trkpt>
      <trkpt lat="48.59985" lon="2.10634">
        <ele>98</ele>
        <time>2011-04-15T07:53:02Z</time>
      </trkpt>
      <trkpt lat="48.59984" lon="2.10633">
        <ele>98</ele>
        <time>2011-04-15T07:53:03Z</time>
      </trkpt>
      <trkpt lat="48.59983" lon="2.10632">
        <ele>98</ele>
        <time>2011-04-15T07:53:04Z</time>
      </trkpt>
      <trkpt lat="48.59982" lon="2.10632">
        <ele>98</ele>
        <time>2011-04-15T07:53:05Z</time>
      </trkpt>
      <trkpt lat="48.5998" lon="2.10632">
        <ele>98</ele>
        <time>2011-04-15T07:53:06Z</time>
      </trkpt>
      <trkpt lat="48.59979" lon="2.10631">
        <ele>98</ele>
        <time>2011-04-15T07:53:07Z</time>
      </trkpt>
      <trkpt lat="48.59977" lon="2.1063">
        <ele>98</ele>
        <time>2011-04-15T07:53:08Z</time>
      </trkpt>
      <trkpt lat="48.59976" lon="2.10629">
        <ele>98</ele>
        <time>2011-04-15T07:53:09Z</time>
      </trkpt>
      <trkpt lat="48.59975" lon="2.10628">
        <ele>98</ele>
        <time>2011-04-15T07:53:10Z</time>
      </trkpt>
      <trkpt lat="48.59973" lon="2.10627">
        <ele>98</ele>
        <time>2011-04-15T07:53:11Z</time>
      </trkpt>
      <trkpt lat="48.59972" lon="2.10627">
        <ele>98</ele>
        <time>2011-04-15T07:53:12Z</time>
      </trkpt>
      <trkpt lat="48.5997" lon="2.10627">
        <ele>98</ele>
        <time>2011-04-15T07:53:13Z</time>
      </trkpt>
      <trkpt lat="48.59969" lon="2.10627">
        <ele>98</ele>
        <time>2011-04-15T07:53:14Z</time>
      </trkpt>
      <trkpt lat="48.59967" lon="2.10627">
        <ele>98</ele>
        <time>2011-04-15T07:53:15Z</time>
      </trkpt>
      <trkpt lat="48.59966" lon="2.10626">
        <ele>97</ele>
        <time>2011-04-15T07:53:16Z</time>
      </trkpt>
      <trkpt lat="48.59964" lon="2.10626">
        <ele>97</ele>
        <time>2011-04-15T07:53:17Z</time>
      </trkpt>
      <trkpt lat="48.59963" lon="2.10625">
        <ele>97</ele>
        <time>2011-04-15T07:53:18Z</time>
      </trkpt>
      <trkpt lat="48.59961" lon="2.10624">
        <ele>96</ele>
        <time>2011-04-15T07:53:19Z</time>
      </trkpt>
      <trkpt lat="48.5996" lon="2.10624">
        <ele>96</ele>
        <time>2011-04-15T07:53:20Z</time>
      </trkpt>
      <trkpt lat="48.59958" lon="2.10623">
        <ele>96</ele>
        <time>2011-04-15T07:53:21Z</time>
      </trkpt>
      <trkpt lat="48.59957" lon="2.10622">
        <ele>96</ele>
        <time>2011-04-15T07:53:22Z</time>
      </trkpt>
      <trkpt lat="48.59955" lon="2.10621">
        <ele>96</ele>
        <time>2011-04-15T07:53:23Z</time>
      </trkpt>
      <trkpt lat="48.59954" lon="2.10621">
        <ele>96</ele>
        <time>2011-04-15T07:53:24Z</time>
      </trkpt>
      <trkpt lat="48.59953" lon="2.10621">
        <ele>96</ele>
        <time>2011-04-15T07:53:25Z</time>
      </trkpt>
      <trkpt lat="48.59951" lon="2.10621">
        <ele>96</ele>
        <time>2011-04-15T07:53:26Z</time>
      </trkpt>
      <trkpt lat="48.5995" lon="2.1062">
        <ele>96</ele>
        <time>2011-04-15T07:53:27Z</time>
      </trkpt>
      <trkpt lat="48.59948" lon="2.1062">
        <ele>96</ele>
        <time>2011-04-15T07:53:28Z</time>
      </trkpt>
      <trkpt lat="48.59947" lon="2.10619">
        <ele>96</ele>
        <time>2011-04-15T07:53:29Z</time>
      </trkpt>
      <trkpt lat="48.59945" lon="2.10619">
        <ele>96</ele>
        <time>2011-04-15T07:53:30Z</time>
      </trkpt>
      <trkpt lat="48.59944" lon="2.10618">
        <ele>96</ele>
        <time>2011-04-15T07:53:31Z</time>
      </trkpt>
      <trkpt lat="48.59941" lon="2.10618">
        <ele>96</ele>
        <time>2011-04-15T07:53:32Z</time>
      </trkpt>
      <trkpt lat="48.5994" lon="2.10617">
        <ele>96</ele>
        <time>2011-04-15T07:53:33Z</time>
      </trkpt>
      <trkpt lat="48.59938" lon="2.10616">
        <ele>96</ele>
        <time>2011-04-15T07:53:34Z</time>
      </trkpt>
      <trkpt lat="48.59936" lon="2.10615">
        <ele>96</ele>
        <time>2011-04-15T07:53:35Z</time>
      </trkpt>
      <trkpt lat="48.59935" lon="2.10615">
        <ele>96</ele>
        <time>2011-04-15T07:53:36Z</time>
      </trkpt>
      <trkpt lat="48.59933" lon="2.10615">
        <ele>96</ele>
        <time>2011-04-15T07:53:37Z</time>
      </trkpt>
      <trkpt lat="48.59931" lon="2.10614">
        <ele>96</ele>
        <time>2011-04-15T07:53:38Z</time>
      </trkpt>
      <trkpt lat="48.5993" lon="2.10614">
        <ele>97</ele>
        <time>2011-04-15T07:53:39Z</time>
      </trkpt>
      <trkpt lat="48.59928" lon="2.10613">
        <ele>97</ele>
        <time>2011-04-15T07:53:40Z</time>
      </trkpt>
      <trkpt lat="48.59927" lon="2.10612">
        <ele>97</ele>
        <time>2011-04-15T07:53:41Z</time>
      </trkpt>
      <trkpt lat="48.59925" lon="2.10611">
        <ele>97</ele>
        <time>2011-04-15T07:53:42Z</time>
      </trkpt>
      <trkpt lat="48.59924" lon="2.10611">
        <ele>97</ele>
        <time>2011-04-15T07:53:43Z</time>
      </trkpt>
      <trkpt lat="48.59922" lon="2.1061">
        <ele>97</ele>
        <time>2011-04-15T07:53:44Z</time>
      </trkpt>
      <trkpt lat="48.59921" lon="2.1061">
        <ele>97</ele>
        <time>2011-04-15T07:53:45Z</time>
      </trkpt>
      <trkpt lat="48.59919" lon="2.10609">
        <ele>97</ele>
        <time>2011-04-15T07:53:46Z</time>
      </trkpt>
      <trkpt lat="48.59917" lon="2.10609">
        <ele>97</ele>
        <time>2011-04-15T07:53:47Z</time>
      </trkpt>
      <trkpt lat="48.59915" lon="2.10608">
        <ele>97</ele>
        <time>2011-04-15T07:53:48Z</time>
      </trkpt>
      <trkpt lat="48.59913" lon="2.10608">
        <ele>97</ele>
        <time>2011-04-15T07:53:49Z</time>
      </trkpt>
      <trkpt lat="48.59911" lon="2.10608">
        <ele>97</ele>
        <time>2011-04-15T07:53:50Z</time>
      </trkpt>
      <trkpt lat="48.5991" lon="2.10609">
        <ele>97</ele>
        <time>2011-04-15T07:53:51Z</time>
      </trkpt>
      <trkpt lat="48.59908" lon="2.10609">
        <ele>97</ele>
        <time>2011-04-15T07:53:52Z</time>
      </trkpt>
      <trkpt lat="48.59906" lon="2.10609">
        <ele>97</ele>
        <time>2011-04-15T07:53:53Z</time>
      </trkpt>
      <trkpt lat="48.59905" lon="2.10609">
        <ele>97</ele>
        <time>2011-04-15T07:53:54Z</time>
      </trkpt>
      <trkpt lat="48.59903" lon="2.10609">
        <ele>97</ele>
        <time>2011-04-15T07:53:55Z</time>
      </trkpt>
      <trkpt lat="48.59901" lon="2.10609">
        <ele>97</ele>
        <time>2011-04-15T07:53:56Z</time>
      </trkpt>
      <trkpt lat="48.599" lon="2.10609">
        <ele>97</ele>
        <time>2011-04-15T07:53:57Z</time>
      </trkpt>
      <trkpt lat="48.59898" lon="2.10609">
        <ele>97</ele>
        <time>2011-04-15T07:53:58Z</time>
      </trkpt>
      <trkpt lat="48.59896" lon="2.1061">
        <ele>97</ele>
        <time>2011-04-15T07:53:59Z</time>
      </trkpt>
      <trkpt lat="48.59894" lon="2.1061">
        <ele>97</ele>
        <time>2011-04-15T07:54:00Z</time>
      </trkpt>
      <trkpt lat="48.59892" lon="2.10611">
        <ele>97</ele>
        <time>2011-04-15T07:54:01Z</time>
      </trkpt>
      <trkpt lat="48.59891" lon="2.10611">
        <ele>97</ele>
        <time>2011-04-15T07:54:02Z</time>
      </trkpt>
      <trkpt lat="48.59889" lon="2.10611">
        <ele>97</ele>
        <time>2011-04-15T07:54:03Z</time>
      </trkpt>
      <trkpt lat="48.59887" lon="2.10612">
        <ele>97</ele>
        <time>2011-04-15T07:54:04Z</time>
      </trkpt>
      <trkpt lat="48.59886" lon="2.10612">
        <ele>97</ele>
        <time>2011-04-15T07:54:05Z</time>
      </trkpt>
      <trkpt lat="48.59884" lon="2.10612">
        <ele>97</ele>
        <time>2011-04-15T07:54:06Z</time>
      </trkpt>
      <trkpt lat="48.59883" lon="2.10612">
        <ele>98</ele>
        <time>2011-04-15T07:54:07Z</time>
      </trkpt>
      <trkpt lat="48.59881" lon="2.10612">
        <ele>98</ele>
        <time>2011-04-15T07:54:08Z</time>
      </trkpt>
      <trkpt lat="48.5988" lon="2.10613">
        <ele>98</ele>
        <time>2011-04-15T07:54:09Z</time>
      </trkpt>
      <trkpt lat="48.59878" lon="2.10613">
        <ele>98</ele>
        <time>2011-04-15T07:54:10Z</time>
      </trkpt>
      <trkpt lat="48.59877" lon="2.10613">
        <ele>98</ele>
        <time>2011-04-15T07:54:11Z</time>
      </trkpt>
      <trkpt lat="48.59875" lon="2.10612">
        <ele>98</ele>
        <time>2011-04-15T07:54:12Z</time>
      </trkpt>
      <trkpt lat="48.59873" lon="2.10613">
        <ele>98</ele>
        <time>2011-04-15T07:54:13Z</time>
      </trkpt>
      <trkpt lat="48.59872" lon="2.10613">
        <ele>98</ele>
        <time>2011-04-15T07:54:14Z</time>
      </trkpt>
      <trkpt lat="48.5987" lon="2.10613">
        <ele>98</ele>
        <time>2011-04-15T07:54:15Z</time>
      </trkpt>
      <trkpt lat="48.59869" lon="2.10613">
        <ele>98</ele>
        <time>2011-04-15T07:54:16Z</time>
      </trkpt>
      <trkpt lat="48.59867" lon="2.10613">
        <ele>98</ele>
        <time>2011-04-15T07:54:17Z</time>
      </trkpt>
      <trkpt lat="48.59866" lon="2.10614">
        <ele>98</ele>
        <time>2011-04-15T07:54:18Z</time>
      </trkpt>
      <trkpt lat="48.59864" lon="2.10614">
        <ele>98</ele>
        <time>2011-04-15T07:54:19Z</time>
      </trkpt>
      <trkpt lat="48.59863" lon="2.10614">
        <ele>98</ele>
        <time>2011-04-15T07:54:20Z</time>
      </trkpt>
      <trkpt lat="48.59861" lon="2.10614">
        <ele>98</ele>
        <time>2011-04-15T07:54:21Z</time>
      </trkpt>
      <trkpt lat="48.59859" lon="2.10615">
        <ele>98</ele>
        <time>2011-04-15T07:54:22Z</time>
      </trkpt>
      <trkpt lat="48.59857" lon="2.10615">
        <ele>98</ele>
        <time>2011-04-15T07:54:23Z</time>
      </trkpt>
      <trkpt lat="48.59855" lon="2.10615">
        <ele>98</ele>
        <time>2011-04-15T07:54:24Z</time>
      </trkpt>
      <trkpt lat="48.59853" lon="2.10615">
        <ele>98</ele>
        <time>2011-04-15T07:54:25Z</time>
      </trkpt>
      <trkpt lat="48.59851" lon="2.10615">
        <ele>98</ele>
        <time>2011-04-15T07:54:26Z</time>
      </trkpt>
      <trkpt lat="48.5985" lon="2.10615">
        <ele>98</ele>
        <time>2011-04-15T07:54:27Z</time>
      </trkpt>
      <trkpt lat="48.59848" lon="2.10614">
        <ele>98</ele>
        <time>2011-04-15T07:54:28Z</time>
      </trkpt>
      <trkpt lat="48.59847" lon="2.10614">
        <ele>98</ele>
        <time>2011-04-15T07:54:29Z</time>
      </trkpt>
      <trkpt lat="48.59845" lon="2.10614">
        <ele>98</ele>
        <time>2011-04-15T07:54:30Z</time>
      </trkpt>
      <trkpt lat="48.59844" lon="2.10614">
        <ele>98</ele>
        <time>2011-04-15T07:54:31Z</time>
      </trkpt>
      <trkpt lat="48.59842" lon="2.10613">
        <ele>98</ele>
        <time>2011-04-15T07:54:32Z</time>
      </trkpt>
      <trkpt lat="48.5984" lon="2.10613">
        <ele>98</ele>
        <time>2011-04-15T07:54:33Z</time>
      </trkpt>
      <trkpt lat="48.59839" lon="2.10613">
        <ele>98</ele>
        <time>2011-04-15T07:54:34Z</time>
      </trkpt>
      <trkpt lat="48.59838" lon="2.10613">
        <ele>98</ele>
        <time>2011-04-15T07:54:35Z</time>
      </trkpt>
      <trkpt lat="48.59836" lon="2.10613">
        <ele>98</ele>
        <time>2011-04-15T07:54:36Z</time>
      </trkpt>
      <trkpt lat="48.59835" lon="2.10613">
        <ele>98</ele>
        <time>2011-04-15T07:54:37Z</time>
      </trkpt>
      <trkpt lat="48.59833" lon="2.10613">
        <ele>98</ele>
        <time>2011-04-15T07:54:38Z</time>
      </trkpt>
      <trkpt lat="48.59831" lon="2.10614">
        <ele>98</ele>
        <time>2011-04-15T07:54:39Z</time>
      </trkpt>
      <trkpt lat="48.59829" lon="2.10615">
        <ele>98</ele>
        <time>2011-04-15T07:54:40Z</time>
      </trkpt>
      <trkpt lat="48.59828" lon="2.10615">
        <ele>98</ele>
        <time>2011-04-15T07:54:41Z</time>
      </trkpt>
      <trkpt lat="48.59826" lon="2.10616">
        <ele>98</ele>
        <time>2011-04-15T07:54:42Z</time>
      </trkpt>
      <trkpt lat="48.59824" lon="2.10617">
        <ele>98</ele>
        <time>2011-04-15T07:54:43Z</time>
      </trkpt>
      <trkpt lat="48.59822" lon="2.10618">
        <ele>98</ele>
        <time>2011-04-15T07:54:44Z</time>
      </trkpt>
      <trkpt lat="48.59821" lon="2.10618">
        <ele>98</ele>
        <time>2011-04-15T07:54:45Z</time>
      </trkpt>
      <trkpt lat="48.5982" lon="2.10619">
        <ele>98</ele>
        <time>2011-04-15T07:54:46Z</time>
      </trkpt>
      <trkpt lat="48.59819" lon="2.10619">
        <ele>98</ele>
        <time>2011-04-15T07:54:47Z</time>
      </trkpt>
      <trkpt lat="48.59817" lon="2.1062">
        <ele>98</ele>
        <time>2011-04-15T07:54:48Z</time>
      </trkpt>
      <trkpt lat="48.59816" lon="2.1062">
        <ele>98</ele>
        <time>2011-04-15T07:54:49Z</time>
      </trkpt>
      <trkpt lat="48.59815" lon="2.10621">
        <ele>98</ele>
        <time>2011-04-15T07:54:50Z</time>
      </trkpt>
      <trkpt lat="48.59813" lon="2.10622">
        <ele>98</ele>
        <time>2011-04-15T07:54:51Z</time>
      </trkpt>
      <trkpt lat="48.59811" lon="2.10622">
        <ele>98</ele>
        <time>2011-04-15T07:54:52Z</time>
      </trkpt>
      <trkpt lat="48.5981" lon="2.10623">
        <ele>98</ele>
        <time>2011-04-15T07:54:53Z</time>
      </trkpt>
      <trkpt lat="48.59808" lon="2.10624">
        <ele>98</ele>
        <time>2011-04-15T07:54:54Z</time>
      </trkpt>
      <trkpt lat="48.59807" lon="2.10625">
        <ele>98</ele>
        <time>2011-04-15T07:54:55Z</time>
      </trkpt>
      <trkpt lat="48.59805" lon="2.10626">
        <ele>98</ele>
        <time>2011-04-15T07:54:56Z</time>
      </trkpt>
      <trkpt lat="48.59803" lon="2.10627">
        <ele>98</ele>
        <time>2011-04-15T07:54:57Z</time>
      </trkpt>
      <trkpt lat="48.59802" lon="2.10627">
        <ele>98</ele>
        <time>2011-04-15T07:54:58Z</time>
      </trkpt>
      <trkpt lat="48.598" lon="2.10628">
        <ele>98</ele>
        <time>2011-04-15T07:54:59Z</time>
      </trkpt>
      <trkpt lat="48.59799" lon="2.10629">
        <ele>98</ele>
        <time>2011-04-15T07:55:00Z</time>
      </trkpt>
      <trkpt lat="48.59797" lon="2.1063">
        <ele>98</ele>
        <time>2011-04-15T07:55:01Z</time>
      </trkpt>
      <trkpt lat="48.59795" lon="2.10631">
        <ele>98</ele>
        <time>2011-04-15T07:55:02Z</time>
      </trkpt>
      <trkpt lat="48.59793" lon="2.10631">
        <ele>98</ele>
        <time>2011-04-15T07:55:03Z</time>
      </trkpt>
      <trkpt lat="48.59792" lon="2.10632">
        <ele>98</ele>
        <time>2011-04-15T07:55:04Z</time>
      </trkpt>
      <trkpt lat="48.59791" lon="2.10633">
        <ele>98</ele>
        <time>2011-04-15T07:55:05Z</time>
      </trkpt>
      <trkpt lat="48.59789" lon="2.10633">
        <ele>98</ele>
        <time>2011-04-15T07:55:06Z</time>
      </trkpt>
      <trkpt lat="48.59788" lon="2.10634">
        <ele>98</ele>
        <time>2011-04-15T07:55:07Z</time>
      </trkpt>
      <trkpt lat="48.59786" lon="2.10635">
        <ele>98</ele>
        <time>2011-04-15T07:55:08Z</time>
      </trkpt>
      <trkpt lat="48.59785" lon="2.10636">
        <ele>98</ele>
        <time>2011-04-15T07:55:09Z</time>
      </trkpt>
      <trkpt lat="48.59784" lon="2.10636">
        <ele>98</ele>
        <time>2011-04-15T07:55:10Z</time>
      </trkpt>
      <trkpt lat="48.59783" lon="2.10637">
        <ele>98</ele>
        <time>2011-04-15T07:55:11Z</time>
      </trkpt>
      <trkpt lat="48.59781" lon="2.10638">
        <ele>98</ele>
        <time>2011-04-15T07:55:12Z</time>
      </trkpt>
      <trkpt lat="48.5978" lon="2.10639">
        <ele>98</ele>
        <time>2011-04-15T07:55:13Z</time>
      </trkpt>
      <trkpt lat="48.59778" lon="2.10639">
        <ele>98</ele>
        <time>2011-04-15T07:55:14Z</time>
      </trkpt>
      <trkpt lat="48.59777" lon="2.1064">
        <ele>98</ele>
        <time>2011-04-15T07:55:15Z</time>
      </trkpt>
      <trkpt lat="48.59775" lon="2.10641">
        <ele>98</ele>
        <time>2011-04-15T07:55:17Z</time>
      </trkpt>
      <trkpt lat="48.59774" lon="2.10642">
        <ele>98</ele>
        <time>2011-04-15T07:55:18Z</time>
      </trkpt>
      <trkpt lat="48.59773" lon="2.10642">
        <ele>98</ele>
        <time>2011-04-15T07:55:19Z</time>
      </trkpt>
      <trkpt lat="48.59771" lon="2.10643">
        <ele>98</ele>
        <time>2011-04-15T07:55:20Z</time>
      </trkpt>
      <trkpt lat="48.59769" lon="2.10644">
        <ele>98</ele>
        <time>2011-04-15T07:55:21Z</time>
      </trkpt>
      <trkpt lat="48.59768" lon="2.10645">
        <ele>98</ele>
        <time>2011-04-15T07:55:22Z</time>
      </trkpt>
      <trkpt lat="48.59767" lon="2.10645">
        <ele>98</ele>
        <time>2011-04-15T07:55:23Z</time>
      </trkpt>
      <trkpt lat="48.59765" lon="2.10646">
        <ele>98</ele>
        <time>2011-04-15T07:55:24Z</time>
      </trkpt>
      <trkpt lat="48.59764" lon="2.10646">
        <ele>98</ele>
        <time>2011-04-15T07:55:25Z</time>
      </trkpt>
      <trkpt lat="48.59762" lon="2.10647">
        <ele>98</ele>
        <time>2011-04-15T07:55:26Z</time>
      </trkpt>
      <trkpt lat="48.59761" lon="2.10648">
        <ele>98</ele>
        <time>2011-04-15T07:55:27Z</time>
      </trkpt>
      <trkpt lat="48.59759" lon="2.10649">
        <ele>98</ele>
        <time>2011-04-15T07:55:28Z</time>
      </trkpt>
      <trkpt lat="48.59757" lon="2.10649">
        <ele>98</ele>
        <time>2011-04-15T07:55:29Z</time>
      </trkpt>
      <trkpt lat="48.59756" lon="2.1065">
        <ele>98</ele>
        <time>2011-04-15T07:55:30Z</time>
      </trkpt>
      <trkpt lat="48.59754" lon="2.10651">
        <ele>98</ele>
        <time>2011-04-15T07:55:31Z</time>
      </trkpt>
      <trkpt lat="48.59753" lon="2.10652">
        <ele>98</ele>
        <time>2011-04-15T07:55:32Z</time>
      </trkpt>
      <trkpt lat="48.59752" lon="2.10652">
        <ele>98</ele>
        <time>2011-04-15T07:55:33Z</time>
      </trkpt>
      <trkpt lat="48.59749" lon="2.10653">
        <ele>98</ele>
        <time>2011-04-15T07:55:35Z</time>
      </trkpt>
      <trkpt lat="48.59748" lon="2.10654">
        <ele>98</ele>
        <time>2011-04-15T07:55:36Z</time>
      </trkpt>
      <trkpt lat="48.59747" lon="2.10655">
        <ele>98</ele>
        <time>2011-04-15T07:55:37Z</time>
      </trkpt>
      <trkpt lat="48.59745" lon="2.10656">
        <ele>98</ele>
        <time>2011-04-15T07:55:38Z</time>
      </trkpt>
      <trkpt lat="48.59743" lon="2.10657">
        <ele>98</ele>
        <time>2011-04-15T07:55:39Z</time>
      </trkpt>
      <trkpt lat="48.59741" lon="2.10658">
        <ele>98</ele>
        <time>2011-04-15T07:55:40Z</time>
      </trkpt>
      <trkpt lat="48.5974" lon="2.10659">
        <ele>98</ele>
        <time>2011-04-15T07:55:41Z</time>
      </trkpt>
      <trkpt lat="48.59739" lon="2.1066">
        <ele>98</ele>
        <time>2011-04-15T07:55:42Z</time>
      </trkpt>
      <trkpt lat="48.59737" lon="2.10661">
        <ele>98</ele>
        <time>2011-04-15T07:55:43Z</time>
      </trkpt>
      <trkpt lat="48.59736" lon="2.10662">
        <ele>98</ele>
        <time>2011-04-15T07:55:44Z</time>
      </trkpt>
      <trkpt lat="48.59734" lon="2.10663">
        <ele>98</ele>
        <time>2011-04-15T07:55:45Z</time>
      </trkpt>
      <trkpt lat="48.59733" lon="2.10664">
        <ele>98</ele>
        <time>2011-04-15T07:55:46Z</time>
      </trkpt>
      <trkpt lat="48.59731" lon="2.10665">
        <ele>98</ele>
        <time>2011-04-15T07:55:47Z</time>
      </trkpt>
      <trkpt lat="48.59729" lon="2.10666">
        <ele>98</ele>
        <time>2011-04-15T07:55:48Z</time>
      </trkpt>
      <trkpt lat="48.59728" lon="2.10666">
        <ele>98</ele>
        <time>2011-04-15T07:55:49Z</time>
      </trkpt>
      <trkpt lat="48.59726" lon="2.10667">
        <ele>98</ele>
        <time>2011-04-15T07:55:50Z</time>
      </trkpt>
      <trkpt lat="48.59724" lon="2.10668">
        <ele>98</ele>
        <time>2011-04-15T07:55:51Z</time>
      </trkpt>
      <trkpt lat="48.59723" lon="2.10669">
        <ele>98</ele>
        <time>2011-04-15T07:55:52Z</time>
      </trkpt>
      <trkpt lat="48.59721" lon="2.1067">
        <ele>98</ele>
        <time>2011-04-15T07:55:53Z</time>
      </trkpt>
      <trkpt lat="48.59719" lon="2.1067">
        <ele>98</ele>
        <time>2011-04-15T07:55:54Z</time>
      </trkpt>
      <trkpt lat="48.59718" lon="2.10671">
        <ele>98</ele>
        <time>2011-04-15T07:55:55Z</time>
      </trkpt>
      <trkpt lat="48.59716" lon="2.10672">
        <ele>98</ele>
        <time>2011-04-15T07:55:56Z</time>
      </trkpt>
      <trkpt lat="48.59715" lon="2.10673">
        <ele>98</ele>
        <time>2011-04-15T07:55:57Z</time>
      </trkpt>
      <trkpt lat="48.59713" lon="2.10673">
        <ele>98</ele>
        <time>2011-04-15T07:55:58Z</time>
      </trkpt>
      <trkpt lat="48.59712" lon="2.10674">
        <ele>98</ele>
        <time>2011-04-15T07:55:59Z</time>
      </trkpt>
      <trkpt lat="48.5971" lon="2.10675">
        <ele>98</ele>
        <time>2011-04-15T07:56:00Z</time>
      </trkpt>
      <trkpt lat="48.59709" lon="2.10676">
        <ele>98</ele>
        <time>2011-04-15T07:56:01Z</time>
      </trkpt>
      <trkpt lat="48.59707" lon="2.10677">
        <ele>98</ele>
        <time>2011-04-15T07:56:02Z</time>
      </trkpt>
      <trkpt lat="48.59705" lon="2.10677">
        <ele>98</ele>
        <time>2011-04-15T07:56:03Z</time>
      </trkpt>
      <trkpt lat="48.59703" lon="2.10678">
        <ele>98</ele>
        <time>2011-04-15T07:56:04Z</time>
      </trkpt>
      <trkpt lat="48.59702" lon="2.10679">
        <ele>98</ele>
        <time>2011-04-15T07:56:05Z</time>
      </trkpt>
      <trkpt lat="48.597" lon="2.1068">
        <ele>98</ele>
        <time>2011-04-15T07:56:06Z</time>
      </trkpt>
      <trkpt lat="48.59698" lon="2.10681">
        <ele>98</ele>
        <time>2011-04-15T07:56:07Z</time>
      </trkpt>
      <trkpt lat="48.59697" lon="2.10681">
        <ele>98</ele>
        <time>2011-04-15T07:56:08Z</time>
      </trkpt>
      <trkpt lat="48.59695" lon="2.10682">
        <ele>98</ele>
        <time>2011-04-15T07:56:09Z</time>
      </trkpt>
      <trkpt lat="48.59693" lon="2.10682">
        <ele>98</ele>
        <time>2011-04-15T07:56:10Z</time>
      </trkpt>
      <trkpt lat="48.59692" lon="2.10683">
        <ele>98</ele>
        <time>2011-04-15T07:56:11Z</time>
      </trkpt>
      <trkpt lat="48.5969" lon="2.10683">
        <ele>98</ele>
        <time>2011-04-15T07:56:12Z</time>
      </trkpt>
      <trkpt lat="48.59688" lon="2.10685">
        <ele>98</ele>
        <time>2011-04-15T07:56:13Z</time>
      </trkpt>
      <trkpt lat="48.59687" lon="2.10686">
        <ele>98</ele>
        <time>2011-04-15T07:56:14Z</time>
      </trkpt>
      <trkpt lat="48.59685" lon="2.10686">
        <ele>98</ele>
        <time>2011-04-15T07:56:15Z</time>
      </trkpt>
      <trkpt lat="48.59684" lon="2.10687">
        <ele>98</ele>
        <time>2011-04-15T07:56:16Z</time>
      </trkpt>
      <trkpt lat="48.59682" lon="2.10688">
        <ele>98</ele>
        <time>2011-04-15T07:56:17Z</time>
      </trkpt>
      <trkpt lat="48.59681" lon="2.1069">
        <ele>98</ele>
        <time>2011-04-15T07:56:18Z</time>
      </trkpt>
      <trkpt lat="48.59679" lon="2.10691">
        <ele>98</ele>
        <time>2011-04-15T07:56:19Z</time>
      </trkpt>
      <trkpt lat="48.59678" lon="2.10693">
        <ele>98</ele>
        <time>2011-04-15T07:56:20Z</time>
      </trkpt>
      <trkpt lat="48.59676" lon="2.10694">
        <ele>98</ele>
        <time>2011-04-15T07:56:21Z</time>
      </trkpt>
      <trkpt lat="48.59675" lon="2.10695">
        <ele>98</ele>
        <time>2011-04-15T07:56:22Z</time>
      </trkpt>
      <trkpt lat="48.59673" lon="2.10696">
        <ele>98</ele>
        <time>2011-04-15T07:56:23Z</time>
      </trkpt>
      <trkpt lat="48.59672" lon="2.10697">
        <ele>98</ele>
        <time>2011-04-15T07:56:24Z</time>
      </trkpt>
      <trkpt lat="48.5967" lon="2.10697">
        <ele>98</ele>
        <time>2011-04-15T07:56:25Z</time>
      </trkpt>
      <trkpt lat="48.59669" lon="2.10698">
        <ele>98</ele>
        <time>2011-04-15T07:56:26Z</time>
      </trkpt>
      <trkpt lat="48.59667" lon="2.10699">
        <ele>98</ele>
        <time>2011-04-15T07:56:27Z</time>
      </trkpt>
      <trkpt lat="48.59666" lon="2.107">
        <ele>98</ele>
        <time>2011-04-15T07:56:28Z</time>
      </trkpt>
      <trkpt lat="48.59664" lon="2.10701">
        <ele>98</ele>
        <time>2011-04-15T07:56:29Z</time>
      </trkpt>
      <trkpt lat="48.59662" lon="2.10702">
        <ele>98</ele>
        <time>2011-04-15T07:56:30Z</time>
      </trkpt>
      <trkpt lat="48.59661" lon="2.10703">
        <ele>98</ele>
        <time>2011-04-15T07:56:31Z</time>
      </trkpt>
      <trkpt lat="48.5966" lon="2.10704">
        <ele>98</ele>
        <time>2011-04-15T07:56:32Z</time>
      </trkpt>
      <trkpt lat="48.59658" lon="2.10705">
        <ele>98</ele>
        <time>2011-04-15T07:56:33Z</time>
      </trkpt>
      <trkpt lat="48.59657" lon="2.10706">
        <ele>98</ele>
        <time>2011-04-15T07:56:34Z</time>
      </trkpt>
      <trkpt lat="48.59655" lon="2.10707">
        <ele>98</ele>
        <time>2011-04-15T07:56:35Z</time>
      </trkpt>
      <trkpt lat="48.59653" lon="2.10708">
        <ele>98</ele>
        <time>2011-04-15T07:56:36Z</time>
      </trkpt>
      <trkpt lat="48.59652" lon="2.10709">
        <ele>98</ele>
        <time>2011-04-15T07:56:37Z</time>
      </trkpt>
      <trkpt lat="48.5965" lon="2.1071">
        <ele>98</ele>
        <time>2011-04-15T07:56:38Z</time>
      </trkpt>
      <trkpt lat="48.59649" lon="2.10711">
        <ele>98</ele>
        <time>2011-04-15T07:56:39Z</time>
      </trkpt>
      <trkpt lat="48.59647" lon="2.10712">
        <ele>98</ele>
        <time>2011-04-15T07:56:40Z</time>
      </trkpt>
      <trkpt lat="48.59646" lon="2.10714">
        <ele>98</ele>
        <time>2011-04-15T07:56:41Z</time>
      </trkpt>
      <trkpt lat="48.59644" lon="2.10715">
        <ele>98</ele>
        <time>2011-04-15T07:56:42Z</time>
      </trkpt>
      <trkpt lat="48.59643" lon="2.10716">
        <ele>98</ele>
        <time>2011-04-15T07:56:43Z</time>
      </trkpt>
      <trkpt lat="48.59641" lon="2.10717">
        <ele>98</ele>
        <time>2011-04-15T07:56:44Z</time>
      </trkpt>
      <trkpt lat="48.5964" lon="2.10718">
        <ele>98</ele>
        <time>2011-04-15T07:56:45Z</time>
      </trkpt>
      <trkpt lat="48.59638" lon="2.10719">
        <ele>98</ele>
        <time>2011-04-15T07:56:46Z</time>
      </trkpt>
      <trkpt lat="48.59637" lon="2.1072">
        <ele>98</ele>
        <time>2011-04-15T07:56:47Z</time>
      </trkpt>
      <trkpt lat="48.59636" lon="2.10721">
        <ele>98</ele>
        <time>2011-04-15T07:56:48Z</time>
      </trkpt>
      <trkpt lat="48.59634" lon="2.10722">
        <ele>98</ele>
        <time>2011-04-15T07:56:49Z</time>
      </trkpt>
      <trkpt lat="48.59633" lon="2.10723">
        <ele>98</ele>
        <time>2011-04-15T07:56:50Z</time>
      </trkpt>
      <trkpt lat="48.59631" lon="2.10725">
        <ele>98</ele>
        <time>2011-04-15T07:56:51Z</time>
      </trkpt>
      <trkpt lat="48.59629" lon="2.10725">
        <ele>98</ele>
        <time>2011-04-15T07:56:52Z</time>
      </trkpt>
      <trkpt lat="48.59628" lon="2.10726">
        <ele>98</ele>
        <time>2011-04-15T07:56:53Z</time>
      </trkpt>
      <trkpt lat="48.59626" lon="2.10727">
        <ele>98</ele>
        <time>2011-04-15T07:56:54Z</time>
      </trkpt>
      <trkpt lat="48.59625" lon="2.10729">
        <ele>98</ele>
        <time>2011-04-15T07:56:55Z</time>
      </trkpt>
      <trkpt lat="48.59623" lon="2.1073">
        <ele>98</ele>
        <time>2011-04-15T07:56:56Z</time>
      </trkpt>
      <trkpt lat="48.59622" lon="2.10731">
        <ele>98</ele>
        <time>2011-04-15T07:56:57Z</time>
      </trkpt>
      <trkpt lat="48.5962" lon="2.10732">
        <ele>98</ele>
        <time>2011-04-15T07:56:58Z</time>
      </trkpt>
      <trkpt lat="48.59618" lon="2.10733">
        <ele>98</ele>
        <time>2011-04-15T07:56:59Z</time>
      </trkpt>
      <trkpt lat="48.59617" lon="2.10734">
        <ele>98</ele>
        <time>2011-04-15T07:57:00Z</time>
      </trkpt>
      <trkpt lat="48.59615" lon="2.10735">
        <ele>98</ele>
        <time>2011-04-15T07:57:01Z</time>
      </trkpt>
      <trkpt lat="48.59613" lon="2.10736">
        <ele>98</ele>
        <time>2011-04-15T07:57:02Z</time>
      </trkpt>
      <trkpt lat="48.59612" lon="2.10737">
        <ele>98</ele>
        <time>2011-04-15T07:57:03Z</time>
      </trkpt>
      <trkpt lat="48.5961" lon="2.10738">
        <ele>98</ele>
        <time>2011-04-15T07:57:04Z</time>
      </trkpt>
      <trkpt lat="48.59609" lon="2.10739">
        <ele>98</ele>
        <time>2011-04-15T07:57:05Z</time>
      </trkpt>
      <trkpt lat="48.59607" lon="2.1074">
        <ele>98</ele>
        <time>2011-04-15T07:57:06Z</time>
      </trkpt>
      <trkpt lat="48.59606" lon="2.10741">
        <ele>98</ele>
        <time>2011-04-15T07:57:07Z</time>
      </trkpt>
      <trkpt lat="48.59604" lon="2.10742">
        <ele>98</ele>
        <time>2011-04-15T07:57:08Z</time>
      </trkpt>
      <trkpt lat="48.59603" lon="2.10742">
        <ele>98</ele>
        <time>2011-04-15T07:57:09Z</time>
      </trkpt>
      <trkpt lat="48.59601" lon="2.10743">
        <ele>98</ele>
        <time>2011-04-15T07:57:10Z</time>
      </trkpt>
      <trkpt lat="48.596" lon="2.10743">
        <ele>98</ele>
        <time>2011-04-15T07:57:11Z</time>
      </trkpt>
      <trkpt lat="48.59598" lon="2.10744">
        <ele>98</ele>
        <time>2011-04-15T07:57:12Z</time>
      </trkpt>
      <trkpt lat="48.59596" lon="2.10745">
        <ele>98</ele>
        <time>2011-04-15T07:57:13Z</time>
      </trkpt>
      <trkpt lat="48.59595" lon="2.10745">
        <ele>98</ele>
        <time>2011-04-15T07:57:14Z</time>
      </trkpt>
      <trkpt lat="48.59593" lon="2.10746">
        <ele>98</ele>
        <time>2011-04-15T07:57:15Z</time>
      </trkpt>
      <trkpt lat="48.59591" lon="2.10747">
        <ele>98</ele>
        <time>2011-04-15T07:57:16Z</time>
      </trkpt>
      <trkpt lat="48.5959" lon="2.10748">
        <ele>98</ele>
        <time>2011-04-15T07:57:17Z</time>
      </trkpt>
      <trkpt lat="48.59588" lon="2.10748">
        <ele>98</ele>
        <time>2011-04-15T07:57:18Z</time>
      </trkpt>
      <trkpt lat="48.59586" lon="2.10749">
        <ele>98</ele>
        <time>2011-04-15T07:57:19Z</time>
      </trkpt>
      <trkpt lat="48.59585" lon="2.10749">
        <ele>98</ele>
        <time>2011-04-15T07:57:20Z</time>
      </trkpt>
      <trkpt lat="48.59583" lon="2.10749">
        <ele>98</ele>
        <time>2011-04-15T07:57:21Z</time>
      </trkpt>
      <trkpt lat="48.59582" lon="2.10749">
        <ele>98</ele>
        <time>2011-04-15T07:57:22Z</time>
      </trkpt>
      <trkpt lat="48.5958" lon="2.1075">
        <ele>98</ele>
        <time>2011-04-15T07:57:23Z</time>
      </trkpt>
      <trkpt lat="48.59579" lon="2.1075">
        <ele>98</ele>
        <time>2011-04-15T07:57:24Z</time>
      </trkpt>
      <trkpt lat="48.59577" lon="2.10751">
        <ele>98</ele>
        <time>2011-04-15T07:57:25Z</time>
      </trkpt>
      <trkpt lat="48.59576" lon="2.10752">
        <ele>98</ele>
        <time>2011-04-15T07:57:26Z</time>
      </trkpt>
      <trkpt lat="48.59574" lon="2.10753">
        <ele>98</ele>
        <time>2011-04-15T07:57:27Z</time>
      </trkpt>
      <trkpt lat="48.59573" lon="2.10754">
        <ele>98</ele>
        <time>2011-04-15T07:57:28Z</time>
      </trkpt>
      <trkpt lat="48.59571" lon="2.10755">
        <ele>98</ele>
        <time>2011-04-15T07:57:29Z</time>
      </trkpt>
      <trkpt lat="48.59569" lon="2.10755">
        <ele>98</ele>
        <time>2011-04-15T07:57:30Z</time>
      </trkpt>
      <trkpt lat="48.59568" lon="2.10756">
        <ele>98</ele>
        <time>2011-04-15T07:57:31Z</time>
      </trkpt>
      <trkpt lat="48.59566" lon="2.10757">
        <ele>98</ele>
        <time>2011-04-15T07:57:32Z</time>
      </trkpt>
      <trkpt lat="48.59564" lon="2.10758">
        <ele>98</ele>
        <time>2011-04-15T07:57:33Z</time>
      </trkpt>
      <trkpt lat="48.59563" lon="2.10759">
        <ele>98</ele>
        <time>2011-04-15T07:57:34Z</time>
      </trkpt>
      <trkpt lat="48.59561" lon="2.1076">
        <ele>98</ele>
        <time>2011-04-15T07:57:35Z</time>
      </trkpt>
      <trkpt lat="48.59559" lon="2.1076">
        <ele>98</ele>
        <time>2011-04-15T07:57:36Z</time>
      </trkpt>
      <trkpt lat="48.59558" lon="2.10761">
        <ele>98</ele>
        <time>2011-04-15T07:57:37Z</time>
      </trkpt>
      <trkpt lat="48.59556" lon="2.10762">
        <ele>98</ele>
        <time>2011-04-15T07:57:38Z</time>
      </trkpt>
      <trkpt lat="48.59555" lon="2.10763">
        <ele>98</ele>
        <time>2011-04-15T07:57:39Z</time>
      </trkpt>
      <trkpt lat="48.59553" lon="2.10763">
        <ele>98</ele>
        <time>2011-04-15T07:57:40Z</time>
      </trkpt>
      <trkpt lat="48.59552" lon="2.10763">
        <ele>98</ele>
        <time>2011-04-15T07:57:41Z</time>
      </trkpt>
      <trkpt lat="48.5955" lon="2.10764">
        <ele>98</ele>
        <time>2011-04-15T07:57:42Z</time>
      </trkpt>
      <trkpt lat="48.59549" lon="2.10765">
        <ele>98</ele>
        <time>2011-04-15T07:57:43Z</time>
      </trkpt>
      <trkpt lat="48.59547" lon="2.10766">
        <ele>98</ele>
        <time>2011-04-15T07:57:44Z</time>
      </trkpt>
      <trkpt lat="48.59546" lon="2.10766">
        <ele>98</ele>
        <time>2011-04-15T07:57:45Z</time>
      </trkpt>
      <trkpt lat="48.59545" lon="2.10767">
        <ele>98</ele>
        <time>2011-04-15T07:57:46Z</time>
      </trkpt>
      <trkpt lat="48.59543" lon="2.10768">
        <ele>98</ele>
        <time>2011-04-15T07:57:47Z</time>
      </trkpt>
      <trkpt lat="48.59542" lon="2.10769">
        <ele>98</ele>
        <time>2011-04-15T07:57:48Z</time>
      </trkpt>
      <trkpt lat="48.5954" lon="2.10769">
        <ele>98</ele>
        <time>2011-04-15T07:57:49Z</time>
      </trkpt>
      <trkpt lat="48.59539" lon="2.1077">
        <ele>98</ele>
        <time>2011-04-15T07:57:50Z</time>
      </trkpt>
      <trkpt lat="48.59537" lon="2.10771">
        <ele>98</ele>
        <time>2011-04-15T07:57:51Z</time>
      </trkpt>
      <trkpt lat="48.59536" lon="2.10771">
        <ele>98</ele>
        <time>2011-04-15T07:57:52Z</time>
      </trkpt>
      <trkpt lat="48.59535" lon="2.10772">
        <ele>98</ele>
        <time>2011-04-15T07:57:53Z</time>
      </trkpt>
      <trkpt lat="48.59533" lon="2.10773">
        <ele>98</ele>
        <time>2011-04-15T07:57:54Z</time>
      </trkpt>
      <trkpt lat="48.59532" lon="2.10774">
        <ele>98</ele>
        <time>2011-04-15T07:57:55Z</time>
      </trkpt>
      <trkpt lat="48.5953" lon="2.10775">
        <ele>98</ele>
        <time>2011-04-15T07:57:56Z</time>
      </trkpt>
      <trkpt lat="48.59529" lon="2.10776">
        <ele>98</ele>
        <time>2011-04-15T07:57:57Z</time>
      </trkpt>
      <trkpt lat="48.59527" lon="2.10777">
        <ele>98</ele>
        <time>2011-04-15T07:57:58Z</time>
      </trkpt>
      <trkpt lat="48.59526" lon="2.10778">
        <ele>98</ele>
        <time>2011-04-15T07:57:59Z</time>
      </trkpt>
      <trkpt lat="48.59524" lon="2.10779">
        <ele>98</ele>
        <time>2011-04-15T07:58:00Z</time>
      </trkpt>
      <trkpt lat="48.59522" lon="2.1078">
        <ele>98</ele>
        <time>2011-04-15T07:58:01Z</time>
      </trkpt>
      <trkpt lat="48.5952" lon="2.10781">
        <ele>98</ele>
        <time>2011-04-15T07:58:02Z</time>
      </trkpt>
      <trkpt lat="48.59519" lon="2.10782">
        <ele>98</ele>
        <time>2011-04-15T07:58:03Z</time>
      </trkpt>
      <trkpt lat="48.59517" lon="2.10783">
        <ele>98</ele>
        <time>2011-04-15T07:58:04Z</time>
      </trkpt>
      <trkpt lat="48.59516" lon="2.10784">
        <ele>98</ele>
        <time>2011-04-15T07:58:05Z</time>
      </trkpt>
      <trkpt lat="48.59514" lon="2.10785">
        <ele>98</ele>
        <time>2011-04-15T07:58:06Z</time>
      </trkpt>
      <trkpt lat="48.59513" lon="2.10786">
        <ele>98</ele>
        <time>2011-04-15T07:58:07Z</time>
      </trkpt>
      <trkpt lat="48.59511" lon="2.10787">
        <ele>97</ele>
        <time>2011-04-15T07:58:08Z</time>
      </trkpt>
      <trkpt lat="48.5951" lon="2.10788">
        <ele>97</ele>
        <time>2011-04-15T07:58:09Z</time>
      </trkpt>
      <trkpt lat="48.59508" lon="2.10789">
        <ele>97</ele>
        <time>2011-04-15T07:58:10Z</time>
      </trkpt>
      <trkpt lat="48.59506" lon="2.1079">
        <ele>97</ele>
        <time>2011-04-15T07:58:11Z</time>
      </trkpt>
      <trkpt lat="48.59505" lon="2.1079">
        <ele>97</ele>
        <time>2011-04-15T07:58:12Z</time>
      </trkpt>
      <trkpt lat="48.59503" lon="2.10791">
        <ele>97</ele>
        <time>2011-04-15T07:58:13Z</time>
      </trkpt>
      <trkpt lat="48.59501" lon="2.10792">
        <ele>97</ele>
        <time>2011-04-15T07:58:14Z</time>
      </trkpt>
      <trkpt lat="48.595" lon="2.10793">
        <ele>97</ele>
        <time>2011-04-15T07:58:15Z</time>
      </trkpt>
      <trkpt lat="48.59498" lon="2.10793">
        <ele>97</ele>
        <time>2011-04-15T07:58:16Z</time>
      </trkpt>
      <trkpt lat="48.59497" lon="2.10794">
        <ele>97</ele>
        <time>2011-04-15T07:58:17Z</time>
      </trkpt>
      <trkpt lat="48.59496" lon="2.10794">
        <ele>97</ele>
        <time>2011-04-15T07:58:18Z</time>
      </trkpt>
      <trkpt lat="48.59494" lon="2.10795">
        <ele>97</ele>
        <time>2011-04-15T07:58:19Z</time>
      </trkpt>
      <trkpt lat="48.59493" lon="2.10796">
        <ele>97</ele>
        <time>2011-04-15T07:58:20Z</time>
      </trkpt>
      <trkpt lat="48.59491" lon="2.10797">
        <ele>97</ele>
        <time>2011-04-15T07:58:21Z</time>
      </trkpt>
      <trkpt lat="48.5949" lon="2.10798">
        <ele>97</ele>
        <time>2011-04-15T07:58:22Z</time>
      </trkpt>
      <trkpt lat="48.59488" lon="2.10799">
        <ele>97</ele>
        <time>2011-04-15T07:58:23Z</time>
      </trkpt>
      <trkpt lat="48.59486" lon="2.10799">
        <ele>96</ele>
        <time>2011-04-15T07:58:24Z</time>
      </trkpt>
      <trkpt lat="48.59485" lon="2.108">
        <ele>96</ele>
        <time>2011-04-15T07:58:25Z</time>
      </trkpt>
      <trkpt lat="48.59484" lon="2.10801">
        <ele>96</ele>
        <time>2011-04-15T07:58:26Z</time>
      </trkpt>
      <trkpt lat="48.59482" lon="2.10802">
        <ele>96</ele>
        <time>2011-04-15T07:58:27Z</time>
      </trkpt>
      <trkpt lat="48.5948" lon="2.10803">
        <ele>96</ele>
        <time>2011-04-15T07:58:28Z</time>
      </trkpt>
      <trkpt lat="48.59479" lon="2.10804">
        <ele>96</ele>
        <time>2011-04-15T07:58:29Z</time>
      </trkpt>
      <trkpt lat="48.59477" lon="2.10805">
        <ele>95</ele>
        <time>2011-04-15T07:58:30Z</time>
      </trkpt>
      <trkpt lat="48.59475" lon="2.10806">
        <ele>95</ele>
        <time>2011-04-15T07:58:31Z</time>
      </trkpt>
      <trkpt lat="48.59474" lon="2.10807">
        <ele>95</ele>
        <time>2011-04-15T07:58:32Z</time>
      </trkpt>
      <trkpt lat="48.59472" lon="2.10808">
        <ele>95</ele>
        <time>2011-04-15T07:58:33Z</time>
      </trkpt>
      <trkpt lat="48.59471" lon="2.10809">
        <ele>95</ele>
        <time>2011-04-15T07:58:34Z</time>
      </trkpt>
      <trkpt lat="48.59469" lon="2.1081">
        <ele>95</ele>
        <time>2011-04-15T07:58:35Z</time>
      </trkpt>
      <trkpt lat="48.59467" lon="2.10811">
        <ele>95</ele>
        <time>2011-04-15T07:58:36Z</time>
      </trkpt>
      <trkpt lat="48.59465" lon="2.10812">
        <ele>95</ele>
        <time>2011-04-15T07:58:37Z</time>
      </trkpt>
      <trkpt lat="48.59464" lon="2.10812">
        <ele>95</ele>
        <time>2011-04-15T07:58:38Z</time>
      </trkpt>
      <trkpt lat="48.59462" lon="2.10813">
        <ele>95</ele>
        <time>2011-04-15T07:58:39Z</time>
      </trkpt>
      <trkpt lat="48.5946" lon="2.10814">
        <ele>95</ele>
        <time>2011-04-15T07:58:40Z</time>
      </trkpt>
      <trkpt lat="48.59459" lon="2.10815">
        <ele>95</ele>
        <time>2011-04-15T07:58:41Z</time>
      </trkpt>
      <trkpt lat="48.59457" lon="2.10816">
        <ele>95</ele>
        <time>2011-04-15T07:58:42Z</time>
      </trkpt>
      <trkpt lat="48.59455" lon="2.10817">
        <ele>95</ele>
        <time>2011-04-15T07:58:43Z</time>
      </trkpt>
      <trkpt lat="48.59454" lon="2.10818">
        <ele>95</ele>
        <time>2011-04-15T07:58:44Z</time>
      </trkpt>
      <trkpt lat="48.59452" lon="2.10818">
        <ele>95</ele>
        <time>2011-04-15T07:58:45Z</time>
      </trkpt>
      <trkpt lat="48.59451" lon="2.10819">
        <ele>95</ele>
        <time>2011-04-15T07:58:46Z</time>
      </trkpt>
      <trkpt lat="48.59449" lon="2.1082">
        <ele>95</ele>
        <time>2011-04-15T07:58:47Z</time>
      </trkpt>
      <trkpt lat="48.59448" lon="2.10821">
        <ele>95</ele>
        <time>2011-04-15T07:58:48Z</time>
      </trkpt>
      <trkpt lat="48.59446" lon="2.10822">
        <ele>95</ele>
        <time>2011-04-15T07:58:49Z</time>
      </trkpt>
      <trkpt lat="48.59445" lon="2.10823">
        <ele>95</ele>
        <time>2011-04-15T07:58:50Z</time>
      </trkpt>
      <trkpt lat="48.59443" lon="2.10824">
        <ele>95</ele>
        <time>2011-04-15T07:58:51Z</time>
      </trkpt>
      <trkpt lat="48.59441" lon="2.10824">
        <ele>95</ele>
        <time>2011-04-15T07:58:52Z</time>
      </trkpt>
      <trkpt lat="48.5944" lon="2.10825">
        <ele>95</ele>
        <time>2011-04-15T07:58:53Z</time>
      </trkpt>
      <trkpt lat="48.59438" lon="2.10826">
        <ele>95</ele>
        <time>2011-04-15T07:58:54Z</time>
      </trkpt>
      <trkpt lat="48.59437" lon="2.10826">
        <ele>95</ele>
        <time>2011-04-15T07:58:55Z</time>
      </trkpt>
      <trkpt lat="48.59435" lon="2.10827">
        <ele>95</ele>
        <time>2011-04-15T07:58:56Z</time>
      </trkpt>
      <trkpt lat="48.59433" lon="2.10828">
        <ele>95</ele>
        <time>2011-04-15T07:58:57Z</time>
      </trkpt>
      <trkpt lat="48.59432" lon="2.10828">
        <ele>95</ele>
        <time>2011-04-15T07:58:58Z</time>
      </trkpt>
      <trkpt lat="48.5943" lon="2.10829">
        <ele>95</ele>
        <time>2011-04-15T07:58:59Z</time>
      </trkpt>
      <trkpt lat="48.59428" lon="2.1083">
        <ele>95</ele>
        <time>2011-04-15T07:59:00Z</time>
      </trkpt>
      <trkpt lat="48.59427" lon="2.10831">
        <ele>95</ele>
        <time>2011-04-15T07:59:01Z</time>
      </trkpt>
      <trkpt lat="48.59425" lon="2.10832">
        <ele>95</ele>
        <time>2011-04-15T07:59:02Z</time>
      </trkpt>
      <trkpt lat="48.59423" lon="2.10832">
        <ele>95</ele>
        <time>2011-04-15T07:59:03Z</time>
      </trkpt>
      <trkpt lat="48.59422" lon="2.10833">
        <ele>95</ele>
        <time>2011-04-15T07:59:04Z</time>
      </trkpt>
      <trkpt lat="48.5942" lon="2.10833">
        <ele>95</ele>
        <time>2011-04-15T07:59:05Z</time>
      </trkpt>
      <trkpt lat="48.59419" lon="2.10834">
        <ele>95</ele>
        <time>2011-04-15T07:59:06Z</time>
      </trkpt>
      <trkpt lat="48.59417" lon="2.10835">
        <ele>95</ele>
        <time>2011-04-15T07:59:07Z</time>
      </trkpt>
      <trkpt lat="48.59415" lon="2.10835">
        <ele>95</ele>
        <time>2011-04-15T07:59:08Z</time>
      </trkpt>
      <trkpt lat="48.59414" lon="2.10836">
        <ele>95</ele>
        <time>2011-04-15T07:59:09Z</time>
      </trkpt>
      <trkpt lat="48.59412" lon="2.10836">
        <ele>95</ele>
        <time>2011-04-15T07:59:10Z</time>
      </trkpt>
      <trkpt lat="48.5941" lon="2.10837">
        <ele>95</ele>
        <time>2011-04-15T07:59:11Z</time>
      </trkpt>
      <trkpt lat="48.59409" lon="2.10837">
        <ele>95</ele>
        <time>2011-04-15T07:59:12Z</time>
      </trkpt>
      <trkpt lat="48.59407" lon="2.10838">
        <ele>95</ele>
        <time>2011-04-15T07:59:13Z</time>
      </trkpt>
      <trkpt lat="48.59406" lon="2.10838">
        <ele>94</ele>
        <time>2011-04-15T07:59:14Z</time>
      </trkpt>
      <trkpt lat="48.59404" lon="2.10839">
        <ele>94</ele>
        <time>2011-04-15T07:59:15Z</time>
      </trkpt>
      <trkpt lat="48.59403" lon="2.10839">
        <ele>94</ele>
        <time>2011-04-15T07:59:16Z</time>
      </trkpt>
      <trkpt lat="48.59401" lon="2.1084">
        <ele>94</ele>
        <time>2011-04-15T07:59:17Z</time>
      </trkpt>
      <trkpt lat="48.594" lon="2.1084">
        <ele>94</ele>
        <time>2011-04-15T07:59:18Z</time>
      </trkpt>
      <trkpt lat="48.59398" lon="2.10841">
        <ele>94</ele>
        <time>2011-04-15T07:59:19Z</time>
      </trkpt>
      <trkpt lat="48.59397" lon="2.10841">
        <ele>94</ele>
        <time>2011-04-15T07:59:20Z</time>
      </trkpt>
      <trkpt lat="48.59395" lon="2.10841">
        <ele>94</ele>
        <time>2011-04-15T07:59:21Z</time>
      </trkpt>
      <trkpt lat="48.59394" lon="2.10842">
        <ele>94</ele>
        <time>2011-04-15T07:59:22Z</time>
      </trkpt>
      <trkpt lat="48.59392" lon="2.10842">
        <ele>94</ele>
        <time>2011-04-15T07:59:23Z</time>
      </trkpt>
      <trkpt lat="48.5939" lon="2.10843">
        <ele>94</ele>
        <time>2011-04-15T07:59:24Z</time>
      </trkpt>
      <trkpt lat="48.59389" lon="2.10843">
        <ele>94</ele>
        <time>2011-04-15T07:59:25Z</time>
      </trkpt>
      <trkpt lat="48.59387" lon="2.10844">
        <ele>94</ele>
        <time>2011-04-15T07:59:26Z</time>
      </trkpt>
      <trkpt lat="48.59385" lon="2.10844">
        <ele>94</ele>
        <time>2011-04-15T07:59:27Z</time>
      </trkpt>
      <trkpt lat="48.59384" lon="2.10845">
        <ele>94</ele>
        <time>2011-04-15T07:59:28Z</time>
      </trkpt>
      <trkpt lat="48.59382" lon="2.10845">
        <ele>94</ele>
        <time>2011-04-15T07:59:29Z</time>
      </trkpt>
      <trkpt lat="48.5938" lon="2.10846">
        <ele>94</ele>
        <time>2011-04-15T07:59:30Z</time>
      </trkpt>
      <trkpt lat="48.59379" lon="2.10846">
        <ele>94</ele>
        <time>2011-04-15T07:59:31Z</time>
      </trkpt>
      <trkpt lat="48.59377" lon="2.10847">
        <ele>94</ele>
        <time>2011-04-15T07:59:32Z</time>
      </trkpt>
      <trkpt lat="48.59376" lon="2.10847">
        <ele>94</ele>
        <time>2011-04-15T07:59:33Z</time>
      </trkpt>
      <trkpt lat="48.59374" lon="2.10847">
        <ele>94</ele>
        <time>2011-04-15T07:59:34Z</time>
      </trkpt>
      <trkpt lat="48.59373" lon="2.10848">
        <ele>94</ele>
        <time>2011-04-15T07:59:35Z</time>
      </trkpt>
      <trkpt lat="48.59371" lon="2.10848">
        <ele>94</ele>
        <time>2011-04-15T07:59:36Z</time>
      </trkpt>
      <trkpt lat="48.5937" lon="2.10849">
        <ele>94</ele>
        <time>2011-04-15T07:59:37Z</time>
      </trkpt>
      <trkpt lat="48.59368" lon="2.10849">
        <ele>94</ele>
        <time>2011-04-15T07:59:38Z</time>
      </trkpt>
      <trkpt lat="48.59367" lon="2.1085">
        <ele>94</ele>
        <time>2011-04-15T07:59:39Z</time>
      </trkpt>
      <trkpt lat="48.59365" lon="2.1085">
        <ele>94</ele>
        <time>2011-04-15T07:59:40Z</time>
      </trkpt>
      <trkpt lat="48.59363" lon="2.10851">
        <ele>94</ele>
        <time>2011-04-15T07:59:41Z</time>
      </trkpt>
      <trkpt lat="48.59362" lon="2.10851">
        <ele>94</ele>
        <time>2011-04-15T07:59:42Z</time>
      </trkpt>
      <trkpt lat="48.5936" lon="2.10852">
        <ele>93</ele>
        <time>2011-04-15T07:59:44Z</time>
      </trkpt>
      <trkpt lat="48.59358" lon="2.10853">
        <ele>93</ele>
        <time>2011-04-15T07:59:45Z</time>
      </trkpt>
      <trkpt lat="48.59357" lon="2.10854">
        <ele>93</ele>
        <time>2011-04-15T07:59:46Z</time>
      </trkpt>
      <trkpt lat="48.59355" lon="2.10854">
        <ele>93</ele>
        <time>2011-04-15T07:59:47Z</time>
      </trkpt>
      <trkpt lat="48.59353" lon="2.10855">
        <ele>93</ele>
        <time>2011-04-15T07:59:48Z</time>
      </trkpt>
      <trkpt lat="48.59352" lon="2.10855">
        <ele>93</ele>
        <time>2011-04-15T07:59:49Z</time>
      </trkpt>
      <trkpt lat="48.59351" lon="2.10856">
        <ele>93</ele>
        <time>2011-04-15T07:59:50Z</time>
      </trkpt>
      <trkpt lat="48.5935" lon="2.10857">
        <ele>93</ele>
        <time>2011-04-15T07:59:51Z</time>
      </trkpt>
      <trkpt lat="48.59348" lon="2.10858">
        <ele>93</ele>
        <time>2011-04-15T07:59:52Z</time>
      </trkpt>
      <trkpt lat="48.59347" lon="2.10859">
        <ele>93</ele>
        <time>2011-04-15T07:59:53Z</time>
      </trkpt>
      <trkpt lat="48.59345" lon="2.1086">
        <ele>93</ele>
        <time>2011-04-15T07:59:54Z</time>
      </trkpt>
      <trkpt lat="48.59344" lon="2.10861">
        <ele>93</ele>
        <time>2011-04-15T07:59:55Z</time>
      </trkpt>
      <trkpt lat="48.59342" lon="2.10861">
        <ele>93</ele>
        <time>2011-04-15T07:59:56Z</time>
      </trkpt>
      <trkpt lat="48.59341" lon="2.10862">
        <ele>93</ele>
        <time>2011-04-15T07:59:57Z</time>
      </trkpt>
      <trkpt lat="48.59339" lon="2.10863">
        <ele>93</ele>
        <time>2011-04-15T07:59:58Z</time>
      </trkpt>
      <trkpt lat="48.59338" lon="2.10864">
        <ele>93</ele>
        <time>2011-04-15T07:59:59Z</time>
      </trkpt>
      <trkpt lat="48.59336" lon="2.10865">
        <ele>93</ele>
        <time>2011-04-15T08:00:00Z</time>
      </trkpt>
      <trkpt lat="48.59335" lon="2.10866">
        <ele>93</ele>
        <time>2011-04-15T08:00:01Z</time>
      </trkpt>
      <trkpt lat="48.59334" lon="2.10867">
        <ele>93</ele>
        <time>2011-04-15T08:00:02Z</time>
      </trkpt>
      <trkpt lat="48.59332" lon="2.10868">
        <ele>92</ele>
        <time>2011-04-15T08:00:03Z</time>
      </trkpt>
      <trkpt lat="48.59331" lon="2.1087">
        <ele>92</ele>
        <time>2011-04-15T08:00:04Z</time>
      </trkpt>
      <trkpt lat="48.59329" lon="2.10871">
        <ele>92</ele>
        <time>2011-04-15T08:00:05Z</time>
      </trkpt>
      <trkpt lat="48.59328" lon="2.10872">
        <ele>92</ele>
        <time>2011-04-15T08:00:06Z</time>
      </trkpt>
      <trkpt lat="48.59326" lon="2.10873">
        <ele>92</ele>
        <time>2011-04-15T08:00:07Z</time>
      </trkpt>
      <trkpt lat="48.59325" lon="2.10875">
        <ele>92</ele>
        <time>2011-04-15T08:00:08Z</time>
      </trkpt>
      <trkpt lat="48.59323" lon="2.10876">
        <ele>92</ele>
        <time>2011-04-15T08:00:09Z</time>
      </trkpt>
      <trkpt lat="48.59322" lon="2.10878">
        <ele>92</ele>
        <time>2011-04-15T08:00:10Z</time>
      </trkpt>
      <trkpt lat="48.5932" lon="2.1088">
        <ele>92</ele>
        <time>2011-04-15T08:00:11Z</time>
      </trkpt>
      <trkpt lat="48.59319" lon="2.10881">
        <ele>92</ele>
        <time>2011-04-15T08:00:12Z</time>
      </trkpt>
      <trkpt lat="48.59318" lon="2.10882">
        <ele>92</ele>
        <time>2011-04-15T08:00:13Z</time>
      </trkpt>
      <trkpt lat="48.59316" lon="2.10883">
        <ele>92</ele>
        <time>2011-04-15T08:00:14Z</time>
      </trkpt>
      <trkpt lat="48.59315" lon="2.10885">
        <ele>92</ele>
        <time>2011-04-15T08:00:15Z</time>
      </trkpt>
      <trkpt lat="48.59314" lon="2.10886">
        <ele>91</ele>
        <time>2011-04-15T08:00:16Z</time>
      </trkpt>
      <trkpt lat="48.59312" lon="2.10888">
        <ele>91</ele>
        <time>2011-04-15T08:00:17Z</time>
      </trkpt>
      <trkpt lat="48.59311" lon="2.10889">
        <ele>91</ele>
        <time>2011-04-15T08:00:18Z</time>
      </trkpt>
      <trkpt lat="48.5931" lon="2.10891">
        <ele>91</ele>
        <time>2011-04-15T08:00:19Z</time>
      </trkpt>
      <trkpt lat="48.59309" lon="2.10892">
        <ele>91</ele>
        <time>2011-04-15T08:00:20Z</time>
      </trkpt>
      <trkpt lat="48.59307" lon="2.10894">
        <ele>91</ele>
        <time>2011-04-15T08:00:21Z</time>
      </trkpt>
      <trkpt lat="48.59306" lon="2.10896">
        <ele>91</ele>
        <time>2011-04-15T08:00:22Z</time>
      </trkpt>
      <trkpt lat="48.59305" lon="2.10897">
        <ele>91</ele>
        <time>2011-04-15T08:00:23Z</time>
      </trkpt>
      <trkpt lat="48.59303" lon="2.10899">
        <ele>91</ele>
        <time>2011-04-15T08:00:24Z</time>
      </trkpt>
      <trkpt lat="48.59302" lon="2.109">
        <ele>91</ele>
        <time>2011-04-15T08:00:25Z</time>
      </trkpt>
      <trkpt lat="48.59301" lon="2.10901">
        <ele>91</ele>
        <time>2011-04-15T08:00:26Z</time>
      </trkpt>
      <trkpt lat="48.593" lon="2.10902">
        <ele>91</ele>
        <time>2011-04-15T08:00:27Z</time>
      </trkpt>
      <trkpt lat="48.59298" lon="2.10904">
        <ele>91</ele>
        <time>2011-04-15T08:00:28Z</time>
      </trkpt>
      <trkpt lat="48.59297" lon="2.10905">
        <ele>91</ele>
        <time>2011-04-15T08:00:29Z</time>
      </trkpt>
      <trkpt lat="48.59296" lon="2.10907">
        <ele>91</ele>
        <time>2011-04-15T08:00:30Z</time>
      </trkpt>
      <trkpt lat="48.59294" lon="2.10908">
        <ele>91</ele>
        <time>2011-04-15T08:00:31Z</time>
      </trkpt>
      <trkpt lat="48.59293" lon="2.10908">
        <ele>91</ele>
        <time>2011-04-15T08:00:32Z</time>
      </trkpt>
      <trkpt lat="48.59291" lon="2.1091">
        <ele>91</ele>
        <time>2011-04-15T08:00:34Z</time>
      </trkpt>
      <trkpt lat="48.5929" lon="2.10912">
        <ele>90</ele>
        <time>2011-04-15T08:00:36Z</time>
      </trkpt>
      <trkpt lat="48.59288" lon="2.10914">
        <ele>90</ele>
        <time>2011-04-15T08:00:38Z</time>
      </trkpt>
      <trkpt lat="48.59286" lon="2.10915">
        <ele>90</ele>
        <time>2011-04-15T08:00:39Z</time>
      </trkpt>
      <trkpt lat="48.59285" lon="2.10916">
        <ele>90</ele>
        <time>2011-04-15T08:00:40Z</time>
      </trkpt>
      <trkpt lat="48.59284" lon="2.10917">
        <ele>90</ele>
        <time>2011-04-15T08:00:41Z</time>
      </trkpt>
      <trkpt lat="48.59282" lon="2.10918">
        <ele>90</ele>
        <time>2011-04-15T08:00:42Z</time>
      </trkpt>
      <trkpt lat="48.59281" lon="2.10919">
        <ele>89</ele>
        <time>2011-04-15T08:00:43Z</time>
      </trkpt>
      <trkpt lat="48.59279" lon="2.1092">
        <ele>89</ele>
        <time>2011-04-15T08:00:45Z</time>
      </trkpt>
      <trkpt lat="48.59278" lon="2.10921">
        <ele>89</ele>
        <time>2011-04-15T08:00:46Z</time>
      </trkpt>
      <trkpt lat="48.59277" lon="2.10922">
        <ele>88</ele>
        <time>2011-04-15T08:00:47Z</time>
      </trkpt>
      <trkpt lat="48.59274" lon="2.10925">
        <ele>88</ele>
        <time>2011-04-15T08:00:49Z</time>
      </trkpt>
      <trkpt lat="48.59273" lon="2.10926">
        <ele>88</ele>
        <time>2011-04-15T08:00:50Z</time>
      </trkpt>
      <trkpt lat="48.59271" lon="2.10928">
        <ele>88</ele>
        <time>2011-04-15T08:00:51Z</time>
      </trkpt>
      <trkpt lat="48.5927" lon="2.10928">
        <ele>87</ele>
        <time>2011-04-15T08:00:52Z</time>
      </trkpt>
      <trkpt lat="48.59268" lon="2.10931">
        <ele>87</ele>
        <time>2011-04-15T08:00:54Z</time>
      </trkpt>
      <trkpt lat="48.59266" lon="2.10932">
        <ele>87</ele>
        <time>2011-04-15T08:00:55Z</time>
      </trkpt>
      <trkpt lat="48.59265" lon="2.10933">
        <ele>87</ele>
        <time>2011-04-15T08:00:56Z</time>
      </trkpt>
      <trkpt lat="48.59264" lon="2.10933">
        <ele>87</ele>
        <time>2011-04-15T08:00:57Z</time>
      </trkpt>
      <trkpt lat="48.59263" lon="2.10934">
        <ele>87</ele>
        <time>2011-04-15T08:00:58Z</time>
      </trkpt>
      <trkpt lat="48.59261" lon="2.10936">
        <ele>87</ele>
        <time>2011-04-15T08:00:59Z</time>
      </trkpt>
      <trkpt lat="48.5926" lon="2.10937">
        <ele>87</ele>
        <time>2011-04-15T08:01:00Z</time>
      </trkpt>
      <trkpt lat="48.59258" lon="2.10938">
        <ele>87</ele>
        <time>2011-04-15T08:01:01Z</time>
      </trkpt>
      <trkpt lat="48.59257" lon="2.10939">
        <ele>87</ele>
        <time>2011-04-15T08:01:02Z</time>
      </trkpt>
      <trkpt lat="48.59255" lon="2.10941">
        <ele>87</ele>
        <time>2011-04-15T08:01:03Z</time>
      </trkpt>
      <trkpt lat="48.59253" lon="2.10943">
        <ele>87</ele>
        <time>2011-04-15T08:01:04Z</time>
      </trkpt>
      <trkpt lat="48.59252" lon="2.10945">
        <ele>87</ele>
        <time>2011-04-15T08:01:05Z</time>
      </trkpt>
      <trkpt lat="48.5925" lon="2.10947">
        <ele>87</ele>
        <time>2011-04-15T08:01:06Z</time>
      </trkpt>
      <trkpt lat="48.59249" lon="2.10949">
        <ele>87</ele>
        <time>2011-04-15T08:01:07Z</time>
      </trkpt>
      <trkpt lat="48.59248" lon="2.10951">
        <ele>87</ele>
        <time>2011-04-15T08:01:08Z</time>
      </trkpt>
      <trkpt lat="48.59246" lon="2.10953">
        <ele>87</ele>
        <time>2011-04-15T08:01:09Z</time>
      </trkpt>
      <trkpt lat="48.59245" lon="2.10955">
        <ele>87</ele>
        <time>2011-04-15T08:01:10Z</time>
      </trkpt>
      <trkpt lat="48.59243" lon="2.10957">
        <ele>87</ele>
        <time>2011-04-15T08:01:11Z</time>
      </trkpt>
      <trkpt lat="48.59242" lon="2.10958">
        <ele>87</ele>
        <time>2011-04-15T08:01:12Z</time>
      </trkpt>
      <trkpt lat="48.59241" lon="2.1096">
        <ele>87</ele>
        <time>2011-04-15T08:01:13Z</time>
      </trkpt>
      <trkpt lat="48.59239" lon="2.10962">
        <ele>87</ele>
        <time>2011-04-15T08:01:14Z</time>
      </trkpt>
      <trkpt lat="48.59238" lon="2.10964">
        <ele>87</ele>
        <time>2011-04-15T08:01:15Z</time>
      </trkpt>
      <trkpt lat="48.59237" lon="2.10966">
        <ele>87</ele>
        <time>2011-04-15T08:01:16Z</time>
      </trkpt>
      <trkpt lat="48.59235" lon="2.10967">
        <ele>87</ele>
        <time>2011-04-15T08:01:17Z</time>
      </trkpt>
      <trkpt lat="48.59234" lon="2.10969">
        <ele>87</ele>
        <time>2011-04-15T08:01:18Z</time>
      </trkpt>
      <trkpt lat="48.59232" lon="2.10971">
        <ele>87</ele>
        <time>2011-04-15T08:01:19Z</time>
      </trkpt>
      <trkpt lat="48.59231" lon="2.10972">
        <ele>86</ele>
        <time>2011-04-15T08:01:20Z</time>
      </trkpt>
      <trkpt lat="48.5923" lon="2.10974">
        <ele>86</ele>
        <time>2011-04-15T08:01:21Z</time>
      </trkpt>
      <trkpt lat="48.59228" lon="2.10976">
        <ele>86</ele>
        <time>2011-04-15T08:01:22Z</time>
      </trkpt>
      <trkpt lat="48.59227" lon="2.10978">
        <ele>86</ele>
        <time>2011-04-15T08:01:23Z</time>
      </trkpt>
      <trkpt lat="48.59226" lon="2.1098">
        <ele>86</ele>
        <time>2011-04-15T08:01:24Z</time>
      </trkpt>
      <trkpt lat="48.59224" lon="2.10981">
        <ele>86</ele>
        <time>2011-04-15T08:01:25Z</time>
      </trkpt>
      <trkpt lat="48.59223" lon="2.10983">
        <ele>86</ele>
        <time>2011-04-15T08:01:26Z</time>
      </trkpt>
      <trkpt lat="48.59221" lon="2.10985">
        <ele>86</ele>
        <time>2011-04-15T08:01:27Z</time>
      </trkpt>
      <trkpt lat="48.5922" lon="2.10986">
        <ele>86</ele>
        <time>2011-04-15T08:01:28Z</time>
      </trkpt>
      <trkpt lat="48.59219" lon="2.10988">
        <ele>86</ele>
        <time>2011-04-15T08:01:29Z</time>
      </trkpt>
      <trkpt lat="48.59217" lon="2.10989">
        <ele>86</ele>
        <time>2011-04-15T08:01:30Z</time>
      </trkpt>
      <trkpt lat="48.59216" lon="2.10991">
        <ele>86</ele>
        <time>2011-04-15T08:01:31Z</time>
      </trkpt>
      <trkpt lat="48.59215" lon="2.10993">
        <ele>86</ele>
        <time>2011-04-15T08:01:32Z</time>
      </trkpt>
      <trkpt lat="48.59213" lon="2.10995">
        <ele>86</ele>
        <time>2011-04-15T08:01:33Z</time>
      </trkpt>
      <trkpt lat="48.59212" lon="2.10997">
        <ele>86</ele>
        <time>2011-04-15T08:01:34Z</time>
      </trkpt>
      <trkpt lat="48.59211" lon="2.10999">
        <ele>85</ele>
        <time>2011-04-15T08:01:35Z</time>
      </trkpt>
      <trkpt lat="48.5921" lon="2.11">
        <ele>85</ele>
        <time>2011-04-15T08:01:36Z</time>
      </trkpt>
      <trkpt lat="48.59208" lon="2.11002">
        <ele>85</ele>
        <time>2011-04-15T08:01:37Z</time>
      </trkpt>
      <trkpt lat="48.59207" lon="2.11004">
        <ele>85</ele>
        <time>2011-04-15T08:01:38Z</time>
      </trkpt>
      <trkpt lat="48.59206" lon="2.11005">
        <ele>85</ele>
        <time>2011-04-15T08:01:39Z</time>
      </trkpt>
      <trkpt lat="48.59204" lon="2.11007">
        <ele>85</ele>
        <time>2011-04-15T08:01:40Z</time>
      </trkpt>
      <trkpt lat="48.59203" lon="2.11008">
        <ele>85</ele>
        <time>2011-04-15T08:01:41Z</time>
      </trkpt>
      <trkpt lat="48.59201" lon="2.1101">
        <ele>85</ele>
        <time>2011-04-15T08:01:42Z</time>
      </trkpt>
      <trkpt lat="48.592" lon="2.11011">
        <ele>85</ele>
        <time>2011-04-15T08:01:43Z</time>
      </trkpt>
      <trkpt lat="48.59199" lon="2.11012">
        <ele>85</ele>
        <time>2011-04-15T08:01:44Z</time>
      </trkpt>
      <trkpt lat="48.59197" lon="2.11013">
        <ele>84</ele>
        <time>2011-04-15T08:01:45Z</time>
      </trkpt>
      <trkpt lat="48.59196" lon="2.11014">
        <ele>84</ele>
        <time>2011-04-15T08:01:46Z</time>
      </trkpt>
      <trkpt lat="48.59195" lon="2.11016">
        <ele>84</ele>
        <time>2011-04-15T08:01:47Z</time>
      </trkpt>
      <trkpt lat="48.59193" lon="2.11017">
        <ele>84</ele>
        <time>2011-04-15T08:01:48Z</time>
      </trkpt>
      <trkpt lat="48.59192" lon="2.11018">
        <ele>84</ele>
        <time>2011-04-15T08:01:49Z</time>
      </trkpt>
      <trkpt lat="48.59191" lon="2.11019">
        <ele>84</ele>
        <time>2011-04-15T08:01:50Z</time>
      </trkpt>
      <trkpt lat="48.5919" lon="2.1102">
        <ele>84</ele>
        <time>2011-04-15T08:01:51Z</time>
      </trkpt>
      <trkpt lat="48.59188" lon="2.11021">
        <ele>84</ele>
        <time>2011-04-15T08:01:52Z</time>
      </trkpt>
      <trkpt lat="48.59187" lon="2.11022">
        <ele>83</ele>
        <time>2011-04-15T08:01:53Z</time>
      </trkpt>
      <trkpt lat="48.59185" lon="2.11024">
        <ele>83</ele>
        <time>2011-04-15T08:01:54Z</time>
      </trkpt>
      <trkpt lat="48.59184" lon="2.11025">
        <ele>83</ele>
        <time>2011-04-15T08:01:55Z</time>
      </trkpt>
      <trkpt lat="48.59183" lon="2.11026">
        <ele>83</ele>
        <time>2011-04-15T08:01:56Z</time>
      </trkpt>
      <trkpt lat="48.59181" lon="2.11028">
        <ele>83</ele>
        <time>2011-04-15T08:01:57Z</time>
      </trkpt>
      <trkpt lat="48.5918" lon="2.11029">
        <ele>83</ele>
        <time>2011-04-15T08:01:58Z</time>
      </trkpt>
      <trkpt lat="48.59179" lon="2.1103">
        <ele>83</ele>
        <time>2011-04-15T08:01:59Z</time>
      </trkpt>
      <trkpt lat="48.59177" lon="2.11033">
        <ele>83</ele>
        <time>2011-04-15T08:02:01Z</time>
      </trkpt>
      <trkpt lat="48.59175" lon="2.11034">
        <ele>83</ele>
        <time>2011-04-15T08:02:02Z</time>
      </trkpt>
      <trkpt lat="48.59174" lon="2.11035">
        <ele>83</ele>
        <time>2011-04-15T08:02:03Z</time>
      </trkpt>
      <trkpt lat="48.59173" lon="2.11036">
        <ele>83</ele>
        <time>2011-04-15T08:02:04Z</time>
      </trkpt>
      <trkpt lat="48.59172" lon="2.11038">
        <ele>83</ele>
        <time>2011-04-15T08:02:05Z</time>
      </trkpt>
      <trkpt lat="48.59171" lon="2.1104">
        <ele>83</ele>
        <time>2011-04-15T08:02:06Z</time>
      </trkpt>
      <trkpt lat="48.5917" lon="2.11041">
        <ele>83</ele>
        <time>2011-04-15T08:02:07Z</time>
      </trkpt>
      <trkpt lat="48.59169" lon="2.11044">
        <ele>83</ele>
        <time>2011-04-15T08:02:08Z</time>
      </trkpt>
      <trkpt lat="48.59167" lon="2.11046">
        <ele>83</ele>
        <time>2011-04-15T08:02:10Z</time>
      </trkpt>
      <trkpt lat="48.59166" lon="2.11048">
        <ele>83</ele>
        <time>2011-04-15T08:02:11Z</time>
      </trkpt>
      <trkpt lat="48.59164" lon="2.11051">
        <ele>83</ele>
        <time>2011-04-15T08:02:13Z</time>
      </trkpt>
      <trkpt lat="48.59163" lon="2.11052">
        <ele>83</ele>
        <time>2011-04-15T08:02:14Z</time>
      </trkpt>
      <trkpt lat="48.59162" lon="2.11054">
        <ele>83</ele>
        <time>2011-04-15T08:02:15Z</time>
      </trkpt>
      <trkpt lat="48.59161" lon="2.11056">
        <ele>83</ele>
        <time>2011-04-15T08:02:16Z</time>
      </trkpt>
      <trkpt lat="48.5916" lon="2.11057">
        <ele>83</ele>
        <time>2011-04-15T08:02:17Z</time>
      </trkpt>
      <trkpt lat="48.59159" lon="2.11058">
        <ele>83</ele>
        <time>2011-04-15T08:02:18Z</time>
      </trkpt>
      <trkpt lat="48.59157" lon="2.11059">
        <ele>83</ele>
        <time>2011-04-15T08:02:19Z</time>
      </trkpt>
      <trkpt lat="48.59156" lon="2.1106">
        <ele>83</ele>
        <time>2011-04-15T08:02:20Z</time>
      </trkpt>
      <trkpt lat="48.59154" lon="2.11061">
        <ele>83</ele>
        <time>2011-04-15T08:02:21Z</time>
      </trkpt>
      <trkpt lat="48.59153" lon="2.11062">
        <ele>83</ele>
        <time>2011-04-15T08:02:22Z</time>
      </trkpt>
      <trkpt lat="48.59151" lon="2.11063">
        <ele>83</ele>
        <time>2011-04-15T08:02:23Z</time>
      </trkpt>
      <trkpt lat="48.5915" lon="2.11065">
        <ele>83</ele>
        <time>2011-04-15T08:02:24Z</time>
      </trkpt>
      <trkpt lat="48.59149" lon="2.11067">
        <ele>82</ele>
        <time>2011-04-15T08:02:25Z</time>
      </trkpt>
      <trkpt lat="48.59148" lon="2.11068">
        <ele>82</ele>
        <time>2011-04-15T08:02:26Z</time>
      </trkpt>
      <trkpt lat="48.59147" lon="2.1107">
        <ele>82</ele>
        <time>2011-04-15T08:02:27Z</time>
      </trkpt>
      <trkpt lat="48.59145" lon="2.11072">
        <ele>82</ele>
        <time>2011-04-15T08:02:28Z</time>
      </trkpt>
      <trkpt lat="48.59144" lon="2.11073">
        <ele>82</ele>
        <time>2011-04-15T08:02:29Z</time>
      </trkpt>
      <trkpt lat="48.59143" lon="2.11075">
        <ele>82</ele>
        <time>2011-04-15T08:02:30Z</time>
      </trkpt>
      <trkpt lat="48.59141" lon="2.11076">
        <ele>82</ele>
        <time>2011-04-15T08:02:31Z</time>
      </trkpt>
      <trkpt lat="48.5914" lon="2.11078">
        <ele>81</ele>
        <time>2011-04-15T08:02:32Z</time>
      </trkpt>
      <trkpt lat="48.59139" lon="2.11079">
        <ele>81</ele>
        <time>2011-04-15T08:02:33Z</time>
      </trkpt>
      <trkpt lat="48.59137" lon="2.1108">
        <ele>81</ele>
        <time>2011-04-15T08:02:34Z</time>
      </trkpt>
      <trkpt lat="48.59136" lon="2.11082">
        <ele>81</ele>
        <time>2011-04-15T08:02:35Z</time>
      </trkpt>
      <trkpt lat="48.59134" lon="2.11083">
        <ele>81</ele>
        <time>2011-04-15T08:02:36Z</time>
      </trkpt>
      <trkpt lat="48.59133" lon="2.11084">
        <ele>81</ele>
        <time>2011-04-15T08:02:37Z</time>
      </trkpt>
      <trkpt lat="48.59132" lon="2.11085">
        <ele>81</ele>
        <time>2011-04-15T08:02:38Z</time>
      </trkpt>
      <trkpt lat="48.5913" lon="2.11086">
        <ele>81</ele>
        <time>2011-04-15T08:02:39Z</time>
      </trkpt>
      <trkpt lat="48.59129" lon="2.11087">
        <ele>80</ele>
        <time>2011-04-15T08:02:40Z</time>
      </trkpt>
      <trkpt lat="48.59128" lon="2.11087">
        <ele>80</ele>
        <time>2011-04-15T08:02:41Z</time>
      </trkpt>
      <trkpt lat="48.59126" lon="2.11088">
        <ele>80</ele>
        <time>2011-04-15T08:02:42Z</time>
      </trkpt>
      <trkpt lat="48.59125" lon="2.11089">
        <ele>80</ele>
        <time>2011-04-15T08:02:43Z</time>
      </trkpt>
      <trkpt lat="48.59124" lon="2.11091">
        <ele>79</ele>
        <time>2011-04-15T08:02:44Z</time>
      </trkpt>
      <trkpt lat="48.59123" lon="2.11092">
        <ele>79</ele>
        <time>2011-04-15T08:02:45Z</time>
      </trkpt>
      <trkpt lat="48.59122" lon="2.11093">
        <ele>78</ele>
        <time>2011-04-15T08:02:46Z</time>
      </trkpt>
      <trkpt lat="48.5912" lon="2.11094">
        <ele>78</ele>
        <time>2011-04-15T08:02:47Z</time>
      </trkpt>
      <trkpt lat="48.59119" lon="2.11095">
        <ele>78</ele>
        <time>2011-04-15T08:02:48Z</time>
      </trkpt>
      <trkpt lat="48.59117" lon="2.11096">
        <ele>77</ele>
        <time>2011-04-15T08:02:49Z</time>
      </trkpt>
      <trkpt lat="48.59116" lon="2.11097">
        <ele>77</ele>
        <time>2011-04-15T08:02:50Z</time>
      </trkpt>
      <trkpt lat="48.59114" lon="2.11098">
        <ele>77</ele>
        <time>2011-04-15T08:02:51Z</time>
      </trkpt>
      <trkpt lat="48.59113" lon="2.11099">
        <ele>77</ele>
        <time>2011-04-15T08:02:52Z</time>
      </trkpt>
      <trkpt lat="48.59111" lon="2.111">
        <ele>77</ele>
        <time>2011-04-15T08:02:53Z</time>
      </trkpt>
      <trkpt lat="48.5911" lon="2.11101">
        <ele>77</ele>
        <time>2011-04-15T08:02:54Z</time>
      </trkpt>
      <trkpt lat="48.59109" lon="2.11102">
        <ele>76</ele>
        <time>2011-04-15T08:02:55Z</time>
      </trkpt>
      <trkpt lat="48.59107" lon="2.11104">
        <ele>76</ele>
        <time>2011-04-15T08:02:56Z</time>
      </trkpt>
      <trkpt lat="48.59106" lon="2.11105">
        <ele>76</ele>
        <time>2011-04-15T08:02:57Z</time>
      </trkpt>
      <trkpt lat="48.59104" lon="2.11106">
        <ele>76</ele>
        <time>2011-04-15T08:02:58Z</time>
      </trkpt>
      <trkpt lat="48.59103" lon="2.11107">
        <ele>76</ele>
        <time>2011-04-15T08:02:59Z</time>
      </trkpt>
      <trkpt lat="48.59101" lon="2.11108">
        <ele>76</ele>
        <time>2011-04-15T08:03:00Z</time>
      </trkpt>
      <trkpt lat="48.59099" lon="2.11109">
        <ele>76</ele>
        <time>2011-04-15T08:03:01Z</time>
      </trkpt>
      <trkpt lat="48.59098" lon="2.1111">
        <ele>76</ele>
        <time>2011-04-15T08:03:02Z</time>
      </trkpt>
      <trkpt lat="48.59096" lon="2.11111">
        <ele>76</ele>
        <time>2011-04-15T08:03:03Z</time>
      </trkpt>
      <trkpt lat="48.59094" lon="2.11112">
        <ele>76</ele>
        <time>2011-04-15T08:03:04Z</time>
      </trkpt>
      <trkpt lat="48.59093" lon="2.11114">
        <ele>76</ele>
        <time>2011-04-15T08:03:05Z</time>
      </trkpt>
      <trkpt lat="48.59091" lon="2.11115">
        <ele>76</ele>
        <time>2011-04-15T08:03:06Z</time>
      </trkpt>
      <trkpt lat="48.59089" lon="2.11117">
        <ele>76</ele>
        <time>2011-04-15T08:03:07Z</time>
      </trkpt>
      <trkpt lat="48.59088" lon="2.11118">
        <ele>76</ele>
        <time>2011-04-15T08:03:08Z</time>
      </trkpt>
      <trkpt lat="48.59087" lon="2.11119">
        <ele>76</ele>
        <time>2011-04-15T08:03:09Z</time>
      </trkpt>
      <trkpt lat="48.59085" lon="2.1112">
        <ele>76</ele>
        <time>2011-04-15T08:03:10Z</time>
      </trkpt>
      <trkpt lat="48.59084" lon="2.11121">
        <ele>76</ele>
        <time>2011-04-15T08:03:11Z</time>
      </trkpt>
      <trkpt lat="48.59082" lon="2.11122">
        <ele>76</ele>
        <time>2011-04-15T08:03:12Z</time>
      </trkpt>
      <trkpt lat="48.59081" lon="2.11123">
        <ele>76</ele>
        <time>2011-04-15T08:03:13Z</time>
      </trkpt>
      <trkpt lat="48.5908" lon="2.11125">
        <ele>76</ele>
        <time>2011-04-15T08:03:14Z</time>
      </trkpt>
      <trkpt lat="48.59078" lon="2.11125">
        <ele>76</ele>
        <time>2011-04-15T08:03:15Z</time>
      </trkpt>
      <trkpt lat="48.59077" lon="2.11126">
        <ele>76</ele>
        <time>2011-04-15T08:03:16Z</time>
      </trkpt>
      <trkpt lat="48.59076" lon="2.11127">
        <ele>76</ele>
        <time>2011-04-15T08:03:17Z</time>
      </trkpt>
      <trkpt lat="48.59074" lon="2.11128">
        <ele>76</ele>
        <time>2011-04-15T08:03:18Z</time>
      </trkpt>
      <trkpt lat="48.59073" lon="2.11129">
        <ele>76</ele>
        <time>2011-04-15T08:03:19Z</time>
      </trkpt>
      <trkpt lat="48.59071" lon="2.1113">
        <ele>76</ele>
        <time>2011-04-15T08:03:20Z</time>
      </trkpt>
      <trkpt lat="48.5907" lon="2.11131">
        <ele>76</ele>
        <time>2011-04-15T08:03:21Z</time>
      </trkpt>
      <trkpt lat="48.59068" lon="2.11132">
        <ele>75</ele>
        <time>2011-04-15T08:03:22Z</time>
      </trkpt>
      <trkpt lat="48.59067" lon="2.11133">
        <ele>75</ele>
        <time>2011-04-15T08:03:23Z</time>
      </trkpt>
      <trkpt lat="48.59066" lon="2.11134">
        <ele>75</ele>
        <time>2011-04-15T08:03:24Z</time>
      </trkpt>
      <trkpt lat="48.59064" lon="2.11134">
        <ele>75</ele>
        <time>2011-04-15T08:03:25Z</time>
      </trkpt>
      <trkpt lat="48.59063" lon="2.11135">
        <ele>74</ele>
        <time>2011-04-15T08:03:26Z</time>
      </trkpt>
      <trkpt lat="48.59061" lon="2.11136">
        <ele>74</ele>
        <time>2011-04-15T08:03:27Z</time>
      </trkpt>
      <trkpt lat="48.59059" lon="2.11136">
        <ele>73</ele>
        <time>2011-04-15T08:03:28Z</time>
      </trkpt>
      <trkpt lat="48.59058" lon="2.11137">
        <ele>73</ele>
        <time>2011-04-15T08:03:29Z</time>
      </trkpt>
      <trkpt lat="48.59056" lon="2.11138">
        <ele>73</ele>
        <time>2011-04-15T08:03:30Z</time>
      </trkpt>
      <trkpt lat="48.59054" lon="2.11139">
        <ele>73</ele>
        <time>2011-04-15T08:03:31Z</time>
      </trkpt>
      <trkpt lat="48.59053" lon="2.1114">
        <ele>73</ele>
        <time>2011-04-15T08:03:32Z</time>
      </trkpt>
      <trkpt lat="48.59051" lon="2.1114">
        <ele>73</ele>
        <time>2011-04-15T08:03:33Z</time>
      </trkpt>
      <trkpt lat="48.5905" lon="2.1114">
        <ele>73</ele>
        <time>2011-04-15T08:03:34Z</time>
      </trkpt>
      <trkpt lat="48.59048" lon="2.11141">
        <ele>72</ele>
        <time>2011-04-15T08:03:35Z</time>
      </trkpt>
      <trkpt lat="48.59046" lon="2.11141">
        <ele>72</ele>
        <time>2011-04-15T08:03:36Z</time>
      </trkpt>
      <trkpt lat="48.59045" lon="2.11142">
        <ele>72</ele>
        <time>2011-04-15T08:03:37Z</time>
      </trkpt>
      <trkpt lat="48.59043" lon="2.11142">
        <ele>72</ele>
        <time>2011-04-15T08:03:38Z</time>
      </trkpt>
      <trkpt lat="48.59042" lon="2.11142">
        <ele>72</ele>
        <time>2011-04-15T08:03:39Z</time>
      </trkpt>
      <trkpt lat="48.5904" lon="2.11143">
        <ele>72</ele>
        <time>2011-04-15T08:03:40Z</time>
      </trkpt>
      <trkpt lat="48.59039" lon="2.11143">
        <ele>72</ele>
        <time>2011-04-15T08:03:41Z</time>
      </trkpt>
      <trkpt lat="48.59037" lon="2.11144">
        <ele>72</ele>
        <time>2011-04-15T08:03:42Z</time>
      </trkpt>
      <trkpt lat="48.59035" lon="2.11144">
        <ele>72</ele>
        <time>2011-04-15T08:03:43Z</time>
      </trkpt>
      <trkpt lat="48.59033" lon="2.11144">
        <ele>72</ele>
        <time>2011-04-15T08:03:44Z</time>
      </trkpt>
      <trkpt lat="48.59032" lon="2.11145">
        <ele>72</ele>
        <time>2011-04-15T08:03:45Z</time>
      </trkpt>
      <trkpt lat="48.59031" lon="2.11145">
        <ele>72</ele>
        <time>2011-04-15T08:03:46Z</time>
      </trkpt>
      <trkpt lat="48.59029" lon="2.11146">
        <ele>72</ele>
        <time>2011-04-15T08:03:47Z</time>
      </trkpt>
      <trkpt lat="48.59027" lon="2.11146">
        <ele>72</ele>
        <time>2011-04-15T08:03:48Z</time>
      </trkpt>
      <trkpt lat="48.59026" lon="2.11147">
        <ele>72</ele>
        <time>2011-04-15T08:03:49Z</time>
      </trkpt>
      <trkpt lat="48.59025" lon="2.11147">
        <ele>72</ele>
        <time>2011-04-15T08:03:50Z</time>
      </trkpt>
      <trkpt lat="48.59024" lon="2.11147">
        <ele>72</ele>
        <time>2011-04-15T08:03:51Z</time>
      </trkpt>
      <trkpt lat="48.59022" lon="2.11147">
        <ele>72</ele>
        <time>2011-04-15T08:03:52Z</time>
      </trkpt>
      <trkpt lat="48.59021" lon="2.11147">
        <ele>72</ele>
        <time>2011-04-15T08:03:53Z</time>
      </trkpt>
      <trkpt lat="48.5902" lon="2.11148">
        <ele>72</ele>
        <time>2011-04-15T08:03:54Z</time>
      </trkpt>
      <trkpt lat="48.59018" lon="2.11148">
        <ele>72</ele>
        <time>2011-04-15T08:03:55Z</time>
      </trkpt>
      <trkpt lat="48.59017" lon="2.11148">
        <ele>72</ele>
        <time>2011-04-15T08:03:56Z</time>
      </trkpt>
      <trkpt lat="48.59016" lon="2.11148">
        <ele>72</ele>
        <time>2011-04-15T08:03:57Z</time>
      </trkpt>
      <trkpt lat="48.59014" lon="2.11149">
        <ele>72</ele>
        <time>2011-04-15T08:03:58Z</time>
      </trkpt>
      <trkpt lat="48.59013" lon="2.1115">
        <ele>72</ele>
        <time>2011-04-15T08:03:59Z</time>
      </trkpt>
      <trkpt lat="48.59012" lon="2.1115">
        <ele>72</ele>
        <time>2011-04-15T08:04:00Z</time>
      </trkpt>
      <trkpt lat="48.5901" lon="2.11151">
        <ele>72</ele>
        <time>2011-04-15T08:04:01Z</time>
      </trkpt>
      <trkpt lat="48.59008" lon="2.11152">
        <ele>72</ele>
        <time>2011-04-15T08:04:02Z</time>
      </trkpt>
      <trkpt lat="48.59007" lon="2.11152">
        <ele>71</ele>
        <time>2011-04-15T08:04:03Z</time>
      </trkpt>
      <trkpt lat="48.59005" lon="2.11153">
        <ele>71</ele>
        <time>2011-04-15T08:04:04Z</time>
      </trkpt>
      <trkpt lat="48.59003" lon="2.11153">
        <ele>71</ele>
        <time>2011-04-15T08:04:05Z</time>
      </trkpt>
      <trkpt lat="48.59001" lon="2.11153">
        <ele>71</ele>
        <time>2011-04-15T08:04:06Z</time>
      </trkpt>
      <trkpt lat="48.58999" lon="2.11153">
        <ele>71</ele>
        <time>2011-04-15T08:04:07Z</time>
      </trkpt>
      <trkpt lat="48.58998" lon="2.11153">
        <ele>71</ele>
        <time>2011-04-15T08:04:08Z</time>
      </trkpt>
      <trkpt lat="48.58996" lon="2.11153">
        <ele>71</ele>
        <time>2011-04-15T08:04:09Z</time>
      </trkpt>
      <trkpt lat="48.58995" lon="2.11154">
        <ele>71</ele>
        <time>2011-04-15T08:04:10Z</time>
      </trkpt>
      <trkpt lat="48.58993" lon="2.11155">
        <ele>71</ele>
        <time>2011-04-15T08:04:11Z</time>
      </trkpt>
      <trkpt lat="48.58992" lon="2.11157">
        <ele>71</ele>
        <time>2011-04-15T08:04:12Z</time>
      </trkpt>
      <trkpt lat="48.5899" lon="2.11158">
        <ele>71</ele>
        <time>2011-04-15T08:04:13Z</time>
      </trkpt>
      <trkpt lat="48.58989" lon="2.11158">
        <ele>70</ele>
        <time>2011-04-15T08:04:14Z</time>
      </trkpt>
      <trkpt lat="48.58987" lon="2.11159">
        <ele>70</ele>
        <time>2011-04-15T08:04:15Z</time>
      </trkpt>
      <trkpt lat="48.58986" lon="2.1116">
        <ele>70</ele>
        <time>2011-04-15T08:04:16Z</time>
      </trkpt>
      <trkpt lat="48.58984" lon="2.1116">
        <ele>70</ele>
        <time>2011-04-15T08:04:17Z</time>
      </trkpt>
      <trkpt lat="48.58982" lon="2.11161">
        <ele>70</ele>
        <time>2011-04-15T08:04:18Z</time>
      </trkpt>
      <trkpt lat="48.58981" lon="2.11161">
        <ele>70</ele>
        <time>2011-04-15T08:04:19Z</time>
      </trkpt>
      <trkpt lat="48.58979" lon="2.11162">
        <ele>69</ele>
        <time>2011-04-15T08:04:20Z</time>
      </trkpt>
      <trkpt lat="48.58977" lon="2.11163">
        <ele>69</ele>
        <time>2011-04-15T08:04:21Z</time>
      </trkpt>
      <trkpt lat="48.58976" lon="2.11164">
        <ele>69</ele>
        <time>2011-04-15T08:04:22Z</time>
      </trkpt>
      <trkpt lat="48.58974" lon="2.11164">
        <ele>69</ele>
        <time>2011-04-15T08:04:23Z</time>
      </trkpt>
      <trkpt lat="48.58972" lon="2.11164">
        <ele>69</ele>
        <time>2011-04-15T08:04:24Z</time>
      </trkpt>
      <trkpt lat="48.58971" lon="2.11164">
        <ele>69</ele>
        <time>2011-04-15T08:04:25Z</time>
      </trkpt>
      <trkpt lat="48.58969" lon="2.11165">
        <ele>69</ele>
        <time>2011-04-15T08:04:26Z</time>
      </trkpt>
      <trkpt lat="48.58968" lon="2.11165">
        <ele>69</ele>
        <time>2011-04-15T08:04:27Z</time>
      </trkpt>
      <trkpt lat="48.58966" lon="2.11165">
        <ele>69</ele>
        <time>2011-04-15T08:04:28Z</time>
      </trkpt>
      <trkpt lat="48.58965" lon="2.11166">
        <ele>69</ele>
        <time>2011-04-15T08:04:29Z</time>
      </trkpt>
      <trkpt lat="48.58963" lon="2.11166">
        <ele>69</ele>
        <time>2011-04-15T08:04:30Z</time>
      </trkpt>
      <trkpt lat="48.58962" lon="2.11167">
        <ele>69</ele>
        <time>2011-04-15T08:04:31Z</time>
      </trkpt>
      <trkpt lat="48.5896" lon="2.11167">
        <ele>69</ele>
        <time>2011-04-15T08:04:32Z</time>
      </trkpt>
      <trkpt lat="48.58959" lon="2.11167">
        <ele>69</ele>
        <time>2011-04-15T08:04:33Z</time>
      </trkpt>
      <trkpt lat="48.58957" lon="2.11168">
        <ele>69</ele>
        <time>2011-04-15T08:04:34Z</time>
      </trkpt>
      <trkpt lat="48.58955" lon="2.11168">
        <ele>69</ele>
        <time>2011-04-15T08:04:35Z</time>
      </trkpt>
      <trkpt lat="48.58954" lon="2.11169">
        <ele>69</ele>
        <time>2011-04-15T08:04:36Z</time>
      </trkpt>
      <trkpt lat="48.58953" lon="2.11169">
        <ele>69</ele>
        <time>2011-04-15T08:04:37Z</time>
      </trkpt>
      <trkpt lat="48.58951" lon="2.1117">
        <ele>69</ele>
        <time>2011-04-15T08:04:38Z</time>
      </trkpt>
      <trkpt lat="48.5895" lon="2.1117">
        <ele>69</ele>
        <time>2011-04-15T08:04:39Z</time>
      </trkpt>
      <trkpt lat="48.58948" lon="2.1117">
        <ele>69</ele>
        <time>2011-04-15T08:04:40Z</time>
      </trkpt>
      <trkpt lat="48.58947" lon="2.11171">
        <ele>69</ele>
        <time>2011-04-15T08:04:41Z</time>
      </trkpt>
      <trkpt lat="48.58946" lon="2.11172">
        <ele>69</ele>
        <time>2011-04-15T08:04:42Z</time>
      </trkpt>
      <trkpt lat="48.58944" lon="2.11174">
        <ele>69</ele>
        <time>2011-04-15T08:04:43Z</time>
      </trkpt>
      <trkpt lat="48.58943" lon="2.11174">
        <ele>69</ele>
        <time>2011-04-15T08:04:44Z</time>
      </trkpt>
      <trkpt lat="48.58941" lon="2.11175">
        <ele>69</ele>
        <time>2011-04-15T08:04:45Z</time>
      </trkpt>
      <trkpt lat="48.58939" lon="2.11175">
        <ele>69</ele>
        <time>2011-04-15T08:04:46Z</time>
      </trkpt>
      <trkpt lat="48.58938" lon="2.11176">
        <ele>69</ele>
        <time>2011-04-15T08:04:47Z</time>
      </trkpt>
      <trkpt lat="48.58936" lon="2.11176">
        <ele>69</ele>
        <time>2011-04-15T08:04:48Z</time>
      </trkpt>
      <trkpt lat="48.58935" lon="2.11177">
        <ele>69</ele>
        <time>2011-04-15T08:04:49Z</time>
      </trkpt>
      <trkpt lat="48.58934" lon="2.11178">
        <ele>69</ele>
        <time>2011-04-15T08:04:50Z</time>
      </trkpt>
      <trkpt lat="48.58932" lon="2.11178">
        <ele>69</ele>
        <time>2011-04-15T08:04:51Z</time>
      </trkpt>
      <trkpt lat="48.58931" lon="2.11178">
        <ele>69</ele>
        <time>2011-04-15T08:04:52Z</time>
      </trkpt>
      <trkpt lat="48.58929" lon="2.11179">
        <ele>69</ele>
        <time>2011-04-15T08:04:53Z</time>
      </trkpt>
      <trkpt lat="48.58928" lon="2.11179">
        <ele>69</ele>
        <time>2011-04-15T08:04:54Z</time>
      </trkpt>
      <trkpt lat="48.58926" lon="2.11179">
        <ele>69</ele>
        <time>2011-04-15T08:04:55Z</time>
      </trkpt>
      <trkpt lat="48.58925" lon="2.1118">
        <ele>69</ele>
        <time>2011-04-15T08:04:56Z</time>
      </trkpt>
      <trkpt lat="48.58923" lon="2.11181">
        <ele>69</ele>
        <time>2011-04-15T08:04:57Z</time>
      </trkpt>
      <trkpt lat="48.58921" lon="2.11182">
        <ele>69</ele>
        <time>2011-04-15T08:04:58Z</time>
      </trkpt>
      <trkpt lat="48.5892" lon="2.11183">
        <ele>69</ele>
        <time>2011-04-15T08:04:59Z</time>
      </trkpt>
      <trkpt lat="48.58918" lon="2.11183">
        <ele>69</ele>
        <time>2011-04-15T08:05:00Z</time>
      </trkpt>
      <trkpt lat="48.58916" lon="2.11184">
        <ele>69</ele>
        <time>2011-04-15T08:05:01Z</time>
      </trkpt>
      <trkpt lat="48.58914" lon="2.11185">
        <ele>69</ele>
        <time>2011-04-15T08:05:02Z</time>
      </trkpt>
      <trkpt lat="48.58913" lon="2.11185">
        <ele>69</ele>
        <time>2011-04-15T08:05:03Z</time>
      </trkpt>
      <trkpt lat="48.58911" lon="2.11186">
        <ele>69</ele>
        <time>2011-04-15T08:05:04Z</time>
      </trkpt>
      <trkpt lat="48.5891" lon="2.11188">
        <ele>69</ele>
        <time>2011-04-15T08:05:05Z</time>
      </trkpt>
      <trkpt lat="48.58908" lon="2.11188">
        <ele>69</ele>
        <time>2011-04-15T08:05:06Z</time>
      </trkpt>
      <trkpt lat="48.58906" lon="2.11188">
        <ele>69</ele>
        <time>2011-04-15T08:05:07Z</time>
      </trkpt>
      <trkpt lat="48.58904" lon="2.11188">
        <ele>69</ele>
        <time>2011-04-15T08:05:08Z</time>
      </trkpt>
      <trkpt lat="48.58903" lon="2.11188">
        <ele>69</ele>
        <time>2011-04-15T08:05:09Z</time>
      </trkpt>
      <trkpt lat="48.58901" lon="2.11188">
        <ele>69</ele>
        <time>2011-04-15T08:05:10Z</time>
      </trkpt>
      <trkpt lat="48.589" lon="2.11189">
        <ele>69</ele>
        <time>2011-04-15T08:05:11Z</time>
      </trkpt>
      <trkpt lat="48.58898" lon="2.11189">
        <ele>69</ele>
        <time>2011-04-15T08:05:12Z</time>
      </trkpt>
      <trkpt lat="48.58897" lon="2.11189">
        <ele>69</ele>
        <time>2011-04-15T08:05:13Z</time>
      </trkpt>
      <trkpt lat="48.58895" lon="2.11189">
        <ele>69</ele>
        <time>2011-04-15T08:05:14Z</time>
      </trkpt>
      <trkpt lat="48.58893" lon="2.1119">
        <ele>69</ele>
        <time>2011-04-15T08:05:15Z</time>
      </trkpt>
      <trkpt lat="48.58891" lon="2.11191">
        <ele>69</ele>
        <time>2011-04-15T08:05:16Z</time>
      </trkpt>
      <trkpt lat="48.5889" lon="2.11191">
        <ele>69</ele>
        <time>2011-04-15T08:05:17Z</time>
      </trkpt>
      <trkpt lat="48.58888" lon="2.11192">
        <ele>69</ele>
        <time>2011-04-15T08:05:18Z</time>
      </trkpt>
      <trkpt lat="48.58886" lon="2.11192">
        <ele>69</ele>
        <time>2011-04-15T08:05:19Z</time>
      </trkpt>
      <trkpt lat="48.58885" lon="2.11193">
        <ele>69</ele>
        <time>2011-04-15T08:05:20Z</time>
      </trkpt>
      <trkpt lat="48.58883" lon="2.11193">
        <ele>69</ele>
        <time>2011-04-15T08:05:21Z</time>
      </trkpt>
      <trkpt lat="48.58882" lon="2.11194">
        <ele>69</ele>
        <time>2011-04-15T08:05:22Z</time>
      </trkpt>
      <trkpt lat="48.5888" lon="2.11195">
        <ele>69</ele>
        <time>2011-04-15T08:05:23Z</time>
      </trkpt>
      <trkpt lat="48.58879" lon="2.11196">
        <ele>69</ele>
        <time>2011-04-15T08:05:24Z</time>
      </trkpt>
      <trkpt lat="48.58877" lon="2.11196">
        <ele>69</ele>
        <time>2011-04-15T08:05:25Z</time>
      </trkpt>
      <trkpt lat="48.58876" lon="2.11196">
        <ele>69</ele>
        <time>2011-04-15T08:05:26Z</time>
      </trkpt>
      <trkpt lat="48.58874" lon="2.11197">
        <ele>69</ele>
        <time>2011-04-15T08:05:27Z</time>
      </trkpt>
      <trkpt lat="48.58873" lon="2.11197">
        <ele>69</ele>
        <time>2011-04-15T08:05:28Z</time>
      </trkpt>
      <trkpt lat="48.58871" lon="2.11198">
        <ele>69</ele>
        <time>2011-04-15T08:05:29Z</time>
      </trkpt>
      <trkpt lat="48.5887" lon="2.11199">
        <ele>69</ele>
        <time>2011-04-15T08:05:30Z</time>
      </trkpt>
      <trkpt lat="48.58869" lon="2.112">
        <ele>69</ele>
        <time>2011-04-15T08:05:31Z</time>
      </trkpt>
      <trkpt lat="48.58868" lon="2.11201">
        <ele>69</ele>
        <time>2011-04-15T08:05:32Z</time>
      </trkpt>
      <trkpt lat="48.58866" lon="2.11201">
        <ele>69</ele>
        <time>2011-04-15T08:05:33Z</time>
      </trkpt>
      <trkpt lat="48.58865" lon="2.11202">
        <ele>69</ele>
        <time>2011-04-15T08:05:34Z</time>
      </trkpt>
      <trkpt lat="48.58863" lon="2.11204">
        <ele>68</ele>
        <time>2011-04-15T08:05:35Z</time>
      </trkpt>
      <trkpt lat="48.58862" lon="2.11205">
        <ele>68</ele>
        <time>2011-04-15T08:05:36Z</time>
      </trkpt>
      <trkpt lat="48.5886" lon="2.11206">
        <ele>68</ele>
        <time>2011-04-15T08:05:37Z</time>
      </trkpt>
      <trkpt lat="48.58859" lon="2.11208">
        <ele>68</ele>
        <time>2011-04-15T08:05:38Z</time>
      </trkpt>
      <trkpt lat="48.58858" lon="2.11209">
        <ele>68</ele>
        <time>2011-04-15T08:05:39Z</time>
      </trkpt>
      <trkpt lat="48.58856" lon="2.1121">
        <ele>68</ele>
        <time>2011-04-15T08:05:40Z</time>
      </trkpt>
      <trkpt lat="48.58855" lon="2.11212">
        <ele>67</ele>
        <time>2011-04-15T08:05:41Z</time>
      </trkpt>
      <trkpt lat="48.58853" lon="2.11214">
        <ele>67</ele>
        <time>2011-04-15T08:05:42Z</time>
      </trkpt>
      <trkpt lat="48.58852" lon="2.11215">
        <ele>67</ele>
        <time>2011-04-15T08:05:43Z</time>
      </trkpt>
      <trkpt lat="48.58851" lon="2.11216">
        <ele>67</ele>
        <time>2011-04-15T08:05:44Z</time>
      </trkpt>
      <trkpt lat="48.58849" lon="2.11217">
        <ele>67</ele>
        <time>2011-04-15T08:05:45Z</time>
      </trkpt>
      <trkpt lat="48.58848" lon="2.11218">
        <ele>67</ele>
        <time>2011-04-15T08:05:46Z</time>
      </trkpt>
      <trkpt lat="48.58846" lon="2.1122">
        <ele>67</ele>
        <time>2011-04-15T08:05:47Z</time>
      </trkpt>
      <trkpt lat="48.58845" lon="2.11221">
        <ele>67</ele>
        <time>2011-04-15T08:05:48Z</time>
      </trkpt>
      <trkpt lat="48.58844" lon="2.11222">
        <ele>67</ele>
        <time>2011-04-15T08:05:49Z</time>
      </trkpt>
      <trkpt lat="48.58842" lon="2.11224">
        <ele>67</ele>
        <time>2011-04-15T08:05:50Z</time>
      </trkpt>
      <trkpt lat="48.58841" lon="2.11225">
        <ele>67</ele>
        <time>2011-04-15T08:05:51Z</time>
      </trkpt>
      <trkpt lat="48.5884" lon="2.11225">
        <ele>67</ele>
        <time>2011-04-15T08:05:52Z</time>
      </trkpt>
      <trkpt lat="48.58838" lon="2.11226">
        <ele>67</ele>
        <time>2011-04-15T08:05:53Z</time>
      </trkpt>
      <trkpt lat="48.58837" lon="2.11225">
        <ele>67</ele>
        <time>2011-04-15T08:05:54Z</time>
      </trkpt>
      <trkpt lat="48.58836" lon="2.11223">
        <ele>67</ele>
        <time>2011-04-15T08:05:55Z</time>
      </trkpt>
      <trkpt lat="48.58835" lon="2.11221">
        <ele>67</ele>
        <time>2011-04-15T08:05:56Z</time>
      </trkpt>
      <trkpt lat="48.58834" lon="2.11219">
        <ele>67</ele>
        <time>2011-04-15T08:05:57Z</time>
      </trkpt>
      <trkpt lat="48.58833" lon="2.11217">
        <ele>67</ele>
        <time>2011-04-15T08:05:58Z</time>
      </trkpt>
      <trkpt lat="48.58831" lon="2.11216">
        <ele>67</ele>
        <time>2011-04-15T08:05:59Z</time>
      </trkpt>
      <trkpt lat="48.5883" lon="2.11214">
        <ele>67</ele>
        <time>2011-04-15T08:06:00Z</time>
      </trkpt>
      <trkpt lat="48.58829" lon="2.11212">
        <ele>67</ele>
        <time>2011-04-15T08:06:01Z</time>
      </trkpt>
      <trkpt lat="48.58828" lon="2.1121">
        <ele>67</ele>
        <time>2011-04-15T08:06:02Z</time>
      </trkpt>
      <trkpt lat="48.58827" lon="2.11208">
        <ele>67</ele>
        <time>2011-04-15T08:06:03Z</time>
      </trkpt>
      <trkpt lat="48.58826" lon="2.11206">
        <ele>67</ele>
        <time>2011-04-15T08:06:04Z</time>
      </trkpt>
      <trkpt lat="48.58825" lon="2.11204">
        <ele>67</ele>
        <time>2011-04-15T08:06:05Z</time>
      </trkpt>
      <trkpt lat="48.58825" lon="2.11202">
        <ele>67</ele>
        <time>2011-04-15T08:06:06Z</time>
      </trkpt>
      <trkpt lat="48.58824" lon="2.112">
        <ele>67</ele>
        <time>2011-04-15T08:06:07Z</time>
      </trkpt>
      <trkpt lat="48.58823" lon="2.11198">
        <ele>67</ele>
        <time>2011-04-15T08:06:08Z</time>
      </trkpt>
      <trkpt lat="48.58821" lon="2.11196">
        <ele>67</ele>
        <time>2011-04-15T08:06:09Z</time>
      </trkpt>
      <trkpt lat="48.5882" lon="2.11194">
        <ele>66</ele>
        <time>2011-04-15T08:06:10Z</time>
      </trkpt>
      <trkpt lat="48.58819" lon="2.11192">
        <ele>66</ele>
        <time>2011-04-15T08:06:11Z</time>
      </trkpt>
      <trkpt lat="48.58818" lon="2.11191">
        <ele>66</ele>
        <time>2011-04-15T08:06:12Z</time>
      </trkpt>
      <trkpt lat="48.58817" lon="2.11189">
        <ele>66</ele>
        <time>2011-04-15T08:06:13Z</time>
      </trkpt>
      <trkpt lat="48.58816" lon="2.11187">
        <ele>66</ele>
        <time>2011-04-15T08:06:14Z</time>
      </trkpt>
      <trkpt lat="48.58814" lon="2.11186">
        <ele>66</ele>
        <time>2011-04-15T08:06:15Z</time>
      </trkpt>
      <trkpt lat="48.58813" lon="2.11184">
        <ele>66</ele>
        <time>2011-04-15T08:06:16Z</time>
      </trkpt>
      <trkpt lat="48.58812" lon="2.11183">
        <ele>66</ele>
        <time>2011-04-15T08:06:17Z</time>
      </trkpt>
      <trkpt lat="48.5881" lon="2.11181">
        <ele>66</ele>
        <time>2011-04-15T08:06:18Z</time>
      </trkpt>
      <trkpt lat="48.58809" lon="2.1118">
        <ele>66</ele>
        <time>2011-04-15T08:06:19Z</time>
      </trkpt>
      <trkpt lat="48.58808" lon="2.11178">
        <ele>66</ele>
        <time>2011-04-15T08:06:20Z</time>
      </trkpt>
      <trkpt lat="48.58807" lon="2.11177">
        <ele>66</ele>
        <time>2011-04-15T08:06:21Z</time>
      </trkpt>
      <trkpt lat="48.58805" lon="2.11176">
        <ele>66</ele>
        <time>2011-04-15T08:06:22Z</time>
      </trkpt>
      <trkpt lat="48.58804" lon="2.11174">
        <ele>66</ele>
        <time>2011-04-15T08:06:23Z</time>
      </trkpt>
      <trkpt lat="48.58803" lon="2.11173">
        <ele>66</ele>
        <time>2011-04-15T08:06:24Z</time>
      </trkpt>
      <trkpt lat="48.58802" lon="2.11172">
        <ele>66</ele>
        <time>2011-04-15T08:06:25Z</time>
      </trkpt>
      <trkpt lat="48.588" lon="2.11171">
        <ele>66</ele>
        <time>2011-04-15T08:06:26Z</time>
      </trkpt>
      <trkpt lat="48.58799" lon="2.11169">
        <ele>66</ele>
        <time>2011-04-15T08:06:27Z</time>
      </trkpt>
      <trkpt lat="48.58797" lon="2.11168">
        <ele>66</ele>
        <time>2011-04-15T08:06:28Z</time>
      </trkpt>
      <trkpt lat="48.58796" lon="2.11167">
        <ele>66</ele>
        <time>2011-04-15T08:06:29Z</time>
      </trkpt>
      <trkpt lat="48.58795" lon="2.11166">
        <ele>66</ele>
        <time>2011-04-15T08:06:30Z</time>
      </trkpt>
      <trkpt lat="48.58793" lon="2.11164">
        <ele>66</ele>
        <time>2011-04-15T08:06:31Z</time>
      </trkpt>
      <trkpt lat="48.58792" lon="2.11163">
        <ele>66</ele>
        <time>2011-04-15T08:06:32Z</time>
      </trkpt>
      <trkpt lat="48.58791" lon="2.11162">
        <ele>66</ele>
        <time>2011-04-15T08:06:33Z</time>
      </trkpt>
      <trkpt lat="48.5879" lon="2.11161">
        <ele>66</ele>
        <time>2011-04-15T08:06:34Z</time>
      </trkpt>
      <trkpt lat="48.58788" lon="2.1116">
        <ele>66</ele>
        <time>2011-04-15T08:06:35Z</time>
      </trkpt>
      <trkpt lat="48.58787" lon="2.11159">
        <ele>66</ele>
        <time>2011-04-15T08:06:36Z</time>
      </trkpt>
      <trkpt lat="48.58786" lon="2.11158">
        <ele>66</ele>
        <time>2011-04-15T08:06:37Z</time>
      </trkpt>
      <trkpt lat="48.58784" lon="2.11157">
        <ele>66</ele>
        <time>2011-04-15T08:06:38Z</time>
      </trkpt>
      <trkpt lat="48.58783" lon="2.11156">
        <ele>66</ele>
        <time>2011-04-15T08:06:39Z</time>
      </trkpt>
      <trkpt lat="48.58781" lon="2.11155">
        <ele>66</ele>
        <time>2011-04-15T08:06:40Z</time>
      </trkpt>
      <trkpt lat="48.5878" lon="2.11154">
        <ele>66</ele>
        <time>2011-04-15T08:06:41Z</time>
      </trkpt>
      <trkpt lat="48.58779" lon="2.11153">
        <ele>66</ele>
        <time>2011-04-15T08:06:42Z</time>
      </trkpt>
      <trkpt lat="48.58777" lon="2.11152">
        <ele>66</ele>
        <time>2011-04-15T08:06:43Z</time>
      </trkpt>
      <trkpt lat="48.58776" lon="2.1115">
        <ele>66</ele>
        <time>2011-04-15T08:06:44Z</time>
      </trkpt>
      <trkpt lat="48.58774" lon="2.11149">
        <ele>66</ele>
        <time>2011-04-15T08:06:45Z</time>
      </trkpt>
      <trkpt lat="48.58773" lon="2.11149">
        <ele>66</ele>
        <time>2011-04-15T08:06:46Z</time>
      </trkpt>
      <trkpt lat="48.58772" lon="2.11148">
        <ele>66</ele>
        <time>2011-04-15T08:06:47Z</time>
      </trkpt>
      <trkpt lat="48.58771" lon="2.11147">
        <ele>66</ele>
        <time>2011-04-15T08:06:48Z</time>
      </trkpt>
      <trkpt lat="48.58769" lon="2.11146">
        <ele>66</ele>
        <time>2011-04-15T08:06:49Z</time>
      </trkpt>
      <trkpt lat="48.58768" lon="2.11145">
        <ele>66</ele>
        <time>2011-04-15T08:06:50Z</time>
      </trkpt>
      <trkpt lat="48.58767" lon="2.11144">
        <ele>66</ele>
        <time>2011-04-15T08:06:51Z</time>
      </trkpt>
      <trkpt lat="48.58765" lon="2.11143">
        <ele>66</ele>
        <time>2011-04-15T08:06:52Z</time>
      </trkpt>
      <trkpt lat="48.58764" lon="2.11142">
        <ele>66</ele>
        <time>2011-04-15T08:06:53Z</time>
      </trkpt>
      <trkpt lat="48.58763" lon="2.11141">
        <ele>66</ele>
        <time>2011-04-15T08:06:54Z</time>
      </trkpt>
      <trkpt lat="48.58761" lon="2.1114">
        <ele>65</ele>
        <time>2011-04-15T08:06:55Z</time>
      </trkpt>
      <trkpt lat="48.5876" lon="2.11139">
        <ele>65</ele>
        <time>2011-04-15T08:06:56Z</time>
      </trkpt>
      <trkpt lat="48.58759" lon="2.11138">
        <ele>65</ele>
        <time>2011-04-15T08:06:57Z</time>
      </trkpt>
      <trkpt lat="48.58758" lon="2.11137">
        <ele>64</ele>
        <time>2011-04-15T08:06:58Z</time>
      </trkpt>
      <trkpt lat="48.58756" lon="2.11136">
        <ele>64</ele>
        <time>2011-04-15T08:06:59Z</time>
      </trkpt>
      <trkpt lat="48.58755" lon="2.11135">
        <ele>64</ele>
        <time>2011-04-15T08:07:00Z</time>
      </trkpt>
      <trkpt lat="48.58754" lon="2.11135">
        <ele>64</ele>
        <time>2011-04-15T08:07:01Z</time>
      </trkpt>
      <trkpt lat="48.58752" lon="2.11134">
        <ele>64</ele>
        <time>2011-04-15T08:07:02Z</time>
      </trkpt>
      <trkpt lat="48.5875" lon="2.11133">
        <ele>64</ele>
        <time>2011-04-15T08:07:03Z</time>
      </trkpt>
      <trkpt lat="48.58749" lon="2.11132">
        <ele>64</ele>
        <time>2011-04-15T08:07:04Z</time>
      </trkpt>
      <trkpt lat="48.58747" lon="2.11131">
        <ele>64</ele>
        <time>2011-04-15T08:07:05Z</time>
      </trkpt>
      <trkpt lat="48.58746" lon="2.11131">
        <ele>64</ele>
        <time>2011-04-15T08:07:06Z</time>
      </trkpt>
      <trkpt lat="48.58744" lon="2.1113">
        <ele>64</ele>
        <time>2011-04-15T08:07:07Z</time>
      </trkpt>
      <trkpt lat="48.58743" lon="2.1113">
        <ele>64</ele>
        <time>2011-04-15T08:07:08Z</time>
      </trkpt>
      <trkpt lat="48.58742" lon="2.11129">
        <ele>64</ele>
        <time>2011-04-15T08:07:09Z</time>
      </trkpt>
      <trkpt lat="48.58741" lon="2.11128">
        <ele>64</ele>
        <time>2011-04-15T08:07:10Z</time>
      </trkpt>
      <trkpt lat="48.58739" lon="2.11127">
        <ele>64</ele>
        <time>2011-04-15T08:07:11Z</time>
      </trkpt>
      <trkpt lat="48.58738" lon="2.11127">
        <ele>64</ele>
        <time>2011-04-15T08:07:12Z</time>
      </trkpt>
      <trkpt lat="48.58737" lon="2.11126">
        <ele>64</ele>
        <time>2011-04-15T08:07:13Z</time>
      </trkpt>
      <trkpt lat="48.58735" lon="2.11124">
        <ele>64</ele>
        <time>2011-04-15T08:07:15Z</time>
      </trkpt>
      <trkpt lat="48.58733" lon="2.11123">
        <ele>64</ele>
        <time>2011-04-15T08:07:17Z</time>
      </trkpt>
      <trkpt lat="48.58731" lon="2.11122">
        <ele>64</ele>
        <time>2011-04-15T08:07:19Z</time>
      </trkpt>
      <trkpt lat="48.58729" lon="2.11121">
        <ele>64</ele>
        <time>2011-04-15T08:07:20Z</time>
      </trkpt>
      <trkpt lat="48.58728" lon="2.1112">
        <ele>64</ele>
        <time>2011-04-15T08:07:21Z</time>
      </trkpt>
      <trkpt lat="48.58727" lon="2.11119">
        <ele>64</ele>
        <time>2011-04-15T08:07:22Z</time>
      </trkpt>
      <trkpt lat="48.58726" lon="2.11119">
        <ele>64</ele>
        <time>2011-04-15T08:07:23Z</time>
      </trkpt>
      <trkpt lat="48.58724" lon="2.11118">
        <ele>64</ele>
        <time>2011-04-15T08:07:25Z</time>
      </trkpt>
      <trkpt lat="48.58722" lon="2.11117">
        <ele>64</ele>
        <time>2011-04-15T08:07:27Z</time>
      </trkpt>
      <trkpt lat="48.5872" lon="2.11116">
        <ele>64</ele>
        <time>2011-04-15T08:07:29Z</time>
      </trkpt>
      <trkpt lat="48.58719" lon="2.11115">
        <ele>64</ele>
        <time>2011-04-15T08:07:31Z</time>
      </trkpt>
      <trkpt lat="48.58717" lon="2.11114">
        <ele>64</ele>
        <time>2011-04-15T08:07:52Z</time>
      </trkpt>
      <trkpt lat="48.58716" lon="2.11112">
        <ele>64</ele>
        <time>2011-04-15T08:07:53Z</time>
      </trkpt>
      <trkpt lat="48.58714" lon="2.11111">
        <ele>64</ele>
        <time>2011-04-15T08:07:54Z</time>
      </trkpt>
      <trkpt lat="48.58713" lon="2.11111">
        <ele>64</ele>
        <time>2011-04-15T08:07:55Z</time>
      </trkpt>
      <trkpt lat="48.58711" lon="2.1111">
        <ele>64</ele>
        <time>2011-04-15T08:07:56Z</time>
      </trkpt>
      <trkpt lat="48.5871" lon="2.1111">
        <ele>64</ele>
        <time>2011-04-15T08:07:57Z</time>
      </trkpt>
      <trkpt lat="48.58708" lon="2.11109">
        <ele>64</ele>
        <time>2011-04-15T08:07:58Z</time>
      </trkpt>
      <trkpt lat="48.58707" lon="2.11109">
        <ele>64</ele>
        <time>2011-04-15T08:07:59Z</time>
      </trkpt>
      <trkpt lat="48.58706" lon="2.11108">
        <ele>64</ele>
        <time>2011-04-15T08:08:00Z</time>
      </trkpt>
      <trkpt lat="48.58704" lon="2.11107">
        <ele>64</ele>
        <time>2011-04-15T08:08:02Z</time>
      </trkpt>
      <trkpt lat="48.58703" lon="2.11106">
        <ele>64</ele>
        <time>2011-04-15T08:08:03Z</time>
      </trkpt>
      <trkpt lat="48.58701" lon="2.11106">
        <ele>64</ele>
        <time>2011-04-15T08:08:04Z</time>
      </trkpt>
      <trkpt lat="48.587" lon="2.11105">
        <ele>64</ele>
        <time>2011-04-15T08:08:05Z</time>
      </trkpt>
      <trkpt lat="48.58699" lon="2.11104">
        <ele>64</ele>
        <time>2011-04-15T08:08:06Z</time>
      </trkpt>
      <trkpt lat="48.58697" lon="2.11103">
        <ele>64</ele>
        <time>2011-04-15T08:08:07Z</time>
      </trkpt>
      <trkpt lat="48.58696" lon="2.11103">
        <ele>64</ele>
        <time>2011-04-15T08:08:08Z</time>
      </trkpt>
      <trkpt lat="48.58695" lon="2.11102">
        <ele>64</ele>
        <time>2011-04-15T08:08:09Z</time>
      </trkpt>
      <trkpt lat="48.58693" lon="2.11102">
        <ele>64</ele>
        <time>2011-04-15T08:08:10Z</time>
      </trkpt>
      <trkpt lat="48.58692" lon="2.11101">
        <ele>64</ele>
        <time>2011-04-15T08:08:11Z</time>
      </trkpt>
      <trkpt lat="48.58691" lon="2.111">
        <ele>64</ele>
        <time>2011-04-15T08:08:12Z</time>
      </trkpt>
      <trkpt lat="48.5869" lon="2.11099">
        <ele>64</ele>
        <time>2011-04-15T08:08:13Z</time>
      </trkpt>
      <trkpt lat="48.58688" lon="2.11098">
        <ele>64</ele>
        <time>2011-04-15T08:08:14Z</time>
      </trkpt>
      <trkpt lat="48.58687" lon="2.11097">
        <ele>64</ele>
        <time>2011-04-15T08:08:15Z</time>
      </trkpt>
      <trkpt lat="48.58686" lon="2.11097">
        <ele>64</ele>
        <time>2011-04-15T08:08:16Z</time>
      </trkpt>
      <trkpt lat="48.58685" lon="2.11096">
        <ele>64</ele>
        <time>2011-04-15T08:08:17Z</time>
      </trkpt>
      <trkpt lat="48.58684" lon="2.11096">
        <ele>64</ele>
        <time>2011-04-15T08:08:18Z</time>
      </trkpt>
      <trkpt lat="48.58682" lon="2.11095">
        <ele>64</ele>
        <time>2011-04-15T08:08:19Z</time>
      </trkpt>
      <trkpt lat="48.58681" lon="2.11095">
        <ele>64</ele>
        <time>2011-04-15T08:08:20Z</time>
      </trkpt>
      <trkpt lat="48.5868" lon="2.11094">
        <ele>64</ele>
        <time>2011-04-15T08:08:21Z</time>
      </trkpt>
      <trkpt lat="48.58678" lon="2.11093">
        <ele>64</ele>
        <time>2011-04-15T08:08:22Z</time>
      </trkpt>
      <trkpt lat="48.58677" lon="2.11092">
        <ele>64</ele>
        <time>2011-04-15T08:08:23Z</time>
      </trkpt>
      <trkpt lat="48.58676" lon="2.11092">
        <ele>64</ele>
        <time>2011-04-15T08:08:24Z</time>
      </trkpt>
      <trkpt lat="48.58673" lon="2.11091">
        <ele>64</ele>
        <time>2011-04-15T08:08:26Z</time>
      </trkpt>
      <trkpt lat="48.58672" lon="2.11091">
        <ele>64</ele>
        <time>2011-04-15T08:08:27Z</time>
      </trkpt>
      <trkpt lat="48.58671" lon="2.1109">
        <ele>64</ele>
        <time>2011-04-15T08:08:28Z</time>
      </trkpt>
      <trkpt lat="48.58669" lon="2.11089">
        <ele>64</ele>
        <time>2011-04-15T08:08:29Z</time>
      </trkpt>
      <trkpt lat="48.58667" lon="2.11088">
        <ele>64</ele>
        <time>2011-04-15T08:08:30Z</time>
      </trkpt>
      <trkpt lat="48.58666" lon="2.11087">
        <ele>64</ele>
        <time>2011-04-15T08:08:31Z</time>
      </trkpt>
      <trkpt lat="48.58665" lon="2.11086">
        <ele>64</ele>
        <time>2011-04-15T08:08:32Z</time>
      </trkpt>
      <trkpt lat="48.58663" lon="2.11085">
        <ele>64</ele>
        <time>2011-04-15T08:08:33Z</time>
      </trkpt>
      <trkpt lat="48.58661" lon="2.11084">
        <ele>64</ele>
        <time>2011-04-15T08:08:34Z</time>
      </trkpt>
      <trkpt lat="48.5866" lon="2.11083">
        <ele>64</ele>
        <time>2011-04-15T08:08:35Z</time>
      </trkpt>
      <trkpt lat="48.58658" lon="2.11082">
        <ele>64</ele>
        <time>2011-04-15T08:08:36Z</time>
      </trkpt>
      <trkpt lat="48.58656" lon="2.11081">
        <ele>64</ele>
        <time>2011-04-15T08:08:37Z</time>
      </trkpt>
      <trkpt lat="48.58655" lon="2.1108">
        <ele>64</ele>
        <time>2011-04-15T08:08:38Z</time>
      </trkpt>
      <trkpt lat="48.58654" lon="2.11079">
        <ele>64</ele>
        <time>2011-04-15T08:08:39Z</time>
      </trkpt>
      <trkpt lat="48.58653" lon="2.11078">
        <ele>64</ele>
        <time>2011-04-15T08:08:40Z</time>
      </trkpt>
      <trkpt lat="48.58651" lon="2.11077">
        <ele>64</ele>
        <time>2011-04-15T08:08:41Z</time>
      </trkpt>
      <trkpt lat="48.5865" lon="2.11076">
        <ele>64</ele>
        <time>2011-04-15T08:08:42Z</time>
      </trkpt>
      <trkpt lat="48.58648" lon="2.11074">
        <ele>63</ele>
        <time>2011-04-15T08:08:43Z</time>
      </trkpt>
      <trkpt lat="48.58647" lon="2.11073">
        <ele>63</ele>
        <time>2011-04-15T08:08:44Z</time>
      </trkpt>
      <trkpt lat="48.58645" lon="2.11072">
        <ele>63</ele>
        <time>2011-04-15T08:08:46Z</time>
      </trkpt>
      <trkpt lat="48.58643" lon="2.11071">
        <ele>62</ele>
        <time>2011-04-15T08:08:47Z</time>
      </trkpt>
      <trkpt lat="48.58642" lon="2.1107">
        <ele>62</ele>
        <time>2011-04-15T08:08:48Z</time>
      </trkpt>
      <trkpt lat="48.5864" lon="2.11069">
        <ele>62</ele>
        <time>2011-04-15T08:08:49Z</time>
      </trkpt>
      <trkpt lat="48.58639" lon="2.11068">
        <ele>62</ele>
        <time>2011-04-15T08:08:50Z</time>
      </trkpt>
      <trkpt lat="48.58637" lon="2.11066">
        <ele>62</ele>
        <time>2011-04-15T08:08:51Z</time>
      </trkpt>
      <trkpt lat="48.58636" lon="2.11065">
        <ele>62</ele>
        <time>2011-04-15T08:08:52Z</time>
      </trkpt>
      <trkpt lat="48.58634" lon="2.11063">
        <ele>62</ele>
        <time>2011-04-15T08:08:53Z</time>
      </trkpt>
      <trkpt lat="48.58633" lon="2.11062">
        <ele>62</ele>
        <time>2011-04-15T08:08:54Z</time>
      </trkpt>
      <trkpt lat="48.58631" lon="2.1106">
        <ele>62</ele>
        <time>2011-04-15T08:08:55Z</time>
      </trkpt>
      <trkpt lat="48.5863" lon="2.11059">
        <ele>62</ele>
        <time>2011-04-15T08:08:56Z</time>
      </trkpt>
      <trkpt lat="48.58628" lon="2.11058">
        <ele>62</ele>
        <time>2011-04-15T08:08:57Z</time>
      </trkpt>
      <trkpt lat="48.58627" lon="2.11056">
        <ele>62</ele>
        <time>2011-04-15T08:08:58Z</time>
      </trkpt>
      <trkpt lat="48.58625" lon="2.11055">
        <ele>62</ele>
        <time>2011-04-15T08:08:59Z</time>
      </trkpt>
      <trkpt lat="48.58624" lon="2.11054">
        <ele>62</ele>
        <time>2011-04-15T08:09:00Z</time>
      </trkpt>
      <trkpt lat="48.58622" lon="2.11052">
        <ele>62</ele>
        <time>2011-04-15T08:09:01Z</time>
      </trkpt>
      <trkpt lat="48.58621" lon="2.11051">
        <ele>62</ele>
        <time>2011-04-15T08:09:02Z</time>
      </trkpt>
      <trkpt lat="48.5862" lon="2.11049">
        <ele>62</ele>
        <time>2011-04-15T08:09:03Z</time>
      </trkpt>
      <trkpt lat="48.58619" lon="2.11047">
        <ele>62</ele>
        <time>2011-04-15T08:09:04Z</time>
      </trkpt>
      <trkpt lat="48.58617" lon="2.11045">
        <ele>62</ele>
        <time>2011-04-15T08:09:05Z</time>
      </trkpt>
      <trkpt lat="48.58616" lon="2.11044">
        <ele>62</ele>
        <time>2011-04-15T08:09:06Z</time>
      </trkpt>
      <trkpt lat="48.58614" lon="2.11042">
        <ele>62</ele>
        <time>2011-04-15T08:09:07Z</time>
      </trkpt>
      <trkpt lat="48.58613" lon="2.1104">
        <ele>62</ele>
        <time>2011-04-15T08:09:08Z</time>
      </trkpt>
      <trkpt lat="48.58611" lon="2.11039">
        <ele>62</ele>
        <time>2011-04-15T08:09:09Z</time>
      </trkpt>
      <trkpt lat="48.5861" lon="2.11037">
        <ele>62</ele>
        <time>2011-04-15T08:09:10Z</time>
      </trkpt>
      <trkpt lat="48.58608" lon="2.11036">
        <ele>62</ele>
        <time>2011-04-15T08:09:11Z</time>
      </trkpt>
      <trkpt lat="48.58607" lon="2.11035">
        <ele>62</ele>
        <time>2011-04-15T08:09:12Z</time>
      </trkpt>
      <trkpt lat="48.58606" lon="2.11033">
        <ele>62</ele>
        <time>2011-04-15T08:09:13Z</time>
      </trkpt>
      <trkpt lat="48.58604" lon="2.11032">
        <ele>62</ele>
        <time>2011-04-15T08:09:14Z</time>
      </trkpt>
      <trkpt lat="48.58603" lon="2.1103">
        <ele>62</ele>
        <time>2011-04-15T08:09:15Z</time>
      </trkpt>
      <trkpt lat="48.58601" lon="2.11029">
        <ele>62</ele>
        <time>2011-04-15T08:09:16Z</time>
      </trkpt>
      <trkpt lat="48.586" lon="2.11027">
        <ele>62</ele>
        <time>2011-04-15T08:09:17Z</time>
      </trkpt>
      <trkpt lat="48.58598" lon="2.11026">
        <ele>62</ele>
        <time>2011-04-15T08:09:18Z</time>
      </trkpt>
      <trkpt lat="48.58597" lon="2.11025">
        <ele>62</ele>
        <time>2011-04-15T08:09:19Z</time>
      </trkpt>
      <trkpt lat="48.58595" lon="2.11024">
        <ele>62</ele>
        <time>2011-04-15T08:09:20Z</time>
      </trkpt>
      <trkpt lat="48.58593" lon="2.11023">
        <ele>62</ele>
        <time>2011-04-15T08:09:21Z</time>
      </trkpt>
      <trkpt lat="48.58592" lon="2.11022">
        <ele>62</ele>
        <time>2011-04-15T08:09:22Z</time>
      </trkpt>
      <trkpt lat="48.5859" lon="2.11022">
        <ele>62</ele>
        <time>2011-04-15T08:09:23Z</time>
      </trkpt>
      <trkpt lat="48.58589" lon="2.11021">
        <ele>62</ele>
        <time>2011-04-15T08:09:24Z</time>
      </trkpt>
      <trkpt lat="48.58587" lon="2.1102">
        <ele>62</ele>
        <time>2011-04-15T08:09:25Z</time>
      </trkpt>
      <trkpt lat="48.58585" lon="2.11019">
        <ele>62</ele>
        <time>2011-04-15T08:09:26Z</time>
      </trkpt>
      <trkpt lat="48.58584" lon="2.11019">
        <ele>62</ele>
        <time>2011-04-15T08:09:27Z</time>
      </trkpt>
      <trkpt lat="48.58582" lon="2.11018">
        <ele>62</ele>
        <time>2011-04-15T08:09:28Z</time>
      </trkpt>
      <trkpt lat="48.58581" lon="2.11017">
        <ele>62</ele>
        <time>2011-04-15T08:09:29Z</time>
      </trkpt>
      <trkpt lat="48.58579" lon="2.11017">
        <ele>62</ele>
        <time>2011-04-15T08:09:30Z</time>
      </trkpt>
      <trkpt lat="48.58578" lon="2.11016">
        <ele>62</ele>
        <time>2011-04-15T08:09:31Z</time>
      </trkpt>
      <trkpt lat="48.58576" lon="2.11016">
        <ele>62</ele>
        <time>2011-04-15T08:09:32Z</time>
      </trkpt>
      <trkpt lat="48.58574" lon="2.11015">
        <ele>62</ele>
        <time>2011-04-15T08:09:33Z</time>
      </trkpt>
      <trkpt lat="48.58572" lon="2.11015">
        <ele>62</ele>
        <time>2011-04-15T08:09:34Z</time>
      </trkpt>
      <trkpt lat="48.58571" lon="2.11015">
        <ele>62</ele>
        <time>2011-04-15T08:09:35Z</time>
      </trkpt>
      <trkpt lat="48.58569" lon="2.11014">
        <ele>62</ele>
        <time>2011-04-15T08:09:36Z</time>
      </trkpt>
      <trkpt lat="48.58568" lon="2.11014">
        <ele>62</ele>
        <time>2011-04-15T08:09:37Z</time>
      </trkpt>
      <trkpt lat="48.58566" lon="2.11013">
        <ele>62</ele>
        <time>2011-04-15T08:09:38Z</time>
      </trkpt>
      <trkpt lat="48.58565" lon="2.11013">
        <ele>62</ele>
        <time>2011-04-15T08:09:39Z</time>
      </trkpt>
      <trkpt lat="48.58563" lon="2.11012">
        <ele>62</ele>
        <time>2011-04-15T08:09:40Z</time>
      </trkpt>
      <trkpt lat="48.58561" lon="2.11012">
        <ele>62</ele>
        <time>2011-04-15T08:09:41Z</time>
      </trkpt>
      <trkpt lat="48.5856" lon="2.11012">
        <ele>62</ele>
        <time>2011-04-15T08:09:42Z</time>
      </trkpt>
      <trkpt lat="48.58558" lon="2.11012">
        <ele>62</ele>
        <time>2011-04-15T08:09:43Z</time>
      </trkpt>
      <trkpt lat="48.58557" lon="2.11012">
        <ele>62</ele>
        <time>2011-04-15T08:09:44Z</time>
      </trkpt>
      <trkpt lat="48.58555" lon="2.11012">
        <ele>62</ele>
        <time>2011-04-15T08:09:45Z</time>
      </trkpt>
      <trkpt lat="48.58554" lon="2.11011">
        <ele>62</ele>
        <time>2011-04-15T08:09:46Z</time>
      </trkpt>
      <trkpt lat="48.58552" lon="2.1101">
        <ele>62</ele>
        <time>2011-04-15T08:09:47Z</time>
      </trkpt>
      <trkpt lat="48.58551" lon="2.1101">
        <ele>62</ele>
        <time>2011-04-15T08:09:48Z</time>
      </trkpt>
      <trkpt lat="48.5855" lon="2.1101">
        <ele>62</ele>
        <time>2011-04-15T08:09:49Z</time>
      </trkpt>
      <trkpt lat="48.58548" lon="2.11009">
        <ele>62</ele>
        <time>2011-04-15T08:09:50Z</time>
      </trkpt>
      <trkpt lat="48.58547" lon="2.11009">
        <ele>62</ele>
        <time>2011-04-15T08:09:51Z</time>
      </trkpt>
      <trkpt lat="48.58545" lon="2.11009">
        <ele>62</ele>
        <time>2011-04-15T08:09:52Z</time>
      </trkpt>
      <trkpt lat="48.58544" lon="2.11009">
        <ele>62</ele>
        <time>2011-04-15T08:09:53Z</time>
      </trkpt>
      <trkpt lat="48.58543" lon="2.11008">
        <ele>62</ele>
        <time>2011-04-15T08:09:54Z</time>
      </trkpt>
      <trkpt lat="48.58541" lon="2.11008">
        <ele>62</ele>
        <time>2011-04-15T08:09:55Z</time>
      </trkpt>
      <trkpt lat="48.5854" lon="2.11008">
        <ele>62</ele>
        <time>2011-04-15T08:09:56Z</time>
      </trkpt>
      <trkpt lat="48.58538" lon="2.11007">
        <ele>62</ele>
        <time>2011-04-15T08:09:57Z</time>
      </trkpt>
      <trkpt lat="48.58537" lon="2.11007">
        <ele>62</ele>
        <time>2011-04-15T08:09:58Z</time>
      </trkpt>
      <trkpt lat="48.58535" lon="2.11007">
        <ele>62</ele>
        <time>2011-04-15T08:09:59Z</time>
      </trkpt>
      <trkpt lat="48.58534" lon="2.11007">
        <ele>62</ele>
        <time>2011-04-15T08:10:00Z</time>
      </trkpt>
      <trkpt lat="48.58532" lon="2.11007">
        <ele>62</ele>
        <time>2011-04-15T08:10:01Z</time>
      </trkpt>
      <trkpt lat="48.5853" lon="2.11007">
        <ele>62</ele>
        <time>2011-04-15T08:10:02Z</time>
      </trkpt>
      <trkpt lat="48.58529" lon="2.11006">
        <ele>62</ele>
        <time>2011-04-15T08:10:03Z</time>
      </trkpt>
      <trkpt lat="48.58528" lon="2.11005">
        <ele>62</ele>
        <time>2011-04-15T08:10:04Z</time>
      </trkpt>
      <trkpt lat="48.58526" lon="2.11004">
        <ele>62</ele>
        <time>2011-04-15T08:10:05Z</time>
      </trkpt>
      <trkpt lat="48.58525" lon="2.11004">
        <ele>62</ele>
        <time>2011-04-15T08:10:06Z</time>
      </trkpt>
      <trkpt lat="48.58523" lon="2.11004">
        <ele>62</ele>
        <time>2011-04-15T08:10:07Z</time>
      </trkpt>
      <trkpt lat="48.58522" lon="2.11003">
        <ele>62</ele>
        <time>2011-04-15T08:10:08Z</time>
      </trkpt>
      <trkpt lat="48.5852" lon="2.11003">
        <ele>62</ele>
        <time>2011-04-15T08:10:09Z</time>
      </trkpt>
      <trkpt lat="48.58518" lon="2.11002">
        <ele>62</ele>
        <time>2011-04-15T08:10:10Z</time>
      </trkpt>
      <trkpt lat="48.58517" lon="2.11002">
        <ele>62</ele>
        <time>2011-04-15T08:10:11Z</time>
      </trkpt>
      <trkpt lat="48.58515" lon="2.11001">
        <ele>62</ele>
        <time>2011-04-15T08:10:12Z</time>
      </trkpt>
      <trkpt lat="48.58514" lon="2.11">
        <ele>62</ele>
        <time>2011-04-15T08:10:13Z</time>
      </trkpt>
      <trkpt lat="48.58512" lon="2.11">
        <ele>62</ele>
        <time>2011-04-15T08:10:14Z</time>
      </trkpt>
      <trkpt lat="48.5851" lon="2.11">
        <ele>62</ele>
        <time>2011-04-15T08:10:15Z</time>
      </trkpt>
      <trkpt lat="48.58509" lon="2.10999">
        <ele>62</ele>
        <time>2011-04-15T08:10:16Z</time>
      </trkpt>
      <trkpt lat="48.58507" lon="2.10999">
        <ele>62</ele>
        <time>2011-04-15T08:10:17Z</time>
      </trkpt>
      <trkpt lat="48.58506" lon="2.10999">
        <ele>62</ele>
        <time>2011-04-15T08:10:18Z</time>
      </trkpt>
      <trkpt lat="48.58505" lon="2.10999">
        <ele>62</ele>
        <time>2011-04-15T08:10:19Z</time>
      </trkpt>
      <trkpt lat="48.58503" lon="2.10998">
        <ele>62</ele>
        <time>2011-04-15T08:10:20Z</time>
      </trkpt>
      <trkpt lat="48.58502" lon="2.10998">
        <ele>62</ele>
        <time>2011-04-15T08:10:21Z</time>
      </trkpt>
      <trkpt lat="48.585" lon="2.10997">
        <ele>62</ele>
        <time>2011-04-15T08:10:22Z</time>
      </trkpt>
      <trkpt lat="48.58499" lon="2.10996">
        <ele>62</ele>
        <time>2011-04-15T08:10:23Z</time>
      </trkpt>
      <trkpt lat="48.58497" lon="2.10995">
        <ele>62</ele>
        <time>2011-04-15T08:10:24Z</time>
      </trkpt>
      <trkpt lat="48.58496" lon="2.10992">
        <ele>62</ele>
        <time>2011-04-15T08:10:26Z</time>
      </trkpt>
      <trkpt lat="48.58493" lon="2.10989">
        <ele>62</ele>
        <time>2011-04-15T08:10:28Z</time>
      </trkpt>
      <trkpt lat="48.58492" lon="2.10987">
        <ele>62</ele>
        <time>2011-04-15T08:10:29Z</time>
      </trkpt>
      <trkpt lat="48.58491" lon="2.10985">
        <ele>62</ele>
        <time>2011-04-15T08:10:30Z</time>
      </trkpt>
      <trkpt lat="48.58489" lon="2.10983">
        <ele>62</ele>
        <time>2011-04-15T08:10:31Z</time>
      </trkpt>
      <trkpt lat="48.58488" lon="2.10981">
        <ele>62</ele>
        <time>2011-04-15T08:10:32Z</time>
      </trkpt>
      <trkpt lat="48.58487" lon="2.10979">
        <ele>62</ele>
        <time>2011-04-15T08:10:33Z</time>
      </trkpt>
      <trkpt lat="48.58486" lon="2.10977">
        <ele>62</ele>
        <time>2011-04-15T08:10:34Z</time>
      </trkpt>
      <trkpt lat="48.58484" lon="2.10975">
        <ele>62</ele>
        <time>2011-04-15T08:10:35Z</time>
      </trkpt>
      <trkpt lat="48.58483" lon="2.10974">
        <ele>62</ele>
        <time>2011-04-15T08:10:36Z</time>
      </trkpt>
      <trkpt lat="48.58482" lon="2.10972">
        <ele>62</ele>
        <time>2011-04-15T08:10:37Z</time>
      </trkpt>
      <trkpt lat="48.5848" lon="2.1097">
        <ele>62</ele>
        <time>2011-04-15T08:10:38Z</time>
      </trkpt>
      <trkpt lat="48.58479" lon="2.10968">
        <ele>62</ele>
        <time>2011-04-15T08:10:39Z</time>
      </trkpt>
      <trkpt lat="48.58478" lon="2.10966">
        <ele>62</ele>
        <time>2011-04-15T08:10:40Z</time>
      </trkpt>
      <trkpt lat="48.58476" lon="2.10964">
        <ele>62</ele>
        <time>2011-04-15T08:10:41Z</time>
      </trkpt>
      <trkpt lat="48.58474" lon="2.10963">
        <ele>62</ele>
        <time>2011-04-15T08:10:42Z</time>
      </trkpt>
      <trkpt lat="48.58473" lon="2.10961">
        <ele>62</ele>
        <time>2011-04-15T08:10:43Z</time>
      </trkpt>
      <trkpt lat="48.5847" lon="2.10959">
        <ele>62</ele>
        <time>2011-04-15T08:10:44Z</time>
      </trkpt>
      <trkpt lat="48.58468" lon="2.10958">
        <ele>62</ele>
        <time>2011-04-15T08:10:45Z</time>
      </trkpt>
      <trkpt lat="48.58467" lon="2.10956">
        <ele>62</ele>
        <time>2011-04-15T08:10:46Z</time>
      </trkpt>
      <trkpt lat="48.58465" lon="2.10955">
        <ele>62</ele>
        <time>2011-04-15T08:10:47Z</time>
      </trkpt>
      <trkpt lat="48.58464" lon="2.10954">
        <ele>62</ele>
        <time>2011-04-15T08:10:48Z</time>
      </trkpt>
      <trkpt lat="48.58462" lon="2.10953">
        <ele>62</ele>
        <time>2011-04-15T08:10:49Z</time>
      </trkpt>
      <trkpt lat="48.58461" lon="2.10952">
        <ele>62</ele>
        <time>2011-04-15T08:10:50Z</time>
      </trkpt>
      <trkpt lat="48.58459" lon="2.10951">
        <ele>61</ele>
        <time>2011-04-15T08:10:51Z</time>
      </trkpt>
      <trkpt lat="48.58458" lon="2.1095">
        <ele>61</ele>
        <time>2011-04-15T08:10:52Z</time>
      </trkpt>
      <trkpt lat="48.58456" lon="2.10949">
        <ele>61</ele>
        <time>2011-04-15T08:10:53Z</time>
      </trkpt>
      <trkpt lat="48.58454" lon="2.10948">
        <ele>60</ele>
        <time>2011-04-15T08:10:54Z</time>
      </trkpt>
      <trkpt lat="48.58453" lon="2.10948">
        <ele>60</ele>
        <time>2011-04-15T08:10:55Z</time>
      </trkpt>
      <trkpt lat="48.58451" lon="2.10947">
        <ele>60</ele>
        <time>2011-04-15T08:10:56Z</time>
      </trkpt>
      <trkpt lat="48.58449" lon="2.10945">
        <ele>60</ele>
        <time>2011-04-15T08:10:57Z</time>
      </trkpt>
      <trkpt lat="48.58448" lon="2.10944">
        <ele>60</ele>
        <time>2011-04-15T08:10:58Z</time>
      </trkpt>
      <trkpt lat="48.58446" lon="2.10942">
        <ele>60</ele>
        <time>2011-04-15T08:10:59Z</time>
      </trkpt>
      <trkpt lat="48.58444" lon="2.10941">
        <ele>60</ele>
        <time>2011-04-15T08:11:00Z</time>
      </trkpt>
      <trkpt lat="48.58443" lon="2.1094">
        <ele>60</ele>
        <time>2011-04-15T08:11:01Z</time>
      </trkpt>
      <trkpt lat="48.58441" lon="2.1094">
        <ele>60</ele>
        <time>2011-04-15T08:11:02Z</time>
      </trkpt>
      <trkpt lat="48.5844" lon="2.10939">
        <ele>60</ele>
        <time>2011-04-15T08:11:03Z</time>
      </trkpt>
      <trkpt lat="48.58438" lon="2.10938">
        <ele>60</ele>
        <time>2011-04-15T08:11:04Z</time>
      </trkpt>
      <trkpt lat="48.58437" lon="2.10937">
        <ele>60</ele>
        <time>2011-04-15T08:11:05Z</time>
      </trkpt>
      <trkpt lat="48.58435" lon="2.10936">
        <ele>60</ele>
        <time>2011-04-15T08:11:06Z</time>
      </trkpt>
      <trkpt lat="48.58434" lon="2.10935">
        <ele>60</ele>
        <time>2011-04-15T08:11:07Z</time>
      </trkpt>
      <trkpt lat="48.58432" lon="2.10934">
        <ele>60</ele>
        <time>2011-04-15T08:11:08Z</time>
      </trkpt>
      <trkpt lat="48.5843" lon="2.10932">
        <ele>60</ele>
        <time>2011-04-15T08:11:09Z</time>
      </trkpt>
      <trkpt lat="48.58429" lon="2.10931">
        <ele>60</ele>
        <time>2011-04-15T08:11:10Z</time>
      </trkpt>
      <trkpt lat="48.58428" lon="2.1093">
        <ele>60</ele>
        <time>2011-04-15T08:11:11Z</time>
      </trkpt>
      <trkpt lat="48.58426" lon="2.10929">
        <ele>60</ele>
        <time>2011-04-15T08:11:12Z</time>
      </trkpt>
      <trkpt lat="48.58425" lon="2.10928">
        <ele>60</ele>
        <time>2011-04-15T08:11:13Z</time>
      </trkpt>
      <trkpt lat="48.58423" lon="2.10927">
        <ele>60</ele>
        <time>2011-04-15T08:11:14Z</time>
      </trkpt>
      <trkpt lat="48.58421" lon="2.10926">
        <ele>60</ele>
        <time>2011-04-15T08:11:15Z</time>
      </trkpt>
      <trkpt lat="48.58419" lon="2.10925">
        <ele>60</ele>
        <time>2011-04-15T08:11:16Z</time>
      </trkpt>
      <trkpt lat="48.58418" lon="2.10923">
        <ele>60</ele>
        <time>2011-04-15T08:11:17Z</time>
      </trkpt>
      <trkpt lat="48.58416" lon="2.10922">
        <ele>60</ele>
        <time>2011-04-15T08:11:18Z</time>
      </trkpt>
      <trkpt lat="48.58415" lon="2.10921">
        <ele>60</ele>
        <time>2011-04-15T08:11:19Z</time>
      </trkpt>
      <trkpt lat="48.58414" lon="2.10919">
        <ele>60</ele>
        <time>2011-04-15T08:11:20Z</time>
      </trkpt>
      <trkpt lat="48.58412" lon="2.10917">
        <ele>60</ele>
        <time>2011-04-15T08:11:21Z</time>
      </trkpt>
      <trkpt lat="48.5841" lon="2.10915">
        <ele>60</ele>
        <time>2011-04-15T08:11:23Z</time>
      </trkpt>
      <trkpt lat="48.58408" lon="2.10912">
        <ele>60</ele>
        <time>2011-04-15T08:11:25Z</time>
      </trkpt>
      <trkpt lat="48.58407" lon="2.1091">
        <ele>60</ele>
        <time>2011-04-15T08:11:26Z</time>
      </trkpt>
      <trkpt lat="48.58405" lon="2.10908">
        <ele>60</ele>
        <time>2011-04-15T08:11:27Z</time>
      </trkpt>
      <trkpt lat="48.58403" lon="2.10907">
        <ele>60</ele>
        <time>2011-04-15T08:11:28Z</time>
      </trkpt>
      <trkpt lat="48.58401" lon="2.10905">
        <ele>60</ele>
        <time>2011-04-15T08:11:29Z</time>
      </trkpt>
      <trkpt lat="48.58399" lon="2.10904">
        <ele>60</ele>
        <time>2011-04-15T08:11:30Z</time>
      </trkpt>
      <trkpt lat="48.58397" lon="2.10903">
        <ele>60</ele>
        <time>2011-04-15T08:11:31Z</time>
      </trkpt>
      <trkpt lat="48.58395" lon="2.10902">
        <ele>60</ele>
        <time>2011-04-15T08:11:32Z</time>
      </trkpt>
      <trkpt lat="48.58394" lon="2.10901">
        <ele>60</ele>
        <time>2011-04-15T08:11:33Z</time>
      </trkpt>
      <trkpt lat="48.58392" lon="2.10899">
        <ele>60</ele>
        <time>2011-04-15T08:11:34Z</time>
      </trkpt>
      <trkpt lat="48.58391" lon="2.10898">
        <ele>60</ele>
        <time>2011-04-15T08:11:35Z</time>
      </trkpt>
      <trkpt lat="48.58389" lon="2.10896">
        <ele>60</ele>
        <time>2011-04-15T08:11:36Z</time>
      </trkpt>
      <trkpt lat="48.58388" lon="2.10895">
        <ele>60</ele>
        <time>2011-04-15T08:11:37Z</time>
      </trkpt>
      <trkpt lat="48.58387" lon="2.10893">
        <ele>60</ele>
        <time>2011-04-15T08:11:38Z</time>
      </trkpt>
      <trkpt lat="48.58386" lon="2.10891">
        <ele>60</ele>
        <time>2011-04-15T08:11:39Z</time>
      </trkpt>
      <trkpt lat="48.58384" lon="2.10889">
        <ele>60</ele>
        <time>2011-04-15T08:11:40Z</time>
      </trkpt>
      <trkpt lat="48.58383" lon="2.10888">
        <ele>60</ele>
        <time>2011-04-15T08:11:41Z</time>
      </trkpt>
      <trkpt lat="48.58381" lon="2.10887">
        <ele>60</ele>
        <time>2011-04-15T08:11:42Z</time>
      </trkpt>
      <trkpt lat="48.58379" lon="2.10886">
        <ele>60</ele>
        <time>2011-04-15T08:11:43Z</time>
      </trkpt>
      <trkpt lat="48.58378" lon="2.10886">
        <ele>60</ele>
        <time>2011-04-15T08:11:44Z</time>
      </trkpt>
      <trkpt lat="48.58376" lon="2.10885">
        <ele>60</ele>
        <time>2011-04-15T08:11:45Z</time>
      </trkpt>
      <trkpt lat="48.58373" lon="2.10884">
        <ele>60</ele>
        <time>2011-04-15T08:11:46Z</time>
      </trkpt>
      <trkpt lat="48.58371" lon="2.10883">
        <ele>60</ele>
        <time>2011-04-15T08:11:47Z</time>
      </trkpt>
      <trkpt lat="48.58369" lon="2.10883">
        <ele>60</ele>
        <time>2011-04-15T08:11:48Z</time>
      </trkpt>
      <trkpt lat="48.58367" lon="2.10883">
        <ele>60</ele>
        <time>2011-04-15T08:11:49Z</time>
      </trkpt>
      <trkpt lat="48.58365" lon="2.10883">
        <ele>60</ele>
        <time>2011-04-15T08:11:50Z</time>
      </trkpt>
      <trkpt lat="48.58364" lon="2.10882">
        <ele>60</ele>
        <time>2011-04-15T08:11:51Z</time>
      </trkpt>
      <trkpt lat="48.58362" lon="2.10882">
        <ele>60</ele>
        <time>2011-04-15T08:11:52Z</time>
      </trkpt>
      <trkpt lat="48.5836" lon="2.10882">
        <ele>61</ele>
        <time>2011-04-15T08:11:53Z</time>
      </trkpt>
      <trkpt lat="48.58358" lon="2.10882">
        <ele>61</ele>
        <time>2011-04-15T08:11:54Z</time>
      </trkpt>
      <trkpt lat="48.58356" lon="2.10882">
        <ele>61</ele>
        <time>2011-04-15T08:11:55Z</time>
      </trkpt>
      <trkpt lat="48.58354" lon="2.10882">
        <ele>61</ele>
        <time>2011-04-15T08:11:56Z</time>
      </trkpt>
      <trkpt lat="48.58352" lon="2.10882">
        <ele>61</ele>
        <time>2011-04-15T08:11:57Z</time>
      </trkpt>
      <trkpt lat="48.5835" lon="2.10882">
        <ele>61</ele>
        <time>2011-04-15T08:11:58Z</time>
      </trkpt>
      <trkpt lat="48.58348" lon="2.10881">
        <ele>61</ele>
        <time>2011-04-15T08:11:59Z</time>
      </trkpt>
      <trkpt lat="48.58347" lon="2.10881">
        <ele>61</ele>
        <time>2011-04-15T08:12:00Z</time>
      </trkpt>
      <trkpt lat="48.58345" lon="2.10881">
        <ele>61</ele>
        <time>2011-04-15T08:12:01Z</time>
      </trkpt>
      <trkpt lat="48.58343" lon="2.10881">
        <ele>61</ele>
        <time>2011-04-15T08:12:02Z</time>
      </trkpt>
      <trkpt lat="48.58341" lon="2.10881">
        <ele>61</ele>
        <time>2011-04-15T08:12:03Z</time>
      </trkpt>
      <trkpt lat="48.58339" lon="2.10881">
        <ele>61</ele>
        <time>2011-04-15T08:12:04Z</time>
      </trkpt>
      <trkpt lat="48.58337" lon="2.10881">
        <ele>61</ele>
        <time>2011-04-15T08:12:05Z</time>
      </trkpt>
      <trkpt lat="48.58335" lon="2.1088">
        <ele>61</ele>
        <time>2011-04-15T08:12:06Z</time>
      </trkpt>
      <trkpt lat="48.58334" lon="2.1088">
        <ele>61</ele>
        <time>2011-04-15T08:12:07Z</time>
      </trkpt>
      <trkpt lat="48.58332" lon="2.1088">
        <ele>61</ele>
        <time>2011-04-15T08:12:08Z</time>
      </trkpt>
      <trkpt lat="48.58331" lon="2.1088">
        <ele>61</ele>
        <time>2011-04-15T08:12:09Z</time>
      </trkpt>
      <trkpt lat="48.58329" lon="2.10879">
        <ele>61</ele>
        <time>2011-04-15T08:12:10Z</time>
      </trkpt>
      <trkpt lat="48.58328" lon="2.10879">
        <ele>61</ele>
        <time>2011-04-15T08:12:11Z</time>
      </trkpt>
      <trkpt lat="48.58326" lon="2.10879">
        <ele>61</ele>
        <time>2011-04-15T08:12:12Z</time>
      </trkpt>
      <trkpt lat="48.58324" lon="2.10879">
        <ele>61</ele>
        <time>2011-04-15T08:12:13Z</time>
      </trkpt>
      <trkpt lat="48.58323" lon="2.10879">
        <ele>61</ele>
        <time>2011-04-15T08:12:14Z</time>
      </trkpt>
      <trkpt lat="48.58321" lon="2.10879">
        <ele>61</ele>
        <time>2011-04-15T08:12:15Z</time>
      </trkpt>
      <trkpt lat="48.58319" lon="2.10879">
        <ele>61</ele>
        <time>2011-04-15T08:12:16Z</time>
      </trkpt>
      <trkpt lat="48.58317" lon="2.10878">
        <ele>61</ele>
        <time>2011-04-15T08:12:17Z</time>
      </trkpt>
      <trkpt lat="48.58316" lon="2.10878">
        <ele>61</ele>
        <time>2011-04-15T08:12:18Z</time>
      </trkpt>
      <trkpt lat="48.58314" lon="2.10877">
        <ele>61</ele>
        <time>2011-04-15T08:12:19Z</time>
      </trkpt>
      <trkpt lat="48.58312" lon="2.10877">
        <ele>61</ele>
        <time>2011-04-15T08:12:20Z</time>
      </trkpt>
      <trkpt lat="48.5831" lon="2.10877">
        <ele>61</ele>
        <time>2011-04-15T08:12:21Z</time>
      </trkpt>
      <trkpt lat="48.58309" lon="2.10876">
        <ele>61</ele>
        <time>2011-04-15T08:12:22Z</time>
      </trkpt>
      <trkpt lat="48.58307" lon="2.10876">
        <ele>61</ele>
        <time>2011-04-15T08:12:23Z</time>
      </trkpt>
      <trkpt lat="48.58305" lon="2.10875">
        <ele>61</ele>
        <time>2011-04-15T08:12:24Z</time>
      </trkpt>
      <trkpt lat="48.58304" lon="2.10875">
        <ele>61</ele>
        <time>2011-04-15T08:12:25Z</time>
      </trkpt>
      <trkpt lat="48.58302" lon="2.10875">
        <ele>61</ele>
        <time>2011-04-15T08:12:26Z</time>
      </trkpt>
      <trkpt lat="48.583" lon="2.10874">
        <ele>61</ele>
        <time>2011-04-15T08:12:27Z</time>
      </trkpt>
      <trkpt lat="48.58298" lon="2.10874">
        <ele>61</ele>
        <time>2011-04-15T08:12:28Z</time>
      </trkpt>
      <trkpt lat="48.58297" lon="2.10874">
        <ele>61</ele>
        <time>2011-04-15T08:12:29Z</time>
      </trkpt>
      <trkpt lat="48.58295" lon="2.10873">
        <ele>61</ele>
        <time>2011-04-15T08:12:30Z</time>
      </trkpt>
      <trkpt lat="48.58293" lon="2.10873">
        <ele>61</ele>
        <time>2011-04-15T08:12:31Z</time>
      </trkpt>
      <trkpt lat="48.58292" lon="2.10872">
        <ele>61</ele>
        <time>2011-04-15T08:12:32Z</time>
      </trkpt>
      <trkpt lat="48.5829" lon="2.10872">
        <ele>61</ele>
        <time>2011-04-15T08:12:33Z</time>
      </trkpt>
      <trkpt lat="48.58288" lon="2.10871">
        <ele>61</ele>
        <time>2011-04-15T08:12:34Z</time>
      </trkpt>
      <trkpt lat="48.58286" lon="2.1087">
        <ele>61</ele>
        <time>2011-04-15T08:12:35Z</time>
      </trkpt>
      <trkpt lat="48.58285" lon="2.1087">
        <ele>61</ele>
        <time>2011-04-15T08:12:36Z</time>
      </trkpt>
      <trkpt lat="48.58283" lon="2.10869">
        <ele>61</ele>
        <time>2011-04-15T08:12:37Z</time>
      </trkpt>
      <trkpt lat="48.58281" lon="2.10868">
        <ele>61</ele>
        <time>2011-04-15T08:12:38Z</time>
      </trkpt>
      <trkpt lat="48.5828" lon="2.10868">
        <ele>61</ele>
        <time>2011-04-15T08:12:39Z</time>
      </trkpt>
      <trkpt lat="48.58278" lon="2.10867">
        <ele>61</ele>
        <time>2011-04-15T08:12:40Z</time>
      </trkpt>
      <trkpt lat="48.58277" lon="2.10867">
        <ele>61</ele>
        <time>2011-04-15T08:12:41Z</time>
      </trkpt>
      <trkpt lat="48.58275" lon="2.10866">
        <ele>61</ele>
        <time>2011-04-15T08:12:42Z</time>
      </trkpt>
      <trkpt lat="48.58274" lon="2.10865">
        <ele>61</ele>
        <time>2011-04-15T08:12:43Z</time>
      </trkpt>
      <trkpt lat="48.58272" lon="2.10864">
        <ele>61</ele>
        <time>2011-04-15T08:12:44Z</time>
      </trkpt>
      <trkpt lat="48.58271" lon="2.10863">
        <ele>61</ele>
        <time>2011-04-15T08:12:45Z</time>
      </trkpt>
      <trkpt lat="48.58269" lon="2.10862">
        <ele>61</ele>
        <time>2011-04-15T08:12:46Z</time>
      </trkpt>
      <trkpt lat="48.58268" lon="2.10861">
        <ele>61</ele>
        <time>2011-04-15T08:12:47Z</time>
      </trkpt>
      <trkpt lat="48.58266" lon="2.1086">
        <ele>61</ele>
        <time>2011-04-15T08:12:48Z</time>
      </trkpt>
      <trkpt lat="48.58265" lon="2.10859">
        <ele>61</ele>
        <time>2011-04-15T08:12:49Z</time>
      </trkpt>
      <trkpt lat="48.58263" lon="2.10858">
        <ele>61</ele>
        <time>2011-04-15T08:12:50Z</time>
      </trkpt>
      <trkpt lat="48.58261" lon="2.10857">
        <ele>61</ele>
        <time>2011-04-15T08:12:51Z</time>
      </trkpt>
      <trkpt lat="48.5826" lon="2.10856">
        <ele>61</ele>
        <time>2011-04-15T08:12:52Z</time>
      </trkpt>
      <trkpt lat="48.58258" lon="2.10855">
        <ele>61</ele>
        <time>2011-04-15T08:12:53Z</time>
      </trkpt>
      <trkpt lat="48.58257" lon="2.10855">
        <ele>61</ele>
        <time>2011-04-15T08:12:54Z</time>
      </trkpt>
      <trkpt lat="48.58255" lon="2.10854">
        <ele>61</ele>
        <time>2011-04-15T08:12:55Z</time>
      </trkpt>
      <trkpt lat="48.58254" lon="2.10853">
        <ele>61</ele>
        <time>2011-04-15T08:12:56Z</time>
      </trkpt>
      <trkpt lat="48.58253" lon="2.10852">
        <ele>61</ele>
        <time>2011-04-15T08:12:57Z</time>
      </trkpt>
      <trkpt lat="48.58251" lon="2.10851">
        <ele>61</ele>
        <time>2011-04-15T08:12:58Z</time>
      </trkpt>
      <trkpt lat="48.58249" lon="2.10849">
        <ele>61</ele>
        <time>2011-04-15T08:12:59Z</time>
      </trkpt>
      <trkpt lat="48.58248" lon="2.10848">
        <ele>61</ele>
        <time>2011-04-15T08:13:00Z</time>
      </trkpt>
      <trkpt lat="48.58247" lon="2.10847">
        <ele>61</ele>
        <time>2011-04-15T08:13:01Z</time>
      </trkpt>
      <trkpt lat="48.58245" lon="2.10846">
        <ele>61</ele>
        <time>2011-04-15T08:13:02Z</time>
      </trkpt>
      <trkpt lat="48.58244" lon="2.10845">
        <ele>61</ele>
        <time>2011-04-15T08:13:03Z</time>
      </trkpt>
      <trkpt lat="48.58242" lon="2.10844">
        <ele>61</ele>
        <time>2011-04-15T08:13:04Z</time>
      </trkpt>
      <trkpt lat="48.5824" lon="2.10843">
        <ele>61</ele>
        <time>2011-04-15T08:13:05Z</time>
      </trkpt>
      <trkpt lat="48.58239" lon="2.10841">
        <ele>61</ele>
        <time>2011-04-15T08:13:06Z</time>
      </trkpt>
      <trkpt lat="48.58237" lon="2.1084">
        <ele>61</ele>
        <time>2011-04-15T08:13:07Z</time>
      </trkpt>
      <trkpt lat="48.58236" lon="2.10838">
        <ele>61</ele>
        <time>2011-04-15T08:13:08Z</time>
      </trkpt>
      <trkpt lat="48.58234" lon="2.10837">
        <ele>61</ele>
        <time>2011-04-15T08:13:09Z</time>
      </trkpt>
      <trkpt lat="48.58233" lon="2.10836">
        <ele>61</ele>
        <time>2011-04-15T08:13:10Z</time>
      </trkpt>
      <trkpt lat="48.58231" lon="2.10834">
        <ele>61</ele>
        <time>2011-04-15T08:13:11Z</time>
      </trkpt>
      <trkpt lat="48.5823" lon="2.10833">
        <ele>61</ele>
        <time>2011-04-15T08:13:12Z</time>
      </trkpt>
      <trkpt lat="48.58229" lon="2.10832">
        <ele>61</ele>
        <time>2011-04-15T08:13:13Z</time>
      </trkpt>
      <trkpt lat="48.58227" lon="2.10831">
        <ele>61</ele>
        <time>2011-04-15T08:13:14Z</time>
      </trkpt>
      <trkpt lat="48.58226" lon="2.10829">
        <ele>61</ele>
        <time>2011-04-15T08:13:15Z</time>
      </trkpt>
      <trkpt lat="48.58225" lon="2.10828">
        <ele>61</ele>
        <time>2011-04-15T08:13:16Z</time>
      </trkpt>
      <trkpt lat="48.58223" lon="2.10827">
        <ele>61</ele>
        <time>2011-04-15T08:13:17Z</time>
      </trkpt>
      <trkpt lat="48.58221" lon="2.10826">
        <ele>61</ele>
        <time>2011-04-15T08:13:18Z</time>
      </trkpt>
      <trkpt lat="48.5822" lon="2.10824">
        <ele>61</ele>
        <time>2011-04-15T08:13:19Z</time>
      </trkpt>
      <trkpt lat="48.58219" lon="2.10823">
        <ele>61</ele>
        <time>2011-04-15T08:13:20Z</time>
      </trkpt>
      <trkpt lat="48.58217" lon="2.10821">
        <ele>61</ele>
        <time>2011-04-15T08:13:22Z</time>
      </trkpt>
      <trkpt lat="48.58215" lon="2.10819">
        <ele>61</ele>
        <time>2011-04-15T08:13:23Z</time>
      </trkpt>
      <trkpt lat="48.58214" lon="2.10818">
        <ele>61</ele>
        <time>2011-04-15T08:13:24Z</time>
      </trkpt>
      <trkpt lat="48.58213" lon="2.10816">
        <ele>61</ele>
        <time>2011-04-15T08:13:25Z</time>
      </trkpt>
      <trkpt lat="48.58212" lon="2.10814">
        <ele>61</ele>
        <time>2011-04-15T08:13:26Z</time>
      </trkpt>
      <trkpt lat="48.58211" lon="2.10812">
        <ele>61</ele>
        <time>2011-04-15T08:13:27Z</time>
      </trkpt>
      <trkpt lat="48.58209" lon="2.1081">
        <ele>61</ele>
        <time>2011-04-15T08:13:28Z</time>
      </trkpt>
      <trkpt lat="48.58208" lon="2.10809">
        <ele>61</ele>
        <time>2011-04-15T08:13:29Z</time>
      </trkpt>
      <trkpt lat="48.58207" lon="2.10807">
        <ele>61</ele>
        <time>2011-04-15T08:13:30Z</time>
      </trkpt>
      <trkpt lat="48.58205" lon="2.10805">
        <ele>61</ele>
        <time>2011-04-15T08:13:31Z</time>
      </trkpt>
      <trkpt lat="48.58204" lon="2.10804">
        <ele>61</ele>
        <time>2011-04-15T08:13:32Z</time>
      </trkpt>
      <trkpt lat="48.58203" lon="2.10802">
        <ele>61</ele>
        <time>2011-04-15T08:13:33Z</time>
      </trkpt>
      <trkpt lat="48.58201" lon="2.108">
        <ele>61</ele>
        <time>2011-04-15T08:13:34Z</time>
      </trkpt>
      <trkpt lat="48.582" lon="2.10799">
        <ele>61</ele>
        <time>2011-04-15T08:13:35Z</time>
      </trkpt>
      <trkpt lat="48.58199" lon="2.10797">
        <ele>61</ele>
        <time>2011-04-15T08:13:36Z</time>
      </trkpt>
      <trkpt lat="48.58197" lon="2.10795">
        <ele>61</ele>
        <time>2011-04-15T08:13:37Z</time>
      </trkpt>
      <trkpt lat="48.58196" lon="2.10794">
        <ele>61</ele>
        <time>2011-04-15T08:13:38Z</time>
      </trkpt>
      <trkpt lat="48.58195" lon="2.10792">
        <ele>61</ele>
        <time>2011-04-15T08:13:39Z</time>
      </trkpt>
      <trkpt lat="48.58194" lon="2.1079">
        <ele>61</ele>
        <time>2011-04-15T08:13:40Z</time>
      </trkpt>
      <trkpt lat="48.58192" lon="2.10789">
        <ele>61</ele>
        <time>2011-04-15T08:13:41Z</time>
      </trkpt>
      <trkpt lat="48.58191" lon="2.10787">
        <ele>61</ele>
        <time>2011-04-15T08:13:42Z</time>
      </trkpt>
      <trkpt lat="48.5819" lon="2.10785">
        <ele>61</ele>
        <time>2011-04-15T08:13:43Z</time>
      </trkpt>
      <trkpt lat="48.58189" lon="2.10784">
        <ele>61</ele>
        <time>2011-04-15T08:13:44Z</time>
      </trkpt>
      <trkpt lat="48.58187" lon="2.10782">
        <ele>61</ele>
        <time>2011-04-15T08:13:45Z</time>
      </trkpt>
      <trkpt lat="48.58186" lon="2.1078">
        <ele>61</ele>
        <time>2011-04-15T08:13:46Z</time>
      </trkpt>
      <trkpt lat="48.58185" lon="2.10779">
        <ele>61</ele>
        <time>2011-04-15T08:13:47Z</time>
      </trkpt>
      <trkpt lat="48.58183" lon="2.10777">
        <ele>61</ele>
        <time>2011-04-15T08:13:48Z</time>
      </trkpt>
      <trkpt lat="48.58182" lon="2.10775">
        <ele>61</ele>
        <time>2011-04-15T08:13:49Z</time>
      </trkpt>
      <trkpt lat="48.58181" lon="2.10774">
        <ele>61</ele>
        <time>2011-04-15T08:13:50Z</time>
      </trkpt>
      <trkpt lat="48.5818" lon="2.10772">
        <ele>61</ele>
        <time>2011-04-15T08:13:51Z</time>
      </trkpt>
      <trkpt lat="48.58178" lon="2.1077">
        <ele>61</ele>
        <time>2011-04-15T08:13:52Z</time>
      </trkpt>
      <trkpt lat="48.58177" lon="2.10769">
        <ele>61</ele>
        <time>2011-04-15T08:13:53Z</time>
      </trkpt>
      <trkpt lat="48.58176" lon="2.10767">
        <ele>61</ele>
        <time>2011-04-15T08:13:54Z</time>
      </trkpt>
      <trkpt lat="48.58175" lon="2.10765">
        <ele>61</ele>
        <time>2011-04-15T08:13:55Z</time>
      </trkpt>
      <trkpt lat="48.58173" lon="2.10763">
        <ele>61</ele>
        <time>2011-04-15T08:13:56Z</time>
      </trkpt>
      <trkpt lat="48.58172" lon="2.10762">
        <ele>61</ele>
        <time>2011-04-15T08:13:57Z</time>
      </trkpt>
      <trkpt lat="48.58171" lon="2.1076">
        <ele>61</ele>
        <time>2011-04-15T08:13:58Z</time>
      </trkpt>
      <trkpt lat="48.58169" lon="2.10759">
        <ele>61</ele>
        <time>2011-04-15T08:13:59Z</time>
      </trkpt>
      <trkpt lat="48.58168" lon="2.10757">
        <ele>61</ele>
        <time>2011-04-15T08:14:00Z</time>
      </trkpt>
      <trkpt lat="48.58167" lon="2.10755">
        <ele>61</ele>
        <time>2011-04-15T08:14:01Z</time>
      </trkpt>
      <trkpt lat="48.58165" lon="2.10754">
        <ele>61</ele>
        <time>2011-04-15T08:14:02Z</time>
      </trkpt>
      <trkpt lat="48.58164" lon="2.10752">
        <ele>61</ele>
        <time>2011-04-15T08:14:03Z</time>
      </trkpt>
      <trkpt lat="48.58163" lon="2.1075">
        <ele>61</ele>
        <time>2011-04-15T08:14:04Z</time>
      </trkpt>
      <trkpt lat="48.58161" lon="2.10749">
        <ele>61</ele>
        <time>2011-04-15T08:14:05Z</time>
      </trkpt>
      <trkpt lat="48.5816" lon="2.10748">
        <ele>61</ele>
        <time>2011-04-15T08:14:06Z</time>
      </trkpt>
      <trkpt lat="48.58159" lon="2.10746">
        <ele>61</ele>
        <time>2011-04-15T08:14:07Z</time>
      </trkpt>
      <trkpt lat="48.58158" lon="2.10744">
        <ele>61</ele>
        <time>2011-04-15T08:14:08Z</time>
      </trkpt>
      <trkpt lat="48.58156" lon="2.10743">
        <ele>61</ele>
        <time>2011-04-15T08:14:09Z</time>
      </trkpt>
      <trkpt lat="48.58155" lon="2.10741">
        <ele>61</ele>
        <time>2011-04-15T08:14:10Z</time>
      </trkpt>
      <trkpt lat="48.58154" lon="2.10739">
        <ele>61</ele>
        <time>2011-04-15T08:14:11Z</time>
      </trkpt>
      <trkpt lat="48.58153" lon="2.10738">
        <ele>61</ele>
        <time>2011-04-15T08:14:12Z</time>
      </trkpt>
      <trkpt lat="48.58151" lon="2.10736">
        <ele>61</ele>
        <time>2011-04-15T08:14:13Z</time>
      </trkpt>
      <trkpt lat="48.58149" lon="2.10733">
        <ele>61</ele>
        <time>2011-04-15T08:14:15Z</time>
      </trkpt>
      <trkpt lat="48.58148" lon="2.10732">
        <ele>61</ele>
        <time>2011-04-15T08:14:16Z</time>
      </trkpt>
      <trkpt lat="48.58146" lon="2.1073">
        <ele>61</ele>
        <time>2011-04-15T08:14:17Z</time>
      </trkpt>
      <trkpt lat="48.58145" lon="2.10729">
        <ele>61</ele>
        <time>2011-04-15T08:14:18Z</time>
      </trkpt>
      <trkpt lat="48.58144" lon="2.10727">
        <ele>61</ele>
        <time>2011-04-15T08:14:19Z</time>
      </trkpt>
      <trkpt lat="48.58143" lon="2.10726">
        <ele>61</ele>
        <time>2011-04-15T08:14:20Z</time>
      </trkpt>
      <trkpt lat="48.58141" lon="2.10724">
        <ele>61</ele>
        <time>2011-04-15T08:14:21Z</time>
      </trkpt>
      <trkpt lat="48.5814" lon="2.10722">
        <ele>61</ele>
        <time>2011-04-15T08:14:22Z</time>
      </trkpt>
      <trkpt lat="48.58139" lon="2.1072">
        <ele>61</ele>
        <time>2011-04-15T08:14:23Z</time>
      </trkpt>
      <trkpt lat="48.58137" lon="2.10719">
        <ele>61</ele>
        <time>2011-04-15T08:14:24Z</time>
      </trkpt>
      <trkpt lat="48.58136" lon="2.10717">
        <ele>61</ele>
        <time>2011-04-15T08:14:25Z</time>
      </trkpt>
      <trkpt lat="48.58135" lon="2.10716">
        <ele>61</ele>
        <time>2011-04-15T08:14:26Z</time>
      </trkpt>
      <trkpt lat="48.58134" lon="2.10714">
        <ele>61</ele>
        <time>2011-04-15T08:14:27Z</time>
      </trkpt>
      <trkpt lat="48.58133" lon="2.10713">
        <ele>61</ele>
        <time>2011-04-15T08:14:28Z</time>
      </trkpt>
      <trkpt lat="48.58131" lon="2.10711">
        <ele>61</ele>
        <time>2011-04-15T08:14:29Z</time>
      </trkpt>
      <trkpt lat="48.5813" lon="2.10709">
        <ele>61</ele>
        <time>2011-04-15T08:14:30Z</time>
      </trkpt>
      <trkpt lat="48.58128" lon="2.10708">
        <ele>61</ele>
        <time>2011-04-15T08:14:31Z</time>
      </trkpt>
      <trkpt lat="48.58127" lon="2.10706">
        <ele>61</ele>
        <time>2011-04-15T08:14:32Z</time>
      </trkpt>
      <trkpt lat="48.58126" lon="2.10704">
        <ele>61</ele>
        <time>2011-04-15T08:14:33Z</time>
      </trkpt>
      <trkpt lat="48.58125" lon="2.10703">
        <ele>61</ele>
        <time>2011-04-15T08:14:34Z</time>
      </trkpt>
      <trkpt lat="48.58123" lon="2.10701">
        <ele>61</ele>
        <time>2011-04-15T08:14:35Z</time>
      </trkpt>
      <trkpt lat="48.58122" lon="2.107">
        <ele>61</ele>
        <time>2011-04-15T08:14:36Z</time>
      </trkpt>
      <trkpt lat="48.58121" lon="2.10698">
        <ele>61</ele>
        <time>2011-04-15T08:14:37Z</time>
      </trkpt>
      <trkpt lat="48.58119" lon="2.10696">
        <ele>61</ele>
        <time>2011-04-15T08:14:38Z</time>
      </trkpt>
      <trkpt lat="48.58118" lon="2.10694">
        <ele>61</ele>
        <time>2011-04-15T08:14:39Z</time>
      </trkpt>
      <trkpt lat="48.58117" lon="2.10693">
        <ele>61</ele>
        <time>2011-04-15T08:14:40Z</time>
      </trkpt>
      <trkpt lat="48.58116" lon="2.10691">
        <ele>61</ele>
        <time>2011-04-15T08:14:41Z</time>
      </trkpt>
      <trkpt lat="48.58114" lon="2.10689">
        <ele>61</ele>
        <time>2011-04-15T08:14:42Z</time>
      </trkpt>
      <trkpt lat="48.58113" lon="2.10688">
        <ele>61</ele>
        <time>2011-04-15T08:14:43Z</time>
      </trkpt>
      <trkpt lat="48.58112" lon="2.10686">
        <ele>61</ele>
        <time>2011-04-15T08:14:44Z</time>
      </trkpt>
      <trkpt lat="48.5811" lon="2.10684">
        <ele>61</ele>
        <time>2011-04-15T08:14:45Z</time>
      </trkpt>
      <trkpt lat="48.58109" lon="2.10683">
        <ele>61</ele>
        <time>2011-04-15T08:14:46Z</time>
      </trkpt>
      <trkpt lat="48.58108" lon="2.10681">
        <ele>61</ele>
        <time>2011-04-15T08:14:47Z</time>
      </trkpt>
      <trkpt lat="48.58107" lon="2.10679">
        <ele>61</ele>
        <time>2011-04-15T08:14:48Z</time>
      </trkpt>
      <trkpt lat="48.58106" lon="2.10678">
        <ele>61</ele>
        <time>2011-04-15T08:14:49Z</time>
      </trkpt>
      <trkpt lat="48.58104" lon="2.10676">
        <ele>61</ele>
        <time>2011-04-15T08:14:50Z</time>
      </trkpt>
      <trkpt lat="48.58103" lon="2.10674">
        <ele>61</ele>
        <time>2011-04-15T08:14:51Z</time>
      </trkpt>
      <trkpt lat="48.58102" lon="2.10672">
        <ele>61</ele>
        <time>2011-04-15T08:14:52Z</time>
      </trkpt>
      <trkpt lat="48.581" lon="2.10671">
        <ele>61</ele>
        <time>2011-04-15T08:14:53Z</time>
      </trkpt>
      <trkpt lat="48.58099" lon="2.10669">
        <ele>61</ele>
        <time>2011-04-15T08:14:54Z</time>
      </trkpt>
      <trkpt lat="48.58098" lon="2.10667">
        <ele>61</ele>
        <time>2011-04-15T08:14:55Z</time>
      </trkpt>
      <trkpt lat="48.58097" lon="2.10665">
        <ele>61</ele>
        <time>2011-04-15T08:14:56Z</time>
      </trkpt>
      <trkpt lat="48.58096" lon="2.10664">
        <ele>61</ele>
        <time>2011-04-15T08:14:57Z</time>
      </trkpt>
      <trkpt lat="48.58094" lon="2.10662">
        <ele>61</ele>
        <time>2011-04-15T08:14:58Z</time>
      </trkpt>
      <trkpt lat="48.58093" lon="2.1066">
        <ele>61</ele>
        <time>2011-04-15T08:14:59Z</time>
      </trkpt>
      <trkpt lat="48.58092" lon="2.10659">
        <ele>61</ele>
        <time>2011-04-15T08:15:00Z</time>
      </trkpt>
      <trkpt lat="48.58091" lon="2.10657">
        <ele>61</ele>
        <time>2011-04-15T08:15:01Z</time>
      </trkpt>
      <trkpt lat="48.5809" lon="2.10655">
        <ele>61</ele>
        <time>2011-04-15T08:15:02Z</time>
      </trkpt>
      <trkpt lat="48.58088" lon="2.10654">
        <ele>61</ele>
        <time>2011-04-15T08:15:03Z</time>
      </trkpt>
      <trkpt lat="48.58087" lon="2.10652">
        <ele>61</ele>
        <time>2011-04-15T08:15:04Z</time>
      </trkpt>
      <trkpt lat="48.58086" lon="2.1065">
        <ele>61</ele>
        <time>2011-04-15T08:15:05Z</time>
      </trkpt>
      <trkpt lat="48.58084" lon="2.10647">
        <ele>61</ele>
        <time>2011-04-15T08:15:07Z</time>
      </trkpt>
      <trkpt lat="48.58083" lon="2.10645">
        <ele>61</ele>
        <time>2011-04-15T08:15:08Z</time>
      </trkpt>
      <trkpt lat="48.58081" lon="2.10643">
        <ele>61</ele>
        <time>2011-04-15T08:15:09Z</time>
      </trkpt>
      <trkpt lat="48.5808" lon="2.10642">
        <ele>61</ele>
        <time>2011-04-15T08:15:10Z</time>
      </trkpt>
      <trkpt lat="48.58079" lon="2.1064">
        <ele>61</ele>
        <time>2011-04-15T08:15:11Z</time>
      </trkpt>
      <trkpt lat="48.58078" lon="2.10638">
        <ele>61</ele>
        <time>2011-04-15T08:15:12Z</time>
      </trkpt>
      <trkpt lat="48.58076" lon="2.10637">
        <ele>61</ele>
        <time>2011-04-15T08:15:13Z</time>
      </trkpt>
      <trkpt lat="48.58075" lon="2.10635">
        <ele>61</ele>
        <time>2011-04-15T08:15:14Z</time>
      </trkpt>
      <trkpt lat="48.58074" lon="2.10634">
        <ele>61</ele>
        <time>2011-04-15T08:15:15Z</time>
      </trkpt>
      <trkpt lat="48.58073" lon="2.10632">
        <ele>61</ele>
        <time>2011-04-15T08:15:16Z</time>
      </trkpt>
      <trkpt lat="48.58071" lon="2.1063">
        <ele>61</ele>
        <time>2011-04-15T08:15:17Z</time>
      </trkpt>
      <trkpt lat="48.5807" lon="2.10629">
        <ele>61</ele>
        <time>2011-04-15T08:15:18Z</time>
      </trkpt>
      <trkpt lat="48.58069" lon="2.10627">
        <ele>61</ele>
        <time>2011-04-15T08:15:19Z</time>
      </trkpt>
      <trkpt lat="48.58068" lon="2.10626">
        <ele>61</ele>
        <time>2011-04-15T08:15:20Z</time>
      </trkpt>
      <trkpt lat="48.58066" lon="2.10624">
        <ele>61</ele>
        <time>2011-04-15T08:15:21Z</time>
      </trkpt>
      <trkpt lat="48.58065" lon="2.10623">
        <ele>61</ele>
        <time>2011-04-15T08:15:22Z</time>
      </trkpt>
      <trkpt lat="48.58064" lon="2.10621">
        <ele>61</ele>
        <time>2011-04-15T08:15:23Z</time>
      </trkpt>
      <trkpt lat="48.58062" lon="2.1062">
        <ele>61</ele>
        <time>2011-04-15T08:15:24Z</time>
      </trkpt>
      <trkpt lat="48.58061" lon="2.10619">
        <ele>61</ele>
        <time>2011-04-15T08:15:25Z</time>
      </trkpt>
      <trkpt lat="48.5806" lon="2.10617">
        <ele>61</ele>
        <time>2011-04-15T08:15:26Z</time>
      </trkpt>
      <trkpt lat="48.58059" lon="2.10616">
        <ele>61</ele>
        <time>2011-04-15T08:15:27Z</time>
      </trkpt>
      <trkpt lat="48.58057" lon="2.10614">
        <ele>61</ele>
        <time>2011-04-15T08:15:28Z</time>
      </trkpt>
      <trkpt lat="48.58056" lon="2.10613">
        <ele>61</ele>
        <time>2011-04-15T08:15:29Z</time>
      </trkpt>
      <trkpt lat="48.58055" lon="2.10612">
        <ele>61</ele>
        <time>2011-04-15T08:15:30Z</time>
      </trkpt>
      <trkpt lat="48.58053" lon="2.1061">
        <ele>61</ele>
        <time>2011-04-15T08:15:31Z</time>
      </trkpt>
      <trkpt lat="48.58052" lon="2.10608">
        <ele>61</ele>
        <time>2011-04-15T08:15:32Z</time>
      </trkpt>
      <trkpt lat="48.5805" lon="2.10605">
        <ele>61</ele>
        <time>2011-04-15T08:15:34Z</time>
      </trkpt>
      <trkpt lat="48.58048" lon="2.10604">
        <ele>61</ele>
        <time>2011-04-15T08:15:35Z</time>
      </trkpt>
      <trkpt lat="48.58047" lon="2.10602">
        <ele>61</ele>
        <time>2011-04-15T08:15:36Z</time>
      </trkpt>
      <trkpt lat="48.58046" lon="2.10601">
        <ele>61</ele>
        <time>2011-04-15T08:15:37Z</time>
      </trkpt>
      <trkpt lat="48.58044" lon="2.106">
        <ele>61</ele>
        <time>2011-04-15T08:15:38Z</time>
      </trkpt>
      <trkpt lat="48.58043" lon="2.10599">
        <ele>61</ele>
        <time>2011-04-15T08:15:39Z</time>
      </trkpt>
      <trkpt lat="48.58042" lon="2.10597">
        <ele>61</ele>
        <time>2011-04-15T08:15:40Z</time>
      </trkpt>
      <trkpt lat="48.5804" lon="2.10596">
        <ele>61</ele>
        <time>2011-04-15T08:15:41Z</time>
      </trkpt>
      <trkpt lat="48.58039" lon="2.10595">
        <ele>61</ele>
        <time>2011-04-15T08:15:42Z</time>
      </trkpt>
      <trkpt lat="48.58037" lon="2.10593">
        <ele>61</ele>
        <time>2011-04-15T08:15:43Z</time>
      </trkpt>
      <trkpt lat="48.58036" lon="2.10592">
        <ele>61</ele>
        <time>2011-04-15T08:15:44Z</time>
      </trkpt>
      <trkpt lat="48.58035" lon="2.10591">
        <ele>61</ele>
        <time>2011-04-15T08:15:45Z</time>
      </trkpt>
      <trkpt lat="48.58033" lon="2.1059">
        <ele>61</ele>
        <time>2011-04-15T08:15:46Z</time>
      </trkpt>
      <trkpt lat="48.58032" lon="2.10589">
        <ele>61</ele>
        <time>2011-04-15T08:15:47Z</time>
      </trkpt>
      <trkpt lat="48.5803" lon="2.10588">
        <ele>61</ele>
        <time>2011-04-15T08:15:48Z</time>
      </trkpt>
      <trkpt lat="48.58029" lon="2.10586">
        <ele>61</ele>
        <time>2011-04-15T08:15:49Z</time>
      </trkpt>
      <trkpt lat="48.58027" lon="2.10585">
        <ele>61</ele>
        <time>2011-04-15T08:15:50Z</time>
      </trkpt>
      <trkpt lat="48.58026" lon="2.10584">
        <ele>61</ele>
        <time>2011-04-15T08:15:51Z</time>
      </trkpt>
      <trkpt lat="48.58024" lon="2.10583">
        <ele>61</ele>
        <time>2011-04-15T08:15:52Z</time>
      </trkpt>
      <trkpt lat="48.58023" lon="2.10582">
        <ele>61</ele>
        <time>2011-04-15T08:15:53Z</time>
      </trkpt>
      <trkpt lat="48.58021" lon="2.10581">
        <ele>61</ele>
        <time>2011-04-15T08:15:54Z</time>
      </trkpt>
      <trkpt lat="48.5802" lon="2.1058">
        <ele>61</ele>
        <time>2011-04-15T08:15:55Z</time>
      </trkpt>
      <trkpt lat="48.58018" lon="2.10579">
        <ele>61</ele>
        <time>2011-04-15T08:15:56Z</time>
      </trkpt>
      <trkpt lat="48.58017" lon="2.10578">
        <ele>61</ele>
        <time>2011-04-15T08:15:57Z</time>
      </trkpt>
      <trkpt lat="48.58016" lon="2.10577">
        <ele>61</ele>
        <time>2011-04-15T08:15:58Z</time>
      </trkpt>
      <trkpt lat="48.58014" lon="2.10576">
        <ele>61</ele>
        <time>2011-04-15T08:15:59Z</time>
      </trkpt>
      <trkpt lat="48.58013" lon="2.10575">
        <ele>61</ele>
        <time>2011-04-15T08:16:00Z</time>
      </trkpt>
      <trkpt lat="48.58011" lon="2.10574">
        <ele>61</ele>
        <time>2011-04-15T08:16:01Z</time>
      </trkpt>
      <trkpt lat="48.58009" lon="2.10574">
        <ele>61</ele>
        <time>2011-04-15T08:16:02Z</time>
      </trkpt>
      <trkpt lat="48.58008" lon="2.10573">
        <ele>61</ele>
        <time>2011-04-15T08:16:03Z</time>
      </trkpt>
      <trkpt lat="48.58006" lon="2.10572">
        <ele>61</ele>
        <time>2011-04-15T08:16:04Z</time>
      </trkpt>
      <trkpt lat="48.58005" lon="2.10571">
        <ele>61</ele>
        <time>2011-04-15T08:16:05Z</time>
      </trkpt>
      <trkpt lat="48.58003" lon="2.10571">
        <ele>61</ele>
        <time>2011-04-15T08:16:06Z</time>
      </trkpt>
      <trkpt lat="48.58002" lon="2.1057">
        <ele>61</ele>
        <time>2011-04-15T08:16:07Z</time>
      </trkpt>
      <trkpt lat="48.58" lon="2.10569">
        <ele>61</ele>
        <time>2011-04-15T08:16:08Z</time>
      </trkpt>
      <trkpt lat="48.57999" lon="2.10569">
        <ele>61</ele>
        <time>2011-04-15T08:16:09Z</time>
      </trkpt>
      <trkpt lat="48.57997" lon="2.10568">
        <ele>61</ele>
        <time>2011-04-15T08:16:10Z</time>
      </trkpt>
      <trkpt lat="48.57995" lon="2.10567">
        <ele>61</ele>
        <time>2011-04-15T08:16:11Z</time>
      </trkpt>
      <trkpt lat="48.57994" lon="2.10567">
        <ele>61</ele>
        <time>2011-04-15T08:16:12Z</time>
      </trkpt>
      <trkpt lat="48.57992" lon="2.10566">
        <ele>61</ele>
        <time>2011-04-15T08:16:13Z</time>
      </trkpt>
      <trkpt lat="48.57991" lon="2.10566">
        <ele>61</ele>
        <time>2011-04-15T08:16:14Z</time>
      </trkpt>
      <trkpt lat="48.57989" lon="2.10566">
        <ele>61</ele>
        <time>2011-04-15T08:16:15Z</time>
      </trkpt>
      <trkpt lat="48.57988" lon="2.10565">
        <ele>61</ele>
        <time>2011-04-15T08:16:16Z</time>
      </trkpt>
      <trkpt lat="48.57986" lon="2.10565">
        <ele>61</ele>
        <time>2011-04-15T08:16:17Z</time>
      </trkpt>
      <trkpt lat="48.57984" lon="2.10564">
        <ele>61</ele>
        <time>2011-04-15T08:16:18Z</time>
      </trkpt>
      <trkpt lat="48.57983" lon="2.10564">
        <ele>61</ele>
        <time>2011-04-15T08:16:19Z</time>
      </trkpt>
      <trkpt lat="48.57981" lon="2.10564">
        <ele>61</ele>
        <time>2011-04-15T08:16:20Z</time>
      </trkpt>
      <trkpt lat="48.5798" lon="2.10564">
        <ele>61</ele>
        <time>2011-04-15T08:16:21Z</time>
      </trkpt>
      <trkpt lat="48.57978" lon="2.10564">
        <ele>61</ele>
        <time>2011-04-15T08:16:22Z</time>
      </trkpt>
      <trkpt lat="48.57976" lon="2.10563">
        <ele>61</ele>
        <time>2011-04-15T08:16:23Z</time>
      </trkpt>
      <trkpt lat="48.57975" lon="2.10563">
        <ele>61</ele>
        <time>2011-04-15T08:16:24Z</time>
      </trkpt>
      <trkpt lat="48.57973" lon="2.10563">
        <ele>61</ele>
        <time>2011-04-15T08:16:25Z</time>
      </trkpt>
      <trkpt lat="48.57971" lon="2.10563">
        <ele>61</ele>
        <time>2011-04-15T08:16:26Z</time>
      </trkpt>
      <trkpt lat="48.5797" lon="2.10563">
        <ele>61</ele>
        <time>2011-04-15T08:16:27Z</time>
      </trkpt>
      <trkpt lat="48.57968" lon="2.10563">
        <ele>61</ele>
        <time>2011-04-15T08:16:28Z</time>
      </trkpt>
      <trkpt lat="48.57967" lon="2.10563">
        <ele>61</ele>
        <time>2011-04-15T08:16:29Z</time>
      </trkpt>
      <trkpt lat="48.57965" lon="2.10563">
        <ele>61</ele>
        <time>2011-04-15T08:16:30Z</time>
      </trkpt>
      <trkpt lat="48.57963" lon="2.10562">
        <ele>61</ele>
        <time>2011-04-15T08:16:31Z</time>
      </trkpt>
      <trkpt lat="48.57962" lon="2.10562">
        <ele>61</ele>
        <time>2011-04-15T08:16:32Z</time>
      </trkpt>
      <trkpt lat="48.5796" lon="2.10563">
        <ele>61</ele>
        <time>2011-04-15T08:16:33Z</time>
      </trkpt>
      <trkpt lat="48.57959" lon="2.10564">
        <ele>61</ele>
        <time>2011-04-15T08:16:34Z</time>
      </trkpt>
      <trkpt lat="48.57957" lon="2.10564">
        <ele>61</ele>
        <time>2011-04-15T08:16:35Z</time>
      </trkpt>
      <trkpt lat="48.57956" lon="2.10565">
        <ele>61</ele>
        <time>2011-04-15T08:16:36Z</time>
      </trkpt>
      <trkpt lat="48.57954" lon="2.10565">
        <ele>61</ele>
        <time>2011-04-15T08:16:37Z</time>
      </trkpt>
      <trkpt lat="48.57952" lon="2.10565">
        <ele>61</ele>
        <time>2011-04-15T08:16:38Z</time>
      </trkpt>
      <trkpt lat="48.5795" lon="2.10565">
        <ele>61</ele>
        <time>2011-04-15T08:16:39Z</time>
      </trkpt>
      <trkpt lat="48.57949" lon="2.10565">
        <ele>61</ele>
        <time>2011-04-15T08:16:40Z</time>
      </trkpt>
      <trkpt lat="48.57947" lon="2.10565">
        <ele>61</ele>
        <time>2011-04-15T08:16:41Z</time>
      </trkpt>
      <trkpt lat="48.57945" lon="2.10566">
        <ele>61</ele>
        <time>2011-04-15T08:16:42Z</time>
      </trkpt>
      <trkpt lat="48.57944" lon="2.10566">
        <ele>61</ele>
        <time>2011-04-15T08:16:43Z</time>
      </trkpt>
      <trkpt lat="48.57942" lon="2.10566">
        <ele>61</ele>
        <time>2011-04-15T08:16:44Z</time>
      </trkpt>
      <trkpt lat="48.5794" lon="2.10566">
        <ele>61</ele>
        <time>2011-04-15T08:16:45Z</time>
      </trkpt>
      <trkpt lat="48.57939" lon="2.10567">
        <ele>61</ele>
        <time>2011-04-15T08:16:46Z</time>
      </trkpt>
      <trkpt lat="48.57937" lon="2.10567">
        <ele>61</ele>
        <time>2011-04-15T08:16:47Z</time>
      </trkpt>
      <trkpt lat="48.57935" lon="2.10567">
        <ele>61</ele>
        <time>2011-04-15T08:16:48Z</time>
      </trkpt>
      <trkpt lat="48.57934" lon="2.10567">
        <ele>61</ele>
        <time>2011-04-15T08:16:49Z</time>
      </trkpt>
      <trkpt lat="48.57932" lon="2.10567">
        <ele>61</ele>
        <time>2011-04-15T08:16:50Z</time>
      </trkpt>
      <trkpt lat="48.5793" lon="2.10567">
        <ele>61</ele>
        <time>2011-04-15T08:16:51Z</time>
      </trkpt>
      <trkpt lat="48.57929" lon="2.10567">
        <ele>61</ele>
        <time>2011-04-15T08:16:52Z</time>
      </trkpt>
      <trkpt lat="48.57927" lon="2.10567">
        <ele>61</ele>
        <time>2011-04-15T08:16:53Z</time>
      </trkpt>
      <trkpt lat="48.57926" lon="2.10568">
        <ele>61</ele>
        <time>2011-04-15T08:16:54Z</time>
      </trkpt>
      <trkpt lat="48.57924" lon="2.10568">
        <ele>61</ele>
        <time>2011-04-15T08:16:55Z</time>
      </trkpt>
      <trkpt lat="48.57922" lon="2.10568">
        <ele>61</ele>
        <time>2011-04-15T08:16:56Z</time>
      </trkpt>
      <trkpt lat="48.57921" lon="2.10568">
        <ele>61</ele>
        <time>2011-04-15T08:16:57Z</time>
      </trkpt>
      <trkpt lat="48.57919" lon="2.10569">
        <ele>61</ele>
        <time>2011-04-15T08:16:58Z</time>
      </trkpt>
      <trkpt lat="48.57918" lon="2.10569">
        <ele>61</ele>
        <time>2011-04-15T08:16:59Z</time>
      </trkpt>
      <trkpt lat="48.57917" lon="2.10569">
        <ele>61</ele>
        <time>2011-04-15T08:17:00Z</time>
      </trkpt>
      <trkpt lat="48.57915" lon="2.10569">
        <ele>61</ele>
        <time>2011-04-15T08:17:01Z</time>
      </trkpt>
      <trkpt lat="48.57914" lon="2.1057">
        <ele>61</ele>
        <time>2011-04-15T08:17:02Z</time>
      </trkpt>
      <trkpt lat="48.57913" lon="2.1057">
        <ele>61</ele>
        <time>2011-04-15T08:17:03Z</time>
      </trkpt>
      <trkpt lat="48.57911" lon="2.1057">
        <ele>61</ele>
        <time>2011-04-15T08:17:04Z</time>
      </trkpt>
      <trkpt lat="48.5791" lon="2.10571">
        <ele>61</ele>
        <time>2011-04-15T08:17:05Z</time>
      </trkpt>
      <trkpt lat="48.57908" lon="2.10571">
        <ele>61</ele>
        <time>2011-04-15T08:17:06Z</time>
      </trkpt>
      <trkpt lat="48.57907" lon="2.10571">
        <ele>61</ele>
        <time>2011-04-15T08:17:07Z</time>
      </trkpt>
      <trkpt lat="48.57905" lon="2.10571">
        <ele>61</ele>
        <time>2011-04-15T08:17:08Z</time>
      </trkpt>
      <trkpt lat="48.57903" lon="2.10572">
        <ele>61</ele>
        <time>2011-04-15T08:17:09Z</time>
      </trkpt>
      <trkpt lat="48.57902" lon="2.10572">
        <ele>61</ele>
        <time>2011-04-15T08:17:10Z</time>
      </trkpt>
      <trkpt lat="48.579" lon="2.10572">
        <ele>61</ele>
        <time>2011-04-15T08:17:11Z</time>
      </trkpt>
      <trkpt lat="48.57898" lon="2.10572">
        <ele>61</ele>
        <time>2011-04-15T08:17:12Z</time>
      </trkpt>
      <trkpt lat="48.57897" lon="2.10573">
        <ele>61</ele>
        <time>2011-04-15T08:17:13Z</time>
      </trkpt>
      <trkpt lat="48.57895" lon="2.10573">
        <ele>61</ele>
        <time>2011-04-15T08:17:14Z</time>
      </trkpt>
      <trkpt lat="48.57894" lon="2.10573">
        <ele>61</ele>
        <time>2011-04-15T08:17:15Z</time>
      </trkpt>
      <trkpt lat="48.57892" lon="2.10574">
        <ele>61</ele>
        <time>2011-04-15T08:17:16Z</time>
      </trkpt>
      <trkpt lat="48.57891" lon="2.10574">
        <ele>61</ele>
        <time>2011-04-15T08:17:17Z</time>
      </trkpt>
      <trkpt lat="48.57889" lon="2.10574">
        <ele>61</ele>
        <time>2011-04-15T08:17:18Z</time>
      </trkpt>
      <trkpt lat="48.57887" lon="2.10574">
        <ele>61</ele>
        <time>2011-04-15T08:17:19Z</time>
      </trkpt>
      <trkpt lat="48.57886" lon="2.10575">
        <ele>61</ele>
        <time>2011-04-15T08:17:20Z</time>
      </trkpt>
      <trkpt lat="48.57884" lon="2.10575">
        <ele>61</ele>
        <time>2011-04-15T08:17:21Z</time>
      </trkpt>
      <trkpt lat="48.57883" lon="2.10575">
        <ele>61</ele>
        <time>2011-04-15T08:17:22Z</time>
      </trkpt>
      <trkpt lat="48.57882" lon="2.10575">
        <ele>61</ele>
        <time>2011-04-15T08:17:23Z</time>
      </trkpt>
      <trkpt lat="48.5788" lon="2.10575">
        <ele>61</ele>
        <time>2011-04-15T08:17:24Z</time>
      </trkpt>
      <trkpt lat="48.57878" lon="2.10576">
        <ele>61</ele>
        <time>2011-04-15T08:17:25Z</time>
      </trkpt>
      <trkpt lat="48.57877" lon="2.10576">
        <ele>61</ele>
        <time>2011-04-15T08:17:26Z</time>
      </trkpt>
      <trkpt lat="48.57875" lon="2.10576">
        <ele>61</ele>
        <time>2011-04-15T08:17:27Z</time>
      </trkpt>
      <trkpt lat="48.57874" lon="2.10576">
        <ele>61</ele>
        <time>2011-04-15T08:17:28Z</time>
      </trkpt>
      <trkpt lat="48.57872" lon="2.10576">
        <ele>61</ele>
        <time>2011-04-15T08:17:29Z</time>
      </trkpt>
      <trkpt lat="48.5787" lon="2.10576">
        <ele>61</ele>
        <time>2011-04-15T08:17:30Z</time>
      </trkpt>
      <trkpt lat="48.57869" lon="2.10576">
        <ele>61</ele>
        <time>2011-04-15T08:17:31Z</time>
      </trkpt>
      <trkpt lat="48.57867" lon="2.10576">
        <ele>61</ele>
        <time>2011-04-15T08:17:32Z</time>
      </trkpt>
      <trkpt lat="48.57865" lon="2.10576">
        <ele>61</ele>
        <time>2011-04-15T08:17:33Z</time>
      </trkpt>
      <trkpt lat="48.57864" lon="2.10577">
        <ele>61</ele>
        <time>2011-04-15T08:17:34Z</time>
      </trkpt>
      <trkpt lat="48.57862" lon="2.10577">
        <ele>61</ele>
        <time>2011-04-15T08:17:35Z</time>
      </trkpt>
      <trkpt lat="48.57861" lon="2.10577">
        <ele>61</ele>
        <time>2011-04-15T08:17:36Z</time>
      </trkpt>
      <trkpt lat="48.57859" lon="2.10577">
        <ele>61</ele>
        <time>2011-04-15T08:17:37Z</time>
      </trkpt>
      <trkpt lat="48.57857" lon="2.10577">
        <ele>61</ele>
        <time>2011-04-15T08:17:38Z</time>
      </trkpt>
      <trkpt lat="48.57856" lon="2.10578">
        <ele>61</ele>
        <time>2011-04-15T08:17:39Z</time>
      </trkpt>
      <trkpt lat="48.57854" lon="2.10578">
        <ele>61</ele>
        <time>2011-04-15T08:17:40Z</time>
      </trkpt>
      <trkpt lat="48.57852" lon="2.10578">
        <ele>61</ele>
        <time>2011-04-15T08:17:41Z</time>
      </trkpt>
      <trkpt lat="48.57851" lon="2.10578">
        <ele>61</ele>
        <time>2011-04-15T08:17:42Z</time>
      </trkpt>
      <trkpt lat="48.57849" lon="2.10578">
        <ele>61</ele>
        <time>2011-04-15T08:17:43Z</time>
      </trkpt>
      <trkpt lat="48.57848" lon="2.10578">
        <ele>61</ele>
        <time>2011-04-15T08:17:44Z</time>
      </trkpt>
      <trkpt lat="48.57846" lon="2.10579">
        <ele>61</ele>
        <time>2011-04-15T08:17:45Z</time>
      </trkpt>
      <trkpt lat="48.57845" lon="2.10579">
        <ele>61</ele>
        <time>2011-04-15T08:17:46Z</time>
      </trkpt>
      <trkpt lat="48.57843" lon="2.10579">
        <ele>61</ele>
        <time>2011-04-15T08:17:47Z</time>
      </trkpt>
      <trkpt lat="48.57842" lon="2.1058">
        <ele>61</ele>
        <time>2011-04-15T08:17:48Z</time>
      </trkpt>
      <trkpt lat="48.5784" lon="2.1058">
        <ele>61</ele>
        <time>2011-04-15T08:17:49Z</time>
      </trkpt>
      <trkpt lat="48.57839" lon="2.10581">
        <ele>61</ele>
        <time>2011-04-15T08:17:50Z</time>
      </trkpt>
      <trkpt lat="48.57838" lon="2.1058">
        <ele>61</ele>
        <time>2011-04-15T08:17:51Z</time>
      </trkpt>
      <trkpt lat="48.57836" lon="2.1058">
        <ele>61</ele>
        <time>2011-04-15T08:17:52Z</time>
      </trkpt>
      <trkpt lat="48.57835" lon="2.1058">
        <ele>61</ele>
        <time>2011-04-15T08:17:53Z</time>
      </trkpt>
      <trkpt lat="48.57833" lon="2.10581">
        <ele>61</ele>
        <time>2011-04-15T08:17:54Z</time>
      </trkpt>
      <trkpt lat="48.57832" lon="2.10581">
        <ele>61</ele>
        <time>2011-04-15T08:17:55Z</time>
      </trkpt>
      <trkpt lat="48.5783" lon="2.10581">
        <ele>61</ele>
        <time>2011-04-15T08:17:56Z</time>
      </trkpt>
      <trkpt lat="48.57828" lon="2.10581">
        <ele>61</ele>
        <time>2011-04-15T08:17:57Z</time>
      </trkpt>
      <trkpt lat="48.57827" lon="2.10581">
        <ele>61</ele>
        <time>2011-04-15T08:17:58Z</time>
      </trkpt>
      <trkpt lat="48.57825" lon="2.10581">
        <ele>61</ele>
        <time>2011-04-15T08:17:59Z</time>
      </trkpt>
      <trkpt lat="48.57823" lon="2.10582">
        <ele>61</ele>
        <time>2011-04-15T08:18:00Z</time>
      </trkpt>
      <trkpt lat="48.57822" lon="2.10582">
        <ele>61</ele>
        <time>2011-04-15T08:18:01Z</time>
      </trkpt>
      <trkpt lat="48.5782" lon="2.10582">
        <ele>61</ele>
        <time>2011-04-15T08:18:02Z</time>
      </trkpt>
      <trkpt lat="48.57819" lon="2.10583">
        <ele>61</ele>
        <time>2011-04-15T08:18:03Z</time>
      </trkpt>
      <trkpt lat="48.57817" lon="2.10583">
        <ele>61</ele>
        <time>2011-04-15T08:18:04Z</time>
      </trkpt>
      <trkpt lat="48.57815" lon="2.10584">
        <ele>61</ele>
        <time>2011-04-15T08:18:05Z</time>
      </trkpt>
      <trkpt lat="48.57814" lon="2.10584">
        <ele>61</ele>
        <time>2011-04-15T08:18:06Z</time>
      </trkpt>
      <trkpt lat="48.57812" lon="2.10584">
        <ele>61</ele>
        <time>2011-04-15T08:18:07Z</time>
      </trkpt>
      <trkpt lat="48.57811" lon="2.10585">
        <ele>61</ele>
        <time>2011-04-15T08:18:08Z</time>
      </trkpt>
      <trkpt lat="48.57809" lon="2.10585">
        <ele>61</ele>
        <time>2011-04-15T08:18:09Z</time>
      </trkpt>
      <trkpt lat="48.57807" lon="2.10586">
        <ele>61</ele>
        <time>2011-04-15T08:18:10Z</time>
      </trkpt>
      <trkpt lat="48.57805" lon="2.10586">
        <ele>61</ele>
        <time>2011-04-15T08:18:11Z</time>
      </trkpt>
      <trkpt lat="48.57804" lon="2.10587">
        <ele>61</ele>
        <time>2011-04-15T08:18:12Z</time>
      </trkpt>
      <trkpt lat="48.57802" lon="2.10587">
        <ele>61</ele>
        <time>2011-04-15T08:18:13Z</time>
      </trkpt>
      <trkpt lat="48.57801" lon="2.10588">
        <ele>61</ele>
        <time>2011-04-15T08:18:14Z</time>
      </trkpt>
      <trkpt lat="48.57799" lon="2.10588">
        <ele>61</ele>
        <time>2011-04-15T08:18:15Z</time>
      </trkpt>
      <trkpt lat="48.57797" lon="2.10589">
        <ele>61</ele>
        <time>2011-04-15T08:18:16Z</time>
      </trkpt>
      <trkpt lat="48.57796" lon="2.10589">
        <ele>61</ele>
        <time>2011-04-15T08:18:17Z</time>
      </trkpt>
      <trkpt lat="48.57794" lon="2.1059">
        <ele>61</ele>
        <time>2011-04-15T08:18:18Z</time>
      </trkpt>
      <trkpt lat="48.57792" lon="2.1059">
        <ele>61</ele>
        <time>2011-04-15T08:18:19Z</time>
      </trkpt>
      <trkpt lat="48.57791" lon="2.10591">
        <ele>61</ele>
        <time>2011-04-15T08:18:20Z</time>
      </trkpt>
      <trkpt lat="48.57789" lon="2.10591">
        <ele>61</ele>
        <time>2011-04-15T08:18:21Z</time>
      </trkpt>
      <trkpt lat="48.57787" lon="2.10592">
        <ele>61</ele>
        <time>2011-04-15T08:18:22Z</time>
      </trkpt>
      <trkpt lat="48.57786" lon="2.10593">
        <ele>61</ele>
        <time>2011-04-15T08:18:23Z</time>
      </trkpt>
      <trkpt lat="48.57784" lon="2.10594">
        <ele>61</ele>
        <time>2011-04-15T08:18:24Z</time>
      </trkpt>
      <trkpt lat="48.57783" lon="2.10594">
        <ele>61</ele>
        <time>2011-04-15T08:18:25Z</time>
      </trkpt>
      <trkpt lat="48.57781" lon="2.10595">
        <ele>61</ele>
        <time>2011-04-15T08:18:26Z</time>
      </trkpt>
      <trkpt lat="48.5778" lon="2.10596">
        <ele>60</ele>
        <time>2011-04-15T08:18:27Z</time>
      </trkpt>
      <trkpt lat="48.57778" lon="2.10597">
        <ele>60</ele>
        <time>2011-04-15T08:18:28Z</time>
      </trkpt>
      <trkpt lat="48.57776" lon="2.10597">
        <ele>60</ele>
        <time>2011-04-15T08:18:29Z</time>
      </trkpt>
      <trkpt lat="48.57774" lon="2.10597">
        <ele>60</ele>
        <time>2011-04-15T08:18:30Z</time>
      </trkpt>
      <trkpt lat="48.57772" lon="2.10597">
        <ele>60</ele>
        <time>2011-04-15T08:18:31Z</time>
      </trkpt>
      <trkpt lat="48.57771" lon="2.10598">
        <ele>60</ele>
        <time>2011-04-15T08:18:32Z</time>
      </trkpt>
      <trkpt lat="48.5777" lon="2.10599">
        <ele>60</ele>
        <time>2011-04-15T08:18:35Z</time>
      </trkpt>
      <trkpt lat="48.57768" lon="2.10599">
        <ele>60</ele>
        <time>2011-04-15T08:18:37Z</time>
      </trkpt>
      <trkpt lat="48.57766" lon="2.10599">
        <ele>60</ele>
        <time>2011-04-15T08:18:38Z</time>
      </trkpt>
      <trkpt lat="48.57764" lon="2.106">
        <ele>60</ele>
        <time>2011-04-15T08:18:39Z</time>
      </trkpt>
      <trkpt lat="48.57763" lon="2.106">
        <ele>60</ele>
        <time>2011-04-15T08:18:40Z</time>
      </trkpt>
      <trkpt lat="48.57761" lon="2.106">
        <ele>60</ele>
        <time>2011-04-15T08:18:41Z</time>
      </trkpt>
      <trkpt lat="48.57759" lon="2.10601">
        <ele>60</ele>
        <time>2011-04-15T08:18:42Z</time>
      </trkpt>
      <trkpt lat="48.57758" lon="2.10601">
        <ele>60</ele>
        <time>2011-04-15T08:18:43Z</time>
      </trkpt>
      <trkpt lat="48.57756" lon="2.10602">
        <ele>60</ele>
        <time>2011-04-15T08:18:44Z</time>
      </trkpt>
      <trkpt lat="48.57755" lon="2.10603">
        <ele>60</ele>
        <time>2011-04-15T08:18:45Z</time>
      </trkpt>
      <trkpt lat="48.57753" lon="2.10603">
        <ele>60</ele>
        <time>2011-04-15T08:18:46Z</time>
      </trkpt>
      <trkpt lat="48.57751" lon="2.10603">
        <ele>60</ele>
        <time>2011-04-15T08:18:47Z</time>
      </trkpt>
      <trkpt lat="48.57749" lon="2.10603">
        <ele>60</ele>
        <time>2011-04-15T08:18:48Z</time>
      </trkpt>
      <trkpt lat="48.57748" lon="2.10604">
        <ele>60</ele>
        <time>2011-04-15T08:18:49Z</time>
      </trkpt>
      <trkpt lat="48.57746" lon="2.10604">
        <ele>60</ele>
        <time>2011-04-15T08:18:50Z</time>
      </trkpt>
      <trkpt lat="48.57745" lon="2.10604">
        <ele>60</ele>
        <time>2011-04-15T08:18:51Z</time>
      </trkpt>
      <trkpt lat="48.57743" lon="2.10605">
        <ele>60</ele>
        <time>2011-04-15T08:18:52Z</time>
      </trkpt>
      <trkpt lat="48.57741" lon="2.10605">
        <ele>60</ele>
        <time>2011-04-15T08:18:53Z</time>
      </trkpt>
      <trkpt lat="48.5774" lon="2.10605">
        <ele>60</ele>
        <time>2011-04-15T08:18:54Z</time>
      </trkpt>
      <trkpt lat="48.57738" lon="2.10606">
        <ele>60</ele>
        <time>2011-04-15T08:18:55Z</time>
      </trkpt>
      <trkpt lat="48.57737" lon="2.10606">
        <ele>60</ele>
        <time>2011-04-15T08:18:56Z</time>
      </trkpt>
      <trkpt lat="48.57735" lon="2.10607">
        <ele>60</ele>
        <time>2011-04-15T08:18:57Z</time>
      </trkpt>
      <trkpt lat="48.57733" lon="2.10607">
        <ele>60</ele>
        <time>2011-04-15T08:18:58Z</time>
      </trkpt>
      <trkpt lat="48.57732" lon="2.10607">
        <ele>60</ele>
        <time>2011-04-15T08:18:59Z</time>
      </trkpt>
      <trkpt lat="48.5773" lon="2.10607">
        <ele>60</ele>
        <time>2011-04-15T08:19:00Z</time>
      </trkpt>
      <trkpt lat="48.57729" lon="2.10607">
        <ele>60</ele>
        <time>2011-04-15T08:19:01Z</time>
      </trkpt>
      <trkpt lat="48.57727" lon="2.10608">
        <ele>60</ele>
        <time>2011-04-15T08:19:02Z</time>
      </trkpt>
      <trkpt lat="48.57726" lon="2.10608">
        <ele>60</ele>
        <time>2011-04-15T08:19:03Z</time>
      </trkpt>
      <trkpt lat="48.57724" lon="2.10609">
        <ele>60</ele>
        <time>2011-04-15T08:19:04Z</time>
      </trkpt>
      <trkpt lat="48.57723" lon="2.10609">
        <ele>60</ele>
        <time>2011-04-15T08:19:05Z</time>
      </trkpt>
      <trkpt lat="48.57721" lon="2.1061">
        <ele>60</ele>
        <time>2011-04-15T08:19:06Z</time>
      </trkpt>
      <trkpt lat="48.5772" lon="2.10611">
        <ele>60</ele>
        <time>2011-04-15T08:19:07Z</time>
      </trkpt>
      <trkpt lat="48.57718" lon="2.10611">
        <ele>60</ele>
        <time>2011-04-15T08:19:08Z</time>
      </trkpt>
      <trkpt lat="48.57716" lon="2.10612">
        <ele>60</ele>
        <time>2011-04-15T08:19:09Z</time>
      </trkpt>
      <trkpt lat="48.57715" lon="2.10612">
        <ele>60</ele>
        <time>2011-04-15T08:19:10Z</time>
      </trkpt>
      <trkpt lat="48.57713" lon="2.10612">
        <ele>60</ele>
        <time>2011-04-15T08:19:11Z</time>
      </trkpt>
      <trkpt lat="48.57711" lon="2.10613">
        <ele>60</ele>
        <time>2011-04-15T08:19:12Z</time>
      </trkpt>
      <trkpt lat="48.5771" lon="2.10613">
        <ele>60</ele>
        <time>2011-04-15T08:19:13Z</time>
      </trkpt>
      <trkpt lat="48.57708" lon="2.10613">
        <ele>60</ele>
        <time>2011-04-15T08:19:14Z</time>
      </trkpt>
      <trkpt lat="48.57706" lon="2.10614">
        <ele>60</ele>
        <time>2011-04-15T08:19:15Z</time>
      </trkpt>
      <trkpt lat="48.57705" lon="2.10614">
        <ele>60</ele>
        <time>2011-04-15T08:19:16Z</time>
      </trkpt>
      <trkpt lat="48.57703" lon="2.10614">
        <ele>60</ele>
        <time>2011-04-15T08:19:17Z</time>
      </trkpt>
      <trkpt lat="48.57702" lon="2.10614">
        <ele>60</ele>
        <time>2011-04-15T08:19:18Z</time>
      </trkpt>
      <trkpt lat="48.577" lon="2.10615">
        <ele>60</ele>
        <time>2011-04-15T08:19:19Z</time>
      </trkpt>
      <trkpt lat="48.57699" lon="2.10615">
        <ele>60</ele>
        <time>2011-04-15T08:19:20Z</time>
      </trkpt>
      <trkpt lat="48.57697" lon="2.10616">
        <ele>60</ele>
        <time>2011-04-15T08:19:21Z</time>
      </trkpt>
      <trkpt lat="48.57696" lon="2.10616">
        <ele>60</ele>
        <time>2011-04-15T08:19:22Z</time>
      </trkpt>
      <trkpt lat="48.57694" lon="2.10617">
        <ele>60</ele>
        <time>2011-04-15T08:19:23Z</time>
      </trkpt>
      <trkpt lat="48.57692" lon="2.10617">
        <ele>60</ele>
        <time>2011-04-15T08:19:24Z</time>
      </trkpt>
      <trkpt lat="48.57691" lon="2.10618">
        <ele>60</ele>
        <time>2011-04-15T08:19:25Z</time>
      </trkpt>
      <trkpt lat="48.57689" lon="2.10618">
        <ele>60</ele>
        <time>2011-04-15T08:19:26Z</time>
      </trkpt>
      <trkpt lat="48.57687" lon="2.10618">
        <ele>60</ele>
        <time>2011-04-15T08:19:27Z</time>
      </trkpt>
      <trkpt lat="48.57686" lon="2.10619">
        <ele>60</ele>
        <time>2011-04-15T08:19:28Z</time>
      </trkpt>
      <trkpt lat="48.57684" lon="2.10619">
        <ele>60</ele>
        <time>2011-04-15T08:19:29Z</time>
      </trkpt>
      <trkpt lat="48.57683" lon="2.1062">
        <ele>60</ele>
        <time>2011-04-15T08:19:30Z</time>
      </trkpt>
      <trkpt lat="48.57681" lon="2.1062">
        <ele>60</ele>
        <time>2011-04-15T08:19:31Z</time>
      </trkpt>
      <trkpt lat="48.5768" lon="2.10621">
        <ele>60</ele>
        <time>2011-04-15T08:19:32Z</time>
      </trkpt>
      <trkpt lat="48.57678" lon="2.10621">
        <ele>60</ele>
        <time>2011-04-15T08:19:33Z</time>
      </trkpt>
      <trkpt lat="48.57677" lon="2.10621">
        <ele>60</ele>
        <time>2011-04-15T08:19:34Z</time>
      </trkpt>
      <trkpt lat="48.57675" lon="2.10622">
        <ele>60</ele>
        <time>2011-04-15T08:19:35Z</time>
      </trkpt>
      <trkpt lat="48.57674" lon="2.10622">
        <ele>60</ele>
        <time>2011-04-15T08:19:36Z</time>
      </trkpt>
      <trkpt lat="48.57672" lon="2.10622">
        <ele>60</ele>
        <time>2011-04-15T08:19:38Z</time>
      </trkpt>
      <trkpt lat="48.5767" lon="2.10623">
        <ele>60</ele>
        <time>2011-04-15T08:19:40Z</time>
      </trkpt>
      <trkpt lat="48.57669" lon="2.10624">
        <ele>60</ele>
        <time>2011-04-15T08:19:41Z</time>
      </trkpt>
      <trkpt lat="48.57667" lon="2.10625">
        <ele>60</ele>
        <time>2011-04-15T08:19:42Z</time>
      </trkpt>
      <trkpt lat="48.57665" lon="2.10625">
        <ele>60</ele>
        <time>2011-04-15T08:19:43Z</time>
      </trkpt>
      <trkpt lat="48.57664" lon="2.10626">
        <ele>60</ele>
        <time>2011-04-15T08:19:44Z</time>
      </trkpt>
      <trkpt lat="48.57662" lon="2.10626">
        <ele>60</ele>
        <time>2011-04-15T08:19:45Z</time>
      </trkpt>
      <trkpt lat="48.57661" lon="2.10627">
        <ele>60</ele>
        <time>2011-04-15T08:19:46Z</time>
      </trkpt>
      <trkpt lat="48.57658" lon="2.10628">
        <ele>60</ele>
        <time>2011-04-15T08:19:48Z</time>
      </trkpt>
      <trkpt lat="48.57657" lon="2.10628">
        <ele>60</ele>
        <time>2011-04-15T08:19:49Z</time>
      </trkpt>
      <trkpt lat="48.57655" lon="2.10628">
        <ele>60</ele>
        <time>2011-04-15T08:19:50Z</time>
      </trkpt>
      <trkpt lat="48.57653" lon="2.10629">
        <ele>60</ele>
        <time>2011-04-15T08:19:51Z</time>
      </trkpt>
      <trkpt lat="48.57652" lon="2.1063">
        <ele>60</ele>
        <time>2011-04-15T08:19:52Z</time>
      </trkpt>
      <trkpt lat="48.5765" lon="2.1063">
        <ele>60</ele>
        <time>2011-04-15T08:19:53Z</time>
      </trkpt>
      <trkpt lat="48.57649" lon="2.1063">
        <ele>60</ele>
        <time>2011-04-15T08:19:54Z</time>
      </trkpt>
      <trkpt lat="48.57647" lon="2.10631">
        <ele>60</ele>
        <time>2011-04-15T08:19:55Z</time>
      </trkpt>
      <trkpt lat="48.57645" lon="2.10631">
        <ele>60</ele>
        <time>2011-04-15T08:19:56Z</time>
      </trkpt>
      <trkpt lat="48.57644" lon="2.10632">
        <ele>60</ele>
        <time>2011-04-15T08:19:57Z</time>
      </trkpt>
      <trkpt lat="48.57642" lon="2.10633">
        <ele>60</ele>
        <time>2011-04-15T08:19:58Z</time>
      </trkpt>
      <trkpt lat="48.5764" lon="2.10633">
        <ele>60</ele>
        <time>2011-04-15T08:19:59Z</time>
      </trkpt>
      <trkpt lat="48.57639" lon="2.10634">
        <ele>60</ele>
        <time>2011-04-15T08:20:00Z</time>
      </trkpt>
      <trkpt lat="48.57637" lon="2.10634">
        <ele>60</ele>
        <time>2011-04-15T08:20:01Z</time>
      </trkpt>
      <trkpt lat="48.57635" lon="2.10635">
        <ele>60</ele>
        <time>2011-04-15T08:20:02Z</time>
      </trkpt>
      <trkpt lat="48.57634" lon="2.10635">
        <ele>60</ele>
        <time>2011-04-15T08:20:03Z</time>
      </trkpt>
      <trkpt lat="48.57632" lon="2.10635">
        <ele>60</ele>
        <time>2011-04-15T08:20:04Z</time>
      </trkpt>
      <trkpt lat="48.57631" lon="2.10636">
        <ele>60</ele>
        <time>2011-04-15T08:20:05Z</time>
      </trkpt>
      <trkpt lat="48.5763" lon="2.10636">
        <ele>60</ele>
        <time>2011-04-15T08:20:06Z</time>
      </trkpt>
      <trkpt lat="48.57628" lon="2.10637">
        <ele>60</ele>
        <time>2011-04-15T08:20:07Z</time>
      </trkpt>
      <trkpt lat="48.57627" lon="2.10637">
        <ele>60</ele>
        <time>2011-04-15T08:20:08Z</time>
      </trkpt>
      <trkpt lat="48.57625" lon="2.10638">
        <ele>60</ele>
        <time>2011-04-15T08:20:09Z</time>
      </trkpt>
      <trkpt lat="48.57624" lon="2.10638">
        <ele>60</ele>
        <time>2011-04-15T08:20:10Z</time>
      </trkpt>
      <trkpt lat="48.57623" lon="2.10639">
        <ele>60</ele>
        <time>2011-04-15T08:20:11Z</time>
      </trkpt>
      <trkpt lat="48.57621" lon="2.10641">
        <ele>60</ele>
        <time>2011-04-15T08:20:13Z</time>
      </trkpt>
      <trkpt lat="48.5762" lon="2.10642">
        <ele>60</ele>
        <time>2011-04-15T08:20:14Z</time>
      </trkpt>
      <trkpt lat="48.5762" lon="2.10645">
        <ele>60</ele>
        <time>2011-04-15T08:20:15Z</time>
      </trkpt>
      <trkpt lat="48.5762" lon="2.10647">
        <ele>60</ele>
        <time>2011-04-15T08:20:16Z</time>
      </trkpt>
      <trkpt lat="48.57619" lon="2.1065">
        <ele>60</ele>
        <time>2011-04-15T08:20:17Z</time>
      </trkpt>
      <trkpt lat="48.57619" lon="2.10652">
        <ele>60</ele>
        <time>2011-04-15T08:20:18Z</time>
      </trkpt>
      <trkpt lat="48.57619" lon="2.10655">
        <ele>60</ele>
        <time>2011-04-15T08:20:19Z</time>
      </trkpt>
      <trkpt lat="48.57619" lon="2.10657">
        <ele>60</ele>
        <time>2011-04-15T08:20:20Z</time>
      </trkpt>
      <trkpt lat="48.57619" lon="2.10659">
        <ele>60</ele>
        <time>2011-04-15T08:20:21Z</time>
      </trkpt>
      <trkpt lat="48.57619" lon="2.10662">
        <ele>60</ele>
        <time>2011-04-15T08:20:22Z</time>
      </trkpt>
      <trkpt lat="48.57619" lon="2.10664">
        <ele>60</ele>
        <time>2011-04-15T08:20:23Z</time>
      </trkpt>
      <trkpt lat="48.57619" lon="2.10667">
        <ele>60</ele>
        <time>2011-04-15T08:20:24Z</time>
      </trkpt>
      <trkpt lat="48.57619" lon="2.10669">
        <ele>60</ele>
        <time>2011-04-15T08:20:25Z</time>
      </trkpt>
      <trkpt lat="48.5762" lon="2.10672">
        <ele>60</ele>
        <time>2011-04-15T08:20:26Z</time>
      </trkpt>
      <trkpt lat="48.5762" lon="2.10674">
        <ele>60</ele>
        <time>2011-04-15T08:20:27Z</time>
      </trkpt>
      <trkpt lat="48.57621" lon="2.10677">
        <ele>60</ele>
        <time>2011-04-15T08:20:28Z</time>
      </trkpt>
      <trkpt lat="48.57621" lon="2.1068">
        <ele>60</ele>
        <time>2011-04-15T08:20:29Z</time>
      </trkpt>
      <trkpt lat="48.57621" lon="2.10682">
        <ele>60</ele>
        <time>2011-04-15T08:20:30Z</time>
      </trkpt>
      <trkpt lat="48.57621" lon="2.10684">
        <ele>60</ele>
        <time>2011-04-15T08:20:31Z</time>
      </trkpt>
      <trkpt lat="48.57621" lon="2.10687">
        <ele>60</ele>
        <time>2011-04-15T08:20:32Z</time>
      </trkpt>
      <trkpt lat="48.57621" lon="2.1069">
        <ele>60</ele>
        <time>2011-04-15T08:20:33Z</time>
      </trkpt>
      <trkpt lat="48.57621" lon="2.10692">
        <ele>60</ele>
        <time>2011-04-15T08:20:34Z</time>
      </trkpt>
      <trkpt lat="48.57621" lon="2.10694">
        <ele>60</ele>
        <time>2011-04-15T08:20:35Z</time>
      </trkpt>
      <trkpt lat="48.5762" lon="2.10696">
        <ele>60</ele>
        <time>2011-04-15T08:20:36Z</time>
      </trkpt>
      <trkpt lat="48.5762" lon="2.10698">
        <ele>60</ele>
        <time>2011-04-15T08:20:37Z</time>
      </trkpt>
      <trkpt lat="48.5762" lon="2.10701">
        <ele>60</ele>
        <time>2011-04-15T08:20:38Z</time>
      </trkpt>
      <trkpt lat="48.57621" lon="2.10703">
        <ele>60</ele>
        <time>2011-04-15T08:20:39Z</time>
      </trkpt>
      <trkpt lat="48.57621" lon="2.10706">
        <ele>60</ele>
        <time>2011-04-15T08:20:40Z</time>
      </trkpt>
      <trkpt lat="48.57621" lon="2.10708">
        <ele>60</ele>
        <time>2011-04-15T08:20:41Z</time>
      </trkpt>
      <trkpt lat="48.57621" lon="2.10711">
        <ele>60</ele>
        <time>2011-04-15T08:20:42Z</time>
      </trkpt>
      <trkpt lat="48.5762" lon="2.10713">
        <ele>60</ele>
        <time>2011-04-15T08:20:43Z</time>
      </trkpt>
      <trkpt lat="48.5762" lon="2.10716">
        <ele>60</ele>
        <time>2011-04-15T08:20:44Z</time>
      </trkpt>
      <trkpt lat="48.5762" lon="2.10718">
        <ele>60</ele>
        <time>2011-04-15T08:20:45Z</time>
      </trkpt>
      <trkpt lat="48.5762" lon="2.1072">
        <ele>60</ele>
        <time>2011-04-15T08:20:46Z</time>
      </trkpt>
      <trkpt lat="48.57619" lon="2.10722">
        <ele>60</ele>
        <time>2011-04-15T08:20:47Z</time>
      </trkpt>
      <trkpt lat="48.57619" lon="2.10726">
        <ele>61</ele>
        <time>2011-04-15T08:20:49Z</time>
      </trkpt>
      <trkpt lat="48.57619" lon="2.10728">
        <ele>61</ele>
        <time>2011-04-15T08:20:50Z</time>
      </trkpt>
      <trkpt lat="48.57619" lon="2.1073">
        <ele>61</ele>
        <time>2011-04-15T08:20:51Z</time>
      </trkpt>
      <trkpt lat="48.57619" lon="2.10733">
        <ele>61</ele>
        <time>2011-04-15T08:20:53Z</time>
      </trkpt>
      <trkpt lat="48.57619" lon="2.10735">
        <ele>61</ele>
        <time>2011-04-15T08:20:54Z</time>
      </trkpt>
      <trkpt lat="48.57619" lon="2.10737">
        <ele>61</ele>
        <time>2011-04-15T08:20:55Z</time>
      </trkpt>
      <trkpt lat="48.57619" lon="2.1074">
        <ele>61</ele>
        <time>2011-04-15T08:20:56Z</time>
      </trkpt>
      <trkpt lat="48.57619" lon="2.10742">
        <ele>61</ele>
        <time>2011-04-15T08:20:57Z</time>
      </trkpt>
      <trkpt lat="48.57619" lon="2.10744">
        <ele>61</ele>
        <time>2011-04-15T08:20:58Z</time>
      </trkpt>
      <trkpt lat="48.57619" lon="2.10746">
        <ele>61</ele>
        <time>2011-04-15T08:20:59Z</time>
      </trkpt>
      <trkpt lat="48.57619" lon="2.10749">
        <ele>61</ele>
        <time>2011-04-15T08:21:00Z</time>
      </trkpt>
      <trkpt lat="48.57619" lon="2.10751">
        <ele>61</ele>
        <time>2011-04-15T08:21:01Z</time>
      </trkpt>
      <trkpt lat="48.57618" lon="2.10753">
        <ele>61</ele>
        <time>2011-04-15T08:21:02Z</time>
      </trkpt>
      <trkpt lat="48.57618" lon="2.10755">
        <ele>61</ele>
        <time>2011-04-15T08:21:03Z</time>
      </trkpt>
      <trkpt lat="48.57618" lon="2.10758">
        <ele>61</ele>
        <time>2011-04-15T08:21:04Z</time>
      </trkpt>
      <trkpt lat="48.57618" lon="2.1076">
        <ele>61</ele>
        <time>2011-04-15T08:21:05Z</time>
      </trkpt>
      <trkpt lat="48.57618" lon="2.10762">
        <ele>61</ele>
        <time>2011-04-15T08:21:06Z</time>
      </trkpt>
      <trkpt lat="48.57618" lon="2.10764">
        <ele>61</ele>
        <time>2011-04-15T08:21:07Z</time>
      </trkpt>
      <trkpt lat="48.57618" lon="2.10767">
        <ele>61</ele>
        <time>2011-04-15T08:21:08Z</time>
      </trkpt>
      <trkpt lat="48.57619" lon="2.1077">
        <ele>62</ele>
        <time>2011-04-15T08:21:09Z</time>
      </trkpt>
      <trkpt lat="48.57619" lon="2.10772">
        <ele>62</ele>
        <time>2011-04-15T08:21:10Z</time>
      </trkpt>
      <trkpt lat="48.57619" lon="2.10775">
        <ele>62</ele>
        <time>2011-04-15T08:21:11Z</time>
      </trkpt>
      <trkpt lat="48.57618" lon="2.10777">
        <ele>62</ele>
        <time>2011-04-15T08:21:12Z</time>
      </trkpt>
      <trkpt lat="48.57618" lon="2.10779">
        <ele>63</ele>
        <time>2011-04-15T08:21:13Z</time>
      </trkpt>
      <trkpt lat="48.57618" lon="2.10782">
        <ele>63</ele>
        <time>2011-04-15T08:21:14Z</time>
      </trkpt>
      <trkpt lat="48.57618" lon="2.10784">
        <ele>63</ele>
        <time>2011-04-15T08:21:15Z</time>
      </trkpt>
      <trkpt lat="48.57618" lon="2.10787">
        <ele>63</ele>
        <time>2011-04-15T08:21:16Z</time>
      </trkpt>
      <trkpt lat="48.57617" lon="2.10789">
        <ele>63</ele>
        <time>2011-04-15T08:21:17Z</time>
      </trkpt>
      <trkpt lat="48.57617" lon="2.10791">
        <ele>63</ele>
        <time>2011-04-15T08:21:18Z</time>
      </trkpt>
      <trkpt lat="48.57617" lon="2.10794">
        <ele>63</ele>
        <time>2011-04-15T08:21:19Z</time>
      </trkpt>
      <trkpt lat="48.57617" lon="2.10796">
        <ele>63</ele>
        <time>2011-04-15T08:21:20Z</time>
      </trkpt>
      <trkpt lat="48.57617" lon="2.10799">
        <ele>63</ele>
        <time>2011-04-15T08:21:21Z</time>
      </trkpt>
      <trkpt lat="48.57617" lon="2.10801">
        <ele>63</ele>
        <time>2011-04-15T08:21:22Z</time>
      </trkpt>
      <trkpt lat="48.57616" lon="2.10803">
        <ele>63</ele>
        <time>2011-04-15T08:21:23Z</time>
      </trkpt>
      <trkpt lat="48.57616" lon="2.10806">
        <ele>63</ele>
        <time>2011-04-15T08:21:24Z</time>
      </trkpt>
      <trkpt lat="48.57616" lon="2.10808">
        <ele>63</ele>
        <time>2011-04-15T08:21:25Z</time>
      </trkpt>
      <trkpt lat="48.57616" lon="2.10811">
        <ele>63</ele>
        <time>2011-04-15T08:21:26Z</time>
      </trkpt>
      <trkpt lat="48.57616" lon="2.10813">
        <ele>63</ele>
        <time>2011-04-15T08:21:27Z</time>
      </trkpt>
      <trkpt lat="48.57616" lon="2.10816">
        <ele>63</ele>
        <time>2011-04-15T08:21:28Z</time>
      </trkpt>
      <trkpt lat="48.57616" lon="2.10818">
        <ele>63</ele>
        <time>2011-04-15T08:21:29Z</time>
      </trkpt>
      <trkpt lat="48.57615" lon="2.1082">
        <ele>63</ele>
        <time>2011-04-15T08:21:30Z</time>
      </trkpt>
      <trkpt lat="48.57615" lon="2.10822">
        <ele>63</ele>
        <time>2011-04-15T08:21:31Z</time>
      </trkpt>
      <trkpt lat="48.57615" lon="2.10825">
        <ele>63</ele>
        <time>2011-04-15T08:21:32Z</time>
      </trkpt>
      <trkpt lat="48.57615" lon="2.10828">
        <ele>63</ele>
        <time>2011-04-15T08:21:33Z</time>
      </trkpt>
      <trkpt lat="48.57615" lon="2.1083">
        <ele>63</ele>
        <time>2011-04-15T08:21:34Z</time>
      </trkpt>
      <trkpt lat="48.57615" lon="2.10833">
        <ele>63</ele>
        <time>2011-04-15T08:21:35Z</time>
      </trkpt>
      <trkpt lat="48.57615" lon="2.10835">
        <ele>63</ele>
        <time>2011-04-15T08:21:36Z</time>
      </trkpt>
      <trkpt lat="48.57615" lon="2.10838">
        <ele>63</ele>
        <time>2011-04-15T08:21:37Z</time>
      </trkpt>
      <trkpt lat="48.57615" lon="2.1084">
        <ele>63</ele>
        <time>2011-04-15T08:21:38Z</time>
      </trkpt>
      <trkpt lat="48.57615" lon="2.10843">
        <ele>63</ele>
        <time>2011-04-15T08:21:39Z</time>
      </trkpt>
      <trkpt lat="48.57615" lon="2.10845">
        <ele>64</ele>
        <time>2011-04-15T08:21:40Z</time>
      </trkpt>
      <trkpt lat="48.57615" lon="2.10848">
        <ele>64</ele>
        <time>2011-04-15T08:21:41Z</time>
      </trkpt>
      <trkpt lat="48.57616" lon="2.10851">
        <ele>64</ele>
        <time>2011-04-15T08:21:42Z</time>
      </trkpt>
      <trkpt lat="48.57616" lon="2.10853">
        <ele>64</ele>
        <time>2011-04-15T08:21:43Z</time>
      </trkpt>
      <trkpt lat="48.57616" lon="2.10856">
        <ele>64</ele>
        <time>2011-04-15T08:21:44Z</time>
      </trkpt>
      <trkpt lat="48.57616" lon="2.10858">
        <ele>64</ele>
        <time>2011-04-15T08:21:45Z</time>
      </trkpt>
      <trkpt lat="48.57616" lon="2.1086">
        <ele>65</ele>
        <time>2011-04-15T08:21:46Z</time>
      </trkpt>
      <trkpt lat="48.57616" lon="2.10862">
        <ele>65</ele>
        <time>2011-04-15T08:21:47Z</time>
      </trkpt>
      <trkpt lat="48.57616" lon="2.10864">
        <ele>65</ele>
        <time>2011-04-15T08:21:48Z</time>
      </trkpt>
      <trkpt lat="48.57617" lon="2.10866">
        <ele>65</ele>
        <time>2011-04-15T08:21:49Z</time>
      </trkpt>
      <trkpt lat="48.57617" lon="2.10869">
        <ele>65</ele>
        <time>2011-04-15T08:21:50Z</time>
      </trkpt>
      <trkpt lat="48.57617" lon="2.10871">
        <ele>65</ele>
        <time>2011-04-15T08:21:51Z</time>
      </trkpt>
      <trkpt lat="48.57618" lon="2.10873">
        <ele>65</ele>
        <time>2011-04-15T08:21:52Z</time>
      </trkpt>
      <trkpt lat="48.57618" lon="2.10875">
        <ele>65</ele>
        <time>2011-04-15T08:21:53Z</time>
      </trkpt>
      <trkpt lat="48.57618" lon="2.10877">
        <ele>66</ele>
        <time>2011-04-15T08:21:54Z</time>
      </trkpt>
      <trkpt lat="48.57619" lon="2.1088">
        <ele>66</ele>
        <time>2011-04-15T08:21:55Z</time>
      </trkpt>
      <trkpt lat="48.57619" lon="2.10882">
        <ele>66</ele>
        <time>2011-04-15T08:21:56Z</time>
      </trkpt>
      <trkpt lat="48.57619" lon="2.10885">
        <ele>66</ele>
        <time>2011-04-15T08:21:57Z</time>
      </trkpt>
      <trkpt lat="48.5762" lon="2.10887">
        <ele>66</ele>
        <time>2011-04-15T08:21:58Z</time>
      </trkpt>
      <trkpt lat="48.5762" lon="2.10889">
        <ele>66</ele>
        <time>2011-04-15T08:21:59Z</time>
      </trkpt>
      <trkpt lat="48.57621" lon="2.10892">
        <ele>66</ele>
        <time>2011-04-15T08:22:00Z</time>
      </trkpt>
      <trkpt lat="48.57621" lon="2.10894">
        <ele>66</ele>
        <time>2011-04-15T08:22:01Z</time>
      </trkpt>
      <trkpt lat="48.57622" lon="2.10896">
        <ele>67</ele>
        <time>2011-04-15T08:22:02Z</time>
      </trkpt>
      <trkpt lat="48.57623" lon="2.10898">
        <ele>67</ele>
        <time>2011-04-15T08:22:03Z</time>
      </trkpt>
      <trkpt lat="48.57623" lon="2.10901">
        <ele>67</ele>
        <time>2011-04-15T08:22:04Z</time>
      </trkpt>
      <trkpt lat="48.57624" lon="2.10903">
        <ele>67</ele>
        <time>2011-04-15T08:22:05Z</time>
      </trkpt>
      <trkpt lat="48.57624" lon="2.10905">
        <ele>67</ele>
        <time>2011-04-15T08:22:06Z</time>
      </trkpt>
      <trkpt lat="48.57625" lon="2.10907">
        <ele>67</ele>
        <time>2011-04-15T08:22:07Z</time>
      </trkpt>
      <trkpt lat="48.57625" lon="2.10909">
        <ele>68</ele>
        <time>2011-04-15T08:22:08Z</time>
      </trkpt>
      <trkpt lat="48.57626" lon="2.10911">
        <ele>68</ele>
        <time>2011-04-15T08:22:09Z</time>
      </trkpt>
      <trkpt lat="48.57627" lon="2.10914">
        <ele>68</ele>
        <time>2011-04-15T08:22:11Z</time>
      </trkpt>
      <trkpt lat="48.57628" lon="2.10916">
        <ele>68</ele>
        <time>2011-04-15T08:22:12Z</time>
      </trkpt>
      <trkpt lat="48.57629" lon="2.10918">
        <ele>68</ele>
        <time>2011-04-15T08:22:13Z</time>
      </trkpt>
      <trkpt lat="48.57629" lon="2.1092">
        <ele>68</ele>
        <time>2011-04-15T08:22:14Z</time>
      </trkpt>
      <trkpt lat="48.5763" lon="2.10922">
        <ele>69</ele>
        <time>2011-04-15T08:22:15Z</time>
      </trkpt>
      <trkpt lat="48.57631" lon="2.10924">
        <ele>69</ele>
        <time>2011-04-15T08:22:16Z</time>
      </trkpt>
      <trkpt lat="48.57632" lon="2.10926">
        <ele>69</ele>
        <time>2011-04-15T08:22:17Z</time>
      </trkpt>
      <trkpt lat="48.57632" lon="2.10928">
        <ele>69</ele>
        <time>2011-04-15T08:22:18Z</time>
      </trkpt>
      <trkpt lat="48.57633" lon="2.1093">
        <ele>69</ele>
        <time>2011-04-15T08:22:19Z</time>
      </trkpt>
      <trkpt lat="48.57634" lon="2.10932">
        <ele>69</ele>
        <time>2011-04-15T08:22:20Z</time>
      </trkpt>
      <trkpt lat="48.57634" lon="2.10934">
        <ele>69</ele>
        <time>2011-04-15T08:22:21Z</time>
      </trkpt>
      <trkpt lat="48.57635" lon="2.10936">
        <ele>70</ele>
        <time>2011-04-15T08:22:22Z</time>
      </trkpt>
      <trkpt lat="48.57636" lon="2.10938">
        <ele>70</ele>
        <time>2011-04-15T08:22:23Z</time>
      </trkpt>
      <trkpt lat="48.57637" lon="2.1094">
        <ele>70</ele>
        <time>2011-04-15T08:22:24Z</time>
      </trkpt>
      <trkpt lat="48.57638" lon="2.10943">
        <ele>70</ele>
        <time>2011-04-15T08:22:25Z</time>
      </trkpt>
      <trkpt lat="48.5764" lon="2.10945">
        <ele>70</ele>
        <time>2011-04-15T08:22:26Z</time>
      </trkpt>
      <trkpt lat="48.57642" lon="2.10948">
        <ele>70</ele>
        <time>2011-04-15T08:22:27Z</time>
      </trkpt>
      <trkpt lat="48.57644" lon="2.10951">
        <ele>70</ele>
        <time>2011-04-15T08:22:28Z</time>
      </trkpt>
      <trkpt lat="48.57645" lon="2.10954">
        <ele>70</ele>
        <time>2011-04-15T08:22:29Z</time>
      </trkpt>
      <trkpt lat="48.57647" lon="2.10957">
        <ele>70</ele>
        <time>2011-04-15T08:22:30Z</time>
      </trkpt>
      <trkpt lat="48.57648" lon="2.1096">
        <ele>70</ele>
        <time>2011-04-15T08:22:31Z</time>
      </trkpt>
      <trkpt lat="48.57649" lon="2.10962">
        <ele>71</ele>
        <time>2011-04-15T08:22:32Z</time>
      </trkpt>
      <trkpt lat="48.57649" lon="2.10964">
        <ele>71</ele>
        <time>2011-04-15T08:22:33Z</time>
      </trkpt>
      <trkpt lat="48.5765" lon="2.10966">
        <ele>71</ele>
        <time>2011-04-15T08:22:34Z</time>
      </trkpt>
      <trkpt lat="48.57651" lon="2.10968">
        <ele>72</ele>
        <time>2011-04-15T08:22:35Z</time>
      </trkpt>
      <trkpt lat="48.57652" lon="2.1097">
        <ele>72</ele>
        <time>2011-04-15T08:22:36Z</time>
      </trkpt>
      <trkpt lat="48.57653" lon="2.10972">
        <ele>72</ele>
        <time>2011-04-15T08:22:37Z</time>
      </trkpt>
      <trkpt lat="48.57654" lon="2.10974">
        <ele>72</ele>
        <time>2011-04-15T08:22:38Z</time>
      </trkpt>
      <trkpt lat="48.57655" lon="2.10976">
        <ele>73</ele>
        <time>2011-04-15T08:22:39Z</time>
      </trkpt>
      <trkpt lat="48.57656" lon="2.10978">
        <ele>73</ele>
        <time>2011-04-15T08:22:40Z</time>
      </trkpt>
      <trkpt lat="48.57657" lon="2.1098">
        <ele>73</ele>
        <time>2011-04-15T08:22:41Z</time>
      </trkpt>
      <trkpt lat="48.57658" lon="2.10982">
        <ele>73</ele>
        <time>2011-04-15T08:22:42Z</time>
      </trkpt>
      <trkpt lat="48.57659" lon="2.10984">
        <ele>73</ele>
        <time>2011-04-15T08:22:43Z</time>
      </trkpt>
      <trkpt lat="48.5766" lon="2.10986">
        <ele>73</ele>
        <time>2011-04-15T08:22:44Z</time>
      </trkpt>
      <trkpt lat="48.57661" lon="2.10988">
        <ele>73</ele>
        <time>2011-04-15T08:22:45Z</time>
      </trkpt>
      <trkpt lat="48.57662" lon="2.1099">
        <ele>73</ele>
        <time>2011-04-15T08:22:46Z</time>
      </trkpt>
      <trkpt lat="48.57663" lon="2.10993">
        <ele>73</ele>
        <time>2011-04-15T08:22:47Z</time>
      </trkpt>
      <trkpt lat="48.57663" lon="2.10994">
        <ele>73</ele>
        <time>2011-04-15T08:22:48Z</time>
      </trkpt>
      <trkpt lat="48.57664" lon="2.10997">
        <ele>73</ele>
        <time>2011-04-15T08:22:49Z</time>
      </trkpt>
      <trkpt lat="48.57665" lon="2.10998">
        <ele>73</ele>
        <time>2011-04-15T08:22:50Z</time>
      </trkpt>
      <trkpt lat="48.57666" lon="2.11">
        <ele>73</ele>
        <time>2011-04-15T08:22:51Z</time>
      </trkpt>
      <trkpt lat="48.57668" lon="2.11004">
        <ele>73</ele>
        <time>2011-04-15T08:22:53Z</time>
      </trkpt>
      <trkpt lat="48.57669" lon="2.11006">
        <ele>73</ele>
        <time>2011-04-15T08:22:54Z</time>
      </trkpt>
      <trkpt lat="48.5767" lon="2.11008">
        <ele>73</ele>
        <time>2011-04-15T08:22:55Z</time>
      </trkpt>
      <trkpt lat="48.57671" lon="2.1101">
        <ele>73</ele>
        <time>2011-04-15T08:22:56Z</time>
      </trkpt>
      <trkpt lat="48.57672" lon="2.11011">
        <ele>73</ele>
        <time>2011-04-15T08:22:57Z</time>
      </trkpt>
      <trkpt lat="48.57674" lon="2.11014">
        <ele>73</ele>
        <time>2011-04-15T08:22:59Z</time>
      </trkpt>
      <trkpt lat="48.57675" lon="2.11016">
        <ele>73</ele>
        <time>2011-04-15T08:23:00Z</time>
      </trkpt>
      <trkpt lat="48.57675" lon="2.11018">
        <ele>73</ele>
        <time>2011-04-15T08:23:01Z</time>
      </trkpt>
      <trkpt lat="48.57676" lon="2.11019">
        <ele>73</ele>
        <time>2011-04-15T08:23:02Z</time>
      </trkpt>
      <trkpt lat="48.57677" lon="2.11021">
        <ele>73</ele>
        <time>2011-04-15T08:23:03Z</time>
      </trkpt>
      <trkpt lat="48.57678" lon="2.11023">
        <ele>73</ele>
        <time>2011-04-15T08:23:04Z</time>
      </trkpt>
      <trkpt lat="48.57678" lon="2.11026">
        <ele>73</ele>
        <time>2011-04-15T08:23:05Z</time>
      </trkpt>
      <trkpt lat="48.57679" lon="2.11028">
        <ele>73</ele>
        <time>2011-04-15T08:23:06Z</time>
      </trkpt>
      <trkpt lat="48.5768" lon="2.11031">
        <ele>73</ele>
        <time>2011-04-15T08:23:07Z</time>
      </trkpt>
      <trkpt lat="48.57681" lon="2.11033">
        <ele>73</ele>
        <time>2011-04-15T08:23:08Z</time>
      </trkpt>
      <trkpt lat="48.57682" lon="2.11035">
        <ele>73</ele>
        <time>2011-04-15T08:23:09Z</time>
      </trkpt>
      <trkpt lat="48.57683" lon="2.11036">
        <ele>73</ele>
        <time>2011-04-15T08:23:10Z</time>
      </trkpt>
      <trkpt lat="48.57684" lon="2.11039">
        <ele>73</ele>
        <time>2011-04-15T08:23:11Z</time>
      </trkpt>
      <trkpt lat="48.57684" lon="2.11041">
        <ele>73</ele>
        <time>2011-04-15T08:23:12Z</time>
      </trkpt>
      <trkpt lat="48.57685" lon="2.11043">
        <ele>73</ele>
        <time>2011-04-15T08:23:13Z</time>
      </trkpt>
      <trkpt lat="48.57686" lon="2.11045">
        <ele>74</ele>
        <time>2011-04-15T08:23:14Z</time>
      </trkpt>
      <trkpt lat="48.57687" lon="2.11047">
        <ele>74</ele>
        <time>2011-04-15T08:23:15Z</time>
      </trkpt>
      <trkpt lat="48.57688" lon="2.11049">
        <ele>75</ele>
        <time>2011-04-15T08:23:16Z</time>
      </trkpt>
      <trkpt lat="48.57688" lon="2.11051">
        <ele>75</ele>
        <time>2011-04-15T08:23:17Z</time>
      </trkpt>
      <trkpt lat="48.57689" lon="2.11053">
        <ele>76</ele>
        <time>2011-04-15T08:23:18Z</time>
      </trkpt>
      <trkpt lat="48.5769" lon="2.11055">
        <ele>76</ele>
        <time>2011-04-15T08:23:19Z</time>
      </trkpt>
      <trkpt lat="48.57691" lon="2.11057">
        <ele>77</ele>
        <time>2011-04-15T08:23:20Z</time>
      </trkpt>
      <trkpt lat="48.57692" lon="2.1106">
        <ele>77</ele>
        <time>2011-04-15T08:23:21Z</time>
      </trkpt>
      <trkpt lat="48.57692" lon="2.11062">
        <ele>77</ele>
        <time>2011-04-15T08:23:22Z</time>
      </trkpt>
      <trkpt lat="48.57692" lon="2.11065">
        <ele>78</ele>
        <time>2011-04-15T08:23:23Z</time>
      </trkpt>
      <trkpt lat="48.57693" lon="2.11068">
        <ele>78</ele>
        <time>2011-04-15T08:23:25Z</time>
      </trkpt>
      <trkpt lat="48.57694" lon="2.1107">
        <ele>78</ele>
        <time>2011-04-15T08:23:26Z</time>
      </trkpt>
      <trkpt lat="48.57695" lon="2.11071">
        <ele>79</ele>
        <time>2011-04-15T08:23:27Z</time>
      </trkpt>
      <trkpt lat="48.57696" lon="2.11074">
        <ele>79</ele>
        <time>2011-04-15T08:23:28Z</time>
      </trkpt>
      <trkpt lat="48.57697" lon="2.11076">
        <ele>79</ele>
        <time>2011-04-15T08:23:29Z</time>
      </trkpt>
      <trkpt lat="48.57697" lon="2.11078">
        <ele>79</ele>
        <time>2011-04-15T08:23:30Z</time>
      </trkpt>
      <trkpt lat="48.57698" lon="2.11079">
        <ele>79</ele>
        <time>2011-04-15T08:23:31Z</time>
      </trkpt>
      <trkpt lat="48.57699" lon="2.11081">
        <ele>79</ele>
        <time>2011-04-15T08:23:32Z</time>
      </trkpt>
      <trkpt lat="48.577" lon="2.11083">
        <ele>79</ele>
        <time>2011-04-15T08:23:33Z</time>
      </trkpt>
      <trkpt lat="48.57701" lon="2.11085">
        <ele>80</ele>
        <time>2011-04-15T08:23:34Z</time>
      </trkpt>
      <trkpt lat="48.57702" lon="2.11087">
        <ele>80</ele>
        <time>2011-04-15T08:23:35Z</time>
      </trkpt>
      <trkpt lat="48.57702" lon="2.11089">
        <ele>80</ele>
        <time>2011-04-15T08:23:36Z</time>
      </trkpt>
      <trkpt lat="48.57703" lon="2.11092">
        <ele>80</ele>
        <time>2011-04-15T08:23:37Z</time>
      </trkpt>
      <trkpt lat="48.57704" lon="2.11094">
        <ele>80</ele>
        <time>2011-04-15T08:23:38Z</time>
      </trkpt>
      <trkpt lat="48.57705" lon="2.11096">
        <ele>80</ele>
        <time>2011-04-15T08:23:39Z</time>
      </trkpt>
      <trkpt lat="48.57706" lon="2.11099">
        <ele>80</ele>
        <time>2011-04-15T08:23:41Z</time>
      </trkpt>
      <trkpt lat="48.57707" lon="2.11101">
        <ele>80</ele>
        <time>2011-04-15T08:23:42Z</time>
      </trkpt>
      <trkpt lat="48.57708" lon="2.11104">
        <ele>80</ele>
        <time>2011-04-15T08:23:43Z</time>
      </trkpt>
      <trkpt lat="48.57709" lon="2.11106">
        <ele>80</ele>
        <time>2011-04-15T08:23:44Z</time>
      </trkpt>
      <trkpt lat="48.5771" lon="2.11109">
        <ele>80</ele>
        <time>2011-04-15T08:23:45Z</time>
      </trkpt>
      <trkpt lat="48.5771" lon="2.11111">
        <ele>80</ele>
        <time>2011-04-15T08:23:46Z</time>
      </trkpt>
      <trkpt lat="48.57711" lon="2.11114">
        <ele>80</ele>
        <time>2011-04-15T08:23:47Z</time>
      </trkpt>
      <trkpt lat="48.57712" lon="2.11117">
        <ele>80</ele>
        <time>2011-04-15T08:23:48Z</time>
      </trkpt>
      <trkpt lat="48.57713" lon="2.11121">
        <ele>80</ele>
        <time>2011-04-15T08:23:49Z</time>
      </trkpt>
      <trkpt lat="48.57714" lon="2.11124">
        <ele>80</ele>
        <time>2011-04-15T08:23:50Z</time>
      </trkpt>
      <trkpt lat="48.57714" lon="2.11127">
        <ele>80</ele>
        <time>2011-04-15T08:23:51Z</time>
      </trkpt>
      <trkpt lat="48.57715" lon="2.11129">
        <ele>80</ele>
        <time>2011-04-15T08:23:52Z</time>
      </trkpt>
      <trkpt lat="48.57716" lon="2.11131">
        <ele>80</ele>
        <time>2011-04-15T08:23:53Z</time>
      </trkpt>
      <trkpt lat="48.57717" lon="2.11133">
        <ele>80</ele>
        <time>2011-04-15T08:23:54Z</time>
      </trkpt>
      <trkpt lat="48.57717" lon="2.11135">
        <ele>80</ele>
        <time>2011-04-15T08:23:55Z</time>
      </trkpt>
      <trkpt lat="48.57719" lon="2.11138">
        <ele>80</ele>
        <time>2011-04-15T08:23:57Z</time>
      </trkpt>
      <trkpt lat="48.57719" lon="2.1114">
        <ele>80</ele>
        <time>2011-04-15T08:23:58Z</time>
      </trkpt>
      <trkpt lat="48.5772" lon="2.11142">
        <ele>80</ele>
        <time>2011-04-15T08:23:59Z</time>
      </trkpt>
      <trkpt lat="48.57721" lon="2.11144">
        <ele>80</ele>
        <time>2011-04-15T08:24:00Z</time>
      </trkpt>
      <trkpt lat="48.57721" lon="2.11146">
        <ele>80</ele>
        <time>2011-04-15T08:24:01Z</time>
      </trkpt>
      <trkpt lat="48.57722" lon="2.11148">
        <ele>80</ele>
        <time>2011-04-15T08:24:02Z</time>
      </trkpt>
      <trkpt lat="48.57723" lon="2.11151">
        <ele>80</ele>
        <time>2011-04-15T08:24:03Z</time>
      </trkpt>
      <trkpt lat="48.57724" lon="2.11153">
        <ele>80</ele>
        <time>2011-04-15T08:24:04Z</time>
      </trkpt>
      <trkpt lat="48.57725" lon="2.11155">
        <ele>80</ele>
        <time>2011-04-15T08:24:05Z</time>
      </trkpt>
      <trkpt lat="48.57726" lon="2.11158">
        <ele>80</ele>
        <time>2011-04-15T08:24:06Z</time>
      </trkpt>
      <trkpt lat="48.57727" lon="2.11161">
        <ele>80</ele>
        <time>2011-04-15T08:24:07Z</time>
      </trkpt>
      <trkpt lat="48.57728" lon="2.11166">
        <ele>80</ele>
        <time>2011-04-15T08:24:08Z</time>
      </trkpt>
      <trkpt lat="48.5773" lon="2.11171">
        <ele>80</ele>
        <time>2011-04-15T08:24:09Z</time>
      </trkpt>
      <trkpt lat="48.57731" lon="2.11176">
        <ele>80</ele>
        <time>2011-04-15T08:24:10Z</time>
      </trkpt>
      <trkpt lat="48.57732" lon="2.11182">
        <ele>80</ele>
        <time>2011-04-15T08:24:11Z</time>
      </trkpt>
      <trkpt lat="48.57734" lon="2.11187">
        <ele>80</ele>
        <time>2011-04-15T08:24:12Z</time>
      </trkpt>
      <trkpt lat="48.57735" lon="2.11192">
        <ele>80</ele>
        <time>2011-04-15T08:24:13Z</time>
      </trkpt>
      <trkpt lat="48.57736" lon="2.11196">
        <ele>80</ele>
        <time>2011-04-15T08:24:14Z</time>
      </trkpt>
      <trkpt lat="48.57737" lon="2.112">
        <ele>80</ele>
        <time>2011-04-15T08:24:15Z</time>
      </trkpt>
      <trkpt lat="48.57738" lon="2.11203">
        <ele>80</ele>
        <time>2011-04-15T08:24:16Z</time>
      </trkpt>
      <trkpt lat="48.57739" lon="2.11207">
        <ele>80</ele>
        <time>2011-04-15T08:24:17Z</time>
      </trkpt>
      <trkpt lat="48.5774" lon="2.11211">
        <ele>80</ele>
        <time>2011-04-15T08:24:18Z</time>
      </trkpt>
      <trkpt lat="48.57742" lon="2.11215">
        <ele>80</ele>
        <time>2011-04-15T08:24:19Z</time>
      </trkpt>
      <trkpt lat="48.57743" lon="2.1122">
        <ele>80</ele>
        <time>2011-04-15T08:24:20Z</time>
      </trkpt>
      <trkpt lat="48.57745" lon="2.11225">
        <ele>80</ele>
        <time>2011-04-15T08:24:21Z</time>
      </trkpt>
      <trkpt lat="48.57746" lon="2.1123">
        <ele>80</ele>
        <time>2011-04-15T08:24:22Z</time>
      </trkpt>
      <trkpt lat="48.57747" lon="2.11234">
        <ele>80</ele>
        <time>2011-04-15T08:24:23Z</time>
      </trkpt>
      <trkpt lat="48.57748" lon="2.11238">
        <ele>80</ele>
        <time>2011-04-15T08:24:24Z</time>
      </trkpt>
      <trkpt lat="48.57749" lon="2.11243">
        <ele>80</ele>
        <time>2011-04-15T08:24:25Z</time>
      </trkpt>
      <trkpt lat="48.57751" lon="2.11247">
        <ele>80</ele>
        <time>2011-04-15T08:24:26Z</time>
      </trkpt>
      <trkpt lat="48.57752" lon="2.11252">
        <ele>80</ele>
        <time>2011-04-15T08:24:27Z</time>
      </trkpt>
      <trkpt lat="48.57753" lon="2.11258">
        <ele>80</ele>
        <time>2011-04-15T08:24:28Z</time>
      </trkpt>
      <trkpt lat="48.57754" lon="2.11263">
        <ele>80</ele>
        <time>2011-04-15T08:24:29Z</time>
      </trkpt>
      <trkpt lat="48.57755" lon="2.11268">
        <ele>80</ele>
        <time>2011-04-15T08:24:30Z</time>
      </trkpt>
      <trkpt lat="48.57756" lon="2.11273">
        <ele>80</ele>
        <time>2011-04-15T08:24:31Z</time>
      </trkpt>
      <trkpt lat="48.57757" lon="2.11278">
        <ele>80</ele>
        <time>2011-04-15T08:24:32Z</time>
      </trkpt>
      <trkpt lat="48.57759" lon="2.11283">
        <ele>81</ele>
        <time>2011-04-15T08:24:33Z</time>
      </trkpt>
      <trkpt lat="48.5776" lon="2.11288">
        <ele>81</ele>
        <time>2011-04-15T08:24:34Z</time>
      </trkpt>
      <trkpt lat="48.5776" lon="2.11291">
        <ele>81</ele>
        <time>2011-04-15T08:24:35Z</time>
      </trkpt>
      <trkpt lat="48.57761" lon="2.11294">
        <ele>81</ele>
        <time>2011-04-15T08:24:36Z</time>
      </trkpt>
      <trkpt lat="48.57761" lon="2.11298">
        <ele>81</ele>
        <time>2011-04-15T08:24:37Z</time>
      </trkpt>
      <trkpt lat="48.57762" lon="2.11301">
        <ele>81</ele>
        <time>2011-04-15T08:24:38Z</time>
      </trkpt>
      <trkpt lat="48.57763" lon="2.11304">
        <ele>81</ele>
        <time>2011-04-15T08:24:39Z</time>
      </trkpt>
      <trkpt lat="48.57764" lon="2.11308">
        <ele>81</ele>
        <time>2011-04-15T08:24:40Z</time>
      </trkpt>
      <trkpt lat="48.57764" lon="2.11311">
        <ele>81</ele>
        <time>2011-04-15T08:24:41Z</time>
      </trkpt>
      <trkpt lat="48.57765" lon="2.11314">
        <ele>81</ele>
        <time>2011-04-15T08:24:42Z</time>
      </trkpt>
      <trkpt lat="48.57766" lon="2.11318">
        <ele>81</ele>
        <time>2011-04-15T08:24:43Z</time>
      </trkpt>
      <trkpt lat="48.57766" lon="2.11321">
        <ele>81</ele>
        <time>2011-04-15T08:24:44Z</time>
      </trkpt>
      <trkpt lat="48.57767" lon="2.11325">
        <ele>81</ele>
        <time>2011-04-15T08:24:45Z</time>
      </trkpt>
      <trkpt lat="48.57768" lon="2.11328">
        <ele>81</ele>
        <time>2011-04-15T08:24:46Z</time>
      </trkpt>
      <trkpt lat="48.57769" lon="2.11332">
        <ele>81</ele>
        <time>2011-04-15T08:24:47Z</time>
      </trkpt>
      <trkpt lat="48.57769" lon="2.11335">
        <ele>81</ele>
        <time>2011-04-15T08:24:48Z</time>
      </trkpt>
      <trkpt lat="48.5777" lon="2.11338">
        <ele>81</ele>
        <time>2011-04-15T08:24:49Z</time>
      </trkpt>
      <trkpt lat="48.57771" lon="2.11341">
        <ele>81</ele>
        <time>2011-04-15T08:24:50Z</time>
      </trkpt>
      <trkpt lat="48.57772" lon="2.11345">
        <ele>82</ele>
        <time>2011-04-15T08:24:51Z</time>
      </trkpt>
      <trkpt lat="48.57773" lon="2.11348">
        <ele>82</ele>
        <time>2011-04-15T08:24:52Z</time>
      </trkpt>
      <trkpt lat="48.57774" lon="2.11351">
        <ele>82</ele>
        <time>2011-04-15T08:24:53Z</time>
      </trkpt>
      <trkpt lat="48.57775" lon="2.11354">
        <ele>82</ele>
        <time>2011-04-15T08:24:54Z</time>
      </trkpt>
      <trkpt lat="48.57775" lon="2.11356">
        <ele>82</ele>
        <time>2011-04-15T08:24:55Z</time>
      </trkpt>
      <trkpt lat="48.57776" lon="2.11359">
        <ele>82</ele>
        <time>2011-04-15T08:24:56Z</time>
      </trkpt>
      <trkpt lat="48.57777" lon="2.11362">
        <ele>82</ele>
        <time>2011-04-15T08:24:57Z</time>
      </trkpt>
      <trkpt lat="48.57777" lon="2.11364">
        <ele>82</ele>
        <time>2011-04-15T08:24:58Z</time>
      </trkpt>
      <trkpt lat="48.57778" lon="2.11367">
        <ele>82</ele>
        <time>2011-04-15T08:24:59Z</time>
      </trkpt>
      <trkpt lat="48.57779" lon="2.1137">
        <ele>82</ele>
        <time>2011-04-15T08:25:00Z</time>
      </trkpt>
      <trkpt lat="48.57781" lon="2.11374">
        <ele>82</ele>
        <time>2011-04-15T08:25:01Z</time>
      </trkpt>
      <trkpt lat="48.57781" lon="2.11378">
        <ele>82</ele>
        <time>2011-04-15T08:25:02Z</time>
      </trkpt>
      <trkpt lat="48.57782" lon="2.11381">
        <ele>82</ele>
        <time>2011-04-15T08:25:03Z</time>
      </trkpt>
      <trkpt lat="48.57783" lon="2.11383">
        <ele>82</ele>
        <time>2011-04-15T08:25:04Z</time>
      </trkpt>
      <trkpt lat="48.57783" lon="2.11386">
        <ele>82</ele>
        <time>2011-04-15T08:25:05Z</time>
      </trkpt>
      <trkpt lat="48.57784" lon="2.11389">
        <ele>82</ele>
        <time>2011-04-15T08:25:06Z</time>
      </trkpt>
      <trkpt lat="48.57785" lon="2.11392">
        <ele>82</ele>
        <time>2011-04-15T08:25:07Z</time>
      </trkpt>
      <trkpt lat="48.57786" lon="2.11395">
        <ele>82</ele>
        <time>2011-04-15T08:25:08Z</time>
      </trkpt>
      <trkpt lat="48.57786" lon="2.11398">
        <ele>82</ele>
        <time>2011-04-15T08:25:09Z</time>
      </trkpt>
      <trkpt lat="48.57787" lon="2.114">
        <ele>82</ele>
        <time>2011-04-15T08:25:10Z</time>
      </trkpt>
      <trkpt lat="48.57787" lon="2.11402">
        <ele>82</ele>
        <time>2011-04-15T08:25:11Z</time>
      </trkpt>
      <trkpt lat="48.57788" lon="2.11405">
        <ele>82</ele>
        <time>2011-04-15T08:25:12Z</time>
      </trkpt>
      <trkpt lat="48.57788" lon="2.11408">
        <ele>82</ele>
        <time>2011-04-15T08:25:13Z</time>
      </trkpt>
      <trkpt lat="48.57789" lon="2.1141">
        <ele>82</ele>
        <time>2011-04-15T08:25:14Z</time>
      </trkpt>
      <trkpt lat="48.5779" lon="2.11413">
        <ele>82</ele>
        <time>2011-04-15T08:25:15Z</time>
      </trkpt>
      <trkpt lat="48.57791" lon="2.11415">
        <ele>82</ele>
        <time>2011-04-15T08:25:16Z</time>
      </trkpt>
      <trkpt lat="48.57791" lon="2.11418">
        <ele>82</ele>
        <time>2011-04-15T08:25:17Z</time>
      </trkpt>
      <trkpt lat="48.57792" lon="2.11421">
        <ele>82</ele>
        <time>2011-04-15T08:25:18Z</time>
      </trkpt>
      <trkpt lat="48.57792" lon="2.11423">
        <ele>82</ele>
        <time>2011-04-15T08:25:19Z</time>
      </trkpt>
      <trkpt lat="48.57793" lon="2.11426">
        <ele>82</ele>
        <time>2011-04-15T08:25:20Z</time>
      </trkpt>
      <trkpt lat="48.57794" lon="2.11429">
        <ele>82</ele>
        <time>2011-04-15T08:25:21Z</time>
      </trkpt>
      <trkpt lat="48.57795" lon="2.11431">
        <ele>82</ele>
        <time>2011-04-15T08:25:22Z</time>
      </trkpt>
      <trkpt lat="48.57796" lon="2.11434">
        <ele>82</ele>
        <time>2011-04-15T08:25:23Z</time>
      </trkpt>
      <trkpt lat="48.57796" lon="2.11436">
        <ele>82</ele>
        <time>2011-04-15T08:25:24Z</time>
      </trkpt>
      <trkpt lat="48.57795" lon="2.11438">
        <ele>82</ele>
        <time>2011-04-15T08:25:26Z</time>
      </trkpt>
      <trkpt lat="48.57793" lon="2.1144">
        <ele>82</ele>
        <time>2011-04-15T08:25:34Z</time>
      </trkpt>
      <trkpt lat="48.57791" lon="2.11441">
        <ele>82</ele>
        <time>2011-04-15T08:25:36Z</time>
      </trkpt>
      <trkpt lat="48.57789" lon="2.11442">
        <ele>82</ele>
        <time>2011-04-15T08:25:38Z</time>
      </trkpt>
      <trkpt lat="48.57788" lon="2.11441">
        <ele>82</ele>
        <time>2011-04-15T08:25:39Z</time>
      </trkpt>
      <trkpt lat="48.57787" lon="2.11441">
        <ele>82</ele>
        <time>2011-04-15T08:25:40Z</time>
      </trkpt>
      <trkpt lat="48.57786" lon="2.11442">
        <ele>82</ele>
        <time>2011-04-15T08:25:41Z</time>
      </trkpt>
      <trkpt lat="48.57784" lon="2.11442">
        <ele>82</ele>
        <time>2011-04-15T08:25:42Z</time>
      </trkpt>
      <trkpt lat="48.57783" lon="2.11442">
        <ele>82</ele>
        <time>2011-04-15T08:25:43Z</time>
      </trkpt>
      <trkpt lat="48.57782" lon="2.11442">
        <ele>82</ele>
        <time>2011-04-15T08:25:44Z</time>
      </trkpt>
      <trkpt lat="48.5778" lon="2.11443">
        <ele>82</ele>
        <time>2011-04-15T08:25:45Z</time>
      </trkpt>
      <trkpt lat="48.57779" lon="2.11444">
        <ele>82</ele>
        <time>2011-04-15T08:25:46Z</time>
      </trkpt>
      <trkpt lat="48.57778" lon="2.11444">
        <ele>82</ele>
        <time>2011-04-15T08:25:47Z</time>
      </trkpt>
      <trkpt lat="48.57776" lon="2.11445">
        <ele>82</ele>
        <time>2011-04-15T08:25:48Z</time>
      </trkpt>
      <trkpt lat="48.57775" lon="2.11445">
        <ele>82</ele>
        <time>2011-04-15T08:25:49Z</time>
      </trkpt>
      <trkpt lat="48.57773" lon="2.11446">
        <ele>82</ele>
        <time>2011-04-15T08:25:50Z</time>
      </trkpt>
      <trkpt lat="48.57772" lon="2.11446">
        <ele>82</ele>
        <time>2011-04-15T08:25:51Z</time>
      </trkpt>
      <trkpt lat="48.57771" lon="2.11447">
        <ele>82</ele>
        <time>2011-04-15T08:25:52Z</time>
      </trkpt>
      <trkpt lat="48.57769" lon="2.11447">
        <ele>82</ele>
        <time>2011-04-15T08:25:53Z</time>
      </trkpt>
      <trkpt lat="48.57768" lon="2.11448">
        <ele>82</ele>
        <time>2011-04-15T08:25:54Z</time>
      </trkpt>
      <trkpt lat="48.57767" lon="2.11449">
        <ele>82</ele>
        <time>2011-04-15T08:25:55Z</time>
      </trkpt>
      <trkpt lat="48.57765" lon="2.11449">
        <ele>82</ele>
        <time>2011-04-15T08:25:56Z</time>
      </trkpt>
      <trkpt lat="48.57764" lon="2.1145">
        <ele>82</ele>
        <time>2011-04-15T08:25:57Z</time>
      </trkpt>
      <trkpt lat="48.57762" lon="2.11451">
        <ele>82</ele>
        <time>2011-04-15T08:25:58Z</time>
      </trkpt>
      <trkpt lat="48.57761" lon="2.11451">
        <ele>82</ele>
        <time>2011-04-15T08:25:59Z</time>
      </trkpt>
      <trkpt lat="48.57759" lon="2.11452">
        <ele>82</ele>
        <time>2011-04-15T08:26:00Z</time>
      </trkpt>
      <trkpt lat="48.57758" lon="2.11452">
        <ele>82</ele>
        <time>2011-04-15T08:26:01Z</time>
      </trkpt>
      <trkpt lat="48.57756" lon="2.11453">
        <ele>82</ele>
        <time>2011-04-15T08:26:02Z</time>
      </trkpt>
      <trkpt lat="48.57755" lon="2.11454">
        <ele>82</ele>
        <time>2011-04-15T08:26:03Z</time>
      </trkpt>
      <trkpt lat="48.57753" lon="2.11454">
        <ele>82</ele>
        <time>2011-04-15T08:26:04Z</time>
      </trkpt>
      <trkpt lat="48.57752" lon="2.11455">
        <ele>82</ele>
        <time>2011-04-15T08:26:05Z</time>
      </trkpt>
      <trkpt lat="48.5775" lon="2.11455">
        <ele>82</ele>
        <time>2011-04-15T08:26:06Z</time>
      </trkpt>
      <trkpt lat="48.57749" lon="2.11456">
        <ele>82</ele>
        <time>2011-04-15T08:26:07Z</time>
      </trkpt>
      <trkpt lat="48.57747" lon="2.11457">
        <ele>82</ele>
        <time>2011-04-15T08:26:08Z</time>
      </trkpt>
      <trkpt lat="48.57746" lon="2.11457">
        <ele>82</ele>
        <time>2011-04-15T08:26:09Z</time>
      </trkpt>
      <trkpt lat="48.57744" lon="2.11458">
        <ele>81</ele>
        <time>2011-04-15T08:26:10Z</time>
      </trkpt>
      <trkpt lat="48.57743" lon="2.11458">
        <ele>81</ele>
        <time>2011-04-15T08:26:11Z</time>
      </trkpt>
      <trkpt lat="48.57741" lon="2.11459">
        <ele>81</ele>
        <time>2011-04-15T08:26:12Z</time>
      </trkpt>
      <trkpt lat="48.5774" lon="2.1146">
        <ele>81</ele>
        <time>2011-04-15T08:26:13Z</time>
      </trkpt>
      <trkpt lat="48.57738" lon="2.11461">
        <ele>81</ele>
        <time>2011-04-15T08:26:14Z</time>
      </trkpt>
      <trkpt lat="48.57737" lon="2.11462">
        <ele>81</ele>
        <time>2011-04-15T08:26:15Z</time>
      </trkpt>
      <trkpt lat="48.57735" lon="2.11462">
        <ele>81</ele>
        <time>2011-04-15T08:26:16Z</time>
      </trkpt>
      <trkpt lat="48.57733" lon="2.11463">
        <ele>81</ele>
        <time>2011-04-15T08:26:17Z</time>
      </trkpt>
      <trkpt lat="48.57732" lon="2.11464">
        <ele>80</ele>
        <time>2011-04-15T08:26:18Z</time>
      </trkpt>
      <trkpt lat="48.5773" lon="2.11464">
        <ele>80</ele>
        <time>2011-04-15T08:26:19Z</time>
      </trkpt>
      <trkpt lat="48.57729" lon="2.11465">
        <ele>80</ele>
        <time>2011-04-15T08:26:20Z</time>
      </trkpt>
      <trkpt lat="48.57727" lon="2.11466">
        <ele>80</ele>
        <time>2011-04-15T08:26:21Z</time>
      </trkpt>
      <trkpt lat="48.57725" lon="2.11467">
        <ele>80</ele>
        <time>2011-04-15T08:26:22Z</time>
      </trkpt>
      <trkpt lat="48.57724" lon="2.11467">
        <ele>80</ele>
        <time>2011-04-15T08:26:23Z</time>
      </trkpt>
      <trkpt lat="48.57722" lon="2.11468">
        <ele>80</ele>
        <time>2011-04-15T08:26:24Z</time>
      </trkpt>
      <trkpt lat="48.5772" lon="2.11469">
        <ele>80</ele>
        <time>2011-04-15T08:26:25Z</time>
      </trkpt>
      <trkpt lat="48.57719" lon="2.11469">
        <ele>80</ele>
        <time>2011-04-15T08:26:26Z</time>
      </trkpt>
      <trkpt lat="48.57717" lon="2.1147">
        <ele>80</ele>
        <time>2011-04-15T08:26:27Z</time>
      </trkpt>
      <trkpt lat="48.57715" lon="2.11471">
        <ele>80</ele>
        <time>2011-04-15T08:26:28Z</time>
      </trkpt>
      <trkpt lat="48.57714" lon="2.11471">
        <ele>79</ele>
        <time>2011-04-15T08:26:29Z</time>
      </trkpt>
      <trkpt lat="48.57712" lon="2.11473">
        <ele>79</ele>
        <time>2011-04-15T08:26:30Z</time>
      </trkpt>
      <trkpt lat="48.57711" lon="2.11473">
        <ele>79</ele>
        <time>2011-04-15T08:26:30Z</time>
      </trkpt>
      <trkpt lat="48.57709" lon="2.11474">
        <ele>79</ele>
        <time>2011-04-15T08:26:32Z</time>
      </trkpt>
      <trkpt lat="48.57707" lon="2.11475">
        <ele>79</ele>
        <time>2011-04-15T08:26:33Z</time>
      </trkpt>
      <trkpt lat="48.57706" lon="2.11476">
        <ele>79</ele>
        <time>2011-04-15T08:26:34Z</time>
      </trkpt>
      <trkpt lat="48.57704" lon="2.11476">
        <ele>79</ele>
        <time>2011-04-15T08:26:35Z</time>
      </trkpt>
      <trkpt lat="48.57703" lon="2.11477">
        <ele>79</ele>
        <time>2011-04-15T08:26:36Z</time>
      </trkpt>
      <trkpt lat="48.57701" lon="2.11478">
        <ele>79</ele>
        <time>2011-04-15T08:26:37Z</time>
      </trkpt>
      <trkpt lat="48.577" lon="2.11478">
        <ele>79</ele>
        <time>2011-04-15T08:26:38Z</time>
      </trkpt>
      <trkpt lat="48.57698" lon="2.11479">
        <ele>78</ele>
        <time>2011-04-15T08:26:39Z</time>
      </trkpt>
      <trkpt lat="48.57696" lon="2.1148">
        <ele>78</ele>
        <time>2011-04-15T08:26:40Z</time>
      </trkpt>
      <trkpt lat="48.57694" lon="2.1148">
        <ele>78</ele>
        <time>2011-04-15T08:26:41Z</time>
      </trkpt>
      <trkpt lat="48.57693" lon="2.11481">
        <ele>78</ele>
        <time>2011-04-15T08:26:42Z</time>
      </trkpt>
      <trkpt lat="48.57691" lon="2.11481">
        <ele>78</ele>
        <time>2011-04-15T08:26:43Z</time>
      </trkpt>
      <trkpt lat="48.57689" lon="2.11482">
        <ele>78</ele>
        <time>2011-04-15T08:26:44Z</time>
      </trkpt>
      <trkpt lat="48.57688" lon="2.11482">
        <ele>78</ele>
        <time>2011-04-15T08:26:45Z</time>
      </trkpt>
      <trkpt lat="48.57686" lon="2.11483">
        <ele>78</ele>
        <time>2011-04-15T08:26:46Z</time>
      </trkpt>
      <trkpt lat="48.57684" lon="2.11484">
        <ele>78</ele>
        <time>2011-04-15T08:26:47Z</time>
      </trkpt>
      <trkpt lat="48.57683" lon="2.11485">
        <ele>78</ele>
        <time>2011-04-15T08:26:48Z</time>
      </trkpt>
      <trkpt lat="48.57681" lon="2.11486">
        <ele>78</ele>
        <time>2011-04-15T08:26:49Z</time>
      </trkpt>
      <trkpt lat="48.57679" lon="2.11487">
        <ele>78</ele>
        <time>2011-04-15T08:26:50Z</time>
      </trkpt>
      <trkpt lat="48.57678" lon="2.11487">
        <ele>78</ele>
        <time>2011-04-15T08:26:51Z</time>
      </trkpt>
      <trkpt lat="48.57676" lon="2.11488">
        <ele>78</ele>
        <time>2011-04-15T08:26:52Z</time>
      </trkpt>
      <trkpt lat="48.57675" lon="2.11489">
        <ele>78</ele>
        <time>2011-04-15T08:26:53Z</time>
      </trkpt>
      <trkpt lat="48.57673" lon="2.1149">
        <ele>78</ele>
        <time>2011-04-15T08:26:54Z</time>
      </trkpt>
      <trkpt lat="48.57671" lon="2.1149">
        <ele>77</ele>
        <time>2011-04-15T08:26:55Z</time>
      </trkpt>
      <trkpt lat="48.5767" lon="2.11491">
        <ele>77</ele>
        <time>2011-04-15T08:26:56Z</time>
      </trkpt>
      <trkpt lat="48.57668" lon="2.11492">
        <ele>77</ele>
        <time>2011-04-15T08:26:57Z</time>
      </trkpt>
      <trkpt lat="48.57666" lon="2.11493">
        <ele>77</ele>
        <time>2011-04-15T08:26:58Z</time>
      </trkpt>
      <trkpt lat="48.57665" lon="2.11494">
        <ele>77</ele>
        <time>2011-04-15T08:26:59Z</time>
      </trkpt>
      <trkpt lat="48.57663" lon="2.11494">
        <ele>77</ele>
        <time>2011-04-15T08:27:00Z</time>
      </trkpt>
      <trkpt lat="48.57661" lon="2.11495">
        <ele>77</ele>
        <time>2011-04-15T08:27:01Z</time>
      </trkpt>
      <trkpt lat="48.5766" lon="2.11496">
        <ele>77</ele>
        <time>2011-04-15T08:27:02Z</time>
      </trkpt>
      <trkpt lat="48.57658" lon="2.11497">
        <ele>77</ele>
        <time>2011-04-15T08:27:03Z</time>
      </trkpt>
      <trkpt lat="48.57657" lon="2.11498">
        <ele>76</ele>
        <time>2011-04-15T08:27:04Z</time>
      </trkpt>
      <trkpt lat="48.57655" lon="2.11499">
        <ele>76</ele>
        <time>2011-04-15T08:27:05Z</time>
      </trkpt>
      <trkpt lat="48.57653" lon="2.11499">
        <ele>76</ele>
        <time>2011-04-15T08:27:06Z</time>
      </trkpt>
      <trkpt lat="48.57652" lon="2.115">
        <ele>76</ele>
        <time>2011-04-15T08:27:07Z</time>
      </trkpt>
      <trkpt lat="48.5765" lon="2.11501">
        <ele>76</ele>
        <time>2011-04-15T08:27:08Z</time>
      </trkpt>
      <trkpt lat="48.57648" lon="2.11502">
        <ele>76</ele>
        <time>2011-04-15T08:27:09Z</time>
      </trkpt>
      <trkpt lat="48.57647" lon="2.11503">
        <ele>76</ele>
        <time>2011-04-15T08:27:10Z</time>
      </trkpt>
      <trkpt lat="48.57645" lon="2.11504">
        <ele>76</ele>
        <time>2011-04-15T08:27:11Z</time>
      </trkpt>
      <trkpt lat="48.57643" lon="2.11505">
        <ele>76</ele>
        <time>2011-04-15T08:27:12Z</time>
      </trkpt>
      <trkpt lat="48.57642" lon="2.11506">
        <ele>76</ele>
        <time>2011-04-15T08:27:13Z</time>
      </trkpt>
      <trkpt lat="48.5764" lon="2.11507">
        <ele>76</ele>
        <time>2011-04-15T08:27:14Z</time>
      </trkpt>
      <trkpt lat="48.57638" lon="2.11507">
        <ele>75</ele>
        <time>2011-04-15T08:27:15Z</time>
      </trkpt>
      <trkpt lat="48.57637" lon="2.11508">
        <ele>75</ele>
        <time>2011-04-15T08:27:16Z</time>
      </trkpt>
      <trkpt lat="48.57635" lon="2.11509">
        <ele>75</ele>
        <time>2011-04-15T08:27:17Z</time>
      </trkpt>
      <trkpt lat="48.57634" lon="2.1151">
        <ele>75</ele>
        <time>2011-04-15T08:27:18Z</time>
      </trkpt>
      <trkpt lat="48.57632" lon="2.11511">
        <ele>75</ele>
        <time>2011-04-15T08:27:19Z</time>
      </trkpt>
      <trkpt lat="48.5763" lon="2.11512">
        <ele>75</ele>
        <time>2011-04-15T08:27:20Z</time>
      </trkpt>
      <trkpt lat="48.57629" lon="2.11513">
        <ele>75</ele>
        <time>2011-04-15T08:27:21Z</time>
      </trkpt>
      <trkpt lat="48.57627" lon="2.11514">
        <ele>75</ele>
        <time>2011-04-15T08:27:22Z</time>
      </trkpt>
      <trkpt lat="48.57625" lon="2.11515">
        <ele>74</ele>
        <time>2011-04-15T08:27:23Z</time>
      </trkpt>
      <trkpt lat="48.57624" lon="2.11516">
        <ele>74</ele>
        <time>2011-04-15T08:27:24Z</time>
      </trkpt>
      <trkpt lat="48.57622" lon="2.11517">
        <ele>74</ele>
        <time>2011-04-15T08:27:25Z</time>
      </trkpt>
      <trkpt lat="48.57621" lon="2.11518">
        <ele>74</ele>
        <time>2011-04-15T08:27:26Z</time>
      </trkpt>
      <trkpt lat="48.57619" lon="2.11518">
        <ele>74</ele>
        <time>2011-04-15T08:27:27Z</time>
      </trkpt>
      <trkpt lat="48.57617" lon="2.11519">
        <ele>74</ele>
        <time>2011-04-15T08:27:28Z</time>
      </trkpt>
      <trkpt lat="48.57616" lon="2.1152">
        <ele>74</ele>
        <time>2011-04-15T08:27:29Z</time>
      </trkpt>
      <trkpt lat="48.57614" lon="2.1152">
        <ele>74</ele>
        <time>2011-04-15T08:27:30Z</time>
      </trkpt>
      <trkpt lat="48.57613" lon="2.11521">
        <ele>73</ele>
        <time>2011-04-15T08:27:31Z</time>
      </trkpt>
      <trkpt lat="48.57612" lon="2.11522">
        <ele>73</ele>
        <time>2011-04-15T08:27:32Z</time>
      </trkpt>
      <trkpt lat="48.5761" lon="2.11522">
        <ele>73</ele>
        <time>2011-04-15T08:27:33Z</time>
      </trkpt>
      <trkpt lat="48.57609" lon="2.11523">
        <ele>73</ele>
        <time>2011-04-15T08:27:34Z</time>
      </trkpt>
      <trkpt lat="48.57607" lon="2.11524">
        <ele>72</ele>
        <time>2011-04-15T08:27:35Z</time>
      </trkpt>
      <trkpt lat="48.57606" lon="2.11526">
        <ele>72</ele>
        <time>2011-04-15T08:27:36Z</time>
      </trkpt>
      <trkpt lat="48.57604" lon="2.11527">
        <ele>72</ele>
        <time>2011-04-15T08:27:37Z</time>
      </trkpt>
      <trkpt lat="48.57603" lon="2.11528">
        <ele>72</ele>
        <time>2011-04-15T08:27:38Z</time>
      </trkpt>
      <trkpt lat="48.57601" lon="2.11529">
        <ele>71</ele>
        <time>2011-04-15T08:27:39Z</time>
      </trkpt>
      <trkpt lat="48.57599" lon="2.1153">
        <ele>71</ele>
        <time>2011-04-15T08:27:40Z</time>
      </trkpt>
      <trkpt lat="48.57598" lon="2.11531">
        <ele>71</ele>
        <time>2011-04-15T08:27:41Z</time>
      </trkpt>
      <trkpt lat="48.57596" lon="2.11532">
        <ele>71</ele>
        <time>2011-04-15T08:27:42Z</time>
      </trkpt>
      <trkpt lat="48.57595" lon="2.11534">
        <ele>71</ele>
        <time>2011-04-15T08:27:43Z</time>
      </trkpt>
      <trkpt lat="48.57594" lon="2.11535">
        <ele>71</ele>
        <time>2011-04-15T08:27:44Z</time>
      </trkpt>
      <trkpt lat="48.57592" lon="2.11536">
        <ele>71</ele>
        <time>2011-04-15T08:27:46Z</time>
      </trkpt>
      <trkpt lat="48.57591" lon="2.11537">
        <ele>71</ele>
        <time>2011-04-15T08:27:49Z</time>
      </trkpt>
      <trkpt lat="48.57589" lon="2.11538">
        <ele>71</ele>
        <time>2011-04-15T08:27:51Z</time>
      </trkpt>
      <trkpt lat="48.57587" lon="2.11538">
        <ele>71</ele>
        <time>2011-04-15T08:27:52Z</time>
      </trkpt>
      <trkpt lat="48.57586" lon="2.11537">
        <ele>71</ele>
        <time>2011-04-15T08:27:53Z</time>
      </trkpt>
      <trkpt lat="48.57584" lon="2.11537">
        <ele>70</ele>
        <time>2011-04-15T08:27:54Z</time>
      </trkpt>
      <trkpt lat="48.57583" lon="2.11536">
        <ele>70</ele>
        <time>2011-04-15T08:27:55Z</time>
      </trkpt>
      <trkpt lat="48.57581" lon="2.11535">
        <ele>70</ele>
        <time>2011-04-15T08:27:56Z</time>
      </trkpt>
      <trkpt lat="48.5758" lon="2.11532">
        <ele>69</ele>
        <time>2011-04-15T08:27:58Z</time>
      </trkpt>
      <trkpt lat="48.57579" lon="2.11529">
        <ele>68</ele>
        <time>2011-04-15T08:27:59Z</time>
      </trkpt>
      <trkpt lat="48.57578" lon="2.11527">
        <ele>68</ele>
        <time>2011-04-15T08:28:00Z</time>
      </trkpt>
      <trkpt lat="48.57577" lon="2.11526">
        <ele>68</ele>
        <time>2011-04-15T08:28:01Z</time>
      </trkpt>
      <trkpt lat="48.57576" lon="2.11524">
        <ele>67</ele>
        <time>2011-04-15T08:28:02Z</time>
      </trkpt>
      <trkpt lat="48.57575" lon="2.11522">
        <ele>67</ele>
        <time>2011-04-15T08:28:03Z</time>
      </trkpt>
      <trkpt lat="48.57575" lon="2.1152">
        <ele>66</ele>
        <time>2011-04-15T08:28:04Z</time>
      </trkpt>
      <trkpt lat="48.57574" lon="2.11519">
        <ele>66</ele>
        <time>2011-04-15T08:28:05Z</time>
      </trkpt>
      <trkpt lat="48.57573" lon="2.11517">
        <ele>66</ele>
        <time>2011-04-15T08:28:06Z</time>
      </trkpt>
      <trkpt lat="48.57571" lon="2.11514">
        <ele>65</ele>
        <time>2011-04-15T08:28:08Z</time>
      </trkpt>
      <trkpt lat="48.57569" lon="2.11513">
        <ele>65</ele>
        <time>2011-04-15T08:28:09Z</time>
      </trkpt>
      <trkpt lat="48.57568" lon="2.11512">
        <ele>65</ele>
        <time>2011-04-15T08:28:10Z</time>
      </trkpt>
      <trkpt lat="48.57567" lon="2.11511">
        <ele>65</ele>
        <time>2011-04-15T08:28:11Z</time>
      </trkpt>
      <trkpt lat="48.57565" lon="2.1151">
        <ele>65</ele>
        <time>2011-04-15T08:28:12Z</time>
      </trkpt>
      <trkpt lat="48.57564" lon="2.1151">
        <ele>64</ele>
        <time>2011-04-15T08:28:13Z</time>
      </trkpt>
      <trkpt lat="48.57563" lon="2.11509">
        <ele>64</ele>
        <time>2011-04-15T08:28:14Z</time>
      </trkpt>
      <trkpt lat="48.57561" lon="2.11509">
        <ele>64</ele>
        <time>2011-04-15T08:28:15Z</time>
      </trkpt>
      <trkpt lat="48.5756" lon="2.11508">
        <ele>64</ele>
        <time>2011-04-15T08:28:16Z</time>
      </trkpt>
      <trkpt lat="48.57558" lon="2.11508">
        <ele>64</ele>
        <time>2011-04-15T08:28:17Z</time>
      </trkpt>
      <trkpt lat="48.57557" lon="2.11508">
        <ele>64</ele>
        <time>2011-04-15T08:28:18Z</time>
      </trkpt>
      <trkpt lat="48.57556" lon="2.11508">
        <ele>64</ele>
        <time>2011-04-15T08:28:19Z</time>
      </trkpt>
      <trkpt lat="48.57554" lon="2.11508">
        <ele>63</ele>
        <time>2011-04-15T08:28:20Z</time>
      </trkpt>
      <trkpt lat="48.57553" lon="2.11508">
        <ele>63</ele>
        <time>2011-04-15T08:28:21Z</time>
      </trkpt>
      <trkpt lat="48.57552" lon="2.11508">
        <ele>63</ele>
        <time>2011-04-15T08:28:22Z</time>
      </trkpt>
      <trkpt lat="48.5755" lon="2.11508">
        <ele>63</ele>
        <time>2011-04-15T08:28:23Z</time>
      </trkpt>
      <trkpt lat="48.57549" lon="2.11508">
        <ele>62</ele>
        <time>2011-04-15T08:28:24Z</time>
      </trkpt>
      <trkpt lat="48.57547" lon="2.11508">
        <ele>62</ele>
        <time>2011-04-15T08:28:25Z</time>
      </trkpt>
      <trkpt lat="48.57546" lon="2.11508">
        <ele>62</ele>
        <time>2011-04-15T08:28:26Z</time>
      </trkpt>
      <trkpt lat="48.57544" lon="2.11508">
        <ele>62</ele>
        <time>2011-04-15T08:28:27Z</time>
      </trkpt>
      <trkpt lat="48.57543" lon="2.11509">
        <ele>61</ele>
        <time>2011-04-15T08:28:28Z</time>
      </trkpt>
      <trkpt lat="48.57541" lon="2.11509">
        <ele>61</ele>
        <time>2011-04-15T08:28:29Z</time>
      </trkpt>
      <trkpt lat="48.5754" lon="2.11508">
        <ele>61</ele>
        <time>2011-04-15T08:28:30Z</time>
      </trkpt>
      <trkpt lat="48.57539" lon="2.11508">
        <ele>61</ele>
        <time>2011-04-15T08:28:30Z</time>
      </trkpt>
      <trkpt lat="48.57537" lon="2.11508">
        <ele>60</ele>
        <time>2011-04-15T08:28:32Z</time>
      </trkpt>
      <trkpt lat="48.57536" lon="2.11508">
        <ele>60</ele>
        <time>2011-04-15T08:28:33Z</time>
      </trkpt>
      <trkpt lat="48.57535" lon="2.11508">
        <ele>60</ele>
        <time>2011-04-15T08:28:35Z</time>
      </trkpt>
      <trkpt lat="48.57533" lon="2.11508">
        <ele>60</ele>
        <time>2011-04-15T08:28:45Z</time>
      </trkpt>
      <trkpt lat="48.57531" lon="2.11507">
        <ele>60</ele>
        <time>2011-04-15T08:28:46Z</time>
      </trkpt>
      <trkpt lat="48.5753" lon="2.11507">
        <ele>60</ele>
        <time>2011-04-15T08:28:48Z</time>
      </trkpt>
      <trkpt lat="48.57529" lon="2.11507">
        <ele>60</ele>
        <time>2011-04-15T08:28:49Z</time>
      </trkpt>
      <trkpt lat="48.57527" lon="2.11506">
        <ele>60</ele>
        <time>2011-04-15T08:28:50Z</time>
      </trkpt>
      <trkpt lat="48.57526" lon="2.11506">
        <ele>60</ele>
        <time>2011-04-15T08:28:50Z</time>
      </trkpt>
      <trkpt lat="48.57524" lon="2.11505">
        <ele>60</ele>
        <time>2011-04-15T08:28:51Z</time>
      </trkpt>
      <trkpt lat="48.57523" lon="2.11505">
        <ele>60</ele>
        <time>2011-04-15T08:28:53Z</time>
      </trkpt>
      <trkpt lat="48.57522" lon="2.11503">
        <ele>60</ele>
        <time>2011-04-15T08:28:54Z</time>
      </trkpt>
      <trkpt lat="48.5752" lon="2.11502">
        <ele>60</ele>
        <time>2011-04-15T08:28:54Z</time>
      </trkpt>
      <trkpt lat="48.57519" lon="2.11501">
        <ele>60</ele>
        <time>2011-04-15T08:28:56Z</time>
      </trkpt>
      <trkpt lat="48.57518" lon="2.11499">
        <ele>60</ele>
        <time>2011-04-15T08:28:57Z</time>
      </trkpt>
      <trkpt lat="48.57517" lon="2.11497">
        <ele>60</ele>
        <time>2011-04-15T08:28:58Z</time>
      </trkpt>
      <trkpt lat="48.57515" lon="2.11495">
        <ele>60</ele>
        <time>2011-04-15T08:28:58Z</time>
      </trkpt>
      <trkpt lat="48.57514" lon="2.11493">
        <ele>60</ele>
        <time>2011-04-15T08:29:00Z</time>
      </trkpt>
      <trkpt lat="48.57513" lon="2.11491">
        <ele>60</ele>
        <time>2011-04-15T08:29:01Z</time>
      </trkpt>
      <trkpt lat="48.57512" lon="2.1149">
        <ele>60</ele>
        <time>2011-04-15T08:29:02Z</time>
      </trkpt>
      <trkpt lat="48.57511" lon="2.11488">
        <ele>60</ele>
        <time>2011-04-15T08:29:03Z</time>
      </trkpt>
      <trkpt lat="48.5751" lon="2.11486">
        <ele>60</ele>
        <time>2011-04-15T08:29:03Z</time>
      </trkpt>
      <trkpt lat="48.57508" lon="2.11485">
        <ele>60</ele>
        <time>2011-04-15T08:29:05Z</time>
      </trkpt>
      <trkpt lat="48.57506" lon="2.11482">
        <ele>60</ele>
        <time>2011-04-15T08:29:07Z</time>
      </trkpt>
      <trkpt lat="48.57504" lon="2.11482">
        <ele>60</ele>
        <time>2011-04-15T08:29:07Z</time>
      </trkpt>
      <trkpt lat="48.57503" lon="2.11482">
        <ele>60</ele>
        <time>2011-04-15T08:29:08Z</time>
      </trkpt>
      <trkpt lat="48.57501" lon="2.11481">
        <ele>60</ele>
        <time>2011-04-15T08:29:09Z</time>
      </trkpt>
      <trkpt lat="48.57499" lon="2.1148">
        <ele>60</ele>
        <time>2011-04-15T08:29:10Z</time>
      </trkpt>
      <trkpt lat="48.57498" lon="2.11479">
        <ele>60</ele>
        <time>2011-04-15T08:29:11Z</time>
      </trkpt>
      <trkpt lat="48.57497" lon="2.11478">
        <ele>60</ele>
        <time>2011-04-15T08:29:13Z</time>
      </trkpt>
      <trkpt lat="48.57496" lon="2.11477">
        <ele>60</ele>
        <time>2011-04-15T08:29:14Z</time>
      </trkpt>
      <trkpt lat="48.57494" lon="2.11476">
        <ele>60</ele>
        <time>2011-04-15T08:29:14Z</time>
      </trkpt>
      <trkpt lat="48.57493" lon="2.11475">
        <ele>60</ele>
        <time>2011-04-15T08:29:16Z</time>
      </trkpt>
      <trkpt lat="48.57491" lon="2.11473">
        <ele>60</ele>
        <time>2011-04-15T08:29:18Z</time>
      </trkpt>
      <trkpt lat="48.5749" lon="2.11472">
        <ele>60</ele>
        <time>2011-04-15T08:29:18Z</time>
      </trkpt>
      <trkpt lat="48.57488" lon="2.1147">
        <ele>60</ele>
        <time>2011-04-15T08:29:21Z</time>
      </trkpt>
      <trkpt lat="48.57486" lon="2.11468">
        <ele>59</ele>
        <time>2011-04-15T08:29:22Z</time>
      </trkpt>
      <trkpt lat="48.57484" lon="2.11466">
        <ele>58</ele>
        <time>2011-04-15T08:29:25Z</time>
      </trkpt>
      <trkpt lat="48.57483" lon="2.11464">
        <ele>57</ele>
        <time>2011-04-15T08:29:26Z</time>
      </trkpt>
      <trkpt lat="48.57482" lon="2.11463">
        <ele>56</ele>
        <time>2011-04-15T08:29:26Z</time>
      </trkpt>
      <trkpt lat="48.57481" lon="2.11462">
        <ele>56</ele>
        <time>2011-04-15T08:29:27Z</time>
      </trkpt>
      <trkpt lat="48.57479" lon="2.11461">
        <ele>56</ele>
        <time>2011-04-15T08:29:29Z</time>
      </trkpt>
      <trkpt lat="48.57478" lon="2.1146">
        <ele>55</ele>
        <time>2011-04-15T08:29:30Z</time>
      </trkpt>
      <trkpt lat="48.57476" lon="2.11458">
        <ele>54</ele>
        <time>2011-04-15T08:29:31Z</time>
      </trkpt>
      <trkpt lat="48.57475" lon="2.11457">
        <ele>54</ele>
        <time>2011-04-15T08:29:33Z</time>
      </trkpt>
      <trkpt lat="48.57473" lon="2.11456">
        <ele>54</ele>
        <time>2011-04-15T08:29:33Z</time>
      </trkpt>
      <trkpt lat="48.57472" lon="2.11455">
        <ele>54</ele>
        <time>2011-04-15T08:29:34Z</time>
      </trkpt>
      <trkpt lat="48.5747" lon="2.11454">
        <ele>54</ele>
        <time>2011-04-15T08:29:37Z</time>
      </trkpt>
      <trkpt lat="48.57467" lon="2.11454">
        <ele>54</ele>
        <time>2011-04-15T08:29:39Z</time>
      </trkpt>
      <trkpt lat="48.57466" lon="2.11454">
        <ele>54</ele>
        <time>2011-04-15T08:29:40Z</time>
      </trkpt>
      <trkpt lat="48.57465" lon="2.11454">
        <ele>54</ele>
        <time>2011-04-15T08:29:40Z</time>
      </trkpt>
      <trkpt lat="48.57463" lon="2.11453">
        <ele>54</ele>
        <time>2011-04-15T08:29:42Z</time>
      </trkpt>
      <trkpt lat="48.57462" lon="2.11452">
        <ele>54</ele>
        <time>2011-04-15T08:29:42Z</time>
      </trkpt>
      <trkpt lat="48.5746" lon="2.11452">
        <ele>54</ele>
        <time>2011-04-15T08:29:44Z</time>
      </trkpt>
      <trkpt lat="48.57459" lon="2.11452">
        <ele>54</ele>
        <time>2011-04-15T08:29:45Z</time>
      </trkpt>
      <trkpt lat="48.57457" lon="2.11452">
        <ele>54</ele>
        <time>2011-04-15T08:29:45Z</time>
      </trkpt>
      <trkpt lat="48.57456" lon="2.11451">
        <ele>54</ele>
        <time>2011-04-15T08:29:46Z</time>
      </trkpt>
      <trkpt lat="48.57454" lon="2.11451">
        <ele>54</ele>
        <time>2011-04-15T08:29:48Z</time>
      </trkpt>
      <trkpt lat="48.57452" lon="2.11451">
        <ele>54</ele>
        <time>2011-04-15T08:29:49Z</time>
      </trkpt>
      <trkpt lat="48.57451" lon="2.1145">
        <ele>54</ele>
        <time>2011-04-15T08:29:50Z</time>
      </trkpt>
      <trkpt lat="48.57449" lon="2.11449">
        <ele>54</ele>
        <time>2011-04-15T08:29:50Z</time>
      </trkpt>
      <trkpt lat="48.57447" lon="2.11448">
        <ele>54</ele>
        <time>2011-04-15T08:29:51Z</time>
      </trkpt>
      <trkpt lat="48.57446" lon="2.11447">
        <ele>54</ele>
        <time>2011-04-15T08:29:53Z</time>
      </trkpt>
      <trkpt lat="48.57444" lon="2.11447">
        <ele>54</ele>
        <time>2011-04-15T08:29:54Z</time>
      </trkpt>
      <trkpt lat="48.57443" lon="2.11446">
        <ele>54</ele>
        <time>2011-04-15T08:29:54Z</time>
      </trkpt>
      <trkpt lat="48.57442" lon="2.11447">
        <ele>54</ele>
        <time>2011-04-15T08:29:56Z</time>
      </trkpt>
      <trkpt lat="48.5744" lon="2.11447">
        <ele>54</ele>
        <time>2011-04-15T08:29:56Z</time>
      </trkpt>
      <trkpt lat="48.57439" lon="2.11446">
        <ele>54</ele>
        <time>2011-04-15T08:29:58Z</time>
      </trkpt>
      <trkpt lat="48.57438" lon="2.11446">
        <ele>54</ele>
        <time>2011-04-15T08:29:58Z</time>
      </trkpt>
      <trkpt lat="48.57435" lon="2.11447">
        <ele>54</ele>
        <time>2011-04-15T08:29:59Z</time>
      </trkpt>
      <trkpt lat="48.57433" lon="2.11447">
        <ele>54</ele>
        <time>2011-04-15T08:30:00Z</time>
      </trkpt>
      <trkpt lat="48.57431" lon="2.11447">
        <ele>54</ele>
        <time>2011-04-15T08:30:02Z</time>
      </trkpt>
      <trkpt lat="48.57429" lon="2.11448">
        <ele>54</ele>
        <time>2011-04-15T08:30:03Z</time>
      </trkpt>
      <trkpt lat="48.57428" lon="2.11447">
        <ele>54</ele>
        <time>2011-04-15T08:30:04Z</time>
      </trkpt>
      <trkpt lat="48.57426" lon="2.11447">
        <ele>54</ele>
        <time>2011-04-15T08:30:04Z</time>
      </trkpt>
      <trkpt lat="48.57424" lon="2.11446">
        <ele>54</ele>
        <time>2011-04-15T08:30:05Z</time>
      </trkpt>
      <trkpt lat="48.57422" lon="2.11445">
        <ele>54</ele>
        <time>2011-04-15T08:30:06Z</time>
      </trkpt>
      <trkpt lat="48.57421" lon="2.11445">
        <ele>54</ele>
        <time>2011-04-15T08:30:08Z</time>
      </trkpt>
      <trkpt lat="48.57419" lon="2.11445">
        <ele>54</ele>
        <time>2011-04-15T08:30:09Z</time>
      </trkpt>
      <trkpt lat="48.57418" lon="2.11444">
        <ele>54</ele>
        <time>2011-04-15T08:30:10Z</time>
      </trkpt>
      <trkpt lat="48.57416" lon="2.11444">
        <ele>54</ele>
        <time>2011-04-15T08:30:10Z</time>
      </trkpt>
      <trkpt lat="48.57415" lon="2.11444">
        <ele>54</ele>
        <time>2011-04-15T08:30:11Z</time>
      </trkpt>
      <trkpt lat="48.57414" lon="2.11443">
        <ele>54</ele>
        <time>2011-04-15T08:30:13Z</time>
      </trkpt>
      <trkpt lat="48.57412" lon="2.11444">
        <ele>54</ele>
        <time>2011-04-15T08:30:13Z</time>
      </trkpt>
      <trkpt lat="48.57411" lon="2.11444">
        <ele>54</ele>
        <time>2011-04-15T08:30:14Z</time>
      </trkpt>
      <trkpt lat="48.57409" lon="2.11444">
        <ele>54</ele>
        <time>2011-04-15T08:30:15Z</time>
      </trkpt>
      <trkpt lat="48.57408" lon="2.11445">
        <ele>54</ele>
        <time>2011-04-15T08:30:16Z</time>
      </trkpt>
      <trkpt lat="48.57406" lon="2.11445">
        <ele>54</ele>
        <time>2011-04-15T08:30:18Z</time>
      </trkpt>
      <trkpt lat="48.57404" lon="2.11445">
        <ele>54</ele>
        <time>2011-04-15T08:30:18Z</time>
      </trkpt>
      <trkpt lat="48.57402" lon="2.11445">
        <ele>54</ele>
        <time>2011-04-15T08:30:20Z</time>
      </trkpt>
      <trkpt lat="48.574" lon="2.11445">
        <ele>54</ele>
        <time>2011-04-15T08:30:21Z</time>
      </trkpt>
      <trkpt lat="48.57398" lon="2.11445">
        <ele>54</ele>
        <time>2011-04-15T08:30:22Z</time>
      </trkpt>
      <trkpt lat="48.57397" lon="2.11444">
        <ele>54</ele>
        <time>2011-04-15T08:30:22Z</time>
      </trkpt>
      <trkpt lat="48.57396" lon="2.11444">
        <ele>54</ele>
        <time>2011-04-15T08:30:24Z</time>
      </trkpt>
      <trkpt lat="48.57394" lon="2.11444">
        <ele>54</ele>
        <time>2011-04-15T08:30:24Z</time>
      </trkpt>
      <trkpt lat="48.57393" lon="2.11443">
        <ele>54</ele>
        <time>2011-04-15T08:30:26Z</time>
      </trkpt>
      <trkpt lat="48.57392" lon="2.11442">
        <ele>54</ele>
        <time>2011-04-15T08:30:26Z</time>
      </trkpt>
      <trkpt lat="48.5739" lon="2.11442">
        <ele>54</ele>
        <time>2011-04-15T08:30:27Z</time>
      </trkpt>
      <trkpt lat="48.57388" lon="2.11442">
        <ele>54</ele>
        <time>2011-04-15T08:30:28Z</time>
      </trkpt>
      <trkpt lat="48.57387" lon="2.11441">
        <ele>54</ele>
        <time>2011-04-15T08:30:30Z</time>
      </trkpt>
      <trkpt lat="48.57385" lon="2.1144">
        <ele>54</ele>
        <time>2011-04-15T08:30:30Z</time>
      </trkpt>
      <trkpt lat="48.57384" lon="2.1144">
        <ele>54</ele>
        <time>2011-04-15T08:30:32Z</time>
      </trkpt>
      <trkpt lat="48.57382" lon="2.11439">
        <ele>54</ele>
        <time>2011-04-15T08:30:32Z</time>
      </trkpt>
      <trkpt lat="48.57381" lon="2.11438">
        <ele>54</ele>
        <time>2011-04-15T08:30:33Z</time>
      </trkpt>
      <trkpt lat="48.57379" lon="2.11437">
        <ele>54</ele>
        <time>2011-04-15T08:30:35Z</time>
      </trkpt>
      <trkpt lat="48.57378" lon="2.11436">
        <ele>54</ele>
        <time>2011-04-15T08:30:35Z</time>
      </trkpt>
      <trkpt lat="48.57376" lon="2.11435">
        <ele>54</ele>
        <time>2011-04-15T08:30:37Z</time>
      </trkpt>
      <trkpt lat="48.57375" lon="2.11435">
        <ele>54</ele>
        <time>2011-04-15T08:30:37Z</time>
      </trkpt>
      <trkpt lat="48.57373" lon="2.11435">
        <ele>54</ele>
        <time>2011-04-15T08:30:38Z</time>
      </trkpt>
      <trkpt lat="48.57371" lon="2.11434">
        <ele>54</ele>
        <time>2011-04-15T08:30:40Z</time>
      </trkpt>
      <trkpt lat="48.5737" lon="2.11433">
        <ele>54</ele>
        <time>2011-04-15T08:30:40Z</time>
      </trkpt>
      <trkpt lat="48.57369" lon="2.11433">
        <ele>54</ele>
        <time>2011-04-15T08:30:42Z</time>
      </trkpt>
      <trkpt lat="48.57367" lon="2.11431">
        <ele>54</ele>
        <time>2011-04-15T08:30:42Z</time>
      </trkpt>
      <trkpt lat="48.57366" lon="2.1143">
        <ele>54</ele>
        <time>2011-04-15T08:30:43Z</time>
      </trkpt>
      <trkpt lat="48.57365" lon="2.11429">
        <ele>54</ele>
        <time>2011-04-15T08:30:44Z</time>
      </trkpt>
      <trkpt lat="48.57363" lon="2.11428">
        <ele>54</ele>
        <time>2011-04-15T08:30:46Z</time>
      </trkpt>
      <trkpt lat="48.57362" lon="2.11426">
        <ele>54</ele>
        <time>2011-04-15T08:30:46Z</time>
      </trkpt>
      <trkpt lat="48.5736" lon="2.11425">
        <ele>54</ele>
        <time>2011-04-15T08:30:47Z</time>
      </trkpt>
      <trkpt lat="48.57359" lon="2.11424">
        <ele>54</ele>
        <time>2011-04-15T08:30:48Z</time>
      </trkpt>
      <trkpt lat="48.57358" lon="2.11423">
        <ele>54</ele>
        <time>2011-04-15T08:30:50Z</time>
      </trkpt>
      <trkpt lat="48.57357" lon="2.11422">
        <ele>54</ele>
        <time>2011-04-15T08:30:51Z</time>
      </trkpt>
      <trkpt lat="48.57356" lon="2.1142">
        <ele>54</ele>
        <time>2011-04-15T08:30:52Z</time>
      </trkpt>
      <trkpt lat="48.57355" lon="2.11419">
        <ele>54</ele>
        <time>2011-04-15T08:30:52Z</time>
      </trkpt>
      <trkpt lat="48.57353" lon="2.11417">
        <ele>54</ele>
        <time>2011-04-15T08:30:54Z</time>
      </trkpt>
      <trkpt lat="48.57352" lon="2.11416">
        <ele>54</ele>
        <time>2011-04-15T08:30:54Z</time>
      </trkpt>
      <trkpt lat="48.57351" lon="2.11416">
        <ele>54</ele>
        <time>2011-04-15T08:30:56Z</time>
      </trkpt>
      <trkpt lat="48.57349" lon="2.11415">
        <ele>54</ele>
        <time>2011-04-15T08:30:56Z</time>
      </trkpt>
      <trkpt lat="48.57347" lon="2.11416">
        <ele>54</ele>
        <time>2011-04-15T08:30:57Z</time>
      </trkpt>
      <trkpt lat="48.57345" lon="2.11416">
        <ele>54</ele>
        <time>2011-04-15T08:30:58Z</time>
      </trkpt>
      <trkpt lat="48.57343" lon="2.11416">
        <ele>54</ele>
        <time>2011-04-15T08:30:59Z</time>
      </trkpt>
      <trkpt lat="48.57342" lon="2.11416">
        <ele>54</ele>
        <time>2011-04-15T08:31:01Z</time>
      </trkpt>
      <trkpt lat="48.5734" lon="2.11416">
        <ele>54</ele>
        <time>2011-04-15T08:31:02Z</time>
      </trkpt>
      <trkpt lat="48.57338" lon="2.11416">
        <ele>54</ele>
        <time>2011-04-15T08:31:02Z</time>
      </trkpt>
      <trkpt lat="48.57336" lon="2.11417">
        <ele>54</ele>
        <time>2011-04-15T08:31:03Z</time>
      </trkpt>
      <trkpt lat="48.57334" lon="2.11417">
        <ele>54</ele>
        <time>2011-04-15T08:31:04Z</time>
      </trkpt>
      <trkpt lat="48.57332" lon="2.11417">
        <ele>54</ele>
        <time>2011-04-15T08:31:06Z</time>
      </trkpt>
      <trkpt lat="48.5733" lon="2.11417">
        <ele>54</ele>
        <time>2011-04-15T08:31:06Z</time>
      </trkpt>
      <trkpt lat="48.57328" lon="2.11418">
        <ele>54</ele>
        <time>2011-04-15T08:31:07Z</time>
      </trkpt>
      <trkpt lat="48.57326" lon="2.11419">
        <ele>55</ele>
        <time>2011-04-15T08:31:08Z</time>
      </trkpt>
      <trkpt lat="48.57324" lon="2.1142">
        <ele>55</ele>
        <time>2011-04-15T08:31:09Z</time>
      </trkpt>
      <trkpt lat="48.57322" lon="2.1142">
        <ele>55</ele>
        <time>2011-04-15T08:31:11Z</time>
      </trkpt>
      <trkpt lat="48.57319" lon="2.11421">
        <ele>55</ele>
        <time>2011-04-15T08:31:11Z</time>
      </trkpt>
      <trkpt lat="48.57317" lon="2.11421">
        <ele>56</ele>
        <time>2011-04-15T08:31:12Z</time>
      </trkpt>
      <trkpt lat="48.57316" lon="2.11422">
        <ele>56</ele>
        <time>2011-04-15T08:31:13Z</time>
      </trkpt>
      <trkpt lat="48.57313" lon="2.11423">
        <ele>56</ele>
        <time>2011-04-15T08:31:14Z</time>
      </trkpt>
      <trkpt lat="48.57311" lon="2.11424">
        <ele>56</ele>
        <time>2011-04-15T08:31:16Z</time>
      </trkpt>
      <trkpt lat="48.57309" lon="2.11425">
        <ele>57</ele>
        <time>2011-04-15T08:31:16Z</time>
      </trkpt>
      <trkpt lat="48.57307" lon="2.11425">
        <ele>57</ele>
        <time>2011-04-15T08:31:17Z</time>
      </trkpt>
      <trkpt lat="48.57306" lon="2.11425">
        <ele>57</ele>
        <time>2011-04-15T08:31:18Z</time>
      </trkpt>
      <trkpt lat="48.57304" lon="2.11425">
        <ele>57</ele>
        <time>2011-04-15T08:31:19Z</time>
      </trkpt>
      <trkpt lat="48.57303" lon="2.11425">
        <ele>57</ele>
        <time>2011-04-15T08:31:21Z</time>
      </trkpt>
      <trkpt lat="48.57302" lon="2.11425">
        <ele>57</ele>
        <time>2011-04-15T08:31:21Z</time>
      </trkpt>
      <trkpt lat="48.573" lon="2.11424">
        <ele>57</ele>
        <time>2011-04-15T08:31:22Z</time>
      </trkpt>
      <trkpt lat="48.57299" lon="2.11424">
        <ele>57</ele>
        <time>2011-04-15T08:31:23Z</time>
      </trkpt>
      <trkpt lat="48.57297" lon="2.11424">
        <ele>57</ele>
        <time>2011-04-15T08:31:24Z</time>
      </trkpt>
      <trkpt lat="48.57296" lon="2.11425">
        <ele>57</ele>
        <time>2011-04-15T08:31:26Z</time>
      </trkpt>
      <trkpt lat="48.57294" lon="2.11426">
        <ele>57</ele>
        <time>2011-04-15T08:31:26Z</time>
      </trkpt>
      <trkpt lat="48.57292" lon="2.11426">
        <ele>57</ele>
        <time>2011-04-15T08:31:27Z</time>
      </trkpt>
      <trkpt lat="48.5729" lon="2.11427">
        <ele>57</ele>
        <time>2011-04-15T08:31:28Z</time>
      </trkpt>
      <trkpt lat="48.57288" lon="2.11427">
        <ele>57</ele>
        <time>2011-04-15T08:31:29Z</time>
      </trkpt>
      <trkpt lat="48.57286" lon="2.11427">
        <ele>57</ele>
        <time>2011-04-15T08:31:31Z</time>
      </trkpt>
      <trkpt lat="48.57284" lon="2.11426">
        <ele>57</ele>
        <time>2011-04-15T08:31:31Z</time>
      </trkpt>
      <trkpt lat="48.57282" lon="2.11424">
        <ele>57</ele>
        <time>2011-04-15T08:31:32Z</time>
      </trkpt>
      <trkpt lat="48.57281" lon="2.11423">
        <ele>57</ele>
        <time>2011-04-15T08:31:33Z</time>
      </trkpt>
      <trkpt lat="48.57279" lon="2.11423">
        <ele>57</ele>
        <time>2011-04-15T08:31:35Z</time>
      </trkpt>
      <trkpt lat="48.57277" lon="2.11423">
        <ele>57</ele>
        <time>2011-04-15T08:31:35Z</time>
      </trkpt>
      <trkpt lat="48.57276" lon="2.11422">
        <ele>57</ele>
        <time>2011-04-15T08:31:36Z</time>
      </trkpt>
      <trkpt lat="48.57274" lon="2.11422">
        <ele>57</ele>
        <time>2011-04-15T08:31:37Z</time>
      </trkpt>
      <trkpt lat="48.57272" lon="2.11422">
        <ele>57</ele>
        <time>2011-04-15T08:31:38Z</time>
      </trkpt>
      <trkpt lat="48.5727" lon="2.11422">
        <ele>57</ele>
        <time>2011-04-15T08:31:39Z</time>
      </trkpt>
      <trkpt lat="48.57269" lon="2.11422">
        <ele>57</ele>
        <time>2011-04-15T08:31:41Z</time>
      </trkpt>
      <trkpt lat="48.57267" lon="2.11423">
        <ele>57</ele>
        <time>2011-04-15T08:31:41Z</time>
      </trkpt>
      <trkpt lat="48.57265" lon="2.11423">
        <ele>57</ele>
        <time>2011-04-15T08:31:42Z</time>
      </trkpt>
      <trkpt lat="48.57263" lon="2.11423">
        <ele>57</ele>
        <time>2011-04-15T08:31:43Z</time>
      </trkpt>
      <trkpt lat="48.57262" lon="2.11423">
        <ele>57</ele>
        <time>2011-04-15T08:31:44Z</time>
      </trkpt>
      <trkpt lat="48.5726" lon="2.11423">
        <ele>57</ele>
        <time>2011-04-15T08:31:46Z</time>
      </trkpt>
      <trkpt lat="48.57259" lon="2.11423">
        <ele>57</ele>
        <time>2011-04-15T08:31:46Z</time>
      </trkpt>
      <trkpt lat="48.57257" lon="2.11423">
        <ele>57</ele>
        <time>2011-04-15T08:31:47Z</time>
      </trkpt>
      <trkpt lat="48.57255" lon="2.11423">
        <ele>57</ele>
        <time>2011-04-15T08:31:48Z</time>
      </trkpt>
      <trkpt lat="48.57254" lon="2.11423">
        <ele>57</ele>
        <time>2011-04-15T08:31:49Z</time>
      </trkpt>
      <trkpt lat="48.57252" lon="2.11423">
        <ele>57</ele>
        <time>2011-04-15T08:31:51Z</time>
      </trkpt>
      <trkpt lat="48.5725" lon="2.11423">
        <ele>57</ele>
        <time>2011-04-15T08:31:51Z</time>
      </trkpt>
      <trkpt lat="48.57248" lon="2.11423">
        <ele>57</ele>
        <time>2011-04-15T08:31:52Z</time>
      </trkpt>
      <trkpt lat="48.57247" lon="2.11423">
        <ele>57</ele>
        <time>2011-04-15T08:31:53Z</time>
      </trkpt>
      <trkpt lat="48.57245" lon="2.11423">
        <ele>57</ele>
        <time>2011-04-15T08:31:54Z</time>
      </trkpt>
      <trkpt lat="48.57243" lon="2.11423">
        <ele>57</ele>
        <time>2011-04-15T08:31:56Z</time>
      </trkpt>
      <trkpt lat="48.57241" lon="2.11423">
        <ele>57</ele>
        <time>2011-04-15T08:31:56Z</time>
      </trkpt>
      <trkpt lat="48.57238" lon="2.11423">
        <ele>57</ele>
        <time>2011-04-15T08:31:57Z</time>
      </trkpt>
      <trkpt lat="48.57236" lon="2.11423">
        <ele>57</ele>
        <time>2011-04-15T08:31:58Z</time>
      </trkpt>
      <trkpt lat="48.57234" lon="2.11423">
        <ele>57</ele>
        <time>2011-04-15T08:31:59Z</time>
      </trkpt>
      <trkpt lat="48.57232" lon="2.11423">
        <ele>57</ele>
        <time>2011-04-15T08:32:01Z</time>
      </trkpt>
      <trkpt lat="48.5723" lon="2.11423">
        <ele>57</ele>
        <time>2011-04-15T08:32:01Z</time>
      </trkpt>
      <trkpt lat="48.57228" lon="2.11423">
        <ele>57</ele>
        <time>2011-04-15T08:32:02Z</time>
      </trkpt>
      <trkpt lat="48.57226" lon="2.11423">
        <ele>57</ele>
        <time>2011-04-15T08:32:03Z</time>
      </trkpt>
      <trkpt lat="48.57224" lon="2.11423">
        <ele>57</ele>
        <time>2011-04-15T08:32:04Z</time>
      </trkpt>
      <trkpt lat="48.57222" lon="2.11422">
        <ele>57</ele>
        <time>2011-04-15T08:32:06Z</time>
      </trkpt>
      <trkpt lat="48.5722" lon="2.11423">
        <ele>57</ele>
        <time>2011-04-15T08:32:06Z</time>
      </trkpt>
      <trkpt lat="48.57219" lon="2.11423">
        <ele>57</ele>
        <time>2011-04-15T08:32:07Z</time>
      </trkpt>
      <trkpt lat="48.57217" lon="2.11423">
        <ele>57</ele>
        <time>2011-04-15T08:32:08Z</time>
      </trkpt>
      <trkpt lat="48.57215" lon="2.11423">
        <ele>57</ele>
        <time>2011-04-15T08:32:09Z</time>
      </trkpt>
      <trkpt lat="48.57213" lon="2.11423">
        <ele>57</ele>
        <time>2011-04-15T08:32:11Z</time>
      </trkpt>
      <trkpt lat="48.57212" lon="2.11423">
        <ele>57</ele>
        <time>2011-04-15T08:32:11Z</time>
      </trkpt>
      <trkpt lat="48.5721" lon="2.11422">
        <ele>57</ele>
        <time>2011-04-15T08:32:12Z</time>
      </trkpt>
      <trkpt lat="48.57208" lon="2.11422">
        <ele>57</ele>
        <time>2011-04-15T08:32:13Z</time>
      </trkpt>
      <trkpt lat="48.57206" lon="2.11423">
        <ele>57</ele>
        <time>2011-04-15T08:32:14Z</time>
      </trkpt>
      <trkpt lat="48.57205" lon="2.11423">
        <ele>57</ele>
        <time>2011-04-15T08:32:16Z</time>
      </trkpt>
      <trkpt lat="48.57203" lon="2.11423">
        <ele>57</ele>
        <time>2011-04-15T08:32:16Z</time>
      </trkpt>
      <trkpt lat="48.57201" lon="2.11423">
        <ele>57</ele>
        <time>2011-04-15T08:32:17Z</time>
      </trkpt>
      <trkpt lat="48.57199" lon="2.11423">
        <ele>57</ele>
        <time>2011-04-15T08:32:18Z</time>
      </trkpt>
      <trkpt lat="48.57198" lon="2.11424">
        <ele>57</ele>
        <time>2011-04-15T08:32:19Z</time>
      </trkpt>
      <trkpt lat="48.57196" lon="2.11424">
        <ele>57</ele>
        <time>2011-04-15T08:32:21Z</time>
      </trkpt>
      <trkpt lat="48.57194" lon="2.11424">
        <ele>57</ele>
        <time>2011-04-15T08:32:21Z</time>
      </trkpt>
      <trkpt lat="48.57193" lon="2.11424">
        <ele>57</ele>
        <time>2011-04-15T08:32:22Z</time>
      </trkpt>
      <trkpt lat="48.57191" lon="2.11424">
        <ele>57</ele>
        <time>2011-04-15T08:32:23Z</time>
      </trkpt>
      <trkpt lat="48.57189" lon="2.11424">
        <ele>57</ele>
        <time>2011-04-15T08:32:24Z</time>
      </trkpt>
      <trkpt lat="48.57187" lon="2.11424">
        <ele>57</ele>
        <time>2011-04-15T08:32:26Z</time>
      </trkpt>
      <trkpt lat="48.57185" lon="2.11424">
        <ele>57</ele>
        <time>2011-04-15T08:32:26Z</time>
      </trkpt>
      <trkpt lat="48.57184" lon="2.11424">
        <ele>57</ele>
        <time>2011-04-15T08:32:27Z</time>
      </trkpt>
      <trkpt lat="48.57182" lon="2.11424">
        <ele>57</ele>
        <time>2011-04-15T08:32:28Z</time>
      </trkpt>
      <trkpt lat="48.57181" lon="2.11424">
        <ele>57</ele>
        <time>2011-04-15T08:32:29Z</time>
      </trkpt>
      <trkpt lat="48.57179" lon="2.11424">
        <ele>57</ele>
        <time>2011-04-15T08:32:30Z</time>
      </trkpt>
      <trkpt lat="48.57177" lon="2.11424">
        <ele>57</ele>
        <time>2011-04-15T08:32:31Z</time>
      </trkpt>
      <trkpt lat="48.57175" lon="2.11424">
        <ele>57</ele>
        <time>2011-04-15T08:32:32Z</time>
      </trkpt>
      <trkpt lat="48.57174" lon="2.11424">
        <ele>57</ele>
        <time>2011-04-15T08:32:33Z</time>
      </trkpt>
      <trkpt lat="48.57172" lon="2.11423">
        <ele>57</ele>
        <time>2011-04-15T08:32:34Z</time>
      </trkpt>
      <trkpt lat="48.5717" lon="2.11423">
        <ele>57</ele>
        <time>2011-04-15T08:32:35Z</time>
      </trkpt>
      <trkpt lat="48.57169" lon="2.11423">
        <ele>57</ele>
        <time>2011-04-15T08:32:37Z</time>
      </trkpt>
      <trkpt lat="48.57167" lon="2.11423">
        <ele>57</ele>
        <time>2011-04-15T08:32:37Z</time>
      </trkpt>
      <trkpt lat="48.57165" lon="2.11423">
        <ele>57</ele>
        <time>2011-04-15T08:32:38Z</time>
      </trkpt>
      <trkpt lat="48.57164" lon="2.11423">
        <ele>57</ele>
        <time>2011-04-15T08:32:39Z</time>
      </trkpt>
      <trkpt lat="48.57162" lon="2.11423">
        <ele>57</ele>
        <time>2011-04-15T08:32:40Z</time>
      </trkpt>
      <trkpt lat="48.5716" lon="2.11423">
        <ele>57</ele>
        <time>2011-04-15T08:32:42Z</time>
      </trkpt>
      <trkpt lat="48.57159" lon="2.11423">
        <ele>57</ele>
        <time>2011-04-15T08:32:42Z</time>
      </trkpt>
      <trkpt lat="48.57157" lon="2.11423">
        <ele>57</ele>
        <time>2011-04-15T08:32:43Z</time>
      </trkpt>
      <trkpt lat="48.57156" lon="2.11423">
        <ele>57</ele>
        <time>2011-04-15T08:32:44Z</time>
      </trkpt>
      <trkpt lat="48.57154" lon="2.11423">
        <ele>57</ele>
        <time>2011-04-15T08:32:45Z</time>
      </trkpt>
      <trkpt lat="48.57152" lon="2.11423">
        <ele>57</ele>
        <time>2011-04-15T08:32:46Z</time>
      </trkpt>
      <trkpt lat="48.57151" lon="2.11423">
        <ele>57</ele>
        <time>2011-04-15T08:32:47Z</time>
      </trkpt>
      <trkpt lat="48.57149" lon="2.11423">
        <ele>57</ele>
        <time>2011-04-15T08:32:48Z</time>
      </trkpt>
      <trkpt lat="48.57147" lon="2.11423">
        <ele>57</ele>
        <time>2011-04-15T08:32:49Z</time>
      </trkpt>
      <trkpt lat="48.57146" lon="2.11423">
        <ele>57</ele>
        <time>2011-04-15T08:32:50Z</time>
      </trkpt>
      <trkpt lat="48.57144" lon="2.11423">
        <ele>57</ele>
        <time>2011-04-15T08:32:52Z</time>
      </trkpt>
      <trkpt lat="48.57143" lon="2.11423">
        <ele>57</ele>
        <time>2011-04-15T08:32:52Z</time>
      </trkpt>
      <trkpt lat="48.57141" lon="2.11423">
        <ele>57</ele>
        <time>2011-04-15T08:32:53Z</time>
      </trkpt>
      <trkpt lat="48.57139" lon="2.11423">
        <ele>57</ele>
        <time>2011-04-15T08:32:54Z</time>
      </trkpt>
      <trkpt lat="48.57137" lon="2.11423">
        <ele>57</ele>
        <time>2011-04-15T08:32:55Z</time>
      </trkpt>
      <trkpt lat="48.57135" lon="2.11423">
        <ele>57</ele>
        <time>2011-04-15T08:32:57Z</time>
      </trkpt>
      <trkpt lat="48.57134" lon="2.11423">
        <ele>57</ele>
        <time>2011-04-15T08:32:57Z</time>
      </trkpt>
      <trkpt lat="48.57132" lon="2.11423">
        <ele>57</ele>
        <time>2011-04-15T08:32:58Z</time>
      </trkpt>
      <trkpt lat="48.5713" lon="2.11423">
        <ele>57</ele>
        <time>2011-04-15T08:32:59Z</time>
      </trkpt>
      <trkpt lat="48.57129" lon="2.11423">
        <ele>57</ele>
        <time>2011-04-15T08:33:00Z</time>
      </trkpt>
      <trkpt lat="48.57127" lon="2.11423">
        <ele>57</ele>
        <time>2011-04-15T08:33:02Z</time>
      </trkpt>
      <trkpt lat="48.57125" lon="2.11423">
        <ele>57</ele>
        <time>2011-04-15T08:33:02Z</time>
      </trkpt>
      <trkpt lat="48.57124" lon="2.11424">
        <ele>57</ele>
        <time>2011-04-15T08:33:03Z</time>
      </trkpt>
      <trkpt lat="48.57122" lon="2.11424">
        <ele>57</ele>
        <time>2011-04-15T08:33:04Z</time>
      </trkpt>
      <trkpt lat="48.57121" lon="2.11424">
        <ele>57</ele>
        <time>2011-04-15T08:33:05Z</time>
      </trkpt>
      <trkpt lat="48.57119" lon="2.11424">
        <ele>57</ele>
        <time>2011-04-15T08:33:07Z</time>
      </trkpt>
      <trkpt lat="48.57117" lon="2.11424">
        <ele>57</ele>
        <time>2011-04-15T08:33:07Z</time>
      </trkpt>
      <trkpt lat="48.57115" lon="2.11424">
        <ele>57</ele>
        <time>2011-04-15T08:33:08Z</time>
      </trkpt>
      <trkpt lat="48.57114" lon="2.11424">
        <ele>57</ele>
        <time>2011-04-15T08:33:09Z</time>
      </trkpt>
      <trkpt lat="48.57112" lon="2.11424">
        <ele>57</ele>
        <time>2011-04-15T08:33:10Z</time>
      </trkpt>
      <trkpt lat="48.5711" lon="2.11423">
        <ele>57</ele>
        <time>2011-04-15T08:33:12Z</time>
      </trkpt>
      <trkpt lat="48.57108" lon="2.11423">
        <ele>57</ele>
        <time>2011-04-15T08:33:12Z</time>
      </trkpt>
      <trkpt lat="48.57106" lon="2.11423">
        <ele>57</ele>
        <time>2011-04-15T08:33:13Z</time>
      </trkpt>
      <trkpt lat="48.57105" lon="2.11424">
        <ele>57</ele>
        <time>2011-04-15T08:33:14Z</time>
      </trkpt>
      <trkpt lat="48.57103" lon="2.11424">
        <ele>57</ele>
        <time>2011-04-15T08:33:15Z</time>
      </trkpt>
      <trkpt lat="48.57101" lon="2.11423">
        <ele>57</ele>
        <time>2011-04-15T08:33:16Z</time>
      </trkpt>
      <trkpt lat="48.57099" lon="2.11423">
        <ele>57</ele>
        <time>2011-04-15T08:33:17Z</time>
      </trkpt>
      <trkpt lat="48.57097" lon="2.11424">
        <ele>57</ele>
        <time>2011-04-15T08:33:18Z</time>
      </trkpt>
      <trkpt lat="48.57096" lon="2.11424">
        <ele>57</ele>
        <time>2011-04-15T08:33:19Z</time>
      </trkpt>
      <trkpt lat="48.57094" lon="2.11424">
        <ele>57</ele>
        <time>2011-04-15T08:33:20Z</time>
      </trkpt>
      <trkpt lat="48.57093" lon="2.11424">
        <ele>57</ele>
        <time>2011-04-15T08:33:22Z</time>
      </trkpt>
      <trkpt lat="48.57091" lon="2.11424">
        <ele>57</ele>
        <time>2011-04-15T08:33:22Z</time>
      </trkpt>
      <trkpt lat="48.57089" lon="2.11424">
        <ele>57</ele>
        <time>2011-04-15T08:33:23Z</time>
      </trkpt>
      <trkpt lat="48.57087" lon="2.11424">
        <ele>57</ele>
        <time>2011-04-15T08:33:24Z</time>
      </trkpt>
      <trkpt lat="48.57086" lon="2.11424">
        <ele>57</ele>
        <time>2011-04-15T08:33:25Z</time>
      </trkpt>
      <trkpt lat="48.57084" lon="2.11424">
        <ele>58</ele>
        <time>2011-04-15T08:33:27Z</time>
      </trkpt>
      <trkpt lat="48.57083" lon="2.11424">
        <ele>58</ele>
        <time>2011-04-15T08:33:27Z</time>
      </trkpt>
      <trkpt lat="48.57081" lon="2.11423">
        <ele>58</ele>
        <time>2011-04-15T08:33:28Z</time>
      </trkpt>
      <trkpt lat="48.57079" lon="2.11423">
        <ele>58</ele>
        <time>2011-04-15T08:33:29Z</time>
      </trkpt>
      <trkpt lat="48.57078" lon="2.11423">
        <ele>58</ele>
        <time>2011-04-15T08:33:30Z</time>
      </trkpt>
      <trkpt lat="48.57076" lon="2.11423">
        <ele>58</ele>
        <time>2011-04-15T08:33:32Z</time>
      </trkpt>
      <trkpt lat="48.57075" lon="2.11424">
        <ele>58</ele>
        <time>2011-04-15T08:33:32Z</time>
      </trkpt>
      <trkpt lat="48.57073" lon="2.11424">
        <ele>58</ele>
        <time>2011-04-15T08:33:33Z</time>
      </trkpt>
      <trkpt lat="48.57071" lon="2.11424">
        <ele>58</ele>
        <time>2011-04-15T08:33:34Z</time>
      </trkpt>
      <trkpt lat="48.5707" lon="2.11424">
        <ele>58</ele>
        <time>2011-04-15T08:33:35Z</time>
      </trkpt>
      <trkpt lat="48.57068" lon="2.11424">
        <ele>58</ele>
        <time>2011-04-15T08:33:37Z</time>
      </trkpt>
      <trkpt lat="48.57066" lon="2.11425">
        <ele>58</ele>
        <time>2011-04-15T08:33:37Z</time>
      </trkpt>
      <trkpt lat="48.57065" lon="2.11425">
        <ele>58</ele>
        <time>2011-04-15T08:33:38Z</time>
      </trkpt>
      <trkpt lat="48.57063" lon="2.11425">
        <ele>58</ele>
        <time>2011-04-15T08:33:39Z</time>
      </trkpt>
      <trkpt lat="48.57062" lon="2.11425">
        <ele>58</ele>
        <time>2011-04-15T08:33:40Z</time>
      </trkpt>
      <trkpt lat="48.5706" lon="2.11425">
        <ele>58</ele>
        <time>2011-04-15T08:33:42Z</time>
      </trkpt>
      <trkpt lat="48.57059" lon="2.11425">
        <ele>58</ele>
        <time>2011-04-15T08:33:42Z</time>
      </trkpt>
      <trkpt lat="48.57057" lon="2.11425">
        <ele>58</ele>
        <time>2011-04-15T08:33:43Z</time>
      </trkpt>
      <trkpt lat="48.57056" lon="2.11425">
        <ele>58</ele>
        <time>2011-04-15T08:33:44Z</time>
      </trkpt>
      <trkpt lat="48.57054" lon="2.11425">
        <ele>58</ele>
        <time>2011-04-15T08:33:45Z</time>
      </trkpt>
      <trkpt lat="48.57052" lon="2.11425">
        <ele>58</ele>
        <time>2011-04-15T08:33:47Z</time>
      </trkpt>
      <trkpt lat="48.57051" lon="2.11425">
        <ele>58</ele>
        <time>2011-04-15T08:33:47Z</time>
      </trkpt>
      <trkpt lat="48.57049" lon="2.11425">
        <ele>58</ele>
        <time>2011-04-15T08:33:48Z</time>
      </trkpt>
      <trkpt lat="48.57047" lon="2.11425">
        <ele>58</ele>
        <time>2011-04-15T08:33:49Z</time>
      </trkpt>
      <trkpt lat="48.57046" lon="2.11426">
        <ele>58</ele>
        <time>2011-04-15T08:33:50Z</time>
      </trkpt>
      <trkpt lat="48.57044" lon="2.11426">
        <ele>58</ele>
        <time>2011-04-15T08:33:52Z</time>
      </trkpt>
      <trkpt lat="48.57042" lon="2.11426">
        <ele>59</ele>
        <time>2011-04-15T08:33:52Z</time>
      </trkpt>
      <trkpt lat="48.57041" lon="2.11425">
        <ele>59</ele>
        <time>2011-04-15T08:33:53Z</time>
      </trkpt>
      <trkpt lat="48.57039" lon="2.11425">
        <ele>59</ele>
        <time>2011-04-15T08:33:54Z</time>
      </trkpt>
      <trkpt lat="48.57038" lon="2.11426">
        <ele>59</ele>
        <time>2011-04-15T08:33:55Z</time>
      </trkpt>
      <trkpt lat="48.57036" lon="2.11426">
        <ele>59</ele>
        <time>2011-04-15T08:33:57Z</time>
      </trkpt>
      <trkpt lat="48.57035" lon="2.11426">
        <ele>59</ele>
        <time>2011-04-15T08:33:57Z</time>
      </trkpt>
      <trkpt lat="48.57033" lon="2.11426">
        <ele>59</ele>
        <time>2011-04-15T08:33:58Z</time>
      </trkpt>
      <trkpt lat="48.57031" lon="2.11426">
        <ele>59</ele>
        <time>2011-04-15T08:33:59Z</time>
      </trkpt>
      <trkpt lat="48.5703" lon="2.11426">
        <ele>59</ele>
        <time>2011-04-15T08:34:01Z</time>
      </trkpt>
      <trkpt lat="48.57028" lon="2.11426">
        <ele>60</ele>
        <time>2011-04-15T08:34:28Z</time>
      </trkpt>
      <trkpt lat="48.57027" lon="2.11425">
        <ele>60</ele>
        <time>2011-04-15T08:34:28Z</time>
      </trkpt>
      <trkpt lat="48.57025" lon="2.11425">
        <ele>60</ele>
        <time>2011-04-15T08:34:29Z</time>
      </trkpt>
      <trkpt lat="48.57023" lon="2.11425">
        <ele>60</ele>
        <time>2011-04-15T08:34:30Z</time>
      </trkpt>
      <trkpt lat="48.57021" lon="2.11425">
        <ele>60</ele>
        <time>2011-04-15T08:34:31Z</time>
      </trkpt>
      <trkpt lat="48.57019" lon="2.11425">
        <ele>60</ele>
        <time>2011-04-15T08:34:33Z</time>
      </trkpt>
      <trkpt lat="48.57016" lon="2.11425">
        <ele>60</ele>
        <time>2011-04-15T08:34:33Z</time>
      </trkpt>
      <trkpt lat="48.57014" lon="2.11424">
        <ele>60</ele>
        <time>2011-04-15T08:34:34Z</time>
      </trkpt>
      <trkpt lat="48.57012" lon="2.11424">
        <ele>60</ele>
        <time>2011-04-15T08:34:35Z</time>
      </trkpt>
      <trkpt lat="48.5701" lon="2.11424">
        <ele>60</ele>
        <time>2011-04-15T08:34:36Z</time>
      </trkpt>
      <trkpt lat="48.57008" lon="2.11425">
        <ele>60</ele>
        <time>2011-04-15T08:34:37Z</time>
      </trkpt>
      <trkpt lat="48.57006" lon="2.11425">
        <ele>60</ele>
        <time>2011-04-15T08:34:38Z</time>
      </trkpt>
      <trkpt lat="48.57005" lon="2.11425">
        <ele>60</ele>
        <time>2011-04-15T08:34:39Z</time>
      </trkpt>
      <trkpt lat="48.57003" lon="2.11425">
        <ele>60</ele>
        <time>2011-04-15T08:34:40Z</time>
      </trkpt>
      <trkpt lat="48.57001" lon="2.11425">
        <ele>60</ele>
        <time>2011-04-15T08:34:41Z</time>
      </trkpt>
      <trkpt lat="48.57" lon="2.11425">
        <ele>60</ele>
        <time>2011-04-15T08:34:42Z</time>
      </trkpt>
      <trkpt lat="48.56998" lon="2.11425">
        <ele>60</ele>
        <time>2011-04-15T08:34:43Z</time>
      </trkpt>
      <trkpt lat="48.56996" lon="2.11425">
        <ele>60</ele>
        <time>2011-04-15T08:34:44Z</time>
      </trkpt>
      <trkpt lat="48.56995" lon="2.11425">
        <ele>60</ele>
        <time>2011-04-15T08:34:45Z</time>
      </trkpt>
      <trkpt lat="48.56993" lon="2.11425">
        <ele>60</ele>
        <time>2011-04-15T08:34:46Z</time>
      </trkpt>
      <trkpt lat="48.56991" lon="2.11425">
        <ele>60</ele>
        <time>2011-04-15T08:34:47Z</time>
      </trkpt>
      <trkpt lat="48.5699" lon="2.11425">
        <ele>61</ele>
        <time>2011-04-15T08:34:48Z</time>
      </trkpt>
      <trkpt lat="48.56988" lon="2.11425">
        <ele>61</ele>
        <time>2011-04-15T08:34:49Z</time>
      </trkpt>
      <trkpt lat="48.56987" lon="2.11425">
        <ele>61</ele>
        <time>2011-04-15T08:34:50Z</time>
      </trkpt>
      <trkpt lat="48.56985" lon="2.11425">
        <ele>61</ele>
        <time>2011-04-15T08:34:51Z</time>
      </trkpt>
      <trkpt lat="48.56983" lon="2.11425">
        <ele>61</ele>
        <time>2011-04-15T08:34:52Z</time>
      </trkpt>
      <trkpt lat="48.56982" lon="2.11425">
        <ele>61</ele>
        <time>2011-04-15T08:34:53Z</time>
      </trkpt>
      <trkpt lat="48.5698" lon="2.11425">
        <ele>61</ele>
        <time>2011-04-15T08:34:54Z</time>
      </trkpt>
      <trkpt lat="48.56979" lon="2.11425">
        <ele>61</ele>
        <time>2011-04-15T08:34:55Z</time>
      </trkpt>
      <trkpt lat="48.56978" lon="2.11426">
        <ele>61</ele>
        <time>2011-04-15T08:34:56Z</time>
      </trkpt>
      <trkpt lat="48.56977" lon="2.11428">
        <ele>61</ele>
        <time>2011-04-15T08:34:58Z</time>
      </trkpt>
      <trkpt lat="48.56976" lon="2.1143">
        <ele>61</ele>
        <time>2011-04-15T08:34:58Z</time>
      </trkpt>
      <trkpt lat="48.56975" lon="2.11432">
        <ele>62</ele>
        <time>2011-04-15T08:34:59Z</time>
      </trkpt>
      <trkpt lat="48.56975" lon="2.11435">
        <ele>62</ele>
        <time>2011-04-15T08:35:00Z</time>
      </trkpt>
      <trkpt lat="48.56975" lon="2.11437">
        <ele>62</ele>
        <time>2011-04-15T08:35:01Z</time>
      </trkpt>
      <trkpt lat="48.56974" lon="2.1144">
        <ele>62</ele>
        <time>2011-04-15T08:35:03Z</time>
      </trkpt>
      <trkpt lat="48.56974" lon="2.11443">
        <ele>63</ele>
        <time>2011-04-15T08:35:03Z</time>
      </trkpt>
      <trkpt lat="48.56974" lon="2.11446">
        <ele>63</ele>
        <time>2011-04-15T08:35:04Z</time>
      </trkpt>
      <trkpt lat="48.56974" lon="2.11448">
        <ele>63</ele>
        <time>2011-04-15T08:35:05Z</time>
      </trkpt>
      <trkpt lat="48.56974" lon="2.11451">
        <ele>63</ele>
        <time>2011-04-15T08:35:06Z</time>
      </trkpt>
      <trkpt lat="48.56973" lon="2.11454">
        <ele>63</ele>
        <time>2011-04-15T08:35:08Z</time>
      </trkpt>
      <trkpt lat="48.56973" lon="2.11456">
        <ele>64</ele>
        <time>2011-04-15T08:35:09Z</time>
      </trkpt>
      <trkpt lat="48.56972" lon="2.11458">
        <ele>64</ele>
        <time>2011-04-15T08:35:14Z</time>
      </trkpt>
      <trkpt lat="48.56972" lon="2.11456">
        <ele>64</ele>
        <time>2011-04-15T08:35:21Z</time>
      </trkpt>
      <trkpt lat="48.56972" lon="2.11454">
        <ele>64</ele>
        <time>2011-04-15T08:35:21Z</time>
      </trkpt>
      <trkpt lat="48.56972" lon="2.11452">
        <ele>64</ele>
        <time>2011-04-15T08:35:22Z</time>
      </trkpt>
      <trkpt lat="48.56973" lon="2.1145">
        <ele>64</ele>
        <time>2011-04-15T08:35:23Z</time>
      </trkpt>
      <trkpt lat="48.56973" lon="2.11448">
        <ele>64</ele>
        <time>2011-04-15T08:35:24Z</time>
      </trkpt>
      <trkpt lat="48.56974" lon="2.11446">
        <ele>64</ele>
        <time>2011-04-15T08:35:26Z</time>
      </trkpt>
      <trkpt lat="48.56974" lon="2.11444">
        <ele>64</ele>
        <time>2011-04-15T08:35:26Z</time>
      </trkpt>
      <trkpt lat="48.56974" lon="2.11441">
        <ele>64</ele>
        <time>2011-04-15T08:35:28Z</time>
      </trkpt>
      <trkpt lat="48.56974" lon="2.11439">
        <ele>64</ele>
        <time>2011-04-15T08:35:29Z</time>
      </trkpt>
      <trkpt lat="48.56974" lon="2.11437">
        <ele>64</ele>
        <time>2011-04-15T08:35:31Z</time>
      </trkpt>
      <trkpt lat="48.56975" lon="2.11435">
        <ele>64</ele>
        <time>2011-04-15T08:35:31Z</time>
      </trkpt>
      <trkpt lat="48.56975" lon="2.11433">
        <ele>64</ele>
        <time>2011-04-15T08:35:32Z</time>
      </trkpt>
      <trkpt lat="48.56975" lon="2.11432">
        <ele>64</ele>
        <time>2011-04-15T08:35:33Z</time>
      </trkpt>
      <trkpt lat="48.56975" lon="2.1143">
        <ele>64</ele>
        <time>2011-04-15T08:35:34Z</time>
      </trkpt>
      <trkpt lat="48.56974" lon="2.11427">
        <ele>64</ele>
        <time>2011-04-15T08:35:36Z</time>
      </trkpt>
      <trkpt lat="48.56973" lon="2.11425">
        <ele>64</ele>
        <time>2011-04-15T08:35:36Z</time>
      </trkpt>
      <trkpt lat="48.56971" lon="2.11423">
        <ele>64</ele>
        <time>2011-04-15T08:35:37Z</time>
      </trkpt>
      <trkpt lat="48.5697" lon="2.11422">
        <ele>64</ele>
        <time>2011-04-15T08:35:38Z</time>
      </trkpt>
      <trkpt lat="48.56968" lon="2.11422">
        <ele>64</ele>
        <time>2011-04-15T08:35:39Z</time>
      </trkpt>
      <trkpt lat="48.56966" lon="2.11421">
        <ele>64</ele>
        <time>2011-04-15T08:35:41Z</time>
      </trkpt>
      <trkpt lat="48.56964" lon="2.11421">
        <ele>64</ele>
        <time>2011-04-15T08:35:41Z</time>
      </trkpt>
      <trkpt lat="48.56962" lon="2.11421">
        <ele>64</ele>
        <time>2011-04-15T08:35:42Z</time>
      </trkpt>
      <trkpt lat="48.56961" lon="2.11421">
        <ele>64</ele>
        <time>2011-04-15T08:35:43Z</time>
      </trkpt>
      <trkpt lat="48.56959" lon="2.11421">
        <ele>64</ele>
        <time>2011-04-15T08:35:44Z</time>
      </trkpt>
      <trkpt lat="48.56957" lon="2.1142">
        <ele>64</ele>
        <time>2011-04-15T08:35:45Z</time>
      </trkpt>
      <trkpt lat="48.56955" lon="2.1142">
        <ele>64</ele>
        <time>2011-04-15T08:35:46Z</time>
      </trkpt>
      <trkpt lat="48.56954" lon="2.1142">
        <ele>64</ele>
        <time>2011-04-15T08:35:47Z</time>
      </trkpt>
      <trkpt lat="48.56952" lon="2.1142">
        <ele>64</ele>
        <time>2011-04-15T08:35:48Z</time>
      </trkpt>
      <trkpt lat="48.5695" lon="2.1142">
        <ele>64</ele>
        <time>2011-04-15T08:35:49Z</time>
      </trkpt>
      <trkpt lat="48.56948" lon="2.1142">
        <ele>64</ele>
        <time>2011-04-15T08:35:50Z</time>
      </trkpt>
      <trkpt lat="48.56947" lon="2.1142">
        <ele>64</ele>
        <time>2011-04-15T08:35:51Z</time>
      </trkpt>
      <trkpt lat="48.56945" lon="2.1142">
        <ele>64</ele>
        <time>2011-04-15T08:35:52Z</time>
      </trkpt>
      <trkpt lat="48.56944" lon="2.1142">
        <ele>64</ele>
        <time>2011-04-15T08:35:53Z</time>
      </trkpt>
      <trkpt lat="48.56942" lon="2.1142">
        <ele>64</ele>
        <time>2011-04-15T08:35:54Z</time>
      </trkpt>
      <trkpt lat="48.5694" lon="2.1142">
        <ele>64</ele>
        <time>2011-04-15T08:35:56Z</time>
      </trkpt>
      <trkpt lat="48.56939" lon="2.11419">
        <ele>64</ele>
        <time>2011-04-15T08:35:56Z</time>
      </trkpt>
      <trkpt lat="48.56937" lon="2.11419">
        <ele>64</ele>
        <time>2011-04-15T08:35:57Z</time>
      </trkpt>
      <trkpt lat="48.56936" lon="2.11419">
        <ele>65</ele>
        <time>2011-04-15T08:35:58Z</time>
      </trkpt>
      <trkpt lat="48.56934" lon="2.11419">
        <ele>65</ele>
        <time>2011-04-15T08:35:59Z</time>
      </trkpt>
      <trkpt lat="48.56932" lon="2.11419">
        <ele>65</ele>
        <time>2011-04-15T08:36:01Z</time>
      </trkpt>
      <trkpt lat="48.5693" lon="2.11419">
        <ele>65</ele>
        <time>2011-04-15T08:36:01Z</time>
      </trkpt>
      <trkpt lat="48.56929" lon="2.11418">
        <ele>65</ele>
        <time>2011-04-15T08:36:02Z</time>
      </trkpt>
      <trkpt lat="48.56927" lon="2.11418">
        <ele>65</ele>
        <time>2011-04-15T08:36:03Z</time>
      </trkpt>
      <trkpt lat="48.56926" lon="2.11418">
        <ele>65</ele>
        <time>2011-04-15T08:36:04Z</time>
      </trkpt>
      <trkpt lat="48.56924" lon="2.11417">
        <ele>65</ele>
        <time>2011-04-15T08:36:05Z</time>
      </trkpt>
      <trkpt lat="48.56923" lon="2.11417">
        <ele>65</ele>
        <time>2011-04-15T08:36:06Z</time>
      </trkpt>
      <trkpt lat="48.56921" lon="2.11417">
        <ele>65</ele>
        <time>2011-04-15T08:36:07Z</time>
      </trkpt>
      <trkpt lat="48.5692" lon="2.11416">
        <ele>65</ele>
        <time>2011-04-15T08:36:08Z</time>
      </trkpt>
      <trkpt lat="48.56918" lon="2.11417">
        <ele>66</ele>
        <time>2011-04-15T08:36:09Z</time>
      </trkpt>
      <trkpt lat="48.56916" lon="2.11417">
        <ele>66</ele>
        <time>2011-04-15T08:36:11Z</time>
      </trkpt>
      <trkpt lat="48.56915" lon="2.11416">
        <ele>66</ele>
        <time>2011-04-15T08:36:11Z</time>
      </trkpt>
      <trkpt lat="48.56913" lon="2.11416">
        <ele>66</ele>
        <time>2011-04-15T08:36:12Z</time>
      </trkpt>
      <trkpt lat="48.56912" lon="2.11416">
        <ele>67</ele>
        <time>2011-04-15T08:36:13Z</time>
      </trkpt>
      <trkpt lat="48.5691" lon="2.11415">
        <ele>67</ele>
        <time>2011-04-15T08:36:14Z</time>
      </trkpt>
      <trkpt lat="48.56909" lon="2.11415">
        <ele>67</ele>
        <time>2011-04-15T08:36:16Z</time>
      </trkpt>
      <trkpt lat="48.56908" lon="2.11415">
        <ele>67</ele>
        <time>2011-04-15T08:36:16Z</time>
      </trkpt>
      <trkpt lat="48.56906" lon="2.11414">
        <ele>67</ele>
        <time>2011-04-15T08:36:17Z</time>
      </trkpt>
      <trkpt lat="48.56905" lon="2.11414">
        <ele>67</ele>
        <time>2011-04-15T08:36:18Z</time>
      </trkpt>
      <trkpt lat="48.56903" lon="2.11414">
        <ele>67</ele>
        <time>2011-04-15T08:36:19Z</time>
      </trkpt>
      <trkpt lat="48.56902" lon="2.11413">
        <ele>67</ele>
        <time>2011-04-15T08:36:21Z</time>
      </trkpt>
      <trkpt lat="48.569" lon="2.11413">
        <ele>67</ele>
        <time>2011-04-15T08:36:21Z</time>
      </trkpt>
      <trkpt lat="48.56899" lon="2.11412">
        <ele>67</ele>
        <time>2011-04-15T08:36:22Z</time>
      </trkpt>
      <trkpt lat="48.56897" lon="2.11412">
        <ele>67</ele>
        <time>2011-04-15T08:36:23Z</time>
      </trkpt>
      <trkpt lat="48.56896" lon="2.11412">
        <ele>67</ele>
        <time>2011-04-15T08:36:24Z</time>
      </trkpt>
      <trkpt lat="48.56894" lon="2.11412">
        <ele>67</ele>
        <time>2011-04-15T08:36:26Z</time>
      </trkpt>
      <trkpt lat="48.56893" lon="2.11411">
        <ele>67</ele>
        <time>2011-04-15T08:36:26Z</time>
      </trkpt>
      <trkpt lat="48.56891" lon="2.11411">
        <ele>67</ele>
        <time>2011-04-15T08:36:27Z</time>
      </trkpt>
      <trkpt lat="48.5689" lon="2.1141">
        <ele>67</ele>
        <time>2011-04-15T08:36:28Z</time>
      </trkpt>
      <trkpt lat="48.56888" lon="2.1141">
        <ele>68</ele>
        <time>2011-04-15T08:36:29Z</time>
      </trkpt>
      <trkpt lat="48.56886" lon="2.1141">
        <ele>68</ele>
        <time>2011-04-15T08:36:30Z</time>
      </trkpt>
      <trkpt lat="48.56884" lon="2.11409">
        <ele>68</ele>
        <time>2011-04-15T08:36:31Z</time>
      </trkpt>
      <trkpt lat="48.56883" lon="2.11409">
        <ele>68</ele>
        <time>2011-04-15T08:36:32Z</time>
      </trkpt>
      <trkpt lat="48.56881" lon="2.11408">
        <ele>68</ele>
        <time>2011-04-15T08:36:33Z</time>
      </trkpt>
      <trkpt lat="48.5688" lon="2.11408">
        <ele>68</ele>
        <time>2011-04-15T08:36:34Z</time>
      </trkpt>
      <trkpt lat="48.56878" lon="2.11407">
        <ele>68</ele>
        <time>2011-04-15T08:36:35Z</time>
      </trkpt>
      <trkpt lat="48.56877" lon="2.11407">
        <ele>68</ele>
        <time>2011-04-15T08:36:36Z</time>
      </trkpt>
      <trkpt lat="48.56875" lon="2.11407">
        <ele>68</ele>
        <time>2011-04-15T08:36:37Z</time>
      </trkpt>
      <trkpt lat="48.56874" lon="2.11406">
        <ele>68</ele>
        <time>2011-04-15T08:36:38Z</time>
      </trkpt>
      <trkpt lat="48.56872" lon="2.11406">
        <ele>68</ele>
        <time>2011-04-15T08:36:39Z</time>
      </trkpt>
      <trkpt lat="48.56871" lon="2.11406">
        <ele>68</ele>
        <time>2011-04-15T08:36:40Z</time>
      </trkpt>
      <trkpt lat="48.56869" lon="2.11406">
        <ele>68</ele>
        <time>2011-04-15T08:36:41Z</time>
      </trkpt>
      <trkpt lat="48.56867" lon="2.11405">
        <ele>68</ele>
        <time>2011-04-15T08:36:42Z</time>
      </trkpt>
      <trkpt lat="48.56866" lon="2.11405">
        <ele>68</ele>
        <time>2011-04-15T08:36:43Z</time>
      </trkpt>
      <trkpt lat="48.56864" lon="2.11405">
        <ele>68</ele>
        <time>2011-04-15T08:36:44Z</time>
      </trkpt>
      <trkpt lat="48.56863" lon="2.11405">
        <ele>68</ele>
        <time>2011-04-15T08:36:45Z</time>
      </trkpt>
      <trkpt lat="48.56861" lon="2.11405">
        <ele>68</ele>
        <time>2011-04-15T08:36:46Z</time>
      </trkpt>
      <trkpt lat="48.5686" lon="2.11405">
        <ele>68</ele>
        <time>2011-04-15T08:36:47Z</time>
      </trkpt>
      <trkpt lat="48.56858" lon="2.11405">
        <ele>68</ele>
        <time>2011-04-15T08:36:48Z</time>
      </trkpt>
      <trkpt lat="48.56857" lon="2.11404">
        <ele>68</ele>
        <time>2011-04-15T08:36:49Z</time>
      </trkpt>
      <trkpt lat="48.56855" lon="2.11404">
        <ele>68</ele>
        <time>2011-04-15T08:36:50Z</time>
      </trkpt>
      <trkpt lat="48.56853" lon="2.11404">
        <ele>68</ele>
        <time>2011-04-15T08:36:51Z</time>
      </trkpt>
      <trkpt lat="48.56852" lon="2.11404">
        <ele>68</ele>
        <time>2011-04-15T08:36:52Z</time>
      </trkpt>
      <trkpt lat="48.5685" lon="2.11404">
        <ele>68</ele>
        <time>2011-04-15T08:36:53Z</time>
      </trkpt>
      <trkpt lat="48.56849" lon="2.11404">
        <ele>68</ele>
        <time>2011-04-15T08:36:54Z</time>
      </trkpt>
      <trkpt lat="48.56847" lon="2.11404">
        <ele>68</ele>
        <time>2011-04-15T08:36:56Z</time>
      </trkpt>
      <trkpt lat="48.56845" lon="2.11404">
        <ele>69</ele>
        <time>2011-04-15T08:36:56Z</time>
      </trkpt>
      <trkpt lat="48.56844" lon="2.11403">
        <ele>69</ele>
        <time>2011-04-15T08:36:57Z</time>
      </trkpt>
      <trkpt lat="48.56842" lon="2.11403">
        <ele>69</ele>
        <time>2011-04-15T08:36:58Z</time>
      </trkpt>
      <trkpt lat="48.56841" lon="2.11403">
        <ele>69</ele>
        <time>2011-04-15T08:36:59Z</time>
      </trkpt>
      <trkpt lat="48.56839" lon="2.11403">
        <ele>69</ele>
        <time>2011-04-15T08:37:00Z</time>
      </trkpt>
      <trkpt lat="48.56838" lon="2.11403">
        <ele>69</ele>
        <time>2011-04-15T08:37:01Z</time>
      </trkpt>
      <trkpt lat="48.56836" lon="2.11402">
        <ele>69</ele>
        <time>2011-04-15T08:37:02Z</time>
      </trkpt>
      <trkpt lat="48.56835" lon="2.11402">
        <ele>69</ele>
        <time>2011-04-15T08:37:03Z</time>
      </trkpt>
      <trkpt lat="48.56833" lon="2.11402">
        <ele>69</ele>
        <time>2011-04-15T08:37:04Z</time>
      </trkpt>
      <trkpt lat="48.56832" lon="2.11402">
        <ele>69</ele>
        <time>2011-04-15T08:37:05Z</time>
      </trkpt>
      <trkpt lat="48.5683" lon="2.11402">
        <ele>69</ele>
        <time>2011-04-15T08:37:06Z</time>
      </trkpt>
      <trkpt lat="48.56828" lon="2.11401">
        <ele>69</ele>
        <time>2011-04-15T08:37:07Z</time>
      </trkpt>
      <trkpt lat="48.56827" lon="2.11401">
        <ele>69</ele>
        <time>2011-04-15T08:37:08Z</time>
      </trkpt>
      <trkpt lat="48.56825" lon="2.114">
        <ele>69</ele>
        <time>2011-04-15T08:37:09Z</time>
      </trkpt>
      <trkpt lat="48.56824" lon="2.114">
        <ele>69</ele>
        <time>2011-04-15T08:37:10Z</time>
      </trkpt>
      <trkpt lat="48.56822" lon="2.114">
        <ele>69</ele>
        <time>2011-04-15T08:37:11Z</time>
      </trkpt>
      <trkpt lat="48.5682" lon="2.11399">
        <ele>69</ele>
        <time>2011-04-15T08:37:12Z</time>
      </trkpt>
      <trkpt lat="48.56819" lon="2.11399">
        <ele>69</ele>
        <time>2011-04-15T08:37:13Z</time>
      </trkpt>
      <trkpt lat="48.56817" lon="2.11398">
        <ele>69</ele>
        <time>2011-04-15T08:37:14Z</time>
      </trkpt>
      <trkpt lat="48.56816" lon="2.11398">
        <ele>69</ele>
        <time>2011-04-15T08:37:15Z</time>
      </trkpt>
      <trkpt lat="48.56815" lon="2.11397">
        <ele>69</ele>
        <time>2011-04-15T08:37:16Z</time>
      </trkpt>
      <trkpt lat="48.56813" lon="2.11397">
        <ele>69</ele>
        <time>2011-04-15T08:37:17Z</time>
      </trkpt>
      <trkpt lat="48.56812" lon="2.11396">
        <ele>69</ele>
        <time>2011-04-15T08:37:18Z</time>
      </trkpt>
      <trkpt lat="48.56811" lon="2.11396">
        <ele>69</ele>
        <time>2011-04-15T08:37:19Z</time>
      </trkpt>
      <trkpt lat="48.56809" lon="2.11395">
        <ele>69</ele>
        <time>2011-04-15T08:37:20Z</time>
      </trkpt>
      <trkpt lat="48.56808" lon="2.11394">
        <ele>69</ele>
        <time>2011-04-15T08:37:21Z</time>
      </trkpt>
      <trkpt lat="48.56806" lon="2.11393">
        <ele>69</ele>
        <time>2011-04-15T08:37:22Z</time>
      </trkpt>
      <trkpt lat="48.56805" lon="2.11392">
        <ele>69</ele>
        <time>2011-04-15T08:37:23Z</time>
      </trkpt>
      <trkpt lat="48.56803" lon="2.11391">
        <ele>69</ele>
        <time>2011-04-15T08:37:24Z</time>
      </trkpt>
      <trkpt lat="48.56802" lon="2.1139">
        <ele>69</ele>
        <time>2011-04-15T08:37:25Z</time>
      </trkpt>
      <trkpt lat="48.56801" lon="2.11389">
        <ele>69</ele>
        <time>2011-04-15T08:37:26Z</time>
      </trkpt>
      <trkpt lat="48.56799" lon="2.11387">
        <ele>69</ele>
        <time>2011-04-15T08:37:27Z</time>
      </trkpt>
      <trkpt lat="48.56798" lon="2.11386">
        <ele>69</ele>
        <time>2011-04-15T08:37:28Z</time>
      </trkpt>
      <trkpt lat="48.56797" lon="2.11385">
        <ele>69</ele>
        <time>2011-04-15T08:37:29Z</time>
      </trkpt>
      <trkpt lat="48.56795" lon="2.11384">
        <ele>69</ele>
        <time>2011-04-15T08:37:30Z</time>
      </trkpt>
      <trkpt lat="48.56794" lon="2.11382">
        <ele>69</ele>
        <time>2011-04-15T08:37:31Z</time>
      </trkpt>
      <trkpt lat="48.56792" lon="2.11381">
        <ele>69</ele>
        <time>2011-04-15T08:37:32Z</time>
      </trkpt>
      <trkpt lat="48.5679" lon="2.1138">
        <ele>70</ele>
        <time>2011-04-15T08:37:33Z</time>
      </trkpt>
      <trkpt lat="48.56789" lon="2.11378">
        <ele>70</ele>
        <time>2011-04-15T08:37:34Z</time>
      </trkpt>
      <trkpt lat="48.56787" lon="2.11377">
        <ele>70</ele>
        <time>2011-04-15T08:37:35Z</time>
      </trkpt>
      <trkpt lat="48.56786" lon="2.11376">
        <ele>70</ele>
        <time>2011-04-15T08:37:36Z</time>
      </trkpt>
      <trkpt lat="48.56785" lon="2.11375">
        <ele>70</ele>
        <time>2011-04-15T08:37:37Z</time>
      </trkpt>
      <trkpt lat="48.56783" lon="2.11373">
        <ele>70</ele>
        <time>2011-04-15T08:37:38Z</time>
      </trkpt>
      <trkpt lat="48.56782" lon="2.11372">
        <ele>70</ele>
        <time>2011-04-15T08:37:39Z</time>
      </trkpt>
      <trkpt lat="48.56781" lon="2.11371">
        <ele>70</ele>
        <time>2011-04-15T08:37:40Z</time>
      </trkpt>
      <trkpt lat="48.56779" lon="2.1137">
        <ele>70</ele>
        <time>2011-04-15T08:37:41Z</time>
      </trkpt>
      <trkpt lat="48.56778" lon="2.11369">
        <ele>70</ele>
        <time>2011-04-15T08:37:42Z</time>
      </trkpt>
      <trkpt lat="48.56777" lon="2.11367">
        <ele>71</ele>
        <time>2011-04-15T08:37:43Z</time>
      </trkpt>
      <trkpt lat="48.56776" lon="2.11366">
        <ele>71</ele>
        <time>2011-04-15T08:37:44Z</time>
      </trkpt>
      <trkpt lat="48.56774" lon="2.11365">
        <ele>71</ele>
        <time>2011-04-15T08:37:45Z</time>
      </trkpt>
      <trkpt lat="48.56773" lon="2.11364">
        <ele>71</ele>
        <time>2011-04-15T08:37:46Z</time>
      </trkpt>
      <trkpt lat="48.56772" lon="2.11362">
        <ele>71</ele>
        <time>2011-04-15T08:37:47Z</time>
      </trkpt>
      <trkpt lat="48.5677" lon="2.11361">
        <ele>71</ele>
        <time>2011-04-15T08:37:48Z</time>
      </trkpt>
      <trkpt lat="48.56769" lon="2.1136">
        <ele>71</ele>
        <time>2011-04-15T08:37:49Z</time>
      </trkpt>
      <trkpt lat="48.56768" lon="2.11359">
        <ele>72</ele>
        <time>2011-04-15T08:37:50Z</time>
      </trkpt>
      <trkpt lat="48.56767" lon="2.11358">
        <ele>72</ele>
        <time>2011-04-15T08:37:51Z</time>
      </trkpt>
      <trkpt lat="48.56765" lon="2.11357">
        <ele>72</ele>
        <time>2011-04-15T08:37:52Z</time>
      </trkpt>
      <trkpt lat="48.56764" lon="2.11356">
        <ele>72</ele>
        <time>2011-04-15T08:37:53Z</time>
      </trkpt>
      <trkpt lat="48.56763" lon="2.11354">
        <ele>72</ele>
        <time>2011-04-15T08:37:54Z</time>
      </trkpt>
      <trkpt lat="48.56762" lon="2.11353">
        <ele>72</ele>
        <time>2011-04-15T08:37:55Z</time>
      </trkpt>
      <trkpt lat="48.5676" lon="2.11351">
        <ele>72</ele>
        <time>2011-04-15T08:37:56Z</time>
      </trkpt>
      <trkpt lat="48.56759" lon="2.1135">
        <ele>72</ele>
        <time>2011-04-15T08:37:57Z</time>
      </trkpt>
      <trkpt lat="48.56758" lon="2.11349">
        <ele>72</ele>
        <time>2011-04-15T08:37:58Z</time>
      </trkpt>
      <trkpt lat="48.56757" lon="2.11348">
        <ele>72</ele>
        <time>2011-04-15T08:37:59Z</time>
      </trkpt>
      <trkpt lat="48.56755" lon="2.11347">
        <ele>72</ele>
        <time>2011-04-15T08:38:00Z</time>
      </trkpt>
      <trkpt lat="48.56754" lon="2.11345">
        <ele>72</ele>
        <time>2011-04-15T08:38:01Z</time>
      </trkpt>
      <trkpt lat="48.56753" lon="2.11344">
        <ele>72</ele>
        <time>2011-04-15T08:38:02Z</time>
      </trkpt>
      <trkpt lat="48.56751" lon="2.11343">
        <ele>72</ele>
        <time>2011-04-15T08:38:03Z</time>
      </trkpt>
      <trkpt lat="48.5675" lon="2.11342">
        <ele>72</ele>
        <time>2011-04-15T08:38:04Z</time>
      </trkpt>
      <trkpt lat="48.56749" lon="2.1134">
        <ele>72</ele>
        <time>2011-04-15T08:38:05Z</time>
      </trkpt>
      <trkpt lat="48.56747" lon="2.11339">
        <ele>72</ele>
        <time>2011-04-15T08:38:06Z</time>
      </trkpt>
      <trkpt lat="48.56746" lon="2.11338">
        <ele>72</ele>
        <time>2011-04-15T08:38:07Z</time>
      </trkpt>
      <trkpt lat="48.56745" lon="2.11337">
        <ele>72</ele>
        <time>2011-04-15T08:38:08Z</time>
      </trkpt>
      <trkpt lat="48.56743" lon="2.11335">
        <ele>72</ele>
        <time>2011-04-15T08:38:09Z</time>
      </trkpt>
      <trkpt lat="48.56742" lon="2.11334">
        <ele>72</ele>
        <time>2011-04-15T08:38:10Z</time>
      </trkpt>
      <trkpt lat="48.56741" lon="2.11333">
        <ele>72</ele>
        <time>2011-04-15T08:38:11Z</time>
      </trkpt>
      <trkpt lat="48.56739" lon="2.11331">
        <ele>72</ele>
        <time>2011-04-15T08:38:12Z</time>
      </trkpt>
      <trkpt lat="48.56738" lon="2.11331">
        <ele>72</ele>
        <time>2011-04-15T08:38:13Z</time>
      </trkpt>
      <trkpt lat="48.56737" lon="2.1133">
        <ele>72</ele>
        <time>2011-04-15T08:38:14Z</time>
      </trkpt>
      <trkpt lat="48.56735" lon="2.11329">
        <ele>72</ele>
        <time>2011-04-15T08:38:15Z</time>
      </trkpt>
      <trkpt lat="48.56734" lon="2.11328">
        <ele>72</ele>
        <time>2011-04-15T08:38:16Z</time>
      </trkpt>
      <trkpt lat="48.56733" lon="2.11327">
        <ele>72</ele>
        <time>2011-04-15T08:38:17Z</time>
      </trkpt>
      <trkpt lat="48.56732" lon="2.11325">
        <ele>73</ele>
        <time>2011-04-15T08:38:18Z</time>
      </trkpt>
      <trkpt lat="48.5673" lon="2.11323">
        <ele>73</ele>
        <time>2011-04-15T08:38:19Z</time>
      </trkpt>
      <trkpt lat="48.56729" lon="2.11322">
        <ele>73</ele>
        <time>2011-04-15T08:38:20Z</time>
      </trkpt>
      <trkpt lat="48.56728" lon="2.1132">
        <ele>73</ele>
        <time>2011-04-15T08:38:21Z</time>
      </trkpt>
      <trkpt lat="48.56727" lon="2.11319">
        <ele>73</ele>
        <time>2011-04-15T08:38:22Z</time>
      </trkpt>
      <trkpt lat="48.56725" lon="2.11318">
        <ele>73</ele>
        <time>2011-04-15T08:38:23Z</time>
      </trkpt>
      <trkpt lat="48.56724" lon="2.11317">
        <ele>73</ele>
        <time>2011-04-15T08:38:24Z</time>
      </trkpt>
      <trkpt lat="48.56723" lon="2.11316">
        <ele>73</ele>
        <time>2011-04-15T08:38:25Z</time>
      </trkpt>
      <trkpt lat="48.56721" lon="2.11314">
        <ele>73</ele>
        <time>2011-04-15T08:38:26Z</time>
      </trkpt>
      <trkpt lat="48.5672" lon="2.11313">
        <ele>73</ele>
        <time>2011-04-15T08:38:27Z</time>
      </trkpt>
      <trkpt lat="48.56719" lon="2.11311">
        <ele>73</ele>
        <time>2011-04-15T08:38:28Z</time>
      </trkpt>
      <trkpt lat="48.56717" lon="2.1131">
        <ele>73</ele>
        <time>2011-04-15T08:38:29Z</time>
      </trkpt>
      <trkpt lat="48.56716" lon="2.11309">
        <ele>73</ele>
        <time>2011-04-15T08:38:30Z</time>
      </trkpt>
      <trkpt lat="48.56715" lon="2.11308">
        <ele>74</ele>
        <time>2011-04-15T08:38:31Z</time>
      </trkpt>
      <trkpt lat="48.56713" lon="2.11307">
        <ele>74</ele>
        <time>2011-04-15T08:38:32Z</time>
      </trkpt>
      <trkpt lat="48.56712" lon="2.11306">
        <ele>74</ele>
        <time>2011-04-15T08:38:33Z</time>
      </trkpt>
      <trkpt lat="48.56711" lon="2.11305">
        <ele>74</ele>
        <time>2011-04-15T08:38:34Z</time>
      </trkpt>
      <trkpt lat="48.56709" lon="2.11303">
        <ele>74</ele>
        <time>2011-04-15T08:38:35Z</time>
      </trkpt>
      <trkpt lat="48.56708" lon="2.11302">
        <ele>74</ele>
        <time>2011-04-15T08:38:36Z</time>
      </trkpt>
      <trkpt lat="48.56707" lon="2.11302">
        <ele>74</ele>
        <time>2011-04-15T08:38:37Z</time>
      </trkpt>
      <trkpt lat="48.56705" lon="2.11301">
        <ele>74</ele>
        <time>2011-04-15T08:38:38Z</time>
      </trkpt>
      <trkpt lat="48.56704" lon="2.113">
        <ele>74</ele>
        <time>2011-04-15T08:38:39Z</time>
      </trkpt>
      <trkpt lat="48.56703" lon="2.11298">
        <ele>74</ele>
        <time>2011-04-15T08:38:40Z</time>
      </trkpt>
      <trkpt lat="48.56702" lon="2.11297">
        <ele>74</ele>
        <time>2011-04-15T08:38:41Z</time>
      </trkpt>
      <trkpt lat="48.567" lon="2.11296">
        <ele>74</ele>
        <time>2011-04-15T08:38:42Z</time>
      </trkpt>
      <trkpt lat="48.56699" lon="2.11296">
        <ele>74</ele>
        <time>2011-04-15T08:38:43Z</time>
      </trkpt>
      <trkpt lat="48.56697" lon="2.11295">
        <ele>74</ele>
        <time>2011-04-15T08:38:44Z</time>
      </trkpt>
      <trkpt lat="48.56696" lon="2.11294">
        <ele>74</ele>
        <time>2011-04-15T08:38:45Z</time>
      </trkpt>
      <trkpt lat="48.56695" lon="2.11293">
        <ele>74</ele>
        <time>2011-04-15T08:38:46Z</time>
      </trkpt>
      <trkpt lat="48.56693" lon="2.11292">
        <ele>74</ele>
        <time>2011-04-15T08:38:47Z</time>
      </trkpt>
      <trkpt lat="48.56692" lon="2.11291">
        <ele>74</ele>
        <time>2011-04-15T08:38:48Z</time>
      </trkpt>
      <trkpt lat="48.56691" lon="2.1129">
        <ele>74</ele>
        <time>2011-04-15T08:38:49Z</time>
      </trkpt>
      <trkpt lat="48.56689" lon="2.11289">
        <ele>74</ele>
        <time>2011-04-15T08:38:51Z</time>
      </trkpt>
      <trkpt lat="48.56688" lon="2.11288">
        <ele>74</ele>
        <time>2011-04-15T08:38:51Z</time>
      </trkpt>
      <trkpt lat="48.56687" lon="2.11287">
        <ele>74</ele>
        <time>2011-04-15T08:38:52Z</time>
      </trkpt>
      <trkpt lat="48.56685" lon="2.11287">
        <ele>74</ele>
        <time>2011-04-15T08:38:53Z</time>
      </trkpt>
      <trkpt lat="48.56684" lon="2.11286">
        <ele>74</ele>
        <time>2011-04-15T08:38:54Z</time>
      </trkpt>
      <trkpt lat="48.56683" lon="2.11285">
        <ele>74</ele>
        <time>2011-04-15T08:38:55Z</time>
      </trkpt>
      <trkpt lat="48.56681" lon="2.11284">
        <ele>74</ele>
        <time>2011-04-15T08:38:56Z</time>
      </trkpt>
      <trkpt lat="48.5668" lon="2.11284">
        <ele>74</ele>
        <time>2011-04-15T08:38:57Z</time>
      </trkpt>
      <trkpt lat="48.56679" lon="2.11283">
        <ele>74</ele>
        <time>2011-04-15T08:38:58Z</time>
      </trkpt>
      <trkpt lat="48.56678" lon="2.11283">
        <ele>74</ele>
        <time>2011-04-15T08:38:59Z</time>
      </trkpt>
      <trkpt lat="48.56676" lon="2.11282">
        <ele>74</ele>
        <time>2011-04-15T08:39:00Z</time>
      </trkpt>
      <trkpt lat="48.56675" lon="2.11282">
        <ele>74</ele>
        <time>2011-04-15T08:39:01Z</time>
      </trkpt>
      <trkpt lat="48.56674" lon="2.11281">
        <ele>74</ele>
        <time>2011-04-15T08:39:02Z</time>
      </trkpt>
      <trkpt lat="48.56672" lon="2.1128">
        <ele>74</ele>
        <time>2011-04-15T08:39:03Z</time>
      </trkpt>
      <trkpt lat="48.56671" lon="2.1128">
        <ele>74</ele>
        <time>2011-04-15T08:39:04Z</time>
      </trkpt>
      <trkpt lat="48.5667" lon="2.11279">
        <ele>74</ele>
        <time>2011-04-15T08:39:05Z</time>
      </trkpt>
      <trkpt lat="48.56668" lon="2.11279">
        <ele>74</ele>
        <time>2011-04-15T08:39:06Z</time>
      </trkpt>
      <trkpt lat="48.56667" lon="2.11278">
        <ele>74</ele>
        <time>2011-04-15T08:39:07Z</time>
      </trkpt>
      <trkpt lat="48.56666" lon="2.11277">
        <ele>74</ele>
        <time>2011-04-15T08:39:08Z</time>
      </trkpt>
      <trkpt lat="48.56664" lon="2.11277">
        <ele>74</ele>
        <time>2011-04-15T08:39:09Z</time>
      </trkpt>
      <trkpt lat="48.56663" lon="2.11276">
        <ele>74</ele>
        <time>2011-04-15T08:39:10Z</time>
      </trkpt>
      <trkpt lat="48.56661" lon="2.11275">
        <ele>74</ele>
        <time>2011-04-15T08:39:11Z</time>
      </trkpt>
      <trkpt lat="48.5666" lon="2.11275">
        <ele>74</ele>
        <time>2011-04-15T08:39:12Z</time>
      </trkpt>
      <trkpt lat="48.56659" lon="2.11274">
        <ele>74</ele>
        <time>2011-04-15T08:39:13Z</time>
      </trkpt>
      <trkpt lat="48.56658" lon="2.11274">
        <ele>74</ele>
        <time>2011-04-15T08:39:14Z</time>
      </trkpt>
      <trkpt lat="48.56656" lon="2.11274">
        <ele>74</ele>
        <time>2011-04-15T08:39:15Z</time>
      </trkpt>
      <trkpt lat="48.56655" lon="2.11274">
        <ele>74</ele>
        <time>2011-04-15T08:39:16Z</time>
      </trkpt>
      <trkpt lat="48.56653" lon="2.11274">
        <ele>74</ele>
        <time>2011-04-15T08:39:17Z</time>
      </trkpt>
      <trkpt lat="48.56652" lon="2.11273">
        <ele>74</ele>
        <time>2011-04-15T08:39:18Z</time>
      </trkpt>
      <trkpt lat="48.5665" lon="2.11273">
        <ele>74</ele>
        <time>2011-04-15T08:39:19Z</time>
      </trkpt>
      <trkpt lat="48.56649" lon="2.11272">
        <ele>75</ele>
        <time>2011-04-15T08:39:20Z</time>
      </trkpt>
      <trkpt lat="48.56648" lon="2.11272">
        <ele>75</ele>
        <time>2011-04-15T08:39:21Z</time>
      </trkpt>
      <trkpt lat="48.56646" lon="2.11271">
        <ele>75</ele>
        <time>2011-04-15T08:39:22Z</time>
      </trkpt>
      <trkpt lat="48.56645" lon="2.11271">
        <ele>75</ele>
        <time>2011-04-15T08:39:23Z</time>
      </trkpt>
      <trkpt lat="48.56644" lon="2.11271">
        <ele>75</ele>
        <time>2011-04-15T08:39:24Z</time>
      </trkpt>
      <trkpt lat="48.56642" lon="2.11271">
        <ele>75</ele>
        <time>2011-04-15T08:39:26Z</time>
      </trkpt>
      <trkpt lat="48.56641" lon="2.11271">
        <ele>76</ele>
        <time>2011-04-15T08:39:31Z</time>
      </trkpt>
      <trkpt lat="48.56639" lon="2.11271">
        <ele>76</ele>
        <time>2011-04-15T08:39:33Z</time>
      </trkpt>
      <trkpt lat="48.56638" lon="2.11271">
        <ele>76</ele>
        <time>2011-04-15T08:39:34Z</time>
      </trkpt>
      <trkpt lat="48.56637" lon="2.11271">
        <ele>76</ele>
        <time>2011-04-15T08:39:35Z</time>
      </trkpt>
      <trkpt lat="48.56635" lon="2.11271">
        <ele>76</ele>
        <time>2011-04-15T08:39:36Z</time>
      </trkpt>
      <trkpt lat="48.56634" lon="2.11271">
        <ele>76</ele>
        <time>2011-04-15T08:39:37Z</time>
      </trkpt>
      <trkpt lat="48.56632" lon="2.11271">
        <ele>76</ele>
        <time>2011-04-15T08:39:38Z</time>
      </trkpt>
      <trkpt lat="48.56631" lon="2.11271">
        <ele>76</ele>
        <time>2011-04-15T08:39:39Z</time>
      </trkpt>
      <trkpt lat="48.56629" lon="2.11271">
        <ele>76</ele>
        <time>2011-04-15T08:39:40Z</time>
      </trkpt>
      <trkpt lat="48.56628" lon="2.11271">
        <ele>77</ele>
        <time>2011-04-15T08:39:41Z</time>
      </trkpt>
      <trkpt lat="48.56627" lon="2.11272">
        <ele>77</ele>
        <time>2011-04-15T08:39:42Z</time>
      </trkpt>
      <trkpt lat="48.56625" lon="2.11272">
        <ele>77</ele>
        <time>2011-04-15T08:39:43Z</time>
      </trkpt>
      <trkpt lat="48.56624" lon="2.11272">
        <ele>77</ele>
        <time>2011-04-15T08:39:44Z</time>
      </trkpt>
      <trkpt lat="48.56623" lon="2.11273">
        <ele>77</ele>
        <time>2011-04-15T08:39:45Z</time>
      </trkpt>
      <trkpt lat="48.56621" lon="2.11274">
        <ele>77</ele>
        <time>2011-04-15T08:39:46Z</time>
      </trkpt>
      <trkpt lat="48.5662" lon="2.11274">
        <ele>77</ele>
        <time>2011-04-15T08:39:47Z</time>
      </trkpt>
      <trkpt lat="48.56619" lon="2.11275">
        <ele>77</ele>
        <time>2011-04-15T08:39:48Z</time>
      </trkpt>
      <trkpt lat="48.56617" lon="2.11275">
        <ele>77</ele>
        <time>2011-04-15T08:39:49Z</time>
      </trkpt>
      <trkpt lat="48.56615" lon="2.11276">
        <ele>77</ele>
        <time>2011-04-15T08:39:50Z</time>
      </trkpt>
      <trkpt lat="48.56614" lon="2.11276">
        <ele>78</ele>
        <time>2011-04-15T08:39:51Z</time>
      </trkpt>
      <trkpt lat="48.56611" lon="2.11276">
        <ele>78</ele>
        <time>2011-04-15T08:39:52Z</time>
      </trkpt>
      <trkpt lat="48.56609" lon="2.11277">
        <ele>78</ele>
        <time>2011-04-15T08:39:53Z</time>
      </trkpt>
      <trkpt lat="48.56606" lon="2.11278">
        <ele>78</ele>
        <time>2011-04-15T08:39:54Z</time>
      </trkpt>
      <trkpt lat="48.56603" lon="2.11278">
        <ele>78</ele>
        <time>2011-04-15T08:39:55Z</time>
      </trkpt>
      <trkpt lat="48.56601" lon="2.11279">
        <ele>79</ele>
        <time>2011-04-15T08:39:56Z</time>
      </trkpt>
      <trkpt lat="48.56598" lon="2.1128">
        <ele>79</ele>
        <time>2011-04-15T08:39:57Z</time>
      </trkpt>
      <trkpt lat="48.56595" lon="2.11281">
        <ele>79</ele>
        <time>2011-04-15T08:39:58Z</time>
      </trkpt>
      <trkpt lat="48.56592" lon="2.11281">
        <ele>79</ele>
        <time>2011-04-15T08:39:59Z</time>
      </trkpt>
      <trkpt lat="48.56589" lon="2.11282">
        <ele>80</ele>
        <time>2011-04-15T08:40:00Z</time>
      </trkpt>
      <trkpt lat="48.56586" lon="2.11283">
        <ele>80</ele>
        <time>2011-04-15T08:40:01Z</time>
      </trkpt>
      <trkpt lat="48.56583" lon="2.11283">
        <ele>80</ele>
        <time>2011-04-15T08:40:02Z</time>
      </trkpt>
      <trkpt lat="48.56581" lon="2.11284">
        <ele>80</ele>
        <time>2011-04-15T08:40:03Z</time>
      </trkpt>
      <trkpt lat="48.56579" lon="2.11285">
        <ele>80</ele>
        <time>2011-04-15T08:40:04Z</time>
      </trkpt>
      <trkpt lat="48.56577" lon="2.11285">
        <ele>80</ele>
        <time>2011-04-15T08:40:05Z</time>
      </trkpt>
      <trkpt lat="48.56575" lon="2.11286">
        <ele>81</ele>
        <time>2011-04-15T08:40:06Z</time>
      </trkpt>
      <trkpt lat="48.56573" lon="2.11286">
        <ele>81</ele>
        <time>2011-04-15T08:40:07Z</time>
      </trkpt>
      <trkpt lat="48.56572" lon="2.11286">
        <ele>81</ele>
        <time>2011-04-15T08:40:08Z</time>
      </trkpt>
      <trkpt lat="48.5657" lon="2.11286">
        <ele>81</ele>
        <time>2011-04-15T08:40:09Z</time>
      </trkpt>
      <trkpt lat="48.56568" lon="2.11286">
        <ele>81</ele>
        <time>2011-04-15T08:40:10Z</time>
      </trkpt>
      <trkpt lat="48.56567" lon="2.11286">
        <ele>81</ele>
        <time>2011-04-15T08:40:11Z</time>
      </trkpt>
      <trkpt lat="48.56565" lon="2.11286">
        <ele>81</ele>
        <time>2011-04-15T08:40:12Z</time>
      </trkpt>
      <trkpt lat="48.56564" lon="2.11286">
        <ele>82</ele>
        <time>2011-04-15T08:40:13Z</time>
      </trkpt>
      <trkpt lat="48.56562" lon="2.11286">
        <ele>82</ele>
        <time>2011-04-15T08:40:14Z</time>
      </trkpt>
      <trkpt lat="48.56561" lon="2.11286">
        <ele>82</ele>
        <time>2011-04-15T08:40:15Z</time>
      </trkpt>
      <trkpt lat="48.56559" lon="2.11286">
        <ele>82</ele>
        <time>2011-04-15T08:40:16Z</time>
      </trkpt>
      <trkpt lat="48.56558" lon="2.11286">
        <ele>82</ele>
        <time>2011-04-15T08:40:17Z</time>
      </trkpt>
      <trkpt lat="48.56556" lon="2.11286">
        <ele>82</ele>
        <time>2011-04-15T08:40:18Z</time>
      </trkpt>
      <trkpt lat="48.56555" lon="2.11286">
        <ele>82</ele>
        <time>2011-04-15T08:40:19Z</time>
      </trkpt>
      <trkpt lat="48.56553" lon="2.11287">
        <ele>82</ele>
        <time>2011-04-15T08:40:20Z</time>
      </trkpt>
      <trkpt lat="48.56552" lon="2.11286">
        <ele>83</ele>
        <time>2011-04-15T08:40:21Z</time>
      </trkpt>
      <trkpt lat="48.56551" lon="2.11286">
        <ele>83</ele>
        <time>2011-04-15T08:40:22Z</time>
      </trkpt>
      <trkpt lat="48.56549" lon="2.11286">
        <ele>83</ele>
        <time>2011-04-15T08:40:23Z</time>
      </trkpt>
      <trkpt lat="48.56548" lon="2.11286">
        <ele>83</ele>
        <time>2011-04-15T08:40:24Z</time>
      </trkpt>
      <trkpt lat="48.56547" lon="2.11286">
        <ele>83</ele>
        <time>2011-04-15T08:40:25Z</time>
      </trkpt>
      <trkpt lat="48.56545" lon="2.11286">
        <ele>84</ele>
        <time>2011-04-15T08:40:26Z</time>
      </trkpt>
      <trkpt lat="48.56544" lon="2.11286">
        <ele>84</ele>
        <time>2011-04-15T08:40:27Z</time>
      </trkpt>
      <trkpt lat="48.56542" lon="2.11286">
        <ele>84</ele>
        <time>2011-04-15T08:40:28Z</time>
      </trkpt>
      <trkpt lat="48.56541" lon="2.11286">
        <ele>84</ele>
        <time>2011-04-15T08:40:29Z</time>
      </trkpt>
      <trkpt lat="48.56539" lon="2.11285">
        <ele>84</ele>
        <time>2011-04-15T08:40:30Z</time>
      </trkpt>
      <trkpt lat="48.56538" lon="2.11285">
        <ele>84</ele>
        <time>2011-04-15T08:40:31Z</time>
      </trkpt>
      <trkpt lat="48.56536" lon="2.11285">
        <ele>84</ele>
        <time>2011-04-15T08:40:32Z</time>
      </trkpt>
      <trkpt lat="48.56535" lon="2.11285">
        <ele>85</ele>
        <time>2011-04-15T08:40:33Z</time>
      </trkpt>
      <trkpt lat="48.56533" lon="2.11285">
        <ele>85</ele>
        <time>2011-04-15T08:40:34Z</time>
      </trkpt>
      <trkpt lat="48.56532" lon="2.11285">
        <ele>85</ele>
        <time>2011-04-15T08:40:35Z</time>
      </trkpt>
      <trkpt lat="48.5653" lon="2.11285">
        <ele>85</ele>
        <time>2011-04-15T08:40:36Z</time>
      </trkpt>
      <trkpt lat="48.56529" lon="2.11285">
        <ele>85</ele>
        <time>2011-04-15T08:40:37Z</time>
      </trkpt>
      <trkpt lat="48.56527" lon="2.11284">
        <ele>85</ele>
        <time>2011-04-15T08:40:38Z</time>
      </trkpt>
      <trkpt lat="48.56526" lon="2.11284">
        <ele>86</ele>
        <time>2011-04-15T08:40:39Z</time>
      </trkpt>
      <trkpt lat="48.56524" lon="2.11284">
        <ele>86</ele>
        <time>2011-04-15T08:40:40Z</time>
      </trkpt>
      <trkpt lat="48.56523" lon="2.11284">
        <ele>86</ele>
        <time>2011-04-15T08:40:41Z</time>
      </trkpt>
      <trkpt lat="48.56521" lon="2.11283">
        <ele>86</ele>
        <time>2011-04-15T08:40:42Z</time>
      </trkpt>
      <trkpt lat="48.56519" lon="2.11283">
        <ele>86</ele>
        <time>2011-04-15T08:40:43Z</time>
      </trkpt>
      <trkpt lat="48.56518" lon="2.11282">
        <ele>87</ele>
        <time>2011-04-15T08:40:44Z</time>
      </trkpt>
      <trkpt lat="48.56516" lon="2.11282">
        <ele>87</ele>
        <time>2011-04-15T08:40:45Z</time>
      </trkpt>
      <trkpt lat="48.56515" lon="2.11281">
        <ele>87</ele>
        <time>2011-04-15T08:40:46Z</time>
      </trkpt>
      <trkpt lat="48.56513" lon="2.11281">
        <ele>87</ele>
        <time>2011-04-15T08:40:47Z</time>
      </trkpt>
      <trkpt lat="48.56511" lon="2.1128">
        <ele>87</ele>
        <time>2011-04-15T08:40:48Z</time>
      </trkpt>
      <trkpt lat="48.5651" lon="2.11279">
        <ele>87</ele>
        <time>2011-04-15T08:40:49Z</time>
      </trkpt>
      <trkpt lat="48.56509" lon="2.11279">
        <ele>88</ele>
        <time>2011-04-15T08:40:50Z</time>
      </trkpt>
      <trkpt lat="48.56507" lon="2.11278">
        <ele>88</ele>
        <time>2011-04-15T08:40:51Z</time>
      </trkpt>
      <trkpt lat="48.56506" lon="2.11277">
        <ele>88</ele>
        <time>2011-04-15T08:40:52Z</time>
      </trkpt>
      <trkpt lat="48.56504" lon="2.11277">
        <ele>88</ele>
        <time>2011-04-15T08:40:53Z</time>
      </trkpt>
      <trkpt lat="48.56503" lon="2.11276">
        <ele>88</ele>
        <time>2011-04-15T08:40:54Z</time>
      </trkpt>
      <trkpt lat="48.56501" lon="2.11276">
        <ele>88</ele>
        <time>2011-04-15T08:40:55Z</time>
      </trkpt>
      <trkpt lat="48.565" lon="2.11275">
        <ele>88</ele>
        <time>2011-04-15T08:40:56Z</time>
      </trkpt>
      <trkpt lat="48.56498" lon="2.11275">
        <ele>88</ele>
        <time>2011-04-15T08:40:57Z</time>
      </trkpt>
      <trkpt lat="48.56497" lon="2.11274">
        <ele>88</ele>
        <time>2011-04-15T08:40:58Z</time>
      </trkpt>
      <trkpt lat="48.56495" lon="2.11273">
        <ele>88</ele>
        <time>2011-04-15T08:40:59Z</time>
      </trkpt>
      <trkpt lat="48.56494" lon="2.11273">
        <ele>88</ele>
        <time>2011-04-15T08:41:00Z</time>
      </trkpt>
      <trkpt lat="48.56493" lon="2.11272">
        <ele>88</ele>
        <time>2011-04-15T08:41:01Z</time>
      </trkpt>
      <trkpt lat="48.56492" lon="2.11272">
        <ele>89</ele>
        <time>2011-04-15T08:41:02Z</time>
      </trkpt>
      <trkpt lat="48.5649" lon="2.11271">
        <ele>89</ele>
        <time>2011-04-15T08:41:03Z</time>
      </trkpt>
      <trkpt lat="48.56489" lon="2.1127">
        <ele>89</ele>
        <time>2011-04-15T08:41:04Z</time>
      </trkpt>
      <trkpt lat="48.56487" lon="2.11269">
        <ele>89</ele>
        <time>2011-04-15T08:41:05Z</time>
      </trkpt>
      <trkpt lat="48.56486" lon="2.11268">
        <ele>89</ele>
        <time>2011-04-15T08:41:06Z</time>
      </trkpt>
      <trkpt lat="48.56485" lon="2.11267">
        <ele>89</ele>
        <time>2011-04-15T08:41:07Z</time>
      </trkpt>
      <trkpt lat="48.56483" lon="2.11266">
        <ele>89</ele>
        <time>2011-04-15T08:41:08Z</time>
      </trkpt>
      <trkpt lat="48.56482" lon="2.11266">
        <ele>89</ele>
        <time>2011-04-15T08:41:09Z</time>
      </trkpt>
      <trkpt lat="48.5648" lon="2.11265">
        <ele>89</ele>
        <time>2011-04-15T08:41:10Z</time>
      </trkpt>
      <trkpt lat="48.56479" lon="2.11264">
        <ele>89</ele>
        <time>2011-04-15T08:41:11Z</time>
      </trkpt>
      <trkpt lat="48.56478" lon="2.11264">
        <ele>89</ele>
        <time>2011-04-15T08:41:12Z</time>
      </trkpt>
      <trkpt lat="48.56476" lon="2.11263">
        <ele>89</ele>
        <time>2011-04-15T08:41:13Z</time>
      </trkpt>
      <trkpt lat="48.56475" lon="2.11262">
        <ele>89</ele>
        <time>2011-04-15T08:41:14Z</time>
      </trkpt>
      <trkpt lat="48.56474" lon="2.11262">
        <ele>89</ele>
        <time>2011-04-15T08:41:15Z</time>
      </trkpt>
      <trkpt lat="48.56472" lon="2.11261">
        <ele>89</ele>
        <time>2011-04-15T08:41:16Z</time>
      </trkpt>
      <trkpt lat="48.56471" lon="2.11261">
        <ele>89</ele>
        <time>2011-04-15T08:41:17Z</time>
      </trkpt>
      <trkpt lat="48.5647" lon="2.1126">
        <ele>89</ele>
        <time>2011-04-15T08:41:18Z</time>
      </trkpt>
      <trkpt lat="48.56468" lon="2.11259">
        <ele>89</ele>
        <time>2011-04-15T08:41:19Z</time>
      </trkpt>
      <trkpt lat="48.56467" lon="2.11258">
        <ele>89</ele>
        <time>2011-04-15T08:41:20Z</time>
      </trkpt>
      <trkpt lat="48.56466" lon="2.11258">
        <ele>89</ele>
        <time>2011-04-15T08:41:21Z</time>
      </trkpt>
      <trkpt lat="48.56464" lon="2.11257">
        <ele>89</ele>
        <time>2011-04-15T08:41:22Z</time>
      </trkpt>
      <trkpt lat="48.56463" lon="2.11256">
        <ele>89</ele>
        <time>2011-04-15T08:41:23Z</time>
      </trkpt>
      <trkpt lat="48.56461" lon="2.11256">
        <ele>89</ele>
        <time>2011-04-15T08:41:24Z</time>
      </trkpt>
      <trkpt lat="48.5646" lon="2.11255">
        <ele>89</ele>
        <time>2011-04-15T08:41:25Z</time>
      </trkpt>
      <trkpt lat="48.56458" lon="2.11254">
        <ele>89</ele>
        <time>2011-04-15T08:41:26Z</time>
      </trkpt>
      <trkpt lat="48.56457" lon="2.11254">
        <ele>89</ele>
        <time>2011-04-15T08:41:27Z</time>
      </trkpt>
      <trkpt lat="48.56455" lon="2.11253">
        <ele>89</ele>
        <time>2011-04-15T08:41:28Z</time>
      </trkpt>
      <trkpt lat="48.56454" lon="2.11252">
        <ele>89</ele>
        <time>2011-04-15T08:41:29Z</time>
      </trkpt>
      <trkpt lat="48.56452" lon="2.11252">
        <ele>89</ele>
        <time>2011-04-15T08:41:30Z</time>
      </trkpt>
      <trkpt lat="48.56451" lon="2.11251">
        <ele>89</ele>
        <time>2011-04-15T08:41:31Z</time>
      </trkpt>
      <trkpt lat="48.56449" lon="2.1125">
        <ele>89</ele>
        <time>2011-04-15T08:41:32Z</time>
      </trkpt>
      <trkpt lat="48.56448" lon="2.1125">
        <ele>89</ele>
        <time>2011-04-15T08:41:33Z</time>
      </trkpt>
      <trkpt lat="48.56447" lon="2.11249">
        <ele>89</ele>
        <time>2011-04-15T08:41:34Z</time>
      </trkpt>
      <trkpt lat="48.56445" lon="2.11248">
        <ele>89</ele>
        <time>2011-04-15T08:41:35Z</time>
      </trkpt>
      <trkpt lat="48.56444" lon="2.11248">
        <ele>89</ele>
        <time>2011-04-15T08:41:36Z</time>
      </trkpt>
      <trkpt lat="48.56442" lon="2.11247">
        <ele>90</ele>
        <time>2011-04-15T08:41:37Z</time>
      </trkpt>
      <trkpt lat="48.56441" lon="2.11246">
        <ele>90</ele>
        <time>2011-04-15T08:41:38Z</time>
      </trkpt>
      <trkpt lat="48.5644" lon="2.11244">
        <ele>90</ele>
        <time>2011-04-15T08:41:39Z</time>
      </trkpt>
      <trkpt lat="48.56438" lon="2.11243">
        <ele>90</ele>
        <time>2011-04-15T08:41:40Z</time>
      </trkpt>
      <trkpt lat="48.56437" lon="2.11242">
        <ele>91</ele>
        <time>2011-04-15T08:41:41Z</time>
      </trkpt>
      <trkpt lat="48.56436" lon="2.11241">
        <ele>91</ele>
        <time>2011-04-15T08:41:42Z</time>
      </trkpt>
      <trkpt lat="48.56435" lon="2.11239">
        <ele>91</ele>
        <time>2011-04-15T08:41:43Z</time>
      </trkpt>
      <trkpt lat="48.56434" lon="2.11238">
        <ele>91</ele>
        <time>2011-04-15T08:41:44Z</time>
      </trkpt>
      <trkpt lat="48.56433" lon="2.11236">
        <ele>91</ele>
        <time>2011-04-15T08:41:45Z</time>
      </trkpt>
      <trkpt lat="48.56431" lon="2.11233">
        <ele>91</ele>
        <time>2011-04-15T08:41:46Z</time>
      </trkpt>
      <trkpt lat="48.5643" lon="2.1123">
        <ele>91</ele>
        <time>2011-04-15T08:41:47Z</time>
      </trkpt>
      <trkpt lat="48.56429" lon="2.11228">
        <ele>92</ele>
        <time>2011-04-15T08:41:48Z</time>
      </trkpt>
      <trkpt lat="48.56428" lon="2.11225">
        <ele>92</ele>
        <time>2011-04-15T08:41:49Z</time>
      </trkpt>
      <trkpt lat="48.56427" lon="2.11223">
        <ele>92</ele>
        <time>2011-04-15T08:41:50Z</time>
      </trkpt>
      <trkpt lat="48.56427" lon="2.1122">
        <ele>92</ele>
        <time>2011-04-15T08:41:51Z</time>
      </trkpt>
      <trkpt lat="48.56426" lon="2.11218">
        <ele>92</ele>
        <time>2011-04-15T08:41:52Z</time>
      </trkpt>
      <trkpt lat="48.56425" lon="2.11216">
        <ele>92</ele>
        <time>2011-04-15T08:41:53Z</time>
      </trkpt>
      <trkpt lat="48.56424" lon="2.11213">
        <ele>92</ele>
        <time>2011-04-15T08:41:54Z</time>
      </trkpt>
      <trkpt lat="48.56423" lon="2.11211">
        <ele>92</ele>
        <time>2011-04-15T08:41:55Z</time>
      </trkpt>
      <trkpt lat="48.56423" lon="2.11208">
        <ele>92</ele>
        <time>2011-04-15T08:41:56Z</time>
      </trkpt>
      <trkpt lat="48.56422" lon="2.11206">
        <ele>92</ele>
        <time>2011-04-15T08:41:57Z</time>
      </trkpt>
      <trkpt lat="48.56421" lon="2.11204">
        <ele>92</ele>
        <time>2011-04-15T08:41:58Z</time>
      </trkpt>
      <trkpt lat="48.5642" lon="2.11202">
        <ele>92</ele>
        <time>2011-04-15T08:41:59Z</time>
      </trkpt>
      <trkpt lat="48.56419" lon="2.112">
        <ele>92</ele>
        <time>2011-04-15T08:42:00Z</time>
      </trkpt>
      <trkpt lat="48.56418" lon="2.11198">
        <ele>92</ele>
        <time>2011-04-15T08:42:01Z</time>
      </trkpt>
      <trkpt lat="48.56417" lon="2.11196">
        <ele>92</ele>
        <time>2011-04-15T08:42:02Z</time>
      </trkpt>
      <trkpt lat="48.56417" lon="2.11194">
        <ele>92</ele>
        <time>2011-04-15T08:42:03Z</time>
      </trkpt>
      <trkpt lat="48.56416" lon="2.11192">
        <ele>92</ele>
        <time>2011-04-15T08:42:04Z</time>
      </trkpt>
      <trkpt lat="48.56415" lon="2.1119">
        <ele>92</ele>
        <time>2011-04-15T08:42:05Z</time>
      </trkpt>
      <trkpt lat="48.56414" lon="2.11188">
        <ele>92</ele>
        <time>2011-04-15T08:42:06Z</time>
      </trkpt>
      <trkpt lat="48.56413" lon="2.11186">
        <ele>92</ele>
        <time>2011-04-15T08:42:07Z</time>
      </trkpt>
      <trkpt lat="48.56412" lon="2.11184">
        <ele>92</ele>
        <time>2011-04-15T08:42:08Z</time>
      </trkpt>
      <trkpt lat="48.56411" lon="2.11182">
        <ele>92</ele>
        <time>2011-04-15T08:42:09Z</time>
      </trkpt>
      <trkpt lat="48.5641" lon="2.11181">
        <ele>92</ele>
        <time>2011-04-15T08:42:10Z</time>
      </trkpt>
      <trkpt lat="48.56409" lon="2.11179">
        <ele>92</ele>
        <time>2011-04-15T08:42:11Z</time>
      </trkpt>
      <trkpt lat="48.56408" lon="2.11178">
        <ele>92</ele>
        <time>2011-04-15T08:42:12Z</time>
      </trkpt>
      <trkpt lat="48.56406" lon="2.11177">
        <ele>92</ele>
        <time>2011-04-15T08:42:13Z</time>
      </trkpt>
      <trkpt lat="48.56405" lon="2.11175">
        <ele>92</ele>
        <time>2011-04-15T08:42:14Z</time>
      </trkpt>
      <trkpt lat="48.56404" lon="2.11174">
        <ele>92</ele>
        <time>2011-04-15T08:42:15Z</time>
      </trkpt>
      <trkpt lat="48.56402" lon="2.11173">
        <ele>92</ele>
        <time>2011-04-15T08:42:16Z</time>
      </trkpt>
      <trkpt lat="48.56401" lon="2.11172">
        <ele>92</ele>
        <time>2011-04-15T08:42:17Z</time>
      </trkpt>
      <trkpt lat="48.564" lon="2.1117">
        <ele>92</ele>
        <time>2011-04-15T08:42:18Z</time>
      </trkpt>
      <trkpt lat="48.56398" lon="2.11169">
        <ele>92</ele>
        <time>2011-04-15T08:42:19Z</time>
      </trkpt>
      <trkpt lat="48.56397" lon="2.11168">
        <ele>92</ele>
        <time>2011-04-15T08:42:20Z</time>
      </trkpt>
      <trkpt lat="48.56395" lon="2.11167">
        <ele>92</ele>
        <time>2011-04-15T08:42:21Z</time>
      </trkpt>
      <trkpt lat="48.56394" lon="2.11166">
        <ele>92</ele>
        <time>2011-04-15T08:42:22Z</time>
      </trkpt>
      <trkpt lat="48.56393" lon="2.11165">
        <ele>93</ele>
        <time>2011-04-15T08:42:23Z</time>
      </trkpt>
      <trkpt lat="48.56391" lon="2.11164">
        <ele>93</ele>
        <time>2011-04-15T08:42:24Z</time>
      </trkpt>
      <trkpt lat="48.5639" lon="2.11163">
        <ele>93</ele>
        <time>2011-04-15T08:42:25Z</time>
      </trkpt>
      <trkpt lat="48.56389" lon="2.11162">
        <ele>93</ele>
        <time>2011-04-15T08:42:26Z</time>
      </trkpt>
      <trkpt lat="48.56387" lon="2.11161">
        <ele>93</ele>
        <time>2011-04-15T08:42:27Z</time>
      </trkpt>
      <trkpt lat="48.56386" lon="2.1116">
        <ele>93</ele>
        <time>2011-04-15T08:42:28Z</time>
      </trkpt>
      <trkpt lat="48.56384" lon="2.11159">
        <ele>93</ele>
        <time>2011-04-15T08:42:29Z</time>
      </trkpt>
      <trkpt lat="48.56383" lon="2.11158">
        <ele>93</ele>
        <time>2011-04-15T08:42:30Z</time>
      </trkpt>
      <trkpt lat="48.56382" lon="2.11157">
        <ele>93</ele>
        <time>2011-04-15T08:42:31Z</time>
      </trkpt>
      <trkpt lat="48.5638" lon="2.11156">
        <ele>93</ele>
        <time>2011-04-15T08:42:32Z</time>
      </trkpt>
      <trkpt lat="48.56379" lon="2.11156">
        <ele>93</ele>
        <time>2011-04-15T08:42:33Z</time>
      </trkpt>
      <trkpt lat="48.56378" lon="2.11155">
        <ele>93</ele>
        <time>2011-04-15T08:42:34Z</time>
      </trkpt>
      <trkpt lat="48.56376" lon="2.11154">
        <ele>93</ele>
        <time>2011-04-15T08:42:35Z</time>
      </trkpt>
      <trkpt lat="48.56375" lon="2.11153">
        <ele>93</ele>
        <time>2011-04-15T08:42:36Z</time>
      </trkpt>
      <trkpt lat="48.56374" lon="2.11152">
        <ele>93</ele>
        <time>2011-04-15T08:42:37Z</time>
      </trkpt>
      <trkpt lat="48.56372" lon="2.11151">
        <ele>93</ele>
        <time>2011-04-15T08:42:38Z</time>
      </trkpt>
      <trkpt lat="48.56371" lon="2.11151">
        <ele>93</ele>
        <time>2011-04-15T08:42:39Z</time>
      </trkpt>
      <trkpt lat="48.56369" lon="2.1115">
        <ele>93</ele>
        <time>2011-04-15T08:42:40Z</time>
      </trkpt>
      <trkpt lat="48.56368" lon="2.11149">
        <ele>93</ele>
        <time>2011-04-15T08:42:41Z</time>
      </trkpt>
      <trkpt lat="48.56366" lon="2.11148">
        <ele>93</ele>
        <time>2011-04-15T08:42:42Z</time>
      </trkpt>
      <trkpt lat="48.56365" lon="2.11147">
        <ele>93</ele>
        <time>2011-04-15T08:42:43Z</time>
      </trkpt>
      <trkpt lat="48.56363" lon="2.11146">
        <ele>93</ele>
        <time>2011-04-15T08:42:44Z</time>
      </trkpt>
      <trkpt lat="48.56362" lon="2.11146">
        <ele>93</ele>
        <time>2011-04-15T08:42:45Z</time>
      </trkpt>
      <trkpt lat="48.56361" lon="2.11145">
        <ele>93</ele>
        <time>2011-04-15T08:42:46Z</time>
      </trkpt>
      <trkpt lat="48.56359" lon="2.11144">
        <ele>93</ele>
        <time>2011-04-15T08:42:47Z</time>
      </trkpt>
      <trkpt lat="48.56358" lon="2.11144">
        <ele>94</ele>
        <time>2011-04-15T08:42:48Z</time>
      </trkpt>
      <trkpt lat="48.56357" lon="2.11143">
        <ele>94</ele>
        <time>2011-04-15T08:42:49Z</time>
      </trkpt>
      <trkpt lat="48.56355" lon="2.11142">
        <ele>94</ele>
        <time>2011-04-15T08:42:50Z</time>
      </trkpt>
      <trkpt lat="48.56354" lon="2.11142">
        <ele>94</ele>
        <time>2011-04-15T08:42:51Z</time>
      </trkpt>
      <trkpt lat="48.56353" lon="2.11141">
        <ele>94</ele>
        <time>2011-04-15T08:42:52Z</time>
      </trkpt>
      <trkpt lat="48.56351" lon="2.11141">
        <ele>94</ele>
        <time>2011-04-15T08:42:53Z</time>
      </trkpt>
      <trkpt lat="48.5635" lon="2.1114">
        <ele>94</ele>
        <time>2011-04-15T08:42:54Z</time>
      </trkpt>
      <trkpt lat="48.56349" lon="2.11139">
        <ele>94</ele>
        <time>2011-04-15T08:42:55Z</time>
      </trkpt>
      <trkpt lat="48.56347" lon="2.11138">
        <ele>94</ele>
        <time>2011-04-15T08:42:56Z</time>
      </trkpt>
      <trkpt lat="48.56346" lon="2.11137">
        <ele>94</ele>
        <time>2011-04-15T08:42:57Z</time>
      </trkpt>
      <trkpt lat="48.56345" lon="2.11136">
        <ele>94</ele>
        <time>2011-04-15T08:42:58Z</time>
      </trkpt>
      <trkpt lat="48.56343" lon="2.11135">
        <ele>94</ele>
        <time>2011-04-15T08:42:59Z</time>
      </trkpt>
      <trkpt lat="48.56342" lon="2.11134">
        <ele>95</ele>
        <time>2011-04-15T08:43:00Z</time>
      </trkpt>
      <trkpt lat="48.56341" lon="2.11134">
        <ele>95</ele>
        <time>2011-04-15T08:43:01Z</time>
      </trkpt>
      <trkpt lat="48.56339" lon="2.11133">
        <ele>95</ele>
        <time>2011-04-15T08:43:02Z</time>
      </trkpt>
      <trkpt lat="48.56338" lon="2.11132">
        <ele>95</ele>
        <time>2011-04-15T08:43:03Z</time>
      </trkpt>
      <trkpt lat="48.56337" lon="2.11131">
        <ele>95</ele>
        <time>2011-04-15T08:43:04Z</time>
      </trkpt>
      <trkpt lat="48.56335" lon="2.11131">
        <ele>95</ele>
        <time>2011-04-15T08:43:05Z</time>
      </trkpt>
      <trkpt lat="48.56334" lon="2.1113">
        <ele>95</ele>
        <time>2011-04-15T08:43:06Z</time>
      </trkpt>
      <trkpt lat="48.56333" lon="2.11129">
        <ele>95</ele>
        <time>2011-04-15T08:43:07Z</time>
      </trkpt>
      <trkpt lat="48.56331" lon="2.11128">
        <ele>95</ele>
        <time>2011-04-15T08:43:08Z</time>
      </trkpt>
      <trkpt lat="48.5633" lon="2.11128">
        <ele>95</ele>
        <time>2011-04-15T08:43:09Z</time>
      </trkpt>
      <trkpt lat="48.56329" lon="2.11127">
        <ele>95</ele>
        <time>2011-04-15T08:43:10Z</time>
      </trkpt>
      <trkpt lat="48.56327" lon="2.11126">
        <ele>95</ele>
        <time>2011-04-15T08:43:11Z</time>
      </trkpt>
      <trkpt lat="48.56326" lon="2.11125">
        <ele>95</ele>
        <time>2011-04-15T08:43:12Z</time>
      </trkpt>
      <trkpt lat="48.56325" lon="2.11124">
        <ele>95</ele>
        <time>2011-04-15T08:43:13Z</time>
      </trkpt>
      <trkpt lat="48.56323" lon="2.11123">
        <ele>95</ele>
        <time>2011-04-15T08:43:14Z</time>
      </trkpt>
      <trkpt lat="48.56322" lon="2.11123">
        <ele>95</ele>
        <time>2011-04-15T08:43:15Z</time>
      </trkpt>
      <trkpt lat="48.56321" lon="2.11122">
        <ele>96</ele>
        <time>2011-04-15T08:43:16Z</time>
      </trkpt>
      <trkpt lat="48.56319" lon="2.11121">
        <ele>96</ele>
        <time>2011-04-15T08:43:17Z</time>
      </trkpt>
      <trkpt lat="48.56318" lon="2.1112">
        <ele>96</ele>
        <time>2011-04-15T08:43:18Z</time>
      </trkpt>
      <trkpt lat="48.56317" lon="2.11119">
        <ele>96</ele>
        <time>2011-04-15T08:43:19Z</time>
      </trkpt>
      <trkpt lat="48.56315" lon="2.11118">
        <ele>96</ele>
        <time>2011-04-15T08:43:20Z</time>
      </trkpt>
      <trkpt lat="48.56314" lon="2.11118">
        <ele>96</ele>
        <time>2011-04-15T08:43:21Z</time>
      </trkpt>
      <trkpt lat="48.56313" lon="2.11117">
        <ele>96</ele>
        <time>2011-04-15T08:43:22Z</time>
      </trkpt>
      <trkpt lat="48.56312" lon="2.11116">
        <ele>96</ele>
        <time>2011-04-15T08:43:23Z</time>
      </trkpt>
      <trkpt lat="48.5631" lon="2.11115">
        <ele>96</ele>
        <time>2011-04-15T08:43:24Z</time>
      </trkpt>
      <trkpt lat="48.56308" lon="2.11113">
        <ele>96</ele>
        <time>2011-04-15T08:43:26Z</time>
      </trkpt>
      <trkpt lat="48.56307" lon="2.11112">
        <ele>96</ele>
        <time>2011-04-15T08:43:28Z</time>
      </trkpt>
      <trkpt lat="48.56306" lon="2.11109">
        <ele>96</ele>
        <time>2011-04-15T08:43:31Z</time>
      </trkpt>
      <trkpt lat="48.56305" lon="2.11109">
        <ele>96</ele>
        <time>2011-04-15T08:43:32Z</time>
      </trkpt>
      <trkpt lat="48.56303" lon="2.11109">
        <ele>96</ele>
        <time>2011-04-15T08:43:33Z</time>
      </trkpt>
      <trkpt lat="48.56302" lon="2.11109">
        <ele>96</ele>
        <time>2011-04-15T08:43:34Z</time>
      </trkpt>
      <trkpt lat="48.563" lon="2.1111">
        <ele>96</ele>
        <time>2011-04-15T08:43:35Z</time>
      </trkpt>
      <trkpt lat="48.56299" lon="2.1111">
        <ele>96</ele>
        <time>2011-04-15T08:43:36Z</time>
      </trkpt>
      <trkpt lat="48.56298" lon="2.11111">
        <ele>96</ele>
        <time>2011-04-15T08:43:37Z</time>
      </trkpt>
      <trkpt lat="48.56296" lon="2.11113">
        <ele>97</ele>
        <time>2011-04-15T08:43:38Z</time>
      </trkpt>
      <trkpt lat="48.56295" lon="2.11114">
        <ele>97</ele>
        <time>2011-04-15T08:43:39Z</time>
      </trkpt>
      <trkpt lat="48.56294" lon="2.11116">
        <ele>97</ele>
        <time>2011-04-15T08:43:40Z</time>
      </trkpt>
      <trkpt lat="48.56292" lon="2.11118">
        <ele>97</ele>
        <time>2011-04-15T08:43:41Z</time>
      </trkpt>
      <trkpt lat="48.56291" lon="2.1112">
        <ele>97</ele>
        <time>2011-04-15T08:43:42Z</time>
      </trkpt>
      <trkpt lat="48.56289" lon="2.11123">
        <ele>97</ele>
        <time>2011-04-15T08:43:43Z</time>
      </trkpt>
      <trkpt lat="48.56288" lon="2.11124">
        <ele>97</ele>
        <time>2011-04-15T08:43:44Z</time>
      </trkpt>
      <trkpt lat="48.56287" lon="2.11126">
        <ele>97</ele>
        <time>2011-04-15T08:43:45Z</time>
      </trkpt>
      <trkpt lat="48.56286" lon="2.11128">
        <ele>97</ele>
        <time>2011-04-15T08:43:46Z</time>
      </trkpt>
      <trkpt lat="48.56285" lon="2.11131">
        <ele>97</ele>
        <time>2011-04-15T08:43:47Z</time>
      </trkpt>
      <trkpt lat="48.56284" lon="2.11133">
        <ele>97</ele>
        <time>2011-04-15T08:43:48Z</time>
      </trkpt>
      <trkpt lat="48.56283" lon="2.11135">
        <ele>97</ele>
        <time>2011-04-15T08:43:49Z</time>
      </trkpt>
      <trkpt lat="48.56282" lon="2.11137">
        <ele>97</ele>
        <time>2011-04-15T08:43:50Z</time>
      </trkpt>
      <trkpt lat="48.56281" lon="2.11138">
        <ele>98</ele>
        <time>2011-04-15T08:43:51Z</time>
      </trkpt>
      <trkpt lat="48.5628" lon="2.1114">
        <ele>98</ele>
        <time>2011-04-15T08:43:52Z</time>
      </trkpt>
      <trkpt lat="48.56279" lon="2.11142">
        <ele>98</ele>
        <time>2011-04-15T08:43:53Z</time>
      </trkpt>
      <trkpt lat="48.56278" lon="2.11144">
        <ele>98</ele>
        <time>2011-04-15T08:43:54Z</time>
      </trkpt>
      <trkpt lat="48.56277" lon="2.11145">
        <ele>98</ele>
        <time>2011-04-15T08:43:55Z</time>
      </trkpt>
      <trkpt lat="48.56276" lon="2.11147">
        <ele>98</ele>
        <time>2011-04-15T08:43:56Z</time>
      </trkpt>
      <trkpt lat="48.56275" lon="2.11149">
        <ele>98</ele>
        <time>2011-04-15T08:43:57Z</time>
      </trkpt>
      <trkpt lat="48.56274" lon="2.11151">
        <ele>98</ele>
        <time>2011-04-15T08:43:58Z</time>
      </trkpt>
      <trkpt lat="48.56273" lon="2.11153">
        <ele>98</ele>
        <time>2011-04-15T08:43:59Z</time>
      </trkpt>
      <trkpt lat="48.56271" lon="2.11154">
        <ele>98</ele>
        <time>2011-04-15T08:44:00Z</time>
      </trkpt>
      <trkpt lat="48.5627" lon="2.11156">
        <ele>98</ele>
        <time>2011-04-15T08:44:01Z</time>
      </trkpt>
      <trkpt lat="48.56268" lon="2.11158">
        <ele>98</ele>
        <time>2011-04-15T08:44:02Z</time>
      </trkpt>
      <trkpt lat="48.56267" lon="2.11159">
        <ele>98</ele>
        <time>2011-04-15T08:44:03Z</time>
      </trkpt>
      <trkpt lat="48.56266" lon="2.1116">
        <ele>98</ele>
        <time>2011-04-15T08:44:04Z</time>
      </trkpt>
      <trkpt lat="48.56264" lon="2.11162">
        <ele>98</ele>
        <time>2011-04-15T08:44:05Z</time>
      </trkpt>
      <trkpt lat="48.56263" lon="2.11163">
        <ele>98</ele>
        <time>2011-04-15T08:44:06Z</time>
      </trkpt>
      <trkpt lat="48.56262" lon="2.11164">
        <ele>98</ele>
        <time>2011-04-15T08:44:07Z</time>
      </trkpt>
      <trkpt lat="48.5626" lon="2.11165">
        <ele>99</ele>
        <time>2011-04-15T08:44:08Z</time>
      </trkpt>
      <trkpt lat="48.56259" lon="2.11166">
        <ele>99</ele>
        <time>2011-04-15T08:44:09Z</time>
      </trkpt>
      <trkpt lat="48.56257" lon="2.11167">
        <ele>99</ele>
        <time>2011-04-15T08:44:10Z</time>
      </trkpt>
      <trkpt lat="48.56255" lon="2.11169">
        <ele>99</ele>
        <time>2011-04-15T08:44:11Z</time>
      </trkpt>
      <trkpt lat="48.56253" lon="2.1117">
        <ele>99</ele>
        <time>2011-04-15T08:44:12Z</time>
      </trkpt>
      <trkpt lat="48.56251" lon="2.11172">
        <ele>99</ele>
        <time>2011-04-15T08:44:13Z</time>
      </trkpt>
      <trkpt lat="48.5625" lon="2.11173">
        <ele>99</ele>
        <time>2011-04-15T08:44:14Z</time>
      </trkpt>
      <trkpt lat="48.56248" lon="2.11174">
        <ele>99</ele>
        <time>2011-04-15T08:44:15Z</time>
      </trkpt>
      <trkpt lat="48.56247" lon="2.11175">
        <ele>99</ele>
        <time>2011-04-15T08:44:16Z</time>
      </trkpt>
      <trkpt lat="48.56246" lon="2.11177">
        <ele>100</ele>
        <time>2011-04-15T08:44:17Z</time>
      </trkpt>
      <trkpt lat="48.56244" lon="2.11178">
        <ele>100</ele>
        <time>2011-04-15T08:44:18Z</time>
      </trkpt>
      <trkpt lat="48.56243" lon="2.11179">
        <ele>100</ele>
        <time>2011-04-15T08:44:19Z</time>
      </trkpt>
      <trkpt lat="48.56241" lon="2.11181">
        <ele>100</ele>
        <time>2011-04-15T08:44:20Z</time>
      </trkpt>
      <trkpt lat="48.56239" lon="2.11182">
        <ele>100</ele>
        <time>2011-04-15T08:44:21Z</time>
      </trkpt>
      <trkpt lat="48.56238" lon="2.11183">
        <ele>100</ele>
        <time>2011-04-15T08:44:22Z</time>
      </trkpt>
      <trkpt lat="48.56236" lon="2.11184">
        <ele>100</ele>
        <time>2011-04-15T08:44:23Z</time>
      </trkpt>
      <trkpt lat="48.56235" lon="2.11185">
        <ele>100</ele>
        <time>2011-04-15T08:44:24Z</time>
      </trkpt>
      <trkpt lat="48.56233" lon="2.11187">
        <ele>100</ele>
        <time>2011-04-15T08:44:25Z</time>
      </trkpt>
      <trkpt lat="48.56231" lon="2.11189">
        <ele>100</ele>
        <time>2011-04-15T08:44:26Z</time>
      </trkpt>
      <trkpt lat="48.5623" lon="2.1119">
        <ele>100</ele>
        <time>2011-04-15T08:44:27Z</time>
      </trkpt>
      <trkpt lat="48.56228" lon="2.11191">
        <ele>101</ele>
        <time>2011-04-15T08:44:28Z</time>
      </trkpt>
      <trkpt lat="48.56227" lon="2.11192">
        <ele>101</ele>
        <time>2011-04-15T08:44:29Z</time>
      </trkpt>
      <trkpt lat="48.56226" lon="2.11194">
        <ele>101</ele>
        <time>2011-04-15T08:44:30Z</time>
      </trkpt>
      <trkpt lat="48.56224" lon="2.11195">
        <ele>101</ele>
        <time>2011-04-15T08:44:31Z</time>
      </trkpt>
      <trkpt lat="48.56223" lon="2.11196">
        <ele>101</ele>
        <time>2011-04-15T08:44:32Z</time>
      </trkpt>
      <trkpt lat="48.56221" lon="2.11197">
        <ele>101</ele>
        <time>2011-04-15T08:44:33Z</time>
      </trkpt>
      <trkpt lat="48.5622" lon="2.11198">
        <ele>101</ele>
        <time>2011-04-15T08:44:34Z</time>
      </trkpt>
      <trkpt lat="48.56218" lon="2.11199">
        <ele>101</ele>
        <time>2011-04-15T08:44:35Z</time>
      </trkpt>
      <trkpt lat="48.56216" lon="2.11199">
        <ele>101</ele>
        <time>2011-04-15T08:44:36Z</time>
      </trkpt>
      <trkpt lat="48.56215" lon="2.112">
        <ele>102</ele>
        <time>2011-04-15T08:44:37Z</time>
      </trkpt>
      <trkpt lat="48.56214" lon="2.11201">
        <ele>102</ele>
        <time>2011-04-15T08:44:38Z</time>
      </trkpt>
      <trkpt lat="48.56212" lon="2.11202">
        <ele>102</ele>
        <time>2011-04-15T08:44:39Z</time>
      </trkpt>
      <trkpt lat="48.5621" lon="2.11204">
        <ele>102</ele>
        <time>2011-04-15T08:44:40Z</time>
      </trkpt>
      <trkpt lat="48.56208" lon="2.11205">
        <ele>102</ele>
        <time>2011-04-15T08:44:41Z</time>
      </trkpt>
      <trkpt lat="48.56206" lon="2.11206">
        <ele>102</ele>
        <time>2011-04-15T08:44:42Z</time>
      </trkpt>
      <trkpt lat="48.56205" lon="2.11206">
        <ele>102</ele>
        <time>2011-04-15T08:44:43Z</time>
      </trkpt>
      <trkpt lat="48.56203" lon="2.11207">
        <ele>102</ele>
        <time>2011-04-15T08:44:44Z</time>
      </trkpt>
      <trkpt lat="48.56202" lon="2.11208">
        <ele>103</ele>
        <time>2011-04-15T08:44:45Z</time>
      </trkpt>
      <trkpt lat="48.562" lon="2.11209">
        <ele>103</ele>
        <time>2011-04-15T08:44:46Z</time>
      </trkpt>
      <trkpt lat="48.56199" lon="2.1121">
        <ele>103</ele>
        <time>2011-04-15T08:44:47Z</time>
      </trkpt>
      <trkpt lat="48.56198" lon="2.1121">
        <ele>103</ele>
        <time>2011-04-15T08:44:48Z</time>
      </trkpt>
      <trkpt lat="48.56196" lon="2.11211">
        <ele>103</ele>
        <time>2011-04-15T08:44:49Z</time>
      </trkpt>
      <trkpt lat="48.56195" lon="2.11211">
        <ele>103</ele>
        <time>2011-04-15T08:44:50Z</time>
      </trkpt>
      <trkpt lat="48.56193" lon="2.11211">
        <ele>103</ele>
        <time>2011-04-15T08:44:51Z</time>
      </trkpt>
      <trkpt lat="48.56192" lon="2.11212">
        <ele>103</ele>
        <time>2011-04-15T08:44:52Z</time>
      </trkpt>
      <trkpt lat="48.56191" lon="2.11212">
        <ele>103</ele>
        <time>2011-04-15T08:44:53Z</time>
      </trkpt>
      <trkpt lat="48.56189" lon="2.11211">
        <ele>104</ele>
        <time>2011-04-15T08:44:54Z</time>
      </trkpt>
      <trkpt lat="48.56188" lon="2.11212">
        <ele>104</ele>
        <time>2011-04-15T08:44:55Z</time>
      </trkpt>
      <trkpt lat="48.56186" lon="2.11212">
        <ele>104</ele>
        <time>2011-04-15T08:44:56Z</time>
      </trkpt>
      <trkpt lat="48.56185" lon="2.11213">
        <ele>105</ele>
        <time>2011-04-15T08:44:57Z</time>
      </trkpt>
      <trkpt lat="48.56184" lon="2.11213">
        <ele>105</ele>
        <time>2011-04-15T08:44:58Z</time>
      </trkpt>
      <trkpt lat="48.56182" lon="2.11213">
        <ele>105</ele>
        <time>2011-04-15T08:44:59Z</time>
      </trkpt>
      <trkpt lat="48.56181" lon="2.11213">
        <ele>106</ele>
        <time>2011-04-15T08:45:00Z</time>
      </trkpt>
      <trkpt lat="48.56179" lon="2.11214">
        <ele>106</ele>
        <time>2011-04-15T08:45:01Z</time>
      </trkpt>
      <trkpt lat="48.56178" lon="2.11214">
        <ele>106</ele>
        <time>2011-04-15T08:45:02Z</time>
      </trkpt>
      <trkpt lat="48.56177" lon="2.11214">
        <ele>106</ele>
        <time>2011-04-15T08:45:03Z</time>
      </trkpt>
      <trkpt lat="48.56175" lon="2.11214">
        <ele>107</ele>
        <time>2011-04-15T08:45:04Z</time>
      </trkpt>
      <trkpt lat="48.56174" lon="2.11214">
        <ele>107</ele>
        <time>2011-04-15T08:45:05Z</time>
      </trkpt>
      <trkpt lat="48.56172" lon="2.11215">
        <ele>107</ele>
        <time>2011-04-15T08:45:06Z</time>
      </trkpt>
      <trkpt lat="48.56171" lon="2.11216">
        <ele>107</ele>
        <time>2011-04-15T08:45:07Z</time>
      </trkpt>
      <trkpt lat="48.56169" lon="2.11216">
        <ele>107</ele>
        <time>2011-04-15T08:45:08Z</time>
      </trkpt>
      <trkpt lat="48.56167" lon="2.11216">
        <ele>107</ele>
        <time>2011-04-15T08:45:09Z</time>
      </trkpt>
      <trkpt lat="48.56165" lon="2.11217">
        <ele>107</ele>
        <time>2011-04-15T08:45:10Z</time>
      </trkpt>
      <trkpt lat="48.56164" lon="2.11218">
        <ele>107</ele>
        <time>2011-04-15T08:45:11Z</time>
      </trkpt>
      <trkpt lat="48.56162" lon="2.1122">
        <ele>107</ele>
        <time>2011-04-15T08:45:12Z</time>
      </trkpt>
      <trkpt lat="48.5616" lon="2.11221">
        <ele>107</ele>
        <time>2011-04-15T08:45:13Z</time>
      </trkpt>
      <trkpt lat="48.56159" lon="2.11221">
        <ele>108</ele>
        <time>2011-04-15T08:45:14Z</time>
      </trkpt>
      <trkpt lat="48.56157" lon="2.11222">
        <ele>108</ele>
        <time>2011-04-15T08:45:15Z</time>
      </trkpt>
      <trkpt lat="48.56155" lon="2.11223">
        <ele>108</ele>
        <time>2011-04-15T08:45:16Z</time>
      </trkpt>
      <trkpt lat="48.56154" lon="2.11223">
        <ele>108</ele>
        <time>2011-04-15T08:45:17Z</time>
      </trkpt>
      <trkpt lat="48.56152" lon="2.11223">
        <ele>108</ele>
        <time>2011-04-15T08:45:18Z</time>
      </trkpt>
      <trkpt lat="48.56151" lon="2.11224">
        <ele>109</ele>
        <time>2011-04-15T08:45:19Z</time>
      </trkpt>
      <trkpt lat="48.56149" lon="2.11224">
        <ele>109</ele>
        <time>2011-04-15T08:45:20Z</time>
      </trkpt>
      <trkpt lat="48.56148" lon="2.11225">
        <ele>109</ele>
        <time>2011-04-15T08:45:21Z</time>
      </trkpt>
      <trkpt lat="48.56146" lon="2.11226">
        <ele>109</ele>
        <time>2011-04-15T08:45:22Z</time>
      </trkpt>
      <trkpt lat="48.56144" lon="2.11227">
        <ele>109</ele>
        <time>2011-04-15T08:45:23Z</time>
      </trkpt>
      <trkpt lat="48.56143" lon="2.11227">
        <ele>109</ele>
        <time>2011-04-15T08:45:24Z</time>
      </trkpt>
      <trkpt lat="48.56141" lon="2.11228">
        <ele>110</ele>
        <time>2011-04-15T08:45:25Z</time>
      </trkpt>
      <trkpt lat="48.56139" lon="2.11229">
        <ele>110</ele>
        <time>2011-04-15T08:45:26Z</time>
      </trkpt>
      <trkpt lat="48.56138" lon="2.1123">
        <ele>110</ele>
        <time>2011-04-15T08:45:27Z</time>
      </trkpt>
      <trkpt lat="48.56136" lon="2.11231">
        <ele>110</ele>
        <time>2011-04-15T08:45:28Z</time>
      </trkpt>
      <trkpt lat="48.56135" lon="2.11231">
        <ele>111</ele>
        <time>2011-04-15T08:45:29Z</time>
      </trkpt>
      <trkpt lat="48.56133" lon="2.1123">
        <ele>111</ele>
        <time>2011-04-15T08:45:30Z</time>
      </trkpt>
      <trkpt lat="48.56132" lon="2.1123">
        <ele>111</ele>
        <time>2011-04-15T08:45:31Z</time>
      </trkpt>
      <trkpt lat="48.5613" lon="2.1123">
        <ele>111</ele>
        <time>2011-04-15T08:45:32Z</time>
      </trkpt>
      <trkpt lat="48.56128" lon="2.1123">
        <ele>111</ele>
        <time>2011-04-15T08:45:33Z</time>
      </trkpt>
      <trkpt lat="48.56127" lon="2.11229">
        <ele>112</ele>
        <time>2011-04-15T08:45:34Z</time>
      </trkpt>
      <trkpt lat="48.56125" lon="2.11228">
        <ele>112</ele>
        <time>2011-04-15T08:45:35Z</time>
      </trkpt>
      <trkpt lat="48.56123" lon="2.11228">
        <ele>112</ele>
        <time>2011-04-15T08:45:36Z</time>
      </trkpt>
      <trkpt lat="48.56121" lon="2.11228">
        <ele>113</ele>
        <time>2011-04-15T08:45:37Z</time>
      </trkpt>
      <trkpt lat="48.5612" lon="2.11228">
        <ele>113</ele>
        <time>2011-04-15T08:45:38Z</time>
      </trkpt>
      <trkpt lat="48.56118" lon="2.11228">
        <ele>113</ele>
        <time>2011-04-15T08:45:39Z</time>
      </trkpt>
      <trkpt lat="48.56116" lon="2.11229">
        <ele>114</ele>
        <time>2011-04-15T08:45:40Z</time>
      </trkpt>
      <trkpt lat="48.56114" lon="2.11228">
        <ele>114</ele>
        <time>2011-04-15T08:45:41Z</time>
      </trkpt>
      <trkpt lat="48.56113" lon="2.11229">
        <ele>114</ele>
        <time>2011-04-15T08:45:42Z</time>
      </trkpt>
      <trkpt lat="48.56111" lon="2.11228">
        <ele>115</ele>
        <time>2011-04-15T08:45:43Z</time>
      </trkpt>
      <trkpt lat="48.56109" lon="2.11227">
        <ele>115</ele>
        <time>2011-04-15T08:45:45Z</time>
      </trkpt>
      <trkpt lat="48.56107" lon="2.11226">
        <ele>116</ele>
        <time>2011-04-15T08:45:47Z</time>
      </trkpt>
      <trkpt lat="48.56105" lon="2.11225">
        <ele>116</ele>
        <time>2011-04-15T08:45:49Z</time>
      </trkpt>
      <trkpt lat="48.56104" lon="2.11225">
        <ele>117</ele>
        <time>2011-04-15T08:45:50Z</time>
      </trkpt>
      <trkpt lat="48.56102" lon="2.11225">
        <ele>118</ele>
        <time>2011-04-15T08:45:51Z</time>
      </trkpt>
      <trkpt lat="48.56101" lon="2.11225">
        <ele>118</ele>
        <time>2011-04-15T08:45:52Z</time>
      </trkpt>
      <trkpt lat="48.56099" lon="2.11226">
        <ele>118</ele>
        <time>2011-04-15T08:45:53Z</time>
      </trkpt>
      <trkpt lat="48.56098" lon="2.11226">
        <ele>119</ele>
        <time>2011-04-15T08:45:54Z</time>
      </trkpt>
      <trkpt lat="48.56096" lon="2.11226">
        <ele>119</ele>
        <time>2011-04-15T08:45:55Z</time>
      </trkpt>
      <trkpt lat="48.56095" lon="2.11228">
        <ele>119</ele>
        <time>2011-04-15T08:45:56Z</time>
      </trkpt>
      <trkpt lat="48.56092" lon="2.11229">
        <ele>119</ele>
        <time>2011-04-15T08:45:57Z</time>
      </trkpt>
      <trkpt lat="48.56091" lon="2.11229">
        <ele>120</ele>
        <time>2011-04-15T08:45:58Z</time>
      </trkpt>
      <trkpt lat="48.5609" lon="2.1123">
        <ele>121</ele>
        <time>2011-04-15T08:45:59Z</time>
      </trkpt>
      <trkpt lat="48.56088" lon="2.1123">
        <ele>121</ele>
        <time>2011-04-15T08:46:00Z</time>
      </trkpt>
      <trkpt lat="48.56086" lon="2.11232">
        <ele>122</ele>
        <time>2011-04-15T08:46:02Z</time>
      </trkpt>
      <trkpt lat="48.56085" lon="2.11232">
        <ele>122</ele>
        <time>2011-04-15T08:46:03Z</time>
      </trkpt>
      <trkpt lat="48.56083" lon="2.11232">
        <ele>123</ele>
        <time>2011-04-15T08:46:04Z</time>
      </trkpt>
      <trkpt lat="48.56081" lon="2.11233">
        <ele>123</ele>
        <time>2011-04-15T08:46:05Z</time>
      </trkpt>
      <trkpt lat="48.5608" lon="2.11233">
        <ele>123</ele>
        <time>2011-04-15T08:46:06Z</time>
      </trkpt>
      <trkpt lat="48.56079" lon="2.11234">
        <ele>124</ele>
        <time>2011-04-15T08:46:07Z</time>
      </trkpt>
      <trkpt lat="48.56078" lon="2.11234">
        <ele>124</ele>
        <time>2011-04-15T08:46:08Z</time>
      </trkpt>
      <trkpt lat="48.56076" lon="2.11235">
        <ele>124</ele>
        <time>2011-04-15T08:46:09Z</time>
      </trkpt>
      <trkpt lat="48.56075" lon="2.11236">
        <ele>124</ele>
        <time>2011-04-15T08:46:10Z</time>
      </trkpt>
      <trkpt lat="48.56073" lon="2.11237">
        <ele>124</ele>
        <time>2011-04-15T08:46:11Z</time>
      </trkpt>
      <trkpt lat="48.56072" lon="2.11238">
        <ele>124</ele>
        <time>2011-04-15T08:46:12Z</time>
      </trkpt>
      <trkpt lat="48.5607" lon="2.11239">
        <ele>124</ele>
        <time>2011-04-15T08:46:13Z</time>
      </trkpt>
      <trkpt lat="48.56069" lon="2.11241">
        <ele>124</ele>
        <time>2011-04-15T08:46:14Z</time>
      </trkpt>
      <trkpt lat="48.56067" lon="2.11242">
        <ele>124</ele>
        <time>2011-04-15T08:46:15Z</time>
      </trkpt>
      <trkpt lat="48.56066" lon="2.11243">
        <ele>124</ele>
        <time>2011-04-15T08:46:16Z</time>
      </trkpt>
      <trkpt lat="48.56064" lon="2.11245">
        <ele>124</ele>
        <time>2011-04-15T08:46:17Z</time>
      </trkpt>
      <trkpt lat="48.56063" lon="2.11246">
        <ele>124</ele>
        <time>2011-04-15T08:46:18Z</time>
      </trkpt>
      <trkpt lat="48.56062" lon="2.11248">
        <ele>124</ele>
        <time>2011-04-15T08:46:19Z</time>
      </trkpt>
      <trkpt lat="48.5606" lon="2.11248">
        <ele>125</ele>
        <time>2011-04-15T08:46:20Z</time>
      </trkpt>
      <trkpt lat="48.56059" lon="2.11249">
        <ele>125</ele>
        <time>2011-04-15T08:46:21Z</time>
      </trkpt>
      <trkpt lat="48.56057" lon="2.11251">
        <ele>125</ele>
        <time>2011-04-15T08:46:22Z</time>
      </trkpt>
      <trkpt lat="48.56056" lon="2.11252">
        <ele>125</ele>
        <time>2011-04-15T08:46:23Z</time>
      </trkpt>
      <trkpt lat="48.56054" lon="2.11253">
        <ele>125</ele>
        <time>2011-04-15T08:46:24Z</time>
      </trkpt>
      <trkpt lat="48.56053" lon="2.11255">
        <ele>125</ele>
        <time>2011-04-15T08:46:25Z</time>
      </trkpt>
      <trkpt lat="48.56051" lon="2.11258">
        <ele>126</ele>
        <time>2011-04-15T08:46:27Z</time>
      </trkpt>
      <trkpt lat="48.56049" lon="2.1126">
        <ele>126</ele>
        <time>2011-04-15T08:46:28Z</time>
      </trkpt>
      <trkpt lat="48.56047" lon="2.11262">
        <ele>126</ele>
        <time>2011-04-15T08:46:29Z</time>
      </trkpt>
      <trkpt lat="48.56046" lon="2.11265">
        <ele>127</ele>
        <time>2011-04-15T08:46:31Z</time>
      </trkpt>
      <trkpt lat="48.56045" lon="2.11267">
        <ele>127</ele>
        <time>2011-04-15T08:46:32Z</time>
      </trkpt>
      <trkpt lat="48.56043" lon="2.11269">
        <ele>127</ele>
        <time>2011-04-15T08:46:34Z</time>
      </trkpt>
      <trkpt lat="48.56041" lon="2.1127">
        <ele>127</ele>
        <time>2011-04-15T08:46:35Z</time>
      </trkpt>
      <trkpt lat="48.56039" lon="2.11272">
        <ele>127</ele>
        <time>2011-04-15T08:46:36Z</time>
      </trkpt>
      <trkpt lat="48.56038" lon="2.11273">
        <ele>127</ele>
        <time>2011-04-15T08:46:37Z</time>
      </trkpt>
      <trkpt lat="48.56036" lon="2.11274">
        <ele>127</ele>
        <time>2011-04-15T08:46:38Z</time>
      </trkpt>
      <trkpt lat="48.56035" lon="2.11275">
        <ele>127</ele>
        <time>2011-04-15T08:46:39Z</time>
      </trkpt>
      <trkpt lat="48.56033" lon="2.11276">
        <ele>127</ele>
        <time>2011-04-15T08:46:40Z</time>
      </trkpt>
      <trkpt lat="48.56032" lon="2.11277">
        <ele>127</ele>
        <time>2011-04-15T08:46:42Z</time>
      </trkpt>
      <trkpt lat="48.5603" lon="2.11278">
        <ele>127</ele>
        <time>2011-04-15T08:46:44Z</time>
      </trkpt>
      <trkpt lat="48.56028" lon="2.11279">
        <ele>127</ele>
        <time>2011-04-15T08:46:46Z</time>
      </trkpt>
      <trkpt lat="48.56027" lon="2.11279">
        <ele>127</ele>
        <time>2011-04-15T08:46:47Z</time>
      </trkpt>
      <trkpt lat="48.56025" lon="2.1128">
        <ele>127</ele>
        <time>2011-04-15T08:46:49Z</time>
      </trkpt>
      <trkpt lat="48.56023" lon="2.11282">
        <ele>127</ele>
        <time>2011-04-15T08:46:51Z</time>
      </trkpt>
      <trkpt lat="48.56021" lon="2.11283">
        <ele>127</ele>
        <time>2011-04-15T08:46:53Z</time>
      </trkpt>
      <trkpt lat="48.5602" lon="2.11284">
        <ele>127</ele>
        <time>2011-04-15T08:46:54Z</time>
      </trkpt>
      <trkpt lat="48.56018" lon="2.11285">
        <ele>127</ele>
        <time>2011-04-15T08:46:55Z</time>
      </trkpt>
      <trkpt lat="48.56017" lon="2.11286">
        <ele>127</ele>
        <time>2011-04-15T08:46:56Z</time>
      </trkpt>
      <trkpt lat="48.56016" lon="2.11287">
        <ele>127</ele>
        <time>2011-04-15T08:46:57Z</time>
      </trkpt>
      <trkpt lat="48.56013" lon="2.11288">
        <ele>127</ele>
        <time>2011-04-15T08:46:59Z</time>
      </trkpt>
      <trkpt lat="48.56011" lon="2.1129">
        <ele>127</ele>
        <time>2011-04-15T08:47:01Z</time>
      </trkpt>
      <trkpt lat="48.5601" lon="2.11292">
        <ele>126</ele>
        <time>2011-04-15T08:47:03Z</time>
      </trkpt>
      <trkpt lat="48.56008" lon="2.11293">
        <ele>126</ele>
        <time>2011-04-15T08:47:04Z</time>
      </trkpt>
      <trkpt lat="48.56007" lon="2.11294">
        <ele>125</ele>
        <time>2011-04-15T08:47:06Z</time>
      </trkpt>
      <trkpt lat="48.56005" lon="2.11296">
        <ele>125</ele>
        <time>2011-04-15T08:47:08Z</time>
      </trkpt>
      <trkpt lat="48.56003" lon="2.11298">
        <ele>125</ele>
        <time>2011-04-15T08:47:10Z</time>
      </trkpt>
      <trkpt lat="48.56001" lon="2.113">
        <ele>125</ele>
        <time>2011-04-15T08:47:11Z</time>
      </trkpt>
      <trkpt lat="48.56" lon="2.11302">
        <ele>125</ele>
        <time>2011-04-15T08:47:12Z</time>
      </trkpt>
      <trkpt lat="48.55998" lon="2.11302">
        <ele>125</ele>
        <time>2011-04-15T08:47:13Z</time>
      </trkpt>
      <trkpt lat="48.55997" lon="2.11304">
        <ele>125</ele>
        <time>2011-04-15T08:47:14Z</time>
      </trkpt>
      <trkpt lat="48.55995" lon="2.11306">
        <ele>125</ele>
        <time>2011-04-15T08:47:16Z</time>
      </trkpt>
      <trkpt lat="48.55993" lon="2.11308">
        <ele>125</ele>
        <time>2011-04-15T08:47:17Z</time>
      </trkpt>
      <trkpt lat="48.55992" lon="2.11309">
        <ele>125</ele>
        <time>2011-04-15T08:47:18Z</time>
      </trkpt>
      <trkpt lat="48.5599" lon="2.11311">
        <ele>125</ele>
        <time>2011-04-15T08:47:19Z</time>
      </trkpt>
      <trkpt lat="48.55988" lon="2.11313">
        <ele>125</ele>
        <time>2011-04-15T08:47:20Z</time>
      </trkpt>
      <trkpt lat="48.55986" lon="2.11314">
        <ele>125</ele>
        <time>2011-04-15T08:47:21Z</time>
      </trkpt>
      <trkpt lat="48.55983" lon="2.11316">
        <ele>125</ele>
        <time>2011-04-15T08:47:22Z</time>
      </trkpt>
      <trkpt lat="48.55981" lon="2.11317">
        <ele>125</ele>
        <time>2011-04-15T08:47:23Z</time>
      </trkpt>
      <trkpt lat="48.55978" lon="2.11317">
        <ele>125</ele>
        <time>2011-04-15T08:47:24Z</time>
      </trkpt>
      <trkpt lat="48.55976" lon="2.11318">
        <ele>125</ele>
        <time>2011-04-15T08:47:25Z</time>
      </trkpt>
      <trkpt lat="48.55974" lon="2.11319">
        <ele>125</ele>
        <time>2011-04-15T08:47:26Z</time>
      </trkpt>
      <trkpt lat="48.55972" lon="2.1132">
        <ele>125</ele>
        <time>2011-04-15T08:47:27Z</time>
      </trkpt>
      <trkpt lat="48.5597" lon="2.11321">
        <ele>125</ele>
        <time>2011-04-15T08:47:28Z</time>
      </trkpt>
      <trkpt lat="48.55969" lon="2.11322">
        <ele>125</ele>
        <time>2011-04-15T08:47:29Z</time>
      </trkpt>
      <trkpt lat="48.55967" lon="2.11323">
        <ele>125</ele>
        <time>2011-04-15T08:47:30Z</time>
      </trkpt>
      <trkpt lat="48.55965" lon="2.11324">
        <ele>125</ele>
        <time>2011-04-15T08:47:31Z</time>
      </trkpt>
      <trkpt lat="48.55963" lon="2.11324">
        <ele>125</ele>
        <time>2011-04-15T08:47:32Z</time>
      </trkpt>
      <trkpt lat="48.55961" lon="2.11326">
        <ele>125</ele>
        <time>2011-04-15T08:47:33Z</time>
      </trkpt>
      <trkpt lat="48.5596" lon="2.11327">
        <ele>126</ele>
        <time>2011-04-15T08:47:34Z</time>
      </trkpt>
      <trkpt lat="48.55958" lon="2.11328">
        <ele>126</ele>
        <time>2011-04-15T08:47:35Z</time>
      </trkpt>
      <trkpt lat="48.55956" lon="2.11329">
        <ele>126</ele>
        <time>2011-04-15T08:47:36Z</time>
      </trkpt>
      <trkpt lat="48.55954" lon="2.1133">
        <ele>126</ele>
        <time>2011-04-15T08:47:37Z</time>
      </trkpt>
      <trkpt lat="48.55953" lon="2.11332">
        <ele>126</ele>
        <time>2011-04-15T08:47:38Z</time>
      </trkpt>
      <trkpt lat="48.55951" lon="2.11333">
        <ele>126</ele>
        <time>2011-04-15T08:47:39Z</time>
      </trkpt>
      <trkpt lat="48.5595" lon="2.11334">
        <ele>126</ele>
        <time>2011-04-15T08:47:40Z</time>
      </trkpt>
      <trkpt lat="48.55948" lon="2.11336">
        <ele>127</ele>
        <time>2011-04-15T08:47:41Z</time>
      </trkpt>
      <trkpt lat="48.55946" lon="2.11337">
        <ele>127</ele>
        <time>2011-04-15T08:47:42Z</time>
      </trkpt>
      <trkpt lat="48.55945" lon="2.11338">
        <ele>127</ele>
        <time>2011-04-15T08:47:43Z</time>
      </trkpt>
      <trkpt lat="48.55943" lon="2.11339">
        <ele>127</ele>
        <time>2011-04-15T08:47:44Z</time>
      </trkpt>
      <trkpt lat="48.55942" lon="2.1134">
        <ele>127</ele>
        <time>2011-04-15T08:47:45Z</time>
      </trkpt>
      <trkpt lat="48.5594" lon="2.1134">
        <ele>127</ele>
        <time>2011-04-15T08:47:46Z</time>
      </trkpt>
      <trkpt lat="48.55938" lon="2.11341">
        <ele>127</ele>
        <time>2011-04-15T08:47:47Z</time>
      </trkpt>
      <trkpt lat="48.55937" lon="2.11342">
        <ele>127</ele>
        <time>2011-04-15T08:47:48Z</time>
      </trkpt>
      <trkpt lat="48.55935" lon="2.11343">
        <ele>128</ele>
        <time>2011-04-15T08:47:49Z</time>
      </trkpt>
      <trkpt lat="48.55933" lon="2.11345">
        <ele>128</ele>
        <time>2011-04-15T08:47:50Z</time>
      </trkpt>
      <trkpt lat="48.55932" lon="2.11346">
        <ele>128</ele>
        <time>2011-04-15T08:47:51Z</time>
      </trkpt>
      <trkpt lat="48.5593" lon="2.11347">
        <ele>128</ele>
        <time>2011-04-15T08:47:52Z</time>
      </trkpt>
      <trkpt lat="48.55929" lon="2.11348">
        <ele>128</ele>
        <time>2011-04-15T08:47:53Z</time>
      </trkpt>
      <trkpt lat="48.55927" lon="2.11349">
        <ele>128</ele>
        <time>2011-04-15T08:47:54Z</time>
      </trkpt>
      <trkpt lat="48.55926" lon="2.1135">
        <ele>128</ele>
        <time>2011-04-15T08:47:55Z</time>
      </trkpt>
      <trkpt lat="48.55924" lon="2.11351">
        <ele>129</ele>
        <time>2011-04-15T08:47:56Z</time>
      </trkpt>
      <trkpt lat="48.55922" lon="2.11352">
        <ele>129</ele>
        <time>2011-04-15T08:47:57Z</time>
      </trkpt>
      <trkpt lat="48.55921" lon="2.11353">
        <ele>129</ele>
        <time>2011-04-15T08:47:58Z</time>
      </trkpt>
      <trkpt lat="48.55919" lon="2.11354">
        <ele>129</ele>
        <time>2011-04-15T08:47:59Z</time>
      </trkpt>
      <trkpt lat="48.55918" lon="2.11355">
        <ele>129</ele>
        <time>2011-04-15T08:48:00Z</time>
      </trkpt>
      <trkpt lat="48.55917" lon="2.11356">
        <ele>129</ele>
        <time>2011-04-15T08:48:01Z</time>
      </trkpt>
      <trkpt lat="48.55915" lon="2.11357">
        <ele>129</ele>
        <time>2011-04-15T08:48:02Z</time>
      </trkpt>
      <trkpt lat="48.55914" lon="2.11357">
        <ele>129</ele>
        <time>2011-04-15T08:48:03Z</time>
      </trkpt>
      <trkpt lat="48.55912" lon="2.11358">
        <ele>129</ele>
        <time>2011-04-15T08:48:04Z</time>
      </trkpt>
      <trkpt lat="48.55911" lon="2.11359">
        <ele>130</ele>
        <time>2011-04-15T08:48:05Z</time>
      </trkpt>
      <trkpt lat="48.5591" lon="2.1136">
        <ele>130</ele>
        <time>2011-04-15T08:48:06Z</time>
      </trkpt>
      <trkpt lat="48.55908" lon="2.11361">
        <ele>130</ele>
        <time>2011-04-15T08:48:07Z</time>
      </trkpt>
      <trkpt lat="48.55907" lon="2.11362">
        <ele>130</ele>
        <time>2011-04-15T08:48:08Z</time>
      </trkpt>
      <trkpt lat="48.55905" lon="2.11363">
        <ele>131</ele>
        <time>2011-04-15T08:48:09Z</time>
      </trkpt>
      <trkpt lat="48.55903" lon="2.11364">
        <ele>131</ele>
        <time>2011-04-15T08:48:10Z</time>
      </trkpt>
      <trkpt lat="48.55902" lon="2.11365">
        <ele>131</ele>
        <time>2011-04-15T08:48:11Z</time>
      </trkpt>
      <trkpt lat="48.559" lon="2.11366">
        <ele>131</ele>
        <time>2011-04-15T08:48:12Z</time>
      </trkpt>
      <trkpt lat="48.55899" lon="2.11367">
        <ele>131</ele>
        <time>2011-04-15T08:48:13Z</time>
      </trkpt>
      <trkpt lat="48.55898" lon="2.11367">
        <ele>131</ele>
        <time>2011-04-15T08:48:14Z</time>
      </trkpt>
      <trkpt lat="48.55897" lon="2.11368">
        <ele>132</ele>
        <time>2011-04-15T08:48:15Z</time>
      </trkpt>
      <trkpt lat="48.55895" lon="2.11368">
        <ele>132</ele>
        <time>2011-04-15T08:48:16Z</time>
      </trkpt>
      <trkpt lat="48.55894" lon="2.11369">
        <ele>132</ele>
        <time>2011-04-15T08:48:17Z</time>
      </trkpt>
      <trkpt lat="48.55893" lon="2.11368">
        <ele>132</ele>
        <time>2011-04-15T08:48:18Z</time>
      </trkpt>
      <trkpt lat="48.55892" lon="2.11367">
        <ele>132</ele>
        <time>2011-04-15T08:48:19Z</time>
      </trkpt>
      <trkpt lat="48.55891" lon="2.11366">
        <ele>132</ele>
        <time>2011-04-15T08:48:20Z</time>
      </trkpt>
      <trkpt lat="48.5589" lon="2.11364">
        <ele>132</ele>
        <time>2011-04-15T08:48:21Z</time>
      </trkpt>
      <trkpt lat="48.55889" lon="2.11362">
        <ele>132</ele>
        <time>2011-04-15T08:48:22Z</time>
      </trkpt>
      <trkpt lat="48.55889" lon="2.1136">
        <ele>132</ele>
        <time>2011-04-15T08:48:23Z</time>
      </trkpt>
      <trkpt lat="48.55888" lon="2.11357">
        <ele>132</ele>
        <time>2011-04-15T08:48:24Z</time>
      </trkpt>
      <trkpt lat="48.55888" lon="2.11355">
        <ele>132</ele>
        <time>2011-04-15T08:48:25Z</time>
      </trkpt>
      <trkpt lat="48.55887" lon="2.11353">
        <ele>132</ele>
        <time>2011-04-15T08:48:26Z</time>
      </trkpt>
      <trkpt lat="48.55887" lon="2.1135">
        <ele>132</ele>
        <time>2011-04-15T08:48:27Z</time>
      </trkpt>
      <trkpt lat="48.55887" lon="2.11348">
        <ele>132</ele>
        <time>2011-04-15T08:48:28Z</time>
      </trkpt>
      <trkpt lat="48.55886" lon="2.11345">
        <ele>132</ele>
        <time>2011-04-15T08:48:29Z</time>
      </trkpt>
      <trkpt lat="48.55886" lon="2.11343">
        <ele>132</ele>
        <time>2011-04-15T08:48:30Z</time>
      </trkpt>
      <trkpt lat="48.55886" lon="2.1134">
        <ele>132</ele>
        <time>2011-04-15T08:48:31Z</time>
      </trkpt>
      <trkpt lat="48.55885" lon="2.11338">
        <ele>132</ele>
        <time>2011-04-15T08:48:32Z</time>
      </trkpt>
      <trkpt lat="48.55885" lon="2.11336">
        <ele>132</ele>
        <time>2011-04-15T08:48:33Z</time>
      </trkpt>
      <trkpt lat="48.55884" lon="2.11333">
        <ele>132</ele>
        <time>2011-04-15T08:48:34Z</time>
      </trkpt>
      <trkpt lat="48.55884" lon="2.1133">
        <ele>132</ele>
        <time>2011-04-15T08:48:35Z</time>
      </trkpt>
      <trkpt lat="48.55883" lon="2.11328">
        <ele>132</ele>
        <time>2011-04-15T08:48:36Z</time>
      </trkpt>
      <trkpt lat="48.55883" lon="2.11326">
        <ele>132</ele>
        <time>2011-04-15T08:48:37Z</time>
      </trkpt>
      <trkpt lat="48.55883" lon="2.11323">
        <ele>132</ele>
        <time>2011-04-15T08:48:38Z</time>
      </trkpt>
      <trkpt lat="48.55883" lon="2.11321">
        <ele>132</ele>
        <time>2011-04-15T08:48:39Z</time>
      </trkpt>
      <trkpt lat="48.55882" lon="2.11319">
        <ele>132</ele>
        <time>2011-04-15T08:48:40Z</time>
      </trkpt>
      <trkpt lat="48.55882" lon="2.11317">
        <ele>132</ele>
        <time>2011-04-15T08:48:41Z</time>
      </trkpt>
      <trkpt lat="48.55882" lon="2.11314">
        <ele>132</ele>
        <time>2011-04-15T08:48:42Z</time>
      </trkpt>
      <trkpt lat="48.55882" lon="2.11312">
        <ele>132</ele>
        <time>2011-04-15T08:48:43Z</time>
      </trkpt>
      <trkpt lat="48.55882" lon="2.11309">
        <ele>132</ele>
        <time>2011-04-15T08:48:44Z</time>
      </trkpt>
      <trkpt lat="48.55882" lon="2.11307">
        <ele>132</ele>
        <time>2011-04-15T08:48:45Z</time>
      </trkpt>
      <trkpt lat="48.55882" lon="2.11305">
        <ele>132</ele>
        <time>2011-04-15T08:48:46Z</time>
      </trkpt>
      <trkpt lat="48.55882" lon="2.11303">
        <ele>132</ele>
        <time>2011-04-15T08:48:47Z</time>
      </trkpt>
      <trkpt lat="48.55882" lon="2.11301">
        <ele>132</ele>
        <time>2011-04-15T08:48:48Z</time>
      </trkpt>
      <trkpt lat="48.55882" lon="2.11298">
        <ele>132</ele>
        <time>2011-04-15T08:48:49Z</time>
      </trkpt>
      <trkpt lat="48.55882" lon="2.11296">
        <ele>132</ele>
        <time>2011-04-15T08:48:50Z</time>
      </trkpt>
      <trkpt lat="48.55882" lon="2.11294">
        <ele>132</ele>
        <time>2011-04-15T08:48:51Z</time>
      </trkpt>
      <trkpt lat="48.55882" lon="2.11292">
        <ele>132</ele>
        <time>2011-04-15T08:48:52Z</time>
      </trkpt>
      <trkpt lat="48.55882" lon="2.1129">
        <ele>132</ele>
        <time>2011-04-15T08:48:53Z</time>
      </trkpt>
      <trkpt lat="48.55882" lon="2.11288">
        <ele>132</ele>
        <time>2011-04-15T08:48:54Z</time>
      </trkpt>
      <trkpt lat="48.55882" lon="2.11286">
        <ele>132</ele>
        <time>2011-04-15T08:48:55Z</time>
      </trkpt>
      <trkpt lat="48.55882" lon="2.11284">
        <ele>132</ele>
        <time>2011-04-15T08:48:56Z</time>
      </trkpt>
      <trkpt lat="48.55882" lon="2.11282">
        <ele>132</ele>
        <time>2011-04-15T08:48:57Z</time>
      </trkpt>
      <trkpt lat="48.55883" lon="2.1128">
        <ele>132</ele>
        <time>2011-04-15T08:48:58Z</time>
      </trkpt>
      <trkpt lat="48.55883" lon="2.11278">
        <ele>132</ele>
        <time>2011-04-15T08:48:59Z</time>
      </trkpt>
      <trkpt lat="48.55883" lon="2.11276">
        <ele>132</ele>
        <time>2011-04-15T08:49:00Z</time>
      </trkpt>
      <trkpt lat="48.55883" lon="2.11272">
        <ele>132</ele>
        <time>2011-04-15T08:49:01Z</time>
      </trkpt>
      <trkpt lat="48.55882" lon="2.11269">
        <ele>132</ele>
        <time>2011-04-15T08:49:02Z</time>
      </trkpt>
      <trkpt lat="48.55883" lon="2.11268">
        <ele>132</ele>
        <time>2011-04-15T08:49:03Z</time>
      </trkpt>
      <trkpt lat="48.55882" lon="2.11266">
        <ele>132</ele>
        <time>2011-04-15T08:49:04Z</time>
      </trkpt>
      <trkpt lat="48.55882" lon="2.11264">
        <ele>132</ele>
        <time>2011-04-15T08:49:05Z</time>
      </trkpt>
      <trkpt lat="48.55882" lon="2.11262">
        <ele>132</ele>
        <time>2011-04-15T08:49:06Z</time>
      </trkpt>
      <trkpt lat="48.55882" lon="2.11259">
        <ele>132</ele>
        <time>2011-04-15T08:49:07Z</time>
      </trkpt>
      <trkpt lat="48.55882" lon="2.11257">
        <ele>132</ele>
        <time>2011-04-15T08:49:08Z</time>
      </trkpt>
      <trkpt lat="48.55882" lon="2.11254">
        <ele>132</ele>
        <time>2011-04-15T08:49:09Z</time>
      </trkpt>
      <trkpt lat="48.55882" lon="2.11252">
        <ele>132</ele>
        <time>2011-04-15T08:49:10Z</time>
      </trkpt>
      <trkpt lat="48.55882" lon="2.1125">
        <ele>132</ele>
        <time>2011-04-15T08:49:11Z</time>
      </trkpt>
      <trkpt lat="48.55881" lon="2.11247">
        <ele>132</ele>
        <time>2011-04-15T08:49:12Z</time>
      </trkpt>
      <trkpt lat="48.55881" lon="2.11245">
        <ele>132</ele>
        <time>2011-04-15T08:49:13Z</time>
      </trkpt>
      <trkpt lat="48.55881" lon="2.11243">
        <ele>132</ele>
        <time>2011-04-15T08:49:14Z</time>
      </trkpt>
      <trkpt lat="48.55881" lon="2.11241">
        <ele>132</ele>
        <time>2011-04-15T08:49:15Z</time>
      </trkpt>
      <trkpt lat="48.55881" lon="2.11238">
        <ele>132</ele>
        <time>2011-04-15T08:49:16Z</time>
      </trkpt>
      <trkpt lat="48.55881" lon="2.11236">
        <ele>132</ele>
        <time>2011-04-15T08:49:17Z</time>
      </trkpt>
      <trkpt lat="48.55881" lon="2.11233">
        <ele>132</ele>
        <time>2011-04-15T08:49:18Z</time>
      </trkpt>
      <trkpt lat="48.5588" lon="2.11231">
        <ele>132</ele>
        <time>2011-04-15T08:49:19Z</time>
      </trkpt>
      <trkpt lat="48.55879" lon="2.11229">
        <ele>132</ele>
        <time>2011-04-15T08:49:20Z</time>
      </trkpt>
      <trkpt lat="48.55878" lon="2.11226">
        <ele>132</ele>
        <time>2011-04-15T08:49:21Z</time>
      </trkpt>
      <trkpt lat="48.55877" lon="2.11223">
        <ele>132</ele>
        <time>2011-04-15T08:49:22Z</time>
      </trkpt>
      <trkpt lat="48.55877" lon="2.11221">
        <ele>132</ele>
        <time>2011-04-15T08:49:23Z</time>
      </trkpt>
      <trkpt lat="48.55876" lon="2.11219">
        <ele>133</ele>
        <time>2011-04-15T08:49:24Z</time>
      </trkpt>
      <trkpt lat="48.55876" lon="2.11216">
        <ele>133</ele>
        <time>2011-04-15T08:49:25Z</time>
      </trkpt>
      <trkpt lat="48.55875" lon="2.11214">
        <ele>133</ele>
        <time>2011-04-15T08:49:26Z</time>
      </trkpt>
      <trkpt lat="48.55874" lon="2.11212">
        <ele>134</ele>
        <time>2011-04-15T08:49:27Z</time>
      </trkpt>
      <trkpt lat="48.55873" lon="2.1121">
        <ele>134</ele>
        <time>2011-04-15T08:49:28Z</time>
      </trkpt>
      <trkpt lat="48.55873" lon="2.11207">
        <ele>134</ele>
        <time>2011-04-15T08:49:29Z</time>
      </trkpt>
      <trkpt lat="48.55872" lon="2.11205">
        <ele>135</ele>
        <time>2011-04-15T08:49:30Z</time>
      </trkpt>
      <trkpt lat="48.55872" lon="2.11204">
        <ele>135</ele>
        <time>2011-04-15T08:49:31Z</time>
      </trkpt>
      <trkpt lat="48.55872" lon="2.11202">
        <ele>135</ele>
        <time>2011-04-15T08:49:32Z</time>
      </trkpt>
      <trkpt lat="48.55872" lon="2.11199">
        <ele>135</ele>
        <time>2011-04-15T08:49:33Z</time>
      </trkpt>
      <trkpt lat="48.55872" lon="2.11197">
        <ele>136</ele>
        <time>2011-04-15T08:49:34Z</time>
      </trkpt>
      <trkpt lat="48.55871" lon="2.11194">
        <ele>136</ele>
        <time>2011-04-15T08:49:35Z</time>
      </trkpt>
      <trkpt lat="48.55871" lon="2.11191">
        <ele>136</ele>
        <time>2011-04-15T08:49:36Z</time>
      </trkpt>
      <trkpt lat="48.55871" lon="2.11189">
        <ele>136</ele>
        <time>2011-04-15T08:49:37Z</time>
      </trkpt>
      <trkpt lat="48.55871" lon="2.11187">
        <ele>136</ele>
        <time>2011-04-15T08:49:38Z</time>
      </trkpt>
      <trkpt lat="48.5587" lon="2.11184">
        <ele>136</ele>
        <time>2011-04-15T08:49:39Z</time>
      </trkpt>
      <trkpt lat="48.5587" lon="2.11181">
        <ele>136</ele>
        <time>2011-04-15T08:49:40Z</time>
      </trkpt>
      <trkpt lat="48.55869" lon="2.11178">
        <ele>136</ele>
        <time>2011-04-15T08:49:41Z</time>
      </trkpt>
      <trkpt lat="48.55868" lon="2.11176">
        <ele>137</ele>
        <time>2011-04-15T08:49:42Z</time>
      </trkpt>
      <trkpt lat="48.55867" lon="2.11173">
        <ele>137</ele>
        <time>2011-04-15T08:49:43Z</time>
      </trkpt>
      <trkpt lat="48.55867" lon="2.11171">
        <ele>138</ele>
        <time>2011-04-15T08:49:44Z</time>
      </trkpt>
      <trkpt lat="48.55865" lon="2.11169">
        <ele>138</ele>
        <time>2011-04-15T08:49:45Z</time>
      </trkpt>
      <trkpt lat="48.55864" lon="2.11168">
        <ele>138</ele>
        <time>2011-04-15T08:49:46Z</time>
      </trkpt>
      <trkpt lat="48.55863" lon="2.11167">
        <ele>138</ele>
        <time>2011-04-15T08:49:47Z</time>
      </trkpt>
      <trkpt lat="48.55861" lon="2.11164">
        <ele>139</ele>
        <time>2011-04-15T08:49:49Z</time>
      </trkpt>
      <trkpt lat="48.55861" lon="2.11162">
        <ele>139</ele>
        <time>2011-04-15T08:49:50Z</time>
      </trkpt>
      <trkpt lat="48.5586" lon="2.1116">
        <ele>139</ele>
        <time>2011-04-15T08:49:51Z</time>
      </trkpt>
      <trkpt lat="48.55859" lon="2.11158">
        <ele>139</ele>
        <time>2011-04-15T08:49:52Z</time>
      </trkpt>
      <trkpt lat="48.55858" lon="2.11155">
        <ele>139</ele>
        <time>2011-04-15T08:49:53Z</time>
      </trkpt>
      <trkpt lat="48.55857" lon="2.11152">
        <ele>139</ele>
        <time>2011-04-15T08:49:54Z</time>
      </trkpt>
      <trkpt lat="48.55856" lon="2.11149">
        <ele>139</ele>
        <time>2011-04-15T08:49:55Z</time>
      </trkpt>
      <trkpt lat="48.55855" lon="2.11147">
        <ele>140</ele>
        <time>2011-04-15T08:49:56Z</time>
      </trkpt>
      <trkpt lat="48.55854" lon="2.11145">
        <ele>140</ele>
        <time>2011-04-15T08:49:57Z</time>
      </trkpt>
      <trkpt lat="48.55853" lon="2.11143">
        <ele>140</ele>
        <time>2011-04-15T08:49:58Z</time>
      </trkpt>
      <trkpt lat="48.55852" lon="2.11141">
        <ele>140</ele>
        <time>2011-04-15T08:49:59Z</time>
      </trkpt>
      <trkpt lat="48.55851" lon="2.11139">
        <ele>140</ele>
        <time>2011-04-15T08:50:00Z</time>
      </trkpt>
      <trkpt lat="48.5585" lon="2.11137">
        <ele>140</ele>
        <time>2011-04-15T08:50:01Z</time>
      </trkpt>
      <trkpt lat="48.5585" lon="2.11135">
        <ele>140</ele>
        <time>2011-04-15T08:50:02Z</time>
      </trkpt>
      <trkpt lat="48.55849" lon="2.11133">
        <ele>140</ele>
        <time>2011-04-15T08:50:03Z</time>
      </trkpt>
      <trkpt lat="48.55848" lon="2.11131">
        <ele>140</ele>
        <time>2011-04-15T08:50:04Z</time>
      </trkpt>
      <trkpt lat="48.55847" lon="2.11129">
        <ele>140</ele>
        <time>2011-04-15T08:50:05Z</time>
      </trkpt>
      <trkpt lat="48.55846" lon="2.11127">
        <ele>140</ele>
        <time>2011-04-15T08:50:06Z</time>
      </trkpt>
      <trkpt lat="48.55845" lon="2.11125">
        <ele>140</ele>
        <time>2011-04-15T08:50:07Z</time>
      </trkpt>
      <trkpt lat="48.55844" lon="2.11123">
        <ele>140</ele>
        <time>2011-04-15T08:50:08Z</time>
      </trkpt>
      <trkpt lat="48.55844" lon="2.11121">
        <ele>140</ele>
        <time>2011-04-15T08:50:09Z</time>
      </trkpt>
      <trkpt lat="48.55843" lon="2.11119">
        <ele>140</ele>
        <time>2011-04-15T08:50:10Z</time>
      </trkpt>
      <trkpt lat="48.55841" lon="2.11117">
        <ele>140</ele>
        <time>2011-04-15T08:50:11Z</time>
      </trkpt>
      <trkpt lat="48.55841" lon="2.11115">
        <ele>140</ele>
        <time>2011-04-15T08:50:12Z</time>
      </trkpt>
      <trkpt lat="48.5584" lon="2.11113">
        <ele>140</ele>
        <time>2011-04-15T08:50:13Z</time>
      </trkpt>
      <trkpt lat="48.55839" lon="2.11111">
        <ele>140</ele>
        <time>2011-04-15T08:50:14Z</time>
      </trkpt>
      <trkpt lat="48.55838" lon="2.11109">
        <ele>140</ele>
        <time>2011-04-15T08:50:15Z</time>
      </trkpt>
      <trkpt lat="48.55837" lon="2.11108">
        <ele>140</ele>
        <time>2011-04-15T08:50:16Z</time>
      </trkpt>
      <trkpt lat="48.55835" lon="2.11107">
        <ele>140</ele>
        <time>2011-04-15T08:50:17Z</time>
      </trkpt>
      <trkpt lat="48.55834" lon="2.11105">
        <ele>140</ele>
        <time>2011-04-15T08:50:18Z</time>
      </trkpt>
      <trkpt lat="48.55833" lon="2.11104">
        <ele>140</ele>
        <time>2011-04-15T08:50:19Z</time>
      </trkpt>
      <trkpt lat="48.55832" lon="2.11101">
        <ele>140</ele>
        <time>2011-04-15T08:50:20Z</time>
      </trkpt>
      <trkpt lat="48.55831" lon="2.11099">
        <ele>140</ele>
        <time>2011-04-15T08:50:21Z</time>
      </trkpt>
      <trkpt lat="48.55831" lon="2.11098">
        <ele>140</ele>
        <time>2011-04-15T08:50:22Z</time>
      </trkpt>
      <trkpt lat="48.5583" lon="2.11096">
        <ele>140</ele>
        <time>2011-04-15T08:50:23Z</time>
      </trkpt>
      <trkpt lat="48.55829" lon="2.11094">
        <ele>140</ele>
        <time>2011-04-15T08:50:24Z</time>
      </trkpt>
      <trkpt lat="48.55828" lon="2.11092">
        <ele>140</ele>
        <time>2011-04-15T08:50:25Z</time>
      </trkpt>
      <trkpt lat="48.55828" lon="2.1109">
        <ele>140</ele>
        <time>2011-04-15T08:50:26Z</time>
      </trkpt>
      <trkpt lat="48.55827" lon="2.11088">
        <ele>140</ele>
        <time>2011-04-15T08:50:27Z</time>
      </trkpt>
      <trkpt lat="48.55826" lon="2.11087">
        <ele>140</ele>
        <time>2011-04-15T08:50:28Z</time>
      </trkpt>
      <trkpt lat="48.55826" lon="2.11085">
        <ele>141</ele>
        <time>2011-04-15T08:50:29Z</time>
      </trkpt>
      <trkpt lat="48.55825" lon="2.11083">
        <ele>141</ele>
        <time>2011-04-15T08:50:30Z</time>
      </trkpt>
      <trkpt lat="48.55825" lon="2.11081">
        <ele>141</ele>
        <time>2011-04-15T08:50:31Z</time>
      </trkpt>
      <trkpt lat="48.55824" lon="2.11079">
        <ele>141</ele>
        <time>2011-04-15T08:50:32Z</time>
      </trkpt>
      <trkpt lat="48.55823" lon="2.11076">
        <ele>142</ele>
        <time>2011-04-15T08:50:33Z</time>
      </trkpt>
      <trkpt lat="48.55821" lon="2.11072">
        <ele>142</ele>
        <time>2011-04-15T08:50:34Z</time>
      </trkpt>
      <trkpt lat="48.55819" lon="2.1107">
        <ele>143</ele>
        <time>2011-04-15T08:50:35Z</time>
      </trkpt>
      <trkpt lat="48.55817" lon="2.11066">
        <ele>143</ele>
        <time>2011-04-15T08:50:36Z</time>
      </trkpt>
      <trkpt lat="48.55816" lon="2.11064">
        <ele>143</ele>
        <time>2011-04-15T08:50:37Z</time>
      </trkpt>
      <trkpt lat="48.55815" lon="2.11061">
        <ele>143</ele>
        <time>2011-04-15T08:50:38Z</time>
      </trkpt>
      <trkpt lat="48.55814" lon="2.11059">
        <ele>144</ele>
        <time>2011-04-15T08:50:39Z</time>
      </trkpt>
      <trkpt lat="48.55813" lon="2.11057">
        <ele>144</ele>
        <time>2011-04-15T08:50:40Z</time>
      </trkpt>
      <trkpt lat="48.55812" lon="2.11056">
        <ele>144</ele>
        <time>2011-04-15T08:50:41Z</time>
      </trkpt>
      <trkpt lat="48.5581" lon="2.11054">
        <ele>144</ele>
        <time>2011-04-15T08:50:42Z</time>
      </trkpt>
      <trkpt lat="48.55808" lon="2.11054">
        <ele>144</ele>
        <time>2011-04-15T08:50:43Z</time>
      </trkpt>
      <trkpt lat="48.55806" lon="2.11052">
        <ele>144</ele>
        <time>2011-04-15T08:50:45Z</time>
      </trkpt>
      <trkpt lat="48.55805" lon="2.1105">
        <ele>144</ele>
        <time>2011-04-15T08:50:46Z</time>
      </trkpt>
      <trkpt lat="48.55804" lon="2.11049">
        <ele>144</ele>
        <time>2011-04-15T08:50:47Z</time>
      </trkpt>
      <trkpt lat="48.55803" lon="2.11047">
        <ele>144</ele>
        <time>2011-04-15T08:50:48Z</time>
      </trkpt>
      <trkpt lat="48.55802" lon="2.11045">
        <ele>144</ele>
        <time>2011-04-15T08:50:49Z</time>
      </trkpt>
      <trkpt lat="48.55801" lon="2.11044">
        <ele>144</ele>
        <time>2011-04-15T08:50:50Z</time>
      </trkpt>
      <trkpt lat="48.558" lon="2.11042">
        <ele>144</ele>
        <time>2011-04-15T08:50:51Z</time>
      </trkpt>
      <trkpt lat="48.558" lon="2.11039">
        <ele>144</ele>
        <time>2011-04-15T08:50:52Z</time>
      </trkpt>
      <trkpt lat="48.55799" lon="2.11037">
        <ele>144</ele>
        <time>2011-04-15T08:50:53Z</time>
      </trkpt>
      <trkpt lat="48.55799" lon="2.11035">
        <ele>144</ele>
        <time>2011-04-15T08:50:54Z</time>
      </trkpt>
      <trkpt lat="48.55798" lon="2.11032">
        <ele>144</ele>
        <time>2011-04-15T08:50:56Z</time>
      </trkpt>
      <trkpt lat="48.55798" lon="2.1103">
        <ele>144</ele>
        <time>2011-04-15T08:50:57Z</time>
      </trkpt>
      <trkpt lat="48.55796" lon="2.11028">
        <ele>144</ele>
        <time>2011-04-15T08:50:59Z</time>
      </trkpt>
      <trkpt lat="48.55795" lon="2.11027">
        <ele>144</ele>
        <time>2011-04-15T08:51:01Z</time>
      </trkpt>
      <trkpt lat="48.55794" lon="2.11025">
        <ele>144</ele>
        <time>2011-04-15T08:51:04Z</time>
      </trkpt>
      <trkpt lat="48.55793" lon="2.11022">
        <ele>144</ele>
        <time>2011-04-15T08:51:06Z</time>
      </trkpt>
      <trkpt lat="48.55792" lon="2.1102">
        <ele>144</ele>
        <time>2011-04-15T08:51:07Z</time>
      </trkpt>
      <trkpt lat="48.55791" lon="2.11018">
        <ele>144</ele>
        <time>2011-04-15T08:51:08Z</time>
      </trkpt>
      <trkpt lat="48.55789" lon="2.11017">
        <ele>144</ele>
        <time>2011-04-15T08:51:09Z</time>
      </trkpt>
      <trkpt lat="48.55789" lon="2.11015">
        <ele>144</ele>
        <time>2011-04-15T08:51:10Z</time>
      </trkpt>
      <trkpt lat="48.55788" lon="2.11014">
        <ele>144</ele>
        <time>2011-04-15T08:51:11Z</time>
      </trkpt>
      <trkpt lat="48.55787" lon="2.11012">
        <ele>144</ele>
        <time>2011-04-15T08:51:12Z</time>
      </trkpt>
      <trkpt lat="48.55786" lon="2.11009">
        <ele>144</ele>
        <time>2011-04-15T08:51:13Z</time>
      </trkpt>
      <trkpt lat="48.55785" lon="2.11007">
        <ele>144</ele>
        <time>2011-04-15T08:51:14Z</time>
      </trkpt>
      <trkpt lat="48.55784" lon="2.11006">
        <ele>144</ele>
        <time>2011-04-15T08:51:15Z</time>
      </trkpt>
      <trkpt lat="48.55782" lon="2.11004">
        <ele>144</ele>
        <time>2011-04-15T08:51:16Z</time>
      </trkpt>
      <trkpt lat="48.55781" lon="2.11002">
        <ele>144</ele>
        <time>2011-04-15T08:51:17Z</time>
      </trkpt>
      <trkpt lat="48.5578" lon="2.11001">
        <ele>144</ele>
        <time>2011-04-15T08:51:18Z</time>
      </trkpt>
      <trkpt lat="48.55779" lon="2.10999">
        <ele>144</ele>
        <time>2011-04-15T08:51:19Z</time>
      </trkpt>
      <trkpt lat="48.55779" lon="2.10997">
        <ele>144</ele>
        <time>2011-04-15T08:51:20Z</time>
      </trkpt>
      <trkpt lat="48.55778" lon="2.10995">
        <ele>144</ele>
        <time>2011-04-15T08:51:21Z</time>
      </trkpt>
      <trkpt lat="48.55777" lon="2.10994">
        <ele>144</ele>
        <time>2011-04-15T08:51:22Z</time>
      </trkpt>
      <trkpt lat="48.55775" lon="2.10992">
        <ele>144</ele>
        <time>2011-04-15T08:51:23Z</time>
      </trkpt>
      <trkpt lat="48.55774" lon="2.10989">
        <ele>144</ele>
        <time>2011-04-15T08:51:24Z</time>
      </trkpt>
      <trkpt lat="48.55773" lon="2.10987">
        <ele>144</ele>
        <time>2011-04-15T08:51:25Z</time>
      </trkpt>
      <trkpt lat="48.55772" lon="2.10984">
        <ele>144</ele>
        <time>2011-04-15T08:51:26Z</time>
      </trkpt>
      <trkpt lat="48.55771" lon="2.10982">
        <ele>144</ele>
        <time>2011-04-15T08:51:27Z</time>
      </trkpt>
      <trkpt lat="48.55771" lon="2.1098">
        <ele>144</ele>
        <time>2011-04-15T08:51:28Z</time>
      </trkpt>
      <trkpt lat="48.5577" lon="2.10978">
        <ele>144</ele>
        <time>2011-04-15T08:51:29Z</time>
      </trkpt>
      <trkpt lat="48.55769" lon="2.10976">
        <ele>144</ele>
        <time>2011-04-15T08:51:30Z</time>
      </trkpt>
      <trkpt lat="48.55767" lon="2.10974">
        <ele>144</ele>
        <time>2011-04-15T08:51:31Z</time>
      </trkpt>
      <trkpt lat="48.55766" lon="2.10972">
        <ele>144</ele>
        <time>2011-04-15T08:51:32Z</time>
      </trkpt>
      <trkpt lat="48.55765" lon="2.1097">
        <ele>144</ele>
        <time>2011-04-15T08:51:33Z</time>
      </trkpt>
      <trkpt lat="48.55764" lon="2.10968">
        <ele>144</ele>
        <time>2011-04-15T08:51:34Z</time>
      </trkpt>
      <trkpt lat="48.55763" lon="2.10965">
        <ele>144</ele>
        <time>2011-04-15T08:51:35Z</time>
      </trkpt>
      <trkpt lat="48.55762" lon="2.10963">
        <ele>144</ele>
        <time>2011-04-15T08:51:36Z</time>
      </trkpt>
      <trkpt lat="48.55762" lon="2.10961">
        <ele>144</ele>
        <time>2011-04-15T08:51:37Z</time>
      </trkpt>
      <trkpt lat="48.55761" lon="2.10959">
        <ele>144</ele>
        <time>2011-04-15T08:51:38Z</time>
      </trkpt>
      <trkpt lat="48.5576" lon="2.10956">
        <ele>144</ele>
        <time>2011-04-15T08:51:39Z</time>
      </trkpt>
      <trkpt lat="48.5576" lon="2.10954">
        <ele>144</ele>
        <time>2011-04-15T08:51:40Z</time>
      </trkpt>
      <trkpt lat="48.55758" lon="2.10952">
        <ele>144</ele>
        <time>2011-04-15T08:51:41Z</time>
      </trkpt>
      <trkpt lat="48.55757" lon="2.10951">
        <ele>144</ele>
        <time>2011-04-15T08:51:42Z</time>
      </trkpt>
      <trkpt lat="48.55755" lon="2.10949">
        <ele>144</ele>
        <time>2011-04-15T08:51:43Z</time>
      </trkpt>
      <trkpt lat="48.55754" lon="2.10947">
        <ele>144</ele>
        <time>2011-04-15T08:51:44Z</time>
      </trkpt>
      <trkpt lat="48.55753" lon="2.10946">
        <ele>144</ele>
        <time>2011-04-15T08:51:45Z</time>
      </trkpt>
      <trkpt lat="48.55752" lon="2.10943">
        <ele>144</ele>
        <time>2011-04-15T08:51:46Z</time>
      </trkpt>
      <trkpt lat="48.55752" lon="2.10942">
        <ele>144</ele>
        <time>2011-04-15T08:51:47Z</time>
      </trkpt>
      <trkpt lat="48.5575" lon="2.1094">
        <ele>144</ele>
        <time>2011-04-15T08:51:48Z</time>
      </trkpt>
      <trkpt lat="48.5575" lon="2.10938">
        <ele>144</ele>
        <time>2011-04-15T08:51:49Z</time>
      </trkpt>
      <trkpt lat="48.55749" lon="2.10936">
        <ele>144</ele>
        <time>2011-04-15T08:51:50Z</time>
      </trkpt>
      <trkpt lat="48.55749" lon="2.10934">
        <ele>144</ele>
        <time>2011-04-15T08:51:51Z</time>
      </trkpt>
      <trkpt lat="48.55748" lon="2.10932">
        <ele>144</ele>
        <time>2011-04-15T08:51:52Z</time>
      </trkpt>
      <trkpt lat="48.55748" lon="2.1093">
        <ele>144</ele>
        <time>2011-04-15T08:51:53Z</time>
      </trkpt>
      <trkpt lat="48.55748" lon="2.10928">
        <ele>144</ele>
        <time>2011-04-15T08:51:54Z</time>
      </trkpt>
      <trkpt lat="48.55746" lon="2.10924">
        <ele>144</ele>
        <time>2011-04-15T08:51:56Z</time>
      </trkpt>
      <trkpt lat="48.55746" lon="2.10922">
        <ele>144</ele>
        <time>2011-04-15T08:51:57Z</time>
      </trkpt>
      <trkpt lat="48.55745" lon="2.1092">
        <ele>144</ele>
        <time>2011-04-15T08:51:58Z</time>
      </trkpt>
      <trkpt lat="48.55745" lon="2.10918">
        <ele>144</ele>
        <time>2011-04-15T08:51:59Z</time>
      </trkpt>
      <trkpt lat="48.55744" lon="2.10916">
        <ele>144</ele>
        <time>2011-04-15T08:52:00Z</time>
      </trkpt>
      <trkpt lat="48.55743" lon="2.10914">
        <ele>144</ele>
        <time>2011-04-15T08:52:01Z</time>
      </trkpt>
      <trkpt lat="48.55743" lon="2.10912">
        <ele>144</ele>
        <time>2011-04-15T08:52:03Z</time>
      </trkpt>
      <trkpt lat="48.55742" lon="2.1091">
        <ele>144</ele>
        <time>2011-04-15T08:52:06Z</time>
      </trkpt>
      <trkpt lat="48.55742" lon="2.10908">
        <ele>144</ele>
        <time>2011-04-15T08:52:11Z</time>
      </trkpt>
      <trkpt lat="48.55742" lon="2.10905">
        <ele>144</ele>
        <time>2011-04-15T08:52:16Z</time>
      </trkpt>
      <trkpt lat="48.55742" lon="2.10904">
        <ele>144</ele>
        <time>2011-04-15T08:52:17Z</time>
      </trkpt>
      <trkpt lat="48.55741" lon="2.10902">
        <ele>144</ele>
        <time>2011-04-15T08:52:18Z</time>
      </trkpt>
      <trkpt lat="48.55741" lon="2.109">
        <ele>144</ele>
        <time>2011-04-15T08:52:19Z</time>
      </trkpt>
      <trkpt lat="48.5574" lon="2.10897">
        <ele>144</ele>
        <time>2011-04-15T08:52:21Z</time>
      </trkpt>
      <trkpt lat="48.55739" lon="2.10895">
        <ele>144</ele>
        <time>2011-04-15T08:52:22Z</time>
      </trkpt>
      <trkpt lat="48.55737" lon="2.10893">
        <ele>144</ele>
        <time>2011-04-15T08:52:23Z</time>
      </trkpt>
      <trkpt lat="48.55736" lon="2.1089">
        <ele>144</ele>
        <time>2011-04-15T08:52:24Z</time>
      </trkpt>
      <trkpt lat="48.55735" lon="2.10889">
        <ele>144</ele>
        <time>2011-04-15T08:52:25Z</time>
      </trkpt>
      <trkpt lat="48.55734" lon="2.10887">
        <ele>144</ele>
        <time>2011-04-15T08:52:26Z</time>
      </trkpt>
      <trkpt lat="48.55733" lon="2.10885">
        <ele>144</ele>
        <time>2011-04-15T08:52:27Z</time>
      </trkpt>
      <trkpt lat="48.55732" lon="2.10883">
        <ele>144</ele>
        <time>2011-04-15T08:52:28Z</time>
      </trkpt>
      <trkpt lat="48.55731" lon="2.10881">
        <ele>144</ele>
        <time>2011-04-15T08:52:29Z</time>
      </trkpt>
      <trkpt lat="48.55731" lon="2.10879">
        <ele>144</ele>
        <time>2011-04-15T08:52:30Z</time>
      </trkpt>
      <trkpt lat="48.5573" lon="2.10877">
        <ele>144</ele>
        <time>2011-04-15T08:52:31Z</time>
      </trkpt>
      <trkpt lat="48.55729" lon="2.10875">
        <ele>144</ele>
        <time>2011-04-15T08:52:32Z</time>
      </trkpt>
      <trkpt lat="48.55728" lon="2.10873">
        <ele>144</ele>
        <time>2011-04-15T08:52:33Z</time>
      </trkpt>
      <trkpt lat="48.55728" lon="2.10871">
        <ele>144</ele>
        <time>2011-04-15T08:52:34Z</time>
      </trkpt>
      <trkpt lat="48.55727" lon="2.10869">
        <ele>144</ele>
        <time>2011-04-15T08:52:35Z</time>
      </trkpt>
      <trkpt lat="48.55726" lon="2.10867">
        <ele>144</ele>
        <time>2011-04-15T08:52:36Z</time>
      </trkpt>
      <trkpt lat="48.55725" lon="2.10865">
        <ele>144</ele>
        <time>2011-04-15T08:52:37Z</time>
      </trkpt>
      <trkpt lat="48.55724" lon="2.10862">
        <ele>144</ele>
        <time>2011-04-15T08:52:38Z</time>
      </trkpt>
      <trkpt lat="48.55724" lon="2.1086">
        <ele>144</ele>
        <time>2011-04-15T08:52:39Z</time>
      </trkpt>
      <trkpt lat="48.55723" lon="2.10857">
        <ele>144</ele>
        <time>2011-04-15T08:52:40Z</time>
      </trkpt>
      <trkpt lat="48.55722" lon="2.10855">
        <ele>144</ele>
        <time>2011-04-15T08:52:41Z</time>
      </trkpt>
      <trkpt lat="48.55722" lon="2.10853">
        <ele>144</ele>
        <time>2011-04-15T08:52:42Z</time>
      </trkpt>
      <trkpt lat="48.5572" lon="2.10851">
        <ele>144</ele>
        <time>2011-04-15T08:52:43Z</time>
      </trkpt>
      <trkpt lat="48.55719" lon="2.10849">
        <ele>144</ele>
        <time>2011-04-15T08:52:44Z</time>
      </trkpt>
      <trkpt lat="48.55718" lon="2.10847">
        <ele>144</ele>
        <time>2011-04-15T08:52:45Z</time>
      </trkpt>
      <trkpt lat="48.55717" lon="2.10844">
        <ele>144</ele>
        <time>2011-04-15T08:52:46Z</time>
      </trkpt>
      <trkpt lat="48.55717" lon="2.10842">
        <ele>144</ele>
        <time>2011-04-15T08:52:47Z</time>
      </trkpt>
      <trkpt lat="48.55717" lon="2.1084">
        <ele>144</ele>
        <time>2011-04-15T08:52:48Z</time>
      </trkpt>
      <trkpt lat="48.55716" lon="2.10838">
        <ele>144</ele>
        <time>2011-04-15T08:52:49Z</time>
      </trkpt>
      <trkpt lat="48.55715" lon="2.10836">
        <ele>144</ele>
        <time>2011-04-15T08:52:50Z</time>
      </trkpt>
      <trkpt lat="48.55715" lon="2.10834">
        <ele>144</ele>
        <time>2011-04-15T08:52:51Z</time>
      </trkpt>
      <trkpt lat="48.55714" lon="2.10833">
        <ele>144</ele>
        <time>2011-04-15T08:52:52Z</time>
      </trkpt>
      <trkpt lat="48.55711" lon="2.1083">
        <ele>144</ele>
        <time>2011-04-15T08:52:54Z</time>
      </trkpt>
      <trkpt lat="48.55711" lon="2.10828">
        <ele>144</ele>
        <time>2011-04-15T08:52:55Z</time>
      </trkpt>
      <trkpt lat="48.5571" lon="2.10826">
        <ele>144</ele>
        <time>2011-04-15T08:52:56Z</time>
      </trkpt>
      <trkpt lat="48.55709" lon="2.10824">
        <ele>144</ele>
        <time>2011-04-15T08:52:58Z</time>
      </trkpt>
      <trkpt lat="48.55708" lon="2.1082">
        <ele>144</ele>
        <time>2011-04-15T08:53:00Z</time>
      </trkpt>
      <trkpt lat="48.55707" lon="2.10818">
        <ele>144</ele>
        <time>2011-04-15T08:53:01Z</time>
      </trkpt>
      <trkpt lat="48.55707" lon="2.10816">
        <ele>144</ele>
        <time>2011-04-15T08:53:02Z</time>
      </trkpt>
      <trkpt lat="48.55706" lon="2.10813">
        <ele>144</ele>
        <time>2011-04-15T08:53:04Z</time>
      </trkpt>
      <trkpt lat="48.55705" lon="2.10811">
        <ele>144</ele>
        <time>2011-04-15T08:53:05Z</time>
      </trkpt>
      <trkpt lat="48.55704" lon="2.1081">
        <ele>144</ele>
        <time>2011-04-15T08:53:06Z</time>
      </trkpt>
      <trkpt lat="48.55703" lon="2.10808">
        <ele>144</ele>
        <time>2011-04-15T08:53:07Z</time>
      </trkpt>
      <trkpt lat="48.55701" lon="2.10805">
        <ele>144</ele>
        <time>2011-04-15T08:53:09Z</time>
      </trkpt>
      <trkpt lat="48.55701" lon="2.10803">
        <ele>144</ele>
        <time>2011-04-15T08:53:10Z</time>
      </trkpt>
      <trkpt lat="48.557" lon="2.10801">
        <ele>144</ele>
        <time>2011-04-15T08:53:11Z</time>
      </trkpt>
      <trkpt lat="48.55699" lon="2.10799">
        <ele>144</ele>
        <time>2011-04-15T08:53:12Z</time>
      </trkpt>
      <trkpt lat="48.55697" lon="2.10797">
        <ele>144</ele>
        <time>2011-04-15T08:53:14Z</time>
      </trkpt>
      <trkpt lat="48.55696" lon="2.10793">
        <ele>144</ele>
        <time>2011-04-15T08:53:16Z</time>
      </trkpt>
      <trkpt lat="48.55695" lon="2.1079">
        <ele>144</ele>
        <time>2011-04-15T08:53:17Z</time>
      </trkpt>
      <trkpt lat="48.55693" lon="2.10787">
        <ele>144</ele>
        <time>2011-04-15T08:53:18Z</time>
      </trkpt>
      <trkpt lat="48.55692" lon="2.10783">
        <ele>144</ele>
        <time>2011-04-15T08:53:19Z</time>
      </trkpt>
      <trkpt lat="48.5569" lon="2.10778">
        <ele>144</ele>
        <time>2011-04-15T08:53:20Z</time>
      </trkpt>
      <trkpt lat="48.55689" lon="2.10774">
        <ele>144</ele>
        <time>2011-04-15T08:53:21Z</time>
      </trkpt>
      <trkpt lat="48.55688" lon="2.1077">
        <ele>144</ele>
        <time>2011-04-15T08:53:22Z</time>
      </trkpt>
      <trkpt lat="48.55687" lon="2.10767">
        <ele>144</ele>
        <time>2011-04-15T08:53:23Z</time>
      </trkpt>
      <trkpt lat="48.55687" lon="2.10764">
        <ele>144</ele>
        <time>2011-04-15T08:53:24Z</time>
      </trkpt>
      <trkpt lat="48.55686" lon="2.10762">
        <ele>144</ele>
        <time>2011-04-15T08:53:25Z</time>
      </trkpt>
      <trkpt lat="48.55684" lon="2.1076">
        <ele>144</ele>
        <time>2011-04-15T08:53:26Z</time>
      </trkpt>
      <trkpt lat="48.55684" lon="2.10758">
        <ele>144</ele>
        <time>2011-04-15T08:53:27Z</time>
      </trkpt>
      <trkpt lat="48.55683" lon="2.10755">
        <ele>144</ele>
        <time>2011-04-15T08:53:28Z</time>
      </trkpt>
      <trkpt lat="48.55682" lon="2.10753">
        <ele>144</ele>
        <time>2011-04-15T08:53:29Z</time>
      </trkpt>
      <trkpt lat="48.55681" lon="2.10751">
        <ele>144</ele>
        <time>2011-04-15T08:53:30Z</time>
      </trkpt>
      <trkpt lat="48.5568" lon="2.10749">
        <ele>144</ele>
        <time>2011-04-15T08:53:31Z</time>
      </trkpt>
      <trkpt lat="48.5568" lon="2.10747">
        <ele>144</ele>
        <time>2011-04-15T08:53:32Z</time>
      </trkpt>
      <trkpt lat="48.55678" lon="2.10745">
        <ele>144</ele>
        <time>2011-04-15T08:53:33Z</time>
      </trkpt>
      <trkpt lat="48.55676" lon="2.10742">
        <ele>144</ele>
        <time>2011-04-15T08:53:35Z</time>
      </trkpt>
      <trkpt lat="48.55676" lon="2.10741">
        <ele>144</ele>
        <time>2011-04-15T08:53:36Z</time>
      </trkpt>
      <trkpt lat="48.55675" lon="2.10739">
        <ele>144</ele>
        <time>2011-04-15T08:53:37Z</time>
      </trkpt>
      <trkpt lat="48.55674" lon="2.10737">
        <ele>144</ele>
        <time>2011-04-15T08:53:38Z</time>
      </trkpt>
      <trkpt lat="48.55674" lon="2.10734">
        <ele>144</ele>
        <time>2011-04-15T08:53:39Z</time>
      </trkpt>
      <trkpt lat="48.55673" lon="2.10731">
        <ele>144</ele>
        <time>2011-04-15T08:53:40Z</time>
      </trkpt>
      <trkpt lat="48.55673" lon="2.10728">
        <ele>144</ele>
        <time>2011-04-15T08:53:41Z</time>
      </trkpt>
      <trkpt lat="48.55672" lon="2.10725">
        <ele>144</ele>
        <time>2011-04-15T08:53:42Z</time>
      </trkpt>
      <trkpt lat="48.55672" lon="2.10722">
        <ele>144</ele>
        <time>2011-04-15T08:53:43Z</time>
      </trkpt>
      <trkpt lat="48.55671" lon="2.10719">
        <ele>144</ele>
        <time>2011-04-15T08:53:44Z</time>
      </trkpt>
      <trkpt lat="48.5567" lon="2.10716">
        <ele>144</ele>
        <time>2011-04-15T08:53:45Z</time>
      </trkpt>
      <trkpt lat="48.55668" lon="2.10714">
        <ele>144</ele>
        <time>2011-04-15T08:53:46Z</time>
      </trkpt>
      <trkpt lat="48.55667" lon="2.10711">
        <ele>144</ele>
        <time>2011-04-15T08:53:47Z</time>
      </trkpt>
      <trkpt lat="48.55667" lon="2.10709">
        <ele>144</ele>
        <time>2011-04-15T08:53:48Z</time>
      </trkpt>
      <trkpt lat="48.55666" lon="2.10708">
        <ele>144</ele>
        <time>2011-04-15T08:53:49Z</time>
      </trkpt>
      <trkpt lat="48.55665" lon="2.10706">
        <ele>144</ele>
        <time>2011-04-15T08:53:50Z</time>
      </trkpt>
      <trkpt lat="48.55664" lon="2.10703">
        <ele>144</ele>
        <time>2011-04-15T08:53:51Z</time>
      </trkpt>
      <trkpt lat="48.55663" lon="2.10701">
        <ele>144</ele>
        <time>2011-04-15T08:53:52Z</time>
      </trkpt>
      <trkpt lat="48.55662" lon="2.10699">
        <ele>144</ele>
        <time>2011-04-15T08:53:53Z</time>
      </trkpt>
      <trkpt lat="48.55661" lon="2.10697">
        <ele>144</ele>
        <time>2011-04-15T08:53:54Z</time>
      </trkpt>
      <trkpt lat="48.5566" lon="2.10695">
        <ele>144</ele>
        <time>2011-04-15T08:53:55Z</time>
      </trkpt>
      <trkpt lat="48.55659" lon="2.10693">
        <ele>144</ele>
        <time>2011-04-15T08:53:56Z</time>
      </trkpt>
      <trkpt lat="48.55658" lon="2.10691">
        <ele>144</ele>
        <time>2011-04-15T08:53:57Z</time>
      </trkpt>
      <trkpt lat="48.55657" lon="2.10689">
        <ele>144</ele>
        <time>2011-04-15T08:53:58Z</time>
      </trkpt>
      <trkpt lat="48.55657" lon="2.10687">
        <ele>144</ele>
        <time>2011-04-15T08:53:59Z</time>
      </trkpt>
      <trkpt lat="48.55656" lon="2.10685">
        <ele>144</ele>
        <time>2011-04-15T08:54:00Z</time>
      </trkpt>
      <trkpt lat="48.55655" lon="2.10682">
        <ele>144</ele>
        <time>2011-04-15T08:54:02Z</time>
      </trkpt>
      <trkpt lat="48.55654" lon="2.1068">
        <ele>144</ele>
        <time>2011-04-15T08:54:03Z</time>
      </trkpt>
      <trkpt lat="48.55654" lon="2.10677">
        <ele>144</ele>
        <time>2011-04-15T08:54:04Z</time>
      </trkpt>
      <trkpt lat="48.55653" lon="2.10674">
        <ele>144</ele>
        <time>2011-04-15T08:54:05Z</time>
      </trkpt>
      <trkpt lat="48.55653" lon="2.10672">
        <ele>144</ele>
        <time>2011-04-15T08:54:06Z</time>
      </trkpt>
      <trkpt lat="48.55652" lon="2.1067">
        <ele>144</ele>
        <time>2011-04-15T08:54:07Z</time>
      </trkpt>
      <trkpt lat="48.55652" lon="2.10668">
        <ele>144</ele>
        <time>2011-04-15T08:54:08Z</time>
      </trkpt>
      <trkpt lat="48.5565" lon="2.10666">
        <ele>144</ele>
        <time>2011-04-15T08:54:09Z</time>
      </trkpt>
      <trkpt lat="48.55649" lon="2.10664">
        <ele>144</ele>
        <time>2011-04-15T08:54:10Z</time>
      </trkpt>
      <trkpt lat="48.55648" lon="2.10663">
        <ele>144</ele>
        <time>2011-04-15T08:54:11Z</time>
      </trkpt>
      <trkpt lat="48.55647" lon="2.10661">
        <ele>144</ele>
        <time>2011-04-15T08:54:12Z</time>
      </trkpt>
      <trkpt lat="48.55646" lon="2.10658">
        <ele>144</ele>
        <time>2011-04-15T08:54:13Z</time>
      </trkpt>
      <trkpt lat="48.55646" lon="2.10656">
        <ele>144</ele>
        <time>2011-04-15T08:54:14Z</time>
      </trkpt>
      <trkpt lat="48.55646" lon="2.10654">
        <ele>144</ele>
        <time>2011-04-15T08:54:15Z</time>
      </trkpt>
      <trkpt lat="48.55645" lon="2.10651">
        <ele>144</ele>
        <time>2011-04-15T08:54:16Z</time>
      </trkpt>
      <trkpt lat="48.55645" lon="2.10649">
        <ele>144</ele>
        <time>2011-04-15T08:54:17Z</time>
      </trkpt>
      <trkpt lat="48.55644" lon="2.10647">
        <ele>144</ele>
        <time>2011-04-15T08:54:18Z</time>
      </trkpt>
      <trkpt lat="48.55644" lon="2.10644">
        <ele>144</ele>
        <time>2011-04-15T08:54:19Z</time>
      </trkpt>
      <trkpt lat="48.55643" lon="2.10642">
        <ele>144</ele>
        <time>2011-04-15T08:54:20Z</time>
      </trkpt>
      <trkpt lat="48.55643" lon="2.1064">
        <ele>144</ele>
        <time>2011-04-15T08:54:21Z</time>
      </trkpt>
      <trkpt lat="48.55642" lon="2.10638">
        <ele>144</ele>
        <time>2011-04-15T08:54:22Z</time>
      </trkpt>
      <trkpt lat="48.55641" lon="2.10637">
        <ele>144</ele>
        <time>2011-04-15T08:54:23Z</time>
      </trkpt>
      <trkpt lat="48.5564" lon="2.10635">
        <ele>144</ele>
        <time>2011-04-15T08:54:24Z</time>
      </trkpt>
      <trkpt lat="48.55639" lon="2.10633">
        <ele>144</ele>
        <time>2011-04-15T08:54:25Z</time>
      </trkpt>
      <trkpt lat="48.55638" lon="2.10632">
        <ele>144</ele>
        <time>2011-04-15T08:54:26Z</time>
      </trkpt>
      <trkpt lat="48.55637" lon="2.1063">
        <ele>144</ele>
        <time>2011-04-15T08:54:27Z</time>
      </trkpt>
      <trkpt lat="48.55636" lon="2.10628">
        <ele>144</ele>
        <time>2011-04-15T08:54:28Z</time>
      </trkpt>
      <trkpt lat="48.55635" lon="2.10626">
        <ele>144</ele>
        <time>2011-04-15T08:54:29Z</time>
      </trkpt>
      <trkpt lat="48.55634" lon="2.10625">
        <ele>144</ele>
        <time>2011-04-15T08:54:30Z</time>
      </trkpt>
      <trkpt lat="48.55633" lon="2.10624">
        <ele>144</ele>
        <time>2011-04-15T08:54:31Z</time>
      </trkpt>
      <trkpt lat="48.55632" lon="2.10622">
        <ele>144</ele>
        <time>2011-04-15T08:54:32Z</time>
      </trkpt>
      <trkpt lat="48.55631" lon="2.10619">
        <ele>144</ele>
        <time>2011-04-15T08:54:33Z</time>
      </trkpt>
      <trkpt lat="48.5563" lon="2.10617">
        <ele>144</ele>
        <time>2011-04-15T08:54:34Z</time>
      </trkpt>
      <trkpt lat="48.55629" lon="2.10615">
        <ele>144</ele>
        <time>2011-04-15T08:54:35Z</time>
      </trkpt>
      <trkpt lat="48.55628" lon="2.10612">
        <ele>144</ele>
        <time>2011-04-15T08:54:36Z</time>
      </trkpt>
      <trkpt lat="48.55628" lon="2.1061">
        <ele>144</ele>
        <time>2011-04-15T08:54:37Z</time>
      </trkpt>
      <trkpt lat="48.55628" lon="2.10608">
        <ele>144</ele>
        <time>2011-04-15T08:54:38Z</time>
      </trkpt>
      <trkpt lat="48.55628" lon="2.10606">
        <ele>144</ele>
        <time>2011-04-15T08:54:39Z</time>
      </trkpt>
      <trkpt lat="48.55628" lon="2.10604">
        <ele>144</ele>
        <time>2011-04-15T08:54:40Z</time>
      </trkpt>
      <trkpt lat="48.55628" lon="2.10602">
        <ele>144</ele>
        <time>2011-04-15T08:54:41Z</time>
      </trkpt>
      <trkpt lat="48.55627" lon="2.106">
        <ele>144</ele>
        <time>2011-04-15T08:54:42Z</time>
      </trkpt>
      <trkpt lat="48.55627" lon="2.10597">
        <ele>144</ele>
        <time>2011-04-15T08:54:43Z</time>
      </trkpt>
      <trkpt lat="48.55626" lon="2.10595">
        <ele>144</ele>
        <time>2011-04-15T08:54:44Z</time>
      </trkpt>
      <trkpt lat="48.55625" lon="2.10593">
        <ele>144</ele>
        <time>2011-04-15T08:54:45Z</time>
      </trkpt>
      <trkpt lat="48.55625" lon="2.10591">
        <ele>144</ele>
        <time>2011-04-15T08:54:46Z</time>
      </trkpt>
      <trkpt lat="48.55624" lon="2.10589">
        <ele>144</ele>
        <time>2011-04-15T08:54:47Z</time>
      </trkpt>
      <trkpt lat="48.55623" lon="2.10586">
        <ele>144</ele>
        <time>2011-04-15T08:54:48Z</time>
      </trkpt>
      <trkpt lat="48.55622" lon="2.10584">
        <ele>144</ele>
        <time>2011-04-15T08:54:49Z</time>
      </trkpt>
      <trkpt lat="48.55621" lon="2.10582">
        <ele>144</ele>
        <time>2011-04-15T08:54:50Z</time>
      </trkpt>
      <trkpt lat="48.55621" lon="2.1058">
        <ele>144</ele>
        <time>2011-04-15T08:54:51Z</time>
      </trkpt>
      <trkpt lat="48.5562" lon="2.10579">
        <ele>144</ele>
        <time>2011-04-15T08:54:52Z</time>
      </trkpt>
      <trkpt lat="48.55619" lon="2.10577">
        <ele>144</ele>
        <time>2011-04-15T08:54:53Z</time>
      </trkpt>
      <trkpt lat="48.55618" lon="2.10575">
        <ele>144</ele>
        <time>2011-04-15T08:54:54Z</time>
      </trkpt>
      <trkpt lat="48.55617" lon="2.10572">
        <ele>144</ele>
        <time>2011-04-15T08:54:55Z</time>
      </trkpt>
      <trkpt lat="48.55616" lon="2.10569">
        <ele>144</ele>
        <time>2011-04-15T08:54:57Z</time>
      </trkpt>
      <trkpt lat="48.55616" lon="2.10567">
        <ele>144</ele>
        <time>2011-04-15T08:54:58Z</time>
      </trkpt>
      <trkpt lat="48.55615" lon="2.10564">
        <ele>144</ele>
        <time>2011-04-15T08:54:59Z</time>
      </trkpt>
      <trkpt lat="48.55615" lon="2.10563">
        <ele>144</ele>
        <time>2011-04-15T08:55:00Z</time>
      </trkpt>
      <trkpt lat="48.55614" lon="2.10561">
        <ele>144</ele>
        <time>2011-04-15T08:55:01Z</time>
      </trkpt>
      <trkpt lat="48.55614" lon="2.10559">
        <ele>144</ele>
        <time>2011-04-15T08:55:02Z</time>
      </trkpt>
      <trkpt lat="48.55613" lon="2.10557">
        <ele>144</ele>
        <time>2011-04-15T08:55:03Z</time>
      </trkpt>
      <trkpt lat="48.55613" lon="2.10555">
        <ele>144</ele>
        <time>2011-04-15T08:55:04Z</time>
      </trkpt>
      <trkpt lat="48.55611" lon="2.10552">
        <ele>144</ele>
        <time>2011-04-15T08:55:06Z</time>
      </trkpt>
      <trkpt lat="48.55611" lon="2.10551">
        <ele>144</ele>
        <time>2011-04-15T08:55:07Z</time>
      </trkpt>
      <trkpt lat="48.55609" lon="2.10547">
        <ele>144</ele>
        <time>2011-04-15T08:55:09Z</time>
      </trkpt>
      <trkpt lat="48.55608" lon="2.10546">
        <ele>144</ele>
        <time>2011-04-15T08:55:10Z</time>
      </trkpt>
      <trkpt lat="48.55608" lon="2.10543">
        <ele>144</ele>
        <time>2011-04-15T08:55:11Z</time>
      </trkpt>
      <trkpt lat="48.55607" lon="2.10541">
        <ele>144</ele>
        <time>2011-04-15T08:55:12Z</time>
      </trkpt>
      <trkpt lat="48.55606" lon="2.10539">
        <ele>144</ele>
        <time>2011-04-15T08:55:13Z</time>
      </trkpt>
      <trkpt lat="48.55605" lon="2.10537">
        <ele>144</ele>
        <time>2011-04-15T08:55:14Z</time>
      </trkpt>
      <trkpt lat="48.55604" lon="2.10535">
        <ele>144</ele>
        <time>2011-04-15T08:55:15Z</time>
      </trkpt>
      <trkpt lat="48.55604" lon="2.10533">
        <ele>144</ele>
        <time>2011-04-15T08:55:16Z</time>
      </trkpt>
      <trkpt lat="48.55603" lon="2.1053">
        <ele>144</ele>
        <time>2011-04-15T08:55:17Z</time>
      </trkpt>
      <trkpt lat="48.55603" lon="2.10528">
        <ele>144</ele>
        <time>2011-04-15T08:55:18Z</time>
      </trkpt>
      <trkpt lat="48.55602" lon="2.10526">
        <ele>144</ele>
        <time>2011-04-15T08:55:19Z</time>
      </trkpt>
      <trkpt lat="48.55602" lon="2.10523">
        <ele>144</ele>
        <time>2011-04-15T08:55:20Z</time>
      </trkpt>
      <trkpt lat="48.55602" lon="2.10521">
        <ele>144</ele>
        <time>2011-04-15T08:55:21Z</time>
      </trkpt>
      <trkpt lat="48.55601" lon="2.10519">
        <ele>144</ele>
        <time>2011-04-15T08:55:22Z</time>
      </trkpt>
      <trkpt lat="48.556" lon="2.10517">
        <ele>144</ele>
        <time>2011-04-15T08:55:23Z</time>
      </trkpt>
      <trkpt lat="48.556" lon="2.10514">
        <ele>144</ele>
        <time>2011-04-15T08:55:24Z</time>
      </trkpt>
      <trkpt lat="48.55599" lon="2.10512">
        <ele>144</ele>
        <time>2011-04-15T08:55:25Z</time>
      </trkpt>
      <trkpt lat="48.55598" lon="2.1051">
        <ele>144</ele>
        <time>2011-04-15T08:55:26Z</time>
      </trkpt>
      <trkpt lat="48.55597" lon="2.10508">
        <ele>144</ele>
        <time>2011-04-15T08:55:27Z</time>
      </trkpt>
      <trkpt lat="48.55596" lon="2.10506">
        <ele>144</ele>
        <time>2011-04-15T08:55:28Z</time>
      </trkpt>
      <trkpt lat="48.55596" lon="2.10504">
        <ele>144</ele>
        <time>2011-04-15T08:55:29Z</time>
      </trkpt>
      <trkpt lat="48.55594" lon="2.10502">
        <ele>144</ele>
        <time>2011-04-15T08:55:30Z</time>
      </trkpt>
      <trkpt lat="48.55594" lon="2.105">
        <ele>144</ele>
        <time>2011-04-15T08:55:31Z</time>
      </trkpt>
      <trkpt lat="48.55593" lon="2.10498">
        <ele>144</ele>
        <time>2011-04-15T08:55:32Z</time>
      </trkpt>
      <trkpt lat="48.55593" lon="2.10496">
        <ele>144</ele>
        <time>2011-04-15T08:55:33Z</time>
      </trkpt>
      <trkpt lat="48.55591" lon="2.10495">
        <ele>144</ele>
        <time>2011-04-15T08:55:35Z</time>
      </trkpt>
      <trkpt lat="48.5559" lon="2.10493">
        <ele>144</ele>
        <time>2011-04-15T08:55:35Z</time>
      </trkpt>
      <trkpt lat="48.55589" lon="2.10491">
        <ele>144</ele>
        <time>2011-04-15T08:55:37Z</time>
      </trkpt>
      <trkpt lat="48.55587" lon="2.10487">
        <ele>144</ele>
        <time>2011-04-15T08:55:39Z</time>
      </trkpt>
      <trkpt lat="48.55587" lon="2.10486">
        <ele>144</ele>
        <time>2011-04-15T08:55:40Z</time>
      </trkpt>
      <trkpt lat="48.55586" lon="2.10484">
        <ele>144</ele>
        <time>2011-04-15T08:55:41Z</time>
      </trkpt>
      <trkpt lat="48.55585" lon="2.10481">
        <ele>144</ele>
        <time>2011-04-15T08:55:42Z</time>
      </trkpt>
      <trkpt lat="48.55585" lon="2.10479">
        <ele>144</ele>
        <time>2011-04-15T08:55:43Z</time>
      </trkpt>
      <trkpt lat="48.55584" lon="2.10476">
        <ele>144</ele>
        <time>2011-04-15T08:55:45Z</time>
      </trkpt>
      <trkpt lat="48.55583" lon="2.10474">
        <ele>144</ele>
        <time>2011-04-15T08:55:46Z</time>
      </trkpt>
      <trkpt lat="48.55583" lon="2.10472">
        <ele>144</ele>
        <time>2011-04-15T08:55:47Z</time>
      </trkpt>
      <trkpt lat="48.55582" lon="2.1047">
        <ele>144</ele>
        <time>2011-04-15T08:55:48Z</time>
      </trkpt>
      <trkpt lat="48.55581" lon="2.10468">
        <ele>144</ele>
        <time>2011-04-15T08:55:49Z</time>
      </trkpt>
      <trkpt lat="48.5558" lon="2.10466">
        <ele>144</ele>
        <time>2011-04-15T08:55:50Z</time>
      </trkpt>
      <trkpt lat="48.5558" lon="2.10464">
        <ele>144</ele>
        <time>2011-04-15T08:55:51Z</time>
      </trkpt>
      <trkpt lat="48.55579" lon="2.10462">
        <ele>144</ele>
        <time>2011-04-15T08:55:52Z</time>
      </trkpt>
      <trkpt lat="48.55579" lon="2.1046">
        <ele>144</ele>
        <time>2011-04-15T08:55:53Z</time>
      </trkpt>
      <trkpt lat="48.55578" lon="2.10458">
        <ele>144</ele>
        <time>2011-04-15T08:55:54Z</time>
      </trkpt>
      <trkpt lat="48.55578" lon="2.10456">
        <ele>144</ele>
        <time>2011-04-15T08:55:55Z</time>
      </trkpt>
      <trkpt lat="48.55577" lon="2.10454">
        <ele>144</ele>
        <time>2011-04-15T08:55:56Z</time>
      </trkpt>
      <trkpt lat="48.55576" lon="2.10452">
        <ele>144</ele>
        <time>2011-04-15T08:55:57Z</time>
      </trkpt>
      <trkpt lat="48.55575" lon="2.1045">
        <ele>144</ele>
        <time>2011-04-15T08:55:58Z</time>
      </trkpt>
      <trkpt lat="48.55574" lon="2.10448">
        <ele>144</ele>
        <time>2011-04-15T08:55:59Z</time>
      </trkpt>
      <trkpt lat="48.55573" lon="2.10446">
        <ele>144</ele>
        <time>2011-04-15T08:56:00Z</time>
      </trkpt>
      <trkpt lat="48.55572" lon="2.10444">
        <ele>144</ele>
        <time>2011-04-15T08:56:01Z</time>
      </trkpt>
      <trkpt lat="48.55572" lon="2.10442">
        <ele>144</ele>
        <time>2011-04-15T08:56:02Z</time>
      </trkpt>
      <trkpt lat="48.55571" lon="2.1044">
        <ele>144</ele>
        <time>2011-04-15T08:56:03Z</time>
      </trkpt>
      <trkpt lat="48.5557" lon="2.10439">
        <ele>144</ele>
        <time>2011-04-15T08:56:04Z</time>
      </trkpt>
      <trkpt lat="48.55568" lon="2.10437">
        <ele>144</ele>
        <time>2011-04-15T08:56:05Z</time>
      </trkpt>
      <trkpt lat="48.55567" lon="2.10435">
        <ele>144</ele>
        <time>2011-04-15T08:56:06Z</time>
      </trkpt>
      <trkpt lat="48.55566" lon="2.10434">
        <ele>144</ele>
        <time>2011-04-15T08:56:07Z</time>
      </trkpt>
      <trkpt lat="48.55564" lon="2.10432">
        <ele>144</ele>
        <time>2011-04-15T08:56:08Z</time>
      </trkpt>
      <trkpt lat="48.55563" lon="2.10431">
        <ele>144</ele>
        <time>2011-04-15T08:56:09Z</time>
      </trkpt>
      <trkpt lat="48.55562" lon="2.10429">
        <ele>144</ele>
        <time>2011-04-15T08:56:10Z</time>
      </trkpt>
      <trkpt lat="48.55561" lon="2.10427">
        <ele>144</ele>
        <time>2011-04-15T08:56:11Z</time>
      </trkpt>
      <trkpt lat="48.55561" lon="2.10426">
        <ele>144</ele>
        <time>2011-04-15T08:56:12Z</time>
      </trkpt>
      <trkpt lat="48.55561" lon="2.10424">
        <ele>144</ele>
        <time>2011-04-15T08:56:13Z</time>
      </trkpt>
      <trkpt lat="48.5556" lon="2.10422">
        <ele>144</ele>
        <time>2011-04-15T08:56:14Z</time>
      </trkpt>
      <trkpt lat="48.55558" lon="2.10419">
        <ele>144</ele>
        <time>2011-04-15T08:56:15Z</time>
      </trkpt>
      <trkpt lat="48.55558" lon="2.10418">
        <ele>144</ele>
        <time>2011-04-15T08:56:16Z</time>
      </trkpt>
      <trkpt lat="48.55558" lon="2.10416">
        <ele>144</ele>
        <time>2011-04-15T08:56:17Z</time>
      </trkpt>
      <trkpt lat="48.55557" lon="2.10414">
        <ele>144</ele>
        <time>2011-04-15T08:56:18Z</time>
      </trkpt>
      <trkpt lat="48.55557" lon="2.10412">
        <ele>144</ele>
        <time>2011-04-15T08:56:19Z</time>
      </trkpt>
      <trkpt lat="48.55556" lon="2.1041">
        <ele>144</ele>
        <time>2011-04-15T08:56:20Z</time>
      </trkpt>
      <trkpt lat="48.55555" lon="2.10408">
        <ele>144</ele>
        <time>2011-04-15T08:56:21Z</time>
      </trkpt>
      <trkpt lat="48.55554" lon="2.10405">
        <ele>144</ele>
        <time>2011-04-15T08:56:22Z</time>
      </trkpt>
      <trkpt lat="48.55553" lon="2.10404">
        <ele>144</ele>
        <time>2011-04-15T08:56:23Z</time>
      </trkpt>
      <trkpt lat="48.55552" lon="2.10402">
        <ele>144</ele>
        <time>2011-04-15T08:56:24Z</time>
      </trkpt>
      <trkpt lat="48.55551" lon="2.104">
        <ele>144</ele>
        <time>2011-04-15T08:56:25Z</time>
      </trkpt>
      <trkpt lat="48.55551" lon="2.10398">
        <ele>144</ele>
        <time>2011-04-15T08:56:26Z</time>
      </trkpt>
      <trkpt lat="48.55549" lon="2.10396">
        <ele>144</ele>
        <time>2011-04-15T08:56:27Z</time>
      </trkpt>
      <trkpt lat="48.55548" lon="2.10394">
        <ele>144</ele>
        <time>2011-04-15T08:56:28Z</time>
      </trkpt>
      <trkpt lat="48.55546" lon="2.10391">
        <ele>144</ele>
        <time>2011-04-15T08:56:30Z</time>
      </trkpt>
      <trkpt lat="48.55545" lon="2.1039">
        <ele>144</ele>
        <time>2011-04-15T08:56:31Z</time>
      </trkpt>
      <trkpt lat="48.55543" lon="2.10388">
        <ele>144</ele>
        <time>2011-04-15T08:56:32Z</time>
      </trkpt>
      <trkpt lat="48.55542" lon="2.10385">
        <ele>144</ele>
        <time>2011-04-15T08:56:34Z</time>
      </trkpt>
      <trkpt lat="48.55542" lon="2.10383">
        <ele>144</ele>
        <time>2011-04-15T08:56:35Z</time>
      </trkpt>
      <trkpt lat="48.55542" lon="2.10381">
        <ele>144</ele>
        <time>2011-04-15T08:56:36Z</time>
      </trkpt>
      <trkpt lat="48.55542" lon="2.10378">
        <ele>144</ele>
        <time>2011-04-15T08:56:38Z</time>
      </trkpt>
      <trkpt lat="48.55541" lon="2.10376">
        <ele>144</ele>
        <time>2011-04-15T08:56:39Z</time>
      </trkpt>
      <trkpt lat="48.55541" lon="2.10373">
        <ele>144</ele>
        <time>2011-04-15T08:56:40Z</time>
      </trkpt>
      <trkpt lat="48.5554" lon="2.10371">
        <ele>144</ele>
        <time>2011-04-15T08:56:41Z</time>
      </trkpt>
      <trkpt lat="48.5554" lon="2.10368">
        <ele>144</ele>
        <time>2011-04-15T08:56:42Z</time>
      </trkpt>
      <trkpt lat="48.55539" lon="2.10366">
        <ele>144</ele>
        <time>2011-04-15T08:56:43Z</time>
      </trkpt>
      <trkpt lat="48.55539" lon="2.10363">
        <ele>144</ele>
        <time>2011-04-15T08:56:44Z</time>
      </trkpt>
      <trkpt lat="48.55538" lon="2.10361">
        <ele>144</ele>
        <time>2011-04-15T08:56:45Z</time>
      </trkpt>
      <trkpt lat="48.55537" lon="2.10359">
        <ele>144</ele>
        <time>2011-04-15T08:56:46Z</time>
      </trkpt>
      <trkpt lat="48.55537" lon="2.10357">
        <ele>144</ele>
        <time>2011-04-15T08:56:47Z</time>
      </trkpt>
      <trkpt lat="48.55536" lon="2.10354">
        <ele>144</ele>
        <time>2011-04-15T08:56:48Z</time>
      </trkpt>
      <trkpt lat="48.55536" lon="2.10353">
        <ele>144</ele>
        <time>2011-04-15T08:56:49Z</time>
      </trkpt>
      <trkpt lat="48.55536" lon="2.10351">
        <ele>144</ele>
        <time>2011-04-15T08:56:50Z</time>
      </trkpt>
      <trkpt lat="48.55535" lon="2.10349">
        <ele>144</ele>
        <time>2011-04-15T08:56:51Z</time>
      </trkpt>
      <trkpt lat="48.55533" lon="2.10347">
        <ele>144</ele>
        <time>2011-04-15T08:56:52Z</time>
      </trkpt>
      <trkpt lat="48.55532" lon="2.10344">
        <ele>144</ele>
        <time>2011-04-15T08:56:53Z</time>
      </trkpt>
      <trkpt lat="48.55531" lon="2.10343">
        <ele>144</ele>
        <time>2011-04-15T08:56:54Z</time>
      </trkpt>
      <trkpt lat="48.5553" lon="2.10341">
        <ele>144</ele>
        <time>2011-04-15T08:56:55Z</time>
      </trkpt>
      <trkpt lat="48.5553" lon="2.10339">
        <ele>144</ele>
        <time>2011-04-15T08:56:56Z</time>
      </trkpt>
      <trkpt lat="48.55529" lon="2.10336">
        <ele>144</ele>
        <time>2011-04-15T08:56:57Z</time>
      </trkpt>
      <trkpt lat="48.55529" lon="2.10334">
        <ele>144</ele>
        <time>2011-04-15T08:56:58Z</time>
      </trkpt>
      <trkpt lat="48.55528" lon="2.10331">
        <ele>144</ele>
        <time>2011-04-15T08:57:00Z</time>
      </trkpt>
      <trkpt lat="48.55528" lon="2.10329">
        <ele>144</ele>
        <time>2011-04-15T08:57:01Z</time>
      </trkpt>
      <trkpt lat="48.55528" lon="2.10327">
        <ele>144</ele>
        <time>2011-04-15T08:57:02Z</time>
      </trkpt>
      <trkpt lat="48.55527" lon="2.10324">
        <ele>144</ele>
        <time>2011-04-15T08:57:04Z</time>
      </trkpt>
      <trkpt lat="48.55527" lon="2.10321">
        <ele>144</ele>
        <time>2011-04-15T08:57:06Z</time>
      </trkpt>
      <trkpt lat="48.55527" lon="2.10319">
        <ele>144</ele>
        <time>2011-04-15T08:57:07Z</time>
      </trkpt>
      <trkpt lat="48.55525" lon="2.10316">
        <ele>144</ele>
        <time>2011-04-15T08:57:08Z</time>
      </trkpt>
      <trkpt lat="48.55525" lon="2.10313">
        <ele>144</ele>
        <time>2011-04-15T08:57:09Z</time>
      </trkpt>
      <trkpt lat="48.55524" lon="2.1031">
        <ele>144</ele>
        <time>2011-04-15T08:57:10Z</time>
      </trkpt>
      <trkpt lat="48.55524" lon="2.10308">
        <ele>145</ele>
        <time>2011-04-15T08:57:11Z</time>
      </trkpt>
      <trkpt lat="48.55523" lon="2.10306">
        <ele>145</ele>
        <time>2011-04-15T08:57:12Z</time>
      </trkpt>
      <trkpt lat="48.55522" lon="2.10304">
        <ele>145</ele>
        <time>2011-04-15T08:57:13Z</time>
      </trkpt>
      <trkpt lat="48.55522" lon="2.10301">
        <ele>145</ele>
        <time>2011-04-15T08:57:15Z</time>
      </trkpt>
      <trkpt lat="48.55521" lon="2.10299">
        <ele>145</ele>
        <time>2011-04-15T08:57:16Z</time>
      </trkpt>
      <trkpt lat="48.5552" lon="2.10297">
        <ele>145</ele>
        <time>2011-04-15T08:57:17Z</time>
      </trkpt>
      <trkpt lat="48.5552" lon="2.10296">
        <ele>145</ele>
        <time>2011-04-15T08:57:18Z</time>
      </trkpt>
      <trkpt lat="48.55519" lon="2.10294">
        <ele>145</ele>
        <time>2011-04-15T08:57:19Z</time>
      </trkpt>
      <trkpt lat="48.55518" lon="2.10292">
        <ele>145</ele>
        <time>2011-04-15T08:57:20Z</time>
      </trkpt>
      <trkpt lat="48.55516" lon="2.10289">
        <ele>145</ele>
        <time>2011-04-15T08:57:22Z</time>
      </trkpt>
      <trkpt lat="48.55516" lon="2.10287">
        <ele>145</ele>
        <time>2011-04-15T08:57:23Z</time>
      </trkpt>
      <trkpt lat="48.55516" lon="2.10285">
        <ele>145</ele>
        <time>2011-04-15T08:57:24Z</time>
      </trkpt>
      <trkpt lat="48.55515" lon="2.10283">
        <ele>145</ele>
        <time>2011-04-15T08:57:25Z</time>
      </trkpt>
      <trkpt lat="48.55515" lon="2.10281">
        <ele>145</ele>
        <time>2011-04-15T08:57:26Z</time>
      </trkpt>
      <trkpt lat="48.55514" lon="2.10279">
        <ele>145</ele>
        <time>2011-04-15T08:57:27Z</time>
      </trkpt>
      <trkpt lat="48.55513" lon="2.10277">
        <ele>145</ele>
        <time>2011-04-15T08:57:28Z</time>
      </trkpt>
      <trkpt lat="48.55512" lon="2.10275">
        <ele>145</ele>
        <time>2011-04-15T08:57:29Z</time>
      </trkpt>
      <trkpt lat="48.55511" lon="2.10272">
        <ele>145</ele>
        <time>2011-04-15T08:57:30Z</time>
      </trkpt>
      <trkpt lat="48.55511" lon="2.10271">
        <ele>145</ele>
        <time>2011-04-15T08:57:31Z</time>
      </trkpt>
      <trkpt lat="48.5551" lon="2.10269">
        <ele>145</ele>
        <time>2011-04-15T08:57:32Z</time>
      </trkpt>
      <trkpt lat="48.55509" lon="2.10267">
        <ele>145</ele>
        <time>2011-04-15T08:57:33Z</time>
      </trkpt>
      <trkpt lat="48.55508" lon="2.10265">
        <ele>145</ele>
        <time>2011-04-15T08:57:34Z</time>
      </trkpt>
      <trkpt lat="48.55508" lon="2.10264">
        <ele>145</ele>
        <time>2011-04-15T08:57:35Z</time>
      </trkpt>
      <trkpt lat="48.55507" lon="2.10261">
        <ele>145</ele>
        <time>2011-04-15T08:57:36Z</time>
      </trkpt>
      <trkpt lat="48.55506" lon="2.10259">
        <ele>145</ele>
        <time>2011-04-15T08:57:37Z</time>
      </trkpt>
      <trkpt lat="48.55505" lon="2.10256">
        <ele>145</ele>
        <time>2011-04-15T08:57:38Z</time>
      </trkpt>
      <trkpt lat="48.55504" lon="2.10253">
        <ele>145</ele>
        <time>2011-04-15T08:57:39Z</time>
      </trkpt>
      <trkpt lat="48.55504" lon="2.10251">
        <ele>145</ele>
        <time>2011-04-15T08:57:40Z</time>
      </trkpt>
      <trkpt lat="48.55503" lon="2.10248">
        <ele>145</ele>
        <time>2011-04-15T08:57:41Z</time>
      </trkpt>
      <trkpt lat="48.55502" lon="2.10246">
        <ele>145</ele>
        <time>2011-04-15T08:57:42Z</time>
      </trkpt>
      <trkpt lat="48.55501" lon="2.10244">
        <ele>145</ele>
        <time>2011-04-15T08:57:43Z</time>
      </trkpt>
      <trkpt lat="48.55501" lon="2.10242">
        <ele>145</ele>
        <time>2011-04-15T08:57:44Z</time>
      </trkpt>
      <trkpt lat="48.55501" lon="2.1024">
        <ele>146</ele>
        <time>2011-04-15T08:57:46Z</time>
      </trkpt>
      <trkpt lat="48.55502" lon="2.1024">
        <ele>148</ele>
        <time>2011-04-15T08:57:52Z</time>
      </trkpt>
      <trkpt lat="48.55501" lon="2.10238">
        <ele>152</ele>
        <time>2011-04-15T08:58:00Z</time>
      </trkpt>
      <trkpt lat="48.55501" lon="2.10235">
        <ele>153</ele>
        <time>2011-04-15T08:58:03Z</time>
      </trkpt>
      <trkpt lat="48.55501" lon="2.10234">
        <ele>156</ele>
        <time>2011-04-15T08:58:12Z</time>
      </trkpt>
      <trkpt lat="48.55501" lon="2.10232">
        <ele>156</ele>
        <time>2011-04-15T08:58:16Z</time>
      </trkpt>
      <trkpt lat="48.55502" lon="2.1023">
        <ele>159</ele>
        <time>2011-04-15T08:58:20Z</time>
      </trkpt>
      <trkpt lat="48.55502" lon="2.10227">
        <ele>161</ele>
        <time>2011-04-15T08:58:23Z</time>
      </trkpt>
      <trkpt lat="48.55501" lon="2.10229">
        <ele>162</ele>
        <time>2011-04-15T08:58:27Z</time>
      </trkpt>
      <trkpt lat="48.555" lon="2.10231">
        <ele>159</ele>
        <time>2011-04-15T08:58:33Z</time>
      </trkpt>
      <trkpt lat="48.55499" lon="2.10233">
        <ele>158</ele>
        <time>2011-04-15T08:58:36Z</time>
      </trkpt>
      <trkpt lat="48.55497" lon="2.10234">
        <ele>156</ele>
        <time>2011-04-15T08:58:38Z</time>
      </trkpt>
      <trkpt lat="48.55495" lon="2.10235">
        <ele>156</ele>
        <time>2011-04-15T08:58:39Z</time>
      </trkpt>
      <trkpt lat="48.55494" lon="2.10235">
        <ele>156</ele>
        <time>2011-04-15T08:58:40Z</time>
      </trkpt>
      <trkpt lat="48.55492" lon="2.10237">
        <ele>155</ele>
        <time>2011-04-15T08:58:42Z</time>
      </trkpt>
      <trkpt lat="48.55491" lon="2.10239">
        <ele>154</ele>
        <time>2011-04-15T08:58:43Z</time>
      </trkpt>
      <trkpt lat="48.5549" lon="2.1024">
        <ele>154</ele>
        <time>2011-04-15T08:58:44Z</time>
      </trkpt>
      <trkpt lat="48.55488" lon="2.1024">
        <ele>154</ele>
        <time>2011-04-15T08:58:45Z</time>
      </trkpt>
      <trkpt lat="48.55487" lon="2.1024">
        <ele>153</ele>
        <time>2011-04-15T08:58:46Z</time>
      </trkpt>
      <trkpt lat="48.55485" lon="2.10242">
        <ele>152</ele>
        <time>2011-04-15T08:58:48Z</time>
      </trkpt>
      <trkpt lat="48.55483" lon="2.10243">
        <ele>152</ele>
        <time>2011-04-15T08:58:49Z</time>
      </trkpt>
      <trkpt lat="48.55482" lon="2.10243">
        <ele>152</ele>
        <time>2011-04-15T08:58:50Z</time>
      </trkpt>
      <trkpt lat="48.55481" lon="2.10243">
        <ele>152</ele>
        <time>2011-04-15T08:58:51Z</time>
      </trkpt>
      <trkpt lat="48.5548" lon="2.10243">
        <ele>152</ele>
        <time>2011-04-15T08:58:52Z</time>
      </trkpt>
      <trkpt lat="48.55478" lon="2.10242">
        <ele>152</ele>
        <time>2011-04-15T08:58:53Z</time>
      </trkpt>
      <trkpt lat="48.55477" lon="2.10242">
        <ele>151</ele>
        <time>2011-04-15T08:58:54Z</time>
      </trkpt>
      <trkpt lat="48.55476" lon="2.10241">
        <ele>151</ele>
        <time>2011-04-15T08:58:55Z</time>
      </trkpt>
      <trkpt lat="48.55474" lon="2.10241">
        <ele>151</ele>
        <time>2011-04-15T08:58:56Z</time>
      </trkpt>
      <trkpt lat="48.55473" lon="2.10241">
        <ele>151</ele>
        <time>2011-04-15T08:58:57Z</time>
      </trkpt>
      <trkpt lat="48.55472" lon="2.10241">
        <ele>151</ele>
        <time>2011-04-15T08:58:58Z</time>
      </trkpt>
      <trkpt lat="48.55469" lon="2.10239">
        <ele>151</ele>
        <time>2011-04-15T08:59:00Z</time>
      </trkpt>
      <trkpt lat="48.55468" lon="2.10238">
        <ele>151</ele>
        <time>2011-04-15T08:59:01Z</time>
      </trkpt>
      <trkpt lat="48.55466" lon="2.10238">
        <ele>151</ele>
        <time>2011-04-15T08:59:02Z</time>
      </trkpt>
      <trkpt lat="48.55464" lon="2.10238">
        <ele>151</ele>
        <time>2011-04-15T08:59:03Z</time>
      </trkpt>
      <trkpt lat="48.55462" lon="2.10238">
        <ele>151</ele>
        <time>2011-04-15T08:59:04Z</time>
      </trkpt>
      <trkpt lat="48.55461" lon="2.10237">
        <ele>151</ele>
        <time>2011-04-15T08:59:05Z</time>
      </trkpt>
      <trkpt lat="48.5546" lon="2.10237">
        <ele>151</ele>
        <time>2011-04-15T08:59:06Z</time>
      </trkpt>
      <trkpt lat="48.55458" lon="2.10236">
        <ele>151</ele>
        <time>2011-04-15T08:59:07Z</time>
      </trkpt>
      <trkpt lat="48.55457" lon="2.10236">
        <ele>151</ele>
        <time>2011-04-15T08:59:08Z</time>
      </trkpt>
      <trkpt lat="48.55456" lon="2.10236">
        <ele>151</ele>
        <time>2011-04-15T08:59:09Z</time>
      </trkpt>
      <trkpt lat="48.55454" lon="2.10235">
        <ele>151</ele>
        <time>2011-04-15T08:59:10Z</time>
      </trkpt>
      <trkpt lat="48.55452" lon="2.10234">
        <ele>151</ele>
        <time>2011-04-15T08:59:12Z</time>
      </trkpt>
      <trkpt lat="48.5545" lon="2.10233">
        <ele>151</ele>
        <time>2011-04-15T08:59:13Z</time>
      </trkpt>
      <trkpt lat="48.55449" lon="2.10233">
        <ele>151</ele>
        <time>2011-04-15T08:59:14Z</time>
      </trkpt>
      <trkpt lat="48.55448" lon="2.10232">
        <ele>151</ele>
        <time>2011-04-15T08:59:15Z</time>
      </trkpt>
      <trkpt lat="48.55446" lon="2.10231">
        <ele>151</ele>
        <time>2011-04-15T08:59:16Z</time>
      </trkpt>
      <trkpt lat="48.55444" lon="2.1023">
        <ele>151</ele>
        <time>2011-04-15T08:59:17Z</time>
      </trkpt>
      <trkpt lat="48.55443" lon="2.1023">
        <ele>150</ele>
        <time>2011-04-15T08:59:18Z</time>
      </trkpt>
      <trkpt lat="48.55442" lon="2.10229">
        <ele>150</ele>
        <time>2011-04-15T08:59:19Z</time>
      </trkpt>
      <trkpt lat="48.5544" lon="2.10229">
        <ele>150</ele>
        <time>2011-04-15T08:59:20Z</time>
      </trkpt>
      <trkpt lat="48.55438" lon="2.1023">
        <ele>150</ele>
        <time>2011-04-15T08:59:21Z</time>
      </trkpt>
      <trkpt lat="48.55436" lon="2.1023">
        <ele>150</ele>
        <time>2011-04-15T08:59:22Z</time>
      </trkpt>
      <trkpt lat="48.55435" lon="2.10231">
        <ele>150</ele>
        <time>2011-04-15T08:59:23Z</time>
      </trkpt>
      <trkpt lat="48.55433" lon="2.10231">
        <ele>150</ele>
        <time>2011-04-15T08:59:24Z</time>
      </trkpt>
      <trkpt lat="48.55431" lon="2.10232">
        <ele>150</ele>
        <time>2011-04-15T08:59:25Z</time>
      </trkpt>
      <trkpt lat="48.55429" lon="2.10232">
        <ele>150</ele>
        <time>2011-04-15T08:59:26Z</time>
      </trkpt>
      <trkpt lat="48.55428" lon="2.10233">
        <ele>150</ele>
        <time>2011-04-15T08:59:27Z</time>
      </trkpt>
      <trkpt lat="48.55426" lon="2.10233">
        <ele>150</ele>
        <time>2011-04-15T08:59:28Z</time>
      </trkpt>
      <trkpt lat="48.55425" lon="2.10233">
        <ele>150</ele>
        <time>2011-04-15T08:59:29Z</time>
      </trkpt>
      <trkpt lat="48.55424" lon="2.10234">
        <ele>150</ele>
        <time>2011-04-15T08:59:30Z</time>
      </trkpt>
      <trkpt lat="48.55422" lon="2.10235">
        <ele>150</ele>
        <time>2011-04-15T08:59:32Z</time>
      </trkpt>
      <trkpt lat="48.5542" lon="2.10235">
        <ele>150</ele>
        <time>2011-04-15T08:59:33Z</time>
      </trkpt>
      <trkpt lat="48.55419" lon="2.10236">
        <ele>150</ele>
        <time>2011-04-15T08:59:34Z</time>
      </trkpt>
      <trkpt lat="48.55417" lon="2.10237">
        <ele>150</ele>
        <time>2011-04-15T08:59:35Z</time>
      </trkpt>
      <trkpt lat="48.55415" lon="2.10238">
        <ele>150</ele>
        <time>2011-04-15T08:59:36Z</time>
      </trkpt>
      <trkpt lat="48.55413" lon="2.10239">
        <ele>150</ele>
        <time>2011-04-15T08:59:37Z</time>
      </trkpt>
      <trkpt lat="48.55412" lon="2.10239">
        <ele>150</ele>
        <time>2011-04-15T08:59:38Z</time>
      </trkpt>
      <trkpt lat="48.5541" lon="2.1024">
        <ele>150</ele>
        <time>2011-04-15T08:59:39Z</time>
      </trkpt>
      <trkpt lat="48.55408" lon="2.10241">
        <ele>150</ele>
        <time>2011-04-15T08:59:40Z</time>
      </trkpt>
      <trkpt lat="48.55407" lon="2.10242">
        <ele>150</ele>
        <time>2011-04-15T08:59:41Z</time>
      </trkpt>
      <trkpt lat="48.55406" lon="2.10242">
        <ele>150</ele>
        <time>2011-04-15T08:59:42Z</time>
      </trkpt>
      <trkpt lat="48.55404" lon="2.10243">
        <ele>150</ele>
        <time>2011-04-15T08:59:43Z</time>
      </trkpt>
      <trkpt lat="48.55403" lon="2.10244">
        <ele>150</ele>
        <time>2011-04-15T08:59:44Z</time>
      </trkpt>
      <trkpt lat="48.55401" lon="2.10245">
        <ele>150</ele>
        <time>2011-04-15T08:59:45Z</time>
      </trkpt>
      <trkpt lat="48.554" lon="2.10245">
        <ele>150</ele>
        <time>2011-04-15T08:59:46Z</time>
      </trkpt>
      <trkpt lat="48.55399" lon="2.10246">
        <ele>150</ele>
        <time>2011-04-15T08:59:47Z</time>
      </trkpt>
      <trkpt lat="48.55396" lon="2.10249">
        <ele>150</ele>
        <time>2011-04-15T08:59:49Z</time>
      </trkpt>
      <trkpt lat="48.55395" lon="2.1025">
        <ele>150</ele>
        <time>2011-04-15T08:59:50Z</time>
      </trkpt>
      <trkpt lat="48.55394" lon="2.10251">
        <ele>150</ele>
        <time>2011-04-15T08:59:51Z</time>
      </trkpt>
      <trkpt lat="48.55392" lon="2.10252">
        <ele>149</ele>
        <time>2011-04-15T08:59:52Z</time>
      </trkpt>
      <trkpt lat="48.55391" lon="2.10253">
        <ele>149</ele>
        <time>2011-04-15T08:59:53Z</time>
      </trkpt>
      <trkpt lat="48.5539" lon="2.10253">
        <ele>149</ele>
        <time>2011-04-15T08:59:54Z</time>
      </trkpt>
      <trkpt lat="48.55388" lon="2.10254">
        <ele>149</ele>
        <time>2011-04-15T08:59:55Z</time>
      </trkpt>
      <trkpt lat="48.55386" lon="2.10256">
        <ele>149</ele>
        <time>2011-04-15T08:59:56Z</time>
      </trkpt>
      <trkpt lat="48.55385" lon="2.10257">
        <ele>149</ele>
        <time>2011-04-15T08:59:57Z</time>
      </trkpt>
      <trkpt lat="48.55383" lon="2.10258">
        <ele>149</ele>
        <time>2011-04-15T08:59:58Z</time>
      </trkpt>
      <trkpt lat="48.55382" lon="2.1026">
        <ele>149</ele>
        <time>2011-04-15T08:59:59Z</time>
      </trkpt>
      <trkpt lat="48.5538" lon="2.10261">
        <ele>149</ele>
        <time>2011-04-15T09:00:00Z</time>
      </trkpt>
      <trkpt lat="48.55378" lon="2.10263">
        <ele>149</ele>
        <time>2011-04-15T09:00:01Z</time>
      </trkpt>
      <trkpt lat="48.55376" lon="2.10267">
        <ele>149</ele>
        <time>2011-04-15T09:00:03Z</time>
      </trkpt>
      <trkpt lat="48.55373" lon="2.10269">
        <ele>149</ele>
        <time>2011-04-15T09:00:04Z</time>
      </trkpt>
      <trkpt lat="48.5537" lon="2.10271">
        <ele>149</ele>
        <time>2011-04-15T09:00:05Z</time>
      </trkpt>
      <trkpt lat="48.55368" lon="2.10273">
        <ele>149</ele>
        <time>2011-04-15T09:00:06Z</time>
      </trkpt>
      <trkpt lat="48.55367" lon="2.10274">
        <ele>149</ele>
        <time>2011-04-15T09:00:07Z</time>
      </trkpt>
      <trkpt lat="48.55366" lon="2.10275">
        <ele>149</ele>
        <time>2011-04-15T09:00:08Z</time>
      </trkpt>
      <trkpt lat="48.55365" lon="2.10275">
        <ele>149</ele>
        <time>2011-04-15T09:00:09Z</time>
      </trkpt>
      <trkpt lat="48.55363" lon="2.10276">
        <ele>149</ele>
        <time>2011-04-15T09:00:10Z</time>
      </trkpt>
      <trkpt lat="48.55362" lon="2.10277">
        <ele>149</ele>
        <time>2011-04-15T09:00:11Z</time>
      </trkpt>
      <trkpt lat="48.5536" lon="2.10279">
        <ele>149</ele>
        <time>2011-04-15T09:00:13Z</time>
      </trkpt>
      <trkpt lat="48.55358" lon="2.10281">
        <ele>150</ele>
        <time>2011-04-15T09:00:14Z</time>
      </trkpt>
      <trkpt lat="48.55357" lon="2.10282">
        <ele>151</ele>
        <time>2011-04-15T09:00:15Z</time>
      </trkpt>
      <trkpt lat="48.55356" lon="2.10284">
        <ele>151</ele>
        <time>2011-04-15T09:00:16Z</time>
      </trkpt>
      <trkpt lat="48.55354" lon="2.10287">
        <ele>153</ele>
        <time>2011-04-15T09:00:18Z</time>
      </trkpt>
      <trkpt lat="48.55352" lon="2.10287">
        <ele>154</ele>
        <time>2011-04-15T09:00:20Z</time>
      </trkpt>
      <trkpt lat="48.55351" lon="2.10288">
        <ele>155</ele>
        <time>2011-04-15T09:00:27Z</time>
      </trkpt>
      <trkpt lat="48.5535" lon="2.10289">
        <ele>156</ele>
        <time>2011-04-15T09:00:31Z</time>
      </trkpt>
      <trkpt lat="48.55349" lon="2.1029">
        <ele>156</ele>
        <time>2011-04-15T09:00:35Z</time>
      </trkpt>
      <trkpt lat="48.55347" lon="2.1029">
        <ele>156</ele>
        <time>2011-04-15T09:00:37Z</time>
      </trkpt>
      <trkpt lat="48.55348" lon="2.10288">
        <ele>156</ele>
        <time>2011-04-15T09:00:42Z</time>
      </trkpt>
      <trkpt lat="48.55346" lon="2.10287">
        <ele>156</ele>
        <time>2011-04-15T09:00:47Z</time>
      </trkpt>
      <trkpt lat="48.55346" lon="2.10284">
        <ele>156</ele>
        <time>2011-04-15T09:00:50Z</time>
      </trkpt>
      <trkpt lat="48.55346" lon="2.10286">
        <ele>156</ele>
        <time>2011-04-15T09:00:57Z</time>
      </trkpt>
      <trkpt lat="48.55347" lon="2.10285">
        <ele>156</ele>
        <time>2011-04-15T09:01:02Z</time>
      </trkpt>
      <trkpt lat="48.55347" lon="2.10284">
        <ele>156</ele>
        <time>2011-04-15T09:01:04Z</time>
      </trkpt>
      <trkpt lat="48.55349" lon="2.10283">
        <ele>156</ele>
        <time>2011-04-15T09:01:06Z</time>
      </trkpt>
      <trkpt lat="48.55347" lon="2.10281">
        <ele>156</ele>
        <time>2011-04-15T09:01:12Z</time>
      </trkpt>
      <trkpt lat="48.55347" lon="2.10279">
        <ele>156</ele>
        <time>2011-04-15T09:01:20Z</time>
      </trkpt>
      <trkpt lat="48.55349" lon="2.10278">
        <ele>156</ele>
        <time>2011-04-15T09:01:22Z</time>
      </trkpt>
      <trkpt lat="48.55349" lon="2.1028">
        <ele>156</ele>
        <time>2011-04-15T09:01:25Z</time>
      </trkpt>
      <trkpt lat="48.55347" lon="2.10282">
        <ele>156</ele>
        <time>2011-04-15T09:01:28Z</time>
      </trkpt>
      <trkpt lat="48.55346" lon="2.10283">
        <ele>156</ele>
        <time>2011-04-15T09:01:31Z</time>
      </trkpt>
      <trkpt lat="48.55346" lon="2.10284">
        <ele>156</ele>
        <time>2011-04-15T09:01:35Z</time>
      </trkpt>
      <trkpt lat="48.55347" lon="2.10283">
        <ele>156</ele>
        <time>2011-04-15T09:01:40Z</time>
      </trkpt>
      <trkpt lat="48.55348" lon="2.10282">
        <ele>156</ele>
        <time>2011-04-15T09:01:48Z</time>
      </trkpt>
      <trkpt lat="48.55347" lon="2.10282">
        <ele>156</ele>
        <time>2011-04-15T09:01:53Z</time>
      </trkpt>
      <trkpt lat="48.55347" lon="2.10281">
        <ele>156</ele>
        <time>2011-04-15T09:01:55Z</time>
      </trkpt>
      <trkpt lat="48.55348" lon="2.1028">
        <ele>156</ele>
        <time>2011-04-15T09:01:57Z</time>
      </trkpt>
      <trkpt lat="48.55349" lon="2.10283">
        <ele>156</ele>
        <time>2011-04-15T09:01:59Z</time>
      </trkpt>
      <trkpt lat="48.55351" lon="2.10281">
        <ele>156</ele>
        <time>2011-04-15T09:02:13Z</time>
      </trkpt>
      <trkpt lat="48.55352" lon="2.10281">
        <ele>156</ele>
        <time>2011-04-15T09:02:15Z</time>
      </trkpt>
      <trkpt lat="48.55351" lon="2.1028">
        <ele>156</ele>
        <time>2011-04-15T09:02:19Z</time>
      </trkpt>
      <trkpt lat="48.5535" lon="2.10279">
        <ele>156</ele>
        <time>2011-04-15T09:02:22Z</time>
      </trkpt>
      <trkpt lat="48.55351" lon="2.10277">
        <ele>155</ele>
        <time>2011-04-15T09:02:24Z</time>
      </trkpt>
      <trkpt lat="48.5535" lon="2.10278">
        <ele>155</ele>
        <time>2011-04-15T09:02:30Z</time>
      </trkpt>
      <trkpt lat="48.55351" lon="2.10278">
        <ele>154</ele>
        <time>2011-04-15T09:02:33Z</time>
      </trkpt>
      <trkpt lat="48.5535" lon="2.10279">
        <ele>154</ele>
        <time>2011-04-15T09:02:35Z</time>
      </trkpt>
      <trkpt lat="48.55349" lon="2.1028">
        <ele>154</ele>
        <time>2011-04-15T09:02:36Z</time>
      </trkpt>
      <trkpt lat="48.5535" lon="2.1028">
        <ele>153</ele>
        <time>2011-04-15T09:02:40Z</time>
      </trkpt>
      <trkpt lat="48.55349" lon="2.10282">
        <ele>152</ele>
        <time>2011-04-15T09:02:43Z</time>
      </trkpt>
      <trkpt lat="48.55348" lon="2.10283">
        <ele>152</ele>
        <time>2011-04-15T09:02:45Z</time>
      </trkpt>
      <trkpt lat="48.55347" lon="2.10284">
        <ele>151</ele>
        <time>2011-04-15T09:02:52Z</time>
      </trkpt>
      <trkpt lat="48.55347" lon="2.10282">
        <ele>151</ele>
        <time>2011-04-15T09:02:55Z</time>
      </trkpt>
      <trkpt lat="48.55348" lon="2.10281">
        <ele>151</ele>
        <time>2011-04-15T09:02:56Z</time>
      </trkpt>
      <trkpt lat="48.5535" lon="2.1028">
        <ele>151</ele>
        <time>2011-04-15T09:02:57Z</time>
      </trkpt>
      <trkpt lat="48.55351" lon="2.10279">
        <ele>151</ele>
        <time>2011-04-15T09:02:58Z</time>
      </trkpt>
      <trkpt lat="48.5535" lon="2.10278">
        <ele>150</ele>
        <time>2011-04-15T09:03:04Z</time>
      </trkpt>
      <trkpt lat="48.5535" lon="2.1028">
        <ele>150</ele>
        <time>2011-04-15T09:03:12Z</time>
      </trkpt>
      <trkpt lat="48.55348" lon="2.1028">
        <ele>150</ele>
        <time>2011-04-15T09:03:15Z</time>
      </trkpt>
      <trkpt lat="48.5535" lon="2.10281">
        <ele>150</ele>
        <time>2011-04-15T09:03:18Z</time>
      </trkpt>
      <trkpt lat="48.55348" lon="2.10282">
        <ele>150</ele>
        <time>2011-04-15T09:03:21Z</time>
      </trkpt>
      <trkpt lat="48.55346" lon="2.10283">
        <ele>150</ele>
        <time>2011-04-15T09:03:23Z</time>
      </trkpt>
      <trkpt lat="48.55344" lon="2.10284">
        <ele>150</ele>
        <time>2011-04-15T09:03:24Z</time>
      </trkpt>
      <trkpt lat="48.55343" lon="2.10285">
        <ele>150</ele>
        <time>2011-04-15T09:03:25Z</time>
      </trkpt>
      <trkpt lat="48.55341" lon="2.10286">
        <ele>150</ele>
        <time>2011-04-15T09:03:26Z</time>
      </trkpt>
      <trkpt lat="48.5534" lon="2.10286">
        <ele>150</ele>
        <time>2011-04-15T09:03:28Z</time>
      </trkpt>
      <trkpt lat="48.55339" lon="2.10287">
        <ele>150</ele>
        <time>2011-04-15T09:03:31Z</time>
      </trkpt>
      <trkpt lat="48.55337" lon="2.10291">
        <ele>150</ele>
        <time>2011-04-15T09:03:33Z</time>
      </trkpt>
      <trkpt lat="48.55335" lon="2.10293">
        <ele>150</ele>
        <time>2011-04-15T09:03:34Z</time>
      </trkpt>
      <trkpt lat="48.55334" lon="2.10293">
        <ele>150</ele>
        <time>2011-04-15T09:03:35Z</time>
      </trkpt>
      <trkpt lat="48.55332" lon="2.10293">
        <ele>150</ele>
        <time>2011-04-15T09:03:37Z</time>
      </trkpt>
      <trkpt lat="48.55331" lon="2.10292">
        <ele>150</ele>
        <time>2011-04-15T09:03:38Z</time>
      </trkpt>
      <trkpt lat="48.55329" lon="2.10293">
        <ele>150</ele>
        <time>2011-04-15T09:03:39Z</time>
      </trkpt>
      <trkpt lat="48.55328" lon="2.10292">
        <ele>150</ele>
        <time>2011-04-15T09:03:40Z</time>
      </trkpt>
      <trkpt lat="48.55326" lon="2.10292">
        <ele>150</ele>
        <time>2011-04-15T09:03:41Z</time>
      </trkpt>
      <trkpt lat="48.55325" lon="2.10291">
        <ele>150</ele>
        <time>2011-04-15T09:03:42Z</time>
      </trkpt>
      <trkpt lat="48.55324" lon="2.1029">
        <ele>150</ele>
        <time>2011-04-15T09:03:43Z</time>
      </trkpt>
      <trkpt lat="48.55323" lon="2.1029">
        <ele>150</ele>
        <time>2011-04-15T09:03:44Z</time>
      </trkpt>
      <trkpt lat="48.5532" lon="2.10288">
        <ele>150</ele>
        <time>2011-04-15T09:03:46Z</time>
      </trkpt>
      <trkpt lat="48.55318" lon="2.10287">
        <ele>150</ele>
        <time>2011-04-15T09:03:48Z</time>
      </trkpt>
      <trkpt lat="48.55317" lon="2.10286">
        <ele>150</ele>
        <time>2011-04-15T09:03:49Z</time>
      </trkpt>
      <trkpt lat="48.55315" lon="2.10287">
        <ele>150</ele>
        <time>2011-04-15T09:03:50Z</time>
      </trkpt>
      <trkpt lat="48.55314" lon="2.10287">
        <ele>150</ele>
        <time>2011-04-15T09:03:51Z</time>
      </trkpt>
      <trkpt lat="48.55313" lon="2.10288">
        <ele>150</ele>
        <time>2011-04-15T09:03:52Z</time>
      </trkpt>
      <trkpt lat="48.55312" lon="2.10288">
        <ele>150</ele>
        <time>2011-04-15T09:03:53Z</time>
      </trkpt>
      <trkpt lat="48.5531" lon="2.10287">
        <ele>150</ele>
        <time>2011-04-15T09:03:55Z</time>
      </trkpt>
      <trkpt lat="48.55309" lon="2.10287">
        <ele>150</ele>
        <time>2011-04-15T09:03:56Z</time>
      </trkpt>
      <trkpt lat="48.55307" lon="2.10287">
        <ele>150</ele>
        <time>2011-04-15T09:03:58Z</time>
      </trkpt>
      <trkpt lat="48.55305" lon="2.10286">
        <ele>150</ele>
        <time>2011-04-15T09:03:59Z</time>
      </trkpt>
      <trkpt lat="48.55304" lon="2.10286">
        <ele>150</ele>
        <time>2011-04-15T09:04:00Z</time>
      </trkpt>
      <trkpt lat="48.55303" lon="2.10286">
        <ele>150</ele>
        <time>2011-04-15T09:04:01Z</time>
      </trkpt>
      <trkpt lat="48.55301" lon="2.10286">
        <ele>150</ele>
        <time>2011-04-15T09:04:02Z</time>
      </trkpt>
      <trkpt lat="48.553" lon="2.10286">
        <ele>150</ele>
        <time>2011-04-15T09:04:03Z</time>
      </trkpt>
      <trkpt lat="48.55298" lon="2.10286">
        <ele>150</ele>
        <time>2011-04-15T09:04:05Z</time>
      </trkpt>
      <trkpt lat="48.55296" lon="2.10286">
        <ele>150</ele>
        <time>2011-04-15T09:04:07Z</time>
      </trkpt>
      <trkpt lat="48.55295" lon="2.10286">
        <ele>150</ele>
        <time>2011-04-15T09:04:08Z</time>
      </trkpt>
      <trkpt lat="48.55294" lon="2.10286">
        <ele>150</ele>
        <time>2011-04-15T09:04:09Z</time>
      </trkpt>
      <trkpt lat="48.55293" lon="2.10286">
        <ele>150</ele>
        <time>2011-04-15T09:04:10Z</time>
      </trkpt>
      <trkpt lat="48.5529" lon="2.10288">
        <ele>150</ele>
        <time>2011-04-15T09:04:11Z</time>
      </trkpt>
      <trkpt lat="48.55289" lon="2.10289">
        <ele>150</ele>
        <time>2011-04-15T09:04:12Z</time>
      </trkpt>
      <trkpt lat="48.55287" lon="2.1029">
        <ele>150</ele>
        <time>2011-04-15T09:04:13Z</time>
      </trkpt>
      <trkpt lat="48.55285" lon="2.1029">
        <ele>150</ele>
        <time>2011-04-15T09:04:14Z</time>
      </trkpt>
      <trkpt lat="48.55284" lon="2.10291">
        <ele>150</ele>
        <time>2011-04-15T09:04:15Z</time>
      </trkpt>
      <trkpt lat="48.55282" lon="2.10291">
        <ele>150</ele>
        <time>2011-04-15T09:04:17Z</time>
      </trkpt>
      <trkpt lat="48.5528" lon="2.10292">
        <ele>150</ele>
        <time>2011-04-15T09:04:18Z</time>
      </trkpt>
      <trkpt lat="48.55279" lon="2.10292">
        <ele>150</ele>
        <time>2011-04-15T09:04:20Z</time>
      </trkpt>
      <trkpt lat="48.55278" lon="2.10293">
        <ele>150</ele>
        <time>2011-04-15T09:04:26Z</time>
      </trkpt>
      <trkpt lat="48.55277" lon="2.10295">
        <ele>150</ele>
        <time>2011-04-15T09:04:29Z</time>
      </trkpt>
      <trkpt lat="48.55275" lon="2.10296">
        <ele>150</ele>
        <time>2011-04-15T09:04:36Z</time>
      </trkpt>
      <trkpt lat="48.55274" lon="2.10298">
        <ele>150</ele>
        <time>2011-04-15T09:04:42Z</time>
      </trkpt>
      <trkpt lat="48.55272" lon="2.10299">
        <ele>150</ele>
        <time>2011-04-15T09:04:45Z</time>
      </trkpt>
      <trkpt lat="48.55271" lon="2.10299">
        <ele>150</ele>
        <time>2011-04-15T09:04:46Z</time>
      </trkpt>
      <trkpt lat="48.55269" lon="2.10298">
        <ele>150</ele>
        <time>2011-04-15T09:04:47Z</time>
      </trkpt>
      <trkpt lat="48.55267" lon="2.10298">
        <ele>150</ele>
        <time>2011-04-15T09:04:48Z</time>
      </trkpt>
      <trkpt lat="48.55265" lon="2.10298">
        <ele>150</ele>
        <time>2011-04-15T09:04:49Z</time>
      </trkpt>
      <trkpt lat="48.55264" lon="2.10298">
        <ele>150</ele>
        <time>2011-04-15T09:04:50Z</time>
      </trkpt>
      <trkpt lat="48.55261" lon="2.10298">
        <ele>150</ele>
        <time>2011-04-15T09:04:52Z</time>
      </trkpt>
      <trkpt lat="48.5526" lon="2.10298">
        <ele>150</ele>
        <time>2011-04-15T09:04:55Z</time>
      </trkpt>
      <trkpt lat="48.55258" lon="2.10298">
        <ele>150</ele>
        <time>2011-04-15T09:04:58Z</time>
      </trkpt>
      <trkpt lat="48.55258" lon="2.103">
        <ele>153</ele>
        <time>2011-04-15T09:05:12Z</time>
      </trkpt>
      <trkpt lat="48.55256" lon="2.10301">
        <ele>153</ele>
        <time>2011-04-15T09:05:15Z</time>
      </trkpt>
      <trkpt lat="48.55257" lon="2.10301">
        <ele>156</ele>
        <time>2011-04-15T09:05:25Z</time>
      </trkpt>
      <trkpt lat="48.55259" lon="2.10302">
        <ele>156</ele>
        <time>2011-04-15T09:05:32Z</time>
      </trkpt>
      <trkpt lat="48.55258" lon="2.10304">
        <ele>157</ele>
        <time>2011-04-15T09:05:34Z</time>
      </trkpt>
      <trkpt lat="48.55258" lon="2.10306">
        <ele>158</ele>
        <time>2011-04-15T09:05:37Z</time>
      </trkpt>
      <trkpt lat="48.55259" lon="2.10305">
        <ele>160</ele>
        <time>2011-04-15T09:05:42Z</time>
      </trkpt>
      <trkpt lat="48.5526" lon="2.10303">
        <ele>160</ele>
        <time>2011-04-15T09:05:45Z</time>
      </trkpt>
      <trkpt lat="48.55258" lon="2.10303">
        <ele>160</ele>
        <time>2011-04-15T09:05:46Z</time>
      </trkpt>
      <trkpt lat="48.55257" lon="2.10302">
        <ele>160</ele>
        <time>2011-04-15T09:05:48Z</time>
      </trkpt>
      <trkpt lat="48.55255" lon="2.10302">
        <ele>160</ele>
        <time>2011-04-15T09:05:50Z</time>
      </trkpt>
      <trkpt lat="48.55254" lon="2.10302">
        <ele>160</ele>
        <time>2011-04-15T09:05:51Z</time>
      </trkpt>
      <trkpt lat="48.55252" lon="2.10301">
        <ele>160</ele>
        <time>2011-04-15T09:05:52Z</time>
      </trkpt>
      <trkpt lat="48.55251" lon="2.10301">
        <ele>160</ele>
        <time>2011-04-15T09:05:53Z</time>
      </trkpt>
      <trkpt lat="48.5525" lon="2.10301">
        <ele>160</ele>
        <time>2011-04-15T09:05:54Z</time>
      </trkpt>
      <trkpt lat="48.55248" lon="2.10301">
        <ele>159</ele>
        <time>2011-04-15T09:05:55Z</time>
      </trkpt>
      <trkpt lat="48.55247" lon="2.10301">
        <ele>159</ele>
        <time>2011-04-15T09:05:56Z</time>
      </trkpt>
      <trkpt lat="48.55246" lon="2.103">
        <ele>158</ele>
        <time>2011-04-15T09:05:57Z</time>
      </trkpt>
      <trkpt lat="48.55244" lon="2.103">
        <ele>158</ele>
        <time>2011-04-15T09:05:58Z</time>
      </trkpt>
      <trkpt lat="48.55242" lon="2.103">
        <ele>157</ele>
        <time>2011-04-15T09:05:59Z</time>
      </trkpt>
      <trkpt lat="48.55241" lon="2.103">
        <ele>157</ele>
        <time>2011-04-15T09:06:00Z</time>
      </trkpt>
      <trkpt lat="48.55239" lon="2.10299">
        <ele>157</ele>
        <time>2011-04-15T09:06:01Z</time>
      </trkpt>
      <trkpt lat="48.55237" lon="2.10299">
        <ele>156</ele>
        <time>2011-04-15T09:06:02Z</time>
      </trkpt>
      <trkpt lat="48.55235" lon="2.10298">
        <ele>155</ele>
        <time>2011-04-15T09:06:03Z</time>
      </trkpt>
      <trkpt lat="48.55233" lon="2.10298">
        <ele>155</ele>
        <time>2011-04-15T09:06:04Z</time>
      </trkpt>
      <trkpt lat="48.55232" lon="2.10295">
        <ele>154</ele>
        <time>2011-04-15T09:06:06Z</time>
      </trkpt>
      <trkpt lat="48.55231" lon="2.10293">
        <ele>153</ele>
        <time>2011-04-15T09:06:08Z</time>
      </trkpt>
      <trkpt lat="48.5523" lon="2.10291">
        <ele>153</ele>
        <time>2011-04-15T09:06:09Z</time>
      </trkpt>
      <trkpt lat="48.55228" lon="2.10291">
        <ele>153</ele>
        <time>2011-04-15T09:06:10Z</time>
      </trkpt>
      <trkpt lat="48.55226" lon="2.10292">
        <ele>152</ele>
        <time>2011-04-15T09:06:12Z</time>
      </trkpt>
      <trkpt lat="48.55225" lon="2.10292">
        <ele>152</ele>
        <time>2011-04-15T09:06:13Z</time>
      </trkpt>
      <trkpt lat="48.55223" lon="2.10292">
        <ele>152</ele>
        <time>2011-04-15T09:06:14Z</time>
      </trkpt>
      <trkpt lat="48.55222" lon="2.10293">
        <ele>152</ele>
        <time>2011-04-15T09:06:15Z</time>
      </trkpt>
      <trkpt lat="48.5522" lon="2.10292">
        <ele>152</ele>
        <time>2011-04-15T09:06:16Z</time>
      </trkpt>
      <trkpt lat="48.55219" lon="2.10292">
        <ele>152</ele>
        <time>2011-04-15T09:06:17Z</time>
      </trkpt>
      <trkpt lat="48.55217" lon="2.10293">
        <ele>152</ele>
        <time>2011-04-15T09:06:18Z</time>
      </trkpt>
      <trkpt lat="48.55215" lon="2.10293">
        <ele>152</ele>
        <time>2011-04-15T09:06:19Z</time>
      </trkpt>
      <trkpt lat="48.55213" lon="2.10293">
        <ele>152</ele>
        <time>2011-04-15T09:06:20Z</time>
      </trkpt>
      <trkpt lat="48.55211" lon="2.10293">
        <ele>152</ele>
        <time>2011-04-15T09:06:21Z</time>
      </trkpt>
      <trkpt lat="48.55209" lon="2.10293">
        <ele>152</ele>
        <time>2011-04-15T09:06:22Z</time>
      </trkpt>
      <trkpt lat="48.55207" lon="2.10293">
        <ele>152</ele>
        <time>2011-04-15T09:06:23Z</time>
      </trkpt>
      <trkpt lat="48.55205" lon="2.10293">
        <ele>152</ele>
        <time>2011-04-15T09:06:24Z</time>
      </trkpt>
      <trkpt lat="48.55203" lon="2.10294">
        <ele>152</ele>
        <time>2011-04-15T09:06:25Z</time>
      </trkpt>
      <trkpt lat="48.55202" lon="2.10294">
        <ele>152</ele>
        <time>2011-04-15T09:06:26Z</time>
      </trkpt>
      <trkpt lat="48.552" lon="2.10293">
        <ele>152</ele>
        <time>2011-04-15T09:06:27Z</time>
      </trkpt>
      <trkpt lat="48.55198" lon="2.10294">
        <ele>152</ele>
        <time>2011-04-15T09:06:29Z</time>
      </trkpt>
      <trkpt lat="48.55196" lon="2.10294">
        <ele>152</ele>
        <time>2011-04-15T09:06:33Z</time>
      </trkpt>
      <trkpt lat="48.55194" lon="2.10296">
        <ele>152</ele>
        <time>2011-04-15T09:06:34Z</time>
      </trkpt>
      <trkpt lat="48.55191" lon="2.10297">
        <ele>153</ele>
        <time>2011-04-15T09:06:35Z</time>
      </trkpt>
      <trkpt lat="48.55189" lon="2.10297">
        <ele>154</ele>
        <time>2011-04-15T09:06:36Z</time>
      </trkpt>
      <trkpt lat="48.55186" lon="2.10299">
        <ele>155</ele>
        <time>2011-04-15T09:06:37Z</time>
      </trkpt>
      <trkpt lat="48.55184" lon="2.103">
        <ele>155</ele>
        <time>2011-04-15T09:06:38Z</time>
      </trkpt>
      <trkpt lat="48.55182" lon="2.10301">
        <ele>156</ele>
        <time>2011-04-15T09:06:39Z</time>
      </trkpt>
      <trkpt lat="48.55179" lon="2.10303">
        <ele>157</ele>
        <time>2011-04-15T09:06:40Z</time>
      </trkpt>
      <trkpt lat="48.55177" lon="2.10304">
        <ele>157</ele>
        <time>2011-04-15T09:06:41Z</time>
      </trkpt>
      <trkpt lat="48.55175" lon="2.10304">
        <ele>157</ele>
        <time>2011-04-15T09:06:42Z</time>
      </trkpt>
      <trkpt lat="48.55174" lon="2.10305">
        <ele>157</ele>
        <time>2011-04-15T09:06:43Z</time>
      </trkpt>
      <trkpt lat="48.55171" lon="2.10305">
        <ele>157</ele>
        <time>2011-04-15T09:06:45Z</time>
      </trkpt>
      <trkpt lat="48.5517" lon="2.10306">
        <ele>157</ele>
        <time>2011-04-15T09:06:46Z</time>
      </trkpt>
      <trkpt lat="48.55168" lon="2.10308">
        <ele>157</ele>
        <time>2011-04-15T09:06:47Z</time>
      </trkpt>
      <trkpt lat="48.55167" lon="2.10309">
        <ele>157</ele>
        <time>2011-04-15T09:06:48Z</time>
      </trkpt>
      <trkpt lat="48.55165" lon="2.10309">
        <ele>157</ele>
        <time>2011-04-15T09:06:49Z</time>
      </trkpt>
      <trkpt lat="48.55164" lon="2.1031">
        <ele>157</ele>
        <time>2011-04-15T09:06:50Z</time>
      </trkpt>
      <trkpt lat="48.55162" lon="2.10314">
        <ele>157</ele>
        <time>2011-04-15T09:06:52Z</time>
      </trkpt>
      <trkpt lat="48.5516" lon="2.10315">
        <ele>157</ele>
        <time>2011-04-15T09:06:53Z</time>
      </trkpt>
      <trkpt lat="48.55158" lon="2.10318">
        <ele>157</ele>
        <time>2011-04-15T09:06:54Z</time>
      </trkpt>
      <trkpt lat="48.55156" lon="2.1032">
        <ele>157</ele>
        <time>2011-04-15T09:06:55Z</time>
      </trkpt>
      <trkpt lat="48.55154" lon="2.10322">
        <ele>157</ele>
        <time>2011-04-15T09:06:56Z</time>
      </trkpt>
      <trkpt lat="48.55152" lon="2.10324">
        <ele>157</ele>
        <time>2011-04-15T09:06:57Z</time>
      </trkpt>
      <trkpt lat="48.5515" lon="2.10325">
        <ele>157</ele>
        <time>2011-04-15T09:06:58Z</time>
      </trkpt>
      <trkpt lat="48.55148" lon="2.10327">
        <ele>157</ele>
        <time>2011-04-15T09:06:59Z</time>
      </trkpt>
      <trkpt lat="48.55146" lon="2.10328">
        <ele>157</ele>
        <time>2011-04-15T09:07:00Z</time>
      </trkpt>
      <trkpt lat="48.55144" lon="2.10329">
        <ele>157</ele>
        <time>2011-04-15T09:07:01Z</time>
      </trkpt>
      <trkpt lat="48.55142" lon="2.10331">
        <ele>156</ele>
        <time>2011-04-15T09:07:02Z</time>
      </trkpt>
      <trkpt lat="48.55141" lon="2.10332">
        <ele>156</ele>
        <time>2011-04-15T09:07:03Z</time>
      </trkpt>
      <trkpt lat="48.55139" lon="2.10335">
        <ele>155</ele>
        <time>2011-04-15T09:07:05Z</time>
      </trkpt>
      <trkpt lat="48.55137" lon="2.10338">
        <ele>155</ele>
        <time>2011-04-15T09:07:07Z</time>
      </trkpt>
      <trkpt lat="48.55135" lon="2.10339">
        <ele>155</ele>
        <time>2011-04-15T09:07:08Z</time>
      </trkpt>
      <trkpt lat="48.55134" lon="2.10341">
        <ele>155</ele>
        <time>2011-04-15T09:07:09Z</time>
      </trkpt>
      <trkpt lat="48.55132" lon="2.10341">
        <ele>155</ele>
        <time>2011-04-15T09:07:10Z</time>
      </trkpt>
      <trkpt lat="48.5513" lon="2.10344">
        <ele>155</ele>
        <time>2011-04-15T09:07:12Z</time>
      </trkpt>
      <trkpt lat="48.55129" lon="2.10345">
        <ele>155</ele>
        <time>2011-04-15T09:07:13Z</time>
      </trkpt>
      <trkpt lat="48.55126" lon="2.10348">
        <ele>155</ele>
        <time>2011-04-15T09:07:15Z</time>
      </trkpt>
      <trkpt lat="48.55125" lon="2.1035">
        <ele>155</ele>
        <time>2011-04-15T09:07:16Z</time>
      </trkpt>
      <trkpt lat="48.55124" lon="2.10352">
        <ele>155</ele>
        <time>2011-04-15T09:07:17Z</time>
      </trkpt>
      <trkpt lat="48.55123" lon="2.10354">
        <ele>155</ele>
        <time>2011-04-15T09:07:18Z</time>
      </trkpt>
      <trkpt lat="48.55121" lon="2.10356">
        <ele>155</ele>
        <time>2011-04-15T09:07:19Z</time>
      </trkpt>
      <trkpt lat="48.55119" lon="2.10358">
        <ele>155</ele>
        <time>2011-04-15T09:07:21Z</time>
      </trkpt>
      <trkpt lat="48.55117" lon="2.10361">
        <ele>155</ele>
        <time>2011-04-15T09:07:23Z</time>
      </trkpt>
      <trkpt lat="48.55115" lon="2.10362">
        <ele>155</ele>
        <time>2011-04-15T09:07:24Z</time>
      </trkpt>
      <trkpt lat="48.55114" lon="2.10363">
        <ele>155</ele>
        <time>2011-04-15T09:07:25Z</time>
      </trkpt>
      <trkpt lat="48.55113" lon="2.10365">
        <ele>155</ele>
        <time>2011-04-15T09:07:26Z</time>
      </trkpt>
      <trkpt lat="48.55111" lon="2.10366">
        <ele>155</ele>
        <time>2011-04-15T09:07:27Z</time>
      </trkpt>
      <trkpt lat="48.5511" lon="2.10367">
        <ele>155</ele>
        <time>2011-04-15T09:07:28Z</time>
      </trkpt>
      <trkpt lat="48.55108" lon="2.1037">
        <ele>155</ele>
        <time>2011-04-15T09:07:30Z</time>
      </trkpt>
      <trkpt lat="48.55107" lon="2.10371">
        <ele>155</ele>
        <time>2011-04-15T09:07:31Z</time>
      </trkpt>
      <trkpt lat="48.55106" lon="2.10372">
        <ele>155</ele>
        <time>2011-04-15T09:07:32Z</time>
      </trkpt>
      <trkpt lat="48.55104" lon="2.10374">
        <ele>155</ele>
        <time>2011-04-15T09:07:33Z</time>
      </trkpt>
      <trkpt lat="48.55103" lon="2.10375">
        <ele>155</ele>
        <time>2011-04-15T09:07:34Z</time>
      </trkpt>
      <trkpt lat="48.55101" lon="2.10377">
        <ele>155</ele>
        <time>2011-04-15T09:07:35Z</time>
      </trkpt>
      <trkpt lat="48.55099" lon="2.10378">
        <ele>154</ele>
        <time>2011-04-15T09:07:36Z</time>
      </trkpt>
      <trkpt lat="48.55098" lon="2.10379">
        <ele>154</ele>
        <time>2011-04-15T09:07:37Z</time>
      </trkpt>
      <trkpt lat="48.55097" lon="2.10381">
        <ele>154</ele>
        <time>2011-04-15T09:07:38Z</time>
      </trkpt>
      <trkpt lat="48.55096" lon="2.10382">
        <ele>153</ele>
        <time>2011-04-15T09:07:39Z</time>
      </trkpt>
      <trkpt lat="48.55095" lon="2.10384">
        <ele>153</ele>
        <time>2011-04-15T09:07:40Z</time>
      </trkpt>
      <trkpt lat="48.55093" lon="2.10386">
        <ele>153</ele>
        <time>2011-04-15T09:07:42Z</time>
      </trkpt>
      <trkpt lat="48.55091" lon="2.10389">
        <ele>153</ele>
        <time>2011-04-15T09:07:44Z</time>
      </trkpt>
      <trkpt lat="48.5509" lon="2.1039">
        <ele>153</ele>
        <time>2011-04-15T09:07:45Z</time>
      </trkpt>
      <trkpt lat="48.55089" lon="2.10392">
        <ele>153</ele>
        <time>2011-04-15T09:07:46Z</time>
      </trkpt>
      <trkpt lat="48.55086" lon="2.10395">
        <ele>153</ele>
        <time>2011-04-15T09:07:48Z</time>
      </trkpt>
      <trkpt lat="48.55085" lon="2.10397">
        <ele>153</ele>
        <time>2011-04-15T09:07:50Z</time>
      </trkpt>
      <trkpt lat="48.55083" lon="2.104">
        <ele>153</ele>
        <time>2011-04-15T09:07:52Z</time>
      </trkpt>
      <trkpt lat="48.55082" lon="2.10401">
        <ele>153</ele>
        <time>2011-04-15T09:07:53Z</time>
      </trkpt>
      <trkpt lat="48.5508" lon="2.10403">
        <ele>153</ele>
        <time>2011-04-15T09:07:54Z</time>
      </trkpt>
      <trkpt lat="48.55078" lon="2.10405">
        <ele>153</ele>
        <time>2011-04-15T09:07:55Z</time>
      </trkpt>
      <trkpt lat="48.55077" lon="2.10407">
        <ele>153</ele>
        <time>2011-04-15T09:07:56Z</time>
      </trkpt>
      <trkpt lat="48.55075" lon="2.10409">
        <ele>153</ele>
        <time>2011-04-15T09:07:57Z</time>
      </trkpt>
      <trkpt lat="48.55074" lon="2.1041">
        <ele>153</ele>
        <time>2011-04-15T09:07:58Z</time>
      </trkpt>
      <trkpt lat="48.55072" lon="2.10411">
        <ele>153</ele>
        <time>2011-04-15T09:07:59Z</time>
      </trkpt>
      <trkpt lat="48.55071" lon="2.10412">
        <ele>153</ele>
        <time>2011-04-15T09:08:00Z</time>
      </trkpt>
      <trkpt lat="48.55069" lon="2.10414">
        <ele>153</ele>
        <time>2011-04-15T09:08:02Z</time>
      </trkpt>
      <trkpt lat="48.55068" lon="2.10416">
        <ele>153</ele>
        <time>2011-04-15T09:08:03Z</time>
      </trkpt>
      <trkpt lat="48.55067" lon="2.10418">
        <ele>153</ele>
        <time>2011-04-15T09:08:04Z</time>
      </trkpt>
      <trkpt lat="48.55065" lon="2.10419">
        <ele>153</ele>
        <time>2011-04-15T09:08:05Z</time>
      </trkpt>
      <trkpt lat="48.55064" lon="2.10421">
        <ele>153</ele>
        <time>2011-04-15T09:08:06Z</time>
      </trkpt>
      <trkpt lat="48.55063" lon="2.10422">
        <ele>153</ele>
        <time>2011-04-15T09:08:07Z</time>
      </trkpt>
      <trkpt lat="48.5506" lon="2.10425">
        <ele>153</ele>
        <time>2011-04-15T09:08:09Z</time>
      </trkpt>
      <trkpt lat="48.55058" lon="2.10427">
        <ele>153</ele>
        <time>2011-04-15T09:08:11Z</time>
      </trkpt>
      <trkpt lat="48.55057" lon="2.10429">
        <ele>153</ele>
        <time>2011-04-15T09:08:12Z</time>
      </trkpt>
      <trkpt lat="48.55056" lon="2.10432">
        <ele>153</ele>
        <time>2011-04-15T09:08:14Z</time>
      </trkpt>
      <trkpt lat="48.55054" lon="2.10435">
        <ele>153</ele>
        <time>2011-04-15T09:08:16Z</time>
      </trkpt>
      <trkpt lat="48.55053" lon="2.10437">
        <ele>153</ele>
        <time>2011-04-15T09:08:18Z</time>
      </trkpt>
      <trkpt lat="48.55052" lon="2.10439">
        <ele>153</ele>
        <time>2011-04-15T09:08:19Z</time>
      </trkpt>
      <trkpt lat="48.55052" lon="2.1044">
        <ele>154</ele>
        <time>2011-04-15T09:08:20Z</time>
      </trkpt>
      <trkpt lat="48.55051" lon="2.10442">
        <ele>154</ele>
        <time>2011-04-15T09:08:21Z</time>
      </trkpt>
      <trkpt lat="48.5505" lon="2.10444">
        <ele>154</ele>
        <time>2011-04-15T09:08:22Z</time>
      </trkpt>
      <trkpt lat="48.5505" lon="2.10446">
        <ele>155</ele>
        <time>2011-04-15T09:08:23Z</time>
      </trkpt>
      <trkpt lat="48.5505" lon="2.10449">
        <ele>155</ele>
        <time>2011-04-15T09:08:24Z</time>
      </trkpt>
      <trkpt lat="48.55049" lon="2.10451">
        <ele>156</ele>
        <time>2011-04-15T09:08:25Z</time>
      </trkpt>
      <trkpt lat="48.55049" lon="2.10453">
        <ele>156</ele>
        <time>2011-04-15T09:08:26Z</time>
      </trkpt>
      <trkpt lat="48.55048" lon="2.10455">
        <ele>157</ele>
        <time>2011-04-15T09:08:27Z</time>
      </trkpt>
      <trkpt lat="48.55047" lon="2.10457">
        <ele>157</ele>
        <time>2011-04-15T09:08:28Z</time>
      </trkpt>
      <trkpt lat="48.55046" lon="2.10459">
        <ele>157</ele>
        <time>2011-04-15T09:08:29Z</time>
      </trkpt>
      <trkpt lat="48.55046" lon="2.10461">
        <ele>157</ele>
        <time>2011-04-15T09:08:30Z</time>
      </trkpt>
      <trkpt lat="48.55046" lon="2.10463">
        <ele>157</ele>
        <time>2011-04-15T09:08:31Z</time>
      </trkpt>
      <trkpt lat="48.55045" lon="2.10465">
        <ele>157</ele>
        <time>2011-04-15T09:08:32Z</time>
      </trkpt>
      <trkpt lat="48.55045" lon="2.10467">
        <ele>157</ele>
        <time>2011-04-15T09:08:33Z</time>
      </trkpt>
      <trkpt lat="48.55045" lon="2.10469">
        <ele>157</ele>
        <time>2011-04-15T09:08:34Z</time>
      </trkpt>
      <trkpt lat="48.55044" lon="2.10472">
        <ele>157</ele>
        <time>2011-04-15T09:08:35Z</time>
      </trkpt>
      <trkpt lat="48.55044" lon="2.10474">
        <ele>157</ele>
        <time>2011-04-15T09:08:36Z</time>
      </trkpt>
      <trkpt lat="48.55043" lon="2.10476">
        <ele>157</ele>
        <time>2011-04-15T09:08:37Z</time>
      </trkpt>
      <trkpt lat="48.55043" lon="2.10479">
        <ele>157</ele>
        <time>2011-04-15T09:08:38Z</time>
      </trkpt>
      <trkpt lat="48.55042" lon="2.10481">
        <ele>157</ele>
        <time>2011-04-15T09:08:39Z</time>
      </trkpt>
      <trkpt lat="48.55042" lon="2.10483">
        <ele>157</ele>
        <time>2011-04-15T09:08:40Z</time>
      </trkpt>
      <trkpt lat="48.55041" lon="2.10486">
        <ele>157</ele>
        <time>2011-04-15T09:08:41Z</time>
      </trkpt>
      <trkpt lat="48.55041" lon="2.10488">
        <ele>157</ele>
        <time>2011-04-15T09:08:42Z</time>
      </trkpt>
      <trkpt lat="48.55041" lon="2.1049">
        <ele>158</ele>
        <time>2011-04-15T09:08:43Z</time>
      </trkpt>
      <trkpt lat="48.55041" lon="2.10492">
        <ele>158</ele>
        <time>2011-04-15T09:08:44Z</time>
      </trkpt>
      <trkpt lat="48.55041" lon="2.10495">
        <ele>158</ele>
        <time>2011-04-15T09:08:45Z</time>
      </trkpt>
      <trkpt lat="48.5504" lon="2.10498">
        <ele>158</ele>
        <time>2011-04-15T09:08:46Z</time>
      </trkpt>
      <trkpt lat="48.5504" lon="2.105">
        <ele>158</ele>
        <time>2011-04-15T09:08:47Z</time>
      </trkpt>
      <trkpt lat="48.5504" lon="2.10503">
        <ele>158</ele>
        <time>2011-04-15T09:08:48Z</time>
      </trkpt>
      <trkpt lat="48.5504" lon="2.10506">
        <ele>158</ele>
        <time>2011-04-15T09:08:49Z</time>
      </trkpt>
      <trkpt lat="48.55039" lon="2.10508">
        <ele>158</ele>
        <time>2011-04-15T09:08:50Z</time>
      </trkpt>
      <trkpt lat="48.55039" lon="2.1051">
        <ele>158</ele>
        <time>2011-04-15T09:08:51Z</time>
      </trkpt>
      <trkpt lat="48.55039" lon="2.10513">
        <ele>158</ele>
        <time>2011-04-15T09:08:52Z</time>
      </trkpt>
      <trkpt lat="48.55039" lon="2.10515">
        <ele>158</ele>
        <time>2011-04-15T09:08:53Z</time>
      </trkpt>
      <trkpt lat="48.55038" lon="2.10518">
        <ele>157</ele>
        <time>2011-04-15T09:08:54Z</time>
      </trkpt>
      <trkpt lat="48.55037" lon="2.10521">
        <ele>157</ele>
        <time>2011-04-15T09:08:55Z</time>
      </trkpt>
      <trkpt lat="48.55037" lon="2.10523">
        <ele>157</ele>
        <time>2011-04-15T09:08:56Z</time>
      </trkpt>
      <trkpt lat="48.55036" lon="2.10525">
        <ele>156</ele>
        <time>2011-04-15T09:08:57Z</time>
      </trkpt>
      <trkpt lat="48.55036" lon="2.10528">
        <ele>156</ele>
        <time>2011-04-15T09:08:58Z</time>
      </trkpt>
      <trkpt lat="48.55035" lon="2.1053">
        <ele>156</ele>
        <time>2011-04-15T09:08:59Z</time>
      </trkpt>
      <trkpt lat="48.55036" lon="2.10532">
        <ele>156</ele>
        <time>2011-04-15T09:09:00Z</time>
      </trkpt>
      <trkpt lat="48.55035" lon="2.10534">
        <ele>156</ele>
        <time>2011-04-15T09:09:01Z</time>
      </trkpt>
      <trkpt lat="48.55035" lon="2.10537">
        <ele>156</ele>
        <time>2011-04-15T09:09:02Z</time>
      </trkpt>
      <trkpt lat="48.55035" lon="2.1054">
        <ele>156</ele>
        <time>2011-04-15T09:09:03Z</time>
      </trkpt>
      <trkpt lat="48.55036" lon="2.10542">
        <ele>156</ele>
        <time>2011-04-15T09:09:04Z</time>
      </trkpt>
      <trkpt lat="48.55036" lon="2.10545">
        <ele>156</ele>
        <time>2011-04-15T09:09:05Z</time>
      </trkpt>
      <trkpt lat="48.55037" lon="2.10548">
        <ele>156</ele>
        <time>2011-04-15T09:09:06Z</time>
      </trkpt>
      <trkpt lat="48.55037" lon="2.10551">
        <ele>156</ele>
        <time>2011-04-15T09:09:07Z</time>
      </trkpt>
      <trkpt lat="48.55038" lon="2.10553">
        <ele>156</ele>
        <time>2011-04-15T09:09:08Z</time>
      </trkpt>
      <trkpt lat="48.55038" lon="2.10555">
        <ele>156</ele>
        <time>2011-04-15T09:09:09Z</time>
      </trkpt>
      <trkpt lat="48.55038" lon="2.10557">
        <ele>156</ele>
        <time>2011-04-15T09:09:10Z</time>
      </trkpt>
      <trkpt lat="48.55038" lon="2.10559">
        <ele>156</ele>
        <time>2011-04-15T09:09:11Z</time>
      </trkpt>
      <trkpt lat="48.55038" lon="2.10561">
        <ele>155</ele>
        <time>2011-04-15T09:09:12Z</time>
      </trkpt>
      <trkpt lat="48.55038" lon="2.10564">
        <ele>155</ele>
        <time>2011-04-15T09:09:13Z</time>
      </trkpt>
      <trkpt lat="48.55038" lon="2.10567">
        <ele>155</ele>
        <time>2011-04-15T09:09:14Z</time>
      </trkpt>
      <trkpt lat="48.55039" lon="2.10568">
        <ele>155</ele>
        <time>2011-04-15T09:09:15Z</time>
      </trkpt>
      <trkpt lat="48.55039" lon="2.1057">
        <ele>155</ele>
        <time>2011-04-15T09:09:16Z</time>
      </trkpt>
      <trkpt lat="48.55039" lon="2.10572">
        <ele>155</ele>
        <time>2011-04-15T09:09:17Z</time>
      </trkpt>
      <trkpt lat="48.55041" lon="2.10575">
        <ele>155</ele>
        <time>2011-04-15T09:09:19Z</time>
      </trkpt>
      <trkpt lat="48.55042" lon="2.10577">
        <ele>155</ele>
        <time>2011-04-15T09:09:20Z</time>
      </trkpt>
      <trkpt lat="48.55043" lon="2.10579">
        <ele>155</ele>
        <time>2011-04-15T09:09:21Z</time>
      </trkpt>
      <trkpt lat="48.55044" lon="2.10581">
        <ele>154</ele>
        <time>2011-04-15T09:09:22Z</time>
      </trkpt>
      <trkpt lat="48.55045" lon="2.10583">
        <ele>154</ele>
        <time>2011-04-15T09:09:23Z</time>
      </trkpt>
      <trkpt lat="48.55046" lon="2.10585">
        <ele>154</ele>
        <time>2011-04-15T09:09:24Z</time>
      </trkpt>
      <trkpt lat="48.55047" lon="2.10588">
        <ele>154</ele>
        <time>2011-04-15T09:09:26Z</time>
      </trkpt>
      <trkpt lat="48.55049" lon="2.1059">
        <ele>154</ele>
        <time>2011-04-15T09:09:27Z</time>
      </trkpt>
      <trkpt lat="48.55049" lon="2.10592">
        <ele>153</ele>
        <time>2011-04-15T09:09:28Z</time>
      </trkpt>
      <trkpt lat="48.5505" lon="2.10593">
        <ele>153</ele>
        <time>2011-04-15T09:09:29Z</time>
      </trkpt>
      <trkpt lat="48.55051" lon="2.10595">
        <ele>152</ele>
        <time>2011-04-15T09:09:30Z</time>
      </trkpt>
      <trkpt lat="48.55051" lon="2.10597">
        <ele>152</ele>
        <time>2011-04-15T09:09:31Z</time>
      </trkpt>
      <trkpt lat="48.55052" lon="2.10599">
        <ele>152</ele>
        <time>2011-04-15T09:09:32Z</time>
      </trkpt>
      <trkpt lat="48.55053" lon="2.106">
        <ele>152</ele>
        <time>2011-04-15T09:09:33Z</time>
      </trkpt>
      <trkpt lat="48.55055" lon="2.10603">
        <ele>152</ele>
        <time>2011-04-15T09:09:35Z</time>
      </trkpt>
      <trkpt lat="48.55057" lon="2.10606">
        <ele>151</ele>
        <time>2011-04-15T09:09:37Z</time>
      </trkpt>
      <trkpt lat="48.55058" lon="2.10607">
        <ele>151</ele>
        <time>2011-04-15T09:09:38Z</time>
      </trkpt>
      <trkpt lat="48.55059" lon="2.10609">
        <ele>151</ele>
        <time>2011-04-15T09:09:39Z</time>
      </trkpt>
      <trkpt lat="48.5506" lon="2.10611">
        <ele>150</ele>
        <time>2011-04-15T09:09:40Z</time>
      </trkpt>
      <trkpt lat="48.55062" lon="2.10612">
        <ele>150</ele>
        <time>2011-04-15T09:09:41Z</time>
      </trkpt>
      <trkpt lat="48.55062" lon="2.10614">
        <ele>150</ele>
        <time>2011-04-15T09:09:42Z</time>
      </trkpt>
      <trkpt lat="48.55063" lon="2.10616">
        <ele>150</ele>
        <time>2011-04-15T09:09:43Z</time>
      </trkpt>
      <trkpt lat="48.55065" lon="2.10619">
        <ele>150</ele>
        <time>2011-04-15T09:09:45Z</time>
      </trkpt>
      <trkpt lat="48.55066" lon="2.1062">
        <ele>149</ele>
        <time>2011-04-15T09:09:46Z</time>
      </trkpt>
      <trkpt lat="48.55068" lon="2.10623">
        <ele>149</ele>
        <time>2011-04-15T09:09:47Z</time>
      </trkpt>
      <trkpt lat="48.55069" lon="2.10625">
        <ele>148</ele>
        <time>2011-04-15T09:09:48Z</time>
      </trkpt>
      <trkpt lat="48.55069" lon="2.10627">
        <ele>148</ele>
        <time>2011-04-15T09:09:49Z</time>
      </trkpt>
      <trkpt lat="48.5507" lon="2.1063">
        <ele>146</ele>
        <time>2011-04-15T09:09:51Z</time>
      </trkpt>
      <trkpt lat="48.55071" lon="2.10631">
        <ele>146</ele>
        <time>2011-04-15T09:09:52Z</time>
      </trkpt>
      <trkpt lat="48.55072" lon="2.10633">
        <ele>145</ele>
        <time>2011-04-15T09:09:53Z</time>
      </trkpt>
      <trkpt lat="48.55074" lon="2.10635">
        <ele>145</ele>
        <time>2011-04-15T09:09:55Z</time>
      </trkpt>
      <trkpt lat="48.55075" lon="2.10639">
        <ele>144</ele>
        <time>2011-04-15T09:09:57Z</time>
      </trkpt>
      <trkpt lat="48.55077" lon="2.10641">
        <ele>144</ele>
        <time>2011-04-15T09:09:58Z</time>
      </trkpt>
      <trkpt lat="48.55078" lon="2.10643">
        <ele>144</ele>
        <time>2011-04-15T09:09:59Z</time>
      </trkpt>
      <trkpt lat="48.55081" lon="2.10645">
        <ele>144</ele>
        <time>2011-04-15T09:10:01Z</time>
      </trkpt>
      <trkpt lat="48.55083" lon="2.10647">
        <ele>144</ele>
        <time>2011-04-15T09:10:02Z</time>
      </trkpt>
      <trkpt lat="48.55084" lon="2.10649">
        <ele>144</ele>
        <time>2011-04-15T09:10:04Z</time>
      </trkpt>
      <trkpt lat="48.55085" lon="2.10651">
        <ele>144</ele>
        <time>2011-04-15T09:10:05Z</time>
      </trkpt>
      <trkpt lat="48.55086" lon="2.10653">
        <ele>144</ele>
        <time>2011-04-15T09:10:07Z</time>
      </trkpt>
      <trkpt lat="48.55087" lon="2.10655">
        <ele>143</ele>
        <time>2011-04-15T09:10:10Z</time>
      </trkpt>
      <trkpt lat="48.55089" lon="2.10658">
        <ele>143</ele>
        <time>2011-04-15T09:10:14Z</time>
      </trkpt>
      <trkpt lat="48.5509" lon="2.10661">
        <ele>143</ele>
        <time>2011-04-15T09:10:16Z</time>
      </trkpt>
      <trkpt lat="48.55092" lon="2.10663">
        <ele>143</ele>
        <time>2011-04-15T09:10:18Z</time>
      </trkpt>
      <trkpt lat="48.55093" lon="2.10664">
        <ele>143</ele>
        <time>2011-04-15T09:10:19Z</time>
      </trkpt>
      <trkpt lat="48.55095" lon="2.10667">
        <ele>143</ele>
        <time>2011-04-15T09:10:21Z</time>
      </trkpt>
      <trkpt lat="48.55097" lon="2.10669">
        <ele>143</ele>
        <time>2011-04-15T09:10:23Z</time>
      </trkpt>
      <trkpt lat="48.55098" lon="2.10671">
        <ele>143</ele>
        <time>2011-04-15T09:10:24Z</time>
      </trkpt>
      <trkpt lat="48.55099" lon="2.10673">
        <ele>143</ele>
        <time>2011-04-15T09:10:25Z</time>
      </trkpt>
      <trkpt lat="48.55101" lon="2.10675">
        <ele>143</ele>
        <time>2011-04-15T09:10:26Z</time>
      </trkpt>
      <trkpt lat="48.55103" lon="2.10678">
        <ele>143</ele>
        <time>2011-04-15T09:10:27Z</time>
      </trkpt>
      <trkpt lat="48.55103" lon="2.1068">
        <ele>143</ele>
        <time>2011-04-15T09:10:28Z</time>
      </trkpt>
      <trkpt lat="48.55104" lon="2.10682">
        <ele>143</ele>
        <time>2011-04-15T09:10:29Z</time>
      </trkpt>
      <trkpt lat="48.55105" lon="2.10684">
        <ele>143</ele>
        <time>2011-04-15T09:10:30Z</time>
      </trkpt>
      <trkpt lat="48.55106" lon="2.10687">
        <ele>142</ele>
        <time>2011-04-15T09:10:31Z</time>
      </trkpt>
      <trkpt lat="48.55107" lon="2.10689">
        <ele>142</ele>
        <time>2011-04-15T09:10:32Z</time>
      </trkpt>
      <trkpt lat="48.55107" lon="2.10691">
        <ele>141</ele>
        <time>2011-04-15T09:10:33Z</time>
      </trkpt>
      <trkpt lat="48.55107" lon="2.10694">
        <ele>141</ele>
        <time>2011-04-15T09:10:34Z</time>
      </trkpt>
      <trkpt lat="48.55108" lon="2.10696">
        <ele>141</ele>
        <time>2011-04-15T09:10:35Z</time>
      </trkpt>
      <trkpt lat="48.55108" lon="2.10698">
        <ele>140</ele>
        <time>2011-04-15T09:10:36Z</time>
      </trkpt>
      <trkpt lat="48.55108" lon="2.107">
        <ele>140</ele>
        <time>2011-04-15T09:10:37Z</time>
      </trkpt>
      <trkpt lat="48.55109" lon="2.10703">
        <ele>140</ele>
        <time>2011-04-15T09:10:38Z</time>
      </trkpt>
      <trkpt lat="48.55109" lon="2.10705">
        <ele>139</ele>
        <time>2011-04-15T09:10:39Z</time>
      </trkpt>
      <trkpt lat="48.5511" lon="2.10707">
        <ele>139</ele>
        <time>2011-04-15T09:10:40Z</time>
      </trkpt>
      <trkpt lat="48.55111" lon="2.10709">
        <ele>139</ele>
        <time>2011-04-15T09:10:41Z</time>
      </trkpt>
      <trkpt lat="48.55111" lon="2.10711">
        <ele>139</ele>
        <time>2011-04-15T09:10:42Z</time>
      </trkpt>
      <trkpt lat="48.55112" lon="2.10713">
        <ele>139</ele>
        <time>2011-04-15T09:10:43Z</time>
      </trkpt>
      <trkpt lat="48.55112" lon="2.10715">
        <ele>139</ele>
        <time>2011-04-15T09:10:44Z</time>
      </trkpt>
      <trkpt lat="48.55112" lon="2.10717">
        <ele>139</ele>
        <time>2011-04-15T09:10:45Z</time>
      </trkpt>
      <trkpt lat="48.55113" lon="2.1072">
        <ele>139</ele>
        <time>2011-04-15T09:10:47Z</time>
      </trkpt>
      <trkpt lat="48.55113" lon="2.10722">
        <ele>139</ele>
        <time>2011-04-15T09:10:48Z</time>
      </trkpt>
      <trkpt lat="48.55113" lon="2.10725">
        <ele>139</ele>
        <time>2011-04-15T09:10:49Z</time>
      </trkpt>
      <trkpt lat="48.55112" lon="2.10728">
        <ele>139</ele>
        <time>2011-04-15T09:10:50Z</time>
      </trkpt>
      <trkpt lat="48.55111" lon="2.10732">
        <ele>139</ele>
        <time>2011-04-15T09:10:51Z</time>
      </trkpt>
      <trkpt lat="48.55111" lon="2.10734">
        <ele>139</ele>
        <time>2011-04-15T09:10:52Z</time>
      </trkpt>
      <trkpt lat="48.55112" lon="2.10737">
        <ele>139</ele>
        <time>2011-04-15T09:10:54Z</time>
      </trkpt>
      <trkpt lat="48.55112" lon="2.10739">
        <ele>139</ele>
        <time>2011-04-15T09:10:55Z</time>
      </trkpt>
      <trkpt lat="48.55111" lon="2.10741">
        <ele>139</ele>
        <time>2011-04-15T09:10:56Z</time>
      </trkpt>
      <trkpt lat="48.5511" lon="2.10744">
        <ele>139</ele>
        <time>2011-04-15T09:10:58Z</time>
      </trkpt>
      <trkpt lat="48.5511" lon="2.10746">
        <ele>139</ele>
        <time>2011-04-15T09:10:59Z</time>
      </trkpt>
      <trkpt lat="48.5511" lon="2.10747">
        <ele>139</ele>
        <time>2011-04-15T09:11:00Z</time>
      </trkpt>
      <trkpt lat="48.55109" lon="2.1075">
        <ele>139</ele>
        <time>2011-04-15T09:11:02Z</time>
      </trkpt>
      <trkpt lat="48.55108" lon="2.10752">
        <ele>139</ele>
        <time>2011-04-15T09:11:04Z</time>
      </trkpt>
      <trkpt lat="48.55107" lon="2.10754">
        <ele>139</ele>
        <time>2011-04-15T09:11:06Z</time>
      </trkpt>
      <trkpt lat="48.55107" lon="2.10757">
        <ele>139</ele>
        <time>2011-04-15T09:11:08Z</time>
      </trkpt>
      <trkpt lat="48.55106" lon="2.10759">
        <ele>139</ele>
        <time>2011-04-15T09:11:09Z</time>
      </trkpt>
      <trkpt lat="48.55106" lon="2.10761">
        <ele>139</ele>
        <time>2011-04-15T09:11:10Z</time>
      </trkpt>
      <trkpt lat="48.55105" lon="2.10762">
        <ele>139</ele>
        <time>2011-04-15T09:11:11Z</time>
      </trkpt>
      <trkpt lat="48.55105" lon="2.10764">
        <ele>139</ele>
        <time>2011-04-15T09:11:12Z</time>
      </trkpt>
      <trkpt lat="48.55103" lon="2.10767">
        <ele>139</ele>
        <time>2011-04-15T09:11:14Z</time>
      </trkpt>
      <trkpt lat="48.55102" lon="2.10769">
        <ele>139</ele>
        <time>2011-04-15T09:11:16Z</time>
      </trkpt>
      <trkpt lat="48.551" lon="2.10772">
        <ele>139</ele>
        <time>2011-04-15T09:11:18Z</time>
      </trkpt>
      <trkpt lat="48.55098" lon="2.10773">
        <ele>139</ele>
        <time>2011-04-15T09:11:19Z</time>
      </trkpt>
      <trkpt lat="48.55097" lon="2.10774">
        <ele>139</ele>
        <time>2011-04-15T09:11:20Z</time>
      </trkpt>
      <trkpt lat="48.55095" lon="2.10775">
        <ele>139</ele>
        <time>2011-04-15T09:11:21Z</time>
      </trkpt>
      <trkpt lat="48.55094" lon="2.10776">
        <ele>139</ele>
        <time>2011-04-15T09:11:22Z</time>
      </trkpt>
      <trkpt lat="48.55092" lon="2.10777">
        <ele>139</ele>
        <time>2011-04-15T09:11:23Z</time>
      </trkpt>
      <trkpt lat="48.55091" lon="2.10777">
        <ele>139</ele>
        <time>2011-04-15T09:11:24Z</time>
      </trkpt>
      <trkpt lat="48.5509" lon="2.10777">
        <ele>139</ele>
        <time>2011-04-15T09:11:25Z</time>
      </trkpt>
      <trkpt lat="48.55088" lon="2.10778">
        <ele>139</ele>
        <time>2011-04-15T09:11:27Z</time>
      </trkpt>
      <trkpt lat="48.55087" lon="2.10779">
        <ele>139</ele>
        <time>2011-04-15T09:11:29Z</time>
      </trkpt>
      <trkpt lat="48.55085" lon="2.1078">
        <ele>139</ele>
        <time>2011-04-15T09:11:31Z</time>
      </trkpt>
      <trkpt lat="48.55082" lon="2.10782">
        <ele>138</ele>
        <time>2011-04-15T09:11:33Z</time>
      </trkpt>
      <trkpt lat="48.55081" lon="2.10782">
        <ele>138</ele>
        <time>2011-04-15T09:11:34Z</time>
      </trkpt>
      <trkpt lat="48.55079" lon="2.10782">
        <ele>137</ele>
        <time>2011-04-15T09:11:35Z</time>
      </trkpt>
      <trkpt lat="48.55078" lon="2.10782">
        <ele>137</ele>
        <time>2011-04-15T09:11:36Z</time>
      </trkpt>
      <trkpt lat="48.55076" lon="2.10783">
        <ele>135</ele>
        <time>2011-04-15T09:11:38Z</time>
      </trkpt>
      <trkpt lat="48.55074" lon="2.10784">
        <ele>135</ele>
        <time>2011-04-15T09:11:39Z</time>
      </trkpt>
      <trkpt lat="48.55073" lon="2.10785">
        <ele>134</ele>
        <time>2011-04-15T09:11:40Z</time>
      </trkpt>
      <trkpt lat="48.55071" lon="2.10785">
        <ele>133</ele>
        <time>2011-04-15T09:11:42Z</time>
      </trkpt>
      <trkpt lat="48.5507" lon="2.10785">
        <ele>132</ele>
        <time>2011-04-15T09:11:43Z</time>
      </trkpt>
      <trkpt lat="48.55068" lon="2.10785">
        <ele>131</ele>
        <time>2011-04-15T09:11:45Z</time>
      </trkpt>
      <trkpt lat="48.55066" lon="2.10785">
        <ele>130</ele>
        <time>2011-04-15T09:11:47Z</time>
      </trkpt>
      <trkpt lat="48.55064" lon="2.10784">
        <ele>129</ele>
        <time>2011-04-15T09:11:48Z</time>
      </trkpt>
      <trkpt lat="48.55063" lon="2.10784">
        <ele>129</ele>
        <time>2011-04-15T09:11:49Z</time>
      </trkpt>
      <trkpt lat="48.55061" lon="2.10784">
        <ele>129</ele>
        <time>2011-04-15T09:11:50Z</time>
      </trkpt>
      <trkpt lat="48.5506" lon="2.10783">
        <ele>128</ele>
        <time>2011-04-15T09:11:51Z</time>
      </trkpt>
      <trkpt lat="48.55058" lon="2.10783">
        <ele>128</ele>
        <time>2011-04-15T09:11:52Z</time>
      </trkpt>
      <trkpt lat="48.55057" lon="2.10783">
        <ele>128</ele>
        <time>2011-04-15T09:11:53Z</time>
      </trkpt>
      <trkpt lat="48.55055" lon="2.10783">
        <ele>127</ele>
        <time>2011-04-15T09:11:54Z</time>
      </trkpt>
      <trkpt lat="48.55053" lon="2.10784">
        <ele>127</ele>
        <time>2011-04-15T09:11:55Z</time>
      </trkpt>
      <trkpt lat="48.55052" lon="2.10783">
        <ele>126</ele>
        <time>2011-04-15T09:11:56Z</time>
      </trkpt>
      <trkpt lat="48.55051" lon="2.10783">
        <ele>126</ele>
        <time>2011-04-15T09:11:57Z</time>
      </trkpt>
      <trkpt lat="48.55049" lon="2.10783">
        <ele>125</ele>
        <time>2011-04-15T09:11:58Z</time>
      </trkpt>
      <trkpt lat="48.55048" lon="2.10784">
        <ele>125</ele>
        <time>2011-04-15T09:11:59Z</time>
      </trkpt>
      <trkpt lat="48.55046" lon="2.10784">
        <ele>124</ele>
        <time>2011-04-15T09:12:00Z</time>
      </trkpt>
      <trkpt lat="48.55044" lon="2.10784">
        <ele>124</ele>
        <time>2011-04-15T09:12:02Z</time>
      </trkpt>
      <trkpt lat="48.55042" lon="2.10786">
        <ele>123</ele>
        <time>2011-04-15T09:12:04Z</time>
      </trkpt>
      <trkpt lat="48.5504" lon="2.10787">
        <ele>123</ele>
        <time>2011-04-15T09:12:05Z</time>
      </trkpt>
      <trkpt lat="48.55038" lon="2.10788">
        <ele>123</ele>
        <time>2011-04-15T09:12:06Z</time>
      </trkpt>
      <trkpt lat="48.55036" lon="2.10789">
        <ele>123</ele>
        <time>2011-04-15T09:12:07Z</time>
      </trkpt>
      <trkpt lat="48.55034" lon="2.10789">
        <ele>123</ele>
        <time>2011-04-15T09:12:08Z</time>
      </trkpt>
      <trkpt lat="48.55032" lon="2.1079">
        <ele>123</ele>
        <time>2011-04-15T09:12:09Z</time>
      </trkpt>
      <trkpt lat="48.5503" lon="2.10791">
        <ele>123</ele>
        <time>2011-04-15T09:12:10Z</time>
      </trkpt>
      <trkpt lat="48.55028" lon="2.10791">
        <ele>123</ele>
        <time>2011-04-15T09:12:11Z</time>
      </trkpt>
      <trkpt lat="48.55027" lon="2.10792">
        <ele>123</ele>
        <time>2011-04-15T09:12:12Z</time>
      </trkpt>
      <trkpt lat="48.55024" lon="2.10794">
        <ele>123</ele>
        <time>2011-04-15T09:12:14Z</time>
      </trkpt>
      <trkpt lat="48.55022" lon="2.10795">
        <ele>123</ele>
        <time>2011-04-15T09:12:15Z</time>
      </trkpt>
      <trkpt lat="48.5502" lon="2.10797">
        <ele>123</ele>
        <time>2011-04-15T09:12:16Z</time>
      </trkpt>
      <trkpt lat="48.55018" lon="2.10798">
        <ele>123</ele>
        <time>2011-04-15T09:12:17Z</time>
      </trkpt>
      <trkpt lat="48.55016" lon="2.10799">
        <ele>122</ele>
        <time>2011-04-15T09:12:19Z</time>
      </trkpt>
      <trkpt lat="48.55014" lon="2.10801">
        <ele>121</ele>
        <time>2011-04-15T09:12:21Z</time>
      </trkpt>
      <trkpt lat="48.55012" lon="2.10802">
        <ele>121</ele>
        <time>2011-04-15T09:12:22Z</time>
      </trkpt>
      <trkpt lat="48.55011" lon="2.10802">
        <ele>121</ele>
        <time>2011-04-15T09:12:23Z</time>
      </trkpt>
      <trkpt lat="48.55009" lon="2.10803">
        <ele>121</ele>
        <time>2011-04-15T09:12:24Z</time>
      </trkpt>
      <trkpt lat="48.55007" lon="2.10805">
        <ele>121</ele>
        <time>2011-04-15T09:12:25Z</time>
      </trkpt>
      <trkpt lat="48.55005" lon="2.10806">
        <ele>121</ele>
        <time>2011-04-15T09:12:26Z</time>
      </trkpt>
      <trkpt lat="48.55004" lon="2.10807">
        <ele>121</ele>
        <time>2011-04-15T09:12:27Z</time>
      </trkpt>
      <trkpt lat="48.55002" lon="2.10808">
        <ele>121</ele>
        <time>2011-04-15T09:12:28Z</time>
      </trkpt>
      <trkpt lat="48.55001" lon="2.10809">
        <ele>121</ele>
        <time>2011-04-15T09:12:29Z</time>
      </trkpt>
      <trkpt lat="48.54999" lon="2.1081">
        <ele>121</ele>
        <time>2011-04-15T09:12:30Z</time>
      </trkpt>
      <trkpt lat="48.54998" lon="2.10811">
        <ele>121</ele>
        <time>2011-04-15T09:12:31Z</time>
      </trkpt>
      <trkpt lat="48.54995" lon="2.10813">
        <ele>120</ele>
        <time>2011-04-15T09:12:33Z</time>
      </trkpt>
      <trkpt lat="48.54994" lon="2.10814">
        <ele>120</ele>
        <time>2011-04-15T09:12:34Z</time>
      </trkpt>
      <trkpt lat="48.54992" lon="2.10816">
        <ele>119</ele>
        <time>2011-04-15T09:12:35Z</time>
      </trkpt>
      <trkpt lat="48.5499" lon="2.10817">
        <ele>119</ele>
        <time>2011-04-15T09:12:36Z</time>
      </trkpt>
      <trkpt lat="48.54989" lon="2.10817">
        <ele>118</ele>
        <time>2011-04-15T09:12:37Z</time>
      </trkpt>
      <trkpt lat="48.54988" lon="2.10818">
        <ele>118</ele>
        <time>2011-04-15T09:12:38Z</time>
      </trkpt>
      <trkpt lat="48.54986" lon="2.10819">
        <ele>118</ele>
        <time>2011-04-15T09:12:39Z</time>
      </trkpt>
      <trkpt lat="48.54985" lon="2.1082">
        <ele>117</ele>
        <time>2011-04-15T09:12:40Z</time>
      </trkpt>
      <trkpt lat="48.54983" lon="2.10822">
        <ele>117</ele>
        <time>2011-04-15T09:12:41Z</time>
      </trkpt>
      <trkpt lat="48.54982" lon="2.10823">
        <ele>117</ele>
        <time>2011-04-15T09:12:42Z</time>
      </trkpt>
      <trkpt lat="48.5498" lon="2.10824">
        <ele>117</ele>
        <time>2011-04-15T09:12:43Z</time>
      </trkpt>
      <trkpt lat="48.54978" lon="2.10825">
        <ele>117</ele>
        <time>2011-04-15T09:12:44Z</time>
      </trkpt>
      <trkpt lat="48.54977" lon="2.10826">
        <ele>117</ele>
        <time>2011-04-15T09:12:45Z</time>
      </trkpt>
      <trkpt lat="48.54976" lon="2.10828">
        <ele>116</ele>
        <time>2011-04-15T09:12:47Z</time>
      </trkpt>
      <trkpt lat="48.54974" lon="2.1083">
        <ele>116</ele>
        <time>2011-04-15T09:12:48Z</time>
      </trkpt>
      <trkpt lat="48.54973" lon="2.10831">
        <ele>116</ele>
        <time>2011-04-15T09:12:49Z</time>
      </trkpt>
      <trkpt lat="48.54971" lon="2.10832">
        <ele>115</ele>
        <time>2011-04-15T09:12:50Z</time>
      </trkpt>
      <trkpt lat="48.5497" lon="2.10833">
        <ele>115</ele>
        <time>2011-04-15T09:12:51Z</time>
      </trkpt>
      <trkpt lat="48.54969" lon="2.10834">
        <ele>115</ele>
        <time>2011-04-15T09:12:52Z</time>
      </trkpt>
      <trkpt lat="48.54966" lon="2.10835">
        <ele>115</ele>
        <time>2011-04-15T09:12:53Z</time>
      </trkpt>
      <trkpt lat="48.54965" lon="2.10836">
        <ele>115</ele>
        <time>2011-04-15T09:12:54Z</time>
      </trkpt>
      <trkpt lat="48.54964" lon="2.10837">
        <ele>114</ele>
        <time>2011-04-15T09:12:55Z</time>
      </trkpt>
      <trkpt lat="48.54962" lon="2.10839">
        <ele>114</ele>
        <time>2011-04-15T09:12:57Z</time>
      </trkpt>
      <trkpt lat="48.54961" lon="2.1084">
        <ele>114</ele>
        <time>2011-04-15T09:12:58Z</time>
      </trkpt>
      <trkpt lat="48.54959" lon="2.10842">
        <ele>114</ele>
        <time>2011-04-15T09:13:00Z</time>
      </trkpt>
      <trkpt lat="48.54957" lon="2.10844">
        <ele>113</ele>
        <time>2011-04-15T09:13:02Z</time>
      </trkpt>
      <trkpt lat="48.54954" lon="2.10847">
        <ele>113</ele>
        <time>2011-04-15T09:13:04Z</time>
      </trkpt>
      <trkpt lat="48.54952" lon="2.10848">
        <ele>113</ele>
        <time>2011-04-15T09:13:05Z</time>
      </trkpt>
      <trkpt lat="48.54951" lon="2.1085">
        <ele>113</ele>
        <time>2011-04-15T09:13:07Z</time>
      </trkpt>
      <trkpt lat="48.5495" lon="2.10852">
        <ele>113</ele>
        <time>2011-04-15T09:13:08Z</time>
      </trkpt>
      <trkpt lat="48.54949" lon="2.10854">
        <ele>113</ele>
        <time>2011-04-15T09:13:09Z</time>
      </trkpt>
      <trkpt lat="48.54947" lon="2.10856">
        <ele>113</ele>
        <time>2011-04-15T09:13:10Z</time>
      </trkpt>
      <trkpt lat="48.54946" lon="2.10858">
        <ele>113</ele>
        <time>2011-04-15T09:13:11Z</time>
      </trkpt>
      <trkpt lat="48.54945" lon="2.1086">
        <ele>113</ele>
        <time>2011-04-15T09:13:12Z</time>
      </trkpt>
      <trkpt lat="48.54944" lon="2.10861">
        <ele>113</ele>
        <time>2011-04-15T09:13:13Z</time>
      </trkpt>
      <trkpt lat="48.54943" lon="2.10864">
        <ele>113</ele>
        <time>2011-04-15T09:13:14Z</time>
      </trkpt>
      <trkpt lat="48.54942" lon="2.10866">
        <ele>113</ele>
        <time>2011-04-15T09:13:15Z</time>
      </trkpt>
      <trkpt lat="48.54941" lon="2.10868">
        <ele>113</ele>
        <time>2011-04-15T09:13:16Z</time>
      </trkpt>
      <trkpt lat="48.54941" lon="2.1087">
        <ele>113</ele>
        <time>2011-04-15T09:13:17Z</time>
      </trkpt>
      <trkpt lat="48.5494" lon="2.10872">
        <ele>113</ele>
        <time>2011-04-15T09:13:18Z</time>
      </trkpt>
      <trkpt lat="48.54939" lon="2.10874">
        <ele>113</ele>
        <time>2011-04-15T09:13:19Z</time>
      </trkpt>
      <trkpt lat="48.54938" lon="2.10876">
        <ele>113</ele>
        <time>2011-04-15T09:13:20Z</time>
      </trkpt>
      <trkpt lat="48.54937" lon="2.10878">
        <ele>113</ele>
        <time>2011-04-15T09:13:21Z</time>
      </trkpt>
      <trkpt lat="48.54936" lon="2.1088">
        <ele>113</ele>
        <time>2011-04-15T09:13:22Z</time>
      </trkpt>
      <trkpt lat="48.54934" lon="2.10882">
        <ele>113</ele>
        <time>2011-04-15T09:13:23Z</time>
      </trkpt>
      <trkpt lat="48.54933" lon="2.10884">
        <ele>112</ele>
        <time>2011-04-15T09:13:24Z</time>
      </trkpt>
      <trkpt lat="48.54932" lon="2.10886">
        <ele>112</ele>
        <time>2011-04-15T09:13:25Z</time>
      </trkpt>
      <trkpt lat="48.5493" lon="2.10889">
        <ele>112</ele>
        <time>2011-04-15T09:13:26Z</time>
      </trkpt>
      <trkpt lat="48.54929" lon="2.10891">
        <ele>112</ele>
        <time>2011-04-15T09:13:27Z</time>
      </trkpt>
      <trkpt lat="48.54927" lon="2.10893">
        <ele>112</ele>
        <time>2011-04-15T09:13:28Z</time>
      </trkpt>
      <trkpt lat="48.54926" lon="2.10895">
        <ele>111</ele>
        <time>2011-04-15T09:13:29Z</time>
      </trkpt>
      <trkpt lat="48.54925" lon="2.10897">
        <ele>111</ele>
        <time>2011-04-15T09:13:30Z</time>
      </trkpt>
      <trkpt lat="48.54924" lon="2.10898">
        <ele>111</ele>
        <time>2011-04-15T09:13:31Z</time>
      </trkpt>
      <trkpt lat="48.54922" lon="2.109">
        <ele>111</ele>
        <time>2011-04-15T09:13:32Z</time>
      </trkpt>
      <trkpt lat="48.5492" lon="2.10902">
        <ele>111</ele>
        <time>2011-04-15T09:13:33Z</time>
      </trkpt>
      <trkpt lat="48.54918" lon="2.10904">
        <ele>111</ele>
        <time>2011-04-15T09:13:34Z</time>
      </trkpt>
      <trkpt lat="48.54916" lon="2.10906">
        <ele>111</ele>
        <time>2011-04-15T09:13:35Z</time>
      </trkpt>
      <trkpt lat="48.54914" lon="2.10908">
        <ele>111</ele>
        <time>2011-04-15T09:13:36Z</time>
      </trkpt>
      <trkpt lat="48.54913" lon="2.1091">
        <ele>111</ele>
        <time>2011-04-15T09:13:37Z</time>
      </trkpt>
      <trkpt lat="48.54912" lon="2.10913">
        <ele>111</ele>
        <time>2011-04-15T09:13:38Z</time>
      </trkpt>
      <trkpt lat="48.54912" lon="2.10915">
        <ele>111</ele>
        <time>2011-04-15T09:13:39Z</time>
      </trkpt>
      <trkpt lat="48.54911" lon="2.10917">
        <ele>111</ele>
        <time>2011-04-15T09:13:40Z</time>
      </trkpt>
      <trkpt lat="48.54909" lon="2.10919">
        <ele>111</ele>
        <time>2011-04-15T09:13:41Z</time>
      </trkpt>
      <trkpt lat="48.54908" lon="2.10922">
        <ele>111</ele>
        <time>2011-04-15T09:13:42Z</time>
      </trkpt>
      <trkpt lat="48.54907" lon="2.10925">
        <ele>111</ele>
        <time>2011-04-15T09:13:43Z</time>
      </trkpt>
      <trkpt lat="48.54906" lon="2.10928">
        <ele>111</ele>
        <time>2011-04-15T09:13:44Z</time>
      </trkpt>
      <trkpt lat="48.54906" lon="2.10931">
        <ele>111</ele>
        <time>2011-04-15T09:13:45Z</time>
      </trkpt>
      <trkpt lat="48.54905" lon="2.10934">
        <ele>111</ele>
        <time>2011-04-15T09:13:46Z</time>
      </trkpt>
      <trkpt lat="48.54905" lon="2.10936">
        <ele>111</ele>
        <time>2011-04-15T09:13:47Z</time>
      </trkpt>
      <trkpt lat="48.54905" lon="2.10938">
        <ele>111</ele>
        <time>2011-04-15T09:13:48Z</time>
      </trkpt>
      <trkpt lat="48.54904" lon="2.1094">
        <ele>111</ele>
        <time>2011-04-15T09:13:49Z</time>
      </trkpt>
      <trkpt lat="48.54904" lon="2.10942">
        <ele>111</ele>
        <time>2011-04-15T09:13:50Z</time>
      </trkpt>
      <trkpt lat="48.54903" lon="2.10945">
        <ele>110</ele>
        <time>2011-04-15T09:13:52Z</time>
      </trkpt>
      <trkpt lat="48.54901" lon="2.10948">
        <ele>110</ele>
        <time>2011-04-15T09:13:54Z</time>
      </trkpt>
      <trkpt lat="48.549" lon="2.10951">
        <ele>110</ele>
        <time>2011-04-15T09:13:55Z</time>
      </trkpt>
      <trkpt lat="48.549" lon="2.10953">
        <ele>110</ele>
        <time>2011-04-15T09:13:56Z</time>
      </trkpt>
      <trkpt lat="48.54899" lon="2.10954">
        <ele>110</ele>
        <time>2011-04-15T09:13:57Z</time>
      </trkpt>
      <trkpt lat="48.54898" lon="2.10956">
        <ele>110</ele>
        <time>2011-04-15T09:13:58Z</time>
      </trkpt>
      <trkpt lat="48.54895" lon="2.1096">
        <ele>110</ele>
        <time>2011-04-15T09:14:00Z</time>
      </trkpt>
      <trkpt lat="48.54894" lon="2.10961">
        <ele>109</ele>
        <time>2011-04-15T09:14:01Z</time>
      </trkpt>
      <trkpt lat="48.54892" lon="2.10963">
        <ele>109</ele>
        <time>2011-04-15T09:14:03Z</time>
      </trkpt>
      <trkpt lat="48.54893" lon="2.10965">
        <ele>108</ele>
        <time>2011-04-15T09:14:09Z</time>
      </trkpt>
      <trkpt lat="48.54893" lon="2.10967">
        <ele>108</ele>
        <time>2011-04-15T09:14:10Z</time>
      </trkpt>
      <trkpt lat="48.54891" lon="2.10969">
        <ele>108</ele>
        <time>2011-04-15T09:14:11Z</time>
      </trkpt>
      <trkpt lat="48.54889" lon="2.10971">
        <ele>108</ele>
        <time>2011-04-15T09:14:13Z</time>
      </trkpt>
      <trkpt lat="48.54887" lon="2.10973">
        <ele>107</ele>
        <time>2011-04-15T09:14:15Z</time>
      </trkpt>
      <trkpt lat="48.54886" lon="2.10975">
        <ele>107</ele>
        <time>2011-04-15T09:14:16Z</time>
      </trkpt>
      <trkpt lat="48.54885" lon="2.10978">
        <ele>107</ele>
        <time>2011-04-15T09:14:18Z</time>
      </trkpt>
      <trkpt lat="48.54884" lon="2.1098">
        <ele>107</ele>
        <time>2011-04-15T09:14:20Z</time>
      </trkpt>
      <trkpt lat="48.54884" lon="2.10984">
        <ele>107</ele>
        <time>2011-04-15T09:14:22Z</time>
      </trkpt>
      <trkpt lat="48.54885" lon="2.10984">
        <ele>106</ele>
        <time>2011-04-15T09:14:28Z</time>
      </trkpt>
      <trkpt lat="48.54887" lon="2.10984">
        <ele>106</ele>
        <time>2011-04-15T09:14:35Z</time>
      </trkpt>
      <trkpt lat="48.54888" lon="2.10983">
        <ele>106</ele>
        <time>2011-04-15T09:14:40Z</time>
      </trkpt>
      <trkpt lat="48.54889" lon="2.10983">
        <ele>106</ele>
        <time>2011-04-15T09:14:48Z</time>
      </trkpt>
      <trkpt lat="48.54888" lon="2.10985">
        <ele>106</ele>
        <time>2011-04-15T09:15:03Z</time>
      </trkpt>
      <trkpt lat="48.54889" lon="2.10983">
        <ele>106</ele>
        <time>2011-04-15T09:15:09Z</time>
      </trkpt>
      <trkpt lat="48.54889" lon="2.10982">
        <ele>105</ele>
        <time>2011-04-15T09:15:17Z</time>
      </trkpt>
      <trkpt lat="48.54889" lon="2.1098">
        <ele>104</ele>
        <time>2011-04-15T09:15:23Z</time>
      </trkpt>
      <trkpt lat="48.5489" lon="2.10981">
        <ele>103</ele>
        <time>2011-04-15T09:15:27Z</time>
      </trkpt>
      <trkpt lat="48.54892" lon="2.10982">
        <ele>103</ele>
        <time>2011-04-15T09:15:33Z</time>
      </trkpt>
      <trkpt lat="48.54892" lon="2.10984">
        <ele>103</ele>
        <time>2011-04-15T09:15:44Z</time>
      </trkpt>
      <trkpt lat="48.5489" lon="2.10987">
        <ele>103</ele>
        <time>2011-04-15T09:15:46Z</time>
      </trkpt>
      <trkpt lat="48.54889" lon="2.10988">
        <ele>103</ele>
        <time>2011-04-15T09:15:47Z</time>
      </trkpt>
      <trkpt lat="48.54887" lon="2.10988">
        <ele>103</ele>
        <time>2011-04-15T09:15:49Z</time>
      </trkpt>
      <trkpt lat="48.54886" lon="2.10988">
        <ele>103</ele>
        <time>2011-04-15T09:15:51Z</time>
      </trkpt>
      <trkpt lat="48.54884" lon="2.10989">
        <ele>103</ele>
        <time>2011-04-15T09:15:54Z</time>
      </trkpt>
      <trkpt lat="48.54882" lon="2.10989">
        <ele>103</ele>
        <time>2011-04-15T09:15:56Z</time>
      </trkpt>
      <trkpt lat="48.5488" lon="2.10989">
        <ele>103</ele>
        <time>2011-04-15T09:15:58Z</time>
      </trkpt>
      <trkpt lat="48.54879" lon="2.1099">
        <ele>103</ele>
        <time>2011-04-15T09:15:59Z</time>
      </trkpt>
      <trkpt lat="48.54877" lon="2.10993">
        <ele>103</ele>
        <time>2011-04-15T09:16:01Z</time>
      </trkpt>
      <trkpt lat="48.54876" lon="2.10995">
        <ele>103</ele>
        <time>2011-04-15T09:16:02Z</time>
      </trkpt>
      <trkpt lat="48.54875" lon="2.10997">
        <ele>103</ele>
        <time>2011-04-15T09:16:03Z</time>
      </trkpt>
      <trkpt lat="48.54874" lon="2.10999">
        <ele>103</ele>
        <time>2011-04-15T09:16:04Z</time>
      </trkpt>
      <trkpt lat="48.54873" lon="2.11">
        <ele>103</ele>
        <time>2011-04-15T09:16:05Z</time>
      </trkpt>
      <trkpt lat="48.54872" lon="2.11002">
        <ele>102</ele>
        <time>2011-04-15T09:16:06Z</time>
      </trkpt>
      <trkpt lat="48.5487" lon="2.11004">
        <ele>102</ele>
        <time>2011-04-15T09:16:08Z</time>
      </trkpt>
      <trkpt lat="48.54869" lon="2.11006">
        <ele>101</ele>
        <time>2011-04-15T09:16:10Z</time>
      </trkpt>
      <trkpt lat="48.54867" lon="2.11008">
        <ele>100</ele>
        <time>2011-04-15T09:16:12Z</time>
      </trkpt>
      <trkpt lat="48.54865" lon="2.11011">
        <ele>99</ele>
        <time>2011-04-15T09:16:14Z</time>
      </trkpt>
      <trkpt lat="48.54864" lon="2.11012">
        <ele>99</ele>
        <time>2011-04-15T09:16:15Z</time>
      </trkpt>
      <trkpt lat="48.54862" lon="2.11013">
        <ele>99</ele>
        <time>2011-04-15T09:16:16Z</time>
      </trkpt>
      <trkpt lat="48.54861" lon="2.11014">
        <ele>98</ele>
        <time>2011-04-15T09:16:17Z</time>
      </trkpt>
      <trkpt lat="48.5486" lon="2.11015">
        <ele>98</ele>
        <time>2011-04-15T09:16:18Z</time>
      </trkpt>
      <trkpt lat="48.54859" lon="2.11016">
        <ele>98</ele>
        <time>2011-04-15T09:16:19Z</time>
      </trkpt>
      <trkpt lat="48.54857" lon="2.11018">
        <ele>97</ele>
        <time>2011-04-15T09:16:20Z</time>
      </trkpt>
      <trkpt lat="48.54856" lon="2.11019">
        <ele>97</ele>
        <time>2011-04-15T09:16:21Z</time>
      </trkpt>
      <trkpt lat="48.54855" lon="2.11021">
        <ele>97</ele>
        <time>2011-04-15T09:16:22Z</time>
      </trkpt>
      <trkpt lat="48.54853" lon="2.11022">
        <ele>96</ele>
        <time>2011-04-15T09:16:23Z</time>
      </trkpt>
      <trkpt lat="48.54852" lon="2.11024">
        <ele>96</ele>
        <time>2011-04-15T09:16:24Z</time>
      </trkpt>
      <trkpt lat="48.54851" lon="2.11025">
        <ele>96</ele>
        <time>2011-04-15T09:16:25Z</time>
      </trkpt>
      <trkpt lat="48.5485" lon="2.11026">
        <ele>95</ele>
        <time>2011-04-15T09:16:26Z</time>
      </trkpt>
      <trkpt lat="48.54848" lon="2.11029">
        <ele>95</ele>
        <time>2011-04-15T09:16:28Z</time>
      </trkpt>
      <trkpt lat="48.54846" lon="2.1103">
        <ele>94</ele>
        <time>2011-04-15T09:16:29Z</time>
      </trkpt>
      <trkpt lat="48.54845" lon="2.11031">
        <ele>94</ele>
        <time>2011-04-15T09:16:30Z</time>
      </trkpt>
      <trkpt lat="48.54844" lon="2.11033">
        <ele>94</ele>
        <time>2011-04-15T09:16:31Z</time>
      </trkpt>
      <trkpt lat="48.54842" lon="2.11035">
        <ele>93</ele>
        <time>2011-04-15T09:16:33Z</time>
      </trkpt>
      <trkpt lat="48.5484" lon="2.11037">
        <ele>93</ele>
        <time>2011-04-15T09:16:34Z</time>
      </trkpt>
      <trkpt lat="48.54839" lon="2.11038">
        <ele>92</ele>
        <time>2011-04-15T09:16:35Z</time>
      </trkpt>
      <trkpt lat="48.54838" lon="2.1104">
        <ele>92</ele>
        <time>2011-04-15T09:16:36Z</time>
      </trkpt>
      <trkpt lat="48.54836" lon="2.11041">
        <ele>92</ele>
        <time>2011-04-15T09:16:37Z</time>
      </trkpt>
      <trkpt lat="48.54835" lon="2.11042">
        <ele>92</ele>
        <time>2011-04-15T09:16:38Z</time>
      </trkpt>
      <trkpt lat="48.54833" lon="2.11043">
        <ele>92</ele>
        <time>2011-04-15T09:16:39Z</time>
      </trkpt>
      <trkpt lat="48.54832" lon="2.11045">
        <ele>92</ele>
        <time>2011-04-15T09:16:40Z</time>
      </trkpt>
      <trkpt lat="48.5483" lon="2.11047">
        <ele>92</ele>
        <time>2011-04-15T09:16:41Z</time>
      </trkpt>
      <trkpt lat="48.54829" lon="2.11048">
        <ele>92</ele>
        <time>2011-04-15T09:16:42Z</time>
      </trkpt>
      <trkpt lat="48.54827" lon="2.11049">
        <ele>92</ele>
        <time>2011-04-15T09:16:43Z</time>
      </trkpt>
      <trkpt lat="48.54826" lon="2.1105">
        <ele>92</ele>
        <time>2011-04-15T09:16:44Z</time>
      </trkpt>
      <trkpt lat="48.54825" lon="2.11051">
        <ele>92</ele>
        <time>2011-04-15T09:16:45Z</time>
      </trkpt>
      <trkpt lat="48.54823" lon="2.11052">
        <ele>92</ele>
        <time>2011-04-15T09:16:46Z</time>
      </trkpt>
      <trkpt lat="48.54822" lon="2.11053">
        <ele>92</ele>
        <time>2011-04-15T09:16:47Z</time>
      </trkpt>
      <trkpt lat="48.54821" lon="2.11054">
        <ele>92</ele>
        <time>2011-04-15T09:16:48Z</time>
      </trkpt>
      <trkpt lat="48.54819" lon="2.11056">
        <ele>91</ele>
        <time>2011-04-15T09:16:49Z</time>
      </trkpt>
      <trkpt lat="48.54818" lon="2.11057">
        <ele>91</ele>
        <time>2011-04-15T09:16:50Z</time>
      </trkpt>
      <trkpt lat="48.54816" lon="2.11058">
        <ele>91</ele>
        <time>2011-04-15T09:16:51Z</time>
      </trkpt>
      <trkpt lat="48.54815" lon="2.1106">
        <ele>91</ele>
        <time>2011-04-15T09:16:52Z</time>
      </trkpt>
      <trkpt lat="48.54814" lon="2.11062">
        <ele>91</ele>
        <time>2011-04-15T09:16:53Z</time>
      </trkpt>
      <trkpt lat="48.54812" lon="2.11062">
        <ele>91</ele>
        <time>2011-04-15T09:16:54Z</time>
      </trkpt>
      <trkpt lat="48.54811" lon="2.11063">
        <ele>91</ele>
        <time>2011-04-15T09:16:55Z</time>
      </trkpt>
      <trkpt lat="48.5481" lon="2.11064">
        <ele>91</ele>
        <time>2011-04-15T09:16:56Z</time>
      </trkpt>
      <trkpt lat="48.54809" lon="2.11066">
        <ele>91</ele>
        <time>2011-04-15T09:16:57Z</time>
      </trkpt>
      <trkpt lat="48.54808" lon="2.11067">
        <ele>91</ele>
        <time>2011-04-15T09:16:58Z</time>
      </trkpt>
      <trkpt lat="48.54806" lon="2.1107">
        <ele>91</ele>
        <time>2011-04-15T09:17:00Z</time>
      </trkpt>
      <trkpt lat="48.54804" lon="2.11072">
        <ele>91</ele>
        <time>2011-04-15T09:17:01Z</time>
      </trkpt>
      <trkpt lat="48.54803" lon="2.11072">
        <ele>91</ele>
        <time>2011-04-15T09:17:02Z</time>
      </trkpt>
      <trkpt lat="48.54801" lon="2.11073">
        <ele>91</ele>
        <time>2011-04-15T09:17:03Z</time>
      </trkpt>
      <trkpt lat="48.548" lon="2.11073">
        <ele>91</ele>
        <time>2011-04-15T09:17:04Z</time>
      </trkpt>
      <trkpt lat="48.54799" lon="2.11074">
        <ele>91</ele>
        <time>2011-04-15T09:17:05Z</time>
      </trkpt>
      <trkpt lat="48.54798" lon="2.11074">
        <ele>91</ele>
        <time>2011-04-15T09:17:06Z</time>
      </trkpt>
      <trkpt lat="48.54796" lon="2.11075">
        <ele>91</ele>
        <time>2011-04-15T09:17:07Z</time>
      </trkpt>
      <trkpt lat="48.54795" lon="2.11076">
        <ele>91</ele>
        <time>2011-04-15T09:17:08Z</time>
      </trkpt>
      <trkpt lat="48.54793" lon="2.11076">
        <ele>90</ele>
        <time>2011-04-15T09:17:09Z</time>
      </trkpt>
      <trkpt lat="48.54792" lon="2.11077">
        <ele>90</ele>
        <time>2011-04-15T09:17:10Z</time>
      </trkpt>
      <trkpt lat="48.54791" lon="2.11078">
        <ele>90</ele>
        <time>2011-04-15T09:17:11Z</time>
      </trkpt>
      <trkpt lat="48.54789" lon="2.1108">
        <ele>90</ele>
        <time>2011-04-15T09:17:12Z</time>
      </trkpt>
      <trkpt lat="48.54788" lon="2.11082">
        <ele>90</ele>
        <time>2011-04-15T09:17:13Z</time>
      </trkpt>
      <trkpt lat="48.54786" lon="2.11083">
        <ele>90</ele>
        <time>2011-04-15T09:17:14Z</time>
      </trkpt>
      <trkpt lat="48.54785" lon="2.11084">
        <ele>90</ele>
        <time>2011-04-15T09:17:15Z</time>
      </trkpt>
      <trkpt lat="48.54783" lon="2.11085">
        <ele>90</ele>
        <time>2011-04-15T09:17:16Z</time>
      </trkpt>
      <trkpt lat="48.54782" lon="2.11086">
        <ele>89</ele>
        <time>2011-04-15T09:17:17Z</time>
      </trkpt>
      <trkpt lat="48.5478" lon="2.11087">
        <ele>89</ele>
        <time>2011-04-15T09:17:18Z</time>
      </trkpt>
      <trkpt lat="48.54779" lon="2.11088">
        <ele>89</ele>
        <time>2011-04-15T09:17:19Z</time>
      </trkpt>
      <trkpt lat="48.54778" lon="2.1109">
        <ele>89</ele>
        <time>2011-04-15T09:17:20Z</time>
      </trkpt>
      <trkpt lat="48.54776" lon="2.11091">
        <ele>89</ele>
        <time>2011-04-15T09:17:21Z</time>
      </trkpt>
      <trkpt lat="48.54775" lon="2.11092">
        <ele>88</ele>
        <time>2011-04-15T09:17:22Z</time>
      </trkpt>
      <trkpt lat="48.54773" lon="2.11094">
        <ele>88</ele>
        <time>2011-04-15T09:17:23Z</time>
      </trkpt>
      <trkpt lat="48.54772" lon="2.11095">
        <ele>88</ele>
        <time>2011-04-15T09:17:24Z</time>
      </trkpt>
      <trkpt lat="48.54771" lon="2.11096">
        <ele>88</ele>
        <time>2011-04-15T09:17:25Z</time>
      </trkpt>
      <trkpt lat="48.54769" lon="2.11097">
        <ele>88</ele>
        <time>2011-04-15T09:17:26Z</time>
      </trkpt>
      <trkpt lat="48.54768" lon="2.11098">
        <ele>88</ele>
        <time>2011-04-15T09:17:27Z</time>
      </trkpt>
      <trkpt lat="48.54767" lon="2.11099">
        <ele>88</ele>
        <time>2011-04-15T09:17:28Z</time>
      </trkpt>
      <trkpt lat="48.54765" lon="2.111">
        <ele>87</ele>
        <time>2011-04-15T09:17:29Z</time>
      </trkpt>
      <trkpt lat="48.54764" lon="2.11102">
        <ele>87</ele>
        <time>2011-04-15T09:17:30Z</time>
      </trkpt>
      <trkpt lat="48.54762" lon="2.11103">
        <ele>87</ele>
        <time>2011-04-15T09:17:31Z</time>
      </trkpt>
      <trkpt lat="48.54761" lon="2.11104">
        <ele>87</ele>
        <time>2011-04-15T09:17:32Z</time>
      </trkpt>
      <trkpt lat="48.5476" lon="2.11105">
        <ele>87</ele>
        <time>2011-04-15T09:17:33Z</time>
      </trkpt>
      <trkpt lat="48.54758" lon="2.11106">
        <ele>87</ele>
        <time>2011-04-15T09:17:34Z</time>
      </trkpt>
      <trkpt lat="48.54757" lon="2.11107">
        <ele>86</ele>
        <time>2011-04-15T09:17:35Z</time>
      </trkpt>
      <trkpt lat="48.54756" lon="2.11109">
        <ele>86</ele>
        <time>2011-04-15T09:17:36Z</time>
      </trkpt>
      <trkpt lat="48.54754" lon="2.1111">
        <ele>86</ele>
        <time>2011-04-15T09:17:37Z</time>
      </trkpt>
      <trkpt lat="48.54753" lon="2.1111">
        <ele>86</ele>
        <time>2011-04-15T09:17:38Z</time>
      </trkpt>
      <trkpt lat="48.54751" lon="2.11111">
        <ele>86</ele>
        <time>2011-04-15T09:17:39Z</time>
      </trkpt>
      <trkpt lat="48.5475" lon="2.11113">
        <ele>86</ele>
        <time>2011-04-15T09:17:40Z</time>
      </trkpt>
      <trkpt lat="48.54748" lon="2.11114">
        <ele>86</ele>
        <time>2011-04-15T09:17:41Z</time>
      </trkpt>
      <trkpt lat="48.54747" lon="2.11115">
        <ele>86</ele>
        <time>2011-04-15T09:17:42Z</time>
      </trkpt>
      <trkpt lat="48.54746" lon="2.11116">
        <ele>86</ele>
        <time>2011-04-15T09:17:43Z</time>
      </trkpt>
      <trkpt lat="48.54744" lon="2.11117">
        <ele>86</ele>
        <time>2011-04-15T09:17:44Z</time>
      </trkpt>
      <trkpt lat="48.54743" lon="2.11118">
        <ele>86</ele>
        <time>2011-04-15T09:17:45Z</time>
      </trkpt>
      <trkpt lat="48.54742" lon="2.11119">
        <ele>86</ele>
        <time>2011-04-15T09:17:46Z</time>
      </trkpt>
      <trkpt lat="48.5474" lon="2.1112">
        <ele>85</ele>
        <time>2011-04-15T09:17:47Z</time>
      </trkpt>
      <trkpt lat="48.54739" lon="2.11122">
        <ele>85</ele>
        <time>2011-04-15T09:17:48Z</time>
      </trkpt>
      <trkpt lat="48.54738" lon="2.11123">
        <ele>85</ele>
        <time>2011-04-15T09:17:49Z</time>
      </trkpt>
      <trkpt lat="48.54736" lon="2.11124">
        <ele>85</ele>
        <time>2011-04-15T09:17:50Z</time>
      </trkpt>
      <trkpt lat="48.54735" lon="2.11125">
        <ele>85</ele>
        <time>2011-04-15T09:17:51Z</time>
      </trkpt>
      <trkpt lat="48.54734" lon="2.11126">
        <ele>85</ele>
        <time>2011-04-15T09:17:52Z</time>
      </trkpt>
      <trkpt lat="48.54732" lon="2.11127">
        <ele>85</ele>
        <time>2011-04-15T09:17:53Z</time>
      </trkpt>
      <trkpt lat="48.54731" lon="2.11128">
        <ele>85</ele>
        <time>2011-04-15T09:17:54Z</time>
      </trkpt>
      <trkpt lat="48.5473" lon="2.11129">
        <ele>84</ele>
        <time>2011-04-15T09:17:55Z</time>
      </trkpt>
      <trkpt lat="48.54728" lon="2.1113">
        <ele>84</ele>
        <time>2011-04-15T09:17:56Z</time>
      </trkpt>
      <trkpt lat="48.54727" lon="2.11133">
        <ele>84</ele>
        <time>2011-04-15T09:17:58Z</time>
      </trkpt>
      <trkpt lat="48.54726" lon="2.11135">
        <ele>84</ele>
        <time>2011-04-15T09:18:00Z</time>
      </trkpt>
      <trkpt lat="48.54726" lon="2.11137">
        <ele>84</ele>
        <time>2011-04-15T09:18:02Z</time>
      </trkpt>
      <trkpt lat="48.54725" lon="2.11139">
        <ele>84</ele>
        <time>2011-04-15T09:18:03Z</time>
      </trkpt>
      <trkpt lat="48.54726" lon="2.11141">
        <ele>84</ele>
        <time>2011-04-15T09:18:05Z</time>
      </trkpt>
      <trkpt lat="48.54726" lon="2.11144">
        <ele>84</ele>
        <time>2011-04-15T09:18:07Z</time>
      </trkpt>
      <trkpt lat="48.54727" lon="2.11146">
        <ele>84</ele>
        <time>2011-04-15T09:18:08Z</time>
      </trkpt>
      <trkpt lat="48.54727" lon="2.11148">
        <ele>84</ele>
        <time>2011-04-15T09:18:09Z</time>
      </trkpt>
      <trkpt lat="48.54727" lon="2.1115">
        <ele>84</ele>
        <time>2011-04-15T09:18:10Z</time>
      </trkpt>
      <trkpt lat="48.54727" lon="2.11151">
        <ele>84</ele>
        <time>2011-04-15T09:18:11Z</time>
      </trkpt>
      <trkpt lat="48.54725" lon="2.11153">
        <ele>84</ele>
        <time>2011-04-15T09:18:13Z</time>
      </trkpt>
      <trkpt lat="48.54723" lon="2.11153">
        <ele>84</ele>
        <time>2011-04-15T09:18:14Z</time>
      </trkpt>
      <trkpt lat="48.54722" lon="2.11152">
        <ele>84</ele>
        <time>2011-04-15T09:18:15Z</time>
      </trkpt>
      <trkpt lat="48.54721" lon="2.11151">
        <ele>84</ele>
        <time>2011-04-15T09:18:16Z</time>
      </trkpt>
      <trkpt lat="48.54719" lon="2.1115">
        <ele>84</ele>
        <time>2011-04-15T09:18:17Z</time>
      </trkpt>
      <trkpt lat="48.54718" lon="2.11148">
        <ele>84</ele>
        <time>2011-04-15T09:18:18Z</time>
      </trkpt>
      <trkpt lat="48.54717" lon="2.11147">
        <ele>84</ele>
        <time>2011-04-15T09:18:19Z</time>
      </trkpt>
      <trkpt lat="48.54715" lon="2.11145">
        <ele>84</ele>
        <time>2011-04-15T09:18:20Z</time>
      </trkpt>
      <trkpt lat="48.54714" lon="2.11144">
        <ele>84</ele>
        <time>2011-04-15T09:18:21Z</time>
      </trkpt>
      <trkpt lat="48.54713" lon="2.11142">
        <ele>84</ele>
        <time>2011-04-15T09:18:22Z</time>
      </trkpt>
      <trkpt lat="48.54712" lon="2.11141">
        <ele>84</ele>
        <time>2011-04-15T09:18:23Z</time>
      </trkpt>
      <trkpt lat="48.5471" lon="2.11138">
        <ele>84</ele>
        <time>2011-04-15T09:18:25Z</time>
      </trkpt>
      <trkpt lat="48.54708" lon="2.11135">
        <ele>84</ele>
        <time>2011-04-15T09:18:27Z</time>
      </trkpt>
      <trkpt lat="48.54706" lon="2.11134">
        <ele>84</ele>
        <time>2011-04-15T09:18:28Z</time>
      </trkpt>
      <trkpt lat="48.54705" lon="2.11132">
        <ele>84</ele>
        <time>2011-04-15T09:18:29Z</time>
      </trkpt>
      <trkpt lat="48.54704" lon="2.11131">
        <ele>83</ele>
        <time>2011-04-15T09:18:30Z</time>
      </trkpt>
      <trkpt lat="48.54702" lon="2.11129">
        <ele>83</ele>
        <time>2011-04-15T09:18:31Z</time>
      </trkpt>
      <trkpt lat="48.54701" lon="2.11128">
        <ele>83</ele>
        <time>2011-04-15T09:18:32Z</time>
      </trkpt>
      <trkpt lat="48.547" lon="2.11127">
        <ele>83</ele>
        <time>2011-04-15T09:18:33Z</time>
      </trkpt>
      <trkpt lat="48.54699" lon="2.11125">
        <ele>83</ele>
        <time>2011-04-15T09:18:34Z</time>
      </trkpt>
      <trkpt lat="48.54698" lon="2.11124">
        <ele>83</ele>
        <time>2011-04-15T09:18:35Z</time>
      </trkpt>
      <trkpt lat="48.54696" lon="2.11122">
        <ele>83</ele>
        <time>2011-04-15T09:18:36Z</time>
      </trkpt>
      <trkpt lat="48.54695" lon="2.11121">
        <ele>83</ele>
        <time>2011-04-15T09:18:37Z</time>
      </trkpt>
      <trkpt lat="48.54694" lon="2.1112">
        <ele>83</ele>
        <time>2011-04-15T09:18:38Z</time>
      </trkpt>
      <trkpt lat="48.54692" lon="2.11119">
        <ele>83</ele>
        <time>2011-04-15T09:18:39Z</time>
      </trkpt>
      <trkpt lat="48.54691" lon="2.11117">
        <ele>83</ele>
        <time>2011-04-15T09:18:40Z</time>
      </trkpt>
      <trkpt lat="48.5469" lon="2.11117">
        <ele>83</ele>
        <time>2011-04-15T09:18:41Z</time>
      </trkpt>
      <trkpt lat="48.54688" lon="2.11116">
        <ele>83</ele>
        <time>2011-04-15T09:18:42Z</time>
      </trkpt>
      <trkpt lat="48.54687" lon="2.11116">
        <ele>83</ele>
        <time>2011-04-15T09:18:43Z</time>
      </trkpt>
      <trkpt lat="48.54685" lon="2.11116">
        <ele>83</ele>
        <time>2011-04-15T09:18:44Z</time>
      </trkpt>
      <trkpt lat="48.54684" lon="2.11115">
        <ele>83</ele>
        <time>2011-04-15T09:18:45Z</time>
      </trkpt>
      <trkpt lat="48.54682" lon="2.11115">
        <ele>83</ele>
        <time>2011-04-15T09:18:46Z</time>
      </trkpt>
      <trkpt lat="48.54681" lon="2.11115">
        <ele>83</ele>
        <time>2011-04-15T09:18:47Z</time>
      </trkpt>
      <trkpt lat="48.5468" lon="2.11115">
        <ele>83</ele>
        <time>2011-04-15T09:18:48Z</time>
      </trkpt>
      <trkpt lat="48.54678" lon="2.11116">
        <ele>82</ele>
        <time>2011-04-15T09:18:49Z</time>
      </trkpt>
      <trkpt lat="48.54677" lon="2.11117">
        <ele>82</ele>
        <time>2011-04-15T09:18:50Z</time>
      </trkpt>
      <trkpt lat="48.54676" lon="2.11118">
        <ele>82</ele>
        <time>2011-04-15T09:18:51Z</time>
      </trkpt>
      <trkpt lat="48.54674" lon="2.1112">
        <ele>82</ele>
        <time>2011-04-15T09:18:52Z</time>
      </trkpt>
      <trkpt lat="48.54673" lon="2.11121">
        <ele>82</ele>
        <time>2011-04-15T09:18:53Z</time>
      </trkpt>
      <trkpt lat="48.54671" lon="2.11121">
        <ele>82</ele>
        <time>2011-04-15T09:18:54Z</time>
      </trkpt>
      <trkpt lat="48.5467" lon="2.11122">
        <ele>81</ele>
        <time>2011-04-15T09:18:55Z</time>
      </trkpt>
      <trkpt lat="48.54669" lon="2.11122">
        <ele>81</ele>
        <time>2011-04-15T09:18:56Z</time>
      </trkpt>
      <trkpt lat="48.54667" lon="2.11123">
        <ele>81</ele>
        <time>2011-04-15T09:18:57Z</time>
      </trkpt>
      <trkpt lat="48.54666" lon="2.11123">
        <ele>81</ele>
        <time>2011-04-15T09:18:58Z</time>
      </trkpt>
      <trkpt lat="48.54664" lon="2.11124">
        <ele>81</ele>
        <time>2011-04-15T09:18:59Z</time>
      </trkpt>
      <trkpt lat="48.54663" lon="2.11124">
        <ele>80</ele>
        <time>2011-04-15T09:19:00Z</time>
      </trkpt>
      <trkpt lat="48.54661" lon="2.11124">
        <ele>80</ele>
        <time>2011-04-15T09:19:01Z</time>
      </trkpt>
      <trkpt lat="48.5466" lon="2.11125">
        <ele>80</ele>
        <time>2011-04-15T09:19:02Z</time>
      </trkpt>
      <trkpt lat="48.54658" lon="2.11125">
        <ele>80</ele>
        <time>2011-04-15T09:19:03Z</time>
      </trkpt>
      <trkpt lat="48.54657" lon="2.11125">
        <ele>80</ele>
        <time>2011-04-15T09:19:04Z</time>
      </trkpt>
      <trkpt lat="48.54656" lon="2.11125">
        <ele>80</ele>
        <time>2011-04-15T09:19:05Z</time>
      </trkpt>
      <trkpt lat="48.54654" lon="2.11125">
        <ele>80</ele>
        <time>2011-04-15T09:19:06Z</time>
      </trkpt>
      <trkpt lat="48.54653" lon="2.11126">
        <ele>80</ele>
        <time>2011-04-15T09:19:07Z</time>
      </trkpt>
      <trkpt lat="48.54652" lon="2.11126">
        <ele>80</ele>
        <time>2011-04-15T09:19:08Z</time>
      </trkpt>
      <trkpt lat="48.5465" lon="2.11127">
        <ele>80</ele>
        <time>2011-04-15T09:19:09Z</time>
      </trkpt>
      <trkpt lat="48.54649" lon="2.11128">
        <ele>79</ele>
        <time>2011-04-15T09:19:10Z</time>
      </trkpt>
      <trkpt lat="48.54648" lon="2.11129">
        <ele>79</ele>
        <time>2011-04-15T09:19:11Z</time>
      </trkpt>
      <trkpt lat="48.54647" lon="2.1113">
        <ele>79</ele>
        <time>2011-04-15T09:19:12Z</time>
      </trkpt>
      <trkpt lat="48.54645" lon="2.11131">
        <ele>79</ele>
        <time>2011-04-15T09:19:13Z</time>
      </trkpt>
      <trkpt lat="48.54644" lon="2.11133">
        <ele>79</ele>
        <time>2011-04-15T09:19:14Z</time>
      </trkpt>
      <trkpt lat="48.54643" lon="2.11134">
        <ele>79</ele>
        <time>2011-04-15T09:19:15Z</time>
      </trkpt>
      <trkpt lat="48.54641" lon="2.11136">
        <ele>79</ele>
        <time>2011-04-15T09:19:16Z</time>
      </trkpt>
      <trkpt lat="48.5464" lon="2.11137">
        <ele>78</ele>
        <time>2011-04-15T09:19:17Z</time>
      </trkpt>
      <trkpt lat="48.54639" lon="2.11139">
        <ele>78</ele>
        <time>2011-04-15T09:19:18Z</time>
      </trkpt>
      <trkpt lat="48.54637" lon="2.1114">
        <ele>78</ele>
        <time>2011-04-15T09:19:19Z</time>
      </trkpt>
      <trkpt lat="48.54636" lon="2.11142">
        <ele>78</ele>
        <time>2011-04-15T09:19:20Z</time>
      </trkpt>
      <trkpt lat="48.54635" lon="2.11144">
        <ele>78</ele>
        <time>2011-04-15T09:19:21Z</time>
      </trkpt>
      <trkpt lat="48.54634" lon="2.11146">
        <ele>78</ele>
        <time>2011-04-15T09:19:22Z</time>
      </trkpt>
      <trkpt lat="48.54633" lon="2.11147">
        <ele>78</ele>
        <time>2011-04-15T09:19:23Z</time>
      </trkpt>
      <trkpt lat="48.54632" lon="2.11149">
        <ele>78</ele>
        <time>2011-04-15T09:19:24Z</time>
      </trkpt>
      <trkpt lat="48.5463" lon="2.11151">
        <ele>78</ele>
        <time>2011-04-15T09:19:25Z</time>
      </trkpt>
      <trkpt lat="48.54629" lon="2.11152">
        <ele>78</ele>
        <time>2011-04-15T09:19:26Z</time>
      </trkpt>
      <trkpt lat="48.54628" lon="2.11153">
        <ele>78</ele>
        <time>2011-04-15T09:19:27Z</time>
      </trkpt>
      <trkpt lat="48.54627" lon="2.11154">
        <ele>77</ele>
        <time>2011-04-15T09:19:28Z</time>
      </trkpt>
      <trkpt lat="48.54626" lon="2.11156">
        <ele>77</ele>
        <time>2011-04-15T09:19:29Z</time>
      </trkpt>
      <trkpt lat="48.54624" lon="2.11157">
        <ele>77</ele>
        <time>2011-04-15T09:19:30Z</time>
      </trkpt>
      <trkpt lat="48.54623" lon="2.11159">
        <ele>77</ele>
        <time>2011-04-15T09:19:31Z</time>
      </trkpt>
      <trkpt lat="48.54622" lon="2.1116">
        <ele>77</ele>
        <time>2011-04-15T09:19:32Z</time>
      </trkpt>
      <trkpt lat="48.54621" lon="2.11161">
        <ele>76</ele>
        <time>2011-04-15T09:19:33Z</time>
      </trkpt>
      <trkpt lat="48.5462" lon="2.11162">
        <ele>76</ele>
        <time>2011-04-15T09:19:34Z</time>
      </trkpt>
      <trkpt lat="48.54618" lon="2.11164">
        <ele>76</ele>
        <time>2011-04-15T09:19:35Z</time>
      </trkpt>
      <trkpt lat="48.54617" lon="2.11165">
        <ele>76</ele>
        <time>2011-04-15T09:19:36Z</time>
      </trkpt>
      <trkpt lat="48.54615" lon="2.11167">
        <ele>76</ele>
        <time>2011-04-15T09:19:38Z</time>
      </trkpt>
      <trkpt lat="48.54613" lon="2.1117">
        <ele>76</ele>
        <time>2011-04-15T09:19:40Z</time>
      </trkpt>
      <trkpt lat="48.54612" lon="2.11171">
        <ele>76</ele>
        <time>2011-04-15T09:19:41Z</time>
      </trkpt>
      <trkpt lat="48.5461" lon="2.11172">
        <ele>76</ele>
        <time>2011-04-15T09:19:42Z</time>
      </trkpt>
      <trkpt lat="48.54609" lon="2.11173">
        <ele>75</ele>
        <time>2011-04-15T09:19:43Z</time>
      </trkpt>
      <trkpt lat="48.54608" lon="2.11175">
        <ele>75</ele>
        <time>2011-04-15T09:19:44Z</time>
      </trkpt>
      <trkpt lat="48.54607" lon="2.11176">
        <ele>75</ele>
        <time>2011-04-15T09:19:45Z</time>
      </trkpt>
      <trkpt lat="48.54605" lon="2.11178">
        <ele>74</ele>
        <time>2011-04-15T09:19:47Z</time>
      </trkpt>
      <trkpt lat="48.54603" lon="2.1118">
        <ele>74</ele>
        <time>2011-04-15T09:19:48Z</time>
      </trkpt>
      <trkpt lat="48.54602" lon="2.11181">
        <ele>74</ele>
        <time>2011-04-15T09:19:49Z</time>
      </trkpt>
      <trkpt lat="48.54601" lon="2.11182">
        <ele>73</ele>
        <time>2011-04-15T09:19:50Z</time>
      </trkpt>
      <trkpt lat="48.546" lon="2.11183">
        <ele>73</ele>
        <time>2011-04-15T09:19:51Z</time>
      </trkpt>
      <trkpt lat="48.54598" lon="2.11184">
        <ele>73</ele>
        <time>2011-04-15T09:19:52Z</time>
      </trkpt>
      <trkpt lat="48.54597" lon="2.11186">
        <ele>73</ele>
        <time>2011-04-15T09:19:53Z</time>
      </trkpt>
      <trkpt lat="48.54596" lon="2.11187">
        <ele>73</ele>
        <time>2011-04-15T09:19:54Z</time>
      </trkpt>
      <trkpt lat="48.54595" lon="2.11188">
        <ele>73</ele>
        <time>2011-04-15T09:19:55Z</time>
      </trkpt>
      <trkpt lat="48.54593" lon="2.1119">
        <ele>73</ele>
        <time>2011-04-15T09:19:57Z</time>
      </trkpt>
      <trkpt lat="48.54591" lon="2.11192">
        <ele>73</ele>
        <time>2011-04-15T09:19:59Z</time>
      </trkpt>
      <trkpt lat="48.54589" lon="2.11193">
        <ele>73</ele>
        <time>2011-04-15T09:20:03Z</time>
      </trkpt>
      <trkpt lat="48.54587" lon="2.11195">
        <ele>73</ele>
        <time>2011-04-15T09:20:04Z</time>
      </trkpt>
      <trkpt lat="48.54586" lon="2.11196">
        <ele>73</ele>
        <time>2011-04-15T09:20:05Z</time>
      </trkpt>
      <trkpt lat="48.54584" lon="2.11198">
        <ele>73</ele>
        <time>2011-04-15T09:20:06Z</time>
      </trkpt>
      <trkpt lat="48.54582" lon="2.112">
        <ele>73</ele>
        <time>2011-04-15T09:20:07Z</time>
      </trkpt>
      <trkpt lat="48.5458" lon="2.11201">
        <ele>73</ele>
        <time>2011-04-15T09:20:08Z</time>
      </trkpt>
      <trkpt lat="48.54579" lon="2.11203">
        <ele>73</ele>
        <time>2011-04-15T09:20:09Z</time>
      </trkpt>
      <trkpt lat="48.54578" lon="2.11204">
        <ele>73</ele>
        <time>2011-04-15T09:20:10Z</time>
      </trkpt>
      <trkpt lat="48.54577" lon="2.11205">
        <ele>73</ele>
        <time>2011-04-15T09:20:11Z</time>
      </trkpt>
      <trkpt lat="48.54575" lon="2.11208">
        <ele>73</ele>
        <time>2011-04-15T09:20:13Z</time>
      </trkpt>
      <trkpt lat="48.54574" lon="2.11211">
        <ele>73</ele>
        <time>2011-04-15T09:20:15Z</time>
      </trkpt>
      <trkpt lat="48.54573" lon="2.11212">
        <ele>73</ele>
        <time>2011-04-15T09:20:16Z</time>
      </trkpt>
      <trkpt lat="48.54572" lon="2.11214">
        <ele>73</ele>
        <time>2011-04-15T09:20:17Z</time>
      </trkpt>
      <trkpt lat="48.54572" lon="2.11216">
        <ele>73</ele>
        <time>2011-04-15T09:20:18Z</time>
      </trkpt>
      <trkpt lat="48.5457" lon="2.11219">
        <ele>72</ele>
        <time>2011-04-15T09:20:20Z</time>
      </trkpt>
      <trkpt lat="48.54571" lon="2.11221">
        <ele>72</ele>
        <time>2011-04-15T09:20:21Z</time>
      </trkpt>
      <trkpt lat="48.54571" lon="2.11222">
        <ele>72</ele>
        <time>2011-04-15T09:20:22Z</time>
      </trkpt>
      <trkpt lat="48.54571" lon="2.11225">
        <ele>72</ele>
        <time>2011-04-15T09:20:23Z</time>
      </trkpt>
      <trkpt lat="48.54571" lon="2.11227">
        <ele>71</ele>
        <time>2011-04-15T09:20:24Z</time>
      </trkpt>
      <trkpt lat="48.54572" lon="2.11229">
        <ele>71</ele>
        <time>2011-04-15T09:20:25Z</time>
      </trkpt>
      <trkpt lat="48.54572" lon="2.11231">
        <ele>71</ele>
        <time>2011-04-15T09:20:26Z</time>
      </trkpt>
      <trkpt lat="48.54572" lon="2.11233">
        <ele>71</ele>
        <time>2011-04-15T09:20:27Z</time>
      </trkpt>
      <trkpt lat="48.54572" lon="2.11235">
        <ele>71</ele>
        <time>2011-04-15T09:20:28Z</time>
      </trkpt>
      <trkpt lat="48.54572" lon="2.11237">
        <ele>71</ele>
        <time>2011-04-15T09:20:29Z</time>
      </trkpt>
      <trkpt lat="48.54572" lon="2.11239">
        <ele>71</ele>
        <time>2011-04-15T09:20:30Z</time>
      </trkpt>
      <trkpt lat="48.54572" lon="2.11241">
        <ele>70</ele>
        <time>2011-04-15T09:20:31Z</time>
      </trkpt>
      <trkpt lat="48.54573" lon="2.11244">
        <ele>70</ele>
        <time>2011-04-15T09:20:32Z</time>
      </trkpt>
      <trkpt lat="48.54573" lon="2.11246">
        <ele>70</ele>
        <time>2011-04-15T09:20:33Z</time>
      </trkpt>
      <trkpt lat="48.54573" lon="2.11248">
        <ele>70</ele>
        <time>2011-04-15T09:20:34Z</time>
      </trkpt>
      <trkpt lat="48.54573" lon="2.11251">
        <ele>70</ele>
        <time>2011-04-15T09:20:35Z</time>
      </trkpt>
      <trkpt lat="48.54573" lon="2.11253">
        <ele>70</ele>
        <time>2011-04-15T09:20:36Z</time>
      </trkpt>
      <trkpt lat="48.54573" lon="2.11255">
        <ele>70</ele>
        <time>2011-04-15T09:20:37Z</time>
      </trkpt>
      <trkpt lat="48.54573" lon="2.11257">
        <ele>69</ele>
        <time>2011-04-15T09:20:38Z</time>
      </trkpt>
      <trkpt lat="48.54573" lon="2.11259">
        <ele>69</ele>
        <time>2011-04-15T09:20:39Z</time>
      </trkpt>
      <trkpt lat="48.54573" lon="2.11261">
        <ele>69</ele>
        <time>2011-04-15T09:20:40Z</time>
      </trkpt>
      <trkpt lat="48.54573" lon="2.11263">
        <ele>69</ele>
        <time>2011-04-15T09:20:41Z</time>
      </trkpt>
      <trkpt lat="48.54573" lon="2.11266">
        <ele>69</ele>
        <time>2011-04-15T09:20:42Z</time>
      </trkpt>
      <trkpt lat="48.54573" lon="2.11268">
        <ele>69</ele>
        <time>2011-04-15T09:20:43Z</time>
      </trkpt>
      <trkpt lat="48.54573" lon="2.1127">
        <ele>69</ele>
        <time>2011-04-15T09:20:44Z</time>
      </trkpt>
      <trkpt lat="48.54573" lon="2.11272">
        <ele>69</ele>
        <time>2011-04-15T09:20:45Z</time>
      </trkpt>
      <trkpt lat="48.54572" lon="2.11274">
        <ele>68</ele>
        <time>2011-04-15T09:20:46Z</time>
      </trkpt>
      <trkpt lat="48.54572" lon="2.11277">
        <ele>68</ele>
        <time>2011-04-15T09:20:47Z</time>
      </trkpt>
      <trkpt lat="48.54572" lon="2.11279">
        <ele>68</ele>
        <time>2011-04-15T09:20:48Z</time>
      </trkpt>
      <trkpt lat="48.54572" lon="2.11281">
        <ele>68</ele>
        <time>2011-04-15T09:20:49Z</time>
      </trkpt>
      <trkpt lat="48.54571" lon="2.11283">
        <ele>68</ele>
        <time>2011-04-15T09:20:50Z</time>
      </trkpt>
      <trkpt lat="48.5457" lon="2.11285">
        <ele>68</ele>
        <time>2011-04-15T09:20:51Z</time>
      </trkpt>
      <trkpt lat="48.5457" lon="2.11287">
        <ele>68</ele>
        <time>2011-04-15T09:20:52Z</time>
      </trkpt>
      <trkpt lat="48.54569" lon="2.11289">
        <ele>68</ele>
        <time>2011-04-15T09:20:53Z</time>
      </trkpt>
      <trkpt lat="48.54568" lon="2.11291">
        <ele>67</ele>
        <time>2011-04-15T09:20:54Z</time>
      </trkpt>
      <trkpt lat="48.54567" lon="2.11293">
        <ele>67</ele>
        <time>2011-04-15T09:20:55Z</time>
      </trkpt>
      <trkpt lat="48.54566" lon="2.11295">
        <ele>67</ele>
        <time>2011-04-15T09:20:56Z</time>
      </trkpt>
      <trkpt lat="48.54565" lon="2.11296">
        <ele>67</ele>
        <time>2011-04-15T09:20:57Z</time>
      </trkpt>
      <trkpt lat="48.54564" lon="2.11298">
        <ele>67</ele>
        <time>2011-04-15T09:20:58Z</time>
      </trkpt>
      <trkpt lat="48.54563" lon="2.113">
        <ele>67</ele>
        <time>2011-04-15T09:20:59Z</time>
      </trkpt>
      <trkpt lat="48.54561" lon="2.11303">
        <ele>67</ele>
        <time>2011-04-15T09:21:01Z</time>
      </trkpt>
      <trkpt lat="48.54559" lon="2.11305">
        <ele>67</ele>
        <time>2011-04-15T09:21:03Z</time>
      </trkpt>
      <trkpt lat="48.54557" lon="2.11308">
        <ele>67</ele>
        <time>2011-04-15T09:21:05Z</time>
      </trkpt>
      <trkpt lat="48.54556" lon="2.1131">
        <ele>67</ele>
        <time>2011-04-15T09:21:06Z</time>
      </trkpt>
      <trkpt lat="48.54555" lon="2.11312">
        <ele>67</ele>
        <time>2011-04-15T09:21:07Z</time>
      </trkpt>
      <trkpt lat="48.54554" lon="2.11314">
        <ele>66</ele>
        <time>2011-04-15T09:21:08Z</time>
      </trkpt>
      <trkpt lat="48.54553" lon="2.11315">
        <ele>66</ele>
        <time>2011-04-15T09:21:09Z</time>
      </trkpt>
      <trkpt lat="48.54552" lon="2.11317">
        <ele>66</ele>
        <time>2011-04-15T09:21:10Z</time>
      </trkpt>
      <trkpt lat="48.54551" lon="2.11319">
        <ele>66</ele>
        <time>2011-04-15T09:21:11Z</time>
      </trkpt>
      <trkpt lat="48.5455" lon="2.11321">
        <ele>66</ele>
        <time>2011-04-15T09:21:12Z</time>
      </trkpt>
      <trkpt lat="48.54549" lon="2.11323">
        <ele>66</ele>
        <time>2011-04-15T09:21:13Z</time>
      </trkpt>
      <trkpt lat="48.54548" lon="2.11324">
        <ele>66</ele>
        <time>2011-04-15T09:21:14Z</time>
      </trkpt>
      <trkpt lat="48.54547" lon="2.11326">
        <ele>66</ele>
        <time>2011-04-15T09:21:15Z</time>
      </trkpt>
      <trkpt lat="48.54546" lon="2.11328">
        <ele>66</ele>
        <time>2011-04-15T09:21:16Z</time>
      </trkpt>
      <trkpt lat="48.54544" lon="2.1133">
        <ele>66</ele>
        <time>2011-04-15T09:21:17Z</time>
      </trkpt>
      <trkpt lat="48.54543" lon="2.11332">
        <ele>66</ele>
        <time>2011-04-15T09:21:18Z</time>
      </trkpt>
      <trkpt lat="48.54542" lon="2.11334">
        <ele>65</ele>
        <time>2011-04-15T09:21:19Z</time>
      </trkpt>
      <trkpt lat="48.54541" lon="2.11336">
        <ele>65</ele>
        <time>2011-04-15T09:21:20Z</time>
      </trkpt>
      <trkpt lat="48.5454" lon="2.11338">
        <ele>65</ele>
        <time>2011-04-15T09:21:21Z</time>
      </trkpt>
      <trkpt lat="48.54539" lon="2.1134">
        <ele>65</ele>
        <time>2011-04-15T09:21:22Z</time>
      </trkpt>
      <trkpt lat="48.54538" lon="2.11342">
        <ele>65</ele>
        <time>2011-04-15T09:21:23Z</time>
      </trkpt>
      <trkpt lat="48.54537" lon="2.11343">
        <ele>65</ele>
        <time>2011-04-15T09:21:24Z</time>
      </trkpt>
      <trkpt lat="48.54535" lon="2.11345">
        <ele>65</ele>
        <time>2011-04-15T09:21:25Z</time>
      </trkpt>
      <trkpt lat="48.54534" lon="2.11347">
        <ele>65</ele>
        <time>2011-04-15T09:21:26Z</time>
      </trkpt>
      <trkpt lat="48.54533" lon="2.11348">
        <ele>65</ele>
        <time>2011-04-15T09:21:27Z</time>
      </trkpt>
      <trkpt lat="48.54532" lon="2.1135">
        <ele>65</ele>
        <time>2011-04-15T09:21:28Z</time>
      </trkpt>
      <trkpt lat="48.54531" lon="2.11352">
        <ele>65</ele>
        <time>2011-04-15T09:21:29Z</time>
      </trkpt>
      <trkpt lat="48.5453" lon="2.11354">
        <ele>65</ele>
        <time>2011-04-15T09:21:30Z</time>
      </trkpt>
      <trkpt lat="48.54529" lon="2.11356">
        <ele>65</ele>
        <time>2011-04-15T09:21:31Z</time>
      </trkpt>
      <trkpt lat="48.54528" lon="2.11358">
        <ele>65</ele>
        <time>2011-04-15T09:21:32Z</time>
      </trkpt>
      <trkpt lat="48.54527" lon="2.11359">
        <ele>65</ele>
        <time>2011-04-15T09:21:33Z</time>
      </trkpt>
      <trkpt lat="48.54526" lon="2.11362">
        <ele>65</ele>
        <time>2011-04-15T09:21:34Z</time>
      </trkpt>
      <trkpt lat="48.54525" lon="2.11364">
        <ele>65</ele>
        <time>2011-04-15T09:21:35Z</time>
      </trkpt>
      <trkpt lat="48.54524" lon="2.11366">
        <ele>65</ele>
        <time>2011-04-15T09:21:36Z</time>
      </trkpt>
      <trkpt lat="48.54524" lon="2.11368">
        <ele>65</ele>
        <time>2011-04-15T09:21:37Z</time>
      </trkpt>
      <trkpt lat="48.54523" lon="2.11371">
        <ele>65</ele>
        <time>2011-04-15T09:21:38Z</time>
      </trkpt>
      <trkpt lat="48.54522" lon="2.11373">
        <ele>65</ele>
        <time>2011-04-15T09:21:39Z</time>
      </trkpt>
      <trkpt lat="48.54521" lon="2.11375">
        <ele>65</ele>
        <time>2011-04-15T09:21:40Z</time>
      </trkpt>
      <trkpt lat="48.54521" lon="2.11378">
        <ele>65</ele>
        <time>2011-04-15T09:21:41Z</time>
      </trkpt>
      <trkpt lat="48.5452" lon="2.1138">
        <ele>65</ele>
        <time>2011-04-15T09:21:42Z</time>
      </trkpt>
      <trkpt lat="48.5452" lon="2.11382">
        <ele>65</ele>
        <time>2011-04-15T09:21:43Z</time>
      </trkpt>
      <trkpt lat="48.54519" lon="2.11385">
        <ele>65</ele>
        <time>2011-04-15T09:21:44Z</time>
      </trkpt>
      <trkpt lat="48.54519" lon="2.11387">
        <ele>65</ele>
        <time>2011-04-15T09:21:45Z</time>
      </trkpt>
      <trkpt lat="48.54518" lon="2.1139">
        <ele>65</ele>
        <time>2011-04-15T09:21:46Z</time>
      </trkpt>
      <trkpt lat="48.54517" lon="2.11392">
        <ele>65</ele>
        <time>2011-04-15T09:21:47Z</time>
      </trkpt>
      <trkpt lat="48.54517" lon="2.11394">
        <ele>65</ele>
        <time>2011-04-15T09:21:48Z</time>
      </trkpt>
      <trkpt lat="48.54516" lon="2.11396">
        <ele>65</ele>
        <time>2011-04-15T09:21:49Z</time>
      </trkpt>
      <trkpt lat="48.54516" lon="2.11398">
        <ele>65</ele>
        <time>2011-04-15T09:21:50Z</time>
      </trkpt>
      <trkpt lat="48.54515" lon="2.114">
        <ele>65</ele>
        <time>2011-04-15T09:21:51Z</time>
      </trkpt>
      <trkpt lat="48.54515" lon="2.11402">
        <ele>65</ele>
        <time>2011-04-15T09:21:52Z</time>
      </trkpt>
      <trkpt lat="48.54514" lon="2.11405">
        <ele>65</ele>
        <time>2011-04-15T09:21:53Z</time>
      </trkpt>
      <trkpt lat="48.54514" lon="2.11407">
        <ele>65</ele>
        <time>2011-04-15T09:21:54Z</time>
      </trkpt>
      <trkpt lat="48.54513" lon="2.11409">
        <ele>65</ele>
        <time>2011-04-15T09:21:55Z</time>
      </trkpt>
      <trkpt lat="48.54513" lon="2.11412">
        <ele>65</ele>
        <time>2011-04-15T09:21:56Z</time>
      </trkpt>
      <trkpt lat="48.54513" lon="2.11414">
        <ele>65</ele>
        <time>2011-04-15T09:21:57Z</time>
      </trkpt>
      <trkpt lat="48.54513" lon="2.11417">
        <ele>65</ele>
        <time>2011-04-15T09:21:58Z</time>
      </trkpt>
      <trkpt lat="48.54512" lon="2.11419">
        <ele>65</ele>
        <time>2011-04-15T09:21:59Z</time>
      </trkpt>
      <trkpt lat="48.54512" lon="2.11421">
        <ele>65</ele>
        <time>2011-04-15T09:22:00Z</time>
      </trkpt>
      <trkpt lat="48.54511" lon="2.11423">
        <ele>65</ele>
        <time>2011-04-15T09:22:01Z</time>
      </trkpt>
      <trkpt lat="48.54511" lon="2.11426">
        <ele>65</ele>
        <time>2011-04-15T09:22:02Z</time>
      </trkpt>
      <trkpt lat="48.54511" lon="2.11428">
        <ele>65</ele>
        <time>2011-04-15T09:22:03Z</time>
      </trkpt>
      <trkpt lat="48.5451" lon="2.1143">
        <ele>65</ele>
        <time>2011-04-15T09:22:04Z</time>
      </trkpt>
      <trkpt lat="48.5451" lon="2.11433">
        <ele>65</ele>
        <time>2011-04-15T09:22:05Z</time>
      </trkpt>
      <trkpt lat="48.54509" lon="2.11435">
        <ele>65</ele>
        <time>2011-04-15T09:22:06Z</time>
      </trkpt>
      <trkpt lat="48.54509" lon="2.11437">
        <ele>65</ele>
        <time>2011-04-15T09:22:07Z</time>
      </trkpt>
      <trkpt lat="48.54508" lon="2.11439">
        <ele>65</ele>
        <time>2011-04-15T09:22:08Z</time>
      </trkpt>
      <trkpt lat="48.54508" lon="2.11441">
        <ele>65</ele>
        <time>2011-04-15T09:22:09Z</time>
      </trkpt>
      <trkpt lat="48.54507" lon="2.11444">
        <ele>65</ele>
        <time>2011-04-15T09:22:10Z</time>
      </trkpt>
      <trkpt lat="48.54507" lon="2.11446">
        <ele>65</ele>
        <time>2011-04-15T09:22:11Z</time>
      </trkpt>
      <trkpt lat="48.54506" lon="2.11448">
        <ele>65</ele>
        <time>2011-04-15T09:22:12Z</time>
      </trkpt>
      <trkpt lat="48.54505" lon="2.1145">
        <ele>65</ele>
        <time>2011-04-15T09:22:13Z</time>
      </trkpt>
      <trkpt lat="48.54505" lon="2.11452">
        <ele>65</ele>
        <time>2011-04-15T09:22:14Z</time>
      </trkpt>
      <trkpt lat="48.54504" lon="2.11454">
        <ele>65</ele>
        <time>2011-04-15T09:22:15Z</time>
      </trkpt>
      <trkpt lat="48.54503" lon="2.11456">
        <ele>65</ele>
        <time>2011-04-15T09:22:16Z</time>
      </trkpt>
      <trkpt lat="48.54502" lon="2.11458">
        <ele>65</ele>
        <time>2011-04-15T09:22:17Z</time>
      </trkpt>
      <trkpt lat="48.54502" lon="2.1146">
        <ele>65</ele>
        <time>2011-04-15T09:22:18Z</time>
      </trkpt>
      <trkpt lat="48.54501" lon="2.11463">
        <ele>65</ele>
        <time>2011-04-15T09:22:19Z</time>
      </trkpt>
      <trkpt lat="48.545" lon="2.11464">
        <ele>65</ele>
        <time>2011-04-15T09:22:20Z</time>
      </trkpt>
      <trkpt lat="48.54499" lon="2.11466">
        <ele>65</ele>
        <time>2011-04-15T09:22:21Z</time>
      </trkpt>
      <trkpt lat="48.54498" lon="2.11468">
        <ele>65</ele>
        <time>2011-04-15T09:22:22Z</time>
      </trkpt>
      <trkpt lat="48.54497" lon="2.1147">
        <ele>65</ele>
        <time>2011-04-15T09:22:23Z</time>
      </trkpt>
      <trkpt lat="48.54496" lon="2.11472">
        <ele>65</ele>
        <time>2011-04-15T09:22:24Z</time>
      </trkpt>
      <trkpt lat="48.54495" lon="2.11474">
        <ele>65</ele>
        <time>2011-04-15T09:22:25Z</time>
      </trkpt>
      <trkpt lat="48.54495" lon="2.11476">
        <ele>65</ele>
        <time>2011-04-15T09:22:26Z</time>
      </trkpt>
      <trkpt lat="48.54494" lon="2.11478">
        <ele>65</ele>
        <time>2011-04-15T09:22:27Z</time>
      </trkpt>
      <trkpt lat="48.54493" lon="2.1148">
        <ele>65</ele>
        <time>2011-04-15T09:22:28Z</time>
      </trkpt>
      <trkpt lat="48.54492" lon="2.11482">
        <ele>65</ele>
        <time>2011-04-15T09:22:29Z</time>
      </trkpt>
      <trkpt lat="48.54491" lon="2.11484">
        <ele>65</ele>
        <time>2011-04-15T09:22:30Z</time>
      </trkpt>
      <trkpt lat="48.5449" lon="2.11486">
        <ele>65</ele>
        <time>2011-04-15T09:22:31Z</time>
      </trkpt>
      <trkpt lat="48.54489" lon="2.11488">
        <ele>65</ele>
        <time>2011-04-15T09:22:32Z</time>
      </trkpt>
      <trkpt lat="48.54488" lon="2.1149">
        <ele>65</ele>
        <time>2011-04-15T09:22:33Z</time>
      </trkpt>
      <trkpt lat="48.54487" lon="2.11492">
        <ele>65</ele>
        <time>2011-04-15T09:22:34Z</time>
      </trkpt>
      <trkpt lat="48.54487" lon="2.11494">
        <ele>65</ele>
        <time>2011-04-15T09:22:35Z</time>
      </trkpt>
      <trkpt lat="48.54486" lon="2.11496">
        <ele>65</ele>
        <time>2011-04-15T09:22:36Z</time>
      </trkpt>
      <trkpt lat="48.54485" lon="2.11498">
        <ele>65</ele>
        <time>2011-04-15T09:22:37Z</time>
      </trkpt>
      <trkpt lat="48.54484" lon="2.115">
        <ele>65</ele>
        <time>2011-04-15T09:22:38Z</time>
      </trkpt>
      <trkpt lat="48.54483" lon="2.11502">
        <ele>65</ele>
        <time>2011-04-15T09:22:39Z</time>
      </trkpt>
      <trkpt lat="48.54482" lon="2.11506">
        <ele>65</ele>
        <time>2011-04-15T09:22:41Z</time>
      </trkpt>
      <trkpt lat="48.54481" lon="2.11508">
        <ele>65</ele>
        <time>2011-04-15T09:22:42Z</time>
      </trkpt>
      <trkpt lat="48.5448" lon="2.11509">
        <ele>65</ele>
        <time>2011-04-15T09:22:43Z</time>
      </trkpt>
      <trkpt lat="48.54479" lon="2.11511">
        <ele>65</ele>
        <time>2011-04-15T09:22:44Z</time>
      </trkpt>
      <trkpt lat="48.54478" lon="2.11513">
        <ele>64</ele>
        <time>2011-04-15T09:22:45Z</time>
      </trkpt>
      <trkpt lat="48.54477" lon="2.11514">
        <ele>64</ele>
        <time>2011-04-15T09:22:46Z</time>
      </trkpt>
      <trkpt lat="48.54475" lon="2.11516">
        <ele>64</ele>
        <time>2011-04-15T09:22:47Z</time>
      </trkpt>
      <trkpt lat="48.54474" lon="2.11518">
        <ele>64</ele>
        <time>2011-04-15T09:22:48Z</time>
      </trkpt>
      <trkpt lat="48.54473" lon="2.11519">
        <ele>64</ele>
        <time>2011-04-15T09:22:49Z</time>
      </trkpt>
      <trkpt lat="48.54472" lon="2.11521">
        <ele>64</ele>
        <time>2011-04-15T09:22:50Z</time>
      </trkpt>
      <trkpt lat="48.5447" lon="2.11524">
        <ele>64</ele>
        <time>2011-04-15T09:22:52Z</time>
      </trkpt>
      <trkpt lat="48.54468" lon="2.11525">
        <ele>64</ele>
        <time>2011-04-15T09:22:53Z</time>
      </trkpt>
      <trkpt lat="48.54467" lon="2.11526">
        <ele>64</ele>
        <time>2011-04-15T09:22:54Z</time>
      </trkpt>
      <trkpt lat="48.54466" lon="2.11528">
        <ele>64</ele>
        <time>2011-04-15T09:22:55Z</time>
      </trkpt>
      <trkpt lat="48.54465" lon="2.11529">
        <ele>64</ele>
        <time>2011-04-15T09:22:56Z</time>
      </trkpt>
      <trkpt lat="48.54463" lon="2.11529">
        <ele>64</ele>
        <time>2011-04-15T09:22:57Z</time>
      </trkpt>
      <trkpt lat="48.54462" lon="2.11531">
        <ele>64</ele>
        <time>2011-04-15T09:22:58Z</time>
      </trkpt>
      <trkpt lat="48.54461" lon="2.11532">
        <ele>64</ele>
        <time>2011-04-15T09:22:59Z</time>
      </trkpt>
      <trkpt lat="48.5446" lon="2.11533">
        <ele>64</ele>
        <time>2011-04-15T09:23:00Z</time>
      </trkpt>
      <trkpt lat="48.54458" lon="2.11535">
        <ele>64</ele>
        <time>2011-04-15T09:23:01Z</time>
      </trkpt>
      <trkpt lat="48.54457" lon="2.11536">
        <ele>64</ele>
        <time>2011-04-15T09:23:02Z</time>
      </trkpt>
      <trkpt lat="48.54456" lon="2.11538">
        <ele>64</ele>
        <time>2011-04-15T09:23:03Z</time>
      </trkpt>
      <trkpt lat="48.54455" lon="2.11539">
        <ele>64</ele>
        <time>2011-04-15T09:23:04Z</time>
      </trkpt>
      <trkpt lat="48.54453" lon="2.11541">
        <ele>64</ele>
        <time>2011-04-15T09:23:05Z</time>
      </trkpt>
      <trkpt lat="48.54451" lon="2.11542">
        <ele>64</ele>
        <time>2011-04-15T09:23:06Z</time>
      </trkpt>
      <trkpt lat="48.54449" lon="2.11543">
        <ele>64</ele>
        <time>2011-04-15T09:23:07Z</time>
      </trkpt>
      <trkpt lat="48.54448" lon="2.11545">
        <ele>64</ele>
        <time>2011-04-15T09:23:08Z</time>
      </trkpt>
      <trkpt lat="48.54446" lon="2.11546">
        <ele>64</ele>
        <time>2011-04-15T09:23:09Z</time>
      </trkpt>
      <trkpt lat="48.54445" lon="2.11547">
        <ele>64</ele>
        <time>2011-04-15T09:23:10Z</time>
      </trkpt>
      <trkpt lat="48.54443" lon="2.11548">
        <ele>64</ele>
        <time>2011-04-15T09:23:11Z</time>
      </trkpt>
      <trkpt lat="48.54442" lon="2.11548">
        <ele>64</ele>
        <time>2011-04-15T09:23:12Z</time>
      </trkpt>
      <trkpt lat="48.5444" lon="2.1155">
        <ele>64</ele>
        <time>2011-04-15T09:23:13Z</time>
      </trkpt>
      <trkpt lat="48.54439" lon="2.1155">
        <ele>64</ele>
        <time>2011-04-15T09:23:14Z</time>
      </trkpt>
      <trkpt lat="48.54437" lon="2.11551">
        <ele>64</ele>
        <time>2011-04-15T09:23:15Z</time>
      </trkpt>
      <trkpt lat="48.54436" lon="2.11552">
        <ele>64</ele>
        <time>2011-04-15T09:23:16Z</time>
      </trkpt>
      <trkpt lat="48.54435" lon="2.11553">
        <ele>64</ele>
        <time>2011-04-15T09:23:17Z</time>
      </trkpt>
      <trkpt lat="48.54433" lon="2.11555">
        <ele>64</ele>
        <time>2011-04-15T09:23:18Z</time>
      </trkpt>
      <trkpt lat="48.54431" lon="2.11557">
        <ele>64</ele>
        <time>2011-04-15T09:23:19Z</time>
      </trkpt>
      <trkpt lat="48.54429" lon="2.11558">
        <ele>64</ele>
        <time>2011-04-15T09:23:20Z</time>
      </trkpt>
      <trkpt lat="48.54427" lon="2.1156">
        <ele>64</ele>
        <time>2011-04-15T09:23:21Z</time>
      </trkpt>
      <trkpt lat="48.54425" lon="2.11561">
        <ele>64</ele>
        <time>2011-04-15T09:23:22Z</time>
      </trkpt>
      <trkpt lat="48.54423" lon="2.11562">
        <ele>64</ele>
        <time>2011-04-15T09:23:23Z</time>
      </trkpt>
      <trkpt lat="48.54421" lon="2.11563">
        <ele>64</ele>
        <time>2011-04-15T09:23:24Z</time>
      </trkpt>
      <trkpt lat="48.54419" lon="2.11564">
        <ele>64</ele>
        <time>2011-04-15T09:23:25Z</time>
      </trkpt>
      <trkpt lat="48.54417" lon="2.11565">
        <ele>64</ele>
        <time>2011-04-15T09:23:26Z</time>
      </trkpt>
      <trkpt lat="48.54415" lon="2.11566">
        <ele>64</ele>
        <time>2011-04-15T09:23:27Z</time>
      </trkpt>
      <trkpt lat="48.54413" lon="2.11567">
        <ele>64</ele>
        <time>2011-04-15T09:23:28Z</time>
      </trkpt>
      <trkpt lat="48.54411" lon="2.11569">
        <ele>64</ele>
        <time>2011-04-15T09:23:29Z</time>
      </trkpt>
      <trkpt lat="48.54409" lon="2.1157">
        <ele>64</ele>
        <time>2011-04-15T09:23:30Z</time>
      </trkpt>
      <trkpt lat="48.54407" lon="2.11571">
        <ele>64</ele>
        <time>2011-04-15T09:23:31Z</time>
      </trkpt>
      <trkpt lat="48.54404" lon="2.11572">
        <ele>64</ele>
        <time>2011-04-15T09:23:32Z</time>
      </trkpt>
      <trkpt lat="48.54402" lon="2.11574">
        <ele>64</ele>
        <time>2011-04-15T09:23:33Z</time>
      </trkpt>
      <trkpt lat="48.54401" lon="2.11575">
        <ele>64</ele>
        <time>2011-04-15T09:23:34Z</time>
      </trkpt>
      <trkpt lat="48.54399" lon="2.11576">
        <ele>64</ele>
        <time>2011-04-15T09:23:35Z</time>
      </trkpt>
      <trkpt lat="48.54397" lon="2.11578">
        <ele>64</ele>
        <time>2011-04-15T09:23:36Z</time>
      </trkpt>
      <trkpt lat="48.54396" lon="2.11579">
        <ele>64</ele>
        <time>2011-04-15T09:23:37Z</time>
      </trkpt>
      <trkpt lat="48.54394" lon="2.1158">
        <ele>64</ele>
        <time>2011-04-15T09:23:38Z</time>
      </trkpt>
      <trkpt lat="48.54393" lon="2.11581">
        <ele>64</ele>
        <time>2011-04-15T09:23:39Z</time>
      </trkpt>
      <trkpt lat="48.54392" lon="2.11582">
        <ele>64</ele>
        <time>2011-04-15T09:23:40Z</time>
      </trkpt>
      <trkpt lat="48.5439" lon="2.11583">
        <ele>64</ele>
        <time>2011-04-15T09:23:41Z</time>
      </trkpt>
      <trkpt lat="48.54389" lon="2.11584">
        <ele>64</ele>
        <time>2011-04-15T09:23:42Z</time>
      </trkpt>
      <trkpt lat="48.54387" lon="2.11586">
        <ele>64</ele>
        <time>2011-04-15T09:23:43Z</time>
      </trkpt>
      <trkpt lat="48.54385" lon="2.11587">
        <ele>64</ele>
        <time>2011-04-15T09:23:44Z</time>
      </trkpt>
      <trkpt lat="48.54384" lon="2.11588">
        <ele>64</ele>
        <time>2011-04-15T09:23:45Z</time>
      </trkpt>
      <trkpt lat="48.54382" lon="2.11588">
        <ele>64</ele>
        <time>2011-04-15T09:23:46Z</time>
      </trkpt>
      <trkpt lat="48.54381" lon="2.11589">
        <ele>64</ele>
        <time>2011-04-15T09:23:47Z</time>
      </trkpt>
      <trkpt lat="48.5438" lon="2.1159">
        <ele>64</ele>
        <time>2011-04-15T09:23:48Z</time>
      </trkpt>
      <trkpt lat="48.54378" lon="2.11591">
        <ele>64</ele>
        <time>2011-04-15T09:23:49Z</time>
      </trkpt>
      <trkpt lat="48.54376" lon="2.11591">
        <ele>64</ele>
        <time>2011-04-15T09:23:50Z</time>
      </trkpt>
      <trkpt lat="48.54375" lon="2.11593">
        <ele>64</ele>
        <time>2011-04-15T09:23:51Z</time>
      </trkpt>
      <trkpt lat="48.54373" lon="2.11593">
        <ele>64</ele>
        <time>2011-04-15T09:23:52Z</time>
      </trkpt>
      <trkpt lat="48.54372" lon="2.11594">
        <ele>64</ele>
        <time>2011-04-15T09:23:53Z</time>
      </trkpt>
      <trkpt lat="48.54371" lon="2.11595">
        <ele>64</ele>
        <time>2011-04-15T09:23:54Z</time>
      </trkpt>
      <trkpt lat="48.54369" lon="2.11596">
        <ele>64</ele>
        <time>2011-04-15T09:23:55Z</time>
      </trkpt>
      <trkpt lat="48.54368" lon="2.11597">
        <ele>64</ele>
        <time>2011-04-15T09:23:56Z</time>
      </trkpt>
      <trkpt lat="48.54367" lon="2.11598">
        <ele>64</ele>
        <time>2011-04-15T09:23:57Z</time>
      </trkpt>
      <trkpt lat="48.54365" lon="2.11599">
        <ele>64</ele>
        <time>2011-04-15T09:23:58Z</time>
      </trkpt>
      <trkpt lat="48.54364" lon="2.116">
        <ele>64</ele>
        <time>2011-04-15T09:23:59Z</time>
      </trkpt>
      <trkpt lat="48.54362" lon="2.11601">
        <ele>64</ele>
        <time>2011-04-15T09:24:00Z</time>
      </trkpt>
      <trkpt lat="48.54361" lon="2.11602">
        <ele>64</ele>
        <time>2011-04-15T09:24:01Z</time>
      </trkpt>
      <trkpt lat="48.5436" lon="2.11603">
        <ele>65</ele>
        <time>2011-04-15T09:24:02Z</time>
      </trkpt>
      <trkpt lat="48.54358" lon="2.11604">
        <ele>65</ele>
        <time>2011-04-15T09:24:03Z</time>
      </trkpt>
      <trkpt lat="48.54357" lon="2.11605">
        <ele>65</ele>
        <time>2011-04-15T09:24:04Z</time>
      </trkpt>
      <trkpt lat="48.54356" lon="2.11606">
        <ele>65</ele>
        <time>2011-04-15T09:24:05Z</time>
      </trkpt>
      <trkpt lat="48.54353" lon="2.11608">
        <ele>66</ele>
        <time>2011-04-15T09:24:07Z</time>
      </trkpt>
      <trkpt lat="48.54352" lon="2.11609">
        <ele>66</ele>
        <time>2011-04-15T09:24:08Z</time>
      </trkpt>
      <trkpt lat="48.54351" lon="2.1161">
        <ele>66</ele>
        <time>2011-04-15T09:24:09Z</time>
      </trkpt>
      <trkpt lat="48.5435" lon="2.11611">
        <ele>66</ele>
        <time>2011-04-15T09:24:10Z</time>
      </trkpt>
      <trkpt lat="48.54348" lon="2.11612">
        <ele>66</ele>
        <time>2011-04-15T09:24:11Z</time>
      </trkpt>
      <trkpt lat="48.54347" lon="2.11614">
        <ele>67</ele>
        <time>2011-04-15T09:24:12Z</time>
      </trkpt>
      <trkpt lat="48.54345" lon="2.11615">
        <ele>67</ele>
        <time>2011-04-15T09:24:13Z</time>
      </trkpt>
      <trkpt lat="48.54344" lon="2.11616">
        <ele>67</ele>
        <time>2011-04-15T09:24:14Z</time>
      </trkpt>
      <trkpt lat="48.54343" lon="2.11617">
        <ele>67</ele>
        <time>2011-04-15T09:24:15Z</time>
      </trkpt>
      <trkpt lat="48.54341" lon="2.11617">
        <ele>67</ele>
        <time>2011-04-15T09:24:16Z</time>
      </trkpt>
      <trkpt lat="48.5434" lon="2.11618">
        <ele>68</ele>
        <time>2011-04-15T09:24:17Z</time>
      </trkpt>
      <trkpt lat="48.54339" lon="2.11619">
        <ele>68</ele>
        <time>2011-04-15T09:24:18Z</time>
      </trkpt>
      <trkpt lat="48.54337" lon="2.11619">
        <ele>68</ele>
        <time>2011-04-15T09:24:19Z</time>
      </trkpt>
      <trkpt lat="48.54336" lon="2.1162">
        <ele>68</ele>
        <time>2011-04-15T09:24:20Z</time>
      </trkpt>
      <trkpt lat="48.54335" lon="2.11619">
        <ele>68</ele>
        <time>2011-04-15T09:24:21Z</time>
      </trkpt>
      <trkpt lat="48.54333" lon="2.11619">
        <ele>69</ele>
        <time>2011-04-15T09:24:22Z</time>
      </trkpt>
      <trkpt lat="48.54332" lon="2.11618">
        <ele>69</ele>
        <time>2011-04-15T09:24:23Z</time>
      </trkpt>
      <trkpt lat="48.5433" lon="2.11617">
        <ele>69</ele>
        <time>2011-04-15T09:24:24Z</time>
      </trkpt>
      <trkpt lat="48.54329" lon="2.11615">
        <ele>69</ele>
        <time>2011-04-15T09:24:25Z</time>
      </trkpt>
      <trkpt lat="48.54328" lon="2.11613">
        <ele>69</ele>
        <time>2011-04-15T09:24:26Z</time>
      </trkpt>
      <trkpt lat="48.54327" lon="2.11612">
        <ele>69</ele>
        <time>2011-04-15T09:24:27Z</time>
      </trkpt>
      <trkpt lat="48.54326" lon="2.1161">
        <ele>69</ele>
        <time>2011-04-15T09:24:28Z</time>
      </trkpt>
      <trkpt lat="48.54325" lon="2.11608">
        <ele>69</ele>
        <time>2011-04-15T09:24:29Z</time>
      </trkpt>
      <trkpt lat="48.54324" lon="2.11607">
        <ele>69</ele>
        <time>2011-04-15T09:24:30Z</time>
      </trkpt>
      <trkpt lat="48.54323" lon="2.11603">
        <ele>69</ele>
        <time>2011-04-15T09:24:32Z</time>
      </trkpt>
      <trkpt lat="48.54323" lon="2.11602">
        <ele>69</ele>
        <time>2011-04-15T09:24:33Z</time>
      </trkpt>
      <trkpt lat="48.54322" lon="2.116">
        <ele>69</ele>
        <time>2011-04-15T09:24:34Z</time>
      </trkpt>
      <trkpt lat="48.5432" lon="2.11597">
        <ele>69</ele>
        <time>2011-04-15T09:24:36Z</time>
      </trkpt>
      <trkpt lat="48.54319" lon="2.11595">
        <ele>69</ele>
        <time>2011-04-15T09:24:37Z</time>
      </trkpt>
      <trkpt lat="48.54318" lon="2.11594">
        <ele>69</ele>
        <time>2011-04-15T09:24:38Z</time>
      </trkpt>
      <trkpt lat="48.54316" lon="2.11592">
        <ele>69</ele>
        <time>2011-04-15T09:24:39Z</time>
      </trkpt>
      <trkpt lat="48.54315" lon="2.11589">
        <ele>69</ele>
        <time>2011-04-15T09:24:40Z</time>
      </trkpt>
      <trkpt lat="48.54314" lon="2.11587">
        <ele>69</ele>
        <time>2011-04-15T09:24:41Z</time>
      </trkpt>
      <trkpt lat="48.54312" lon="2.11585">
        <ele>69</ele>
        <time>2011-04-15T09:24:42Z</time>
      </trkpt>
      <trkpt lat="48.54311" lon="2.11583">
        <ele>69</ele>
        <time>2011-04-15T09:24:43Z</time>
      </trkpt>
      <trkpt lat="48.5431" lon="2.11581">
        <ele>69</ele>
        <time>2011-04-15T09:24:44Z</time>
      </trkpt>
      <trkpt lat="48.54309" lon="2.1158">
        <ele>70</ele>
        <time>2011-04-15T09:24:45Z</time>
      </trkpt>
      <trkpt lat="48.54308" lon="2.11578">
        <ele>70</ele>
        <time>2011-04-15T09:24:46Z</time>
      </trkpt>
      <trkpt lat="48.54307" lon="2.11576">
        <ele>70</ele>
        <time>2011-04-15T09:24:47Z</time>
      </trkpt>
      <trkpt lat="48.54306" lon="2.11574">
        <ele>70</ele>
        <time>2011-04-15T09:24:48Z</time>
      </trkpt>
      <trkpt lat="48.54305" lon="2.11573">
        <ele>71</ele>
        <time>2011-04-15T09:24:49Z</time>
      </trkpt>
      <trkpt lat="48.54304" lon="2.11571">
        <ele>71</ele>
        <time>2011-04-15T09:24:50Z</time>
      </trkpt>
      <trkpt lat="48.54303" lon="2.11569">
        <ele>71</ele>
        <time>2011-04-15T09:24:51Z</time>
      </trkpt>
      <trkpt lat="48.54302" lon="2.11567">
        <ele>71</ele>
        <time>2011-04-15T09:24:52Z</time>
      </trkpt>
      <trkpt lat="48.54301" lon="2.11565">
        <ele>71</ele>
        <time>2011-04-15T09:24:53Z</time>
      </trkpt>
      <trkpt lat="48.54301" lon="2.11563">
        <ele>71</ele>
        <time>2011-04-15T09:24:54Z</time>
      </trkpt>
      <trkpt lat="48.543" lon="2.11561">
        <ele>71</ele>
        <time>2011-04-15T09:24:55Z</time>
      </trkpt>
      <trkpt lat="48.54299" lon="2.11559">
        <ele>71</ele>
        <time>2011-04-15T09:24:56Z</time>
      </trkpt>
      <trkpt lat="48.54298" lon="2.11558">
        <ele>71</ele>
        <time>2011-04-15T09:24:57Z</time>
      </trkpt>
      <trkpt lat="48.54297" lon="2.11556">
        <ele>71</ele>
        <time>2011-04-15T09:24:58Z</time>
      </trkpt>
      <trkpt lat="48.54296" lon="2.11554">
        <ele>71</ele>
        <time>2011-04-15T09:24:59Z</time>
      </trkpt>
      <trkpt lat="48.54295" lon="2.11552">
        <ele>71</ele>
        <time>2011-04-15T09:25:00Z</time>
      </trkpt>
      <trkpt lat="48.54294" lon="2.11551">
        <ele>71</ele>
        <time>2011-04-15T09:25:01Z</time>
      </trkpt>
      <trkpt lat="48.54293" lon="2.11549">
        <ele>71</ele>
        <time>2011-04-15T09:25:02Z</time>
      </trkpt>
      <trkpt lat="48.54292" lon="2.11547">
        <ele>71</ele>
        <time>2011-04-15T09:25:03Z</time>
      </trkpt>
      <trkpt lat="48.54291" lon="2.11545">
        <ele>71</ele>
        <time>2011-04-15T09:25:04Z</time>
      </trkpt>
      <trkpt lat="48.54291" lon="2.11544">
        <ele>71</ele>
        <time>2011-04-15T09:25:05Z</time>
      </trkpt>
      <trkpt lat="48.54289" lon="2.11541">
        <ele>71</ele>
        <time>2011-04-15T09:25:07Z</time>
      </trkpt>
      <trkpt lat="48.54288" lon="2.11539">
        <ele>71</ele>
        <time>2011-04-15T09:25:08Z</time>
      </trkpt>
      <trkpt lat="48.54286" lon="2.11536">
        <ele>71</ele>
        <time>2011-04-15T09:25:10Z</time>
      </trkpt>
      <trkpt lat="48.54285" lon="2.11534">
        <ele>71</ele>
        <time>2011-04-15T09:25:11Z</time>
      </trkpt>
      <trkpt lat="48.54285" lon="2.11532">
        <ele>71</ele>
        <time>2011-04-15T09:25:12Z</time>
      </trkpt>
      <trkpt lat="48.54284" lon="2.1153">
        <ele>71</ele>
        <time>2011-04-15T09:25:13Z</time>
      </trkpt>
      <trkpt lat="48.54283" lon="2.11528">
        <ele>71</ele>
        <time>2011-04-15T09:25:14Z</time>
      </trkpt>
      <trkpt lat="48.54282" lon="2.11526">
        <ele>71</ele>
        <time>2011-04-15T09:25:15Z</time>
      </trkpt>
      <trkpt lat="48.54281" lon="2.11524">
        <ele>71</ele>
        <time>2011-04-15T09:25:16Z</time>
      </trkpt>
      <trkpt lat="48.5428" lon="2.11522">
        <ele>71</ele>
        <time>2011-04-15T09:25:17Z</time>
      </trkpt>
      <trkpt lat="48.54279" lon="2.1152">
        <ele>71</ele>
        <time>2011-04-15T09:25:18Z</time>
      </trkpt>
      <trkpt lat="48.54278" lon="2.11518">
        <ele>71</ele>
        <time>2011-04-15T09:25:19Z</time>
      </trkpt>
      <trkpt lat="48.54277" lon="2.11515">
        <ele>71</ele>
        <time>2011-04-15T09:25:21Z</time>
      </trkpt>
      <trkpt lat="48.54276" lon="2.11513">
        <ele>71</ele>
        <time>2011-04-15T09:25:22Z</time>
      </trkpt>
      <trkpt lat="48.54275" lon="2.11511">
        <ele>71</ele>
        <time>2011-04-15T09:25:23Z</time>
      </trkpt>
      <trkpt lat="48.54275" lon="2.1151">
        <ele>71</ele>
        <time>2011-04-15T09:25:24Z</time>
      </trkpt>
      <trkpt lat="48.54274" lon="2.11507">
        <ele>71</ele>
        <time>2011-04-15T09:25:26Z</time>
      </trkpt>
      <trkpt lat="48.54272" lon="2.11506">
        <ele>71</ele>
        <time>2011-04-15T09:25:32Z</time>
      </trkpt>
      <trkpt lat="48.54271" lon="2.11504">
        <ele>72</ele>
        <time>2011-04-15T09:25:34Z</time>
      </trkpt>
      <trkpt lat="48.5427" lon="2.11502">
        <ele>72</ele>
        <time>2011-04-15T09:25:36Z</time>
      </trkpt>
      <trkpt lat="48.54268" lon="2.115">
        <ele>72</ele>
        <time>2011-04-15T09:25:38Z</time>
      </trkpt>
      <trkpt lat="48.54266" lon="2.11497">
        <ele>72</ele>
        <time>2011-04-15T09:25:40Z</time>
      </trkpt>
      <trkpt lat="48.54265" lon="2.11496">
        <ele>72</ele>
        <time>2011-04-15T09:25:41Z</time>
      </trkpt>
      <trkpt lat="48.54265" lon="2.11494">
        <ele>72</ele>
        <time>2011-04-15T09:25:42Z</time>
      </trkpt>
      <trkpt lat="48.54264" lon="2.11492">
        <ele>72</ele>
        <time>2011-04-15T09:25:43Z</time>
      </trkpt>
      <trkpt lat="48.54263" lon="2.1149">
        <ele>73</ele>
        <time>2011-04-15T09:25:44Z</time>
      </trkpt>
      <trkpt lat="48.54263" lon="2.11489">
        <ele>73</ele>
        <time>2011-04-15T09:25:45Z</time>
      </trkpt>
      <trkpt lat="48.54262" lon="2.11487">
        <ele>73</ele>
        <time>2011-04-15T09:25:46Z</time>
      </trkpt>
      <trkpt lat="48.54261" lon="2.11485">
        <ele>73</ele>
        <time>2011-04-15T09:25:47Z</time>
      </trkpt>
      <trkpt lat="48.54261" lon="2.11483">
        <ele>73</ele>
        <time>2011-04-15T09:25:48Z</time>
      </trkpt>
      <trkpt lat="48.5426" lon="2.11481">
        <ele>73</ele>
        <time>2011-04-15T09:25:49Z</time>
      </trkpt>
      <trkpt lat="48.54259" lon="2.1148">
        <ele>73</ele>
        <time>2011-04-15T09:25:50Z</time>
      </trkpt>
      <trkpt lat="48.54258" lon="2.11478">
        <ele>73</ele>
        <time>2011-04-15T09:25:51Z</time>
      </trkpt>
      <trkpt lat="48.54257" lon="2.11476">
        <ele>73</ele>
        <time>2011-04-15T09:25:52Z</time>
      </trkpt>
      <trkpt lat="48.54257" lon="2.11474">
        <ele>73</ele>
        <time>2011-04-15T09:25:53Z</time>
      </trkpt>
      <trkpt lat="48.54256" lon="2.11472">
        <ele>73</ele>
        <time>2011-04-15T09:25:54Z</time>
      </trkpt>
      <trkpt lat="48.54255" lon="2.1147">
        <ele>73</ele>
        <time>2011-04-15T09:25:55Z</time>
      </trkpt>
      <trkpt lat="48.54255" lon="2.11469">
        <ele>73</ele>
        <time>2011-04-15T09:25:56Z</time>
      </trkpt>
      <trkpt lat="48.54254" lon="2.11467">
        <ele>73</ele>
        <time>2011-04-15T09:25:57Z</time>
      </trkpt>
      <trkpt lat="48.54254" lon="2.11465">
        <ele>73</ele>
        <time>2011-04-15T09:25:58Z</time>
      </trkpt>
      <trkpt lat="48.54253" lon="2.11463">
        <ele>73</ele>
        <time>2011-04-15T09:25:59Z</time>
      </trkpt>
      <trkpt lat="48.54253" lon="2.11461">
        <ele>73</ele>
        <time>2011-04-15T09:26:00Z</time>
      </trkpt>
      <trkpt lat="48.54252" lon="2.11459">
        <ele>73</ele>
        <time>2011-04-15T09:26:01Z</time>
      </trkpt>
      <trkpt lat="48.54252" lon="2.11457">
        <ele>73</ele>
        <time>2011-04-15T09:26:02Z</time>
      </trkpt>
      <trkpt lat="48.54251" lon="2.11455">
        <ele>73</ele>
        <time>2011-04-15T09:26:03Z</time>
      </trkpt>
      <trkpt lat="48.54251" lon="2.11454">
        <ele>73</ele>
        <time>2011-04-15T09:26:04Z</time>
      </trkpt>
      <trkpt lat="48.5425" lon="2.11452">
        <ele>73</ele>
        <time>2011-04-15T09:26:05Z</time>
      </trkpt>
      <trkpt lat="48.54249" lon="2.11449">
        <ele>73</ele>
        <time>2011-04-15T09:26:07Z</time>
      </trkpt>
      <trkpt lat="48.54247" lon="2.11446">
        <ele>73</ele>
        <time>2011-04-15T09:26:09Z</time>
      </trkpt>
      <trkpt lat="48.54247" lon="2.11444">
        <ele>73</ele>
        <time>2011-04-15T09:26:10Z</time>
      </trkpt>
      <trkpt lat="48.54246" lon="2.11442">
        <ele>73</ele>
        <time>2011-04-15T09:26:11Z</time>
      </trkpt>
      <trkpt lat="48.54246" lon="2.1144">
        <ele>73</ele>
        <time>2011-04-15T09:26:12Z</time>
      </trkpt>
      <trkpt lat="48.54245" lon="2.11439">
        <ele>73</ele>
        <time>2011-04-15T09:26:13Z</time>
      </trkpt>
      <trkpt lat="48.54245" lon="2.11437">
        <ele>73</ele>
        <time>2011-04-15T09:26:14Z</time>
      </trkpt>
      <trkpt lat="48.54244" lon="2.11435">
        <ele>73</ele>
        <time>2011-04-15T09:26:15Z</time>
      </trkpt>
      <trkpt lat="48.54243" lon="2.11434">
        <ele>73</ele>
        <time>2011-04-15T09:26:16Z</time>
      </trkpt>
      <trkpt lat="48.54243" lon="2.11432">
        <ele>73</ele>
        <time>2011-04-15T09:26:17Z</time>
      </trkpt>
      <trkpt lat="48.54241" lon="2.11429">
        <ele>73</ele>
        <time>2011-04-15T09:26:19Z</time>
      </trkpt>
      <trkpt lat="48.5424" lon="2.11427">
        <ele>73</ele>
        <time>2011-04-15T09:26:20Z</time>
      </trkpt>
      <trkpt lat="48.54239" lon="2.11425">
        <ele>73</ele>
        <time>2011-04-15T09:26:21Z</time>
      </trkpt>
      <trkpt lat="48.54237" lon="2.11422">
        <ele>73</ele>
        <time>2011-04-15T09:26:23Z</time>
      </trkpt>
      <trkpt lat="48.54236" lon="2.1142">
        <ele>73</ele>
        <time>2011-04-15T09:26:24Z</time>
      </trkpt>
      <trkpt lat="48.54235" lon="2.11419">
        <ele>73</ele>
        <time>2011-04-15T09:26:25Z</time>
      </trkpt>
      <trkpt lat="48.54234" lon="2.11417">
        <ele>73</ele>
        <time>2011-04-15T09:26:26Z</time>
      </trkpt>
      <trkpt lat="48.54232" lon="2.11415">
        <ele>73</ele>
        <time>2011-04-15T09:26:28Z</time>
      </trkpt>
      <trkpt lat="48.54231" lon="2.11414">
        <ele>73</ele>
        <time>2011-04-15T09:26:29Z</time>
      </trkpt>
      <trkpt lat="48.5423" lon="2.11413">
        <ele>73</ele>
        <time>2011-04-15T09:26:31Z</time>
      </trkpt>
      <trkpt lat="48.54228" lon="2.11414">
        <ele>75</ele>
        <time>2011-04-15T09:26:40Z</time>
      </trkpt>
      <trkpt lat="48.54227" lon="2.11414">
        <ele>76</ele>
        <time>2011-04-15T09:26:42Z</time>
      </trkpt>
      <trkpt lat="48.54226" lon="2.11412">
        <ele>77</ele>
        <time>2011-04-15T09:26:44Z</time>
      </trkpt>
      <trkpt lat="48.54227" lon="2.1141">
        <ele>77</ele>
        <time>2011-04-15T09:26:53Z</time>
      </trkpt>
      <trkpt lat="48.54226" lon="2.11408">
        <ele>78</ele>
        <time>2011-04-15T09:27:01Z</time>
      </trkpt>
      <trkpt lat="48.54224" lon="2.11406">
        <ele>78</ele>
        <time>2011-04-15T09:27:03Z</time>
      </trkpt>
      <trkpt lat="48.54223" lon="2.11404">
        <ele>78</ele>
        <time>2011-04-15T09:27:05Z</time>
      </trkpt>
      <trkpt lat="48.54221" lon="2.11402">
        <ele>78</ele>
        <time>2011-04-15T09:27:07Z</time>
      </trkpt>
      <trkpt lat="48.54219" lon="2.11399">
        <ele>78</ele>
        <time>2011-04-15T09:27:09Z</time>
      </trkpt>
      <trkpt lat="48.54217" lon="2.11397">
        <ele>78</ele>
        <time>2011-04-15T09:27:11Z</time>
      </trkpt>
      <trkpt lat="48.54216" lon="2.11395">
        <ele>78</ele>
        <time>2011-04-15T09:27:12Z</time>
      </trkpt>
      <trkpt lat="48.54215" lon="2.11394">
        <ele>78</ele>
        <time>2011-04-15T09:27:13Z</time>
      </trkpt>
      <trkpt lat="48.54213" lon="2.11391">
        <ele>78</ele>
        <time>2011-04-15T09:27:15Z</time>
      </trkpt>
      <trkpt lat="48.54212" lon="2.1139">
        <ele>78</ele>
        <time>2011-04-15T09:27:16Z</time>
      </trkpt>
      <trkpt lat="48.5421" lon="2.11388">
        <ele>78</ele>
        <time>2011-04-15T09:27:17Z</time>
      </trkpt>
      <trkpt lat="48.54209" lon="2.11387">
        <ele>78</ele>
        <time>2011-04-15T09:27:18Z</time>
      </trkpt>
      <trkpt lat="48.54208" lon="2.11383">
        <ele>78</ele>
        <time>2011-04-15T09:27:20Z</time>
      </trkpt>
      <trkpt lat="48.54207" lon="2.11382">
        <ele>78</ele>
        <time>2011-04-15T09:27:21Z</time>
      </trkpt>
      <trkpt lat="48.54205" lon="2.11379">
        <ele>78</ele>
        <time>2011-04-15T09:27:23Z</time>
      </trkpt>
      <trkpt lat="48.54203" lon="2.11376">
        <ele>78</ele>
        <time>2011-04-15T09:27:25Z</time>
      </trkpt>
      <trkpt lat="48.54202" lon="2.11374">
        <ele>78</ele>
        <time>2011-04-15T09:27:26Z</time>
      </trkpt>
      <trkpt lat="48.54201" lon="2.11373">
        <ele>78</ele>
        <time>2011-04-15T09:27:27Z</time>
      </trkpt>
      <trkpt lat="48.54201" lon="2.11371">
        <ele>78</ele>
        <time>2011-04-15T09:27:28Z</time>
      </trkpt>
      <trkpt lat="48.54199" lon="2.11368">
        <ele>78</ele>
        <time>2011-04-15T09:27:30Z</time>
      </trkpt>
      <trkpt lat="48.54197" lon="2.11365">
        <ele>78</ele>
        <time>2011-04-15T09:27:32Z</time>
      </trkpt>
      <trkpt lat="48.54196" lon="2.11364">
        <ele>78</ele>
        <time>2011-04-15T09:27:33Z</time>
      </trkpt>
      <trkpt lat="48.54195" lon="2.11362">
        <ele>78</ele>
        <time>2011-04-15T09:27:34Z</time>
      </trkpt>
      <trkpt lat="48.54194" lon="2.1136">
        <ele>78</ele>
        <time>2011-04-15T09:27:35Z</time>
      </trkpt>
      <trkpt lat="48.54194" lon="2.11358">
        <ele>78</ele>
        <time>2011-04-15T09:27:36Z</time>
      </trkpt>
      <trkpt lat="48.54193" lon="2.11357">
        <ele>78</ele>
        <time>2011-04-15T09:27:37Z</time>
      </trkpt>
      <trkpt lat="48.54192" lon="2.11355">
        <ele>78</ele>
        <time>2011-04-15T09:27:38Z</time>
      </trkpt>
      <trkpt lat="48.54191" lon="2.11353">
        <ele>78</ele>
        <time>2011-04-15T09:27:39Z</time>
      </trkpt>
      <trkpt lat="48.54191" lon="2.11351">
        <ele>78</ele>
        <time>2011-04-15T09:27:40Z</time>
      </trkpt>
      <trkpt lat="48.5419" lon="2.11349">
        <ele>78</ele>
        <time>2011-04-15T09:27:41Z</time>
      </trkpt>
      <trkpt lat="48.54189" lon="2.11347">
        <ele>78</ele>
        <time>2011-04-15T09:27:42Z</time>
      </trkpt>
      <trkpt lat="48.54189" lon="2.11345">
        <ele>78</ele>
        <time>2011-04-15T09:27:43Z</time>
      </trkpt>
      <trkpt lat="48.54188" lon="2.11343">
        <ele>78</ele>
        <time>2011-04-15T09:27:44Z</time>
      </trkpt>
      <trkpt lat="48.54187" lon="2.11341">
        <ele>78</ele>
        <time>2011-04-15T09:27:45Z</time>
      </trkpt>
      <trkpt lat="48.54186" lon="2.11339">
        <ele>78</ele>
        <time>2011-04-15T09:27:46Z</time>
      </trkpt>
      <trkpt lat="48.54186" lon="2.11337">
        <ele>78</ele>
        <time>2011-04-15T09:27:47Z</time>
      </trkpt>
      <trkpt lat="48.54185" lon="2.11336">
        <ele>78</ele>
        <time>2011-04-15T09:27:48Z</time>
      </trkpt>
      <trkpt lat="48.54184" lon="2.11334">
        <ele>78</ele>
        <time>2011-04-15T09:27:49Z</time>
      </trkpt>
      <trkpt lat="48.54184" lon="2.11332">
        <ele>78</ele>
        <time>2011-04-15T09:27:50Z</time>
      </trkpt>
      <trkpt lat="48.54183" lon="2.1133">
        <ele>78</ele>
        <time>2011-04-15T09:27:51Z</time>
      </trkpt>
      <trkpt lat="48.54182" lon="2.11328">
        <ele>78</ele>
        <time>2011-04-15T09:27:52Z</time>
      </trkpt>
      <trkpt lat="48.54182" lon="2.11326">
        <ele>78</ele>
        <time>2011-04-15T09:27:53Z</time>
      </trkpt>
      <trkpt lat="48.54181" lon="2.11324">
        <ele>78</ele>
        <time>2011-04-15T09:27:54Z</time>
      </trkpt>
      <trkpt lat="48.5418" lon="2.11322">
        <ele>78</ele>
        <time>2011-04-15T09:27:55Z</time>
      </trkpt>
      <trkpt lat="48.5418" lon="2.1132">
        <ele>78</ele>
        <time>2011-04-15T09:27:56Z</time>
      </trkpt>
      <trkpt lat="48.54179" lon="2.11319">
        <ele>78</ele>
        <time>2011-04-15T09:27:57Z</time>
      </trkpt>
      <trkpt lat="48.54179" lon="2.11317">
        <ele>78</ele>
        <time>2011-04-15T09:27:58Z</time>
      </trkpt>
      <trkpt lat="48.54178" lon="2.11315">
        <ele>78</ele>
        <time>2011-04-15T09:27:59Z</time>
      </trkpt>
      <trkpt lat="48.54178" lon="2.11312">
        <ele>78</ele>
        <time>2011-04-15T09:28:01Z</time>
      </trkpt>
      <trkpt lat="48.54179" lon="2.1131">
        <ele>78</ele>
        <time>2011-04-15T09:28:04Z</time>
      </trkpt>
      <trkpt lat="48.5418" lon="2.1131">
        <ele>78</ele>
        <time>2011-04-15T09:28:07Z</time>
      </trkpt>
      <trkpt lat="48.5418" lon="2.11312">
        <ele>78</ele>
        <time>2011-04-15T09:28:10Z</time>
      </trkpt>
      <trkpt lat="48.54181" lon="2.11315">
        <ele>78</ele>
        <time>2011-04-15T09:28:12Z</time>
      </trkpt>
      <trkpt lat="48.54181" lon="2.11317">
        <ele>78</ele>
        <time>2011-04-15T09:28:13Z</time>
      </trkpt>
      <trkpt lat="48.54181" lon="2.11319">
        <ele>78</ele>
        <time>2011-04-15T09:28:14Z</time>
      </trkpt>
      <trkpt lat="48.54182" lon="2.11321">
        <ele>78</ele>
        <time>2011-04-15T09:28:15Z</time>
      </trkpt>
      <trkpt lat="48.54182" lon="2.11324">
        <ele>78</ele>
        <time>2011-04-15T09:28:16Z</time>
      </trkpt>
      <trkpt lat="48.54183" lon="2.11326">
        <ele>78</ele>
        <time>2011-04-15T09:28:17Z</time>
      </trkpt>
      <trkpt lat="48.54183" lon="2.11328">
        <ele>78</ele>
        <time>2011-04-15T09:28:18Z</time>
      </trkpt>
      <trkpt lat="48.54184" lon="2.1133">
        <ele>78</ele>
        <time>2011-04-15T09:28:19Z</time>
      </trkpt>
      <trkpt lat="48.54184" lon="2.11332">
        <ele>78</ele>
        <time>2011-04-15T09:28:20Z</time>
      </trkpt>
      <trkpt lat="48.54185" lon="2.11334">
        <ele>78</ele>
        <time>2011-04-15T09:28:21Z</time>
      </trkpt>
      <trkpt lat="48.54185" lon="2.11336">
        <ele>78</ele>
        <time>2011-04-15T09:28:22Z</time>
      </trkpt>
      <trkpt lat="48.54186" lon="2.11337">
        <ele>78</ele>
        <time>2011-04-15T09:28:23Z</time>
      </trkpt>
      <trkpt lat="48.54187" lon="2.11339">
        <ele>78</ele>
        <time>2011-04-15T09:28:24Z</time>
      </trkpt>
      <trkpt lat="48.54188" lon="2.11341">
        <ele>78</ele>
        <time>2011-04-15T09:28:25Z</time>
      </trkpt>
      <trkpt lat="48.54188" lon="2.11343">
        <ele>78</ele>
        <time>2011-04-15T09:28:26Z</time>
      </trkpt>
      <trkpt lat="48.54189" lon="2.11345">
        <ele>78</ele>
        <time>2011-04-15T09:28:27Z</time>
      </trkpt>
      <trkpt lat="48.5419" lon="2.11347">
        <ele>78</ele>
        <time>2011-04-15T09:28:28Z</time>
      </trkpt>
      <trkpt lat="48.54191" lon="2.11349">
        <ele>78</ele>
        <time>2011-04-15T09:28:29Z</time>
      </trkpt>
      <trkpt lat="48.54192" lon="2.1135">
        <ele>78</ele>
        <time>2011-04-15T09:28:30Z</time>
      </trkpt>
      <trkpt lat="48.54193" lon="2.11353">
        <ele>78</ele>
        <time>2011-04-15T09:28:32Z</time>
      </trkpt>
      <trkpt lat="48.54195" lon="2.11355">
        <ele>78</ele>
        <time>2011-04-15T09:28:33Z</time>
      </trkpt>
      <trkpt lat="48.54196" lon="2.11356">
        <ele>78</ele>
        <time>2011-04-15T09:28:34Z</time>
      </trkpt>
      <trkpt lat="48.54198" lon="2.11359">
        <ele>78</ele>
        <time>2011-04-15T09:28:36Z</time>
      </trkpt>
      <trkpt lat="48.54199" lon="2.11361">
        <ele>78</ele>
        <time>2011-04-15T09:28:37Z</time>
      </trkpt>
      <trkpt lat="48.542" lon="2.11363">
        <ele>78</ele>
        <time>2011-04-15T09:28:38Z</time>
      </trkpt>
      <trkpt lat="48.542" lon="2.11365">
        <ele>78</ele>
        <time>2011-04-15T09:28:39Z</time>
      </trkpt>
      <trkpt lat="48.54201" lon="2.11367">
        <ele>78</ele>
        <time>2011-04-15T09:28:40Z</time>
      </trkpt>
      <trkpt lat="48.54202" lon="2.11369">
        <ele>78</ele>
        <time>2011-04-15T09:28:41Z</time>
      </trkpt>
      <trkpt lat="48.54203" lon="2.11371">
        <ele>78</ele>
        <time>2011-04-15T09:28:42Z</time>
      </trkpt>
      <trkpt lat="48.54204" lon="2.11373">
        <ele>78</ele>
        <time>2011-04-15T09:28:43Z</time>
      </trkpt>
      <trkpt lat="48.54204" lon="2.11375">
        <ele>78</ele>
        <time>2011-04-15T09:28:44Z</time>
      </trkpt>
      <trkpt lat="48.54205" lon="2.11376">
        <ele>78</ele>
        <time>2011-04-15T09:28:45Z</time>
      </trkpt>
      <trkpt lat="48.54206" lon="2.11378">
        <ele>78</ele>
        <time>2011-04-15T09:28:46Z</time>
      </trkpt>
      <trkpt lat="48.54207" lon="2.1138">
        <ele>78</ele>
        <time>2011-04-15T09:28:47Z</time>
      </trkpt>
      <trkpt lat="48.54208" lon="2.11382">
        <ele>78</ele>
        <time>2011-04-15T09:28:48Z</time>
      </trkpt>
      <trkpt lat="48.54209" lon="2.11384">
        <ele>78</ele>
        <time>2011-04-15T09:28:49Z</time>
      </trkpt>
      <trkpt lat="48.5421" lon="2.11386">
        <ele>78</ele>
        <time>2011-04-15T09:28:50Z</time>
      </trkpt>
      <trkpt lat="48.54211" lon="2.11388">
        <ele>78</ele>
        <time>2011-04-15T09:28:51Z</time>
      </trkpt>
      <trkpt lat="48.54212" lon="2.11389">
        <ele>78</ele>
        <time>2011-04-15T09:28:52Z</time>
      </trkpt>
      <trkpt lat="48.54213" lon="2.11391">
        <ele>78</ele>
        <time>2011-04-15T09:28:53Z</time>
      </trkpt>
      <trkpt lat="48.54215" lon="2.11393">
        <ele>78</ele>
        <time>2011-04-15T09:28:54Z</time>
      </trkpt>
      <trkpt lat="48.54216" lon="2.11394">
        <ele>78</ele>
        <time>2011-04-15T09:28:55Z</time>
      </trkpt>
      <trkpt lat="48.54217" lon="2.11396">
        <ele>79</ele>
        <time>2011-04-15T09:28:56Z</time>
      </trkpt>
      <trkpt lat="48.54218" lon="2.11398">
        <ele>79</ele>
        <time>2011-04-15T09:28:57Z</time>
      </trkpt>
      <trkpt lat="48.54219" lon="2.11399">
        <ele>79</ele>
        <time>2011-04-15T09:28:58Z</time>
      </trkpt>
      <trkpt lat="48.5422" lon="2.11401">
        <ele>79</ele>
        <time>2011-04-15T09:28:59Z</time>
      </trkpt>
      <trkpt lat="48.54221" lon="2.11402">
        <ele>79</ele>
        <time>2011-04-15T09:29:00Z</time>
      </trkpt>
      <trkpt lat="48.54222" lon="2.11404">
        <ele>79</ele>
        <time>2011-04-15T09:29:01Z</time>
      </trkpt>
      <trkpt lat="48.54223" lon="2.11405">
        <ele>79</ele>
        <time>2011-04-15T09:29:02Z</time>
      </trkpt>
      <trkpt lat="48.54225" lon="2.11408">
        <ele>80</ele>
        <time>2011-04-15T09:29:04Z</time>
      </trkpt>
      <trkpt lat="48.54226" lon="2.1141">
        <ele>80</ele>
        <time>2011-04-15T09:29:06Z</time>
      </trkpt>
      <trkpt lat="48.54228" lon="2.11411">
        <ele>80</ele>
        <time>2011-04-15T09:29:08Z</time>
      </trkpt>
      <trkpt lat="48.54229" lon="2.11413">
        <ele>80</ele>
        <time>2011-04-15T09:29:10Z</time>
      </trkpt>
      <trkpt lat="48.54231" lon="2.11415">
        <ele>80</ele>
        <time>2011-04-15T09:29:12Z</time>
      </trkpt>
      <trkpt lat="48.54233" lon="2.11416">
        <ele>80</ele>
        <time>2011-04-15T09:29:13Z</time>
      </trkpt>
      <trkpt lat="48.54235" lon="2.11419">
        <ele>80</ele>
        <time>2011-04-15T09:29:15Z</time>
      </trkpt>
      <trkpt lat="48.54236" lon="2.11421">
        <ele>80</ele>
        <time>2011-04-15T09:29:17Z</time>
      </trkpt>
      <trkpt lat="48.54238" lon="2.11423">
        <ele>80</ele>
        <time>2011-04-15T09:29:19Z</time>
      </trkpt>
      <trkpt lat="48.5424" lon="2.11425">
        <ele>80</ele>
        <time>2011-04-15T09:29:21Z</time>
      </trkpt>
      <trkpt lat="48.54241" lon="2.11427">
        <ele>80</ele>
        <time>2011-04-15T09:29:23Z</time>
      </trkpt>
      <trkpt lat="48.54242" lon="2.1143">
        <ele>80</ele>
        <time>2011-04-15T09:29:25Z</time>
      </trkpt>
      <trkpt lat="48.54242" lon="2.11432">
        <ele>80</ele>
        <time>2011-04-15T09:29:27Z</time>
      </trkpt>
      <trkpt lat="48.54242" lon="2.11434">
        <ele>80</ele>
        <time>2011-04-15T09:29:30Z</time>
      </trkpt>
      <trkpt lat="48.5424" lon="2.11434">
        <ele>80</ele>
        <time>2011-04-15T09:29:32Z</time>
      </trkpt>
      <trkpt lat="48.54239" lon="2.11432">
        <ele>80</ele>
        <time>2011-04-15T09:29:34Z</time>
      </trkpt>
      <trkpt lat="48.54237" lon="2.11431">
        <ele>80</ele>
        <time>2011-04-15T09:29:36Z</time>
      </trkpt>
      <trkpt lat="48.54236" lon="2.11429">
        <ele>80</ele>
        <time>2011-04-15T09:29:38Z</time>
      </trkpt>
      <trkpt lat="48.54235" lon="2.11428">
        <ele>80</ele>
        <time>2011-04-15T09:29:41Z</time>
      </trkpt>
      <trkpt lat="48.54236" lon="2.11427">
        <ele>80</ele>
        <time>2011-04-15T09:29:44Z</time>
      </trkpt>
      <trkpt lat="48.54235" lon="2.11428">
        <ele>81</ele>
        <time>2011-04-15T09:30:02Z</time>
      </trkpt>
      <trkpt lat="48.54235" lon="2.11425">
        <ele>82</ele>
        <time>2011-04-15T09:30:05Z</time>
      </trkpt>
      <trkpt lat="48.54234" lon="2.11422">
        <ele>82</ele>
        <time>2011-04-15T09:30:07Z</time>
      </trkpt>
      <trkpt lat="48.54233" lon="2.11419">
        <ele>82</ele>
        <time>2011-04-15T09:30:09Z</time>
      </trkpt>
      <trkpt lat="48.54231" lon="2.11419">
        <ele>82</ele>
        <time>2011-04-15T09:30:10Z</time>
      </trkpt>
      <trkpt lat="48.5423" lon="2.11418">
        <ele>82</ele>
        <time>2011-04-15T09:30:11Z</time>
      </trkpt>
      <trkpt lat="48.54229" lon="2.11418">
        <ele>82</ele>
        <time>2011-04-15T09:30:13Z</time>
      </trkpt>
      <trkpt lat="48.54227" lon="2.11417">
        <ele>82</ele>
        <time>2011-04-15T09:30:17Z</time>
      </trkpt>
      <trkpt lat="48.54225" lon="2.11418">
        <ele>82</ele>
        <time>2011-04-15T09:30:19Z</time>
      </trkpt>
      <trkpt lat="48.54223" lon="2.11419">
        <ele>82</ele>
        <time>2011-04-15T09:30:21Z</time>
      </trkpt>
      <trkpt lat="48.54221" lon="2.1142">
        <ele>82</ele>
        <time>2011-04-15T09:30:22Z</time>
      </trkpt>
      <trkpt lat="48.5422" lon="2.11421">
        <ele>82</ele>
        <time>2011-04-15T09:30:23Z</time>
      </trkpt>
      <trkpt lat="48.54219" lon="2.11422">
        <ele>82</ele>
        <time>2011-04-15T09:30:24Z</time>
      </trkpt>
      <trkpt lat="48.54217" lon="2.11424">
        <ele>82</ele>
        <time>2011-04-15T09:30:26Z</time>
      </trkpt>
      <trkpt lat="48.54214" lon="2.11426">
        <ele>82</ele>
        <time>2011-04-15T09:30:28Z</time>
      </trkpt>
      <trkpt lat="48.54212" lon="2.11427">
        <ele>82</ele>
        <time>2011-04-15T09:30:29Z</time>
      </trkpt>
      <trkpt lat="48.5421" lon="2.11428">
        <ele>82</ele>
        <time>2011-04-15T09:30:30Z</time>
      </trkpt>
      <trkpt lat="48.54209" lon="2.11429">
        <ele>82</ele>
        <time>2011-04-15T09:30:31Z</time>
      </trkpt>
      <trkpt lat="48.54207" lon="2.1143">
        <ele>83</ele>
        <time>2011-04-15T09:30:32Z</time>
      </trkpt>
      <trkpt lat="48.54206" lon="2.11431">
        <ele>83</ele>
        <time>2011-04-15T09:30:33Z</time>
      </trkpt>
      <trkpt lat="48.54205" lon="2.11431">
        <ele>84</ele>
        <time>2011-04-15T09:30:34Z</time>
      </trkpt>
      <trkpt lat="48.54203" lon="2.11433">
        <ele>84</ele>
        <time>2011-04-15T09:30:35Z</time>
      </trkpt>
      <trkpt lat="48.54201" lon="2.11434">
        <ele>85</ele>
        <time>2011-04-15T09:30:36Z</time>
      </trkpt>
      <trkpt lat="48.542" lon="2.11435">
        <ele>85</ele>
        <time>2011-04-15T09:30:37Z</time>
      </trkpt>
      <trkpt lat="48.54199" lon="2.11436">
        <ele>85</ele>
        <time>2011-04-15T09:30:38Z</time>
      </trkpt>
      <trkpt lat="48.54197" lon="2.11438">
        <ele>85</ele>
        <time>2011-04-15T09:30:39Z</time>
      </trkpt>
      <trkpt lat="48.54196" lon="2.11439">
        <ele>85</ele>
        <time>2011-04-15T09:30:40Z</time>
      </trkpt>
      <trkpt lat="48.54194" lon="2.1144">
        <ele>86</ele>
        <time>2011-04-15T09:30:41Z</time>
      </trkpt>
      <trkpt lat="48.54193" lon="2.11441">
        <ele>86</ele>
        <time>2011-04-15T09:30:42Z</time>
      </trkpt>
      <trkpt lat="48.54191" lon="2.11442">
        <ele>86</ele>
        <time>2011-04-15T09:30:43Z</time>
      </trkpt>
      <trkpt lat="48.54189" lon="2.11444">
        <ele>86</ele>
        <time>2011-04-15T09:30:44Z</time>
      </trkpt>
      <trkpt lat="48.54187" lon="2.11444">
        <ele>86</ele>
        <time>2011-04-15T09:30:45Z</time>
      </trkpt>
      <trkpt lat="48.54186" lon="2.11445">
        <ele>86</ele>
        <time>2011-04-15T09:30:46Z</time>
      </trkpt>
      <trkpt lat="48.54184" lon="2.11446">
        <ele>86</ele>
        <time>2011-04-15T09:30:47Z</time>
      </trkpt>
      <trkpt lat="48.54182" lon="2.11447">
        <ele>86</ele>
        <time>2011-04-15T09:30:48Z</time>
      </trkpt>
      <trkpt lat="48.54181" lon="2.11449">
        <ele>86</ele>
        <time>2011-04-15T09:30:49Z</time>
      </trkpt>
      <trkpt lat="48.54179" lon="2.1145">
        <ele>86</ele>
        <time>2011-04-15T09:30:50Z</time>
      </trkpt>
      <trkpt lat="48.54178" lon="2.11451">
        <ele>87</ele>
        <time>2011-04-15T09:30:51Z</time>
      </trkpt>
      <trkpt lat="48.54176" lon="2.11452">
        <ele>87</ele>
        <time>2011-04-15T09:30:52Z</time>
      </trkpt>
      <trkpt lat="48.54175" lon="2.11454">
        <ele>87</ele>
        <time>2011-04-15T09:30:53Z</time>
      </trkpt>
      <trkpt lat="48.54174" lon="2.11455">
        <ele>88</ele>
        <time>2011-04-15T09:30:54Z</time>
      </trkpt>
      <trkpt lat="48.54172" lon="2.11456">
        <ele>88</ele>
        <time>2011-04-15T09:30:55Z</time>
      </trkpt>
      <trkpt lat="48.5417" lon="2.11457">
        <ele>88</ele>
        <time>2011-04-15T09:30:56Z</time>
      </trkpt>
      <trkpt lat="48.54169" lon="2.11459">
        <ele>88</ele>
        <time>2011-04-15T09:30:57Z</time>
      </trkpt>
      <trkpt lat="48.54168" lon="2.1146">
        <ele>88</ele>
        <time>2011-04-15T09:30:58Z</time>
      </trkpt>
      <trkpt lat="48.54166" lon="2.11461">
        <ele>89</ele>
        <time>2011-04-15T09:30:59Z</time>
      </trkpt>
      <trkpt lat="48.54164" lon="2.11462">
        <ele>89</ele>
        <time>2011-04-15T09:31:00Z</time>
      </trkpt>
      <trkpt lat="48.54162" lon="2.11464">
        <ele>89</ele>
        <time>2011-04-15T09:31:02Z</time>
      </trkpt>
      <trkpt lat="48.5416" lon="2.11466">
        <ele>89</ele>
        <time>2011-04-15T09:31:03Z</time>
      </trkpt>
      <trkpt lat="48.54159" lon="2.11467">
        <ele>89</ele>
        <time>2011-04-15T09:31:04Z</time>
      </trkpt>
      <trkpt lat="48.54157" lon="2.1147">
        <ele>90</ele>
        <time>2011-04-15T09:31:06Z</time>
      </trkpt>
      <trkpt lat="48.54156" lon="2.11472">
        <ele>91</ele>
        <time>2011-04-15T09:31:07Z</time>
      </trkpt>
      <trkpt lat="48.54153" lon="2.11475">
        <ele>92</ele>
        <time>2011-04-15T09:31:09Z</time>
      </trkpt>
      <trkpt lat="48.54152" lon="2.11475">
        <ele>92</ele>
        <time>2011-04-15T09:31:10Z</time>
      </trkpt>
      <trkpt lat="48.5415" lon="2.11477">
        <ele>93</ele>
        <time>2011-04-15T09:31:11Z</time>
      </trkpt>
      <trkpt lat="48.54149" lon="2.11477">
        <ele>93</ele>
        <time>2011-04-15T09:31:12Z</time>
      </trkpt>
      <trkpt lat="48.54146" lon="2.11479">
        <ele>94</ele>
        <time>2011-04-15T09:31:14Z</time>
      </trkpt>
      <trkpt lat="48.54145" lon="2.1148">
        <ele>94</ele>
        <time>2011-04-15T09:31:15Z</time>
      </trkpt>
      <trkpt lat="48.54143" lon="2.11481">
        <ele>94</ele>
        <time>2011-04-15T09:31:16Z</time>
      </trkpt>
      <trkpt lat="48.54142" lon="2.11482">
        <ele>95</ele>
        <time>2011-04-15T09:31:17Z</time>
      </trkpt>
      <trkpt lat="48.54139" lon="2.11485">
        <ele>96</ele>
        <time>2011-04-15T09:31:19Z</time>
      </trkpt>
      <trkpt lat="48.54138" lon="2.11486">
        <ele>97</ele>
        <time>2011-04-15T09:31:21Z</time>
      </trkpt>
      <trkpt lat="48.54135" lon="2.11487">
        <ele>97</ele>
        <time>2011-04-15T09:31:23Z</time>
      </trkpt>
      <trkpt lat="48.54134" lon="2.11487">
        <ele>97</ele>
        <time>2011-04-15T09:31:24Z</time>
      </trkpt>
      <trkpt lat="48.54132" lon="2.11488">
        <ele>97</ele>
        <time>2011-04-15T09:31:25Z</time>
      </trkpt>
      <trkpt lat="48.54131" lon="2.11489">
        <ele>97</ele>
        <time>2011-04-15T09:31:26Z</time>
      </trkpt>
      <trkpt lat="48.54129" lon="2.1149">
        <ele>97</ele>
        <time>2011-04-15T09:31:27Z</time>
      </trkpt>
      <trkpt lat="48.54127" lon="2.11491">
        <ele>97</ele>
        <time>2011-04-15T09:31:28Z</time>
      </trkpt>
      <trkpt lat="48.54126" lon="2.11492">
        <ele>97</ele>
        <time>2011-04-15T09:31:29Z</time>
      </trkpt>
      <trkpt lat="48.54124" lon="2.11492">
        <ele>97</ele>
        <time>2011-04-15T09:31:30Z</time>
      </trkpt>
      <trkpt lat="48.54122" lon="2.11493">
        <ele>97</ele>
        <time>2011-04-15T09:31:31Z</time>
      </trkpt>
      <trkpt lat="48.54121" lon="2.11494">
        <ele>97</ele>
        <time>2011-04-15T09:31:32Z</time>
      </trkpt>
      <trkpt lat="48.54119" lon="2.11495">
        <ele>97</ele>
        <time>2011-04-15T09:31:33Z</time>
      </trkpt>
      <trkpt lat="48.54118" lon="2.11496">
        <ele>97</ele>
        <time>2011-04-15T09:31:34Z</time>
      </trkpt>
      <trkpt lat="48.54116" lon="2.11496">
        <ele>97</ele>
        <time>2011-04-15T09:31:35Z</time>
      </trkpt>
      <trkpt lat="48.54115" lon="2.11497">
        <ele>97</ele>
        <time>2011-04-15T09:31:36Z</time>
      </trkpt>
      <trkpt lat="48.54113" lon="2.11498">
        <ele>97</ele>
        <time>2011-04-15T09:31:37Z</time>
      </trkpt>
      <trkpt lat="48.54112" lon="2.11499">
        <ele>97</ele>
        <time>2011-04-15T09:31:38Z</time>
      </trkpt>
      <trkpt lat="48.54111" lon="2.115">
        <ele>97</ele>
        <time>2011-04-15T09:31:39Z</time>
      </trkpt>
      <trkpt lat="48.54109" lon="2.11501">
        <ele>97</ele>
        <time>2011-04-15T09:31:40Z</time>
      </trkpt>
      <trkpt lat="48.54106" lon="2.11502">
        <ele>97</ele>
        <time>2011-04-15T09:31:42Z</time>
      </trkpt>
      <trkpt lat="48.54105" lon="2.11502">
        <ele>97</ele>
        <time>2011-04-15T09:31:43Z</time>
      </trkpt>
      <trkpt lat="48.54103" lon="2.11503">
        <ele>97</ele>
        <time>2011-04-15T09:31:44Z</time>
      </trkpt>
      <trkpt lat="48.54102" lon="2.11503">
        <ele>97</ele>
        <time>2011-04-15T09:31:45Z</time>
      </trkpt>
      <trkpt lat="48.541" lon="2.11503">
        <ele>97</ele>
        <time>2011-04-15T09:31:46Z</time>
      </trkpt>
      <trkpt lat="48.54099" lon="2.11503">
        <ele>97</ele>
        <time>2011-04-15T09:31:47Z</time>
      </trkpt>
      <trkpt lat="48.54098" lon="2.11503">
        <ele>98</ele>
        <time>2011-04-15T09:31:48Z</time>
      </trkpt>
      <trkpt lat="48.54096" lon="2.11503">
        <ele>98</ele>
        <time>2011-04-15T09:31:49Z</time>
      </trkpt>
      <trkpt lat="48.54095" lon="2.11503">
        <ele>99</ele>
        <time>2011-04-15T09:31:50Z</time>
      </trkpt>
      <trkpt lat="48.54094" lon="2.11504">
        <ele>100</ele>
        <time>2011-04-15T09:31:51Z</time>
      </trkpt>
      <trkpt lat="48.54092" lon="2.11504">
        <ele>100</ele>
        <time>2011-04-15T09:31:52Z</time>
      </trkpt>
      <trkpt lat="48.54091" lon="2.11505">
        <ele>101</ele>
        <time>2011-04-15T09:31:53Z</time>
      </trkpt>
      <trkpt lat="48.54089" lon="2.11505">
        <ele>102</ele>
        <time>2011-04-15T09:31:54Z</time>
      </trkpt>
      <trkpt lat="48.54088" lon="2.11506">
        <ele>102</ele>
        <time>2011-04-15T09:31:55Z</time>
      </trkpt>
      <trkpt lat="48.54087" lon="2.11506">
        <ele>103</ele>
        <time>2011-04-15T09:31:56Z</time>
      </trkpt>
      <trkpt lat="48.54086" lon="2.11506">
        <ele>103</ele>
        <time>2011-04-15T09:31:57Z</time>
      </trkpt>
      <trkpt lat="48.54084" lon="2.11507">
        <ele>104</ele>
        <time>2011-04-15T09:31:58Z</time>
      </trkpt>
      <trkpt lat="48.54083" lon="2.11507">
        <ele>105</ele>
        <time>2011-04-15T09:31:59Z</time>
      </trkpt>
      <trkpt lat="48.54082" lon="2.11508">
        <ele>106</ele>
        <time>2011-04-15T09:32:00Z</time>
      </trkpt>
      <trkpt lat="48.54081" lon="2.11508">
        <ele>106</ele>
        <time>2011-04-15T09:32:01Z</time>
      </trkpt>
      <trkpt lat="48.54079" lon="2.11509">
        <ele>107</ele>
        <time>2011-04-15T09:32:02Z</time>
      </trkpt>
      <trkpt lat="48.54077" lon="2.11511">
        <ele>108</ele>
        <time>2011-04-15T09:32:04Z</time>
      </trkpt>
      <trkpt lat="48.54075" lon="2.11513">
        <ele>109</ele>
        <time>2011-04-15T09:32:06Z</time>
      </trkpt>
      <trkpt lat="48.54073" lon="2.11513">
        <ele>110</ele>
        <time>2011-04-15T09:32:07Z</time>
      </trkpt>
      <trkpt lat="48.54071" lon="2.11514">
        <ele>111</ele>
        <time>2011-04-15T09:32:08Z</time>
      </trkpt>
      <trkpt lat="48.54069" lon="2.11515">
        <ele>111</ele>
        <time>2011-04-15T09:32:09Z</time>
      </trkpt>
      <trkpt lat="48.54068" lon="2.11516">
        <ele>112</ele>
        <time>2011-04-15T09:32:10Z</time>
      </trkpt>
      <trkpt lat="48.54067" lon="2.11516">
        <ele>113</ele>
        <time>2011-04-15T09:32:11Z</time>
      </trkpt>
      <trkpt lat="48.54065" lon="2.11517">
        <ele>114</ele>
        <time>2011-04-15T09:32:12Z</time>
      </trkpt>
      <trkpt lat="48.54064" lon="2.11517">
        <ele>114</ele>
        <time>2011-04-15T09:32:13Z</time>
      </trkpt>
      <trkpt lat="48.54063" lon="2.11517">
        <ele>115</ele>
        <time>2011-04-15T09:32:14Z</time>
      </trkpt>
      <trkpt lat="48.54062" lon="2.11518">
        <ele>115</ele>
        <time>2011-04-15T09:32:15Z</time>
      </trkpt>
      <trkpt lat="48.5406" lon="2.11518">
        <ele>115</ele>
        <time>2011-04-15T09:32:16Z</time>
      </trkpt>
      <trkpt lat="48.54059" lon="2.11518">
        <ele>116</ele>
        <time>2011-04-15T09:32:17Z</time>
      </trkpt>
      <trkpt lat="48.54057" lon="2.11518">
        <ele>116</ele>
        <time>2011-04-15T09:32:18Z</time>
      </trkpt>
      <trkpt lat="48.54056" lon="2.11519">
        <ele>116</ele>
        <time>2011-04-15T09:32:19Z</time>
      </trkpt>
      <trkpt lat="48.54054" lon="2.11519">
        <ele>117</ele>
        <time>2011-04-15T09:32:21Z</time>
      </trkpt>
      <trkpt lat="48.54052" lon="2.11519">
        <ele>117</ele>
        <time>2011-04-15T09:32:22Z</time>
      </trkpt>
      <trkpt lat="48.54051" lon="2.11519">
        <ele>117</ele>
        <time>2011-04-15T09:32:23Z</time>
      </trkpt>
      <trkpt lat="48.54049" lon="2.1152">
        <ele>117</ele>
        <time>2011-04-15T09:32:24Z</time>
      </trkpt>
      <trkpt lat="48.54048" lon="2.1152">
        <ele>118</ele>
        <time>2011-04-15T09:32:25Z</time>
      </trkpt>
      <trkpt lat="48.54046" lon="2.11521">
        <ele>119</ele>
        <time>2011-04-15T09:32:26Z</time>
      </trkpt>
      <trkpt lat="48.54044" lon="2.11522">
        <ele>120</ele>
        <time>2011-04-15T09:32:27Z</time>
      </trkpt>
      <trkpt lat="48.54043" lon="2.11522">
        <ele>121</ele>
        <time>2011-04-15T09:32:28Z</time>
      </trkpt>
      <trkpt lat="48.54041" lon="2.11522">
        <ele>122</ele>
        <time>2011-04-15T09:32:29Z</time>
      </trkpt>
      <trkpt lat="48.54038" lon="2.11523">
        <ele>123</ele>
        <time>2011-04-15T09:32:30Z</time>
      </trkpt>
      <trkpt lat="48.54037" lon="2.11523">
        <ele>124</ele>
        <time>2011-04-15T09:32:31Z</time>
      </trkpt>
      <trkpt lat="48.54036" lon="2.11523">
        <ele>125</ele>
        <time>2011-04-15T09:32:32Z</time>
      </trkpt>
      <trkpt lat="48.54034" lon="2.11523">
        <ele>126</ele>
        <time>2011-04-15T09:32:34Z</time>
      </trkpt>
      <trkpt lat="48.54032" lon="2.11523">
        <ele>126</ele>
        <time>2011-04-15T09:32:35Z</time>
      </trkpt>
      <trkpt lat="48.5403" lon="2.11522">
        <ele>126</ele>
        <time>2011-04-15T09:32:36Z</time>
      </trkpt>
      <trkpt lat="48.54028" lon="2.1152">
        <ele>126</ele>
        <time>2011-04-15T09:32:38Z</time>
      </trkpt>
      <trkpt lat="48.54027" lon="2.1152">
        <ele>126</ele>
        <time>2011-04-15T09:32:39Z</time>
      </trkpt>
      <trkpt lat="48.54025" lon="2.11519">
        <ele>126</ele>
        <time>2011-04-15T09:32:40Z</time>
      </trkpt>
      <trkpt lat="48.54023" lon="2.11519">
        <ele>126</ele>
        <time>2011-04-15T09:32:42Z</time>
      </trkpt>
      <trkpt lat="48.54022" lon="2.11519">
        <ele>126</ele>
        <time>2011-04-15T09:32:43Z</time>
      </trkpt>
      <trkpt lat="48.5402" lon="2.11519">
        <ele>126</ele>
        <time>2011-04-15T09:32:44Z</time>
      </trkpt>
      <trkpt lat="48.54018" lon="2.1152">
        <ele>126</ele>
        <time>2011-04-15T09:32:46Z</time>
      </trkpt>
      <trkpt lat="48.54017" lon="2.1152">
        <ele>126</ele>
        <time>2011-04-15T09:32:47Z</time>
      </trkpt>
      <trkpt lat="48.54016" lon="2.1152">
        <ele>126</ele>
        <time>2011-04-15T09:32:48Z</time>
      </trkpt>
      <trkpt lat="48.54014" lon="2.11521">
        <ele>126</ele>
        <time>2011-04-15T09:32:49Z</time>
      </trkpt>
      <trkpt lat="48.54012" lon="2.11522">
        <ele>125</ele>
        <time>2011-04-15T09:32:50Z</time>
      </trkpt>
      <trkpt lat="48.54011" lon="2.11523">
        <ele>125</ele>
        <time>2011-04-15T09:32:51Z</time>
      </trkpt>
      <trkpt lat="48.54009" lon="2.11524">
        <ele>125</ele>
        <time>2011-04-15T09:32:52Z</time>
      </trkpt>
      <trkpt lat="48.54008" lon="2.11524">
        <ele>125</ele>
        <time>2011-04-15T09:32:53Z</time>
      </trkpt>
      <trkpt lat="48.54007" lon="2.11525">
        <ele>125</ele>
        <time>2011-04-15T09:32:54Z</time>
      </trkpt>
      <trkpt lat="48.54005" lon="2.11527">
        <ele>125</ele>
        <time>2011-04-15T09:32:56Z</time>
      </trkpt>
      <trkpt lat="48.54003" lon="2.11527">
        <ele>125</ele>
        <time>2011-04-15T09:32:57Z</time>
      </trkpt>
      <trkpt lat="48.54001" lon="2.11527">
        <ele>125</ele>
        <time>2011-04-15T09:32:58Z</time>
      </trkpt>
      <trkpt lat="48.54" lon="2.11528">
        <ele>125</ele>
        <time>2011-04-15T09:32:59Z</time>
      </trkpt>
      <trkpt lat="48.53998" lon="2.11529">
        <ele>125</ele>
        <time>2011-04-15T09:33:00Z</time>
      </trkpt>
      <trkpt lat="48.53996" lon="2.11529">
        <ele>125</ele>
        <time>2011-04-15T09:33:02Z</time>
      </trkpt>
      <trkpt lat="48.53995" lon="2.1153">
        <ele>125</ele>
        <time>2011-04-15T09:33:03Z</time>
      </trkpt>
      <trkpt lat="48.53994" lon="2.1153">
        <ele>125</ele>
        <time>2011-04-15T09:33:04Z</time>
      </trkpt>
      <trkpt lat="48.53993" lon="2.11531">
        <ele>125</ele>
        <time>2011-04-15T09:33:05Z</time>
      </trkpt>
      <trkpt lat="48.53991" lon="2.11532">
        <ele>125</ele>
        <time>2011-04-15T09:33:06Z</time>
      </trkpt>
      <trkpt lat="48.5399" lon="2.11532">
        <ele>125</ele>
        <time>2011-04-15T09:33:07Z</time>
      </trkpt>
      <trkpt lat="48.53988" lon="2.11534">
        <ele>125</ele>
        <time>2011-04-15T09:33:09Z</time>
      </trkpt>
      <trkpt lat="48.53986" lon="2.11535">
        <ele>125</ele>
        <time>2011-04-15T09:33:10Z</time>
      </trkpt>
      <trkpt lat="48.53984" lon="2.11537">
        <ele>126</ele>
        <time>2011-04-15T09:33:12Z</time>
      </trkpt>
      <trkpt lat="48.53983" lon="2.11538">
        <ele>127</ele>
        <time>2011-04-15T09:33:13Z</time>
      </trkpt>
      <trkpt lat="48.53981" lon="2.1154">
        <ele>128</ele>
        <time>2011-04-15T09:33:14Z</time>
      </trkpt>
      <trkpt lat="48.53979" lon="2.11541">
        <ele>129</ele>
        <time>2011-04-15T09:33:15Z</time>
      </trkpt>
      <trkpt lat="48.53978" lon="2.11542">
        <ele>129</ele>
        <time>2011-04-15T09:33:16Z</time>
      </trkpt>
      <trkpt lat="48.53977" lon="2.11543">
        <ele>129</ele>
        <time>2011-04-15T09:33:17Z</time>
      </trkpt>
      <trkpt lat="48.53975" lon="2.11544">
        <ele>130</ele>
        <time>2011-04-15T09:33:19Z</time>
      </trkpt>
      <trkpt lat="48.53974" lon="2.11546">
        <ele>130</ele>
        <time>2011-04-15T09:33:20Z</time>
      </trkpt>
      <trkpt lat="48.53972" lon="2.11548">
        <ele>130</ele>
        <time>2011-04-15T09:33:22Z</time>
      </trkpt>
      <trkpt lat="48.53971" lon="2.1155">
        <ele>130</ele>
        <time>2011-04-15T09:33:23Z</time>
      </trkpt>
      <trkpt lat="48.53969" lon="2.11551">
        <ele>130</ele>
        <time>2011-04-15T09:33:24Z</time>
      </trkpt>
      <trkpt lat="48.53968" lon="2.11552">
        <ele>130</ele>
        <time>2011-04-15T09:33:25Z</time>
      </trkpt>
      <trkpt lat="48.53966" lon="2.11554">
        <ele>130</ele>
        <time>2011-04-15T09:33:27Z</time>
      </trkpt>
      <trkpt lat="48.53965" lon="2.11556">
        <ele>130</ele>
        <time>2011-04-15T09:33:28Z</time>
      </trkpt>
      <trkpt lat="48.53965" lon="2.11558">
        <ele>130</ele>
        <time>2011-04-15T09:33:29Z</time>
      </trkpt>
      <trkpt lat="48.53965" lon="2.1156">
        <ele>131</ele>
        <time>2011-04-15T09:33:30Z</time>
      </trkpt>
      <trkpt lat="48.53963" lon="2.11561">
        <ele>132</ele>
        <time>2011-04-15T09:33:31Z</time>
      </trkpt>
      <trkpt lat="48.53961" lon="2.11564">
        <ele>133</ele>
        <time>2011-04-15T09:33:33Z</time>
      </trkpt>
      <trkpt lat="48.5396" lon="2.11566">
        <ele>134</ele>
        <time>2011-04-15T09:33:34Z</time>
      </trkpt>
      <trkpt lat="48.53958" lon="2.11569">
        <ele>135</ele>
        <time>2011-04-15T09:33:36Z</time>
      </trkpt>
      <trkpt lat="48.53957" lon="2.11571">
        <ele>135</ele>
        <time>2011-04-15T09:33:37Z</time>
      </trkpt>
      <trkpt lat="48.53956" lon="2.11573">
        <ele>136</ele>
        <time>2011-04-15T09:33:39Z</time>
      </trkpt>
      <trkpt lat="48.53955" lon="2.11575">
        <ele>137</ele>
        <time>2011-04-15T09:33:40Z</time>
      </trkpt>
      <trkpt lat="48.53954" lon="2.11577">
        <ele>137</ele>
        <time>2011-04-15T09:33:41Z</time>
      </trkpt>
      <trkpt lat="48.53953" lon="2.11579">
        <ele>138</ele>
        <time>2011-04-15T09:33:42Z</time>
      </trkpt>
      <trkpt lat="48.53952" lon="2.11581">
        <ele>139</ele>
        <time>2011-04-15T09:33:44Z</time>
      </trkpt>
      <trkpt lat="48.53951" lon="2.11584">
        <ele>140</ele>
        <time>2011-04-15T09:33:46Z</time>
      </trkpt>
      <trkpt lat="48.5395" lon="2.11587">
        <ele>140</ele>
        <time>2011-04-15T09:33:48Z</time>
      </trkpt>
      <trkpt lat="48.53949" lon="2.1159">
        <ele>140</ele>
        <time>2011-04-15T09:33:50Z</time>
      </trkpt>
      <trkpt lat="48.53947" lon="2.11593">
        <ele>140</ele>
        <time>2011-04-15T09:33:52Z</time>
      </trkpt>
      <trkpt lat="48.53946" lon="2.11596">
        <ele>140</ele>
        <time>2011-04-15T09:33:54Z</time>
      </trkpt>
      <trkpt lat="48.53945" lon="2.11598">
        <ele>140</ele>
        <time>2011-04-15T09:33:56Z</time>
      </trkpt>
      <trkpt lat="48.53944" lon="2.116">
        <ele>140</ele>
        <time>2011-04-15T09:33:58Z</time>
      </trkpt>
      <trkpt lat="48.53943" lon="2.11603">
        <ele>140</ele>
        <time>2011-04-15T09:34:00Z</time>
      </trkpt>
      <trkpt lat="48.53942" lon="2.11605">
        <ele>140</ele>
        <time>2011-04-15T09:34:01Z</time>
      </trkpt>
      <trkpt lat="48.53941" lon="2.11606">
        <ele>140</ele>
        <time>2011-04-15T09:34:02Z</time>
      </trkpt>
      <trkpt lat="48.53941" lon="2.1161">
        <ele>140</ele>
        <time>2011-04-15T09:34:04Z</time>
      </trkpt>
      <trkpt lat="48.5394" lon="2.11612">
        <ele>140</ele>
        <time>2011-04-15T09:34:05Z</time>
      </trkpt>
      <trkpt lat="48.53941" lon="2.11614">
        <ele>140</ele>
        <time>2011-04-15T09:34:06Z</time>
      </trkpt>
      <trkpt lat="48.5394" lon="2.11617">
        <ele>140</ele>
        <time>2011-04-15T09:34:07Z</time>
      </trkpt>
      <trkpt lat="48.53939" lon="2.11618">
        <ele>140</ele>
        <time>2011-04-15T09:34:08Z</time>
      </trkpt>
      <trkpt lat="48.53938" lon="2.11621">
        <ele>140</ele>
        <time>2011-04-15T09:34:09Z</time>
      </trkpt>
      <trkpt lat="48.53939" lon="2.11623">
        <ele>140</ele>
        <time>2011-04-15T09:34:10Z</time>
      </trkpt>
      <trkpt lat="48.53939" lon="2.11627">
        <ele>140</ele>
        <time>2011-04-15T09:34:11Z</time>
      </trkpt>
      <trkpt lat="48.5394" lon="2.1163">
        <ele>140</ele>
        <time>2011-04-15T09:34:12Z</time>
      </trkpt>
      <trkpt lat="48.5394" lon="2.11634">
        <ele>140</ele>
        <time>2011-04-15T09:34:13Z</time>
      </trkpt>
      <trkpt lat="48.5394" lon="2.11637">
        <ele>140</ele>
        <time>2011-04-15T09:34:14Z</time>
      </trkpt>
      <trkpt lat="48.53939" lon="2.11639">
        <ele>140</ele>
        <time>2011-04-15T09:34:15Z</time>
      </trkpt>
      <trkpt lat="48.53939" lon="2.11642">
        <ele>140</ele>
        <time>2011-04-15T09:34:16Z</time>
      </trkpt>
      <trkpt lat="48.53939" lon="2.11644">
        <ele>140</ele>
        <time>2011-04-15T09:34:17Z</time>
      </trkpt>
      <trkpt lat="48.53938" lon="2.11647">
        <ele>140</ele>
        <time>2011-04-15T09:34:18Z</time>
      </trkpt>
      <trkpt lat="48.53937" lon="2.11648">
        <ele>140</ele>
        <time>2011-04-15T09:34:19Z</time>
      </trkpt>
      <trkpt lat="48.53936" lon="2.11651">
        <ele>140</ele>
        <time>2011-04-15T09:34:20Z</time>
      </trkpt>
      <trkpt lat="48.53935" lon="2.11653">
        <ele>140</ele>
        <time>2011-04-15T09:34:21Z</time>
      </trkpt>
      <trkpt lat="48.53934" lon="2.11655">
        <ele>140</ele>
        <time>2011-04-15T09:34:22Z</time>
      </trkpt>
      <trkpt lat="48.53933" lon="2.11657">
        <ele>140</ele>
        <time>2011-04-15T09:34:23Z</time>
      </trkpt>
      <trkpt lat="48.53931" lon="2.11659">
        <ele>140</ele>
        <time>2011-04-15T09:34:24Z</time>
      </trkpt>
      <trkpt lat="48.5393" lon="2.11661">
        <ele>140</ele>
        <time>2011-04-15T09:34:25Z</time>
      </trkpt>
      <trkpt lat="48.5393" lon="2.11663">
        <ele>140</ele>
        <time>2011-04-15T09:34:26Z</time>
      </trkpt>
      <trkpt lat="48.53929" lon="2.11665">
        <ele>140</ele>
        <time>2011-04-15T09:34:27Z</time>
      </trkpt>
      <trkpt lat="48.53928" lon="2.11667">
        <ele>140</ele>
        <time>2011-04-15T09:34:28Z</time>
      </trkpt>
      <trkpt lat="48.53928" lon="2.11669">
        <ele>139</ele>
        <time>2011-04-15T09:34:29Z</time>
      </trkpt>
      <trkpt lat="48.53927" lon="2.11671">
        <ele>138</ele>
        <time>2011-04-15T09:34:30Z</time>
      </trkpt>
      <trkpt lat="48.53926" lon="2.11673">
        <ele>138</ele>
        <time>2011-04-15T09:34:31Z</time>
      </trkpt>
      <trkpt lat="48.53924" lon="2.11674">
        <ele>137</ele>
        <time>2011-04-15T09:34:32Z</time>
      </trkpt>
      <trkpt lat="48.53922" lon="2.11675">
        <ele>137</ele>
        <time>2011-04-15T09:34:33Z</time>
      </trkpt>
      <trkpt lat="48.5392" lon="2.11676">
        <ele>136</ele>
        <time>2011-04-15T09:34:34Z</time>
      </trkpt>
      <trkpt lat="48.53919" lon="2.11677">
        <ele>136</ele>
        <time>2011-04-15T09:34:35Z</time>
      </trkpt>
      <trkpt lat="48.53917" lon="2.11677">
        <ele>136</ele>
        <time>2011-04-15T09:34:36Z</time>
      </trkpt>
      <trkpt lat="48.53916" lon="2.11677">
        <ele>136</ele>
        <time>2011-04-15T09:34:37Z</time>
      </trkpt>
      <trkpt lat="48.53915" lon="2.11677">
        <ele>136</ele>
        <time>2011-04-15T09:34:38Z</time>
      </trkpt>
      <trkpt lat="48.53913" lon="2.11677">
        <ele>136</ele>
        <time>2011-04-15T09:34:39Z</time>
      </trkpt>
      <trkpt lat="48.53912" lon="2.11678">
        <ele>136</ele>
        <time>2011-04-15T09:34:40Z</time>
      </trkpt>
      <trkpt lat="48.5391" lon="2.11678">
        <ele>136</ele>
        <time>2011-04-15T09:34:41Z</time>
      </trkpt>
      <trkpt lat="48.53909" lon="2.11679">
        <ele>136</ele>
        <time>2011-04-15T09:34:42Z</time>
      </trkpt>
      <trkpt lat="48.53907" lon="2.11679">
        <ele>136</ele>
        <time>2011-04-15T09:34:43Z</time>
      </trkpt>
      <trkpt lat="48.53905" lon="2.11679">
        <ele>136</ele>
        <time>2011-04-15T09:34:44Z</time>
      </trkpt>
      <trkpt lat="48.53904" lon="2.11679">
        <ele>136</ele>
        <time>2011-04-15T09:34:45Z</time>
      </trkpt>
      <trkpt lat="48.53902" lon="2.11679">
        <ele>136</ele>
        <time>2011-04-15T09:34:46Z</time>
      </trkpt>
      <trkpt lat="48.539" lon="2.11679">
        <ele>136</ele>
        <time>2011-04-15T09:34:47Z</time>
      </trkpt>
      <trkpt lat="48.53898" lon="2.1168">
        <ele>136</ele>
        <time>2011-04-15T09:34:48Z</time>
      </trkpt>
      <trkpt lat="48.53897" lon="2.1168">
        <ele>136</ele>
        <time>2011-04-15T09:34:49Z</time>
      </trkpt>
      <trkpt lat="48.53895" lon="2.1168">
        <ele>136</ele>
        <time>2011-04-15T09:34:50Z</time>
      </trkpt>
      <trkpt lat="48.53894" lon="2.1168">
        <ele>136</ele>
        <time>2011-04-15T09:34:51Z</time>
      </trkpt>
      <trkpt lat="48.53892" lon="2.11681">
        <ele>136</ele>
        <time>2011-04-15T09:34:52Z</time>
      </trkpt>
      <trkpt lat="48.5389" lon="2.11681">
        <ele>136</ele>
        <time>2011-04-15T09:34:53Z</time>
      </trkpt>
      <trkpt lat="48.53889" lon="2.11681">
        <ele>136</ele>
        <time>2011-04-15T09:34:54Z</time>
      </trkpt>
      <trkpt lat="48.53887" lon="2.11681">
        <ele>136</ele>
        <time>2011-04-15T09:34:55Z</time>
      </trkpt>
      <trkpt lat="48.53886" lon="2.11681">
        <ele>136</ele>
        <time>2011-04-15T09:34:56Z</time>
      </trkpt>
      <trkpt lat="48.53884" lon="2.11681">
        <ele>136</ele>
        <time>2011-04-15T09:34:57Z</time>
      </trkpt>
      <trkpt lat="48.53883" lon="2.11681">
        <ele>136</ele>
        <time>2011-04-15T09:34:58Z</time>
      </trkpt>
      <trkpt lat="48.53881" lon="2.11681">
        <ele>136</ele>
        <time>2011-04-15T09:34:59Z</time>
      </trkpt>
      <trkpt lat="48.53879" lon="2.11681">
        <ele>136</ele>
        <time>2011-04-15T09:35:00Z</time>
      </trkpt>
      <trkpt lat="48.53878" lon="2.11681">
        <ele>136</ele>
        <time>2011-04-15T09:35:01Z</time>
      </trkpt>
      <trkpt lat="48.53877" lon="2.11681">
        <ele>136</ele>
        <time>2011-04-15T09:35:02Z</time>
      </trkpt>
      <trkpt lat="48.53875" lon="2.11681">
        <ele>136</ele>
        <time>2011-04-15T09:35:03Z</time>
      </trkpt>
      <trkpt lat="48.53874" lon="2.11681">
        <ele>136</ele>
        <time>2011-04-15T09:35:04Z</time>
      </trkpt>
      <trkpt lat="48.53872" lon="2.11681">
        <ele>136</ele>
        <time>2011-04-15T09:35:05Z</time>
      </trkpt>
      <trkpt lat="48.53871" lon="2.11681">
        <ele>136</ele>
        <time>2011-04-15T09:35:06Z</time>
      </trkpt>
      <trkpt lat="48.53869" lon="2.11681">
        <ele>136</ele>
        <time>2011-04-15T09:35:07Z</time>
      </trkpt>
      <trkpt lat="48.53868" lon="2.11681">
        <ele>136</ele>
        <time>2011-04-15T09:35:08Z</time>
      </trkpt>
      <trkpt lat="48.53866" lon="2.11681">
        <ele>136</ele>
        <time>2011-04-15T09:35:09Z</time>
      </trkpt>
      <trkpt lat="48.53865" lon="2.11681">
        <ele>136</ele>
        <time>2011-04-15T09:35:10Z</time>
      </trkpt>
      <trkpt lat="48.53863" lon="2.11681">
        <ele>136</ele>
        <time>2011-04-15T09:35:11Z</time>
      </trkpt>
      <trkpt lat="48.53862" lon="2.11681">
        <ele>136</ele>
        <time>2011-04-15T09:35:12Z</time>
      </trkpt>
      <trkpt lat="48.5386" lon="2.11681">
        <ele>136</ele>
        <time>2011-04-15T09:35:13Z</time>
      </trkpt>
      <trkpt lat="48.53859" lon="2.11681">
        <ele>136</ele>
        <time>2011-04-15T09:35:14Z</time>
      </trkpt>
      <trkpt lat="48.53857" lon="2.11681">
        <ele>136</ele>
        <time>2011-04-15T09:35:15Z</time>
      </trkpt>
      <trkpt lat="48.53856" lon="2.11681">
        <ele>136</ele>
        <time>2011-04-15T09:35:16Z</time>
      </trkpt>
      <trkpt lat="48.53854" lon="2.11681">
        <ele>136</ele>
        <time>2011-04-15T09:35:17Z</time>
      </trkpt>
      <trkpt lat="48.53853" lon="2.11681">
        <ele>136</ele>
        <time>2011-04-15T09:35:18Z</time>
      </trkpt>
      <trkpt lat="48.53851" lon="2.11681">
        <ele>136</ele>
        <time>2011-04-15T09:35:19Z</time>
      </trkpt>
      <trkpt lat="48.5385" lon="2.11681">
        <ele>136</ele>
        <time>2011-04-15T09:35:20Z</time>
      </trkpt>
      <trkpt lat="48.53848" lon="2.1168">
        <ele>136</ele>
        <time>2011-04-15T09:35:21Z</time>
      </trkpt>
      <trkpt lat="48.53847" lon="2.1168">
        <ele>136</ele>
        <time>2011-04-15T09:35:22Z</time>
      </trkpt>
      <trkpt lat="48.53846" lon="2.1168">
        <ele>136</ele>
        <time>2011-04-15T09:35:23Z</time>
      </trkpt>
      <trkpt lat="48.53844" lon="2.1168">
        <ele>136</ele>
        <time>2011-04-15T09:35:24Z</time>
      </trkpt>
      <trkpt lat="48.53843" lon="2.1168">
        <ele>136</ele>
        <time>2011-04-15T09:35:25Z</time>
      </trkpt>
      <trkpt lat="48.53841" lon="2.1168">
        <ele>136</ele>
        <time>2011-04-15T09:35:26Z</time>
      </trkpt>
      <trkpt lat="48.5384" lon="2.1168">
        <ele>136</ele>
        <time>2011-04-15T09:35:27Z</time>
      </trkpt>
      <trkpt lat="48.53838" lon="2.11679">
        <ele>136</ele>
        <time>2011-04-15T09:35:28Z</time>
      </trkpt>
      <trkpt lat="48.53837" lon="2.11679">
        <ele>136</ele>
        <time>2011-04-15T09:35:29Z</time>
      </trkpt>
      <trkpt lat="48.53835" lon="2.1168">
        <ele>136</ele>
        <time>2011-04-15T09:35:30Z</time>
      </trkpt>
      <trkpt lat="48.53834" lon="2.1168">
        <ele>136</ele>
        <time>2011-04-15T09:35:31Z</time>
      </trkpt>
      <trkpt lat="48.53833" lon="2.1168">
        <ele>136</ele>
        <time>2011-04-15T09:35:32Z</time>
      </trkpt>
      <trkpt lat="48.53831" lon="2.1168">
        <ele>136</ele>
        <time>2011-04-15T09:35:33Z</time>
      </trkpt>
      <trkpt lat="48.5383" lon="2.1168">
        <ele>136</ele>
        <time>2011-04-15T09:35:34Z</time>
      </trkpt>
      <trkpt lat="48.53829" lon="2.1168">
        <ele>136</ele>
        <time>2011-04-15T09:35:35Z</time>
      </trkpt>
      <trkpt lat="48.53827" lon="2.1168">
        <ele>136</ele>
        <time>2011-04-15T09:35:36Z</time>
      </trkpt>
      <trkpt lat="48.53826" lon="2.1168">
        <ele>136</ele>
        <time>2011-04-15T09:35:37Z</time>
      </trkpt>
      <trkpt lat="48.53825" lon="2.1168">
        <ele>136</ele>
        <time>2011-04-15T09:35:38Z</time>
      </trkpt>
      <trkpt lat="48.53823" lon="2.1168">
        <ele>136</ele>
        <time>2011-04-15T09:35:39Z</time>
      </trkpt>
      <trkpt lat="48.53822" lon="2.1168">
        <ele>136</ele>
        <time>2011-04-15T09:35:40Z</time>
      </trkpt>
      <trkpt lat="48.53821" lon="2.11679">
        <ele>136</ele>
        <time>2011-04-15T09:35:41Z</time>
      </trkpt>
      <trkpt lat="48.5382" lon="2.11679">
        <ele>136</ele>
        <time>2011-04-15T09:35:42Z</time>
      </trkpt>
      <trkpt lat="48.53818" lon="2.11678">
        <ele>136</ele>
        <time>2011-04-15T09:35:43Z</time>
      </trkpt>
      <trkpt lat="48.53817" lon="2.11678">
        <ele>136</ele>
        <time>2011-04-15T09:35:44Z</time>
      </trkpt>
      <trkpt lat="48.53816" lon="2.11678">
        <ele>136</ele>
        <time>2011-04-15T09:35:45Z</time>
      </trkpt>
      <trkpt lat="48.53814" lon="2.11678">
        <ele>136</ele>
        <time>2011-04-15T09:35:46Z</time>
      </trkpt>
      <trkpt lat="48.53813" lon="2.11678">
        <ele>136</ele>
        <time>2011-04-15T09:35:47Z</time>
      </trkpt>
      <trkpt lat="48.53812" lon="2.11678">
        <ele>136</ele>
        <time>2011-04-15T09:35:48Z</time>
      </trkpt>
      <trkpt lat="48.5381" lon="2.11678">
        <ele>136</ele>
        <time>2011-04-15T09:35:49Z</time>
      </trkpt>
      <trkpt lat="48.53809" lon="2.11678">
        <ele>136</ele>
        <time>2011-04-15T09:35:50Z</time>
      </trkpt>
      <trkpt lat="48.53808" lon="2.11677">
        <ele>136</ele>
        <time>2011-04-15T09:35:51Z</time>
      </trkpt>
      <trkpt lat="48.53806" lon="2.11677">
        <ele>136</ele>
        <time>2011-04-15T09:35:52Z</time>
      </trkpt>
      <trkpt lat="48.53805" lon="2.11677">
        <ele>136</ele>
        <time>2011-04-15T09:35:53Z</time>
      </trkpt>
      <trkpt lat="48.53803" lon="2.11677">
        <ele>136</ele>
        <time>2011-04-15T09:35:54Z</time>
      </trkpt>
      <trkpt lat="48.53802" lon="2.11677">
        <ele>136</ele>
        <time>2011-04-15T09:35:55Z</time>
      </trkpt>
      <trkpt lat="48.538" lon="2.11677">
        <ele>136</ele>
        <time>2011-04-15T09:35:56Z</time>
      </trkpt>
      <trkpt lat="48.53799" lon="2.11676">
        <ele>136</ele>
        <time>2011-04-15T09:35:57Z</time>
      </trkpt>
      <trkpt lat="48.53798" lon="2.11676">
        <ele>136</ele>
        <time>2011-04-15T09:35:58Z</time>
      </trkpt>
      <trkpt lat="48.53796" lon="2.11675">
        <ele>136</ele>
        <time>2011-04-15T09:35:59Z</time>
      </trkpt>
      <trkpt lat="48.53795" lon="2.11675">
        <ele>136</ele>
        <time>2011-04-15T09:36:00Z</time>
      </trkpt>
      <trkpt lat="48.53793" lon="2.11675">
        <ele>136</ele>
        <time>2011-04-15T09:36:01Z</time>
      </trkpt>
      <trkpt lat="48.53792" lon="2.11675">
        <ele>136</ele>
        <time>2011-04-15T09:36:02Z</time>
      </trkpt>
      <trkpt lat="48.53789" lon="2.11674">
        <ele>136</ele>
        <time>2011-04-15T09:36:03Z</time>
      </trkpt>
      <trkpt lat="48.53785" lon="2.11673">
        <ele>136</ele>
        <time>2011-04-15T09:36:04Z</time>
      </trkpt>
      <trkpt lat="48.53782" lon="2.11673">
        <ele>136</ele>
        <time>2011-04-15T09:36:05Z</time>
      </trkpt>
      <trkpt lat="48.53779" lon="2.11672">
        <ele>136</ele>
        <time>2011-04-15T09:36:06Z</time>
      </trkpt>
      <trkpt lat="48.53776" lon="2.11671">
        <ele>136</ele>
        <time>2011-04-15T09:36:07Z</time>
      </trkpt>
      <trkpt lat="48.53773" lon="2.11671">
        <ele>136</ele>
        <time>2011-04-15T09:36:08Z</time>
      </trkpt>
      <trkpt lat="48.53771" lon="2.1167">
        <ele>136</ele>
        <time>2011-04-15T09:36:09Z</time>
      </trkpt>
      <trkpt lat="48.53769" lon="2.1167">
        <ele>136</ele>
        <time>2011-04-15T09:36:10Z</time>
      </trkpt>
      <trkpt lat="48.53767" lon="2.1167">
        <ele>136</ele>
        <time>2011-04-15T09:36:11Z</time>
      </trkpt>
      <trkpt lat="48.53766" lon="2.11669">
        <ele>136</ele>
        <time>2011-04-15T09:36:12Z</time>
      </trkpt>
      <trkpt lat="48.53764" lon="2.11669">
        <ele>136</ele>
        <time>2011-04-15T09:36:13Z</time>
      </trkpt>
      <trkpt lat="48.53763" lon="2.11668">
        <ele>136</ele>
        <time>2011-04-15T09:36:14Z</time>
      </trkpt>
      <trkpt lat="48.53761" lon="2.11668">
        <ele>136</ele>
        <time>2011-04-15T09:36:15Z</time>
      </trkpt>
      <trkpt lat="48.5376" lon="2.11668">
        <ele>136</ele>
        <time>2011-04-15T09:36:16Z</time>
      </trkpt>
      <trkpt lat="48.53759" lon="2.11667">
        <ele>136</ele>
        <time>2011-04-15T09:36:17Z</time>
      </trkpt>
      <trkpt lat="48.53758" lon="2.11667">
        <ele>136</ele>
        <time>2011-04-15T09:36:18Z</time>
      </trkpt>
      <trkpt lat="48.53755" lon="2.11666">
        <ele>136</ele>
        <time>2011-04-15T09:36:20Z</time>
      </trkpt>
      <trkpt lat="48.53754" lon="2.11666">
        <ele>136</ele>
        <time>2011-04-15T09:36:21Z</time>
      </trkpt>
      <trkpt lat="48.53752" lon="2.11665">
        <ele>136</ele>
        <time>2011-04-15T09:36:23Z</time>
      </trkpt>
      <trkpt lat="48.53751" lon="2.11664">
        <ele>136</ele>
        <time>2011-04-15T09:36:24Z</time>
      </trkpt>
      <trkpt lat="48.53749" lon="2.11664">
        <ele>136</ele>
        <time>2011-04-15T09:36:25Z</time>
      </trkpt>
      <trkpt lat="48.53748" lon="2.11664">
        <ele>136</ele>
        <time>2011-04-15T09:36:26Z</time>
      </trkpt>
      <trkpt lat="48.53747" lon="2.11663">
        <ele>136</ele>
        <time>2011-04-15T09:36:27Z</time>
      </trkpt>
      <trkpt lat="48.53745" lon="2.11663">
        <ele>136</ele>
        <time>2011-04-15T09:36:28Z</time>
      </trkpt>
      <trkpt lat="48.53744" lon="2.11663">
        <ele>136</ele>
        <time>2011-04-15T09:36:29Z</time>
      </trkpt>
      <trkpt lat="48.53743" lon="2.11662">
        <ele>136</ele>
        <time>2011-04-15T09:36:30Z</time>
      </trkpt>
      <trkpt lat="48.53742" lon="2.11662">
        <ele>136</ele>
        <time>2011-04-15T09:36:31Z</time>
      </trkpt>
      <trkpt lat="48.5374" lon="2.11661">
        <ele>136</ele>
        <time>2011-04-15T09:36:32Z</time>
      </trkpt>
      <trkpt lat="48.53739" lon="2.11661">
        <ele>136</ele>
        <time>2011-04-15T09:36:33Z</time>
      </trkpt>
      <trkpt lat="48.53738" lon="2.11661">
        <ele>136</ele>
        <time>2011-04-15T09:36:34Z</time>
      </trkpt>
      <trkpt lat="48.53736" lon="2.11661">
        <ele>136</ele>
        <time>2011-04-15T09:36:35Z</time>
      </trkpt>
      <trkpt lat="48.53735" lon="2.11661">
        <ele>136</ele>
        <time>2011-04-15T09:36:36Z</time>
      </trkpt>
      <trkpt lat="48.53733" lon="2.11661">
        <ele>136</ele>
        <time>2011-04-15T09:36:37Z</time>
      </trkpt>
      <trkpt lat="48.53732" lon="2.11661">
        <ele>136</ele>
        <time>2011-04-15T09:36:38Z</time>
      </trkpt>
      <trkpt lat="48.5373" lon="2.1166">
        <ele>136</ele>
        <time>2011-04-15T09:36:39Z</time>
      </trkpt>
      <trkpt lat="48.53729" lon="2.1166">
        <ele>136</ele>
        <time>2011-04-15T09:36:40Z</time>
      </trkpt>
      <trkpt lat="48.53728" lon="2.1166">
        <ele>136</ele>
        <time>2011-04-15T09:36:41Z</time>
      </trkpt>
      <trkpt lat="48.53726" lon="2.11659">
        <ele>136</ele>
        <time>2011-04-15T09:36:42Z</time>
      </trkpt>
      <trkpt lat="48.53724" lon="2.11659">
        <ele>136</ele>
        <time>2011-04-15T09:36:43Z</time>
      </trkpt>
      <trkpt lat="48.53722" lon="2.11658">
        <ele>136</ele>
        <time>2011-04-15T09:36:44Z</time>
      </trkpt>
      <trkpt lat="48.53719" lon="2.11657">
        <ele>136</ele>
        <time>2011-04-15T09:36:45Z</time>
      </trkpt>
      <trkpt lat="48.53716" lon="2.11656">
        <ele>136</ele>
        <time>2011-04-15T09:36:46Z</time>
      </trkpt>
      <trkpt lat="48.53714" lon="2.11655">
        <ele>136</ele>
        <time>2011-04-15T09:36:47Z</time>
      </trkpt>
      <trkpt lat="48.53712" lon="2.11655">
        <ele>136</ele>
        <time>2011-04-15T09:36:48Z</time>
      </trkpt>
      <trkpt lat="48.5371" lon="2.11655">
        <ele>136</ele>
        <time>2011-04-15T09:36:49Z</time>
      </trkpt>
      <trkpt lat="48.53709" lon="2.11654">
        <ele>136</ele>
        <time>2011-04-15T09:36:50Z</time>
      </trkpt>
      <trkpt lat="48.53707" lon="2.11654">
        <ele>136</ele>
        <time>2011-04-15T09:36:51Z</time>
      </trkpt>
      <trkpt lat="48.53706" lon="2.11654">
        <ele>136</ele>
        <time>2011-04-15T09:36:52Z</time>
      </trkpt>
      <trkpt lat="48.53704" lon="2.11654">
        <ele>136</ele>
        <time>2011-04-15T09:36:53Z</time>
      </trkpt>
      <trkpt lat="48.53703" lon="2.11654">
        <ele>137</ele>
        <time>2011-04-15T09:36:54Z</time>
      </trkpt>
      <trkpt lat="48.53701" lon="2.11653">
        <ele>137</ele>
        <time>2011-04-15T09:36:55Z</time>
      </trkpt>
      <trkpt lat="48.537" lon="2.11653">
        <ele>137</ele>
        <time>2011-04-15T09:36:56Z</time>
      </trkpt>
      <trkpt lat="48.53698" lon="2.11653">
        <ele>137</ele>
        <time>2011-04-15T09:36:57Z</time>
      </trkpt>
      <trkpt lat="48.53697" lon="2.11653">
        <ele>137</ele>
        <time>2011-04-15T09:36:58Z</time>
      </trkpt>
      <trkpt lat="48.53695" lon="2.11653">
        <ele>137</ele>
        <time>2011-04-15T09:36:59Z</time>
      </trkpt>
      <trkpt lat="48.53693" lon="2.11652">
        <ele>137</ele>
        <time>2011-04-15T09:37:00Z</time>
      </trkpt>
      <trkpt lat="48.53692" lon="2.11652">
        <ele>137</ele>
        <time>2011-04-15T09:37:01Z</time>
      </trkpt>
      <trkpt lat="48.53691" lon="2.11652">
        <ele>138</ele>
        <time>2011-04-15T09:37:02Z</time>
      </trkpt>
      <trkpt lat="48.53689" lon="2.11652">
        <ele>138</ele>
        <time>2011-04-15T09:37:03Z</time>
      </trkpt>
      <trkpt lat="48.53688" lon="2.11651">
        <ele>138</ele>
        <time>2011-04-15T09:37:04Z</time>
      </trkpt>
      <trkpt lat="48.53686" lon="2.11652">
        <ele>138</ele>
        <time>2011-04-15T09:37:05Z</time>
      </trkpt>
      <trkpt lat="48.53685" lon="2.11652">
        <ele>138</ele>
        <time>2011-04-15T09:37:06Z</time>
      </trkpt>
      <trkpt lat="48.53683" lon="2.11652">
        <ele>138</ele>
        <time>2011-04-15T09:37:07Z</time>
      </trkpt>
      <trkpt lat="48.53682" lon="2.11652">
        <ele>138</ele>
        <time>2011-04-15T09:37:08Z</time>
      </trkpt>
      <trkpt lat="48.5368" lon="2.11652">
        <ele>138</ele>
        <time>2011-04-15T09:37:09Z</time>
      </trkpt>
      <trkpt lat="48.53679" lon="2.11652">
        <ele>139</ele>
        <time>2011-04-15T09:37:10Z</time>
      </trkpt>
      <trkpt lat="48.53678" lon="2.11651">
        <ele>139</ele>
        <time>2011-04-15T09:37:11Z</time>
      </trkpt>
      <trkpt lat="48.53676" lon="2.11652">
        <ele>139</ele>
        <time>2011-04-15T09:37:12Z</time>
      </trkpt>
      <trkpt lat="48.53674" lon="2.11652">
        <ele>139</ele>
        <time>2011-04-15T09:37:13Z</time>
      </trkpt>
      <trkpt lat="48.53672" lon="2.11652">
        <ele>139</ele>
        <time>2011-04-15T09:37:14Z</time>
      </trkpt>
      <trkpt lat="48.53671" lon="2.11652">
        <ele>139</ele>
        <time>2011-04-15T09:37:15Z</time>
      </trkpt>
      <trkpt lat="48.53669" lon="2.11652">
        <ele>139</ele>
        <time>2011-04-15T09:37:16Z</time>
      </trkpt>
      <trkpt lat="48.53667" lon="2.11652">
        <ele>139</ele>
        <time>2011-04-15T09:37:17Z</time>
      </trkpt>
      <trkpt lat="48.53666" lon="2.11652">
        <ele>139</ele>
        <time>2011-04-15T09:37:18Z</time>
      </trkpt>
      <trkpt lat="48.53664" lon="2.11652">
        <ele>139</ele>
        <time>2011-04-15T09:37:19Z</time>
      </trkpt>
      <trkpt lat="48.53662" lon="2.11652">
        <ele>139</ele>
        <time>2011-04-15T09:37:20Z</time>
      </trkpt>
      <trkpt lat="48.5366" lon="2.11653">
        <ele>140</ele>
        <time>2011-04-15T09:37:21Z</time>
      </trkpt>
      <trkpt lat="48.53658" lon="2.11653">
        <ele>140</ele>
        <time>2011-04-15T09:37:22Z</time>
      </trkpt>
      <trkpt lat="48.53657" lon="2.11653">
        <ele>140</ele>
        <time>2011-04-15T09:37:23Z</time>
      </trkpt>
      <trkpt lat="48.53655" lon="2.11654">
        <ele>140</ele>
        <time>2011-04-15T09:37:24Z</time>
      </trkpt>
      <trkpt lat="48.53654" lon="2.11654">
        <ele>140</ele>
        <time>2011-04-15T09:37:25Z</time>
      </trkpt>
      <trkpt lat="48.53652" lon="2.11655">
        <ele>140</ele>
        <time>2011-04-15T09:37:26Z</time>
      </trkpt>
      <trkpt lat="48.53651" lon="2.11655">
        <ele>140</ele>
        <time>2011-04-15T09:37:27Z</time>
      </trkpt>
      <trkpt lat="48.53649" lon="2.11655">
        <ele>141</ele>
        <time>2011-04-15T09:37:28Z</time>
      </trkpt>
      <trkpt lat="48.53647" lon="2.11656">
        <ele>141</ele>
        <time>2011-04-15T09:37:29Z</time>
      </trkpt>
      <trkpt lat="48.53646" lon="2.11656">
        <ele>141</ele>
        <time>2011-04-15T09:37:30Z</time>
      </trkpt>
      <trkpt lat="48.53644" lon="2.11656">
        <ele>141</ele>
        <time>2011-04-15T09:37:31Z</time>
      </trkpt>
      <trkpt lat="48.53643" lon="2.11657">
        <ele>141</ele>
        <time>2011-04-15T09:37:32Z</time>
      </trkpt>
      <trkpt lat="48.53641" lon="2.11657">
        <ele>141</ele>
        <time>2011-04-15T09:37:33Z</time>
      </trkpt>
      <trkpt lat="48.5364" lon="2.11657">
        <ele>141</ele>
        <time>2011-04-15T09:37:34Z</time>
      </trkpt>
      <trkpt lat="48.53638" lon="2.11658">
        <ele>141</ele>
        <time>2011-04-15T09:37:35Z</time>
      </trkpt>
      <trkpt lat="48.53636" lon="2.11658">
        <ele>141</ele>
        <time>2011-04-15T09:37:36Z</time>
      </trkpt>
      <trkpt lat="48.53635" lon="2.11658">
        <ele>141</ele>
        <time>2011-04-15T09:37:37Z</time>
      </trkpt>
      <trkpt lat="48.53633" lon="2.11659">
        <ele>141</ele>
        <time>2011-04-15T09:37:38Z</time>
      </trkpt>
      <trkpt lat="48.53631" lon="2.11659">
        <ele>141</ele>
        <time>2011-04-15T09:37:39Z</time>
      </trkpt>
      <trkpt lat="48.5363" lon="2.1166">
        <ele>141</ele>
        <time>2011-04-15T09:37:40Z</time>
      </trkpt>
      <trkpt lat="48.53628" lon="2.1166">
        <ele>142</ele>
        <time>2011-04-15T09:37:41Z</time>
      </trkpt>
      <trkpt lat="48.53626" lon="2.1166">
        <ele>142</ele>
        <time>2011-04-15T09:37:42Z</time>
      </trkpt>
      <trkpt lat="48.53625" lon="2.11661">
        <ele>142</ele>
        <time>2011-04-15T09:37:43Z</time>
      </trkpt>
      <trkpt lat="48.53623" lon="2.11661">
        <ele>142</ele>
        <time>2011-04-15T09:37:44Z</time>
      </trkpt>
      <trkpt lat="48.53621" lon="2.11662">
        <ele>142</ele>
        <time>2011-04-15T09:37:45Z</time>
      </trkpt>
      <trkpt lat="48.5362" lon="2.11662">
        <ele>142</ele>
        <time>2011-04-15T09:37:46Z</time>
      </trkpt>
      <trkpt lat="48.53618" lon="2.11663">
        <ele>142</ele>
        <time>2011-04-15T09:37:47Z</time>
      </trkpt>
      <trkpt lat="48.53616" lon="2.11663">
        <ele>142</ele>
        <time>2011-04-15T09:37:48Z</time>
      </trkpt>
      <trkpt lat="48.53615" lon="2.11663">
        <ele>142</ele>
        <time>2011-04-15T09:37:49Z</time>
      </trkpt>
      <trkpt lat="48.53613" lon="2.11664">
        <ele>142</ele>
        <time>2011-04-15T09:37:50Z</time>
      </trkpt>
      <trkpt lat="48.53612" lon="2.11664">
        <ele>142</ele>
        <time>2011-04-15T09:37:51Z</time>
      </trkpt>
      <trkpt lat="48.5361" lon="2.11664">
        <ele>142</ele>
        <time>2011-04-15T09:37:52Z</time>
      </trkpt>
      <trkpt lat="48.53609" lon="2.11665">
        <ele>143</ele>
        <time>2011-04-15T09:37:53Z</time>
      </trkpt>
      <trkpt lat="48.53607" lon="2.11666">
        <ele>143</ele>
        <time>2011-04-15T09:37:54Z</time>
      </trkpt>
      <trkpt lat="48.53605" lon="2.11667">
        <ele>143</ele>
        <time>2011-04-15T09:37:55Z</time>
      </trkpt>
      <trkpt lat="48.53604" lon="2.11667">
        <ele>143</ele>
        <time>2011-04-15T09:37:56Z</time>
      </trkpt>
      <trkpt lat="48.53602" lon="2.11668">
        <ele>143</ele>
        <time>2011-04-15T09:37:57Z</time>
      </trkpt>
      <trkpt lat="48.53601" lon="2.11669">
        <ele>143</ele>
        <time>2011-04-15T09:37:58Z</time>
      </trkpt>
      <trkpt lat="48.53599" lon="2.11669">
        <ele>143</ele>
        <time>2011-04-15T09:37:59Z</time>
      </trkpt>
      <trkpt lat="48.53597" lon="2.1167">
        <ele>143</ele>
        <time>2011-04-15T09:38:00Z</time>
      </trkpt>
      <trkpt lat="48.53596" lon="2.11671">
        <ele>143</ele>
        <time>2011-04-15T09:38:01Z</time>
      </trkpt>
      <trkpt lat="48.53594" lon="2.11671">
        <ele>143</ele>
        <time>2011-04-15T09:38:02Z</time>
      </trkpt>
      <trkpt lat="48.53593" lon="2.11672">
        <ele>143</ele>
        <time>2011-04-15T09:38:03Z</time>
      </trkpt>
      <trkpt lat="48.53591" lon="2.11673">
        <ele>143</ele>
        <time>2011-04-15T09:38:04Z</time>
      </trkpt>
      <trkpt lat="48.53589" lon="2.11673">
        <ele>143</ele>
        <time>2011-04-15T09:38:05Z</time>
      </trkpt>
      <trkpt lat="48.53588" lon="2.11674">
        <ele>143</ele>
        <time>2011-04-15T09:38:06Z</time>
      </trkpt>
      <trkpt lat="48.53586" lon="2.11674">
        <ele>143</ele>
        <time>2011-04-15T09:38:07Z</time>
      </trkpt>
      <trkpt lat="48.53584" lon="2.11675">
        <ele>143</ele>
        <time>2011-04-15T09:38:08Z</time>
      </trkpt>
      <trkpt lat="48.53583" lon="2.11676">
        <ele>143</ele>
        <time>2011-04-15T09:38:09Z</time>
      </trkpt>
      <trkpt lat="48.53581" lon="2.11676">
        <ele>144</ele>
        <time>2011-04-15T09:38:10Z</time>
      </trkpt>
      <trkpt lat="48.5358" lon="2.11676">
        <ele>144</ele>
        <time>2011-04-15T09:38:11Z</time>
      </trkpt>
      <trkpt lat="48.53578" lon="2.11677">
        <ele>144</ele>
        <time>2011-04-15T09:38:12Z</time>
      </trkpt>
      <trkpt lat="48.53576" lon="2.11678">
        <ele>144</ele>
        <time>2011-04-15T09:38:13Z</time>
      </trkpt>
      <trkpt lat="48.53574" lon="2.11678">
        <ele>144</ele>
        <time>2011-04-15T09:38:14Z</time>
      </trkpt>
      <trkpt lat="48.53573" lon="2.11679">
        <ele>144</ele>
        <time>2011-04-15T09:38:15Z</time>
      </trkpt>
      <trkpt lat="48.53571" lon="2.1168">
        <ele>144</ele>
        <time>2011-04-15T09:38:16Z</time>
      </trkpt>
      <trkpt lat="48.5357" lon="2.1168">
        <ele>144</ele>
        <time>2011-04-15T09:38:17Z</time>
      </trkpt>
      <trkpt lat="48.53568" lon="2.11681">
        <ele>144</ele>
        <time>2011-04-15T09:38:18Z</time>
      </trkpt>
      <trkpt lat="48.53567" lon="2.11681">
        <ele>144</ele>
        <time>2011-04-15T09:38:19Z</time>
      </trkpt>
      <trkpt lat="48.53565" lon="2.11682">
        <ele>144</ele>
        <time>2011-04-15T09:38:20Z</time>
      </trkpt>
      <trkpt lat="48.53564" lon="2.11683">
        <ele>144</ele>
        <time>2011-04-15T09:38:21Z</time>
      </trkpt>
      <trkpt lat="48.53562" lon="2.11683">
        <ele>144</ele>
        <time>2011-04-15T09:38:22Z</time>
      </trkpt>
      <trkpt lat="48.53561" lon="2.11684">
        <ele>144</ele>
        <time>2011-04-15T09:38:23Z</time>
      </trkpt>
      <trkpt lat="48.53559" lon="2.11684">
        <ele>144</ele>
        <time>2011-04-15T09:38:24Z</time>
      </trkpt>
      <trkpt lat="48.53558" lon="2.11685">
        <ele>144</ele>
        <time>2011-04-15T09:38:25Z</time>
      </trkpt>
      <trkpt lat="48.53556" lon="2.11685">
        <ele>144</ele>
        <time>2011-04-15T09:38:26Z</time>
      </trkpt>
      <trkpt lat="48.53555" lon="2.11686">
        <ele>144</ele>
        <time>2011-04-15T09:38:27Z</time>
      </trkpt>
      <trkpt lat="48.53554" lon="2.11686">
        <ele>144</ele>
        <time>2011-04-15T09:38:28Z</time>
      </trkpt>
      <trkpt lat="48.53552" lon="2.11688">
        <ele>144</ele>
        <time>2011-04-15T09:38:29Z</time>
      </trkpt>
      <trkpt lat="48.53551" lon="2.11689">
        <ele>144</ele>
        <time>2011-04-15T09:38:30Z</time>
      </trkpt>
      <trkpt lat="48.53551" lon="2.11692">
        <ele>144</ele>
        <time>2011-04-15T09:38:31Z</time>
      </trkpt>
      <trkpt lat="48.53551" lon="2.11695">
        <ele>144</ele>
        <time>2011-04-15T09:38:32Z</time>
      </trkpt>
      <trkpt lat="48.53551" lon="2.11698">
        <ele>144</ele>
        <time>2011-04-15T09:38:33Z</time>
      </trkpt>
      <trkpt lat="48.53552" lon="2.11701">
        <ele>144</ele>
        <time>2011-04-15T09:38:34Z</time>
      </trkpt>
      <trkpt lat="48.53552" lon="2.11704">
        <ele>144</ele>
        <time>2011-04-15T09:38:35Z</time>
      </trkpt>
      <trkpt lat="48.53552" lon="2.11707">
        <ele>145</ele>
        <time>2011-04-15T09:38:36Z</time>
      </trkpt>
      <trkpt lat="48.53553" lon="2.1171">
        <ele>145</ele>
        <time>2011-04-15T09:38:37Z</time>
      </trkpt>
      <trkpt lat="48.53553" lon="2.11712">
        <ele>145</ele>
        <time>2011-04-15T09:38:38Z</time>
      </trkpt>
      <trkpt lat="48.53553" lon="2.11715">
        <ele>145</ele>
        <time>2011-04-15T09:38:39Z</time>
      </trkpt>
      <trkpt lat="48.53554" lon="2.11717">
        <ele>145</ele>
        <time>2011-04-15T09:38:40Z</time>
      </trkpt>
      <trkpt lat="48.53554" lon="2.1172">
        <ele>145</ele>
        <time>2011-04-15T09:38:41Z</time>
      </trkpt>
      <trkpt lat="48.53554" lon="2.11722">
        <ele>145</ele>
        <time>2011-04-15T09:38:42Z</time>
      </trkpt>
      <trkpt lat="48.53555" lon="2.11725">
        <ele>145</ele>
        <time>2011-04-15T09:38:43Z</time>
      </trkpt>
      <trkpt lat="48.53555" lon="2.11727">
        <ele>145</ele>
        <time>2011-04-15T09:38:44Z</time>
      </trkpt>
      <trkpt lat="48.53555" lon="2.11729">
        <ele>145</ele>
        <time>2011-04-15T09:38:45Z</time>
      </trkpt>
      <trkpt lat="48.53556" lon="2.11732">
        <ele>145</ele>
        <time>2011-04-15T09:38:46Z</time>
      </trkpt>
      <trkpt lat="48.53556" lon="2.11735">
        <ele>145</ele>
        <time>2011-04-15T09:38:47Z</time>
      </trkpt>
      <trkpt lat="48.53556" lon="2.11738">
        <ele>145</ele>
        <time>2011-04-15T09:38:48Z</time>
      </trkpt>
      <trkpt lat="48.53557" lon="2.11741">
        <ele>145</ele>
        <time>2011-04-15T09:38:49Z</time>
      </trkpt>
      <trkpt lat="48.53557" lon="2.11743">
        <ele>145</ele>
        <time>2011-04-15T09:38:50Z</time>
      </trkpt>
      <trkpt lat="48.53557" lon="2.11746">
        <ele>145</ele>
        <time>2011-04-15T09:38:51Z</time>
      </trkpt>
      <trkpt lat="48.53558" lon="2.11748">
        <ele>145</ele>
        <time>2011-04-15T09:38:52Z</time>
      </trkpt>
      <trkpt lat="48.53558" lon="2.11751">
        <ele>145</ele>
        <time>2011-04-15T09:38:53Z</time>
      </trkpt>
      <trkpt lat="48.53558" lon="2.11754">
        <ele>145</ele>
        <time>2011-04-15T09:38:54Z</time>
      </trkpt>
      <trkpt lat="48.53558" lon="2.11757">
        <ele>145</ele>
        <time>2011-04-15T09:38:55Z</time>
      </trkpt>
      <trkpt lat="48.53559" lon="2.11759">
        <ele>145</ele>
        <time>2011-04-15T09:38:56Z</time>
      </trkpt>
      <trkpt lat="48.53559" lon="2.11762">
        <ele>145</ele>
        <time>2011-04-15T09:38:57Z</time>
      </trkpt>
      <trkpt lat="48.53559" lon="2.11764">
        <ele>145</ele>
        <time>2011-04-15T09:38:58Z</time>
      </trkpt>
      <trkpt lat="48.5356" lon="2.11766">
        <ele>145</ele>
        <time>2011-04-15T09:38:59Z</time>
      </trkpt>
      <trkpt lat="48.5356" lon="2.11769">
        <ele>145</ele>
        <time>2011-04-15T09:39:00Z</time>
      </trkpt>
      <trkpt lat="48.5356" lon="2.11772">
        <ele>145</ele>
        <time>2011-04-15T09:39:01Z</time>
      </trkpt>
      <trkpt lat="48.53561" lon="2.11774">
        <ele>145</ele>
        <time>2011-04-15T09:39:02Z</time>
      </trkpt>
      <trkpt lat="48.53561" lon="2.11777">
        <ele>145</ele>
        <time>2011-04-15T09:39:03Z</time>
      </trkpt>
      <trkpt lat="48.53561" lon="2.11779">
        <ele>145</ele>
        <time>2011-04-15T09:39:04Z</time>
      </trkpt>
      <trkpt lat="48.53562" lon="2.11782">
        <ele>145</ele>
        <time>2011-04-15T09:39:05Z</time>
      </trkpt>
      <trkpt lat="48.53562" lon="2.11785">
        <ele>145</ele>
        <time>2011-04-15T09:39:06Z</time>
      </trkpt>
      <trkpt lat="48.53563" lon="2.11787">
        <ele>146</ele>
        <time>2011-04-15T09:39:07Z</time>
      </trkpt>
      <trkpt lat="48.53563" lon="2.1179">
        <ele>146</ele>
        <time>2011-04-15T09:39:08Z</time>
      </trkpt>
      <trkpt lat="48.53564" lon="2.11793">
        <ele>146</ele>
        <time>2011-04-15T09:39:09Z</time>
      </trkpt>
      <trkpt lat="48.53564" lon="2.11795">
        <ele>146</ele>
        <time>2011-04-15T09:39:10Z</time>
      </trkpt>
      <trkpt lat="48.53565" lon="2.11798">
        <ele>146</ele>
        <time>2011-04-15T09:39:11Z</time>
      </trkpt>
      <trkpt lat="48.53565" lon="2.11801">
        <ele>146</ele>
        <time>2011-04-15T09:39:12Z</time>
      </trkpt>
      <trkpt lat="48.53566" lon="2.11804">
        <ele>146</ele>
        <time>2011-04-15T09:39:13Z</time>
      </trkpt>
      <trkpt lat="48.53566" lon="2.11808">
        <ele>146</ele>
        <time>2011-04-15T09:39:14Z</time>
      </trkpt>
      <trkpt lat="48.53567" lon="2.11812">
        <ele>146</ele>
        <time>2011-04-15T09:39:15Z</time>
      </trkpt>
      <trkpt lat="48.53567" lon="2.11817">
        <ele>146</ele>
        <time>2011-04-15T09:39:16Z</time>
      </trkpt>
      <trkpt lat="48.53568" lon="2.11822">
        <ele>146</ele>
        <time>2011-04-15T09:39:17Z</time>
      </trkpt>
      <trkpt lat="48.53569" lon="2.11828">
        <ele>146</ele>
        <time>2011-04-15T09:39:18Z</time>
      </trkpt>
      <trkpt lat="48.53569" lon="2.11833">
        <ele>146</ele>
        <time>2011-04-15T09:39:19Z</time>
      </trkpt>
      <trkpt lat="48.5357" lon="2.11838">
        <ele>146</ele>
        <time>2011-04-15T09:39:20Z</time>
      </trkpt>
      <trkpt lat="48.5357" lon="2.11844">
        <ele>146</ele>
        <time>2011-04-15T09:39:21Z</time>
      </trkpt>
      <trkpt lat="48.53571" lon="2.11849">
        <ele>146</ele>
        <time>2011-04-15T09:39:22Z</time>
      </trkpt>
      <trkpt lat="48.53571" lon="2.11854">
        <ele>146</ele>
        <time>2011-04-15T09:39:23Z</time>
      </trkpt>
      <trkpt lat="48.53572" lon="2.1186">
        <ele>146</ele>
        <time>2011-04-15T09:39:24Z</time>
      </trkpt>
      <trkpt lat="48.53572" lon="2.11865">
        <ele>146</ele>
        <time>2011-04-15T09:39:25Z</time>
      </trkpt>
      <trkpt lat="48.53573" lon="2.11871">
        <ele>146</ele>
        <time>2011-04-15T09:39:26Z</time>
      </trkpt>
      <trkpt lat="48.53574" lon="2.11875">
        <ele>146</ele>
        <time>2011-04-15T09:39:27Z</time>
      </trkpt>
      <trkpt lat="48.53574" lon="2.1188">
        <ele>146</ele>
        <time>2011-04-15T09:39:28Z</time>
      </trkpt>
      <trkpt lat="48.53575" lon="2.11885">
        <ele>146</ele>
        <time>2011-04-15T09:39:29Z</time>
      </trkpt>
      <trkpt lat="48.53576" lon="2.1189">
        <ele>146</ele>
        <time>2011-04-15T09:39:30Z</time>
      </trkpt>
      <trkpt lat="48.53576" lon="2.11896">
        <ele>146</ele>
        <time>2011-04-15T09:39:31Z</time>
      </trkpt>
      <trkpt lat="48.53577" lon="2.11901">
        <ele>146</ele>
        <time>2011-04-15T09:39:32Z</time>
      </trkpt>
      <trkpt lat="48.53578" lon="2.11907">
        <ele>146</ele>
        <time>2011-04-15T09:39:33Z</time>
      </trkpt>
      <trkpt lat="48.53578" lon="2.11912">
        <ele>146</ele>
        <time>2011-04-15T09:39:34Z</time>
      </trkpt>
      <trkpt lat="48.53579" lon="2.11918">
        <ele>146</ele>
        <time>2011-04-15T09:39:35Z</time>
      </trkpt>
      <trkpt lat="48.53579" lon="2.11923">
        <ele>146</ele>
        <time>2011-04-15T09:39:36Z</time>
      </trkpt>
      <trkpt lat="48.5358" lon="2.11929">
        <ele>146</ele>
        <time>2011-04-15T09:39:37Z</time>
      </trkpt>
      <trkpt lat="48.5358" lon="2.11935">
        <ele>146</ele>
        <time>2011-04-15T09:39:38Z</time>
      </trkpt>
      <trkpt lat="48.53581" lon="2.11941">
        <ele>146</ele>
        <time>2011-04-15T09:39:39Z</time>
      </trkpt>
      <trkpt lat="48.53582" lon="2.11947">
        <ele>146</ele>
        <time>2011-04-15T09:39:40Z</time>
      </trkpt>
      <trkpt lat="48.53582" lon="2.11954">
        <ele>146</ele>
        <time>2011-04-15T09:39:41Z</time>
      </trkpt>
      <trkpt lat="48.53583" lon="2.1196">
        <ele>146</ele>
        <time>2011-04-15T09:39:42Z</time>
      </trkpt>
      <trkpt lat="48.53584" lon="2.11967">
        <ele>146</ele>
        <time>2011-04-15T09:39:43Z</time>
      </trkpt>
      <trkpt lat="48.53585" lon="2.11974">
        <ele>146</ele>
        <time>2011-04-15T09:39:44Z</time>
      </trkpt>
      <trkpt lat="48.53586" lon="2.11981">
        <ele>146</ele>
        <time>2011-04-15T09:39:45Z</time>
      </trkpt>
      <trkpt lat="48.53588" lon="2.11987">
        <ele>146</ele>
        <time>2011-04-15T09:39:46Z</time>
      </trkpt>
      <trkpt lat="48.53589" lon="2.11994">
        <ele>146</ele>
        <time>2011-04-15T09:39:47Z</time>
      </trkpt>
      <trkpt lat="48.5359" lon="2.12">
        <ele>146</ele>
        <time>2011-04-15T09:39:48Z</time>
      </trkpt>
      <trkpt lat="48.53591" lon="2.12006">
        <ele>146</ele>
        <time>2011-04-15T09:39:49Z</time>
      </trkpt>
      <trkpt lat="48.53592" lon="2.12013">
        <ele>146</ele>
        <time>2011-04-15T09:39:50Z</time>
      </trkpt>
      <trkpt lat="48.53593" lon="2.1202">
        <ele>146</ele>
        <time>2011-04-15T09:39:51Z</time>
      </trkpt>
      <trkpt lat="48.53595" lon="2.12026">
        <ele>146</ele>
        <time>2011-04-15T09:39:52Z</time>
      </trkpt>
      <trkpt lat="48.53596" lon="2.12033">
        <ele>146</ele>
        <time>2011-04-15T09:39:53Z</time>
      </trkpt>
      <trkpt lat="48.53598" lon="2.1204">
        <ele>146</ele>
        <time>2011-04-15T09:39:54Z</time>
      </trkpt>
      <trkpt lat="48.53599" lon="2.12046">
        <ele>146</ele>
        <time>2011-04-15T09:39:55Z</time>
      </trkpt>
      <trkpt lat="48.53601" lon="2.12053">
        <ele>146</ele>
        <time>2011-04-15T09:39:56Z</time>
      </trkpt>
      <trkpt lat="48.53602" lon="2.12059">
        <ele>146</ele>
        <time>2011-04-15T09:39:57Z</time>
      </trkpt>
      <trkpt lat="48.53604" lon="2.12064">
        <ele>146</ele>
        <time>2011-04-15T09:39:58Z</time>
      </trkpt>
      <trkpt lat="48.53606" lon="2.1207">
        <ele>146</ele>
        <time>2011-04-15T09:39:59Z</time>
      </trkpt>
      <trkpt lat="48.53607" lon="2.12076">
        <ele>146</ele>
        <time>2011-04-15T09:40:00Z</time>
      </trkpt>
      <trkpt lat="48.53609" lon="2.12082">
        <ele>146</ele>
        <time>2011-04-15T09:40:01Z</time>
      </trkpt>
      <trkpt lat="48.53611" lon="2.12088">
        <ele>146</ele>
        <time>2011-04-15T09:40:02Z</time>
      </trkpt>
      <trkpt lat="48.53613" lon="2.12094">
        <ele>146</ele>
        <time>2011-04-15T09:40:03Z</time>
      </trkpt>
      <trkpt lat="48.53615" lon="2.121">
        <ele>146</ele>
        <time>2011-04-15T09:40:04Z</time>
      </trkpt>
      <trkpt lat="48.53617" lon="2.12107">
        <ele>146</ele>
        <time>2011-04-15T09:40:05Z</time>
      </trkpt>
      <trkpt lat="48.53619" lon="2.12113">
        <ele>146</ele>
        <time>2011-04-15T09:40:06Z</time>
      </trkpt>
      <trkpt lat="48.53621" lon="2.12119">
        <ele>146</ele>
        <time>2011-04-15T09:40:07Z</time>
      </trkpt>
      <trkpt lat="48.53623" lon="2.12125">
        <ele>146</ele>
        <time>2011-04-15T09:40:08Z</time>
      </trkpt>
      <trkpt lat="48.53625" lon="2.1213">
        <ele>146</ele>
        <time>2011-04-15T09:40:09Z</time>
      </trkpt>
      <trkpt lat="48.53626" lon="2.12134">
        <ele>146</ele>
        <time>2011-04-15T09:40:10Z</time>
      </trkpt>
      <trkpt lat="48.53628" lon="2.12139">
        <ele>146</ele>
        <time>2011-04-15T09:40:11Z</time>
      </trkpt>
      <trkpt lat="48.53629" lon="2.12144">
        <ele>145</ele>
        <time>2011-04-15T09:40:12Z</time>
      </trkpt>
      <trkpt lat="48.53631" lon="2.1215">
        <ele>145</ele>
        <time>2011-04-15T09:40:13Z</time>
      </trkpt>
      <trkpt lat="48.53633" lon="2.12156">
        <ele>145</ele>
        <time>2011-04-15T09:40:14Z</time>
      </trkpt>
      <trkpt lat="48.53635" lon="2.12162">
        <ele>145</ele>
        <time>2011-04-15T09:40:15Z</time>
      </trkpt>
      <trkpt lat="48.53637" lon="2.12169">
        <ele>145</ele>
        <time>2011-04-15T09:40:16Z</time>
      </trkpt>
      <trkpt lat="48.53639" lon="2.12175">
        <ele>145</ele>
        <time>2011-04-15T09:40:17Z</time>
      </trkpt>
      <trkpt lat="48.53642" lon="2.12181">
        <ele>144</ele>
        <time>2011-04-15T09:40:18Z</time>
      </trkpt>
      <trkpt lat="48.53644" lon="2.12187">
        <ele>144</ele>
        <time>2011-04-15T09:40:19Z</time>
      </trkpt>
      <trkpt lat="48.53646" lon="2.12193">
        <ele>144</ele>
        <time>2011-04-15T09:40:20Z</time>
      </trkpt>
      <trkpt lat="48.53648" lon="2.12199">
        <ele>144</ele>
        <time>2011-04-15T09:40:21Z</time>
      </trkpt>
      <trkpt lat="48.5365" lon="2.12204">
        <ele>144</ele>
        <time>2011-04-15T09:40:22Z</time>
      </trkpt>
      <trkpt lat="48.53652" lon="2.1221">
        <ele>144</ele>
        <time>2011-04-15T09:40:23Z</time>
      </trkpt>
      <trkpt lat="48.53654" lon="2.12216">
        <ele>143</ele>
        <time>2011-04-15T09:40:24Z</time>
      </trkpt>
      <trkpt lat="48.53657" lon="2.12221">
        <ele>143</ele>
        <time>2011-04-15T09:40:25Z</time>
      </trkpt>
      <trkpt lat="48.53659" lon="2.12227">
        <ele>143</ele>
        <time>2011-04-15T09:40:26Z</time>
      </trkpt>
      <trkpt lat="48.53662" lon="2.12233">
        <ele>143</ele>
        <time>2011-04-15T09:40:27Z</time>
      </trkpt>
      <trkpt lat="48.53664" lon="2.12238">
        <ele>143</ele>
        <time>2011-04-15T09:40:28Z</time>
      </trkpt>
      <trkpt lat="48.53667" lon="2.12244">
        <ele>143</ele>
        <time>2011-04-15T09:40:29Z</time>
      </trkpt>
      <trkpt lat="48.53669" lon="2.1225">
        <ele>143</ele>
        <time>2011-04-15T09:40:30Z</time>
      </trkpt>
      <trkpt lat="48.53671" lon="2.12255">
        <ele>143</ele>
        <time>2011-04-15T09:40:31Z</time>
      </trkpt>
      <trkpt lat="48.53673" lon="2.12261">
        <ele>142</ele>
        <time>2011-04-15T09:40:32Z</time>
      </trkpt>
      <trkpt lat="48.53676" lon="2.12267">
        <ele>142</ele>
        <time>2011-04-15T09:40:33Z</time>
      </trkpt>
      <trkpt lat="48.53678" lon="2.12273">
        <ele>142</ele>
        <time>2011-04-15T09:40:34Z</time>
      </trkpt>
      <trkpt lat="48.53681" lon="2.12279">
        <ele>142</ele>
        <time>2011-04-15T09:40:35Z</time>
      </trkpt>
      <trkpt lat="48.53683" lon="2.12285">
        <ele>142</ele>
        <time>2011-04-15T09:40:36Z</time>
      </trkpt>
      <trkpt lat="48.53686" lon="2.12292">
        <ele>141</ele>
        <time>2011-04-15T09:40:37Z</time>
      </trkpt>
      <trkpt lat="48.53689" lon="2.12298">
        <ele>141</ele>
        <time>2011-04-15T09:40:38Z</time>
      </trkpt>
      <trkpt lat="48.53692" lon="2.12305">
        <ele>141</ele>
        <time>2011-04-15T09:40:39Z</time>
      </trkpt>
      <trkpt lat="48.53695" lon="2.12311">
        <ele>141</ele>
        <time>2011-04-15T09:40:40Z</time>
      </trkpt>
      <trkpt lat="48.53698" lon="2.12317">
        <ele>141</ele>
        <time>2011-04-15T09:40:41Z</time>
      </trkpt>
      <trkpt lat="48.53702" lon="2.12324">
        <ele>140</ele>
        <time>2011-04-15T09:40:42Z</time>
      </trkpt>
      <trkpt lat="48.53705" lon="2.1233">
        <ele>140</ele>
        <time>2011-04-15T09:40:43Z</time>
      </trkpt>
      <trkpt lat="48.53707" lon="2.12338">
        <ele>140</ele>
        <time>2011-04-15T09:40:44Z</time>
      </trkpt>
      <trkpt lat="48.5371" lon="2.12345">
        <ele>140</ele>
        <time>2011-04-15T09:40:45Z</time>
      </trkpt>
      <trkpt lat="48.53712" lon="2.12353">
        <ele>140</ele>
        <time>2011-04-15T09:40:46Z</time>
      </trkpt>
      <trkpt lat="48.53714" lon="2.12361">
        <ele>140</ele>
        <time>2011-04-15T09:40:47Z</time>
      </trkpt>
      <trkpt lat="48.53716" lon="2.12369">
        <ele>140</ele>
        <time>2011-04-15T09:40:48Z</time>
      </trkpt>
      <trkpt lat="48.53718" lon="2.12377">
        <ele>140</ele>
        <time>2011-04-15T09:40:49Z</time>
      </trkpt>
      <trkpt lat="48.53719" lon="2.12386">
        <ele>139</ele>
        <time>2011-04-15T09:40:50Z</time>
      </trkpt>
      <trkpt lat="48.53721" lon="2.12394">
        <ele>139</ele>
        <time>2011-04-15T09:40:51Z</time>
      </trkpt>
      <trkpt lat="48.53723" lon="2.12402">
        <ele>139</ele>
        <time>2011-04-15T09:40:52Z</time>
      </trkpt>
      <trkpt lat="48.53725" lon="2.1241">
        <ele>139</ele>
        <time>2011-04-15T09:40:53Z</time>
      </trkpt>
      <trkpt lat="48.53727" lon="2.12418">
        <ele>139</ele>
        <time>2011-04-15T09:40:54Z</time>
      </trkpt>
      <trkpt lat="48.5373" lon="2.12426">
        <ele>139</ele>
        <time>2011-04-15T09:40:55Z</time>
      </trkpt>
      <trkpt lat="48.53732" lon="2.12435">
        <ele>138</ele>
        <time>2011-04-15T09:40:56Z</time>
      </trkpt>
      <trkpt lat="48.53734" lon="2.12443">
        <ele>138</ele>
        <time>2011-04-15T09:40:57Z</time>
      </trkpt>
      <trkpt lat="48.53736" lon="2.12452">
        <ele>138</ele>
        <time>2011-04-15T09:40:58Z</time>
      </trkpt>
      <trkpt lat="48.53738" lon="2.12461">
        <ele>138</ele>
        <time>2011-04-15T09:40:59Z</time>
      </trkpt>
      <trkpt lat="48.5374" lon="2.1247">
        <ele>138</ele>
        <time>2011-04-15T09:41:00Z</time>
      </trkpt>
      <trkpt lat="48.53742" lon="2.12479">
        <ele>138</ele>
        <time>2011-04-15T09:41:01Z</time>
      </trkpt>
      <trkpt lat="48.53744" lon="2.12488">
        <ele>138</ele>
        <time>2011-04-15T09:41:02Z</time>
      </trkpt>
      <trkpt lat="48.53746" lon="2.12498">
        <ele>138</ele>
        <time>2011-04-15T09:41:03Z</time>
      </trkpt>
      <trkpt lat="48.53748" lon="2.12507">
        <ele>138</ele>
        <time>2011-04-15T09:41:04Z</time>
      </trkpt>
      <trkpt lat="48.5375" lon="2.12517">
        <ele>138</ele>
        <time>2011-04-15T09:41:05Z</time>
      </trkpt>
      <trkpt lat="48.53752" lon="2.12526">
        <ele>138</ele>
        <time>2011-04-15T09:41:06Z</time>
      </trkpt>
      <trkpt lat="48.53754" lon="2.12534">
        <ele>138</ele>
        <time>2011-04-15T09:41:07Z</time>
      </trkpt>
      <trkpt lat="48.53756" lon="2.12542">
        <ele>138</ele>
        <time>2011-04-15T09:41:08Z</time>
      </trkpt>
      <trkpt lat="48.53758" lon="2.1255">
        <ele>138</ele>
        <time>2011-04-15T09:41:09Z</time>
      </trkpt>
      <trkpt lat="48.5376" lon="2.12559">
        <ele>138</ele>
        <time>2011-04-15T09:41:10Z</time>
      </trkpt>
      <trkpt lat="48.53762" lon="2.12569">
        <ele>138</ele>
        <time>2011-04-15T09:41:11Z</time>
      </trkpt>
      <trkpt lat="48.53764" lon="2.12578">
        <ele>138</ele>
        <time>2011-04-15T09:41:12Z</time>
      </trkpt>
      <trkpt lat="48.53766" lon="2.12587">
        <ele>138</ele>
        <time>2011-04-15T09:41:13Z</time>
      </trkpt>
      <trkpt lat="48.53769" lon="2.12596">
        <ele>138</ele>
        <time>2011-04-15T09:41:14Z</time>
      </trkpt>
      <trkpt lat="48.53771" lon="2.12604">
        <ele>138</ele>
        <time>2011-04-15T09:41:15Z</time>
      </trkpt>
      <trkpt lat="48.53773" lon="2.12613">
        <ele>138</ele>
        <time>2011-04-15T09:41:16Z</time>
      </trkpt>
      <trkpt lat="48.53775" lon="2.12621">
        <ele>138</ele>
        <time>2011-04-15T09:41:17Z</time>
      </trkpt>
      <trkpt lat="48.53777" lon="2.12629">
        <ele>138</ele>
        <time>2011-04-15T09:41:18Z</time>
      </trkpt>
      <trkpt lat="48.53779" lon="2.12636">
        <ele>138</ele>
        <time>2011-04-15T09:41:19Z</time>
      </trkpt>
      <trkpt lat="48.53781" lon="2.12643">
        <ele>138</ele>
        <time>2011-04-15T09:41:20Z</time>
      </trkpt>
      <trkpt lat="48.53783" lon="2.12649">
        <ele>138</ele>
        <time>2011-04-15T09:41:21Z</time>
      </trkpt>
      <trkpt lat="48.53785" lon="2.12655">
        <ele>138</ele>
        <time>2011-04-15T09:41:22Z</time>
      </trkpt>
      <trkpt lat="48.53787" lon="2.1266">
        <ele>138</ele>
        <time>2011-04-15T09:41:23Z</time>
      </trkpt>
      <trkpt lat="48.53789" lon="2.12664">
        <ele>138</ele>
        <time>2011-04-15T09:41:24Z</time>
      </trkpt>
      <trkpt lat="48.5379" lon="2.12668">
        <ele>138</ele>
        <time>2011-04-15T09:41:25Z</time>
      </trkpt>
      <trkpt lat="48.53792" lon="2.12672">
        <ele>138</ele>
        <time>2011-04-15T09:41:26Z</time>
      </trkpt>
      <trkpt lat="48.53795" lon="2.12676">
        <ele>138</ele>
        <time>2011-04-15T09:41:27Z</time>
      </trkpt>
      <trkpt lat="48.53796" lon="2.12679">
        <ele>138</ele>
        <time>2011-04-15T09:41:28Z</time>
      </trkpt>
      <trkpt lat="48.53797" lon="2.12682">
        <ele>138</ele>
        <time>2011-04-15T09:41:29Z</time>
      </trkpt>
      <trkpt lat="48.53798" lon="2.12684">
        <ele>138</ele>
        <time>2011-04-15T09:41:30Z</time>
      </trkpt>
      <trkpt lat="48.53799" lon="2.12686">
        <ele>138</ele>
        <time>2011-04-15T09:41:31Z</time>
      </trkpt>
      <trkpt lat="48.53801" lon="2.12688">
        <ele>138</ele>
        <time>2011-04-15T09:41:32Z</time>
      </trkpt>
      <trkpt lat="48.53801" lon="2.12689">
        <ele>138</ele>
        <time>2011-04-15T09:41:33Z</time>
      </trkpt>
      <trkpt lat="48.53802" lon="2.12691">
        <ele>138</ele>
        <time>2011-04-15T09:41:34Z</time>
      </trkpt>
      <trkpt lat="48.53803" lon="2.12693">
        <ele>138</ele>
        <time>2011-04-15T09:41:35Z</time>
      </trkpt>
      <trkpt lat="48.53804" lon="2.12695">
        <ele>138</ele>
        <time>2011-04-15T09:41:36Z</time>
      </trkpt>
      <trkpt lat="48.53805" lon="2.12697">
        <ele>138</ele>
        <time>2011-04-15T09:41:37Z</time>
      </trkpt>
      <trkpt lat="48.53805" lon="2.12699">
        <ele>138</ele>
        <time>2011-04-15T09:41:38Z</time>
      </trkpt>
      <trkpt lat="48.53805" lon="2.12701">
        <ele>138</ele>
        <time>2011-04-15T09:41:39Z</time>
      </trkpt>
      <trkpt lat="48.53804" lon="2.12703">
        <ele>138</ele>
        <time>2011-04-15T09:41:43Z</time>
      </trkpt>
      <trkpt lat="48.53805" lon="2.12701">
        <ele>138</ele>
        <time>2011-04-15T09:41:50Z</time>
      </trkpt>
      <trkpt lat="48.53807" lon="2.12703">
        <ele>138</ele>
        <time>2011-04-15T09:41:51Z</time>
      </trkpt>
      <trkpt lat="48.53808" lon="2.12706">
        <ele>138</ele>
        <time>2011-04-15T09:41:52Z</time>
      </trkpt>
      <trkpt lat="48.53809" lon="2.12708">
        <ele>138</ele>
        <time>2011-04-15T09:41:53Z</time>
      </trkpt>
      <trkpt lat="48.53809" lon="2.1271">
        <ele>138</ele>
        <time>2011-04-15T09:41:55Z</time>
      </trkpt>
      <trkpt lat="48.53811" lon="2.12711">
        <ele>138</ele>
        <time>2011-04-15T09:41:58Z</time>
      </trkpt>
      <trkpt lat="48.53811" lon="2.12709">
        <ele>138</ele>
        <time>2011-04-15T09:42:00Z</time>
      </trkpt>
      <trkpt lat="48.53809" lon="2.12706">
        <ele>138</ele>
        <time>2011-04-15T09:42:02Z</time>
      </trkpt>
      <trkpt lat="48.53807" lon="2.12705">
        <ele>138</ele>
        <time>2011-04-15T09:42:03Z</time>
      </trkpt>
      <trkpt lat="48.53806" lon="2.12705">
        <ele>138</ele>
        <time>2011-04-15T09:42:04Z</time>
      </trkpt>
      <trkpt lat="48.53807" lon="2.12705">
        <ele>138</ele>
        <time>2011-04-15T09:42:08Z</time>
      </trkpt>
      <trkpt lat="48.53808" lon="2.12703">
        <ele>138</ele>
        <time>2011-04-15T09:42:13Z</time>
      </trkpt>
      <trkpt lat="48.53806" lon="2.12705">
        <ele>138</ele>
        <time>2011-04-15T09:42:20Z</time>
      </trkpt>
      <trkpt lat="48.53806" lon="2.12707">
        <ele>138</ele>
        <time>2011-04-15T09:42:22Z</time>
      </trkpt>
      <trkpt lat="48.53805" lon="2.12708">
        <ele>137</ele>
        <time>2011-04-15T09:42:25Z</time>
      </trkpt>
      <trkpt lat="48.53806" lon="2.12709">
        <ele>137</ele>
        <time>2011-04-15T09:42:50Z</time>
      </trkpt>
      <trkpt lat="48.53807" lon="2.12707">
        <ele>137</ele>
        <time>2011-04-15T09:42:55Z</time>
      </trkpt>
      <trkpt lat="48.53808" lon="2.12709">
        <ele>137</ele>
        <time>2011-04-15T09:42:59Z</time>
      </trkpt>
      <trkpt lat="48.53809" lon="2.1271">
        <ele>137</ele>
        <time>2011-04-15T09:43:50Z</time>
      </trkpt>
      <trkpt lat="48.53811" lon="2.12712">
        <ele>137</ele>
        <time>2011-04-15T09:43:52Z</time>
      </trkpt>
      <trkpt lat="48.53812" lon="2.12714">
        <ele>137</ele>
        <time>2011-04-15T09:43:53Z</time>
      </trkpt>
      <trkpt lat="48.53813" lon="2.12715">
        <ele>137</ele>
        <time>2011-04-15T09:43:54Z</time>
      </trkpt>
      <trkpt lat="48.53815" lon="2.12717">
        <ele>137</ele>
        <time>2011-04-15T09:43:55Z</time>
      </trkpt>
      <trkpt lat="48.53816" lon="2.12719">
        <ele>137</ele>
        <time>2011-04-15T09:43:56Z</time>
      </trkpt>
      <trkpt lat="48.53818" lon="2.12722">
        <ele>137</ele>
        <time>2011-04-15T09:43:58Z</time>
      </trkpt>
      <trkpt lat="48.53818" lon="2.12724">
        <ele>137</ele>
        <time>2011-04-15T09:44:00Z</time>
      </trkpt>
      <trkpt lat="48.53819" lon="2.12726">
        <ele>137</ele>
        <time>2011-04-15T09:44:02Z</time>
      </trkpt>
      <trkpt lat="48.53819" lon="2.12728">
        <ele>137</ele>
        <time>2011-04-15T09:44:03Z</time>
      </trkpt>
      <trkpt lat="48.5382" lon="2.1273">
        <ele>137</ele>
        <time>2011-04-15T09:44:04Z</time>
      </trkpt>
      <trkpt lat="48.53821" lon="2.12732">
        <ele>137</ele>
        <time>2011-04-15T09:44:05Z</time>
      </trkpt>
      <trkpt lat="48.53821" lon="2.12735">
        <ele>137</ele>
        <time>2011-04-15T09:44:06Z</time>
      </trkpt>
      <trkpt lat="48.53822" lon="2.12737">
        <ele>137</ele>
        <time>2011-04-15T09:44:07Z</time>
      </trkpt>
      <trkpt lat="48.53822" lon="2.12739">
        <ele>137</ele>
        <time>2011-04-15T09:44:08Z</time>
      </trkpt>
      <trkpt lat="48.53823" lon="2.12741">
        <ele>137</ele>
        <time>2011-04-15T09:44:09Z</time>
      </trkpt>
      <trkpt lat="48.53823" lon="2.12743">
        <ele>137</ele>
        <time>2011-04-15T09:44:10Z</time>
      </trkpt>
      <trkpt lat="48.53824" lon="2.12745">
        <ele>137</ele>
        <time>2011-04-15T09:44:11Z</time>
      </trkpt>
      <trkpt lat="48.53825" lon="2.12746">
        <ele>137</ele>
        <time>2011-04-15T09:44:12Z</time>
      </trkpt>
      <trkpt lat="48.53826" lon="2.12748">
        <ele>137</ele>
        <time>2011-04-15T09:44:13Z</time>
      </trkpt>
      <trkpt lat="48.53826" lon="2.1275">
        <ele>137</ele>
        <time>2011-04-15T09:44:14Z</time>
      </trkpt>
      <trkpt lat="48.53827" lon="2.12752">
        <ele>137</ele>
        <time>2011-04-15T09:44:15Z</time>
      </trkpt>
      <trkpt lat="48.53827" lon="2.12754">
        <ele>137</ele>
        <time>2011-04-15T09:44:16Z</time>
      </trkpt>
      <trkpt lat="48.53828" lon="2.12757">
        <ele>137</ele>
        <time>2011-04-15T09:44:17Z</time>
      </trkpt>
      <trkpt lat="48.53829" lon="2.12759">
        <ele>137</ele>
        <time>2011-04-15T09:44:18Z</time>
      </trkpt>
      <trkpt lat="48.53829" lon="2.12762">
        <ele>137</ele>
        <time>2011-04-15T09:44:19Z</time>
      </trkpt>
      <trkpt lat="48.5383" lon="2.12765">
        <ele>137</ele>
        <time>2011-04-15T09:44:20Z</time>
      </trkpt>
      <trkpt lat="48.53831" lon="2.12768">
        <ele>137</ele>
        <time>2011-04-15T09:44:21Z</time>
      </trkpt>
      <trkpt lat="48.53831" lon="2.12771">
        <ele>137</ele>
        <time>2011-04-15T09:44:22Z</time>
      </trkpt>
      <trkpt lat="48.53831" lon="2.12772">
        <ele>137</ele>
        <time>2011-04-15T09:44:23Z</time>
      </trkpt>
      <trkpt lat="48.53832" lon="2.12775">
        <ele>137</ele>
        <time>2011-04-15T09:44:25Z</time>
      </trkpt>
      <trkpt lat="48.53833" lon="2.12777">
        <ele>137</ele>
        <time>2011-04-15T09:44:26Z</time>
      </trkpt>
      <trkpt lat="48.53833" lon="2.1278">
        <ele>137</ele>
        <time>2011-04-15T09:44:27Z</time>
      </trkpt>
      <trkpt lat="48.53834" lon="2.12782">
        <ele>137</ele>
        <time>2011-04-15T09:44:28Z</time>
      </trkpt>
      <trkpt lat="48.53835" lon="2.12784">
        <ele>137</ele>
        <time>2011-04-15T09:44:29Z</time>
      </trkpt>
      <trkpt lat="48.53835" lon="2.12787">
        <ele>137</ele>
        <time>2011-04-15T09:44:30Z</time>
      </trkpt>
      <trkpt lat="48.53836" lon="2.12789">
        <ele>137</ele>
        <time>2011-04-15T09:44:31Z</time>
      </trkpt>
      <trkpt lat="48.53836" lon="2.12791">
        <ele>137</ele>
        <time>2011-04-15T09:44:32Z</time>
      </trkpt>
      <trkpt lat="48.53837" lon="2.12793">
        <ele>137</ele>
        <time>2011-04-15T09:44:33Z</time>
      </trkpt>
      <trkpt lat="48.53838" lon="2.12796">
        <ele>137</ele>
        <time>2011-04-15T09:44:34Z</time>
      </trkpt>
      <trkpt lat="48.53839" lon="2.12798">
        <ele>137</ele>
        <time>2011-04-15T09:44:35Z</time>
      </trkpt>
      <trkpt lat="48.5384" lon="2.128">
        <ele>137</ele>
        <time>2011-04-15T09:44:36Z</time>
      </trkpt>
      <trkpt lat="48.53841" lon="2.12802">
        <ele>137</ele>
        <time>2011-04-15T09:44:37Z</time>
      </trkpt>
      <trkpt lat="48.53842" lon="2.12805">
        <ele>137</ele>
        <time>2011-04-15T09:44:38Z</time>
      </trkpt>
      <trkpt lat="48.53843" lon="2.12807">
        <ele>137</ele>
        <time>2011-04-15T09:44:39Z</time>
      </trkpt>
      <trkpt lat="48.53844" lon="2.12809">
        <ele>137</ele>
        <time>2011-04-15T09:44:40Z</time>
      </trkpt>
      <trkpt lat="48.53844" lon="2.12811">
        <ele>137</ele>
        <time>2011-04-15T09:44:41Z</time>
      </trkpt>
      <trkpt lat="48.53845" lon="2.12814">
        <ele>137</ele>
        <time>2011-04-15T09:44:42Z</time>
      </trkpt>
      <trkpt lat="48.53846" lon="2.12816">
        <ele>137</ele>
        <time>2011-04-15T09:44:43Z</time>
      </trkpt>
      <trkpt lat="48.53846" lon="2.12818">
        <ele>137</ele>
        <time>2011-04-15T09:44:44Z</time>
      </trkpt>
      <trkpt lat="48.53847" lon="2.1282">
        <ele>137</ele>
        <time>2011-04-15T09:44:45Z</time>
      </trkpt>
      <trkpt lat="48.53848" lon="2.12822">
        <ele>137</ele>
        <time>2011-04-15T09:44:46Z</time>
      </trkpt>
      <trkpt lat="48.53849" lon="2.12824">
        <ele>137</ele>
        <time>2011-04-15T09:44:47Z</time>
      </trkpt>
      <trkpt lat="48.5385" lon="2.12826">
        <ele>137</ele>
        <time>2011-04-15T09:44:48Z</time>
      </trkpt>
      <trkpt lat="48.5385" lon="2.12827">
        <ele>137</ele>
        <time>2011-04-15T09:44:49Z</time>
      </trkpt>
      <trkpt lat="48.53851" lon="2.12829">
        <ele>137</ele>
        <time>2011-04-15T09:44:50Z</time>
      </trkpt>
      <trkpt lat="48.53851" lon="2.12832">
        <ele>137</ele>
        <time>2011-04-15T09:44:51Z</time>
      </trkpt>
      <trkpt lat="48.53852" lon="2.12834">
        <ele>137</ele>
        <time>2011-04-15T09:44:52Z</time>
      </trkpt>
      <trkpt lat="48.53853" lon="2.12837">
        <ele>137</ele>
        <time>2011-04-15T09:44:53Z</time>
      </trkpt>
      <trkpt lat="48.53854" lon="2.1284">
        <ele>137</ele>
        <time>2011-04-15T09:44:54Z</time>
      </trkpt>
      <trkpt lat="48.53855" lon="2.12843">
        <ele>137</ele>
        <time>2011-04-15T09:44:55Z</time>
      </trkpt>
      <trkpt lat="48.53855" lon="2.12844">
        <ele>137</ele>
        <time>2011-04-15T09:44:56Z</time>
      </trkpt>
      <trkpt lat="48.53856" lon="2.12848">
        <ele>137</ele>
        <time>2011-04-15T09:44:58Z</time>
      </trkpt>
      <trkpt lat="48.53857" lon="2.1285">
        <ele>137</ele>
        <time>2011-04-15T09:44:59Z</time>
      </trkpt>
      <trkpt lat="48.53857" lon="2.12852">
        <ele>137</ele>
        <time>2011-04-15T09:45:00Z</time>
      </trkpt>
      <trkpt lat="48.53858" lon="2.12854">
        <ele>137</ele>
        <time>2011-04-15T09:45:01Z</time>
      </trkpt>
      <trkpt lat="48.53859" lon="2.12857">
        <ele>137</ele>
        <time>2011-04-15T09:45:02Z</time>
      </trkpt>
      <trkpt lat="48.53859" lon="2.12859">
        <ele>137</ele>
        <time>2011-04-15T09:45:03Z</time>
      </trkpt>
      <trkpt lat="48.5386" lon="2.12861">
        <ele>137</ele>
        <time>2011-04-15T09:45:04Z</time>
      </trkpt>
      <trkpt lat="48.53861" lon="2.12863">
        <ele>137</ele>
        <time>2011-04-15T09:45:05Z</time>
      </trkpt>
      <trkpt lat="48.53862" lon="2.12865">
        <ele>137</ele>
        <time>2011-04-15T09:45:06Z</time>
      </trkpt>
      <trkpt lat="48.53862" lon="2.12867">
        <ele>137</ele>
        <time>2011-04-15T09:45:07Z</time>
      </trkpt>
      <trkpt lat="48.53862" lon="2.1287">
        <ele>137</ele>
        <time>2011-04-15T09:45:08Z</time>
      </trkpt>
      <trkpt lat="48.53863" lon="2.12872">
        <ele>137</ele>
        <time>2011-04-15T09:45:09Z</time>
      </trkpt>
      <trkpt lat="48.53862" lon="2.12876">
        <ele>137</ele>
        <time>2011-04-15T09:45:10Z</time>
      </trkpt>
      <trkpt lat="48.53861" lon="2.12879">
        <ele>138</ele>
        <time>2011-04-15T09:45:11Z</time>
      </trkpt>
      <trkpt lat="48.5386" lon="2.12881">
        <ele>139</ele>
        <time>2011-04-15T09:45:12Z</time>
      </trkpt>
      <trkpt lat="48.5386" lon="2.12883">
        <ele>139</ele>
        <time>2011-04-15T09:45:13Z</time>
      </trkpt>
      <trkpt lat="48.5386" lon="2.12885">
        <ele>140</ele>
        <time>2011-04-15T09:45:14Z</time>
      </trkpt>
      <trkpt lat="48.5386" lon="2.12888">
        <ele>141</ele>
        <time>2011-04-15T09:45:15Z</time>
      </trkpt>
      <trkpt lat="48.5386" lon="2.1289">
        <ele>141</ele>
        <time>2011-04-15T09:45:16Z</time>
      </trkpt>
      <trkpt lat="48.5386" lon="2.12892">
        <ele>141</ele>
        <time>2011-04-15T09:45:17Z</time>
      </trkpt>
      <trkpt lat="48.5386" lon="2.12894">
        <ele>141</ele>
        <time>2011-04-15T09:45:18Z</time>
      </trkpt>
      <trkpt lat="48.5386" lon="2.12896">
        <ele>141</ele>
        <time>2011-04-15T09:45:19Z</time>
      </trkpt>
      <trkpt lat="48.5386" lon="2.12898">
        <ele>141</ele>
        <time>2011-04-15T09:45:20Z</time>
      </trkpt>
      <trkpt lat="48.5386" lon="2.12901">
        <ele>141</ele>
        <time>2011-04-15T09:45:21Z</time>
      </trkpt>
      <trkpt lat="48.53859" lon="2.12903">
        <ele>141</ele>
        <time>2011-04-15T09:45:22Z</time>
      </trkpt>
      <trkpt lat="48.53859" lon="2.12905">
        <ele>141</ele>
        <time>2011-04-15T09:45:23Z</time>
      </trkpt>
      <trkpt lat="48.53859" lon="2.12908">
        <ele>141</ele>
        <time>2011-04-15T09:45:24Z</time>
      </trkpt>
      <trkpt lat="48.53859" lon="2.1291">
        <ele>141</ele>
        <time>2011-04-15T09:45:25Z</time>
      </trkpt>
      <trkpt lat="48.53858" lon="2.12912">
        <ele>141</ele>
        <time>2011-04-15T09:45:26Z</time>
      </trkpt>
      <trkpt lat="48.53858" lon="2.12914">
        <ele>141</ele>
        <time>2011-04-15T09:45:27Z</time>
      </trkpt>
      <trkpt lat="48.53858" lon="2.12916">
        <ele>141</ele>
        <time>2011-04-15T09:45:28Z</time>
      </trkpt>
      <trkpt lat="48.53858" lon="2.12918">
        <ele>141</ele>
        <time>2011-04-15T09:45:29Z</time>
      </trkpt>
      <trkpt lat="48.53858" lon="2.1292">
        <ele>141</ele>
        <time>2011-04-15T09:45:30Z</time>
      </trkpt>
      <trkpt lat="48.53857" lon="2.12923">
        <ele>141</ele>
        <time>2011-04-15T09:45:31Z</time>
      </trkpt>
      <trkpt lat="48.53857" lon="2.12925">
        <ele>141</ele>
        <time>2011-04-15T09:45:32Z</time>
      </trkpt>
      <trkpt lat="48.53857" lon="2.12927">
        <ele>141</ele>
        <time>2011-04-15T09:45:33Z</time>
      </trkpt>
      <trkpt lat="48.53856" lon="2.1293">
        <ele>141</ele>
        <time>2011-04-15T09:45:34Z</time>
      </trkpt>
      <trkpt lat="48.53856" lon="2.12932">
        <ele>141</ele>
        <time>2011-04-15T09:45:35Z</time>
      </trkpt>
      <trkpt lat="48.53856" lon="2.12935">
        <ele>141</ele>
        <time>2011-04-15T09:45:36Z</time>
      </trkpt>
      <trkpt lat="48.53856" lon="2.12937">
        <ele>141</ele>
        <time>2011-04-15T09:45:37Z</time>
      </trkpt>
      <trkpt lat="48.53855" lon="2.1294">
        <ele>141</ele>
        <time>2011-04-15T09:45:38Z</time>
      </trkpt>
      <trkpt lat="48.53855" lon="2.12942">
        <ele>141</ele>
        <time>2011-04-15T09:45:39Z</time>
      </trkpt>
      <trkpt lat="48.53855" lon="2.12944">
        <ele>141</ele>
        <time>2011-04-15T09:45:40Z</time>
      </trkpt>
      <trkpt lat="48.53854" lon="2.12947">
        <ele>141</ele>
        <time>2011-04-15T09:45:41Z</time>
      </trkpt>
      <trkpt lat="48.53854" lon="2.12949">
        <ele>141</ele>
        <time>2011-04-15T09:45:42Z</time>
      </trkpt>
      <trkpt lat="48.53854" lon="2.12951">
        <ele>141</ele>
        <time>2011-04-15T09:45:43Z</time>
      </trkpt>
      <trkpt lat="48.53854" lon="2.12953">
        <ele>141</ele>
        <time>2011-04-15T09:45:44Z</time>
      </trkpt>
      <trkpt lat="48.53854" lon="2.12956">
        <ele>141</ele>
        <time>2011-04-15T09:45:45Z</time>
      </trkpt>
      <trkpt lat="48.53854" lon="2.12958">
        <ele>141</ele>
        <time>2011-04-15T09:45:46Z</time>
      </trkpt>
      <trkpt lat="48.53854" lon="2.1296">
        <ele>141</ele>
        <time>2011-04-15T09:45:47Z</time>
      </trkpt>
      <trkpt lat="48.53854" lon="2.12962">
        <ele>141</ele>
        <time>2011-04-15T09:45:48Z</time>
      </trkpt>
      <trkpt lat="48.53853" lon="2.12964">
        <ele>141</ele>
        <time>2011-04-15T09:45:49Z</time>
      </trkpt>
      <trkpt lat="48.53853" lon="2.12967">
        <ele>141</ele>
        <time>2011-04-15T09:45:50Z</time>
      </trkpt>
      <trkpt lat="48.53854" lon="2.12969">
        <ele>141</ele>
        <time>2011-04-15T09:45:51Z</time>
      </trkpt>
      <trkpt lat="48.53853" lon="2.12971">
        <ele>141</ele>
        <time>2011-04-15T09:45:52Z</time>
      </trkpt>
      <trkpt lat="48.53853" lon="2.12974">
        <ele>141</ele>
        <time>2011-04-15T09:45:53Z</time>
      </trkpt>
      <trkpt lat="48.53853" lon="2.12975">
        <ele>141</ele>
        <time>2011-04-15T09:45:54Z</time>
      </trkpt>
      <trkpt lat="48.53853" lon="2.12977">
        <ele>141</ele>
        <time>2011-04-15T09:45:55Z</time>
      </trkpt>
      <trkpt lat="48.53852" lon="2.12979">
        <ele>141</ele>
        <time>2011-04-15T09:45:56Z</time>
      </trkpt>
      <trkpt lat="48.53852" lon="2.12981">
        <ele>141</ele>
        <time>2011-04-15T09:45:57Z</time>
      </trkpt>
      <trkpt lat="48.53852" lon="2.12984">
        <ele>141</ele>
        <time>2011-04-15T09:45:58Z</time>
      </trkpt>
      <trkpt lat="48.53852" lon="2.12986">
        <ele>141</ele>
        <time>2011-04-15T09:45:59Z</time>
      </trkpt>
      <trkpt lat="48.53852" lon="2.12988">
        <ele>141</ele>
        <time>2011-04-15T09:46:00Z</time>
      </trkpt>
      <trkpt lat="48.53851" lon="2.12991">
        <ele>141</ele>
        <time>2011-04-15T09:46:01Z</time>
      </trkpt>
      <trkpt lat="48.53851" lon="2.12994">
        <ele>141</ele>
        <time>2011-04-15T09:46:02Z</time>
      </trkpt>
      <trkpt lat="48.53851" lon="2.12997">
        <ele>141</ele>
        <time>2011-04-15T09:46:03Z</time>
      </trkpt>
      <trkpt lat="48.53851" lon="2.12999">
        <ele>141</ele>
        <time>2011-04-15T09:46:04Z</time>
      </trkpt>
      <trkpt lat="48.53851" lon="2.13002">
        <ele>141</ele>
        <time>2011-04-15T09:46:05Z</time>
      </trkpt>
      <trkpt lat="48.5385" lon="2.13004">
        <ele>141</ele>
        <time>2011-04-15T09:46:06Z</time>
      </trkpt>
      <trkpt lat="48.5385" lon="2.13006">
        <ele>141</ele>
        <time>2011-04-15T09:46:07Z</time>
      </trkpt>
      <trkpt lat="48.5385" lon="2.13008">
        <ele>141</ele>
        <time>2011-04-15T09:46:08Z</time>
      </trkpt>
      <trkpt lat="48.53851" lon="2.1301">
        <ele>141</ele>
        <time>2011-04-15T09:46:09Z</time>
      </trkpt>
      <trkpt lat="48.53851" lon="2.13011">
        <ele>141</ele>
        <time>2011-04-15T09:46:10Z</time>
      </trkpt>
      <trkpt lat="48.53851" lon="2.13013">
        <ele>141</ele>
        <time>2011-04-15T09:46:11Z</time>
      </trkpt>
      <trkpt lat="48.53851" lon="2.13015">
        <ele>141</ele>
        <time>2011-04-15T09:46:12Z</time>
      </trkpt>
      <trkpt lat="48.53851" lon="2.13018">
        <ele>141</ele>
        <time>2011-04-15T09:46:13Z</time>
      </trkpt>
      <trkpt lat="48.5385" lon="2.1302">
        <ele>141</ele>
        <time>2011-04-15T09:46:14Z</time>
      </trkpt>
      <trkpt lat="48.5385" lon="2.13022">
        <ele>141</ele>
        <time>2011-04-15T09:46:15Z</time>
      </trkpt>
      <trkpt lat="48.5385" lon="2.13024">
        <ele>141</ele>
        <time>2011-04-15T09:46:16Z</time>
      </trkpt>
      <trkpt lat="48.5385" lon="2.13026">
        <ele>141</ele>
        <time>2011-04-15T09:46:17Z</time>
      </trkpt>
      <trkpt lat="48.53849" lon="2.13029">
        <ele>141</ele>
        <time>2011-04-15T09:46:18Z</time>
      </trkpt>
      <trkpt lat="48.53849" lon="2.13031">
        <ele>141</ele>
        <time>2011-04-15T09:46:19Z</time>
      </trkpt>
      <trkpt lat="48.5385" lon="2.13033">
        <ele>141</ele>
        <time>2011-04-15T09:46:20Z</time>
      </trkpt>
      <trkpt lat="48.53849" lon="2.13035">
        <ele>141</ele>
        <time>2011-04-15T09:46:21Z</time>
      </trkpt>
      <trkpt lat="48.53849" lon="2.13037">
        <ele>141</ele>
        <time>2011-04-15T09:46:22Z</time>
      </trkpt>
      <trkpt lat="48.53849" lon="2.1304">
        <ele>141</ele>
        <time>2011-04-15T09:46:23Z</time>
      </trkpt>
      <trkpt lat="48.53849" lon="2.13042">
        <ele>141</ele>
        <time>2011-04-15T09:46:24Z</time>
      </trkpt>
      <trkpt lat="48.53849" lon="2.13043">
        <ele>141</ele>
        <time>2011-04-15T09:46:25Z</time>
      </trkpt>
      <trkpt lat="48.53849" lon="2.13047">
        <ele>141</ele>
        <time>2011-04-15T09:46:27Z</time>
      </trkpt>
      <trkpt lat="48.53849" lon="2.13049">
        <ele>141</ele>
        <time>2011-04-15T09:46:28Z</time>
      </trkpt>
      <trkpt lat="48.53849" lon="2.13051">
        <ele>141</ele>
        <time>2011-04-15T09:46:29Z</time>
      </trkpt>
      <trkpt lat="48.53849" lon="2.13054">
        <ele>141</ele>
        <time>2011-04-15T09:46:31Z</time>
      </trkpt>
      <trkpt lat="48.53849" lon="2.13056">
        <ele>141</ele>
        <time>2011-04-15T09:46:32Z</time>
      </trkpt>
      <trkpt lat="48.53849" lon="2.13058">
        <ele>141</ele>
        <time>2011-04-15T09:46:33Z</time>
      </trkpt>
      <trkpt lat="48.53849" lon="2.1306">
        <ele>141</ele>
        <time>2011-04-15T09:46:34Z</time>
      </trkpt>
      <trkpt lat="48.53849" lon="2.13062">
        <ele>141</ele>
        <time>2011-04-15T09:46:35Z</time>
      </trkpt>
      <trkpt lat="48.53849" lon="2.13065">
        <ele>141</ele>
        <time>2011-04-15T09:46:36Z</time>
      </trkpt>
      <trkpt lat="48.53848" lon="2.13067">
        <ele>141</ele>
        <time>2011-04-15T09:46:37Z</time>
      </trkpt>
      <trkpt lat="48.53848" lon="2.1307">
        <ele>141</ele>
        <time>2011-04-15T09:46:38Z</time>
      </trkpt>
      <trkpt lat="48.53848" lon="2.13073">
        <ele>141</ele>
        <time>2011-04-15T09:46:39Z</time>
      </trkpt>
      <trkpt lat="48.53848" lon="2.13075">
        <ele>141</ele>
        <time>2011-04-15T09:46:40Z</time>
      </trkpt>
      <trkpt lat="48.53848" lon="2.13078">
        <ele>141</ele>
        <time>2011-04-15T09:46:41Z</time>
      </trkpt>
      <trkpt lat="48.53848" lon="2.13081">
        <ele>141</ele>
        <time>2011-04-15T09:46:42Z</time>
      </trkpt>
      <trkpt lat="48.53848" lon="2.13083">
        <ele>141</ele>
        <time>2011-04-15T09:46:43Z</time>
      </trkpt>
      <trkpt lat="48.53848" lon="2.13085">
        <ele>141</ele>
        <time>2011-04-15T09:46:44Z</time>
      </trkpt>
      <trkpt lat="48.53847" lon="2.13087">
        <ele>141</ele>
        <time>2011-04-15T09:46:45Z</time>
      </trkpt>
      <trkpt lat="48.53847" lon="2.1309">
        <ele>141</ele>
        <time>2011-04-15T09:46:46Z</time>
      </trkpt>
      <trkpt lat="48.53846" lon="2.13092">
        <ele>141</ele>
        <time>2011-04-15T09:46:47Z</time>
      </trkpt>
      <trkpt lat="48.53845" lon="2.13095">
        <ele>141</ele>
        <time>2011-04-15T09:46:48Z</time>
      </trkpt>
      <trkpt lat="48.53845" lon="2.13097">
        <ele>141</ele>
        <time>2011-04-15T09:46:49Z</time>
      </trkpt>
      <trkpt lat="48.53845" lon="2.13099">
        <ele>141</ele>
        <time>2011-04-15T09:46:50Z</time>
      </trkpt>
      <trkpt lat="48.53844" lon="2.13102">
        <ele>141</ele>
        <time>2011-04-15T09:46:51Z</time>
      </trkpt>
      <trkpt lat="48.53844" lon="2.13104">
        <ele>141</ele>
        <time>2011-04-15T09:46:52Z</time>
      </trkpt>
      <trkpt lat="48.53844" lon="2.13106">
        <ele>141</ele>
        <time>2011-04-15T09:46:53Z</time>
      </trkpt>
      <trkpt lat="48.53843" lon="2.13109">
        <ele>141</ele>
        <time>2011-04-15T09:46:54Z</time>
      </trkpt>
      <trkpt lat="48.53843" lon="2.13111">
        <ele>141</ele>
        <time>2011-04-15T09:46:55Z</time>
      </trkpt>
      <trkpt lat="48.53842" lon="2.13114">
        <ele>141</ele>
        <time>2011-04-15T09:46:56Z</time>
      </trkpt>
      <trkpt lat="48.53842" lon="2.13116">
        <ele>141</ele>
        <time>2011-04-15T09:46:57Z</time>
      </trkpt>
      <trkpt lat="48.53841" lon="2.13119">
        <ele>141</ele>
        <time>2011-04-15T09:46:58Z</time>
      </trkpt>
      <trkpt lat="48.53841" lon="2.13121">
        <ele>141</ele>
        <time>2011-04-15T09:46:59Z</time>
      </trkpt>
      <trkpt lat="48.5384" lon="2.13123">
        <ele>141</ele>
        <time>2011-04-15T09:47:00Z</time>
      </trkpt>
      <trkpt lat="48.53839" lon="2.13126">
        <ele>141</ele>
        <time>2011-04-15T09:47:01Z</time>
      </trkpt>
      <trkpt lat="48.53839" lon="2.13128">
        <ele>141</ele>
        <time>2011-04-15T09:47:02Z</time>
      </trkpt>
      <trkpt lat="48.53839" lon="2.1313">
        <ele>141</ele>
        <time>2011-04-15T09:47:03Z</time>
      </trkpt>
      <trkpt lat="48.53838" lon="2.13133">
        <ele>141</ele>
        <time>2011-04-15T09:47:04Z</time>
      </trkpt>
      <trkpt lat="48.53838" lon="2.13135">
        <ele>141</ele>
        <time>2011-04-15T09:47:05Z</time>
      </trkpt>
      <trkpt lat="48.53837" lon="2.13137">
        <ele>141</ele>
        <time>2011-04-15T09:47:06Z</time>
      </trkpt>
      <trkpt lat="48.53837" lon="2.13139">
        <ele>141</ele>
        <time>2011-04-15T09:47:07Z</time>
      </trkpt>
      <trkpt lat="48.53836" lon="2.13142">
        <ele>141</ele>
        <time>2011-04-15T09:47:08Z</time>
      </trkpt>
      <trkpt lat="48.53835" lon="2.13144">
        <ele>141</ele>
        <time>2011-04-15T09:47:09Z</time>
      </trkpt>
      <trkpt lat="48.53835" lon="2.13146">
        <ele>141</ele>
        <time>2011-04-15T09:47:10Z</time>
      </trkpt>
      <trkpt lat="48.53834" lon="2.13149">
        <ele>141</ele>
        <time>2011-04-15T09:47:11Z</time>
      </trkpt>
      <trkpt lat="48.53834" lon="2.13151">
        <ele>141</ele>
        <time>2011-04-15T09:47:12Z</time>
      </trkpt>
      <trkpt lat="48.53833" lon="2.13153">
        <ele>141</ele>
        <time>2011-04-15T09:47:13Z</time>
      </trkpt>
      <trkpt lat="48.53833" lon="2.13156">
        <ele>141</ele>
        <time>2011-04-15T09:47:14Z</time>
      </trkpt>
      <trkpt lat="48.53832" lon="2.13158">
        <ele>141</ele>
        <time>2011-04-15T09:47:15Z</time>
      </trkpt>
      <trkpt lat="48.53831" lon="2.1316">
        <ele>141</ele>
        <time>2011-04-15T09:47:16Z</time>
      </trkpt>
      <trkpt lat="48.5383" lon="2.13162">
        <ele>141</ele>
        <time>2011-04-15T09:47:17Z</time>
      </trkpt>
      <trkpt lat="48.53829" lon="2.13164">
        <ele>141</ele>
        <time>2011-04-15T09:47:18Z</time>
      </trkpt>
      <trkpt lat="48.53828" lon="2.13167">
        <ele>141</ele>
        <time>2011-04-15T09:47:19Z</time>
      </trkpt>
      <trkpt lat="48.53827" lon="2.13169">
        <ele>141</ele>
        <time>2011-04-15T09:47:20Z</time>
      </trkpt>
      <trkpt lat="48.53827" lon="2.13171">
        <ele>141</ele>
        <time>2011-04-15T09:47:21Z</time>
      </trkpt>
      <trkpt lat="48.53826" lon="2.13173">
        <ele>141</ele>
        <time>2011-04-15T09:47:22Z</time>
      </trkpt>
      <trkpt lat="48.53826" lon="2.13175">
        <ele>141</ele>
        <time>2011-04-15T09:47:23Z</time>
      </trkpt>
      <trkpt lat="48.53825" lon="2.13177">
        <ele>141</ele>
        <time>2011-04-15T09:47:24Z</time>
      </trkpt>
      <trkpt lat="48.53824" lon="2.1318">
        <ele>141</ele>
        <time>2011-04-15T09:47:25Z</time>
      </trkpt>
      <trkpt lat="48.53823" lon="2.13182">
        <ele>141</ele>
        <time>2011-04-15T09:47:26Z</time>
      </trkpt>
      <trkpt lat="48.53822" lon="2.13184">
        <ele>141</ele>
        <time>2011-04-15T09:47:27Z</time>
      </trkpt>
      <trkpt lat="48.53821" lon="2.13186">
        <ele>141</ele>
        <time>2011-04-15T09:47:28Z</time>
      </trkpt>
      <trkpt lat="48.5382" lon="2.13188">
        <ele>141</ele>
        <time>2011-04-15T09:47:29Z</time>
      </trkpt>
      <trkpt lat="48.53819" lon="2.1319">
        <ele>141</ele>
        <time>2011-04-15T09:47:30Z</time>
      </trkpt>
      <trkpt lat="48.53818" lon="2.13192">
        <ele>141</ele>
        <time>2011-04-15T09:47:31Z</time>
      </trkpt>
      <trkpt lat="48.53817" lon="2.13194">
        <ele>141</ele>
        <time>2011-04-15T09:47:32Z</time>
      </trkpt>
      <trkpt lat="48.53816" lon="2.13195">
        <ele>141</ele>
        <time>2011-04-15T09:47:33Z</time>
      </trkpt>
      <trkpt lat="48.53815" lon="2.13197">
        <ele>141</ele>
        <time>2011-04-15T09:47:34Z</time>
      </trkpt>
      <trkpt lat="48.53814" lon="2.13199">
        <ele>141</ele>
        <time>2011-04-15T09:47:35Z</time>
      </trkpt>
      <trkpt lat="48.53813" lon="2.13201">
        <ele>141</ele>
        <time>2011-04-15T09:47:36Z</time>
      </trkpt>
      <trkpt lat="48.53812" lon="2.13202">
        <ele>141</ele>
        <time>2011-04-15T09:47:37Z</time>
      </trkpt>
      <trkpt lat="48.53811" lon="2.13204">
        <ele>141</ele>
        <time>2011-04-15T09:47:38Z</time>
      </trkpt>
      <trkpt lat="48.53809" lon="2.13206">
        <ele>141</ele>
        <time>2011-04-15T09:47:39Z</time>
      </trkpt>
      <trkpt lat="48.53808" lon="2.13207">
        <ele>141</ele>
        <time>2011-04-15T09:47:40Z</time>
      </trkpt>
      <trkpt lat="48.53807" lon="2.13208">
        <ele>141</ele>
        <time>2011-04-15T09:47:41Z</time>
      </trkpt>
      <trkpt lat="48.53805" lon="2.1321">
        <ele>141</ele>
        <time>2011-04-15T09:47:42Z</time>
      </trkpt>
      <trkpt lat="48.53804" lon="2.13211">
        <ele>141</ele>
        <time>2011-04-15T09:47:43Z</time>
      </trkpt>
      <trkpt lat="48.53803" lon="2.13212">
        <ele>141</ele>
        <time>2011-04-15T09:47:44Z</time>
      </trkpt>
      <trkpt lat="48.53801" lon="2.13214">
        <ele>141</ele>
        <time>2011-04-15T09:47:45Z</time>
      </trkpt>
      <trkpt lat="48.538" lon="2.13215">
        <ele>141</ele>
        <time>2011-04-15T09:47:46Z</time>
      </trkpt>
      <trkpt lat="48.53799" lon="2.13216">
        <ele>141</ele>
        <time>2011-04-15T09:47:47Z</time>
      </trkpt>
      <trkpt lat="48.53797" lon="2.13217">
        <ele>141</ele>
        <time>2011-04-15T09:47:48Z</time>
      </trkpt>
      <trkpt lat="48.53796" lon="2.13219">
        <ele>141</ele>
        <time>2011-04-15T09:47:49Z</time>
      </trkpt>
      <trkpt lat="48.53794" lon="2.1322">
        <ele>141</ele>
        <time>2011-04-15T09:47:50Z</time>
      </trkpt>
      <trkpt lat="48.53793" lon="2.13221">
        <ele>141</ele>
        <time>2011-04-15T09:47:51Z</time>
      </trkpt>
      <trkpt lat="48.53791" lon="2.13222">
        <ele>141</ele>
        <time>2011-04-15T09:47:52Z</time>
      </trkpt>
      <trkpt lat="48.5379" lon="2.13223">
        <ele>141</ele>
        <time>2011-04-15T09:47:53Z</time>
      </trkpt>
      <trkpt lat="48.53788" lon="2.13225">
        <ele>141</ele>
        <time>2011-04-15T09:47:54Z</time>
      </trkpt>
      <trkpt lat="48.53787" lon="2.13226">
        <ele>141</ele>
        <time>2011-04-15T09:47:55Z</time>
      </trkpt>
      <trkpt lat="48.53785" lon="2.13227">
        <ele>141</ele>
        <time>2011-04-15T09:47:56Z</time>
      </trkpt>
      <trkpt lat="48.53784" lon="2.13228">
        <ele>141</ele>
        <time>2011-04-15T09:47:57Z</time>
      </trkpt>
      <trkpt lat="48.53782" lon="2.13229">
        <ele>141</ele>
        <time>2011-04-15T09:47:58Z</time>
      </trkpt>
      <trkpt lat="48.53781" lon="2.1323">
        <ele>141</ele>
        <time>2011-04-15T09:47:59Z</time>
      </trkpt>
      <trkpt lat="48.53779" lon="2.1323">
        <ele>141</ele>
        <time>2011-04-15T09:48:00Z</time>
      </trkpt>
      <trkpt lat="48.53778" lon="2.13231">
        <ele>141</ele>
        <time>2011-04-15T09:48:01Z</time>
      </trkpt>
      <trkpt lat="48.53776" lon="2.13232">
        <ele>141</ele>
        <time>2011-04-15T09:48:02Z</time>
      </trkpt>
      <trkpt lat="48.53775" lon="2.13233">
        <ele>141</ele>
        <time>2011-04-15T09:48:03Z</time>
      </trkpt>
      <trkpt lat="48.53774" lon="2.13234">
        <ele>141</ele>
        <time>2011-04-15T09:48:04Z</time>
      </trkpt>
      <trkpt lat="48.53773" lon="2.13235">
        <ele>141</ele>
        <time>2011-04-15T09:48:05Z</time>
      </trkpt>
      <trkpt lat="48.53771" lon="2.13237">
        <ele>141</ele>
        <time>2011-04-15T09:48:07Z</time>
      </trkpt>
      <trkpt lat="48.53769" lon="2.13239">
        <ele>141</ele>
        <time>2011-04-15T09:48:08Z</time>
      </trkpt>
      <trkpt lat="48.53768" lon="2.1324">
        <ele>141</ele>
        <time>2011-04-15T09:48:09Z</time>
      </trkpt>
      <trkpt lat="48.53766" lon="2.13241">
        <ele>141</ele>
        <time>2011-04-15T09:48:10Z</time>
      </trkpt>
      <trkpt lat="48.53765" lon="2.13243">
        <ele>141</ele>
        <time>2011-04-15T09:48:11Z</time>
      </trkpt>
      <trkpt lat="48.53763" lon="2.13244">
        <ele>141</ele>
        <time>2011-04-15T09:48:12Z</time>
      </trkpt>
      <trkpt lat="48.53761" lon="2.13246">
        <ele>141</ele>
        <time>2011-04-15T09:48:13Z</time>
      </trkpt>
      <trkpt lat="48.5376" lon="2.13247">
        <ele>141</ele>
        <time>2011-04-15T09:48:14Z</time>
      </trkpt>
      <trkpt lat="48.53758" lon="2.13248">
        <ele>141</ele>
        <time>2011-04-15T09:48:15Z</time>
      </trkpt>
      <trkpt lat="48.53756" lon="2.1325">
        <ele>141</ele>
        <time>2011-04-15T09:48:16Z</time>
      </trkpt>
      <trkpt lat="48.53754" lon="2.13251">
        <ele>141</ele>
        <time>2011-04-15T09:48:17Z</time>
      </trkpt>
      <trkpt lat="48.53753" lon="2.13252">
        <ele>141</ele>
        <time>2011-04-15T09:48:18Z</time>
      </trkpt>
      <trkpt lat="48.53751" lon="2.13254">
        <ele>141</ele>
        <time>2011-04-15T09:48:19Z</time>
      </trkpt>
      <trkpt lat="48.5375" lon="2.13255">
        <ele>141</ele>
        <time>2011-04-15T09:48:20Z</time>
      </trkpt>
      <trkpt lat="48.53748" lon="2.13256">
        <ele>141</ele>
        <time>2011-04-15T09:48:21Z</time>
      </trkpt>
      <trkpt lat="48.53746" lon="2.13257">
        <ele>141</ele>
        <time>2011-04-15T09:48:22Z</time>
      </trkpt>
      <trkpt lat="48.53745" lon="2.13258">
        <ele>141</ele>
        <time>2011-04-15T09:48:23Z</time>
      </trkpt>
      <trkpt lat="48.53743" lon="2.1326">
        <ele>141</ele>
        <time>2011-04-15T09:48:24Z</time>
      </trkpt>
      <trkpt lat="48.53742" lon="2.13261">
        <ele>141</ele>
        <time>2011-04-15T09:48:25Z</time>
      </trkpt>
      <trkpt lat="48.53741" lon="2.13262">
        <ele>141</ele>
        <time>2011-04-15T09:48:26Z</time>
      </trkpt>
      <trkpt lat="48.53739" lon="2.13263">
        <ele>141</ele>
        <time>2011-04-15T09:48:27Z</time>
      </trkpt>
      <trkpt lat="48.53737" lon="2.13264">
        <ele>141</ele>
        <time>2011-04-15T09:48:28Z</time>
      </trkpt>
      <trkpt lat="48.53735" lon="2.13266">
        <ele>141</ele>
        <time>2011-04-15T09:48:29Z</time>
      </trkpt>
      <trkpt lat="48.53733" lon="2.13268">
        <ele>141</ele>
        <time>2011-04-15T09:48:30Z</time>
      </trkpt>
      <trkpt lat="48.5373" lon="2.1327">
        <ele>141</ele>
        <time>2011-04-15T09:48:31Z</time>
      </trkpt>
      <trkpt lat="48.53727" lon="2.13272">
        <ele>141</ele>
        <time>2011-04-15T09:48:32Z</time>
      </trkpt>
      <trkpt lat="48.53724" lon="2.13275">
        <ele>141</ele>
        <time>2011-04-15T09:48:33Z</time>
      </trkpt>
      <trkpt lat="48.53721" lon="2.13277">
        <ele>141</ele>
        <time>2011-04-15T09:48:34Z</time>
      </trkpt>
      <trkpt lat="48.53718" lon="2.13279">
        <ele>141</ele>
        <time>2011-04-15T09:48:35Z</time>
      </trkpt>
      <trkpt lat="48.53715" lon="2.13282">
        <ele>141</ele>
        <time>2011-04-15T09:48:36Z</time>
      </trkpt>
      <trkpt lat="48.53712" lon="2.13285">
        <ele>141</ele>
        <time>2011-04-15T09:48:37Z</time>
      </trkpt>
      <trkpt lat="48.53709" lon="2.13288">
        <ele>141</ele>
        <time>2011-04-15T09:48:38Z</time>
      </trkpt>
      <trkpt lat="48.53706" lon="2.1329">
        <ele>141</ele>
        <time>2011-04-15T09:48:39Z</time>
      </trkpt>
      <trkpt lat="48.53702" lon="2.13292">
        <ele>141</ele>
        <time>2011-04-15T09:48:40Z</time>
      </trkpt>
      <trkpt lat="48.53699" lon="2.13295">
        <ele>141</ele>
        <time>2011-04-15T09:48:41Z</time>
      </trkpt>
      <trkpt lat="48.53696" lon="2.13297">
        <ele>141</ele>
        <time>2011-04-15T09:48:42Z</time>
      </trkpt>
      <trkpt lat="48.53693" lon="2.133">
        <ele>141</ele>
        <time>2011-04-15T09:48:43Z</time>
      </trkpt>
      <trkpt lat="48.53689" lon="2.13303">
        <ele>141</ele>
        <time>2011-04-15T09:48:44Z</time>
      </trkpt>
      <trkpt lat="48.53686" lon="2.13306">
        <ele>141</ele>
        <time>2011-04-15T09:48:45Z</time>
      </trkpt>
      <trkpt lat="48.53682" lon="2.13309">
        <ele>141</ele>
        <time>2011-04-15T09:48:46Z</time>
      </trkpt>
      <trkpt lat="48.53678" lon="2.13311">
        <ele>141</ele>
        <time>2011-04-15T09:48:47Z</time>
      </trkpt>
      <trkpt lat="48.53674" lon="2.13314">
        <ele>141</ele>
        <time>2011-04-15T09:48:48Z</time>
      </trkpt>
      <trkpt lat="48.53669" lon="2.13318">
        <ele>141</ele>
        <time>2011-04-15T09:48:49Z</time>
      </trkpt>
      <trkpt lat="48.53665" lon="2.13321">
        <ele>141</ele>
        <time>2011-04-15T09:48:50Z</time>
      </trkpt>
      <trkpt lat="48.5366" lon="2.13325">
        <ele>141</ele>
        <time>2011-04-15T09:48:51Z</time>
      </trkpt>
      <trkpt lat="48.53655" lon="2.13329">
        <ele>141</ele>
        <time>2011-04-15T09:48:52Z</time>
      </trkpt>
      <trkpt lat="48.5365" lon="2.13333">
        <ele>141</ele>
        <time>2011-04-15T09:48:53Z</time>
      </trkpt>
      <trkpt lat="48.53645" lon="2.13338">
        <ele>141</ele>
        <time>2011-04-15T09:48:54Z</time>
      </trkpt>
      <trkpt lat="48.53639" lon="2.13342">
        <ele>141</ele>
        <time>2011-04-15T09:48:55Z</time>
      </trkpt>
      <trkpt lat="48.53633" lon="2.13346">
        <ele>141</ele>
        <time>2011-04-15T09:48:56Z</time>
      </trkpt>
      <trkpt lat="48.53627" lon="2.13351">
        <ele>141</ele>
        <time>2011-04-15T09:48:57Z</time>
      </trkpt>
      <trkpt lat="48.53622" lon="2.13355">
        <ele>141</ele>
        <time>2011-04-15T09:48:58Z</time>
      </trkpt>
      <trkpt lat="48.53616" lon="2.13359">
        <ele>141</ele>
        <time>2011-04-15T09:48:59Z</time>
      </trkpt>
      <trkpt lat="48.5361" lon="2.13363">
        <ele>141</ele>
        <time>2011-04-15T09:49:00Z</time>
      </trkpt>
      <trkpt lat="48.53605" lon="2.13367">
        <ele>141</ele>
        <time>2011-04-15T09:49:01Z</time>
      </trkpt>
      <trkpt lat="48.536" lon="2.13372">
        <ele>141</ele>
        <time>2011-04-15T09:49:02Z</time>
      </trkpt>
      <trkpt lat="48.53594" lon="2.13376">
        <ele>141</ele>
        <time>2011-04-15T09:49:03Z</time>
      </trkpt>
      <trkpt lat="48.53589" lon="2.13381">
        <ele>141</ele>
        <time>2011-04-15T09:49:04Z</time>
      </trkpt>
      <trkpt lat="48.53584" lon="2.13385">
        <ele>141</ele>
        <time>2011-04-15T09:49:05Z</time>
      </trkpt>
      <trkpt lat="48.53579" lon="2.1339">
        <ele>141</ele>
        <time>2011-04-15T09:49:06Z</time>
      </trkpt>
      <trkpt lat="48.53573" lon="2.13394">
        <ele>141</ele>
        <time>2011-04-15T09:49:07Z</time>
      </trkpt>
      <trkpt lat="48.53568" lon="2.13399">
        <ele>141</ele>
        <time>2011-04-15T09:49:08Z</time>
      </trkpt>
      <trkpt lat="48.53564" lon="2.13403">
        <ele>141</ele>
        <time>2011-04-15T09:49:09Z</time>
      </trkpt>
      <trkpt lat="48.53559" lon="2.13408">
        <ele>141</ele>
        <time>2011-04-15T09:49:10Z</time>
      </trkpt>
      <trkpt lat="48.53554" lon="2.13412">
        <ele>141</ele>
        <time>2011-04-15T09:49:11Z</time>
      </trkpt>
      <trkpt lat="48.53549" lon="2.13417">
        <ele>141</ele>
        <time>2011-04-15T09:49:12Z</time>
      </trkpt>
      <trkpt lat="48.53545" lon="2.13422">
        <ele>141</ele>
        <time>2011-04-15T09:49:13Z</time>
      </trkpt>
      <trkpt lat="48.5354" lon="2.13427">
        <ele>141</ele>
        <time>2011-04-15T09:49:14Z</time>
      </trkpt>
      <trkpt lat="48.53535" lon="2.13432">
        <ele>141</ele>
        <time>2011-04-15T09:49:15Z</time>
      </trkpt>
      <trkpt lat="48.53531" lon="2.13436">
        <ele>141</ele>
        <time>2011-04-15T09:49:16Z</time>
      </trkpt>
      <trkpt lat="48.53526" lon="2.13442">
        <ele>141</ele>
        <time>2011-04-15T09:49:17Z</time>
      </trkpt>
      <trkpt lat="48.53521" lon="2.13447">
        <ele>141</ele>
        <time>2011-04-15T09:49:18Z</time>
      </trkpt>
      <trkpt lat="48.53516" lon="2.13452">
        <ele>141</ele>
        <time>2011-04-15T09:49:19Z</time>
      </trkpt>
      <trkpt lat="48.53511" lon="2.13458">
        <ele>141</ele>
        <time>2011-04-15T09:49:20Z</time>
      </trkpt>
      <trkpt lat="48.53506" lon="2.13463">
        <ele>141</ele>
        <time>2011-04-15T09:49:21Z</time>
      </trkpt>
      <trkpt lat="48.53501" lon="2.13468">
        <ele>141</ele>
        <time>2011-04-15T09:49:22Z</time>
      </trkpt>
      <trkpt lat="48.53496" lon="2.13473">
        <ele>141</ele>
        <time>2011-04-15T09:49:23Z</time>
      </trkpt>
      <trkpt lat="48.53491" lon="2.13479">
        <ele>141</ele>
        <time>2011-04-15T09:49:24Z</time>
      </trkpt>
      <trkpt lat="48.53486" lon="2.13484">
        <ele>141</ele>
        <time>2011-04-15T09:49:25Z</time>
      </trkpt>
      <trkpt lat="48.5348" lon="2.1349">
        <ele>141</ele>
        <time>2011-04-15T09:49:26Z</time>
      </trkpt>
      <trkpt lat="48.53475" lon="2.13495">
        <ele>141</ele>
        <time>2011-04-15T09:49:27Z</time>
      </trkpt>
      <trkpt lat="48.5347" lon="2.13501">
        <ele>141</ele>
        <time>2011-04-15T09:49:28Z</time>
      </trkpt>
      <trkpt lat="48.53465" lon="2.13506">
        <ele>141</ele>
        <time>2011-04-15T09:49:29Z</time>
      </trkpt>
      <trkpt lat="48.53459" lon="2.13512">
        <ele>141</ele>
        <time>2011-04-15T09:49:30Z</time>
      </trkpt>
      <trkpt lat="48.53454" lon="2.13517">
        <ele>141</ele>
        <time>2011-04-15T09:49:31Z</time>
      </trkpt>
      <trkpt lat="48.53449" lon="2.13522">
        <ele>141</ele>
        <time>2011-04-15T09:49:32Z</time>
      </trkpt>
      <trkpt lat="48.53444" lon="2.13527">
        <ele>141</ele>
        <time>2011-04-15T09:49:33Z</time>
      </trkpt>
      <trkpt lat="48.53439" lon="2.13531">
        <ele>141</ele>
        <time>2011-04-15T09:49:34Z</time>
      </trkpt>
      <trkpt lat="48.53435" lon="2.13536">
        <ele>141</ele>
        <time>2011-04-15T09:49:35Z</time>
      </trkpt>
      <trkpt lat="48.5343" lon="2.13541">
        <ele>141</ele>
        <time>2011-04-15T09:49:36Z</time>
      </trkpt>
      <trkpt lat="48.53426" lon="2.13546">
        <ele>141</ele>
        <time>2011-04-15T09:49:37Z</time>
      </trkpt>
      <trkpt lat="48.53422" lon="2.1355">
        <ele>141</ele>
        <time>2011-04-15T09:49:38Z</time>
      </trkpt>
      <trkpt lat="48.53418" lon="2.13554">
        <ele>141</ele>
        <time>2011-04-15T09:49:39Z</time>
      </trkpt>
      <trkpt lat="48.53413" lon="2.13559">
        <ele>141</ele>
        <time>2011-04-15T09:49:40Z</time>
      </trkpt>
      <trkpt lat="48.53409" lon="2.13564">
        <ele>141</ele>
        <time>2011-04-15T09:49:41Z</time>
      </trkpt>
      <trkpt lat="48.53404" lon="2.13569">
        <ele>141</ele>
        <time>2011-04-15T09:49:42Z</time>
      </trkpt>
      <trkpt lat="48.534" lon="2.13573">
        <ele>141</ele>
        <time>2011-04-15T09:49:43Z</time>
      </trkpt>
      <trkpt lat="48.53395" lon="2.13578">
        <ele>141</ele>
        <time>2011-04-15T09:49:44Z</time>
      </trkpt>
      <trkpt lat="48.5339" lon="2.13583">
        <ele>141</ele>
        <time>2011-04-15T09:49:45Z</time>
      </trkpt>
      <trkpt lat="48.53386" lon="2.13587">
        <ele>141</ele>
        <time>2011-04-15T09:49:46Z</time>
      </trkpt>
      <trkpt lat="48.53381" lon="2.13592">
        <ele>141</ele>
        <time>2011-04-15T09:49:47Z</time>
      </trkpt>
      <trkpt lat="48.53377" lon="2.13598">
        <ele>141</ele>
        <time>2011-04-15T09:49:48Z</time>
      </trkpt>
      <trkpt lat="48.53373" lon="2.13603">
        <ele>141</ele>
        <time>2011-04-15T09:49:49Z</time>
      </trkpt>
      <trkpt lat="48.53369" lon="2.13609">
        <ele>141</ele>
        <time>2011-04-15T09:49:50Z</time>
      </trkpt>
      <trkpt lat="48.53364" lon="2.13614">
        <ele>141</ele>
        <time>2011-04-15T09:49:51Z</time>
      </trkpt>
      <trkpt lat="48.5336" lon="2.1362">
        <ele>141</ele>
        <time>2011-04-15T09:49:52Z</time>
      </trkpt>
      <trkpt lat="48.53356" lon="2.13626">
        <ele>141</ele>
        <time>2011-04-15T09:49:53Z</time>
      </trkpt>
      <trkpt lat="48.53351" lon="2.13632">
        <ele>141</ele>
        <time>2011-04-15T09:49:54Z</time>
      </trkpt>
      <trkpt lat="48.53348" lon="2.13637">
        <ele>141</ele>
        <time>2011-04-15T09:49:55Z</time>
      </trkpt>
      <trkpt lat="48.53344" lon="2.13643">
        <ele>141</ele>
        <time>2011-04-15T09:49:56Z</time>
      </trkpt>
      <trkpt lat="48.5334" lon="2.13648">
        <ele>141</ele>
        <time>2011-04-15T09:49:57Z</time>
      </trkpt>
      <trkpt lat="48.53336" lon="2.13654">
        <ele>141</ele>
        <time>2011-04-15T09:49:58Z</time>
      </trkpt>
      <trkpt lat="48.53332" lon="2.13659">
        <ele>141</ele>
        <time>2011-04-15T09:49:59Z</time>
      </trkpt>
      <trkpt lat="48.53329" lon="2.13665">
        <ele>141</ele>
        <time>2011-04-15T09:50:00Z</time>
      </trkpt>
      <trkpt lat="48.53325" lon="2.13671">
        <ele>141</ele>
        <time>2011-04-15T09:50:01Z</time>
      </trkpt>
      <trkpt lat="48.53321" lon="2.13676">
        <ele>141</ele>
        <time>2011-04-15T09:50:02Z</time>
      </trkpt>
      <trkpt lat="48.53317" lon="2.13681">
        <ele>141</ele>
        <time>2011-04-15T09:50:03Z</time>
      </trkpt>
      <trkpt lat="48.53313" lon="2.13686">
        <ele>141</ele>
        <time>2011-04-15T09:50:04Z</time>
      </trkpt>
      <trkpt lat="48.5331" lon="2.13691">
        <ele>141</ele>
        <time>2011-04-15T09:50:05Z</time>
      </trkpt>
      <trkpt lat="48.53306" lon="2.13696">
        <ele>141</ele>
        <time>2011-04-15T09:50:06Z</time>
      </trkpt>
      <trkpt lat="48.53302" lon="2.13702">
        <ele>141</ele>
        <time>2011-04-15T09:50:07Z</time>
      </trkpt>
      <trkpt lat="48.53297" lon="2.13707">
        <ele>141</ele>
        <time>2011-04-15T09:50:08Z</time>
      </trkpt>
      <trkpt lat="48.53293" lon="2.13712">
        <ele>141</ele>
        <time>2011-04-15T09:50:09Z</time>
      </trkpt>
      <trkpt lat="48.53289" lon="2.13718">
        <ele>141</ele>
        <time>2011-04-15T09:50:10Z</time>
      </trkpt>
      <trkpt lat="48.53284" lon="2.13723">
        <ele>140</ele>
        <time>2011-04-15T09:50:11Z</time>
      </trkpt>
      <trkpt lat="48.53279" lon="2.13728">
        <ele>140</ele>
        <time>2011-04-15T09:50:12Z</time>
      </trkpt>
      <trkpt lat="48.53273" lon="2.13734">
        <ele>140</ele>
        <time>2011-04-15T09:50:13Z</time>
      </trkpt>
      <trkpt lat="48.53269" lon="2.13739">
        <ele>140</ele>
        <time>2011-04-15T09:50:14Z</time>
      </trkpt>
      <trkpt lat="48.53264" lon="2.13743">
        <ele>140</ele>
        <time>2011-04-15T09:50:15Z</time>
      </trkpt>
      <trkpt lat="48.5326" lon="2.13749">
        <ele>140</ele>
        <time>2011-04-15T09:50:16Z</time>
      </trkpt>
      <trkpt lat="48.53255" lon="2.13754">
        <ele>140</ele>
        <time>2011-04-15T09:50:17Z</time>
      </trkpt>
      <trkpt lat="48.53251" lon="2.13759">
        <ele>140</ele>
        <time>2011-04-15T09:50:18Z</time>
      </trkpt>
      <trkpt lat="48.53246" lon="2.13765">
        <ele>140</ele>
        <time>2011-04-15T09:50:19Z</time>
      </trkpt>
      <trkpt lat="48.53241" lon="2.13771">
        <ele>140</ele>
        <time>2011-04-15T09:50:20Z</time>
      </trkpt>
      <trkpt lat="48.53237" lon="2.13777">
        <ele>140</ele>
        <time>2011-04-15T09:50:21Z</time>
      </trkpt>
      <trkpt lat="48.53232" lon="2.13783">
        <ele>140</ele>
        <time>2011-04-15T09:50:22Z</time>
      </trkpt>
      <trkpt lat="48.53227" lon="2.1379">
        <ele>140</ele>
        <time>2011-04-15T09:50:23Z</time>
      </trkpt>
      <trkpt lat="48.53223" lon="2.13797">
        <ele>140</ele>
        <time>2011-04-15T09:50:24Z</time>
      </trkpt>
      <trkpt lat="48.53218" lon="2.13804">
        <ele>140</ele>
        <time>2011-04-15T09:50:25Z</time>
      </trkpt>
      <trkpt lat="48.53212" lon="2.13811">
        <ele>140</ele>
        <time>2011-04-15T09:50:26Z</time>
      </trkpt>
      <trkpt lat="48.53207" lon="2.13819">
        <ele>140</ele>
        <time>2011-04-15T09:50:27Z</time>
      </trkpt>
      <trkpt lat="48.53203" lon="2.13826">
        <ele>140</ele>
        <time>2011-04-15T09:50:28Z</time>
      </trkpt>
      <trkpt lat="48.53199" lon="2.13834">
        <ele>140</ele>
        <time>2011-04-15T09:50:29Z</time>
      </trkpt>
      <trkpt lat="48.53195" lon="2.13841">
        <ele>140</ele>
        <time>2011-04-15T09:50:30Z</time>
      </trkpt>
      <trkpt lat="48.53192" lon="2.13849">
        <ele>140</ele>
        <time>2011-04-15T09:50:31Z</time>
      </trkpt>
      <trkpt lat="48.53188" lon="2.13855">
        <ele>140</ele>
        <time>2011-04-15T09:50:32Z</time>
      </trkpt>
      <trkpt lat="48.53186" lon="2.13861">
        <ele>140</ele>
        <time>2011-04-15T09:50:33Z</time>
      </trkpt>
      <trkpt lat="48.53183" lon="2.13867">
        <ele>140</ele>
        <time>2011-04-15T09:50:34Z</time>
      </trkpt>
      <trkpt lat="48.5318" lon="2.13873">
        <ele>140</ele>
        <time>2011-04-15T09:50:35Z</time>
      </trkpt>
      <trkpt lat="48.53177" lon="2.13879">
        <ele>140</ele>
        <time>2011-04-15T09:50:36Z</time>
      </trkpt>
      <trkpt lat="48.53174" lon="2.13885">
        <ele>140</ele>
        <time>2011-04-15T09:50:37Z</time>
      </trkpt>
      <trkpt lat="48.53172" lon="2.1389">
        <ele>140</ele>
        <time>2011-04-15T09:50:38Z</time>
      </trkpt>
      <trkpt lat="48.5317" lon="2.13896">
        <ele>140</ele>
        <time>2011-04-15T09:50:39Z</time>
      </trkpt>
      <trkpt lat="48.53167" lon="2.13902">
        <ele>140</ele>
        <time>2011-04-15T09:50:40Z</time>
      </trkpt>
      <trkpt lat="48.53165" lon="2.13906">
        <ele>140</ele>
        <time>2011-04-15T09:50:41Z</time>
      </trkpt>
      <trkpt lat="48.53162" lon="2.1391">
        <ele>140</ele>
        <time>2011-04-15T09:50:42Z</time>
      </trkpt>
      <trkpt lat="48.5316" lon="2.13913">
        <ele>140</ele>
        <time>2011-04-15T09:50:43Z</time>
      </trkpt>
      <trkpt lat="48.53157" lon="2.13918">
        <ele>141</ele>
        <time>2011-04-15T09:50:44Z</time>
      </trkpt>
      <trkpt lat="48.53155" lon="2.1392">
        <ele>142</ele>
        <time>2011-04-15T09:50:45Z</time>
      </trkpt>
      <trkpt lat="48.53154" lon="2.13922">
        <ele>143</ele>
        <time>2011-04-15T09:50:46Z</time>
      </trkpt>
      <trkpt lat="48.53153" lon="2.13923">
        <ele>144</ele>
        <time>2011-04-15T09:50:47Z</time>
      </trkpt>
      <trkpt lat="48.53152" lon="2.13927">
        <ele>146</ele>
        <time>2011-04-15T09:50:49Z</time>
      </trkpt>
      <trkpt lat="48.53151" lon="2.13929">
        <ele>147</ele>
        <time>2011-04-15T09:50:50Z</time>
      </trkpt>
      <trkpt lat="48.53152" lon="2.13932">
        <ele>148</ele>
        <time>2011-04-15T09:50:51Z</time>
      </trkpt>
      <trkpt lat="48.53153" lon="2.13934">
        <ele>148</ele>
        <time>2011-04-15T09:50:52Z</time>
      </trkpt>
      <trkpt lat="48.53153" lon="2.13937">
        <ele>148</ele>
        <time>2011-04-15T09:50:53Z</time>
      </trkpt>
      <trkpt lat="48.53152" lon="2.13941">
        <ele>148</ele>
        <time>2011-04-15T09:50:54Z</time>
      </trkpt>
      <trkpt lat="48.53151" lon="2.13945">
        <ele>148</ele>
        <time>2011-04-15T09:50:55Z</time>
      </trkpt>
      <trkpt lat="48.53149" lon="2.13949">
        <ele>148</ele>
        <time>2011-04-15T09:50:56Z</time>
      </trkpt>
      <trkpt lat="48.53147" lon="2.13952">
        <ele>148</ele>
        <time>2011-04-15T09:50:57Z</time>
      </trkpt>
      <trkpt lat="48.53145" lon="2.13955">
        <ele>149</ele>
        <time>2011-04-15T09:50:58Z</time>
      </trkpt>
      <trkpt lat="48.53144" lon="2.13958">
        <ele>149</ele>
        <time>2011-04-15T09:50:59Z</time>
      </trkpt>
      <trkpt lat="48.53143" lon="2.1396">
        <ele>149</ele>
        <time>2011-04-15T09:51:00Z</time>
      </trkpt>
      <trkpt lat="48.53143" lon="2.13962">
        <ele>149</ele>
        <time>2011-04-15T09:51:02Z</time>
      </trkpt>
      <trkpt lat="48.53143" lon="2.13964">
        <ele>149</ele>
        <time>2011-04-15T09:51:03Z</time>
      </trkpt>
      <trkpt lat="48.53143" lon="2.13966">
        <ele>149</ele>
        <time>2011-04-15T09:51:04Z</time>
      </trkpt>
      <trkpt lat="48.53143" lon="2.13969">
        <ele>149</ele>
        <time>2011-04-15T09:51:05Z</time>
      </trkpt>
      <trkpt lat="48.53145" lon="2.1397">
        <ele>149</ele>
        <time>2011-04-15T09:51:06Z</time>
      </trkpt>
      <trkpt lat="48.53144" lon="2.13972">
        <ele>149</ele>
        <time>2011-04-15T09:51:07Z</time>
      </trkpt>
      <trkpt lat="48.53144" lon="2.13974">
        <ele>149</ele>
        <time>2011-04-15T09:51:08Z</time>
      </trkpt>
      <trkpt lat="48.53144" lon="2.13976">
        <ele>149</ele>
        <time>2011-04-15T09:51:09Z</time>
      </trkpt>
      <trkpt lat="48.53143" lon="2.13978">
        <ele>149</ele>
        <time>2011-04-15T09:51:10Z</time>
      </trkpt>
      <trkpt lat="48.53143" lon="2.13981">
        <ele>149</ele>
        <time>2011-04-15T09:51:11Z</time>
      </trkpt>
      <trkpt lat="48.53142" lon="2.13983">
        <ele>149</ele>
        <time>2011-04-15T09:51:12Z</time>
      </trkpt>
      <trkpt lat="48.53141" lon="2.13985">
        <ele>149</ele>
        <time>2011-04-15T09:51:13Z</time>
      </trkpt>
      <trkpt lat="48.5314" lon="2.13988">
        <ele>149</ele>
        <time>2011-04-15T09:51:14Z</time>
      </trkpt>
      <trkpt lat="48.5314" lon="2.1399">
        <ele>149</ele>
        <time>2011-04-15T09:51:15Z</time>
      </trkpt>
      <trkpt lat="48.53139" lon="2.13992">
        <ele>149</ele>
        <time>2011-04-15T09:51:16Z</time>
      </trkpt>
      <trkpt lat="48.53138" lon="2.13995">
        <ele>149</ele>
        <time>2011-04-15T09:51:17Z</time>
      </trkpt>
      <trkpt lat="48.53138" lon="2.13997">
        <ele>149</ele>
        <time>2011-04-15T09:51:18Z</time>
      </trkpt>
      <trkpt lat="48.53138" lon="2.14">
        <ele>149</ele>
        <time>2011-04-15T09:51:19Z</time>
      </trkpt>
      <trkpt lat="48.53138" lon="2.14002">
        <ele>149</ele>
        <time>2011-04-15T09:51:20Z</time>
      </trkpt>
      <trkpt lat="48.53138" lon="2.14005">
        <ele>148</ele>
        <time>2011-04-15T09:51:21Z</time>
      </trkpt>
      <trkpt lat="48.53138" lon="2.14007">
        <ele>147</ele>
        <time>2011-04-15T09:51:22Z</time>
      </trkpt>
      <trkpt lat="48.53138" lon="2.14009">
        <ele>147</ele>
        <time>2011-04-15T09:51:23Z</time>
      </trkpt>
      <trkpt lat="48.53138" lon="2.14011">
        <ele>146</ele>
        <time>2011-04-15T09:51:24Z</time>
      </trkpt>
      <trkpt lat="48.53138" lon="2.14013">
        <ele>145</ele>
        <time>2011-04-15T09:51:25Z</time>
      </trkpt>
      <trkpt lat="48.53138" lon="2.14015">
        <ele>144</ele>
        <time>2011-04-15T09:51:26Z</time>
      </trkpt>
      <trkpt lat="48.53138" lon="2.14017">
        <ele>143</ele>
        <time>2011-04-15T09:51:27Z</time>
      </trkpt>
      <trkpt lat="48.53137" lon="2.14019">
        <ele>143</ele>
        <time>2011-04-15T09:51:28Z</time>
      </trkpt>
      <trkpt lat="48.53137" lon="2.14022">
        <ele>143</ele>
        <time>2011-04-15T09:51:29Z</time>
      </trkpt>
      <trkpt lat="48.53137" lon="2.14024">
        <ele>142</ele>
        <time>2011-04-15T09:51:30Z</time>
      </trkpt>
      <trkpt lat="48.53136" lon="2.14026">
        <ele>142</ele>
        <time>2011-04-15T09:51:31Z</time>
      </trkpt>
      <trkpt lat="48.53135" lon="2.14029">
        <ele>142</ele>
        <time>2011-04-15T09:51:32Z</time>
      </trkpt>
      <trkpt lat="48.53136" lon="2.14032">
        <ele>142</ele>
        <time>2011-04-15T09:51:33Z</time>
      </trkpt>
      <trkpt lat="48.53136" lon="2.14035">
        <ele>142</ele>
        <time>2011-04-15T09:51:34Z</time>
      </trkpt>
      <trkpt lat="48.53136" lon="2.14038">
        <ele>142</ele>
        <time>2011-04-15T09:51:35Z</time>
      </trkpt>
      <trkpt lat="48.53136" lon="2.1404">
        <ele>142</ele>
        <time>2011-04-15T09:51:36Z</time>
      </trkpt>
      <trkpt lat="48.53135" lon="2.14043">
        <ele>142</ele>
        <time>2011-04-15T09:51:37Z</time>
      </trkpt>
      <trkpt lat="48.53135" lon="2.14045">
        <ele>142</ele>
        <time>2011-04-15T09:51:38Z</time>
      </trkpt>
      <trkpt lat="48.53135" lon="2.14048">
        <ele>142</ele>
        <time>2011-04-15T09:51:39Z</time>
      </trkpt>
      <trkpt lat="48.53135" lon="2.14051">
        <ele>142</ele>
        <time>2011-04-15T09:51:40Z</time>
      </trkpt>
      <trkpt lat="48.53135" lon="2.14055">
        <ele>142</ele>
        <time>2011-04-15T09:51:41Z</time>
      </trkpt>
      <trkpt lat="48.53134" lon="2.14059">
        <ele>142</ele>
        <time>2011-04-15T09:51:42Z</time>
      </trkpt>
      <trkpt lat="48.53134" lon="2.14063">
        <ele>142</ele>
        <time>2011-04-15T09:51:43Z</time>
      </trkpt>
      <trkpt lat="48.53134" lon="2.14067">
        <ele>142</ele>
        <time>2011-04-15T09:51:44Z</time>
      </trkpt>
      <trkpt lat="48.53133" lon="2.1407">
        <ele>142</ele>
        <time>2011-04-15T09:51:45Z</time>
      </trkpt>
      <trkpt lat="48.53132" lon="2.14074">
        <ele>142</ele>
        <time>2011-04-15T09:51:46Z</time>
      </trkpt>
      <trkpt lat="48.53131" lon="2.14079">
        <ele>142</ele>
        <time>2011-04-15T09:51:47Z</time>
      </trkpt>
      <trkpt lat="48.5313" lon="2.14084">
        <ele>142</ele>
        <time>2011-04-15T09:51:48Z</time>
      </trkpt>
      <trkpt lat="48.5313" lon="2.14088">
        <ele>142</ele>
        <time>2011-04-15T09:51:49Z</time>
      </trkpt>
      <trkpt lat="48.53129" lon="2.14092">
        <ele>142</ele>
        <time>2011-04-15T09:51:50Z</time>
      </trkpt>
      <trkpt lat="48.53129" lon="2.14096">
        <ele>142</ele>
        <time>2011-04-15T09:51:51Z</time>
      </trkpt>
      <trkpt lat="48.53127" lon="2.14101">
        <ele>142</ele>
        <time>2011-04-15T09:51:52Z</time>
      </trkpt>
      <trkpt lat="48.53125" lon="2.14105">
        <ele>142</ele>
        <time>2011-04-15T09:51:53Z</time>
      </trkpt>
      <trkpt lat="48.53125" lon="2.14109">
        <ele>142</ele>
        <time>2011-04-15T09:51:54Z</time>
      </trkpt>
      <trkpt lat="48.53124" lon="2.14113">
        <ele>142</ele>
        <time>2011-04-15T09:51:55Z</time>
      </trkpt>
      <trkpt lat="48.53122" lon="2.14117">
        <ele>142</ele>
        <time>2011-04-15T09:51:56Z</time>
      </trkpt>
      <trkpt lat="48.53121" lon="2.1412">
        <ele>142</ele>
        <time>2011-04-15T09:51:57Z</time>
      </trkpt>
      <trkpt lat="48.5312" lon="2.14122">
        <ele>142</ele>
        <time>2011-04-15T09:51:58Z</time>
      </trkpt>
      <trkpt lat="48.53119" lon="2.14125">
        <ele>142</ele>
        <time>2011-04-15T09:51:59Z</time>
      </trkpt>
      <trkpt lat="48.53118" lon="2.14127">
        <ele>143</ele>
        <time>2011-04-15T09:52:00Z</time>
      </trkpt>
      <trkpt lat="48.53117" lon="2.14129">
        <ele>143</ele>
        <time>2011-04-15T09:52:01Z</time>
      </trkpt>
      <trkpt lat="48.53115" lon="2.14132">
        <ele>144</ele>
        <time>2011-04-15T09:52:03Z</time>
      </trkpt>
      <trkpt lat="48.53114" lon="2.14134">
        <ele>144</ele>
        <time>2011-04-15T09:52:04Z</time>
      </trkpt>
      <trkpt lat="48.53112" lon="2.14137">
        <ele>144</ele>
        <time>2011-04-15T09:52:06Z</time>
      </trkpt>
      <trkpt lat="48.53111" lon="2.1414">
        <ele>144</ele>
        <time>2011-04-15T09:52:08Z</time>
      </trkpt>
      <trkpt lat="48.5311" lon="2.14142">
        <ele>144</ele>
        <time>2011-04-15T09:52:10Z</time>
      </trkpt>
      <trkpt lat="48.53109" lon="2.14146">
        <ele>144</ele>
        <time>2011-04-15T09:52:12Z</time>
      </trkpt>
      <trkpt lat="48.53109" lon="2.14149">
        <ele>144</ele>
        <time>2011-04-15T09:52:14Z</time>
      </trkpt>
      <trkpt lat="48.53108" lon="2.1415">
        <ele>144</ele>
        <time>2011-04-15T09:52:15Z</time>
      </trkpt>
      <trkpt lat="48.53107" lon="2.14152">
        <ele>144</ele>
        <time>2011-04-15T09:52:16Z</time>
      </trkpt>
      <trkpt lat="48.53106" lon="2.14154">
        <ele>144</ele>
        <time>2011-04-15T09:52:17Z</time>
      </trkpt>
      <trkpt lat="48.53106" lon="2.14156">
        <ele>143</ele>
        <time>2011-04-15T09:52:18Z</time>
      </trkpt>
      <trkpt lat="48.53106" lon="2.14158">
        <ele>143</ele>
        <time>2011-04-15T09:52:19Z</time>
      </trkpt>
      <trkpt lat="48.53106" lon="2.1416">
        <ele>143</ele>
        <time>2011-04-15T09:52:20Z</time>
      </trkpt>
      <trkpt lat="48.53106" lon="2.14162">
        <ele>143</ele>
        <time>2011-04-15T09:52:21Z</time>
      </trkpt>
      <trkpt lat="48.53106" lon="2.14164">
        <ele>143</ele>
        <time>2011-04-15T09:52:22Z</time>
      </trkpt>
      <trkpt lat="48.53105" lon="2.14167">
        <ele>143</ele>
        <time>2011-04-15T09:52:23Z</time>
      </trkpt>
      <trkpt lat="48.53105" lon="2.14169">
        <ele>143</ele>
        <time>2011-04-15T09:52:24Z</time>
      </trkpt>
      <trkpt lat="48.53104" lon="2.14172">
        <ele>141</ele>
        <time>2011-04-15T09:52:26Z</time>
      </trkpt>
      <trkpt lat="48.53104" lon="2.14175">
        <ele>140</ele>
        <time>2011-04-15T09:52:28Z</time>
      </trkpt>
      <trkpt lat="48.53103" lon="2.14177">
        <ele>139</ele>
        <time>2011-04-15T09:52:29Z</time>
      </trkpt>
      <trkpt lat="48.53102" lon="2.14179">
        <ele>138</ele>
        <time>2011-04-15T09:52:30Z</time>
      </trkpt>
      <trkpt lat="48.53102" lon="2.1418">
        <ele>137</ele>
        <time>2011-04-15T09:52:31Z</time>
      </trkpt>
      <trkpt lat="48.53102" lon="2.14182">
        <ele>136</ele>
        <time>2011-04-15T09:52:32Z</time>
      </trkpt>
      <trkpt lat="48.53102" lon="2.14185">
        <ele>135</ele>
        <time>2011-04-15T09:52:34Z</time>
      </trkpt>
      <trkpt lat="48.53102" lon="2.14187">
        <ele>134</ele>
        <time>2011-04-15T09:52:35Z</time>
      </trkpt>
      <trkpt lat="48.53101" lon="2.14189">
        <ele>133</ele>
        <time>2011-04-15T09:52:36Z</time>
      </trkpt>
      <trkpt lat="48.53101" lon="2.14191">
        <ele>133</ele>
        <time>2011-04-15T09:52:37Z</time>
      </trkpt>
      <trkpt lat="48.53101" lon="2.14193">
        <ele>132</ele>
        <time>2011-04-15T09:52:38Z</time>
      </trkpt>
      <trkpt lat="48.531" lon="2.14196">
        <ele>130</ele>
        <time>2011-04-15T09:52:40Z</time>
      </trkpt>
      <trkpt lat="48.531" lon="2.14198">
        <ele>129</ele>
        <time>2011-04-15T09:52:41Z</time>
      </trkpt>
      <trkpt lat="48.53099" lon="2.142">
        <ele>128</ele>
        <time>2011-04-15T09:52:42Z</time>
      </trkpt>
      <trkpt lat="48.53099" lon="2.14202">
        <ele>127</ele>
        <time>2011-04-15T09:52:43Z</time>
      </trkpt>
      <trkpt lat="48.53099" lon="2.14205">
        <ele>126</ele>
        <time>2011-04-15T09:52:45Z</time>
      </trkpt>
      <trkpt lat="48.53098" lon="2.14208">
        <ele>126</ele>
        <time>2011-04-15T09:52:46Z</time>
      </trkpt>
      <trkpt lat="48.53097" lon="2.1421">
        <ele>125</ele>
        <time>2011-04-15T09:52:47Z</time>
      </trkpt>
      <trkpt lat="48.53098" lon="2.14212">
        <ele>125</ele>
        <time>2011-04-15T09:52:48Z</time>
      </trkpt>
      <trkpt lat="48.53098" lon="2.14214">
        <ele>125</ele>
        <time>2011-04-15T09:52:49Z</time>
      </trkpt>
      <trkpt lat="48.53098" lon="2.14216">
        <ele>124</ele>
        <time>2011-04-15T09:52:50Z</time>
      </trkpt>
      <trkpt lat="48.53098" lon="2.14218">
        <ele>124</ele>
        <time>2011-04-15T09:52:51Z</time>
      </trkpt>
      <trkpt lat="48.53097" lon="2.1422">
        <ele>124</ele>
        <time>2011-04-15T09:52:52Z</time>
      </trkpt>
      <trkpt lat="48.53096" lon="2.14224">
        <ele>123</ele>
        <time>2011-04-15T09:52:54Z</time>
      </trkpt>
      <trkpt lat="48.53095" lon="2.14227">
        <ele>123</ele>
        <time>2011-04-15T09:52:55Z</time>
      </trkpt>
      <trkpt lat="48.53094" lon="2.1423">
        <ele>123</ele>
        <time>2011-04-15T09:52:56Z</time>
      </trkpt>
      <trkpt lat="48.53093" lon="2.14233">
        <ele>123</ele>
        <time>2011-04-15T09:52:57Z</time>
      </trkpt>
      <trkpt lat="48.53092" lon="2.14236">
        <ele>123</ele>
        <time>2011-04-15T09:52:58Z</time>
      </trkpt>
      <trkpt lat="48.53091" lon="2.14238">
        <ele>123</ele>
        <time>2011-04-15T09:52:59Z</time>
      </trkpt>
      <trkpt lat="48.53089" lon="2.1424">
        <ele>123</ele>
        <time>2011-04-15T09:53:00Z</time>
      </trkpt>
      <trkpt lat="48.53088" lon="2.14242">
        <ele>123</ele>
        <time>2011-04-15T09:53:01Z</time>
      </trkpt>
      <trkpt lat="48.53086" lon="2.14245">
        <ele>123</ele>
        <time>2011-04-15T09:53:03Z</time>
      </trkpt>
      <trkpt lat="48.53085" lon="2.14246">
        <ele>123</ele>
        <time>2011-04-15T09:53:04Z</time>
      </trkpt>
      <trkpt lat="48.53082" lon="2.1425">
        <ele>123</ele>
        <time>2011-04-15T09:53:06Z</time>
      </trkpt>
      <trkpt lat="48.53081" lon="2.14253">
        <ele>123</ele>
        <time>2011-04-15T09:53:07Z</time>
      </trkpt>
      <trkpt lat="48.5308" lon="2.14256">
        <ele>123</ele>
        <time>2011-04-15T09:53:08Z</time>
      </trkpt>
      <trkpt lat="48.53079" lon="2.14258">
        <ele>123</ele>
        <time>2011-04-15T09:53:09Z</time>
      </trkpt>
      <trkpt lat="48.53077" lon="2.14259">
        <ele>124</ele>
        <time>2011-04-15T09:53:10Z</time>
      </trkpt>
      <trkpt lat="48.53076" lon="2.14262">
        <ele>124</ele>
        <time>2011-04-15T09:53:12Z</time>
      </trkpt>
      <trkpt lat="48.53074" lon="2.14264">
        <ele>124</ele>
        <time>2011-04-15T09:53:13Z</time>
      </trkpt>
      <trkpt lat="48.53072" lon="2.14265">
        <ele>124</ele>
        <time>2011-04-15T09:53:14Z</time>
      </trkpt>
      <trkpt lat="48.53071" lon="2.14267">
        <ele>125</ele>
        <time>2011-04-15T09:53:15Z</time>
      </trkpt>
      <trkpt lat="48.53069" lon="2.14268">
        <ele>126</ele>
        <time>2011-04-15T09:53:16Z</time>
      </trkpt>
      <trkpt lat="48.53067" lon="2.14269">
        <ele>127</ele>
        <time>2011-04-15T09:53:17Z</time>
      </trkpt>
      <trkpt lat="48.53066" lon="2.1427">
        <ele>127</ele>
        <time>2011-04-15T09:53:18Z</time>
      </trkpt>
      <trkpt lat="48.53063" lon="2.14272">
        <ele>128</ele>
        <time>2011-04-15T09:53:20Z</time>
      </trkpt>
      <trkpt lat="48.53061" lon="2.14274">
        <ele>128</ele>
        <time>2011-04-15T09:53:21Z</time>
      </trkpt>
      <trkpt lat="48.53059" lon="2.14277">
        <ele>129</ele>
        <time>2011-04-15T09:53:22Z</time>
      </trkpt>
      <trkpt lat="48.53058" lon="2.14278">
        <ele>129</ele>
        <time>2011-04-15T09:53:23Z</time>
      </trkpt>
      <trkpt lat="48.53057" lon="2.14281">
        <ele>129</ele>
        <time>2011-04-15T09:53:25Z</time>
      </trkpt>
      <trkpt lat="48.53056" lon="2.14282">
        <ele>129</ele>
        <time>2011-04-15T09:53:26Z</time>
      </trkpt>
      <trkpt lat="48.53054" lon="2.14284">
        <ele>129</ele>
        <time>2011-04-15T09:53:28Z</time>
      </trkpt>
      <trkpt lat="48.53053" lon="2.14286">
        <ele>129</ele>
        <time>2011-04-15T09:53:29Z</time>
      </trkpt>
      <trkpt lat="48.53052" lon="2.14287">
        <ele>129</ele>
        <time>2011-04-15T09:53:31Z</time>
      </trkpt>
      <trkpt lat="48.5305" lon="2.14289">
        <ele>129</ele>
        <time>2011-04-15T09:53:32Z</time>
      </trkpt>
      <trkpt lat="48.53049" lon="2.14291">
        <ele>129</ele>
        <time>2011-04-15T09:53:33Z</time>
      </trkpt>
      <trkpt lat="48.53048" lon="2.14293">
        <ele>129</ele>
        <time>2011-04-15T09:53:35Z</time>
      </trkpt>
      <trkpt lat="48.53048" lon="2.14295">
        <ele>129</ele>
        <time>2011-04-15T09:53:37Z</time>
      </trkpt>
      <trkpt lat="48.53047" lon="2.14297">
        <ele>129</ele>
        <time>2011-04-15T09:53:40Z</time>
      </trkpt>
      <trkpt lat="48.53046" lon="2.14299">
        <ele>128</ele>
        <time>2011-04-15T09:53:41Z</time>
      </trkpt>
      <trkpt lat="48.53045" lon="2.14302">
        <ele>126</ele>
        <time>2011-04-15T09:53:43Z</time>
      </trkpt>
      <trkpt lat="48.53044" lon="2.14304">
        <ele>124</ele>
        <time>2011-04-15T09:53:45Z</time>
      </trkpt>
      <trkpt lat="48.53044" lon="2.14307">
        <ele>122</ele>
        <time>2011-04-15T09:53:47Z</time>
      </trkpt>
      <trkpt lat="48.53043" lon="2.14309">
        <ele>121</ele>
        <time>2011-04-15T09:53:48Z</time>
      </trkpt>
      <trkpt lat="48.53043" lon="2.14312">
        <ele>119</ele>
        <time>2011-04-15T09:53:50Z</time>
      </trkpt>
      <trkpt lat="48.53043" lon="2.14313">
        <ele>119</ele>
        <time>2011-04-15T09:53:51Z</time>
      </trkpt>
      <trkpt lat="48.53042" lon="2.14316">
        <ele>118</ele>
        <time>2011-04-15T09:53:52Z</time>
      </trkpt>
      <trkpt lat="48.53041" lon="2.14318">
        <ele>118</ele>
        <time>2011-04-15T09:53:53Z</time>
      </trkpt>
      <trkpt lat="48.5304" lon="2.1432">
        <ele>118</ele>
        <time>2011-04-15T09:53:54Z</time>
      </trkpt>
      <trkpt lat="48.53039" lon="2.14323">
        <ele>118</ele>
        <time>2011-04-15T09:53:55Z</time>
      </trkpt>
      <trkpt lat="48.53039" lon="2.14325">
        <ele>118</ele>
        <time>2011-04-15T09:53:57Z</time>
      </trkpt>
      <trkpt lat="48.53037" lon="2.14327">
        <ele>118</ele>
        <time>2011-04-15T09:53:59Z</time>
      </trkpt>
      <trkpt lat="48.53036" lon="2.14329">
        <ele>118</ele>
        <time>2011-04-15T09:54:01Z</time>
      </trkpt>
      <trkpt lat="48.53035" lon="2.14327">
        <ele>118</ele>
        <time>2011-04-15T09:54:08Z</time>
      </trkpt>
      <trkpt lat="48.53036" lon="2.14324">
        <ele>118</ele>
        <time>2011-04-15T09:54:10Z</time>
      </trkpt>
      <trkpt lat="48.53036" lon="2.14322">
        <ele>118</ele>
        <time>2011-04-15T09:54:11Z</time>
      </trkpt>
      <trkpt lat="48.53036" lon="2.1432">
        <ele>118</ele>
        <time>2011-04-15T09:54:12Z</time>
      </trkpt>
      <trkpt lat="48.53037" lon="2.14318">
        <ele>118</ele>
        <time>2011-04-15T09:54:13Z</time>
      </trkpt>
      <trkpt lat="48.53037" lon="2.14315">
        <ele>118</ele>
        <time>2011-04-15T09:54:15Z</time>
      </trkpt>
      <trkpt lat="48.53039" lon="2.14314">
        <ele>118</ele>
        <time>2011-04-15T09:54:20Z</time>
      </trkpt>
      <trkpt lat="48.53039" lon="2.14312">
        <ele>118</ele>
        <time>2011-04-15T09:54:22Z</time>
      </trkpt>
      <trkpt lat="48.53039" lon="2.1431">
        <ele>118</ele>
        <time>2011-04-15T09:54:23Z</time>
      </trkpt>
      <trkpt lat="48.53039" lon="2.14309">
        <ele>118</ele>
        <time>2011-04-15T09:54:24Z</time>
      </trkpt>
      <trkpt lat="48.5304" lon="2.14307">
        <ele>118</ele>
        <time>2011-04-15T09:54:25Z</time>
      </trkpt>
      <trkpt lat="48.5304" lon="2.14304">
        <ele>118</ele>
        <time>2011-04-15T09:54:26Z</time>
      </trkpt>
      <trkpt lat="48.5304" lon="2.14301">
        <ele>118</ele>
        <time>2011-04-15T09:54:27Z</time>
      </trkpt>
      <trkpt lat="48.5304" lon="2.14299">
        <ele>118</ele>
        <time>2011-04-15T09:54:28Z</time>
      </trkpt>
      <trkpt lat="48.53041" lon="2.14297">
        <ele>118</ele>
        <time>2011-04-15T09:54:29Z</time>
      </trkpt>
      <trkpt lat="48.53041" lon="2.14295">
        <ele>118</ele>
        <time>2011-04-15T09:54:30Z</time>
      </trkpt>
      <trkpt lat="48.53042" lon="2.14293">
        <ele>118</ele>
        <time>2011-04-15T09:54:31Z</time>
      </trkpt>
      <trkpt lat="48.53042" lon="2.1429">
        <ele>118</ele>
        <time>2011-04-15T09:54:32Z</time>
      </trkpt>
      <trkpt lat="48.53044" lon="2.14288">
        <ele>118</ele>
        <time>2011-04-15T09:54:34Z</time>
      </trkpt>
      <trkpt lat="48.53044" lon="2.14286">
        <ele>118</ele>
        <time>2011-04-15T09:54:35Z</time>
      </trkpt>
      <trkpt lat="48.53045" lon="2.14283">
        <ele>118</ele>
        <time>2011-04-15T09:54:37Z</time>
      </trkpt>
      <trkpt lat="48.53045" lon="2.14281">
        <ele>118</ele>
        <time>2011-04-15T09:54:38Z</time>
      </trkpt>
      <trkpt lat="48.53045" lon="2.1428">
        <ele>118</ele>
        <time>2011-04-15T09:54:39Z</time>
      </trkpt>
      <trkpt lat="48.53047" lon="2.14278">
        <ele>118</ele>
        <time>2011-04-15T09:54:40Z</time>
      </trkpt>
      <trkpt lat="48.53048" lon="2.14275">
        <ele>118</ele>
        <time>2011-04-15T09:54:41Z</time>
      </trkpt>
      <trkpt lat="48.5305" lon="2.14274">
        <ele>118</ele>
        <time>2011-04-15T09:54:42Z</time>
      </trkpt>
      <trkpt lat="48.53051" lon="2.14272">
        <ele>118</ele>
        <time>2011-04-15T09:54:44Z</time>
      </trkpt>
      <trkpt lat="48.53053" lon="2.1427">
        <ele>118</ele>
        <time>2011-04-15T09:54:46Z</time>
      </trkpt>
      <trkpt lat="48.53054" lon="2.14267">
        <ele>118</ele>
        <time>2011-04-15T09:54:48Z</time>
      </trkpt>
      <trkpt lat="48.53055" lon="2.14264">
        <ele>118</ele>
        <time>2011-04-15T09:54:50Z</time>
      </trkpt>
      <trkpt lat="48.53056" lon="2.14262">
        <ele>119</ele>
        <time>2011-04-15T09:54:52Z</time>
      </trkpt>
      <trkpt lat="48.53057" lon="2.14262">
        <ele>120</ele>
        <time>2011-04-15T09:54:54Z</time>
      </trkpt>
      <trkpt lat="48.53059" lon="2.14262">
        <ele>121</ele>
        <time>2011-04-15T09:54:56Z</time>
      </trkpt>
      <trkpt lat="48.53061" lon="2.1426">
        <ele>122</ele>
        <time>2011-04-15T09:54:58Z</time>
      </trkpt>
      <trkpt lat="48.53063" lon="2.14259">
        <ele>122</ele>
        <time>2011-04-15T09:54:59Z</time>
      </trkpt>
      <trkpt lat="48.53064" lon="2.14258">
        <ele>122</ele>
        <time>2011-04-15T09:55:00Z</time>
      </trkpt>
      <trkpt lat="48.53066" lon="2.14257">
        <ele>122</ele>
        <time>2011-04-15T09:55:01Z</time>
      </trkpt>
      <trkpt lat="48.53067" lon="2.14256">
        <ele>122</ele>
        <time>2011-04-15T09:55:02Z</time>
      </trkpt>
      <trkpt lat="48.53068" lon="2.14255">
        <ele>122</ele>
        <time>2011-04-15T09:55:03Z</time>
      </trkpt>
      <trkpt lat="48.53069" lon="2.14254">
        <ele>122</ele>
        <time>2011-04-15T09:55:04Z</time>
      </trkpt>
      <trkpt lat="48.53071" lon="2.14251">
        <ele>122</ele>
        <time>2011-04-15T09:55:06Z</time>
      </trkpt>
      <trkpt lat="48.53071" lon="2.14249">
        <ele>123</ele>
        <time>2011-04-15T09:55:08Z</time>
      </trkpt>
      <trkpt lat="48.53072" lon="2.14247">
        <ele>124</ele>
        <time>2011-04-15T09:55:10Z</time>
      </trkpt>
      <trkpt lat="48.53071" lon="2.14245">
        <ele>130</ele>
        <time>2011-04-15T09:55:22Z</time>
      </trkpt>
      <trkpt lat="48.5307" lon="2.14243">
        <ele>130</ele>
        <time>2011-04-15T09:55:25Z</time>
      </trkpt>
      <trkpt lat="48.5307" lon="2.14241">
        <ele>130</ele>
        <time>2011-04-15T09:55:27Z</time>
      </trkpt>
      <trkpt lat="48.53069" lon="2.14239">
        <ele>130</ele>
        <time>2011-04-15T09:55:29Z</time>
      </trkpt>
      <trkpt lat="48.53069" lon="2.14237">
        <ele>130</ele>
        <time>2011-04-15T09:55:31Z</time>
      </trkpt>
      <trkpt lat="48.53067" lon="2.14236">
        <ele>130</ele>
        <time>2011-04-15T09:55:32Z</time>
      </trkpt>
      <trkpt lat="48.53066" lon="2.14236">
        <ele>130</ele>
        <time>2011-04-15T09:55:33Z</time>
      </trkpt>
      <trkpt lat="48.53063" lon="2.14235">
        <ele>130</ele>
        <time>2011-04-15T09:55:35Z</time>
      </trkpt>
      <trkpt lat="48.53062" lon="2.14235">
        <ele>130</ele>
        <time>2011-04-15T09:55:36Z</time>
      </trkpt>
      <trkpt lat="48.5306" lon="2.14233">
        <ele>130</ele>
        <time>2011-04-15T09:55:38Z</time>
      </trkpt>
      <trkpt lat="48.53058" lon="2.14232">
        <ele>130</ele>
        <time>2011-04-15T09:55:40Z</time>
      </trkpt>
      <trkpt lat="48.53057" lon="2.14231">
        <ele>130</ele>
        <time>2011-04-15T09:55:41Z</time>
      </trkpt>
      <trkpt lat="48.53055" lon="2.14231">
        <ele>130</ele>
        <time>2011-04-15T09:55:42Z</time>
      </trkpt>
      <trkpt lat="48.53053" lon="2.1423">
        <ele>130</ele>
        <time>2011-04-15T09:55:44Z</time>
      </trkpt>
      <trkpt lat="48.53051" lon="2.14228">
        <ele>130</ele>
        <time>2011-04-15T09:55:45Z</time>
      </trkpt>
      <trkpt lat="48.53049" lon="2.14227">
        <ele>130</ele>
        <time>2011-04-15T09:55:46Z</time>
      </trkpt>
      <trkpt lat="48.53048" lon="2.14225">
        <ele>130</ele>
        <time>2011-04-15T09:55:47Z</time>
      </trkpt>
      <trkpt lat="48.53046" lon="2.14222">
        <ele>130</ele>
        <time>2011-04-15T09:55:49Z</time>
      </trkpt>
      <trkpt lat="48.53045" lon="2.14221">
        <ele>130</ele>
        <time>2011-04-15T09:55:50Z</time>
      </trkpt>
      <trkpt lat="48.53043" lon="2.14219">
        <ele>130</ele>
        <time>2011-04-15T09:55:51Z</time>
      </trkpt>
      <trkpt lat="48.53041" lon="2.14216">
        <ele>130</ele>
        <time>2011-04-15T09:55:53Z</time>
      </trkpt>
      <trkpt lat="48.5304" lon="2.14215">
        <ele>130</ele>
        <time>2011-04-15T09:55:54Z</time>
      </trkpt>
      <trkpt lat="48.53038" lon="2.14215">
        <ele>130</ele>
        <time>2011-04-15T09:55:55Z</time>
      </trkpt>
      <trkpt lat="48.53037" lon="2.14213">
        <ele>130</ele>
        <time>2011-04-15T09:55:56Z</time>
      </trkpt>
      <trkpt lat="48.53035" lon="2.14213">
        <ele>130</ele>
        <time>2011-04-15T09:55:57Z</time>
      </trkpt>
      <trkpt lat="48.53033" lon="2.14212">
        <ele>130</ele>
        <time>2011-04-15T09:55:58Z</time>
      </trkpt>
      <trkpt lat="48.53031" lon="2.1421">
        <ele>130</ele>
        <time>2011-04-15T09:55:59Z</time>
      </trkpt>
      <trkpt lat="48.5303" lon="2.14209">
        <ele>130</ele>
        <time>2011-04-15T09:56:00Z</time>
      </trkpt>
      <trkpt lat="48.53028" lon="2.14206">
        <ele>130</ele>
        <time>2011-04-15T09:56:02Z</time>
      </trkpt>
      <trkpt lat="48.53027" lon="2.14204">
        <ele>130</ele>
        <time>2011-04-15T09:56:03Z</time>
      </trkpt>
      <trkpt lat="48.53026" lon="2.14202">
        <ele>130</ele>
        <time>2011-04-15T09:56:04Z</time>
      </trkpt>
      <trkpt lat="48.53025" lon="2.14201">
        <ele>130</ele>
        <time>2011-04-15T09:56:05Z</time>
      </trkpt>
      <trkpt lat="48.53024" lon="2.142">
        <ele>130</ele>
        <time>2011-04-15T09:56:06Z</time>
      </trkpt>
      <trkpt lat="48.53023" lon="2.14198">
        <ele>130</ele>
        <time>2011-04-15T09:56:07Z</time>
      </trkpt>
      <trkpt lat="48.53023" lon="2.14196">
        <ele>130</ele>
        <time>2011-04-15T09:56:08Z</time>
      </trkpt>
      <trkpt lat="48.53021" lon="2.14193">
        <ele>130</ele>
        <time>2011-04-15T09:56:10Z</time>
      </trkpt>
      <trkpt lat="48.5302" lon="2.14191">
        <ele>130</ele>
        <time>2011-04-15T09:56:11Z</time>
      </trkpt>
      <trkpt lat="48.5302" lon="2.14189">
        <ele>130</ele>
        <time>2011-04-15T09:56:12Z</time>
      </trkpt>
      <trkpt lat="48.53018" lon="2.14187">
        <ele>130</ele>
        <time>2011-04-15T09:56:14Z</time>
      </trkpt>
      <trkpt lat="48.53016" lon="2.14185">
        <ele>130</ele>
        <time>2011-04-15T09:56:16Z</time>
      </trkpt>
      <trkpt lat="48.53014" lon="2.14183">
        <ele>130</ele>
        <time>2011-04-15T09:56:18Z</time>
      </trkpt>
      <trkpt lat="48.53013" lon="2.14182">
        <ele>130</ele>
        <time>2011-04-15T09:56:19Z</time>
      </trkpt>
      <trkpt lat="48.53011" lon="2.14181">
        <ele>130</ele>
        <time>2011-04-15T09:56:20Z</time>
      </trkpt>
      <trkpt lat="48.53009" lon="2.1418">
        <ele>130</ele>
        <time>2011-04-15T09:56:21Z</time>
      </trkpt>
      <trkpt lat="48.53007" lon="2.14177">
        <ele>130</ele>
        <time>2011-04-15T09:56:23Z</time>
      </trkpt>
      <trkpt lat="48.53005" lon="2.14177">
        <ele>130</ele>
        <time>2011-04-15T09:56:24Z</time>
      </trkpt>
      <trkpt lat="48.53004" lon="2.14175">
        <ele>130</ele>
        <time>2011-04-15T09:56:25Z</time>
      </trkpt>
      <trkpt lat="48.53003" lon="2.14174">
        <ele>130</ele>
        <time>2011-04-15T09:56:26Z</time>
      </trkpt>
      <trkpt lat="48.53001" lon="2.14172">
        <ele>130</ele>
        <time>2011-04-15T09:56:27Z</time>
      </trkpt>
      <trkpt lat="48.53" lon="2.14171">
        <ele>130</ele>
        <time>2011-04-15T09:56:28Z</time>
      </trkpt>
      <trkpt lat="48.52999" lon="2.1417">
        <ele>130</ele>
        <time>2011-04-15T09:56:29Z</time>
      </trkpt>
      <trkpt lat="48.52997" lon="2.14169">
        <ele>130</ele>
        <time>2011-04-15T09:56:30Z</time>
      </trkpt>
      <trkpt lat="48.52994" lon="2.14169">
        <ele>130</ele>
        <time>2011-04-15T09:56:31Z</time>
      </trkpt>
      <trkpt lat="48.52993" lon="2.14169">
        <ele>130</ele>
        <time>2011-04-15T09:56:32Z</time>
      </trkpt>
      <trkpt lat="48.5299" lon="2.14168">
        <ele>130</ele>
        <time>2011-04-15T09:56:34Z</time>
      </trkpt>
      <trkpt lat="48.52989" lon="2.14168">
        <ele>130</ele>
        <time>2011-04-15T09:56:35Z</time>
      </trkpt>
      <trkpt lat="48.52988" lon="2.14168">
        <ele>130</ele>
        <time>2011-04-15T09:56:36Z</time>
      </trkpt>
      <trkpt lat="48.52987" lon="2.14168">
        <ele>130</ele>
        <time>2011-04-15T09:56:37Z</time>
      </trkpt>
      <trkpt lat="48.52985" lon="2.14169">
        <ele>130</ele>
        <time>2011-04-15T09:56:39Z</time>
      </trkpt>
      <trkpt lat="48.52984" lon="2.1417">
        <ele>130</ele>
        <time>2011-04-15T09:56:40Z</time>
      </trkpt>
      <trkpt lat="48.52982" lon="2.14171">
        <ele>130</ele>
        <time>2011-04-15T09:56:42Z</time>
      </trkpt>
      <trkpt lat="48.5298" lon="2.14171">
        <ele>130</ele>
        <time>2011-04-15T09:56:44Z</time>
      </trkpt>
      <trkpt lat="48.52978" lon="2.14171">
        <ele>130</ele>
        <time>2011-04-15T09:56:45Z</time>
      </trkpt>
      <trkpt lat="48.52977" lon="2.14172">
        <ele>130</ele>
        <time>2011-04-15T09:56:46Z</time>
      </trkpt>
      <trkpt lat="48.52975" lon="2.14172">
        <ele>130</ele>
        <time>2011-04-15T09:56:47Z</time>
      </trkpt>
      <trkpt lat="48.52973" lon="2.1417">
        <ele>129</ele>
        <time>2011-04-15T09:56:50Z</time>
      </trkpt>
      <trkpt lat="48.52972" lon="2.1417">
        <ele>128</ele>
        <time>2011-04-15T09:56:51Z</time>
      </trkpt>
      <trkpt lat="48.5297" lon="2.14169">
        <ele>127</ele>
        <time>2011-04-15T09:56:52Z</time>
      </trkpt>
      <trkpt lat="48.52969" lon="2.14167">
        <ele>127</ele>
        <time>2011-04-15T09:56:53Z</time>
      </trkpt>
      <trkpt lat="48.52968" lon="2.14165">
        <ele>126</ele>
        <time>2011-04-15T09:56:54Z</time>
      </trkpt>
      <trkpt lat="48.52966" lon="2.14165">
        <ele>126</ele>
        <time>2011-04-15T09:56:55Z</time>
      </trkpt>
      <trkpt lat="48.52964" lon="2.14164">
        <ele>125</ele>
        <time>2011-04-15T09:56:56Z</time>
      </trkpt>
      <trkpt lat="48.52963" lon="2.14163">
        <ele>125</ele>
        <time>2011-04-15T09:56:57Z</time>
      </trkpt>
      <trkpt lat="48.52962" lon="2.14161">
        <ele>124</ele>
        <time>2011-04-15T09:56:58Z</time>
      </trkpt>
      <trkpt lat="48.5296" lon="2.14159">
        <ele>124</ele>
        <time>2011-04-15T09:57:00Z</time>
      </trkpt>
      <trkpt lat="48.52958" lon="2.14158">
        <ele>123</ele>
        <time>2011-04-15T09:57:01Z</time>
      </trkpt>
      <trkpt lat="48.52957" lon="2.14157">
        <ele>123</ele>
        <time>2011-04-15T09:57:02Z</time>
      </trkpt>
      <trkpt lat="48.52956" lon="2.14156">
        <ele>122</ele>
        <time>2011-04-15T09:57:03Z</time>
      </trkpt>
      <trkpt lat="48.52953" lon="2.14156">
        <ele>121</ele>
        <time>2011-04-15T09:57:05Z</time>
      </trkpt>
      <trkpt lat="48.52952" lon="2.14156">
        <ele>121</ele>
        <time>2011-04-15T09:57:06Z</time>
      </trkpt>
      <trkpt lat="48.52951" lon="2.14156">
        <ele>121</ele>
        <time>2011-04-15T09:57:08Z</time>
      </trkpt>
      <trkpt lat="48.52949" lon="2.14157">
        <ele>121</ele>
        <time>2011-04-15T09:57:11Z</time>
      </trkpt>
      <trkpt lat="48.52947" lon="2.14157">
        <ele>121</ele>
        <time>2011-04-15T09:57:12Z</time>
      </trkpt>
      <trkpt lat="48.52946" lon="2.14157">
        <ele>121</ele>
        <time>2011-04-15T09:57:13Z</time>
      </trkpt>
      <trkpt lat="48.52945" lon="2.14157">
        <ele>121</ele>
        <time>2011-04-15T09:57:14Z</time>
      </trkpt>
      <trkpt lat="48.52944" lon="2.14157">
        <ele>121</ele>
        <time>2011-04-15T09:57:15Z</time>
      </trkpt>
      <trkpt lat="48.52943" lon="2.14158">
        <ele>121</ele>
        <time>2011-04-15T09:57:16Z</time>
      </trkpt>
      <trkpt lat="48.52941" lon="2.14158">
        <ele>123</ele>
        <time>2011-04-15T09:57:22Z</time>
      </trkpt>
      <trkpt lat="48.5294" lon="2.14159">
        <ele>123</ele>
        <time>2011-04-15T09:57:26Z</time>
      </trkpt>
      <trkpt lat="48.52939" lon="2.1416">
        <ele>123</ele>
        <time>2011-04-15T09:57:29Z</time>
      </trkpt>
      <trkpt lat="48.52937" lon="2.14161">
        <ele>123</ele>
        <time>2011-04-15T09:57:32Z</time>
      </trkpt>
      <trkpt lat="48.52936" lon="2.14162">
        <ele>124</ele>
        <time>2011-04-15T09:57:36Z</time>
      </trkpt>
      <trkpt lat="48.52935" lon="2.14162">
        <ele>124</ele>
        <time>2011-04-15T09:57:40Z</time>
      </trkpt>
      <trkpt lat="48.52933" lon="2.14163">
        <ele>125</ele>
        <time>2011-04-15T09:57:43Z</time>
      </trkpt>
      <trkpt lat="48.52931" lon="2.14164">
        <ele>127</ele>
        <time>2011-04-15T09:57:45Z</time>
      </trkpt>
      <trkpt lat="48.5293" lon="2.14163">
        <ele>130</ele>
        <time>2011-04-15T09:57:48Z</time>
      </trkpt>
      <trkpt lat="48.52929" lon="2.14163">
        <ele>133</ele>
        <time>2011-04-15T09:57:51Z</time>
      </trkpt>
      <trkpt lat="48.52927" lon="2.14162">
        <ele>135</ele>
        <time>2011-04-15T09:57:53Z</time>
      </trkpt>
      <trkpt lat="48.52926" lon="2.14159">
        <ele>135</ele>
        <time>2011-04-15T09:57:55Z</time>
      </trkpt>
      <trkpt lat="48.52926" lon="2.14156">
        <ele>135</ele>
        <time>2011-04-15T09:57:57Z</time>
      </trkpt>
      <trkpt lat="48.52926" lon="2.14154">
        <ele>135</ele>
        <time>2011-04-15T09:57:58Z</time>
      </trkpt>
      <trkpt lat="48.52924" lon="2.14152">
        <ele>135</ele>
        <time>2011-04-15T09:58:00Z</time>
      </trkpt>
      <trkpt lat="48.52923" lon="2.14149">
        <ele>133</ele>
        <time>2011-04-15T09:58:02Z</time>
      </trkpt>
      <trkpt lat="48.52921" lon="2.14148">
        <ele>132</ele>
        <time>2011-04-15T09:58:04Z</time>
      </trkpt>
      <trkpt lat="48.5292" lon="2.14146">
        <ele>130</ele>
        <time>2011-04-15T09:58:06Z</time>
      </trkpt>
      <trkpt lat="48.52919" lon="2.14145">
        <ele>128</ele>
        <time>2011-04-15T09:58:08Z</time>
      </trkpt>
      <trkpt lat="48.52917" lon="2.14144">
        <ele>126</ele>
        <time>2011-04-15T09:58:10Z</time>
      </trkpt>
      <trkpt lat="48.52916" lon="2.14143">
        <ele>124</ele>
        <time>2011-04-15T09:58:12Z</time>
      </trkpt>
      <trkpt lat="48.52915" lon="2.14143">
        <ele>123</ele>
        <time>2011-04-15T09:58:13Z</time>
      </trkpt>
      <trkpt lat="48.52913" lon="2.14142">
        <ele>122</ele>
        <time>2011-04-15T09:58:14Z</time>
      </trkpt>
      <trkpt lat="48.52913" lon="2.14141">
        <ele>122</ele>
        <time>2011-04-15T09:58:15Z</time>
      </trkpt>
      <trkpt lat="48.52911" lon="2.14139">
        <ele>121</ele>
        <time>2011-04-15T09:58:16Z</time>
      </trkpt>
      <trkpt lat="48.5291" lon="2.14138">
        <ele>120</ele>
        <time>2011-04-15T09:58:17Z</time>
      </trkpt>
      <trkpt lat="48.52909" lon="2.14137">
        <ele>119</ele>
        <time>2011-04-15T09:58:18Z</time>
      </trkpt>
      <trkpt lat="48.52906" lon="2.14136">
        <ele>118</ele>
        <time>2011-04-15T09:58:20Z</time>
      </trkpt>
      <trkpt lat="48.52905" lon="2.14135">
        <ele>118</ele>
        <time>2011-04-15T09:58:21Z</time>
      </trkpt>
      <trkpt lat="48.52903" lon="2.14134">
        <ele>117</ele>
        <time>2011-04-15T09:58:22Z</time>
      </trkpt>
      <trkpt lat="48.52902" lon="2.14134">
        <ele>117</ele>
        <time>2011-04-15T09:58:23Z</time>
      </trkpt>
      <trkpt lat="48.529" lon="2.14133">
        <ele>117</ele>
        <time>2011-04-15T09:58:24Z</time>
      </trkpt>
      <trkpt lat="48.52899" lon="2.14132">
        <ele>116</ele>
        <time>2011-04-15T09:58:25Z</time>
      </trkpt>
      <trkpt lat="48.52897" lon="2.14132">
        <ele>116</ele>
        <time>2011-04-15T09:58:26Z</time>
      </trkpt>
      <trkpt lat="48.52895" lon="2.14133">
        <ele>116</ele>
        <time>2011-04-15T09:58:27Z</time>
      </trkpt>
      <trkpt lat="48.52893" lon="2.14133">
        <ele>116</ele>
        <time>2011-04-15T09:58:29Z</time>
      </trkpt>
      <trkpt lat="48.52892" lon="2.14134">
        <ele>116</ele>
        <time>2011-04-15T09:58:30Z</time>
      </trkpt>
      <trkpt lat="48.5289" lon="2.14134">
        <ele>116</ele>
        <time>2011-04-15T09:58:31Z</time>
      </trkpt>
      <trkpt lat="48.52889" lon="2.14134">
        <ele>116</ele>
        <time>2011-04-15T09:58:32Z</time>
      </trkpt>
      <trkpt lat="48.52887" lon="2.14134">
        <ele>116</ele>
        <time>2011-04-15T09:58:33Z</time>
      </trkpt>
      <trkpt lat="48.52885" lon="2.14134">
        <ele>116</ele>
        <time>2011-04-15T09:58:34Z</time>
      </trkpt>
      <trkpt lat="48.52883" lon="2.14133">
        <ele>116</ele>
        <time>2011-04-15T09:58:35Z</time>
      </trkpt>
      <trkpt lat="48.52882" lon="2.14133">
        <ele>116</ele>
        <time>2011-04-15T09:58:36Z</time>
      </trkpt>
      <trkpt lat="48.5288" lon="2.14133">
        <ele>116</ele>
        <time>2011-04-15T09:58:37Z</time>
      </trkpt>
      <trkpt lat="48.52878" lon="2.14132">
        <ele>116</ele>
        <time>2011-04-15T09:58:38Z</time>
      </trkpt>
      <trkpt lat="48.52875" lon="2.14132">
        <ele>116</ele>
        <time>2011-04-15T09:58:39Z</time>
      </trkpt>
      <trkpt lat="48.52873" lon="2.14131">
        <ele>116</ele>
        <time>2011-04-15T09:58:40Z</time>
      </trkpt>
      <trkpt lat="48.52871" lon="2.1413">
        <ele>116</ele>
        <time>2011-04-15T09:58:41Z</time>
      </trkpt>
      <trkpt lat="48.52869" lon="2.14129">
        <ele>116</ele>
        <time>2011-04-15T09:58:42Z</time>
      </trkpt>
      <trkpt lat="48.52868" lon="2.14129">
        <ele>116</ele>
        <time>2011-04-15T09:58:43Z</time>
      </trkpt>
      <trkpt lat="48.52866" lon="2.14128">
        <ele>115</ele>
        <time>2011-04-15T09:58:44Z</time>
      </trkpt>
      <trkpt lat="48.52864" lon="2.14128">
        <ele>115</ele>
        <time>2011-04-15T09:58:45Z</time>
      </trkpt>
      <trkpt lat="48.52862" lon="2.14127">
        <ele>115</ele>
        <time>2011-04-15T09:58:46Z</time>
      </trkpt>
      <trkpt lat="48.5286" lon="2.14127">
        <ele>114</ele>
        <time>2011-04-15T09:58:47Z</time>
      </trkpt>
      <trkpt lat="48.52858" lon="2.14127">
        <ele>114</ele>
        <time>2011-04-15T09:58:48Z</time>
      </trkpt>
      <trkpt lat="48.52856" lon="2.14127">
        <ele>114</ele>
        <time>2011-04-15T09:58:49Z</time>
      </trkpt>
      <trkpt lat="48.52854" lon="2.14126">
        <ele>114</ele>
        <time>2011-04-15T09:58:50Z</time>
      </trkpt>
      <trkpt lat="48.52852" lon="2.14126">
        <ele>114</ele>
        <time>2011-04-15T09:58:51Z</time>
      </trkpt>
      <trkpt lat="48.52851" lon="2.14125">
        <ele>114</ele>
        <time>2011-04-15T09:58:52Z</time>
      </trkpt>
      <trkpt lat="48.52849" lon="2.14125">
        <ele>114</ele>
        <time>2011-04-15T09:58:53Z</time>
      </trkpt>
      <trkpt lat="48.52847" lon="2.14124">
        <ele>114</ele>
        <time>2011-04-15T09:58:54Z</time>
      </trkpt>
      <trkpt lat="48.52845" lon="2.14124">
        <ele>114</ele>
        <time>2011-04-15T09:58:55Z</time>
      </trkpt>
      <trkpt lat="48.52843" lon="2.14124">
        <ele>114</ele>
        <time>2011-04-15T09:58:56Z</time>
      </trkpt>
      <trkpt lat="48.52841" lon="2.14124">
        <ele>114</ele>
        <time>2011-04-15T09:58:57Z</time>
      </trkpt>
      <trkpt lat="48.52839" lon="2.14124">
        <ele>114</ele>
        <time>2011-04-15T09:58:58Z</time>
      </trkpt>
      <trkpt lat="48.52838" lon="2.14123">
        <ele>114</ele>
        <time>2011-04-15T09:58:59Z</time>
      </trkpt>
      <trkpt lat="48.52836" lon="2.14123">
        <ele>114</ele>
        <time>2011-04-15T09:59:00Z</time>
      </trkpt>
      <trkpt lat="48.52834" lon="2.14123">
        <ele>114</ele>
        <time>2011-04-15T09:59:01Z</time>
      </trkpt>
      <trkpt lat="48.52831" lon="2.14122">
        <ele>114</ele>
        <time>2011-04-15T09:59:02Z</time>
      </trkpt>
      <trkpt lat="48.5283" lon="2.14122">
        <ele>114</ele>
        <time>2011-04-15T09:59:03Z</time>
      </trkpt>
      <trkpt lat="48.52828" lon="2.14121">
        <ele>114</ele>
        <time>2011-04-15T09:59:04Z</time>
      </trkpt>
      <trkpt lat="48.52826" lon="2.1412">
        <ele>114</ele>
        <time>2011-04-15T09:59:05Z</time>
      </trkpt>
      <trkpt lat="48.52825" lon="2.1412">
        <ele>114</ele>
        <time>2011-04-15T09:59:06Z</time>
      </trkpt>
      <trkpt lat="48.52823" lon="2.14119">
        <ele>114</ele>
        <time>2011-04-15T09:59:07Z</time>
      </trkpt>
      <trkpt lat="48.52822" lon="2.14118">
        <ele>114</ele>
        <time>2011-04-15T09:59:08Z</time>
      </trkpt>
      <trkpt lat="48.5282" lon="2.14117">
        <ele>114</ele>
        <time>2011-04-15T09:59:09Z</time>
      </trkpt>
      <trkpt lat="48.52818" lon="2.14116">
        <ele>114</ele>
        <time>2011-04-15T09:59:10Z</time>
      </trkpt>
      <trkpt lat="48.52817" lon="2.14115">
        <ele>114</ele>
        <time>2011-04-15T09:59:11Z</time>
      </trkpt>
      <trkpt lat="48.52815" lon="2.14115">
        <ele>113</ele>
        <time>2011-04-15T09:59:12Z</time>
      </trkpt>
      <trkpt lat="48.52814" lon="2.14115">
        <ele>112</ele>
        <time>2011-04-15T09:59:13Z</time>
      </trkpt>
      <trkpt lat="48.52812" lon="2.14114">
        <ele>112</ele>
        <time>2011-04-15T09:59:14Z</time>
      </trkpt>
      <trkpt lat="48.52811" lon="2.14113">
        <ele>111</ele>
        <time>2011-04-15T09:59:15Z</time>
      </trkpt>
      <trkpt lat="48.52809" lon="2.14113">
        <ele>110</ele>
        <time>2011-04-15T09:59:16Z</time>
      </trkpt>
      <trkpt lat="48.52808" lon="2.14113">
        <ele>109</ele>
        <time>2011-04-15T09:59:17Z</time>
      </trkpt>
      <trkpt lat="48.52806" lon="2.14113">
        <ele>109</ele>
        <time>2011-04-15T09:59:18Z</time>
      </trkpt>
      <trkpt lat="48.52805" lon="2.14113">
        <ele>109</ele>
        <time>2011-04-15T09:59:19Z</time>
      </trkpt>
      <trkpt lat="48.52803" lon="2.14113">
        <ele>108</ele>
        <time>2011-04-15T09:59:20Z</time>
      </trkpt>
      <trkpt lat="48.52801" lon="2.14114">
        <ele>108</ele>
        <time>2011-04-15T09:59:21Z</time>
      </trkpt>
      <trkpt lat="48.52799" lon="2.14114">
        <ele>108</ele>
        <time>2011-04-15T09:59:22Z</time>
      </trkpt>
      <trkpt lat="48.52798" lon="2.14114">
        <ele>108</ele>
        <time>2011-04-15T09:59:23Z</time>
      </trkpt>
      <trkpt lat="48.52796" lon="2.14114">
        <ele>108</ele>
        <time>2011-04-15T09:59:24Z</time>
      </trkpt>
      <trkpt lat="48.52795" lon="2.14113">
        <ele>108</ele>
        <time>2011-04-15T09:59:25Z</time>
      </trkpt>
      <trkpt lat="48.52793" lon="2.14113">
        <ele>108</ele>
        <time>2011-04-15T09:59:26Z</time>
      </trkpt>
      <trkpt lat="48.52792" lon="2.14112">
        <ele>107</ele>
        <time>2011-04-15T09:59:27Z</time>
      </trkpt>
      <trkpt lat="48.5279" lon="2.14113">
        <ele>107</ele>
        <time>2011-04-15T09:59:28Z</time>
      </trkpt>
      <trkpt lat="48.52788" lon="2.14113">
        <ele>106</ele>
        <time>2011-04-15T09:59:29Z</time>
      </trkpt>
      <trkpt lat="48.52786" lon="2.14113">
        <ele>106</ele>
        <time>2011-04-15T09:59:30Z</time>
      </trkpt>
      <trkpt lat="48.52784" lon="2.14113">
        <ele>106</ele>
        <time>2011-04-15T09:59:31Z</time>
      </trkpt>
      <trkpt lat="48.52781" lon="2.14114">
        <ele>106</ele>
        <time>2011-04-15T09:59:32Z</time>
      </trkpt>
      <trkpt lat="48.5278" lon="2.14114">
        <ele>105</ele>
        <time>2011-04-15T09:59:33Z</time>
      </trkpt>
      <trkpt lat="48.52778" lon="2.14114">
        <ele>105</ele>
        <time>2011-04-15T09:59:34Z</time>
      </trkpt>
      <trkpt lat="48.52777" lon="2.14113">
        <ele>105</ele>
        <time>2011-04-15T09:59:35Z</time>
      </trkpt>
      <trkpt lat="48.52775" lon="2.14112">
        <ele>104</ele>
        <time>2011-04-15T09:59:37Z</time>
      </trkpt>
      <trkpt lat="48.52773" lon="2.14112">
        <ele>103</ele>
        <time>2011-04-15T09:59:38Z</time>
      </trkpt>
      <trkpt lat="48.52772" lon="2.14111">
        <ele>102</ele>
        <time>2011-04-15T09:59:39Z</time>
      </trkpt>
      <trkpt lat="48.5277" lon="2.14111">
        <ele>102</ele>
        <time>2011-04-15T09:59:40Z</time>
      </trkpt>
      <trkpt lat="48.52768" lon="2.1411">
        <ele>101</ele>
        <time>2011-04-15T09:59:41Z</time>
      </trkpt>
      <trkpt lat="48.52767" lon="2.1411">
        <ele>100</ele>
        <time>2011-04-15T09:59:42Z</time>
      </trkpt>
      <trkpt lat="48.52766" lon="2.14109">
        <ele>99</ele>
        <time>2011-04-15T09:59:43Z</time>
      </trkpt>
      <trkpt lat="48.52763" lon="2.14109">
        <ele>99</ele>
        <time>2011-04-15T09:59:44Z</time>
      </trkpt>
      <trkpt lat="48.52761" lon="2.14109">
        <ele>99</ele>
        <time>2011-04-15T09:59:45Z</time>
      </trkpt>
      <trkpt lat="48.5276" lon="2.14108">
        <ele>98</ele>
        <time>2011-04-15T09:59:46Z</time>
      </trkpt>
      <trkpt lat="48.52758" lon="2.14108">
        <ele>98</ele>
        <time>2011-04-15T09:59:47Z</time>
      </trkpt>
      <trkpt lat="48.52757" lon="2.14107">
        <ele>98</ele>
        <time>2011-04-15T09:59:48Z</time>
      </trkpt>
      <trkpt lat="48.52755" lon="2.14106">
        <ele>98</ele>
        <time>2011-04-15T09:59:50Z</time>
      </trkpt>
      <trkpt lat="48.52754" lon="2.14108">
        <ele>98</ele>
        <time>2011-04-15T09:59:53Z</time>
      </trkpt>
      <trkpt lat="48.52751" lon="2.14109">
        <ele>98</ele>
        <time>2011-04-15T09:59:55Z</time>
      </trkpt>
      <trkpt lat="48.52753" lon="2.14107">
        <ele>98</ele>
        <time>2011-04-15T09:59:58Z</time>
      </trkpt>
      <trkpt lat="48.52752" lon="2.14109">
        <ele>98</ele>
        <time>2011-04-15T10:00:03Z</time>
      </trkpt>
      <trkpt lat="48.5275" lon="2.1411">
        <ele>98</ele>
        <time>2011-04-15T10:00:05Z</time>
      </trkpt>
      <trkpt lat="48.52749" lon="2.1411">
        <ele>98</ele>
        <time>2011-04-15T10:00:06Z</time>
      </trkpt>
      <trkpt lat="48.52747" lon="2.1411">
        <ele>98</ele>
        <time>2011-04-15T10:00:07Z</time>
      </trkpt>
      <trkpt lat="48.52745" lon="2.14109">
        <ele>98</ele>
        <time>2011-04-15T10:00:09Z</time>
      </trkpt>
      <trkpt lat="48.52744" lon="2.1411">
        <ele>98</ele>
        <time>2011-04-15T10:00:10Z</time>
      </trkpt>
      <trkpt lat="48.52743" lon="2.14113">
        <ele>97</ele>
        <time>2011-04-15T10:00:12Z</time>
      </trkpt>
      <trkpt lat="48.52743" lon="2.14115">
        <ele>97</ele>
        <time>2011-04-15T10:00:13Z</time>
      </trkpt>
      <trkpt lat="48.52743" lon="2.14117">
        <ele>96</ele>
        <time>2011-04-15T10:00:14Z</time>
      </trkpt>
      <trkpt lat="48.52743" lon="2.14119">
        <ele>96</ele>
        <time>2011-04-15T10:00:15Z</time>
      </trkpt>
      <trkpt lat="48.52743" lon="2.14121">
        <ele>96</ele>
        <time>2011-04-15T10:00:16Z</time>
      </trkpt>
      <trkpt lat="48.52743" lon="2.14123">
        <ele>96</ele>
        <time>2011-04-15T10:00:17Z</time>
      </trkpt>
      <trkpt lat="48.52743" lon="2.14125">
        <ele>96</ele>
        <time>2011-04-15T10:00:18Z</time>
      </trkpt>
      <trkpt lat="48.52744" lon="2.14127">
        <ele>96</ele>
        <time>2011-04-15T10:00:19Z</time>
      </trkpt>
      <trkpt lat="48.52746" lon="2.1413">
        <ele>96</ele>
        <time>2011-04-15T10:00:21Z</time>
      </trkpt>
      <trkpt lat="48.52746" lon="2.14132">
        <ele>95</ele>
        <time>2011-04-15T10:00:22Z</time>
      </trkpt>
      <trkpt lat="48.52748" lon="2.14135">
        <ele>95</ele>
        <time>2011-04-15T10:00:24Z</time>
      </trkpt>
      <trkpt lat="48.52748" lon="2.14137">
        <ele>94</ele>
        <time>2011-04-15T10:00:25Z</time>
      </trkpt>
      <trkpt lat="48.52749" lon="2.14139">
        <ele>94</ele>
        <time>2011-04-15T10:00:26Z</time>
      </trkpt>
      <trkpt lat="48.52749" lon="2.14141">
        <ele>94</ele>
        <time>2011-04-15T10:00:27Z</time>
      </trkpt>
      <trkpt lat="48.52749" lon="2.14143">
        <ele>93</ele>
        <time>2011-04-15T10:00:28Z</time>
      </trkpt>
      <trkpt lat="48.5275" lon="2.14146">
        <ele>93</ele>
        <time>2011-04-15T10:00:29Z</time>
      </trkpt>
      <trkpt lat="48.52749" lon="2.14148">
        <ele>93</ele>
        <time>2011-04-15T10:00:30Z</time>
      </trkpt>
      <trkpt lat="48.52749" lon="2.1415">
        <ele>93</ele>
        <time>2011-04-15T10:00:31Z</time>
      </trkpt>
      <trkpt lat="48.52749" lon="2.14152">
        <ele>93</ele>
        <time>2011-04-15T10:00:32Z</time>
      </trkpt>
      <trkpt lat="48.52749" lon="2.14154">
        <ele>93</ele>
        <time>2011-04-15T10:00:33Z</time>
      </trkpt>
      <trkpt lat="48.52748" lon="2.14157">
        <ele>93</ele>
        <time>2011-04-15T10:00:34Z</time>
      </trkpt>
      <trkpt lat="48.52748" lon="2.14159">
        <ele>93</ele>
        <time>2011-04-15T10:00:35Z</time>
      </trkpt>
      <trkpt lat="48.52747" lon="2.14162">
        <ele>93</ele>
        <time>2011-04-15T10:00:36Z</time>
      </trkpt>
      <trkpt lat="48.52747" lon="2.14164">
        <ele>93</ele>
        <time>2011-04-15T10:00:37Z</time>
      </trkpt>
      <trkpt lat="48.52747" lon="2.14167">
        <ele>93</ele>
        <time>2011-04-15T10:00:38Z</time>
      </trkpt>
      <trkpt lat="48.52746" lon="2.14169">
        <ele>93</ele>
        <time>2011-04-15T10:00:39Z</time>
      </trkpt>
      <trkpt lat="48.52746" lon="2.14172">
        <ele>93</ele>
        <time>2011-04-15T10:00:40Z</time>
      </trkpt>
      <trkpt lat="48.52746" lon="2.14174">
        <ele>93</ele>
        <time>2011-04-15T10:00:41Z</time>
      </trkpt>
      <trkpt lat="48.52746" lon="2.14177">
        <ele>93</ele>
        <time>2011-04-15T10:00:42Z</time>
      </trkpt>
      <trkpt lat="48.52746" lon="2.14179">
        <ele>93</ele>
        <time>2011-04-15T10:00:43Z</time>
      </trkpt>
      <trkpt lat="48.52745" lon="2.14182">
        <ele>93</ele>
        <time>2011-04-15T10:00:44Z</time>
      </trkpt>
      <trkpt lat="48.52745" lon="2.14184">
        <ele>93</ele>
        <time>2011-04-15T10:00:45Z</time>
      </trkpt>
      <trkpt lat="48.52745" lon="2.14187">
        <ele>93</ele>
        <time>2011-04-15T10:00:46Z</time>
      </trkpt>
      <trkpt lat="48.52745" lon="2.1419">
        <ele>93</ele>
        <time>2011-04-15T10:00:47Z</time>
      </trkpt>
      <trkpt lat="48.52745" lon="2.14192">
        <ele>93</ele>
        <time>2011-04-15T10:00:48Z</time>
      </trkpt>
      <trkpt lat="48.52744" lon="2.14195">
        <ele>93</ele>
        <time>2011-04-15T10:00:49Z</time>
      </trkpt>
      <trkpt lat="48.52744" lon="2.14198">
        <ele>93</ele>
        <time>2011-04-15T10:00:50Z</time>
      </trkpt>
      <trkpt lat="48.52744" lon="2.14201">
        <ele>93</ele>
        <time>2011-04-15T10:00:51Z</time>
      </trkpt>
      <trkpt lat="48.52743" lon="2.14203">
        <ele>93</ele>
        <time>2011-04-15T10:00:52Z</time>
      </trkpt>
      <trkpt lat="48.52743" lon="2.14205">
        <ele>93</ele>
        <time>2011-04-15T10:00:53Z</time>
      </trkpt>
      <trkpt lat="48.52743" lon="2.14207">
        <ele>93</ele>
        <time>2011-04-15T10:00:54Z</time>
      </trkpt>
      <trkpt lat="48.52742" lon="2.1421">
        <ele>93</ele>
        <time>2011-04-15T10:00:55Z</time>
      </trkpt>
      <trkpt lat="48.52742" lon="2.14212">
        <ele>93</ele>
        <time>2011-04-15T10:00:56Z</time>
      </trkpt>
      <trkpt lat="48.52742" lon="2.14215">
        <ele>93</ele>
        <time>2011-04-15T10:00:57Z</time>
      </trkpt>
      <trkpt lat="48.52741" lon="2.14217">
        <ele>93</ele>
        <time>2011-04-15T10:00:58Z</time>
      </trkpt>
      <trkpt lat="48.52741" lon="2.14219">
        <ele>93</ele>
        <time>2011-04-15T10:00:59Z</time>
      </trkpt>
      <trkpt lat="48.5274" lon="2.14221">
        <ele>93</ele>
        <time>2011-04-15T10:01:00Z</time>
      </trkpt>
      <trkpt lat="48.52739" lon="2.14224">
        <ele>93</ele>
        <time>2011-04-15T10:01:01Z</time>
      </trkpt>
      <trkpt lat="48.52738" lon="2.14226">
        <ele>93</ele>
        <time>2011-04-15T10:01:02Z</time>
      </trkpt>
      <trkpt lat="48.52737" lon="2.14228">
        <ele>93</ele>
        <time>2011-04-15T10:01:03Z</time>
      </trkpt>
      <trkpt lat="48.52737" lon="2.1423">
        <ele>93</ele>
        <time>2011-04-15T10:01:04Z</time>
      </trkpt>
      <trkpt lat="48.52736" lon="2.14232">
        <ele>93</ele>
        <time>2011-04-15T10:01:05Z</time>
      </trkpt>
      <trkpt lat="48.52735" lon="2.14233">
        <ele>93</ele>
        <time>2011-04-15T10:01:06Z</time>
      </trkpt>
      <trkpt lat="48.52734" lon="2.14235">
        <ele>93</ele>
        <time>2011-04-15T10:01:07Z</time>
      </trkpt>
      <trkpt lat="48.52733" lon="2.14238">
        <ele>93</ele>
        <time>2011-04-15T10:01:09Z</time>
      </trkpt>
      <trkpt lat="48.52731" lon="2.1424">
        <ele>93</ele>
        <time>2011-04-15T10:01:11Z</time>
      </trkpt>
      <trkpt lat="48.5273" lon="2.14243">
        <ele>93</ele>
        <time>2011-04-15T10:01:13Z</time>
      </trkpt>
      <trkpt lat="48.52728" lon="2.14246">
        <ele>93</ele>
        <time>2011-04-15T10:01:15Z</time>
      </trkpt>
      <trkpt lat="48.52727" lon="2.14248">
        <ele>93</ele>
        <time>2011-04-15T10:01:17Z</time>
      </trkpt>
      <trkpt lat="48.52727" lon="2.1425">
        <ele>93</ele>
        <time>2011-04-15T10:01:19Z</time>
      </trkpt>
      <trkpt lat="48.52727" lon="2.14252">
        <ele>93</ele>
        <time>2011-04-15T10:01:20Z</time>
      </trkpt>
      <trkpt lat="48.52727" lon="2.14254">
        <ele>93</ele>
        <time>2011-04-15T10:01:21Z</time>
      </trkpt>
      <trkpt lat="48.52728" lon="2.14256">
        <ele>93</ele>
        <time>2011-04-15T10:01:22Z</time>
      </trkpt>
      <trkpt lat="48.52729" lon="2.14258">
        <ele>93</ele>
        <time>2011-04-15T10:01:23Z</time>
      </trkpt>
      <trkpt lat="48.52729" lon="2.1426">
        <ele>93</ele>
        <time>2011-04-15T10:01:24Z</time>
      </trkpt>
      <trkpt lat="48.52727" lon="2.14262">
        <ele>93</ele>
        <time>2011-04-15T10:01:26Z</time>
      </trkpt>
      <trkpt lat="48.52726" lon="2.14261">
        <ele>93</ele>
        <time>2011-04-15T10:01:27Z</time>
      </trkpt>
      <trkpt lat="48.52724" lon="2.14261">
        <ele>93</ele>
        <time>2011-04-15T10:01:28Z</time>
      </trkpt>
      <trkpt lat="48.52723" lon="2.14262">
        <ele>93</ele>
        <time>2011-04-15T10:01:29Z</time>
      </trkpt>
      <trkpt lat="48.52721" lon="2.14264">
        <ele>93</ele>
        <time>2011-04-15T10:01:31Z</time>
      </trkpt>
      <trkpt lat="48.5272" lon="2.14265">
        <ele>93</ele>
        <time>2011-04-15T10:01:32Z</time>
      </trkpt>
      <trkpt lat="48.52718" lon="2.14267">
        <ele>92</ele>
        <time>2011-04-15T10:01:33Z</time>
      </trkpt>
      <trkpt lat="48.52717" lon="2.14268">
        <ele>92</ele>
        <time>2011-04-15T10:01:34Z</time>
      </trkpt>
      <trkpt lat="48.52716" lon="2.14268">
        <ele>91</ele>
        <time>2011-04-15T10:01:35Z</time>
      </trkpt>
      <trkpt lat="48.52714" lon="2.14269">
        <ele>91</ele>
        <time>2011-04-15T10:01:37Z</time>
      </trkpt>
      <trkpt lat="48.52713" lon="2.14269">
        <ele>90</ele>
        <time>2011-04-15T10:01:39Z</time>
      </trkpt>
      <trkpt lat="48.52711" lon="2.14269">
        <ele>90</ele>
        <time>2011-04-15T10:01:44Z</time>
      </trkpt>
      <trkpt lat="48.5271" lon="2.14269">
        <ele>90</ele>
        <time>2011-04-15T10:01:48Z</time>
      </trkpt>
      <trkpt lat="48.52709" lon="2.14266">
        <ele>90</ele>
        <time>2011-04-15T10:01:50Z</time>
      </trkpt>
      <trkpt lat="48.52709" lon="2.14264">
        <ele>90</ele>
        <time>2011-04-15T10:01:51Z</time>
      </trkpt>
      <trkpt lat="48.52709" lon="2.14262">
        <ele>90</ele>
        <time>2011-04-15T10:01:52Z</time>
      </trkpt>
      <trkpt lat="48.52709" lon="2.1426">
        <ele>89</ele>
        <time>2011-04-15T10:01:53Z</time>
      </trkpt>
      <trkpt lat="48.52709" lon="2.14258">
        <ele>89</ele>
        <time>2011-04-15T10:01:54Z</time>
      </trkpt>
      <trkpt lat="48.52709" lon="2.14256">
        <ele>89</ele>
        <time>2011-04-15T10:01:55Z</time>
      </trkpt>
      <trkpt lat="48.52709" lon="2.14254">
        <ele>89</ele>
        <time>2011-04-15T10:01:56Z</time>
      </trkpt>
      <trkpt lat="48.52709" lon="2.14252">
        <ele>89</ele>
        <time>2011-04-15T10:01:57Z</time>
      </trkpt>
      <trkpt lat="48.52709" lon="2.14249">
        <ele>88</ele>
        <time>2011-04-15T10:01:58Z</time>
      </trkpt>
      <trkpt lat="48.5271" lon="2.14247">
        <ele>88</ele>
        <time>2011-04-15T10:01:59Z</time>
      </trkpt>
      <trkpt lat="48.5271" lon="2.14245">
        <ele>88</ele>
        <time>2011-04-15T10:02:00Z</time>
      </trkpt>
      <trkpt lat="48.5271" lon="2.14243">
        <ele>88</ele>
        <time>2011-04-15T10:02:01Z</time>
      </trkpt>
      <trkpt lat="48.5271" lon="2.14241">
        <ele>88</ele>
        <time>2011-04-15T10:02:02Z</time>
      </trkpt>
      <trkpt lat="48.5271" lon="2.14238">
        <ele>88</ele>
        <time>2011-04-15T10:02:03Z</time>
      </trkpt>
      <trkpt lat="48.5271" lon="2.14236">
        <ele>88</ele>
        <time>2011-04-15T10:02:04Z</time>
      </trkpt>
      <trkpt lat="48.5271" lon="2.14234">
        <ele>88</ele>
        <time>2011-04-15T10:02:05Z</time>
      </trkpt>
      <trkpt lat="48.5271" lon="2.14231">
        <ele>88</ele>
        <time>2011-04-15T10:02:06Z</time>
      </trkpt>
      <trkpt lat="48.5271" lon="2.14228">
        <ele>88</ele>
        <time>2011-04-15T10:02:07Z</time>
      </trkpt>
      <trkpt lat="48.5271" lon="2.14226">
        <ele>88</ele>
        <time>2011-04-15T10:02:08Z</time>
      </trkpt>
      <trkpt lat="48.5271" lon="2.14223">
        <ele>88</ele>
        <time>2011-04-15T10:02:09Z</time>
      </trkpt>
      <trkpt lat="48.5271" lon="2.14221">
        <ele>88</ele>
        <time>2011-04-15T10:02:10Z</time>
      </trkpt>
      <trkpt lat="48.5271" lon="2.14218">
        <ele>88</ele>
        <time>2011-04-15T10:02:11Z</time>
      </trkpt>
      <trkpt lat="48.5271" lon="2.14216">
        <ele>88</ele>
        <time>2011-04-15T10:02:12Z</time>
      </trkpt>
      <trkpt lat="48.5271" lon="2.14214">
        <ele>88</ele>
        <time>2011-04-15T10:02:13Z</time>
      </trkpt>
      <trkpt lat="48.5271" lon="2.14211">
        <ele>88</ele>
        <time>2011-04-15T10:02:14Z</time>
      </trkpt>
      <trkpt lat="48.5271" lon="2.14209">
        <ele>88</ele>
        <time>2011-04-15T10:02:15Z</time>
      </trkpt>
      <trkpt lat="48.5271" lon="2.14206">
        <ele>88</ele>
        <time>2011-04-15T10:02:16Z</time>
      </trkpt>
      <trkpt lat="48.5271" lon="2.14204">
        <ele>88</ele>
        <time>2011-04-15T10:02:17Z</time>
      </trkpt>
      <trkpt lat="48.5271" lon="2.14202">
        <ele>88</ele>
        <time>2011-04-15T10:02:18Z</time>
      </trkpt>
      <trkpt lat="48.5271" lon="2.142">
        <ele>88</ele>
        <time>2011-04-15T10:02:19Z</time>
      </trkpt>
      <trkpt lat="48.5271" lon="2.14197">
        <ele>88</ele>
        <time>2011-04-15T10:02:20Z</time>
      </trkpt>
      <trkpt lat="48.52711" lon="2.14195">
        <ele>88</ele>
        <time>2011-04-15T10:02:21Z</time>
      </trkpt>
      <trkpt lat="48.52711" lon="2.14193">
        <ele>88</ele>
        <time>2011-04-15T10:02:22Z</time>
      </trkpt>
      <trkpt lat="48.52711" lon="2.14191">
        <ele>88</ele>
        <time>2011-04-15T10:02:23Z</time>
      </trkpt>
      <trkpt lat="48.52711" lon="2.14189">
        <ele>88</ele>
        <time>2011-04-15T10:02:24Z</time>
      </trkpt>
      <trkpt lat="48.52711" lon="2.14186">
        <ele>88</ele>
        <time>2011-04-15T10:02:25Z</time>
      </trkpt>
      <trkpt lat="48.52711" lon="2.14184">
        <ele>88</ele>
        <time>2011-04-15T10:02:26Z</time>
      </trkpt>
      <trkpt lat="48.52711" lon="2.14181">
        <ele>88</ele>
        <time>2011-04-15T10:02:27Z</time>
      </trkpt>
      <trkpt lat="48.52711" lon="2.14178">
        <ele>88</ele>
        <time>2011-04-15T10:02:28Z</time>
      </trkpt>
      <trkpt lat="48.5271" lon="2.14176">
        <ele>88</ele>
        <time>2011-04-15T10:02:29Z</time>
      </trkpt>
      <trkpt lat="48.52711" lon="2.14173">
        <ele>88</ele>
        <time>2011-04-15T10:02:30Z</time>
      </trkpt>
      <trkpt lat="48.52711" lon="2.14171">
        <ele>88</ele>
        <time>2011-04-15T10:02:31Z</time>
      </trkpt>
      <trkpt lat="48.52711" lon="2.14169">
        <ele>88</ele>
        <time>2011-04-15T10:02:32Z</time>
      </trkpt>
      <trkpt lat="48.52711" lon="2.14166">
        <ele>88</ele>
        <time>2011-04-15T10:02:33Z</time>
      </trkpt>
      <trkpt lat="48.52711" lon="2.14164">
        <ele>88</ele>
        <time>2011-04-15T10:02:34Z</time>
      </trkpt>
      <trkpt lat="48.52711" lon="2.14161">
        <ele>88</ele>
        <time>2011-04-15T10:02:35Z</time>
      </trkpt>
      <trkpt lat="48.5271" lon="2.14159">
        <ele>88</ele>
        <time>2011-04-15T10:02:36Z</time>
      </trkpt>
      <trkpt lat="48.5271" lon="2.14157">
        <ele>88</ele>
        <time>2011-04-15T10:02:37Z</time>
      </trkpt>
      <trkpt lat="48.5271" lon="2.14155">
        <ele>88</ele>
        <time>2011-04-15T10:02:38Z</time>
      </trkpt>
      <trkpt lat="48.52711" lon="2.14152">
        <ele>88</ele>
        <time>2011-04-15T10:02:39Z</time>
      </trkpt>
      <trkpt lat="48.52711" lon="2.1415">
        <ele>88</ele>
        <time>2011-04-15T10:02:40Z</time>
      </trkpt>
      <trkpt lat="48.52711" lon="2.14148">
        <ele>88</ele>
        <time>2011-04-15T10:02:41Z</time>
      </trkpt>
      <trkpt lat="48.52711" lon="2.14145">
        <ele>88</ele>
        <time>2011-04-15T10:02:42Z</time>
      </trkpt>
      <trkpt lat="48.52711" lon="2.14142">
        <ele>88</ele>
        <time>2011-04-15T10:02:43Z</time>
      </trkpt>
      <trkpt lat="48.52712" lon="2.1414">
        <ele>88</ele>
        <time>2011-04-15T10:02:44Z</time>
      </trkpt>
      <trkpt lat="48.52712" lon="2.14137">
        <ele>88</ele>
        <time>2011-04-15T10:02:45Z</time>
      </trkpt>
      <trkpt lat="48.52712" lon="2.14135">
        <ele>88</ele>
        <time>2011-04-15T10:02:46Z</time>
      </trkpt>
      <trkpt lat="48.52712" lon="2.14133">
        <ele>88</ele>
        <time>2011-04-15T10:02:47Z</time>
      </trkpt>
      <trkpt lat="48.52713" lon="2.1413">
        <ele>88</ele>
        <time>2011-04-15T10:02:48Z</time>
      </trkpt>
      <trkpt lat="48.52713" lon="2.14128">
        <ele>88</ele>
        <time>2011-04-15T10:02:49Z</time>
      </trkpt>
      <trkpt lat="48.52713" lon="2.14126">
        <ele>88</ele>
        <time>2011-04-15T10:02:50Z</time>
      </trkpt>
      <trkpt lat="48.52713" lon="2.14124">
        <ele>88</ele>
        <time>2011-04-15T10:02:51Z</time>
      </trkpt>
      <trkpt lat="48.52713" lon="2.14121">
        <ele>88</ele>
        <time>2011-04-15T10:02:52Z</time>
      </trkpt>
      <trkpt lat="48.52713" lon="2.14118">
        <ele>88</ele>
        <time>2011-04-15T10:02:53Z</time>
      </trkpt>
      <trkpt lat="48.52713" lon="2.14115">
        <ele>88</ele>
        <time>2011-04-15T10:02:54Z</time>
      </trkpt>
      <trkpt lat="48.52714" lon="2.14112">
        <ele>88</ele>
        <time>2011-04-15T10:02:55Z</time>
      </trkpt>
      <trkpt lat="48.52714" lon="2.14109">
        <ele>88</ele>
        <time>2011-04-15T10:02:56Z</time>
      </trkpt>
      <trkpt lat="48.52714" lon="2.14107">
        <ele>88</ele>
        <time>2011-04-15T10:02:57Z</time>
      </trkpt>
      <trkpt lat="48.52715" lon="2.14105">
        <ele>88</ele>
        <time>2011-04-15T10:02:58Z</time>
      </trkpt>
      <trkpt lat="48.52715" lon="2.14103">
        <ele>88</ele>
        <time>2011-04-15T10:02:59Z</time>
      </trkpt>
      <trkpt lat="48.52715" lon="2.14101">
        <ele>88</ele>
        <time>2011-04-15T10:03:00Z</time>
      </trkpt>
      <trkpt lat="48.52716" lon="2.14099">
        <ele>88</ele>
        <time>2011-04-15T10:03:01Z</time>
      </trkpt>
      <trkpt lat="48.52716" lon="2.14097">
        <ele>88</ele>
        <time>2011-04-15T10:03:02Z</time>
      </trkpt>
      <trkpt lat="48.52716" lon="2.14095">
        <ele>88</ele>
        <time>2011-04-15T10:03:03Z</time>
      </trkpt>
      <trkpt lat="48.52716" lon="2.14092">
        <ele>88</ele>
        <time>2011-04-15T10:03:04Z</time>
      </trkpt>
      <trkpt lat="48.52716" lon="2.1409">
        <ele>88</ele>
        <time>2011-04-15T10:03:05Z</time>
      </trkpt>
      <trkpt lat="48.52716" lon="2.14088">
        <ele>88</ele>
        <time>2011-04-15T10:03:06Z</time>
      </trkpt>
      <trkpt lat="48.52716" lon="2.14085">
        <ele>88</ele>
        <time>2011-04-15T10:03:07Z</time>
      </trkpt>
      <trkpt lat="48.52717" lon="2.14082">
        <ele>88</ele>
        <time>2011-04-15T10:03:08Z</time>
      </trkpt>
      <trkpt lat="48.52717" lon="2.1408">
        <ele>88</ele>
        <time>2011-04-15T10:03:09Z</time>
      </trkpt>
      <trkpt lat="48.52717" lon="2.14076">
        <ele>88</ele>
        <time>2011-04-15T10:03:10Z</time>
      </trkpt>
      <trkpt lat="48.52717" lon="2.14073">
        <ele>88</ele>
        <time>2011-04-15T10:03:11Z</time>
      </trkpt>
      <trkpt lat="48.52717" lon="2.14071">
        <ele>88</ele>
        <time>2011-04-15T10:03:12Z</time>
      </trkpt>
      <trkpt lat="48.52717" lon="2.14068">
        <ele>88</ele>
        <time>2011-04-15T10:03:13Z</time>
      </trkpt>
      <trkpt lat="48.52717" lon="2.14065">
        <ele>88</ele>
        <time>2011-04-15T10:03:14Z</time>
      </trkpt>
      <trkpt lat="48.52717" lon="2.14063">
        <ele>88</ele>
        <time>2011-04-15T10:03:15Z</time>
      </trkpt>
      <trkpt lat="48.52717" lon="2.14061">
        <ele>88</ele>
        <time>2011-04-15T10:03:16Z</time>
      </trkpt>
      <trkpt lat="48.52717" lon="2.14058">
        <ele>88</ele>
        <time>2011-04-15T10:03:17Z</time>
      </trkpt>
      <trkpt lat="48.52717" lon="2.14055">
        <ele>88</ele>
        <time>2011-04-15T10:03:18Z</time>
      </trkpt>
      <trkpt lat="48.52717" lon="2.14053">
        <ele>88</ele>
        <time>2011-04-15T10:03:19Z</time>
      </trkpt>
      <trkpt lat="48.52717" lon="2.1405">
        <ele>88</ele>
        <time>2011-04-15T10:03:20Z</time>
      </trkpt>
      <trkpt lat="48.52717" lon="2.14048">
        <ele>88</ele>
        <time>2011-04-15T10:03:21Z</time>
      </trkpt>
      <trkpt lat="48.52717" lon="2.14046">
        <ele>88</ele>
        <time>2011-04-15T10:03:22Z</time>
      </trkpt>
      <trkpt lat="48.52717" lon="2.14043">
        <ele>88</ele>
        <time>2011-04-15T10:03:23Z</time>
      </trkpt>
      <trkpt lat="48.52717" lon="2.14041">
        <ele>88</ele>
        <time>2011-04-15T10:03:24Z</time>
      </trkpt>
      <trkpt lat="48.52717" lon="2.14039">
        <ele>88</ele>
        <time>2011-04-15T10:03:25Z</time>
      </trkpt>
      <trkpt lat="48.52717" lon="2.14037">
        <ele>88</ele>
        <time>2011-04-15T10:03:26Z</time>
      </trkpt>
      <trkpt lat="48.52717" lon="2.14035">
        <ele>88</ele>
        <time>2011-04-15T10:03:27Z</time>
      </trkpt>
      <trkpt lat="48.52718" lon="2.14032">
        <ele>88</ele>
        <time>2011-04-15T10:03:28Z</time>
      </trkpt>
      <trkpt lat="48.52718" lon="2.14029">
        <ele>88</ele>
        <time>2011-04-15T10:03:29Z</time>
      </trkpt>
      <trkpt lat="48.52718" lon="2.14026">
        <ele>88</ele>
        <time>2011-04-15T10:03:30Z</time>
      </trkpt>
      <trkpt lat="48.52718" lon="2.14023">
        <ele>88</ele>
        <time>2011-04-15T10:03:31Z</time>
      </trkpt>
      <trkpt lat="48.52718" lon="2.1402">
        <ele>88</ele>
        <time>2011-04-15T10:03:32Z</time>
      </trkpt>
      <trkpt lat="48.52718" lon="2.14018">
        <ele>88</ele>
        <time>2011-04-15T10:03:33Z</time>
      </trkpt>
      <trkpt lat="48.52719" lon="2.14016">
        <ele>88</ele>
        <time>2011-04-15T10:03:34Z</time>
      </trkpt>
      <trkpt lat="48.52719" lon="2.14014">
        <ele>88</ele>
        <time>2011-04-15T10:03:35Z</time>
      </trkpt>
      <trkpt lat="48.5272" lon="2.14012">
        <ele>88</ele>
        <time>2011-04-15T10:03:36Z</time>
      </trkpt>
      <trkpt lat="48.5272" lon="2.1401">
        <ele>88</ele>
        <time>2011-04-15T10:03:37Z</time>
      </trkpt>
      <trkpt lat="48.52721" lon="2.14008">
        <ele>88</ele>
        <time>2011-04-15T10:03:38Z</time>
      </trkpt>
      <trkpt lat="48.52722" lon="2.14006">
        <ele>88</ele>
        <time>2011-04-15T10:03:39Z</time>
      </trkpt>
      <trkpt lat="48.52722" lon="2.14003">
        <ele>88</ele>
        <time>2011-04-15T10:03:40Z</time>
      </trkpt>
      <trkpt lat="48.52723" lon="2.14">
        <ele>88</ele>
        <time>2011-04-15T10:03:41Z</time>
      </trkpt>
      <trkpt lat="48.52723" lon="2.13998">
        <ele>88</ele>
        <time>2011-04-15T10:03:42Z</time>
      </trkpt>
      <trkpt lat="48.52724" lon="2.13996">
        <ele>88</ele>
        <time>2011-04-15T10:03:43Z</time>
      </trkpt>
      <trkpt lat="48.52725" lon="2.13994">
        <ele>88</ele>
        <time>2011-04-15T10:03:44Z</time>
      </trkpt>
      <trkpt lat="48.52725" lon="2.13991">
        <ele>89</ele>
        <time>2011-04-15T10:03:45Z</time>
      </trkpt>
      <trkpt lat="48.52726" lon="2.13989">
        <ele>89</ele>
        <time>2011-04-15T10:03:46Z</time>
      </trkpt>
      <trkpt lat="48.52726" lon="2.13987">
        <ele>89</ele>
        <time>2011-04-15T10:03:47Z</time>
      </trkpt>
      <trkpt lat="48.52727" lon="2.13984">
        <ele>89</ele>
        <time>2011-04-15T10:03:48Z</time>
      </trkpt>
      <trkpt lat="48.52727" lon="2.13982">
        <ele>89</ele>
        <time>2011-04-15T10:03:49Z</time>
      </trkpt>
      <trkpt lat="48.52728" lon="2.1398">
        <ele>89</ele>
        <time>2011-04-15T10:03:50Z</time>
      </trkpt>
      <trkpt lat="48.52729" lon="2.13977">
        <ele>90</ele>
        <time>2011-04-15T10:03:51Z</time>
      </trkpt>
      <trkpt lat="48.52729" lon="2.13975">
        <ele>90</ele>
        <time>2011-04-15T10:03:52Z</time>
      </trkpt>
      <trkpt lat="48.5273" lon="2.13973">
        <ele>90</ele>
        <time>2011-04-15T10:03:53Z</time>
      </trkpt>
      <trkpt lat="48.5273" lon="2.1397">
        <ele>90</ele>
        <time>2011-04-15T10:03:54Z</time>
      </trkpt>
      <trkpt lat="48.52731" lon="2.13968">
        <ele>90</ele>
        <time>2011-04-15T10:03:55Z</time>
      </trkpt>
      <trkpt lat="48.52731" lon="2.13966">
        <ele>90</ele>
        <time>2011-04-15T10:03:56Z</time>
      </trkpt>
      <trkpt lat="48.52732" lon="2.13964">
        <ele>90</ele>
        <time>2011-04-15T10:03:57Z</time>
      </trkpt>
      <trkpt lat="48.52732" lon="2.13961">
        <ele>90</ele>
        <time>2011-04-15T10:03:58Z</time>
      </trkpt>
      <trkpt lat="48.52733" lon="2.13959">
        <ele>91</ele>
        <time>2011-04-15T10:03:59Z</time>
      </trkpt>
      <trkpt lat="48.52733" lon="2.13957">
        <ele>91</ele>
        <time>2011-04-15T10:04:00Z</time>
      </trkpt>
      <trkpt lat="48.52733" lon="2.13955">
        <ele>91</ele>
        <time>2011-04-15T10:04:01Z</time>
      </trkpt>
      <trkpt lat="48.52734" lon="2.13952">
        <ele>91</ele>
        <time>2011-04-15T10:04:02Z</time>
      </trkpt>
      <trkpt lat="48.52734" lon="2.1395">
        <ele>91</ele>
        <time>2011-04-15T10:04:03Z</time>
      </trkpt>
      <trkpt lat="48.52734" lon="2.13948">
        <ele>91</ele>
        <time>2011-04-15T10:04:04Z</time>
      </trkpt>
      <trkpt lat="48.52734" lon="2.13946">
        <ele>91</ele>
        <time>2011-04-15T10:04:05Z</time>
      </trkpt>
      <trkpt lat="48.52735" lon="2.13943">
        <ele>92</ele>
        <time>2011-04-15T10:04:06Z</time>
      </trkpt>
      <trkpt lat="48.52735" lon="2.13941">
        <ele>92</ele>
        <time>2011-04-15T10:04:07Z</time>
      </trkpt>
      <trkpt lat="48.52736" lon="2.13939">
        <ele>92</ele>
        <time>2011-04-15T10:04:08Z</time>
      </trkpt>
      <trkpt lat="48.52736" lon="2.13936">
        <ele>92</ele>
        <time>2011-04-15T10:04:09Z</time>
      </trkpt>
      <trkpt lat="48.52736" lon="2.13934">
        <ele>92</ele>
        <time>2011-04-15T10:04:10Z</time>
      </trkpt>
      <trkpt lat="48.52737" lon="2.13931">
        <ele>92</ele>
        <time>2011-04-15T10:04:11Z</time>
      </trkpt>
      <trkpt lat="48.52737" lon="2.13929">
        <ele>92</ele>
        <time>2011-04-15T10:04:12Z</time>
      </trkpt>
      <trkpt lat="48.52738" lon="2.13926">
        <ele>92</ele>
        <time>2011-04-15T10:04:13Z</time>
      </trkpt>
      <trkpt lat="48.52738" lon="2.13924">
        <ele>92</ele>
        <time>2011-04-15T10:04:14Z</time>
      </trkpt>
      <trkpt lat="48.52739" lon="2.13921">
        <ele>93</ele>
        <time>2011-04-15T10:04:15Z</time>
      </trkpt>
      <trkpt lat="48.52739" lon="2.13918">
        <ele>93</ele>
        <time>2011-04-15T10:04:16Z</time>
      </trkpt>
      <trkpt lat="48.5274" lon="2.13915">
        <ele>93</ele>
        <time>2011-04-15T10:04:17Z</time>
      </trkpt>
      <trkpt lat="48.5274" lon="2.13913">
        <ele>93</ele>
        <time>2011-04-15T10:04:18Z</time>
      </trkpt>
      <trkpt lat="48.52741" lon="2.1391">
        <ele>93</ele>
        <time>2011-04-15T10:04:19Z</time>
      </trkpt>
      <trkpt lat="48.52741" lon="2.13907">
        <ele>93</ele>
        <time>2011-04-15T10:04:20Z</time>
      </trkpt>
      <trkpt lat="48.52742" lon="2.13904">
        <ele>93</ele>
        <time>2011-04-15T10:04:21Z</time>
      </trkpt>
      <trkpt lat="48.52742" lon="2.13902">
        <ele>94</ele>
        <time>2011-04-15T10:04:22Z</time>
      </trkpt>
      <trkpt lat="48.52743" lon="2.13899">
        <ele>94</ele>
        <time>2011-04-15T10:04:23Z</time>
      </trkpt>
      <trkpt lat="48.52743" lon="2.13896">
        <ele>94</ele>
        <time>2011-04-15T10:04:24Z</time>
      </trkpt>
      <trkpt lat="48.52744" lon="2.13894">
        <ele>94</ele>
        <time>2011-04-15T10:04:25Z</time>
      </trkpt>
      <trkpt lat="48.52744" lon="2.13891">
        <ele>94</ele>
        <time>2011-04-15T10:04:26Z</time>
      </trkpt>
      <trkpt lat="48.52745" lon="2.13889">
        <ele>94</ele>
        <time>2011-04-15T10:04:27Z</time>
      </trkpt>
      <trkpt lat="48.52745" lon="2.13887">
        <ele>94</ele>
        <time>2011-04-15T10:04:28Z</time>
      </trkpt>
      <trkpt lat="48.52745" lon="2.13885">
        <ele>95</ele>
        <time>2011-04-15T10:04:29Z</time>
      </trkpt>
      <trkpt lat="48.52746" lon="2.13882">
        <ele>95</ele>
        <time>2011-04-15T10:04:30Z</time>
      </trkpt>
      <trkpt lat="48.52746" lon="2.1388">
        <ele>95</ele>
        <time>2011-04-15T10:04:31Z</time>
      </trkpt>
      <trkpt lat="48.52746" lon="2.13878">
        <ele>95</ele>
        <time>2011-04-15T10:04:32Z</time>
      </trkpt>
      <trkpt lat="48.52747" lon="2.13876">
        <ele>95</ele>
        <time>2011-04-15T10:04:33Z</time>
      </trkpt>
      <trkpt lat="48.52747" lon="2.13873">
        <ele>95</ele>
        <time>2011-04-15T10:04:34Z</time>
      </trkpt>
      <trkpt lat="48.52748" lon="2.1387">
        <ele>95</ele>
        <time>2011-04-15T10:04:35Z</time>
      </trkpt>
      <trkpt lat="48.52748" lon="2.13867">
        <ele>95</ele>
        <time>2011-04-15T10:04:36Z</time>
      </trkpt>
      <trkpt lat="48.52748" lon="2.13865">
        <ele>96</ele>
        <time>2011-04-15T10:04:37Z</time>
      </trkpt>
      <trkpt lat="48.52749" lon="2.13862">
        <ele>96</ele>
        <time>2011-04-15T10:04:38Z</time>
      </trkpt>
      <trkpt lat="48.52749" lon="2.1386">
        <ele>96</ele>
        <time>2011-04-15T10:04:39Z</time>
      </trkpt>
      <trkpt lat="48.5275" lon="2.13857">
        <ele>96</ele>
        <time>2011-04-15T10:04:40Z</time>
      </trkpt>
      <trkpt lat="48.5275" lon="2.13855">
        <ele>96</ele>
        <time>2011-04-15T10:04:41Z</time>
      </trkpt>
      <trkpt lat="48.52751" lon="2.13852">
        <ele>96</ele>
        <time>2011-04-15T10:04:42Z</time>
      </trkpt>
      <trkpt lat="48.52751" lon="2.1385">
        <ele>96</ele>
        <time>2011-04-15T10:04:43Z</time>
      </trkpt>
      <trkpt lat="48.52752" lon="2.13848">
        <ele>96</ele>
        <time>2011-04-15T10:04:44Z</time>
      </trkpt>
      <trkpt lat="48.52752" lon="2.13845">
        <ele>97</ele>
        <time>2011-04-15T10:04:45Z</time>
      </trkpt>
      <trkpt lat="48.52753" lon="2.13843">
        <ele>97</ele>
        <time>2011-04-15T10:04:46Z</time>
      </trkpt>
      <trkpt lat="48.52753" lon="2.13841">
        <ele>97</ele>
        <time>2011-04-15T10:04:47Z</time>
      </trkpt>
      <trkpt lat="48.52753" lon="2.13839">
        <ele>97</ele>
        <time>2011-04-15T10:04:48Z</time>
      </trkpt>
      <trkpt lat="48.52754" lon="2.13837">
        <ele>97</ele>
        <time>2011-04-15T10:04:49Z</time>
      </trkpt>
      <trkpt lat="48.52754" lon="2.13835">
        <ele>97</ele>
        <time>2011-04-15T10:04:50Z</time>
      </trkpt>
      <trkpt lat="48.52755" lon="2.13832">
        <ele>97</ele>
        <time>2011-04-15T10:04:51Z</time>
      </trkpt>
      <trkpt lat="48.52755" lon="2.1383">
        <ele>98</ele>
        <time>2011-04-15T10:04:52Z</time>
      </trkpt>
      <trkpt lat="48.52756" lon="2.13827">
        <ele>98</ele>
        <time>2011-04-15T10:04:53Z</time>
      </trkpt>
      <trkpt lat="48.52756" lon="2.13825">
        <ele>98</ele>
        <time>2011-04-15T10:04:54Z</time>
      </trkpt>
      <trkpt lat="48.52756" lon="2.13822">
        <ele>98</ele>
        <time>2011-04-15T10:04:55Z</time>
      </trkpt>
      <trkpt lat="48.52757" lon="2.1382">
        <ele>98</ele>
        <time>2011-04-15T10:04:56Z</time>
      </trkpt>
      <trkpt lat="48.52757" lon="2.13818">
        <ele>98</ele>
        <time>2011-04-15T10:04:57Z</time>
      </trkpt>
      <trkpt lat="48.52758" lon="2.13816">
        <ele>98</ele>
        <time>2011-04-15T10:04:58Z</time>
      </trkpt>
      <trkpt lat="48.52758" lon="2.13814">
        <ele>98</ele>
        <time>2011-04-15T10:04:59Z</time>
      </trkpt>
      <trkpt lat="48.52759" lon="2.13811">
        <ele>98</ele>
        <time>2011-04-15T10:05:00Z</time>
      </trkpt>
      <trkpt lat="48.52759" lon="2.13809">
        <ele>99</ele>
        <time>2011-04-15T10:05:01Z</time>
      </trkpt>
      <trkpt lat="48.52759" lon="2.13807">
        <ele>99</ele>
        <time>2011-04-15T10:05:02Z</time>
      </trkpt>
      <trkpt lat="48.5276" lon="2.13805">
        <ele>99</ele>
        <time>2011-04-15T10:05:03Z</time>
      </trkpt>
      <trkpt lat="48.5276" lon="2.13803">
        <ele>99</ele>
        <time>2011-04-15T10:05:04Z</time>
      </trkpt>
      <trkpt lat="48.52761" lon="2.13801">
        <ele>99</ele>
        <time>2011-04-15T10:05:05Z</time>
      </trkpt>
      <trkpt lat="48.52761" lon="2.13799">
        <ele>99</ele>
        <time>2011-04-15T10:05:06Z</time>
      </trkpt>
      <trkpt lat="48.52762" lon="2.13797">
        <ele>99</ele>
        <time>2011-04-15T10:05:07Z</time>
      </trkpt>
      <trkpt lat="48.52762" lon="2.13795">
        <ele>99</ele>
        <time>2011-04-15T10:05:08Z</time>
      </trkpt>
      <trkpt lat="48.52763" lon="2.13793">
        <ele>99</ele>
        <time>2011-04-15T10:05:09Z</time>
      </trkpt>
      <trkpt lat="48.52763" lon="2.13791">
        <ele>99</ele>
        <time>2011-04-15T10:05:10Z</time>
      </trkpt>
      <trkpt lat="48.52764" lon="2.13789">
        <ele>100</ele>
        <time>2011-04-15T10:05:11Z</time>
      </trkpt>
      <trkpt lat="48.52764" lon="2.13787">
        <ele>100</ele>
        <time>2011-04-15T10:05:12Z</time>
      </trkpt>
      <trkpt lat="48.52764" lon="2.13785">
        <ele>100</ele>
        <time>2011-04-15T10:05:13Z</time>
      </trkpt>
      <trkpt lat="48.52765" lon="2.13782">
        <ele>100</ele>
        <time>2011-04-15T10:05:14Z</time>
      </trkpt>
      <trkpt lat="48.52765" lon="2.1378">
        <ele>100</ele>
        <time>2011-04-15T10:05:15Z</time>
      </trkpt>
      <trkpt lat="48.52765" lon="2.13778">
        <ele>100</ele>
        <time>2011-04-15T10:05:16Z</time>
      </trkpt>
      <trkpt lat="48.52766" lon="2.13776">
        <ele>100</ele>
        <time>2011-04-15T10:05:17Z</time>
      </trkpt>
      <trkpt lat="48.52767" lon="2.13774">
        <ele>100</ele>
        <time>2011-04-15T10:05:18Z</time>
      </trkpt>
      <trkpt lat="48.52768" lon="2.13772">
        <ele>100</ele>
        <time>2011-04-15T10:05:19Z</time>
      </trkpt>
      <trkpt lat="48.52769" lon="2.13771">
        <ele>100</ele>
        <time>2011-04-15T10:05:20Z</time>
      </trkpt>
      <trkpt lat="48.52769" lon="2.13768">
        <ele>100</ele>
        <time>2011-04-15T10:05:21Z</time>
      </trkpt>
      <trkpt lat="48.52769" lon="2.13766">
        <ele>100</ele>
        <time>2011-04-15T10:05:22Z</time>
      </trkpt>
      <trkpt lat="48.52769" lon="2.13764">
        <ele>100</ele>
        <time>2011-04-15T10:05:23Z</time>
      </trkpt>
      <trkpt lat="48.52769" lon="2.13762">
        <ele>100</ele>
        <time>2011-04-15T10:05:24Z</time>
      </trkpt>
      <trkpt lat="48.52769" lon="2.1376">
        <ele>100</ele>
        <time>2011-04-15T10:05:25Z</time>
      </trkpt>
      <trkpt lat="48.52769" lon="2.13758">
        <ele>101</ele>
        <time>2011-04-15T10:05:26Z</time>
      </trkpt>
      <trkpt lat="48.52769" lon="2.13756">
        <ele>101</ele>
        <time>2011-04-15T10:05:27Z</time>
      </trkpt>
      <trkpt lat="48.52769" lon="2.13754">
        <ele>101</ele>
        <time>2011-04-15T10:05:28Z</time>
      </trkpt>
      <trkpt lat="48.52769" lon="2.13751">
        <ele>101</ele>
        <time>2011-04-15T10:05:29Z</time>
      </trkpt>
      <trkpt lat="48.52768" lon="2.13749">
        <ele>101</ele>
        <time>2011-04-15T10:05:30Z</time>
      </trkpt>
      <trkpt lat="48.52768" lon="2.13747">
        <ele>101</ele>
        <time>2011-04-15T10:05:31Z</time>
      </trkpt>
      <trkpt lat="48.52768" lon="2.13745">
        <ele>101</ele>
        <time>2011-04-15T10:05:32Z</time>
      </trkpt>
      <trkpt lat="48.52768" lon="2.13743">
        <ele>101</ele>
        <time>2011-04-15T10:05:33Z</time>
      </trkpt>
      <trkpt lat="48.52767" lon="2.13741">
        <ele>101</ele>
        <time>2011-04-15T10:05:34Z</time>
      </trkpt>
      <trkpt lat="48.52767" lon="2.13739">
        <ele>101</ele>
        <time>2011-04-15T10:05:35Z</time>
      </trkpt>
      <trkpt lat="48.52766" lon="2.13737">
        <ele>101</ele>
        <time>2011-04-15T10:05:36Z</time>
      </trkpt>
      <trkpt lat="48.52766" lon="2.13735">
        <ele>101</ele>
        <time>2011-04-15T10:05:37Z</time>
      </trkpt>
      <trkpt lat="48.52766" lon="2.13733">
        <ele>101</ele>
        <time>2011-04-15T10:05:38Z</time>
      </trkpt>
      <trkpt lat="48.52765" lon="2.13731">
        <ele>101</ele>
        <time>2011-04-15T10:05:39Z</time>
      </trkpt>
      <trkpt lat="48.52765" lon="2.13729">
        <ele>102</ele>
        <time>2011-04-15T10:05:40Z</time>
      </trkpt>
      <trkpt lat="48.52764" lon="2.13727">
        <ele>102</ele>
        <time>2011-04-15T10:05:41Z</time>
      </trkpt>
      <trkpt lat="48.52764" lon="2.13725">
        <ele>102</ele>
        <time>2011-04-15T10:05:42Z</time>
      </trkpt>
      <trkpt lat="48.52763" lon="2.13723">
        <ele>102</ele>
        <time>2011-04-15T10:05:43Z</time>
      </trkpt>
      <trkpt lat="48.52762" lon="2.13721">
        <ele>102</ele>
        <time>2011-04-15T10:05:44Z</time>
      </trkpt>
      <trkpt lat="48.52762" lon="2.13719">
        <ele>102</ele>
        <time>2011-04-15T10:05:45Z</time>
      </trkpt>
      <trkpt lat="48.52761" lon="2.13716">
        <ele>102</ele>
        <time>2011-04-15T10:05:46Z</time>
      </trkpt>
      <trkpt lat="48.5276" lon="2.13713">
        <ele>102</ele>
        <time>2011-04-15T10:05:47Z</time>
      </trkpt>
      <trkpt lat="48.52759" lon="2.13709">
        <ele>102</ele>
        <time>2011-04-15T10:05:48Z</time>
      </trkpt>
      <trkpt lat="48.52758" lon="2.13706">
        <ele>102</ele>
        <time>2011-04-15T10:05:49Z</time>
      </trkpt>
      <trkpt lat="48.52757" lon="2.13704">
        <ele>102</ele>
        <time>2011-04-15T10:05:50Z</time>
      </trkpt>
      <trkpt lat="48.52756" lon="2.13702">
        <ele>103</ele>
        <time>2011-04-15T10:05:51Z</time>
      </trkpt>
      <trkpt lat="48.52755" lon="2.137">
        <ele>103</ele>
        <time>2011-04-15T10:05:52Z</time>
      </trkpt>
      <trkpt lat="48.52755" lon="2.13698">
        <ele>103</ele>
        <time>2011-04-15T10:05:53Z</time>
      </trkpt>
      <trkpt lat="48.52754" lon="2.13696">
        <ele>103</ele>
        <time>2011-04-15T10:05:54Z</time>
      </trkpt>
      <trkpt lat="48.52754" lon="2.13694">
        <ele>103</ele>
        <time>2011-04-15T10:05:55Z</time>
      </trkpt>
      <trkpt lat="48.52753" lon="2.13693">
        <ele>103</ele>
        <time>2011-04-15T10:05:56Z</time>
      </trkpt>
      <trkpt lat="48.52753" lon="2.13691">
        <ele>104</ele>
        <time>2011-04-15T10:05:57Z</time>
      </trkpt>
      <trkpt lat="48.52752" lon="2.13689">
        <ele>104</ele>
        <time>2011-04-15T10:05:59Z</time>
      </trkpt>
      <trkpt lat="48.52751" lon="2.13687">
        <ele>104</ele>
        <time>2011-04-15T10:06:01Z</time>
      </trkpt>
      <trkpt lat="48.5275" lon="2.13684">
        <ele>104</ele>
        <time>2011-04-15T10:06:03Z</time>
      </trkpt>
      <trkpt lat="48.52749" lon="2.13682">
        <ele>104</ele>
        <time>2011-04-15T10:06:04Z</time>
      </trkpt>
      <trkpt lat="48.52748" lon="2.1368">
        <ele>104</ele>
        <time>2011-04-15T10:06:05Z</time>
      </trkpt>
      <trkpt lat="48.52748" lon="2.13679">
        <ele>104</ele>
        <time>2011-04-15T10:06:06Z</time>
      </trkpt>
      <trkpt lat="48.52746" lon="2.13676">
        <ele>104</ele>
        <time>2011-04-15T10:06:08Z</time>
      </trkpt>
      <trkpt lat="48.52744" lon="2.13674">
        <ele>104</ele>
        <time>2011-04-15T10:06:10Z</time>
      </trkpt>
      <trkpt lat="48.52742" lon="2.13672">
        <ele>105</ele>
        <time>2011-04-15T10:06:12Z</time>
      </trkpt>
      <trkpt lat="48.52741" lon="2.1367">
        <ele>105</ele>
        <time>2011-04-15T10:06:44Z</time>
      </trkpt>
      <trkpt lat="48.52739" lon="2.1367">
        <ele>105</ele>
        <time>2011-04-15T10:06:45Z</time>
      </trkpt>
      <trkpt lat="48.52738" lon="2.13669">
        <ele>105</ele>
        <time>2011-04-15T10:06:46Z</time>
      </trkpt>
      <trkpt lat="48.52737" lon="2.13669">
        <ele>105</ele>
        <time>2011-04-15T10:06:47Z</time>
      </trkpt>
      <trkpt lat="48.52736" lon="2.13667">
        <ele>105</ele>
        <time>2011-04-15T10:06:48Z</time>
      </trkpt>
      <trkpt lat="48.52735" lon="2.13666">
        <ele>105</ele>
        <time>2011-04-15T10:06:49Z</time>
      </trkpt>
      <trkpt lat="48.52733" lon="2.13664">
        <ele>105</ele>
        <time>2011-04-15T10:06:51Z</time>
      </trkpt>
      <trkpt lat="48.52731" lon="2.13662">
        <ele>105</ele>
        <time>2011-04-15T10:06:53Z</time>
      </trkpt>
      <trkpt lat="48.52729" lon="2.13659">
        <ele>105</ele>
        <time>2011-04-15T10:06:55Z</time>
      </trkpt>
      <trkpt lat="48.52727" lon="2.13656">
        <ele>105</ele>
        <time>2011-04-15T10:06:57Z</time>
      </trkpt>
      <trkpt lat="48.52726" lon="2.13655">
        <ele>105</ele>
        <time>2011-04-15T10:06:58Z</time>
      </trkpt>
      <trkpt lat="48.52724" lon="2.13653">
        <ele>105</ele>
        <time>2011-04-15T10:07:00Z</time>
      </trkpt>
      <trkpt lat="48.52722" lon="2.1365">
        <ele>105</ele>
        <time>2011-04-15T10:07:02Z</time>
      </trkpt>
      <trkpt lat="48.52721" lon="2.13649">
        <ele>105</ele>
        <time>2011-04-15T10:07:03Z</time>
      </trkpt>
      <trkpt lat="48.5272" lon="2.13647">
        <ele>105</ele>
        <time>2011-04-15T10:07:04Z</time>
      </trkpt>
      <trkpt lat="48.52719" lon="2.13646">
        <ele>105</ele>
        <time>2011-04-15T10:07:05Z</time>
      </trkpt>
      <trkpt lat="48.52718" lon="2.13644">
        <ele>105</ele>
        <time>2011-04-15T10:07:06Z</time>
      </trkpt>
      <trkpt lat="48.52716" lon="2.13641">
        <ele>105</ele>
        <time>2011-04-15T10:07:08Z</time>
      </trkpt>
      <trkpt lat="48.52714" lon="2.1364">
        <ele>105</ele>
        <time>2011-04-15T10:07:09Z</time>
      </trkpt>
      <trkpt lat="48.52713" lon="2.13638">
        <ele>105</ele>
        <time>2011-04-15T10:07:10Z</time>
      </trkpt>
      <trkpt lat="48.52712" lon="2.13635">
        <ele>105</ele>
        <time>2011-04-15T10:07:12Z</time>
      </trkpt>
      <trkpt lat="48.5271" lon="2.13632">
        <ele>105</ele>
        <time>2011-04-15T10:07:14Z</time>
      </trkpt>
      <trkpt lat="48.52709" lon="2.1363">
        <ele>105</ele>
        <time>2011-04-15T10:07:15Z</time>
      </trkpt>
      <trkpt lat="48.52707" lon="2.13627">
        <ele>106</ele>
        <time>2011-04-15T10:07:17Z</time>
      </trkpt>
      <trkpt lat="48.52705" lon="2.13624">
        <ele>106</ele>
        <time>2011-04-15T10:07:19Z</time>
      </trkpt>
      <trkpt lat="48.52703" lon="2.13621">
        <ele>106</ele>
        <time>2011-04-15T10:07:21Z</time>
      </trkpt>
      <trkpt lat="48.52703" lon="2.1362">
        <ele>106</ele>
        <time>2011-04-15T10:07:22Z</time>
      </trkpt>
      <trkpt lat="48.52702" lon="2.13618">
        <ele>106</ele>
        <time>2011-04-15T10:07:23Z</time>
      </trkpt>
      <trkpt lat="48.527" lon="2.13615">
        <ele>106</ele>
        <time>2011-04-15T10:07:25Z</time>
      </trkpt>
      <trkpt lat="48.52698" lon="2.13612">
        <ele>107</ele>
        <time>2011-04-15T10:07:27Z</time>
      </trkpt>
      <trkpt lat="48.52696" lon="2.13609">
        <ele>107</ele>
        <time>2011-04-15T10:07:29Z</time>
      </trkpt>
      <trkpt lat="48.52695" lon="2.13606">
        <ele>107</ele>
        <time>2011-04-15T10:07:31Z</time>
      </trkpt>
      <trkpt lat="48.52693" lon="2.13603">
        <ele>107</ele>
        <time>2011-04-15T10:07:33Z</time>
      </trkpt>
      <trkpt lat="48.52691" lon="2.136">
        <ele>107</ele>
        <time>2011-04-15T10:07:35Z</time>
      </trkpt>
      <trkpt lat="48.5269" lon="2.13597">
        <ele>107</ele>
        <time>2011-04-15T10:07:37Z</time>
      </trkpt>
      <trkpt lat="48.52689" lon="2.13596">
        <ele>107</ele>
        <time>2011-04-15T10:07:38Z</time>
      </trkpt>
      <trkpt lat="48.52687" lon="2.13593">
        <ele>107</ele>
        <time>2011-04-15T10:07:40Z</time>
      </trkpt>
      <trkpt lat="48.52687" lon="2.13591">
        <ele>107</ele>
        <time>2011-04-15T10:07:41Z</time>
      </trkpt>
      <trkpt lat="48.52685" lon="2.13588">
        <ele>107</ele>
        <time>2011-04-15T10:07:43Z</time>
      </trkpt>
      <trkpt lat="48.52684" lon="2.13585">
        <ele>107</ele>
        <time>2011-04-15T10:07:45Z</time>
      </trkpt>
      <trkpt lat="48.52682" lon="2.13582">
        <ele>107</ele>
        <time>2011-04-15T10:07:47Z</time>
      </trkpt>
      <trkpt lat="48.52682" lon="2.1358">
        <ele>107</ele>
        <time>2011-04-15T10:07:48Z</time>
      </trkpt>
      <trkpt lat="48.52681" lon="2.13577">
        <ele>108</ele>
        <time>2011-04-15T10:07:50Z</time>
      </trkpt>
      <trkpt lat="48.5268" lon="2.13575">
        <ele>108</ele>
        <time>2011-04-15T10:07:52Z</time>
      </trkpt>
      <trkpt lat="48.52679" lon="2.13574">
        <ele>108</ele>
        <time>2011-04-15T10:07:54Z</time>
      </trkpt>
      <trkpt lat="48.52677" lon="2.13571">
        <ele>108</ele>
        <time>2011-04-15T10:07:56Z</time>
      </trkpt>
      <trkpt lat="48.52676" lon="2.13569">
        <ele>108</ele>
        <time>2011-04-15T10:07:58Z</time>
      </trkpt>
      <trkpt lat="48.52675" lon="2.13567">
        <ele>108</ele>
        <time>2011-04-15T10:08:00Z</time>
      </trkpt>
      <trkpt lat="48.52674" lon="2.13564">
        <ele>108</ele>
        <time>2011-04-15T10:08:02Z</time>
      </trkpt>
      <trkpt lat="48.52674" lon="2.13563">
        <ele>108</ele>
        <time>2011-04-15T10:08:03Z</time>
      </trkpt>
      <trkpt lat="48.52674" lon="2.1356">
        <ele>108</ele>
        <time>2011-04-15T10:08:05Z</time>
      </trkpt>
      <trkpt lat="48.52672" lon="2.13558">
        <ele>108</ele>
        <time>2011-04-15T10:08:07Z</time>
      </trkpt>
      <trkpt lat="48.52671" lon="2.13557">
        <ele>109</ele>
        <time>2011-04-15T10:08:08Z</time>
      </trkpt>
      <trkpt lat="48.52669" lon="2.13556">
        <ele>109</ele>
        <time>2011-04-15T10:08:09Z</time>
      </trkpt>
      <trkpt lat="48.52667" lon="2.13554">
        <ele>109</ele>
        <time>2011-04-15T10:08:11Z</time>
      </trkpt>
      <trkpt lat="48.52666" lon="2.13553">
        <ele>110</ele>
        <time>2011-04-15T10:08:13Z</time>
      </trkpt>
      <trkpt lat="48.52665" lon="2.13552">
        <ele>111</ele>
        <time>2011-04-15T10:08:15Z</time>
      </trkpt>
      <trkpt lat="48.52663" lon="2.1355">
        <ele>112</ele>
        <time>2011-04-15T10:08:17Z</time>
      </trkpt>
      <trkpt lat="48.52662" lon="2.13549">
        <ele>113</ele>
        <time>2011-04-15T10:08:18Z</time>
      </trkpt>
      <trkpt lat="48.52661" lon="2.13548">
        <ele>113</ele>
        <time>2011-04-15T10:08:19Z</time>
      </trkpt>
      <trkpt lat="48.5266" lon="2.13547">
        <ele>114</ele>
        <time>2011-04-15T10:08:20Z</time>
      </trkpt>
      <trkpt lat="48.52658" lon="2.13545">
        <ele>114</ele>
        <time>2011-04-15T10:08:21Z</time>
      </trkpt>
      <trkpt lat="48.52656" lon="2.13543">
        <ele>115</ele>
        <time>2011-04-15T10:08:23Z</time>
      </trkpt>
      <trkpt lat="48.52655" lon="2.13543">
        <ele>115</ele>
        <time>2011-04-15T10:08:24Z</time>
      </trkpt>
      <trkpt lat="48.52653" lon="2.13541">
        <ele>116</ele>
        <time>2011-04-15T10:08:25Z</time>
      </trkpt>
      <trkpt lat="48.52652" lon="2.1354">
        <ele>116</ele>
        <time>2011-04-15T10:08:26Z</time>
      </trkpt>
      <trkpt lat="48.5265" lon="2.13537">
        <ele>117</ele>
        <time>2011-04-15T10:08:28Z</time>
      </trkpt>
      <trkpt lat="48.5265" lon="2.13535">
        <ele>117</ele>
        <time>2011-04-15T10:08:30Z</time>
      </trkpt>
      <trkpt lat="48.52647" lon="2.13532">
        <ele>118</ele>
        <time>2011-04-15T10:08:32Z</time>
      </trkpt>
      <trkpt lat="48.52646" lon="2.13531">
        <ele>118</ele>
        <time>2011-04-15T10:08:33Z</time>
      </trkpt>
      <trkpt lat="48.52645" lon="2.13528">
        <ele>119</ele>
        <time>2011-04-15T10:08:35Z</time>
      </trkpt>
      <trkpt lat="48.52643" lon="2.13525">
        <ele>120</ele>
        <time>2011-04-15T10:08:37Z</time>
      </trkpt>
      <trkpt lat="48.52643" lon="2.13523">
        <ele>120</ele>
        <time>2011-04-15T10:08:38Z</time>
      </trkpt>
      <trkpt lat="48.52642" lon="2.13521">
        <ele>120</ele>
        <time>2011-04-15T10:08:39Z</time>
      </trkpt>
      <trkpt lat="48.52642" lon="2.13519">
        <ele>121</ele>
        <time>2011-04-15T10:08:40Z</time>
      </trkpt>
      <trkpt lat="48.5264" lon="2.13516">
        <ele>121</ele>
        <time>2011-04-15T10:08:42Z</time>
      </trkpt>
      <trkpt lat="48.52639" lon="2.13513">
        <ele>121</ele>
        <time>2011-04-15T10:08:44Z</time>
      </trkpt>
      <trkpt lat="48.52638" lon="2.13511">
        <ele>121</ele>
        <time>2011-04-15T10:08:45Z</time>
      </trkpt>
      <trkpt lat="48.52637" lon="2.13509">
        <ele>121</ele>
        <time>2011-04-15T10:08:46Z</time>
      </trkpt>
      <trkpt lat="48.52636" lon="2.13507">
        <ele>121</ele>
        <time>2011-04-15T10:08:47Z</time>
      </trkpt>
      <trkpt lat="48.52634" lon="2.13506">
        <ele>121</ele>
        <time>2011-04-15T10:08:48Z</time>
      </trkpt>
      <trkpt lat="48.52633" lon="2.13503">
        <ele>121</ele>
        <time>2011-04-15T10:08:49Z</time>
      </trkpt>
      <trkpt lat="48.52632" lon="2.13501">
        <ele>121</ele>
        <time>2011-04-15T10:08:50Z</time>
      </trkpt>
      <trkpt lat="48.52631" lon="2.13499">
        <ele>121</ele>
        <time>2011-04-15T10:08:51Z</time>
      </trkpt>
      <trkpt lat="48.52629" lon="2.13496">
        <ele>121</ele>
        <time>2011-04-15T10:08:53Z</time>
      </trkpt>
      <trkpt lat="48.52628" lon="2.13494">
        <ele>121</ele>
        <time>2011-04-15T10:08:55Z</time>
      </trkpt>
      <trkpt lat="48.52626" lon="2.13493">
        <ele>122</ele>
        <time>2011-04-15T10:08:57Z</time>
      </trkpt>
      <trkpt lat="48.52623" lon="2.1349">
        <ele>123</ele>
        <time>2011-04-15T10:08:59Z</time>
      </trkpt>
      <trkpt lat="48.52622" lon="2.1349">
        <ele>124</ele>
        <time>2011-04-15T10:09:00Z</time>
      </trkpt>
      <trkpt lat="48.52621" lon="2.13489">
        <ele>124</ele>
        <time>2011-04-15T10:09:01Z</time>
      </trkpt>
      <trkpt lat="48.52619" lon="2.13488">
        <ele>125</ele>
        <time>2011-04-15T10:09:02Z</time>
      </trkpt>
      <trkpt lat="48.52618" lon="2.13487">
        <ele>125</ele>
        <time>2011-04-15T10:09:03Z</time>
      </trkpt>
      <trkpt lat="48.52617" lon="2.13485">
        <ele>125</ele>
        <time>2011-04-15T10:09:04Z</time>
      </trkpt>
      <trkpt lat="48.52615" lon="2.13485">
        <ele>126</ele>
        <time>2011-04-15T10:09:05Z</time>
      </trkpt>
      <trkpt lat="48.52614" lon="2.13483">
        <ele>126</ele>
        <time>2011-04-15T10:09:06Z</time>
      </trkpt>
      <trkpt lat="48.52613" lon="2.13482">
        <ele>126</ele>
        <time>2011-04-15T10:09:07Z</time>
      </trkpt>
      <trkpt lat="48.52611" lon="2.13482">
        <ele>127</ele>
        <time>2011-04-15T10:09:08Z</time>
      </trkpt>
      <trkpt lat="48.5261" lon="2.13481">
        <ele>127</ele>
        <time>2011-04-15T10:09:10Z</time>
      </trkpt>
      <trkpt lat="48.52609" lon="2.1348">
        <ele>128</ele>
        <time>2011-04-15T10:09:11Z</time>
      </trkpt>
      <trkpt lat="48.52607" lon="2.1348">
        <ele>128</ele>
        <time>2011-04-15T10:09:12Z</time>
      </trkpt>
      <trkpt lat="48.52605" lon="2.13479">
        <ele>129</ele>
        <time>2011-04-15T10:09:14Z</time>
      </trkpt>
      <trkpt lat="48.52603" lon="2.13477">
        <ele>130</ele>
        <time>2011-04-15T10:09:16Z</time>
      </trkpt>
      <trkpt lat="48.52602" lon="2.13476">
        <ele>131</ele>
        <time>2011-04-15T10:09:17Z</time>
      </trkpt>
      <trkpt lat="48.526" lon="2.13475">
        <ele>131</ele>
        <time>2011-04-15T10:09:18Z</time>
      </trkpt>
      <trkpt lat="48.52599" lon="2.13473">
        <ele>132</ele>
        <time>2011-04-15T10:09:19Z</time>
      </trkpt>
      <trkpt lat="48.52596" lon="2.13471">
        <ele>133</ele>
        <time>2011-04-15T10:09:21Z</time>
      </trkpt>
      <trkpt lat="48.52596" lon="2.13469">
        <ele>133</ele>
        <time>2011-04-15T10:09:22Z</time>
      </trkpt>
      <trkpt lat="48.52595" lon="2.13467">
        <ele>134</ele>
        <time>2011-04-15T10:09:23Z</time>
      </trkpt>
      <trkpt lat="48.52595" lon="2.13465">
        <ele>134</ele>
        <time>2011-04-15T10:09:24Z</time>
      </trkpt>
      <trkpt lat="48.52594" lon="2.13463">
        <ele>134</ele>
        <time>2011-04-15T10:09:25Z</time>
      </trkpt>
      <trkpt lat="48.52593" lon="2.13462">
        <ele>134</ele>
        <time>2011-04-15T10:09:26Z</time>
      </trkpt>
      <trkpt lat="48.52592" lon="2.1346">
        <ele>134</ele>
        <time>2011-04-15T10:09:27Z</time>
      </trkpt>
      <trkpt lat="48.5259" lon="2.13458">
        <ele>134</ele>
        <time>2011-04-15T10:09:28Z</time>
      </trkpt>
      <trkpt lat="48.52589" lon="2.13456">
        <ele>134</ele>
        <time>2011-04-15T10:09:29Z</time>
      </trkpt>
      <trkpt lat="48.52589" lon="2.13453">
        <ele>134</ele>
        <time>2011-04-15T10:09:30Z</time>
      </trkpt>
      <trkpt lat="48.52588" lon="2.13451">
        <ele>134</ele>
        <time>2011-04-15T10:09:31Z</time>
      </trkpt>
      <trkpt lat="48.52587" lon="2.13449">
        <ele>134</ele>
        <time>2011-04-15T10:09:32Z</time>
      </trkpt>
      <trkpt lat="48.52586" lon="2.13447">
        <ele>134</ele>
        <time>2011-04-15T10:09:34Z</time>
      </trkpt>
      <trkpt lat="48.52585" lon="2.13445">
        <ele>134</ele>
        <time>2011-04-15T10:09:35Z</time>
      </trkpt>
      <trkpt lat="48.52584" lon="2.13442">
        <ele>134</ele>
        <time>2011-04-15T10:09:37Z</time>
      </trkpt>
      <trkpt lat="48.52582" lon="2.13439">
        <ele>134</ele>
        <time>2011-04-15T10:09:39Z</time>
      </trkpt>
      <trkpt lat="48.52581" lon="2.13437">
        <ele>134</ele>
        <time>2011-04-15T10:09:41Z</time>
      </trkpt>
      <trkpt lat="48.52579" lon="2.13437">
        <ele>134</ele>
        <time>2011-04-15T10:09:42Z</time>
      </trkpt>
      <trkpt lat="48.52578" lon="2.13436">
        <ele>134</ele>
        <time>2011-04-15T10:09:43Z</time>
      </trkpt>
      <trkpt lat="48.52575" lon="2.13434">
        <ele>134</ele>
        <time>2011-04-15T10:09:45Z</time>
      </trkpt>
      <trkpt lat="48.52574" lon="2.13432">
        <ele>134</ele>
        <time>2011-04-15T10:09:46Z</time>
      </trkpt>
      <trkpt lat="48.52573" lon="2.13429">
        <ele>134</ele>
        <time>2011-04-15T10:09:48Z</time>
      </trkpt>
      <trkpt lat="48.52572" lon="2.13428">
        <ele>134</ele>
        <time>2011-04-15T10:09:49Z</time>
      </trkpt>
      <trkpt lat="48.52572" lon="2.13424">
        <ele>134</ele>
        <time>2011-04-15T10:09:51Z</time>
      </trkpt>
      <trkpt lat="48.52571" lon="2.13422">
        <ele>134</ele>
        <time>2011-04-15T10:09:52Z</time>
      </trkpt>
      <trkpt lat="48.5257" lon="2.13419">
        <ele>133</ele>
        <time>2011-04-15T10:09:54Z</time>
      </trkpt>
      <trkpt lat="48.52568" lon="2.13416">
        <ele>132</ele>
        <time>2011-04-15T10:09:56Z</time>
      </trkpt>
      <trkpt lat="48.52568" lon="2.13415">
        <ele>132</ele>
        <time>2011-04-15T10:09:57Z</time>
      </trkpt>
      <trkpt lat="48.52567" lon="2.13414">
        <ele>132</ele>
        <time>2011-04-15T10:09:58Z</time>
      </trkpt>
      <trkpt lat="48.52565" lon="2.13414">
        <ele>132</ele>
        <time>2011-04-15T10:09:59Z</time>
      </trkpt>
      <trkpt lat="48.52564" lon="2.13412">
        <ele>132</ele>
        <time>2011-04-15T10:10:00Z</time>
      </trkpt>
      <trkpt lat="48.52563" lon="2.1341">
        <ele>132</ele>
        <time>2011-04-15T10:10:01Z</time>
      </trkpt>
      <trkpt lat="48.52562" lon="2.13408">
        <ele>132</ele>
        <time>2011-04-15T10:10:02Z</time>
      </trkpt>
      <trkpt lat="48.5256" lon="2.13406">
        <ele>132</ele>
        <time>2011-04-15T10:10:03Z</time>
      </trkpt>
      <trkpt lat="48.52559" lon="2.13405">
        <ele>132</ele>
        <time>2011-04-15T10:10:04Z</time>
      </trkpt>
      <trkpt lat="48.52558" lon="2.13404">
        <ele>132</ele>
        <time>2011-04-15T10:10:05Z</time>
      </trkpt>
      <trkpt lat="48.52557" lon="2.13402">
        <ele>132</ele>
        <time>2011-04-15T10:10:06Z</time>
      </trkpt>
      <trkpt lat="48.52556" lon="2.134">
        <ele>132</ele>
        <time>2011-04-15T10:10:07Z</time>
      </trkpt>
      <trkpt lat="48.52556" lon="2.13397">
        <ele>132</ele>
        <time>2011-04-15T10:10:08Z</time>
      </trkpt>
      <trkpt lat="48.52555" lon="2.13395">
        <ele>132</ele>
        <time>2011-04-15T10:10:09Z</time>
      </trkpt>
      <trkpt lat="48.52554" lon="2.13393">
        <ele>132</ele>
        <time>2011-04-15T10:10:10Z</time>
      </trkpt>
      <trkpt lat="48.52553" lon="2.13391">
        <ele>133</ele>
        <time>2011-04-15T10:10:12Z</time>
      </trkpt>
      <trkpt lat="48.52551" lon="2.13388">
        <ele>134</ele>
        <time>2011-04-15T10:10:14Z</time>
      </trkpt>
      <trkpt lat="48.5255" lon="2.13387">
        <ele>134</ele>
        <time>2011-04-15T10:10:15Z</time>
      </trkpt>
      <trkpt lat="48.52549" lon="2.13385">
        <ele>134</ele>
        <time>2011-04-15T10:10:16Z</time>
      </trkpt>
      <trkpt lat="48.52548" lon="2.13384">
        <ele>134</ele>
        <time>2011-04-15T10:10:17Z</time>
      </trkpt>
      <trkpt lat="48.52547" lon="2.13382">
        <ele>134</ele>
        <time>2011-04-15T10:10:18Z</time>
      </trkpt>
      <trkpt lat="48.52546" lon="2.13381">
        <ele>134</ele>
        <time>2011-04-15T10:10:19Z</time>
      </trkpt>
      <trkpt lat="48.52545" lon="2.13379">
        <ele>134</ele>
        <time>2011-04-15T10:10:20Z</time>
      </trkpt>
      <trkpt lat="48.52543" lon="2.13376">
        <ele>134</ele>
        <time>2011-04-15T10:10:22Z</time>
      </trkpt>
      <trkpt lat="48.52543" lon="2.13374">
        <ele>134</ele>
        <time>2011-04-15T10:10:23Z</time>
      </trkpt>
      <trkpt lat="48.52542" lon="2.13372">
        <ele>134</ele>
        <time>2011-04-15T10:10:24Z</time>
      </trkpt>
      <trkpt lat="48.5254" lon="2.13369">
        <ele>134</ele>
        <time>2011-04-15T10:10:26Z</time>
      </trkpt>
      <trkpt lat="48.52538" lon="2.13366">
        <ele>134</ele>
        <time>2011-04-15T10:10:28Z</time>
      </trkpt>
      <trkpt lat="48.52536" lon="2.13364">
        <ele>134</ele>
        <time>2011-04-15T10:10:30Z</time>
      </trkpt>
      <trkpt lat="48.52534" lon="2.13362">
        <ele>134</ele>
        <time>2011-04-15T10:10:32Z</time>
      </trkpt>
      <trkpt lat="48.52532" lon="2.1336">
        <ele>136</ele>
        <time>2011-04-15T10:10:34Z</time>
      </trkpt>
      <trkpt lat="48.52531" lon="2.13358">
        <ele>137</ele>
        <time>2011-04-15T10:10:35Z</time>
      </trkpt>
      <trkpt lat="48.52529" lon="2.13356">
        <ele>139</ele>
        <time>2011-04-15T10:10:37Z</time>
      </trkpt>
      <trkpt lat="48.52528" lon="2.13355">
        <ele>140</ele>
        <time>2011-04-15T10:10:38Z</time>
      </trkpt>
      <trkpt lat="48.52526" lon="2.13352">
        <ele>140</ele>
        <time>2011-04-15T10:10:40Z</time>
      </trkpt>
      <trkpt lat="48.52525" lon="2.13351">
        <ele>140</ele>
        <time>2011-04-15T10:10:41Z</time>
      </trkpt>
      <trkpt lat="48.52524" lon="2.13349">
        <ele>140</ele>
        <time>2011-04-15T10:10:42Z</time>
      </trkpt>
      <trkpt lat="48.52523" lon="2.13348">
        <ele>140</ele>
        <time>2011-04-15T10:10:43Z</time>
      </trkpt>
      <trkpt lat="48.52521" lon="2.13346">
        <ele>140</ele>
        <time>2011-04-15T10:10:45Z</time>
      </trkpt>
      <trkpt lat="48.52518" lon="2.13342">
        <ele>140</ele>
        <time>2011-04-15T10:10:47Z</time>
      </trkpt>
      <trkpt lat="48.52517" lon="2.13338">
        <ele>140</ele>
        <time>2011-04-15T10:10:48Z</time>
      </trkpt>
      <trkpt lat="48.52514" lon="2.13334">
        <ele>140</ele>
        <time>2011-04-15T10:10:49Z</time>
      </trkpt>
      <trkpt lat="48.52512" lon="2.1333">
        <ele>140</ele>
        <time>2011-04-15T10:10:50Z</time>
      </trkpt>
      <trkpt lat="48.52511" lon="2.13327">
        <ele>140</ele>
        <time>2011-04-15T10:10:51Z</time>
      </trkpt>
      <trkpt lat="48.5251" lon="2.13325">
        <ele>140</ele>
        <time>2011-04-15T10:10:52Z</time>
      </trkpt>
      <trkpt lat="48.52509" lon="2.13322">
        <ele>140</ele>
        <time>2011-04-15T10:10:53Z</time>
      </trkpt>
      <trkpt lat="48.52508" lon="2.13319">
        <ele>140</ele>
        <time>2011-04-15T10:10:54Z</time>
      </trkpt>
      <trkpt lat="48.52508" lon="2.13316">
        <ele>140</ele>
        <time>2011-04-15T10:10:55Z</time>
      </trkpt>
      <trkpt lat="48.52507" lon="2.13314">
        <ele>140</ele>
        <time>2011-04-15T10:10:56Z</time>
      </trkpt>
      <trkpt lat="48.52506" lon="2.13312">
        <ele>140</ele>
        <time>2011-04-15T10:10:57Z</time>
      </trkpt>
      <trkpt lat="48.52505" lon="2.1331">
        <ele>140</ele>
        <time>2011-04-15T10:10:58Z</time>
      </trkpt>
      <trkpt lat="48.52505" lon="2.13308">
        <ele>140</ele>
        <time>2011-04-15T10:10:59Z</time>
      </trkpt>
      <trkpt lat="48.52504" lon="2.13306">
        <ele>140</ele>
        <time>2011-04-15T10:11:01Z</time>
      </trkpt>
      <trkpt lat="48.52503" lon="2.13303">
        <ele>140</ele>
        <time>2011-04-15T10:11:03Z</time>
      </trkpt>
      <trkpt lat="48.52502" lon="2.13301">
        <ele>140</ele>
        <time>2011-04-15T10:11:04Z</time>
      </trkpt>
      <trkpt lat="48.52501" lon="2.13299">
        <ele>140</ele>
        <time>2011-04-15T10:11:05Z</time>
      </trkpt>
      <trkpt lat="48.525" lon="2.13298">
        <ele>140</ele>
        <time>2011-04-15T10:11:06Z</time>
      </trkpt>
      <trkpt lat="48.52499" lon="2.13296">
        <ele>140</ele>
        <time>2011-04-15T10:11:07Z</time>
      </trkpt>
      <trkpt lat="48.52497" lon="2.13293">
        <ele>140</ele>
        <time>2011-04-15T10:11:09Z</time>
      </trkpt>
      <trkpt lat="48.52496" lon="2.13292">
        <ele>140</ele>
        <time>2011-04-15T10:11:10Z</time>
      </trkpt>
      <trkpt lat="48.52495" lon="2.1329">
        <ele>140</ele>
        <time>2011-04-15T10:11:11Z</time>
      </trkpt>
      <trkpt lat="48.52495" lon="2.13288">
        <ele>140</ele>
        <time>2011-04-15T10:11:12Z</time>
      </trkpt>
      <trkpt lat="48.52494" lon="2.13286">
        <ele>140</ele>
        <time>2011-04-15T10:11:13Z</time>
      </trkpt>
      <trkpt lat="48.52493" lon="2.13285">
        <ele>140</ele>
        <time>2011-04-15T10:11:14Z</time>
      </trkpt>
      <trkpt lat="48.52493" lon="2.13283">
        <ele>140</ele>
        <time>2011-04-15T10:11:15Z</time>
      </trkpt>
      <trkpt lat="48.52492" lon="2.13281">
        <ele>140</ele>
        <time>2011-04-15T10:11:16Z</time>
      </trkpt>
      <trkpt lat="48.52491" lon="2.13279">
        <ele>140</ele>
        <time>2011-04-15T10:11:17Z</time>
      </trkpt>
      <trkpt lat="48.5249" lon="2.13278">
        <ele>140</ele>
        <time>2011-04-15T10:11:18Z</time>
      </trkpt>
      <trkpt lat="48.52489" lon="2.13276">
        <ele>140</ele>
        <time>2011-04-15T10:11:19Z</time>
      </trkpt>
      <trkpt lat="48.52488" lon="2.13274">
        <ele>140</ele>
        <time>2011-04-15T10:11:20Z</time>
      </trkpt>
      <trkpt lat="48.52486" lon="2.13272">
        <ele>140</ele>
        <time>2011-04-15T10:11:22Z</time>
      </trkpt>
      <trkpt lat="48.52484" lon="2.13269">
        <ele>140</ele>
        <time>2011-04-15T10:11:24Z</time>
      </trkpt>
      <trkpt lat="48.52483" lon="2.13268">
        <ele>140</ele>
        <time>2011-04-15T10:11:25Z</time>
      </trkpt>
      <trkpt lat="48.52482" lon="2.13266">
        <ele>140</ele>
        <time>2011-04-15T10:11:26Z</time>
      </trkpt>
      <trkpt lat="48.5248" lon="2.13265">
        <ele>140</ele>
        <time>2011-04-15T10:11:27Z</time>
      </trkpt>
      <trkpt lat="48.52479" lon="2.13264">
        <ele>140</ele>
        <time>2011-04-15T10:11:28Z</time>
      </trkpt>
      <trkpt lat="48.52477" lon="2.13263">
        <ele>140</ele>
        <time>2011-04-15T10:11:29Z</time>
      </trkpt>
      <trkpt lat="48.52476" lon="2.13261">
        <ele>140</ele>
        <time>2011-04-15T10:11:31Z</time>
      </trkpt>
      <trkpt lat="48.52474" lon="2.13258">
        <ele>140</ele>
        <time>2011-04-15T10:11:33Z</time>
      </trkpt>
      <trkpt lat="48.52472" lon="2.13255">
        <ele>140</ele>
        <time>2011-04-15T10:11:35Z</time>
      </trkpt>
      <trkpt lat="48.5247" lon="2.13253">
        <ele>140</ele>
        <time>2011-04-15T10:11:37Z</time>
      </trkpt>
      <trkpt lat="48.52469" lon="2.1325">
        <ele>140</ele>
        <time>2011-04-15T10:11:39Z</time>
      </trkpt>
      <trkpt lat="48.52467" lon="2.13249">
        <ele>140</ele>
        <time>2011-04-15T10:11:40Z</time>
      </trkpt>
      <trkpt lat="48.52466" lon="2.13246">
        <ele>140</ele>
        <time>2011-04-15T10:11:42Z</time>
      </trkpt>
      <trkpt lat="48.52466" lon="2.13244">
        <ele>140</ele>
        <time>2011-04-15T10:11:43Z</time>
      </trkpt>
      <trkpt lat="48.52465" lon="2.13242">
        <ele>140</ele>
        <time>2011-04-15T10:11:44Z</time>
      </trkpt>
      <trkpt lat="48.52465" lon="2.1324">
        <ele>140</ele>
        <time>2011-04-15T10:11:45Z</time>
      </trkpt>
      <trkpt lat="48.52465" lon="2.13238">
        <ele>140</ele>
        <time>2011-04-15T10:11:46Z</time>
      </trkpt>
      <trkpt lat="48.52464" lon="2.13236">
        <ele>140</ele>
        <time>2011-04-15T10:11:47Z</time>
      </trkpt>
      <trkpt lat="48.52463" lon="2.13235">
        <ele>140</ele>
        <time>2011-04-15T10:11:48Z</time>
      </trkpt>
      <trkpt lat="48.52461" lon="2.13232">
        <ele>140</ele>
        <time>2011-04-15T10:11:50Z</time>
      </trkpt>
      <trkpt lat="48.52459" lon="2.1323">
        <ele>140</ele>
        <time>2011-04-15T10:11:52Z</time>
      </trkpt>
      <trkpt lat="48.52458" lon="2.13229">
        <ele>140</ele>
        <time>2011-04-15T10:11:53Z</time>
      </trkpt>
      <trkpt lat="48.52457" lon="2.13227">
        <ele>140</ele>
        <time>2011-04-15T10:11:54Z</time>
      </trkpt>
      <trkpt lat="48.52456" lon="2.13226">
        <ele>140</ele>
        <time>2011-04-15T10:11:55Z</time>
      </trkpt>
      <trkpt lat="48.52454" lon="2.13223">
        <ele>140</ele>
        <time>2011-04-15T10:11:57Z</time>
      </trkpt>
      <trkpt lat="48.52452" lon="2.1322">
        <ele>140</ele>
        <time>2011-04-15T10:11:59Z</time>
      </trkpt>
      <trkpt lat="48.52451" lon="2.13219">
        <ele>140</ele>
        <time>2011-04-15T10:12:00Z</time>
      </trkpt>
      <trkpt lat="48.5245" lon="2.13219">
        <ele>140</ele>
        <time>2011-04-15T10:12:01Z</time>
      </trkpt>
      <trkpt lat="48.52448" lon="2.13216">
        <ele>140</ele>
        <time>2011-04-15T10:12:03Z</time>
      </trkpt>
      <trkpt lat="48.52447" lon="2.13214">
        <ele>140</ele>
        <time>2011-04-15T10:12:04Z</time>
      </trkpt>
      <trkpt lat="48.52447" lon="2.13213">
        <ele>140</ele>
        <time>2011-04-15T10:12:05Z</time>
      </trkpt>
      <trkpt lat="48.52446" lon="2.13211">
        <ele>140</ele>
        <time>2011-04-15T10:12:06Z</time>
      </trkpt>
      <trkpt lat="48.52444" lon="2.13209">
        <ele>140</ele>
        <time>2011-04-15T10:12:07Z</time>
      </trkpt>
      <trkpt lat="48.52442" lon="2.13208">
        <ele>140</ele>
        <time>2011-04-15T10:12:08Z</time>
      </trkpt>
      <trkpt lat="48.52441" lon="2.13206">
        <ele>140</ele>
        <time>2011-04-15T10:12:09Z</time>
      </trkpt>
      <trkpt lat="48.52439" lon="2.13204">
        <ele>140</ele>
        <time>2011-04-15T10:12:10Z</time>
      </trkpt>
      <trkpt lat="48.52436" lon="2.13202">
        <ele>140</ele>
        <time>2011-04-15T10:12:11Z</time>
      </trkpt>
      <trkpt lat="48.52435" lon="2.13199">
        <ele>140</ele>
        <time>2011-04-15T10:12:12Z</time>
      </trkpt>
      <trkpt lat="48.52432" lon="2.13196">
        <ele>140</ele>
        <time>2011-04-15T10:12:13Z</time>
      </trkpt>
      <trkpt lat="48.52431" lon="2.13194">
        <ele>140</ele>
        <time>2011-04-15T10:12:14Z</time>
      </trkpt>
      <trkpt lat="48.52428" lon="2.13192">
        <ele>140</ele>
        <time>2011-04-15T10:12:16Z</time>
      </trkpt>
      <trkpt lat="48.52427" lon="2.1319">
        <ele>140</ele>
        <time>2011-04-15T10:12:17Z</time>
      </trkpt>
      <trkpt lat="48.52426" lon="2.13188">
        <ele>140</ele>
        <time>2011-04-15T10:12:18Z</time>
      </trkpt>
      <trkpt lat="48.52424" lon="2.13186">
        <ele>140</ele>
        <time>2011-04-15T10:12:19Z</time>
      </trkpt>
      <trkpt lat="48.52423" lon="2.13184">
        <ele>140</ele>
        <time>2011-04-15T10:12:20Z</time>
      </trkpt>
      <trkpt lat="48.52422" lon="2.13181">
        <ele>140</ele>
        <time>2011-04-15T10:12:22Z</time>
      </trkpt>
      <trkpt lat="48.52421" lon="2.13179">
        <ele>140</ele>
        <time>2011-04-15T10:12:23Z</time>
      </trkpt>
      <trkpt lat="48.5242" lon="2.13177">
        <ele>140</ele>
        <time>2011-04-15T10:12:24Z</time>
      </trkpt>
      <trkpt lat="48.52419" lon="2.13176">
        <ele>140</ele>
        <time>2011-04-15T10:12:25Z</time>
      </trkpt>
      <trkpt lat="48.52418" lon="2.13174">
        <ele>140</ele>
        <time>2011-04-15T10:12:26Z</time>
      </trkpt>
      <trkpt lat="48.52417" lon="2.13171">
        <ele>140</ele>
        <time>2011-04-15T10:12:28Z</time>
      </trkpt>
      <trkpt lat="48.52416" lon="2.13169">
        <ele>140</ele>
        <time>2011-04-15T10:12:29Z</time>
      </trkpt>
      <trkpt lat="48.52415" lon="2.13166">
        <ele>140</ele>
        <time>2011-04-15T10:12:31Z</time>
      </trkpt>
      <trkpt lat="48.52415" lon="2.13163">
        <ele>140</ele>
        <time>2011-04-15T10:12:32Z</time>
      </trkpt>
      <trkpt lat="48.52414" lon="2.13161">
        <ele>140</ele>
        <time>2011-04-15T10:12:33Z</time>
      </trkpt>
      <trkpt lat="48.52413" lon="2.13159">
        <ele>140</ele>
        <time>2011-04-15T10:12:34Z</time>
      </trkpt>
      <trkpt lat="48.52413" lon="2.13156">
        <ele>140</ele>
        <time>2011-04-15T10:12:36Z</time>
      </trkpt>
      <trkpt lat="48.52413" lon="2.13154">
        <ele>139</ele>
        <time>2011-04-15T10:12:37Z</time>
      </trkpt>
      <trkpt lat="48.52412" lon="2.13152">
        <ele>139</ele>
        <time>2011-04-15T10:12:38Z</time>
      </trkpt>
      <trkpt lat="48.52411" lon="2.1315">
        <ele>139</ele>
        <time>2011-04-15T10:12:39Z</time>
      </trkpt>
      <trkpt lat="48.52411" lon="2.13148">
        <ele>138</ele>
        <time>2011-04-15T10:12:40Z</time>
      </trkpt>
      <trkpt lat="48.5241" lon="2.13146">
        <ele>138</ele>
        <time>2011-04-15T10:12:41Z</time>
      </trkpt>
      <trkpt lat="48.52409" lon="2.13144">
        <ele>138</ele>
        <time>2011-04-15T10:12:42Z</time>
      </trkpt>
      <trkpt lat="48.52408" lon="2.13142">
        <ele>138</ele>
        <time>2011-04-15T10:12:43Z</time>
      </trkpt>
      <trkpt lat="48.52408" lon="2.1314">
        <ele>138</ele>
        <time>2011-04-15T10:12:44Z</time>
      </trkpt>
      <trkpt lat="48.52407" lon="2.13138">
        <ele>138</ele>
        <time>2011-04-15T10:12:45Z</time>
      </trkpt>
      <trkpt lat="48.52406" lon="2.13136">
        <ele>138</ele>
        <time>2011-04-15T10:12:46Z</time>
      </trkpt>
      <trkpt lat="48.52405" lon="2.13134">
        <ele>138</ele>
        <time>2011-04-15T10:12:47Z</time>
      </trkpt>
      <trkpt lat="48.52404" lon="2.13132">
        <ele>138</ele>
        <time>2011-04-15T10:12:48Z</time>
      </trkpt>
      <trkpt lat="48.52403" lon="2.13129">
        <ele>138</ele>
        <time>2011-04-15T10:12:49Z</time>
      </trkpt>
      <trkpt lat="48.52402" lon="2.13126">
        <ele>138</ele>
        <time>2011-04-15T10:12:50Z</time>
      </trkpt>
      <trkpt lat="48.52402" lon="2.13124">
        <ele>138</ele>
        <time>2011-04-15T10:12:51Z</time>
      </trkpt>
      <trkpt lat="48.52401" lon="2.13122">
        <ele>138</ele>
        <time>2011-04-15T10:12:52Z</time>
      </trkpt>
      <trkpt lat="48.524" lon="2.1312">
        <ele>138</ele>
        <time>2011-04-15T10:12:53Z</time>
      </trkpt>
      <trkpt lat="48.52399" lon="2.13118">
        <ele>138</ele>
        <time>2011-04-15T10:12:54Z</time>
      </trkpt>
      <trkpt lat="48.52399" lon="2.13115">
        <ele>138</ele>
        <time>2011-04-15T10:12:55Z</time>
      </trkpt>
      <trkpt lat="48.52397" lon="2.13114">
        <ele>138</ele>
        <time>2011-04-15T10:12:56Z</time>
      </trkpt>
      <trkpt lat="48.52397" lon="2.1311">
        <ele>138</ele>
        <time>2011-04-15T10:12:58Z</time>
      </trkpt>
      <trkpt lat="48.52397" lon="2.13108">
        <ele>138</ele>
        <time>2011-04-15T10:12:59Z</time>
      </trkpt>
      <trkpt lat="48.52396" lon="2.13105">
        <ele>138</ele>
        <time>2011-04-15T10:13:00Z</time>
      </trkpt>
      <trkpt lat="48.52396" lon="2.13103">
        <ele>139</ele>
        <time>2011-04-15T10:13:01Z</time>
      </trkpt>
      <trkpt lat="48.52396" lon="2.13101">
        <ele>139</ele>
        <time>2011-04-15T10:13:02Z</time>
      </trkpt>
      <trkpt lat="48.52395" lon="2.13098">
        <ele>139</ele>
        <time>2011-04-15T10:13:04Z</time>
      </trkpt>
      <trkpt lat="48.52394" lon="2.13095">
        <ele>139</ele>
        <time>2011-04-15T10:13:05Z</time>
      </trkpt>
      <trkpt lat="48.52394" lon="2.13093">
        <ele>139</ele>
        <time>2011-04-15T10:13:06Z</time>
      </trkpt>
      <trkpt lat="48.52394" lon="2.13091">
        <ele>139</ele>
        <time>2011-04-15T10:13:07Z</time>
      </trkpt>
      <trkpt lat="48.52393" lon="2.13089">
        <ele>139</ele>
        <time>2011-04-15T10:13:08Z</time>
      </trkpt>
      <trkpt lat="48.52392" lon="2.13087">
        <ele>139</ele>
        <time>2011-04-15T10:13:09Z</time>
      </trkpt>
      <trkpt lat="48.52392" lon="2.13084">
        <ele>139</ele>
        <time>2011-04-15T10:13:10Z</time>
      </trkpt>
      <trkpt lat="48.52391" lon="2.13082">
        <ele>139</ele>
        <time>2011-04-15T10:13:11Z</time>
      </trkpt>
      <trkpt lat="48.52391" lon="2.1308">
        <ele>139</ele>
        <time>2011-04-15T10:13:12Z</time>
      </trkpt>
      <trkpt lat="48.5239" lon="2.13077">
        <ele>139</ele>
        <time>2011-04-15T10:13:13Z</time>
      </trkpt>
      <trkpt lat="48.5239" lon="2.13075">
        <ele>139</ele>
        <time>2011-04-15T10:13:14Z</time>
      </trkpt>
      <trkpt lat="48.52389" lon="2.13072">
        <ele>139</ele>
        <time>2011-04-15T10:13:15Z</time>
      </trkpt>
      <trkpt lat="48.52388" lon="2.13069">
        <ele>139</ele>
        <time>2011-04-15T10:13:16Z</time>
      </trkpt>
      <trkpt lat="48.52388" lon="2.13066">
        <ele>139</ele>
        <time>2011-04-15T10:13:17Z</time>
      </trkpt>
      <trkpt lat="48.52387" lon="2.13064">
        <ele>139</ele>
        <time>2011-04-15T10:13:18Z</time>
      </trkpt>
      <trkpt lat="48.52387" lon="2.13062">
        <ele>139</ele>
        <time>2011-04-15T10:13:19Z</time>
      </trkpt>
      <trkpt lat="48.52386" lon="2.1306">
        <ele>139</ele>
        <time>2011-04-15T10:13:20Z</time>
      </trkpt>
      <trkpt lat="48.52386" lon="2.13058">
        <ele>139</ele>
        <time>2011-04-15T10:13:21Z</time>
      </trkpt>
      <trkpt lat="48.52385" lon="2.13056">
        <ele>139</ele>
        <time>2011-04-15T10:13:22Z</time>
      </trkpt>
      <trkpt lat="48.52385" lon="2.13054">
        <ele>139</ele>
        <time>2011-04-15T10:13:23Z</time>
      </trkpt>
      <trkpt lat="48.52384" lon="2.13052">
        <ele>139</ele>
        <time>2011-04-15T10:13:24Z</time>
      </trkpt>
      <trkpt lat="48.52383" lon="2.13049">
        <ele>139</ele>
        <time>2011-04-15T10:13:26Z</time>
      </trkpt>
      <trkpt lat="48.52383" lon="2.13047">
        <ele>139</ele>
        <time>2011-04-15T10:13:27Z</time>
      </trkpt>
      <trkpt lat="48.52382" lon="2.13044">
        <ele>139</ele>
        <time>2011-04-15T10:13:29Z</time>
      </trkpt>
      <trkpt lat="48.52383" lon="2.13042">
        <ele>139</ele>
        <time>2011-04-15T10:13:30Z</time>
      </trkpt>
      <trkpt lat="48.52383" lon="2.1304">
        <ele>139</ele>
        <time>2011-04-15T10:13:31Z</time>
      </trkpt>
      <trkpt lat="48.52382" lon="2.13037">
        <ele>139</ele>
        <time>2011-04-15T10:13:32Z</time>
      </trkpt>
      <trkpt lat="48.52382" lon="2.13035">
        <ele>139</ele>
        <time>2011-04-15T10:13:33Z</time>
      </trkpt>
      <trkpt lat="48.52381" lon="2.13032">
        <ele>139</ele>
        <time>2011-04-15T10:13:34Z</time>
      </trkpt>
      <trkpt lat="48.5238" lon="2.1303">
        <ele>139</ele>
        <time>2011-04-15T10:13:35Z</time>
      </trkpt>
      <trkpt lat="48.5238" lon="2.13028">
        <ele>139</ele>
        <time>2011-04-15T10:13:36Z</time>
      </trkpt>
      <trkpt lat="48.52379" lon="2.13027">
        <ele>139</ele>
        <time>2011-04-15T10:13:37Z</time>
      </trkpt>
      <trkpt lat="48.52378" lon="2.13025">
        <ele>139</ele>
        <time>2011-04-15T10:13:38Z</time>
      </trkpt>
      <trkpt lat="48.52378" lon="2.13023">
        <ele>139</ele>
        <time>2011-04-15T10:13:39Z</time>
      </trkpt>
      <trkpt lat="48.52376" lon="2.1302">
        <ele>139</ele>
        <time>2011-04-15T10:13:41Z</time>
      </trkpt>
      <trkpt lat="48.52375" lon="2.13018">
        <ele>139</ele>
        <time>2011-04-15T10:13:42Z</time>
      </trkpt>
      <trkpt lat="48.52374" lon="2.13016">
        <ele>139</ele>
        <time>2011-04-15T10:13:43Z</time>
      </trkpt>
      <trkpt lat="48.52373" lon="2.13013">
        <ele>139</ele>
        <time>2011-04-15T10:13:45Z</time>
      </trkpt>
      <trkpt lat="48.52372" lon="2.1301">
        <ele>139</ele>
        <time>2011-04-15T10:13:47Z</time>
      </trkpt>
      <trkpt lat="48.52371" lon="2.13008">
        <ele>139</ele>
        <time>2011-04-15T10:13:48Z</time>
      </trkpt>
      <trkpt lat="48.52369" lon="2.13005">
        <ele>139</ele>
        <time>2011-04-15T10:13:50Z</time>
      </trkpt>
      <trkpt lat="48.52369" lon="2.13003">
        <ele>139</ele>
        <time>2011-04-15T10:13:51Z</time>
      </trkpt>
      <trkpt lat="48.52369" lon="2.13">
        <ele>139</ele>
        <time>2011-04-15T10:13:52Z</time>
      </trkpt>
      <trkpt lat="48.52368" lon="2.12999">
        <ele>139</ele>
        <time>2011-04-15T10:13:53Z</time>
      </trkpt>
      <trkpt lat="48.52367" lon="2.12997">
        <ele>139</ele>
        <time>2011-04-15T10:13:54Z</time>
      </trkpt>
      <trkpt lat="48.52366" lon="2.12995">
        <ele>139</ele>
        <time>2011-04-15T10:13:55Z</time>
      </trkpt>
      <trkpt lat="48.52365" lon="2.12993">
        <ele>139</ele>
        <time>2011-04-15T10:13:56Z</time>
      </trkpt>
      <trkpt lat="48.52363" lon="2.12991">
        <ele>139</ele>
        <time>2011-04-15T10:13:58Z</time>
      </trkpt>
      <trkpt lat="48.52361" lon="2.12987">
        <ele>139</ele>
        <time>2011-04-15T10:14:00Z</time>
      </trkpt>
      <trkpt lat="48.5236" lon="2.12985">
        <ele>139</ele>
        <time>2011-04-15T10:14:01Z</time>
      </trkpt>
      <trkpt lat="48.5236" lon="2.12983">
        <ele>139</ele>
        <time>2011-04-15T10:14:02Z</time>
      </trkpt>
      <trkpt lat="48.5236" lon="2.12981">
        <ele>139</ele>
        <time>2011-04-15T10:14:03Z</time>
      </trkpt>
      <trkpt lat="48.52359" lon="2.12978">
        <ele>139</ele>
        <time>2011-04-15T10:14:04Z</time>
      </trkpt>
      <trkpt lat="48.52357" lon="2.12977">
        <ele>139</ele>
        <time>2011-04-15T10:14:05Z</time>
      </trkpt>
      <trkpt lat="48.52355" lon="2.12975">
        <ele>139</ele>
        <time>2011-04-15T10:14:07Z</time>
      </trkpt>
      <trkpt lat="48.52353" lon="2.12972">
        <ele>139</ele>
        <time>2011-04-15T10:14:09Z</time>
      </trkpt>
      <trkpt lat="48.52352" lon="2.12971">
        <ele>139</ele>
        <time>2011-04-15T10:14:10Z</time>
      </trkpt>
      <trkpt lat="48.52352" lon="2.12969">
        <ele>139</ele>
        <time>2011-04-15T10:14:11Z</time>
      </trkpt>
      <trkpt lat="48.5235" lon="2.12967">
        <ele>139</ele>
        <time>2011-04-15T10:14:13Z</time>
      </trkpt>
      <trkpt lat="48.52349" lon="2.12966">
        <ele>139</ele>
        <time>2011-04-15T10:14:14Z</time>
      </trkpt>
      <trkpt lat="48.52346" lon="2.12965">
        <ele>139</ele>
        <time>2011-04-15T10:14:16Z</time>
      </trkpt>
      <trkpt lat="48.52346" lon="2.12963">
        <ele>139</ele>
        <time>2011-04-15T10:14:17Z</time>
      </trkpt>
      <trkpt lat="48.52344" lon="2.12959">
        <ele>139</ele>
        <time>2011-04-15T10:14:19Z</time>
      </trkpt>
      <trkpt lat="48.52343" lon="2.12957">
        <ele>139</ele>
        <time>2011-04-15T10:14:20Z</time>
      </trkpt>
      <trkpt lat="48.52342" lon="2.12955">
        <ele>139</ele>
        <time>2011-04-15T10:14:22Z</time>
      </trkpt>
      <trkpt lat="48.5234" lon="2.12954">
        <ele>139</ele>
        <time>2011-04-15T10:14:23Z</time>
      </trkpt>
      <trkpt lat="48.52339" lon="2.12952">
        <ele>139</ele>
        <time>2011-04-15T10:14:24Z</time>
      </trkpt>
      <trkpt lat="48.52338" lon="2.1295">
        <ele>139</ele>
        <time>2011-04-15T10:14:25Z</time>
      </trkpt>
      <trkpt lat="48.52336" lon="2.12949">
        <ele>139</ele>
        <time>2011-04-15T10:14:26Z</time>
      </trkpt>
      <trkpt lat="48.52335" lon="2.12948">
        <ele>139</ele>
        <time>2011-04-15T10:14:27Z</time>
      </trkpt>
      <trkpt lat="48.52333" lon="2.12947">
        <ele>139</ele>
        <time>2011-04-15T10:14:28Z</time>
      </trkpt>
      <trkpt lat="48.52332" lon="2.12946">
        <ele>139</ele>
        <time>2011-04-15T10:14:29Z</time>
      </trkpt>
      <trkpt lat="48.52331" lon="2.12945">
        <ele>139</ele>
        <time>2011-04-15T10:14:30Z</time>
      </trkpt>
      <trkpt lat="48.5233" lon="2.12944">
        <ele>139</ele>
        <time>2011-04-15T10:14:31Z</time>
      </trkpt>
      <trkpt lat="48.52328" lon="2.12943">
        <ele>139</ele>
        <time>2011-04-15T10:14:32Z</time>
      </trkpt>
      <trkpt lat="48.52327" lon="2.12942">
        <ele>139</ele>
        <time>2011-04-15T10:14:33Z</time>
      </trkpt>
      <trkpt lat="48.52326" lon="2.1294">
        <ele>139</ele>
        <time>2011-04-15T10:14:34Z</time>
      </trkpt>
      <trkpt lat="48.52323" lon="2.12938">
        <ele>139</ele>
        <time>2011-04-15T10:14:36Z</time>
      </trkpt>
      <trkpt lat="48.52321" lon="2.12938">
        <ele>139</ele>
        <time>2011-04-15T10:14:37Z</time>
      </trkpt>
      <trkpt lat="48.5232" lon="2.12937">
        <ele>139</ele>
        <time>2011-04-15T10:14:38Z</time>
      </trkpt>
      <trkpt lat="48.52318" lon="2.12936">
        <ele>139</ele>
        <time>2011-04-15T10:14:39Z</time>
      </trkpt>
      <trkpt lat="48.52317" lon="2.12935">
        <ele>140</ele>
        <time>2011-04-15T10:14:40Z</time>
      </trkpt>
      <trkpt lat="48.52316" lon="2.12934">
        <ele>140</ele>
        <time>2011-04-15T10:14:41Z</time>
      </trkpt>
      <trkpt lat="48.52314" lon="2.12933">
        <ele>140</ele>
        <time>2011-04-15T10:14:42Z</time>
      </trkpt>
      <trkpt lat="48.52312" lon="2.12932">
        <ele>140</ele>
        <time>2011-04-15T10:14:43Z</time>
      </trkpt>
      <trkpt lat="48.52311" lon="2.12931">
        <ele>140</ele>
        <time>2011-04-15T10:14:44Z</time>
      </trkpt>
      <trkpt lat="48.52309" lon="2.1293">
        <ele>140</ele>
        <time>2011-04-15T10:14:45Z</time>
      </trkpt>
      <trkpt lat="48.52307" lon="2.1293">
        <ele>141</ele>
        <time>2011-04-15T10:14:46Z</time>
      </trkpt>
      <trkpt lat="48.52306" lon="2.12929">
        <ele>141</ele>
        <time>2011-04-15T10:14:47Z</time>
      </trkpt>
      <trkpt lat="48.52305" lon="2.12927">
        <ele>141</ele>
        <time>2011-04-15T10:14:48Z</time>
      </trkpt>
      <trkpt lat="48.52303" lon="2.12926">
        <ele>142</ele>
        <time>2011-04-15T10:14:49Z</time>
      </trkpt>
      <trkpt lat="48.52302" lon="2.12925">
        <ele>142</ele>
        <time>2011-04-15T10:14:50Z</time>
      </trkpt>
      <trkpt lat="48.52301" lon="2.12922">
        <ele>142</ele>
        <time>2011-04-15T10:14:52Z</time>
      </trkpt>
      <trkpt lat="48.52299" lon="2.1292">
        <ele>142</ele>
        <time>2011-04-15T10:14:53Z</time>
      </trkpt>
      <trkpt lat="48.52298" lon="2.12918">
        <ele>142</ele>
        <time>2011-04-15T10:14:54Z</time>
      </trkpt>
      <trkpt lat="48.52297" lon="2.12914">
        <ele>142</ele>
        <time>2011-04-15T10:14:56Z</time>
      </trkpt>
      <trkpt lat="48.52296" lon="2.12912">
        <ele>142</ele>
        <time>2011-04-15T10:14:57Z</time>
      </trkpt>
      <trkpt lat="48.52296" lon="2.12911">
        <ele>142</ele>
        <time>2011-04-15T10:14:58Z</time>
      </trkpt>
      <trkpt lat="48.52295" lon="2.12907">
        <ele>142</ele>
        <time>2011-04-15T10:15:00Z</time>
      </trkpt>
      <trkpt lat="48.52294" lon="2.12905">
        <ele>142</ele>
        <time>2011-04-15T10:15:01Z</time>
      </trkpt>
      <trkpt lat="48.52294" lon="2.12904">
        <ele>142</ele>
        <time>2011-04-15T10:15:02Z</time>
      </trkpt>
      <trkpt lat="48.52293" lon="2.12902">
        <ele>142</ele>
        <time>2011-04-15T10:15:03Z</time>
      </trkpt>
      <trkpt lat="48.52292" lon="2.12899">
        <ele>141</ele>
        <time>2011-04-15T10:15:04Z</time>
      </trkpt>
      <trkpt lat="48.52291" lon="2.12896">
        <ele>141</ele>
        <time>2011-04-15T10:15:05Z</time>
      </trkpt>
      <trkpt lat="48.5229" lon="2.12894">
        <ele>141</ele>
        <time>2011-04-15T10:15:06Z</time>
      </trkpt>
      <trkpt lat="48.5229" lon="2.12891">
        <ele>140</ele>
        <time>2011-04-15T10:15:07Z</time>
      </trkpt>
      <trkpt lat="48.5229" lon="2.12888">
        <ele>140</ele>
        <time>2011-04-15T10:15:08Z</time>
      </trkpt>
      <trkpt lat="48.5229" lon="2.12886">
        <ele>140</ele>
        <time>2011-04-15T10:15:09Z</time>
      </trkpt>
      <trkpt lat="48.52289" lon="2.12883">
        <ele>140</ele>
        <time>2011-04-15T10:15:10Z</time>
      </trkpt>
      <trkpt lat="48.52289" lon="2.12881">
        <ele>140</ele>
        <time>2011-04-15T10:15:11Z</time>
      </trkpt>
      <trkpt lat="48.52288" lon="2.12879">
        <ele>140</ele>
        <time>2011-04-15T10:15:12Z</time>
      </trkpt>
      <trkpt lat="48.52288" lon="2.12877">
        <ele>140</ele>
        <time>2011-04-15T10:15:13Z</time>
      </trkpt>
      <trkpt lat="48.52288" lon="2.12874">
        <ele>140</ele>
        <time>2011-04-15T10:15:14Z</time>
      </trkpt>
      <trkpt lat="48.52287" lon="2.12871">
        <ele>140</ele>
        <time>2011-04-15T10:15:15Z</time>
      </trkpt>
      <trkpt lat="48.52287" lon="2.12868">
        <ele>140</ele>
        <time>2011-04-15T10:15:16Z</time>
      </trkpt>
      <trkpt lat="48.52286" lon="2.12866">
        <ele>140</ele>
        <time>2011-04-15T10:15:17Z</time>
      </trkpt>
      <trkpt lat="48.52286" lon="2.12864">
        <ele>140</ele>
        <time>2011-04-15T10:15:18Z</time>
      </trkpt>
      <trkpt lat="48.52286" lon="2.12861">
        <ele>140</ele>
        <time>2011-04-15T10:15:19Z</time>
      </trkpt>
      <trkpt lat="48.52286" lon="2.12859">
        <ele>140</ele>
        <time>2011-04-15T10:15:20Z</time>
      </trkpt>
      <trkpt lat="48.52286" lon="2.12857">
        <ele>140</ele>
        <time>2011-04-15T10:15:21Z</time>
      </trkpt>
      <trkpt lat="48.52286" lon="2.12854">
        <ele>140</ele>
        <time>2011-04-15T10:15:22Z</time>
      </trkpt>
      <trkpt lat="48.52286" lon="2.12852">
        <ele>140</ele>
        <time>2011-04-15T10:15:23Z</time>
      </trkpt>
      <trkpt lat="48.52286" lon="2.12849">
        <ele>140</ele>
        <time>2011-04-15T10:15:24Z</time>
      </trkpt>
      <trkpt lat="48.52286" lon="2.12847">
        <ele>140</ele>
        <time>2011-04-15T10:15:25Z</time>
      </trkpt>
      <trkpt lat="48.52286" lon="2.12845">
        <ele>140</ele>
        <time>2011-04-15T10:15:26Z</time>
      </trkpt>
      <trkpt lat="48.52286" lon="2.12843">
        <ele>140</ele>
        <time>2011-04-15T10:15:27Z</time>
      </trkpt>
      <trkpt lat="48.52286" lon="2.12841">
        <ele>140</ele>
        <time>2011-04-15T10:15:29Z</time>
      </trkpt>
      <trkpt lat="48.52287" lon="2.12839">
        <ele>140</ele>
        <time>2011-04-15T10:15:29Z</time>
      </trkpt>
      <trkpt lat="48.52287" lon="2.12836">
        <ele>140</ele>
        <time>2011-04-15T10:15:30Z</time>
      </trkpt>
      <trkpt lat="48.52287" lon="2.12833">
        <ele>140</ele>
        <time>2011-04-15T10:15:31Z</time>
      </trkpt>
      <trkpt lat="48.52288" lon="2.12831">
        <ele>139</ele>
        <time>2011-04-15T10:15:32Z</time>
      </trkpt>
      <trkpt lat="48.52288" lon="2.12829">
        <ele>139</ele>
        <time>2011-04-15T10:15:33Z</time>
      </trkpt>
      <trkpt lat="48.52289" lon="2.12827">
        <ele>138</ele>
        <time>2011-04-15T10:15:34Z</time>
      </trkpt>
      <trkpt lat="48.52289" lon="2.12824">
        <ele>138</ele>
        <time>2011-04-15T10:15:35Z</time>
      </trkpt>
      <trkpt lat="48.5229" lon="2.12822">
        <ele>138</ele>
        <time>2011-04-15T10:15:36Z</time>
      </trkpt>
      <trkpt lat="48.52289" lon="2.12819">
        <ele>138</ele>
        <time>2011-04-15T10:15:37Z</time>
      </trkpt>
      <trkpt lat="48.52289" lon="2.12816">
        <ele>138</ele>
        <time>2011-04-15T10:15:38Z</time>
      </trkpt>
      <trkpt lat="48.52288" lon="2.12814">
        <ele>138</ele>
        <time>2011-04-15T10:15:39Z</time>
      </trkpt>
      <trkpt lat="48.52288" lon="2.12811">
        <ele>138</ele>
        <time>2011-04-15T10:15:40Z</time>
      </trkpt>
      <trkpt lat="48.52287" lon="2.12808">
        <ele>138</ele>
        <time>2011-04-15T10:15:41Z</time>
      </trkpt>
      <trkpt lat="48.52287" lon="2.12806">
        <ele>138</ele>
        <time>2011-04-15T10:15:42Z</time>
      </trkpt>
      <trkpt lat="48.52287" lon="2.12803">
        <ele>138</ele>
        <time>2011-04-15T10:15:43Z</time>
      </trkpt>
      <trkpt lat="48.52287" lon="2.12801">
        <ele>138</ele>
        <time>2011-04-15T10:15:44Z</time>
      </trkpt>
      <trkpt lat="48.52287" lon="2.12799">
        <ele>138</ele>
        <time>2011-04-15T10:15:45Z</time>
      </trkpt>
      <trkpt lat="48.52287" lon="2.12796">
        <ele>138</ele>
        <time>2011-04-15T10:15:46Z</time>
      </trkpt>
      <trkpt lat="48.52287" lon="2.12794">
        <ele>138</ele>
        <time>2011-04-15T10:15:47Z</time>
      </trkpt>
      <trkpt lat="48.52287" lon="2.12791">
        <ele>138</ele>
        <time>2011-04-15T10:15:48Z</time>
      </trkpt>
      <trkpt lat="48.52288" lon="2.12788">
        <ele>138</ele>
        <time>2011-04-15T10:15:49Z</time>
      </trkpt>
      <trkpt lat="48.52288" lon="2.12785">
        <ele>138</ele>
        <time>2011-04-15T10:15:50Z</time>
      </trkpt>
      <trkpt lat="48.52287" lon="2.12782">
        <ele>138</ele>
        <time>2011-04-15T10:15:51Z</time>
      </trkpt>
      <trkpt lat="48.52287" lon="2.1278">
        <ele>138</ele>
        <time>2011-04-15T10:15:52Z</time>
      </trkpt>
      <trkpt lat="48.52287" lon="2.12777">
        <ele>138</ele>
        <time>2011-04-15T10:15:53Z</time>
      </trkpt>
      <trkpt lat="48.52287" lon="2.12775">
        <ele>138</ele>
        <time>2011-04-15T10:15:54Z</time>
      </trkpt>
      <trkpt lat="48.52287" lon="2.12772">
        <ele>138</ele>
        <time>2011-04-15T10:15:55Z</time>
      </trkpt>
      <trkpt lat="48.52287" lon="2.1277">
        <ele>138</ele>
        <time>2011-04-15T10:15:56Z</time>
      </trkpt>
      <trkpt lat="48.52287" lon="2.12766">
        <ele>138</ele>
        <time>2011-04-15T10:15:57Z</time>
      </trkpt>
      <trkpt lat="48.52287" lon="2.12763">
        <ele>138</ele>
        <time>2011-04-15T10:15:58Z</time>
      </trkpt>
      <trkpt lat="48.52287" lon="2.12761">
        <ele>138</ele>
        <time>2011-04-15T10:15:59Z</time>
      </trkpt>
      <trkpt lat="48.52287" lon="2.12758">
        <ele>138</ele>
        <time>2011-04-15T10:16:00Z</time>
      </trkpt>
      <trkpt lat="48.52287" lon="2.12755">
        <ele>138</ele>
        <time>2011-04-15T10:16:01Z</time>
      </trkpt>
      <trkpt lat="48.52288" lon="2.12753">
        <ele>138</ele>
        <time>2011-04-15T10:16:02Z</time>
      </trkpt>
      <trkpt lat="48.52288" lon="2.12751">
        <ele>138</ele>
        <time>2011-04-15T10:16:03Z</time>
      </trkpt>
      <trkpt lat="48.52288" lon="2.12748">
        <ele>138</ele>
        <time>2011-04-15T10:16:04Z</time>
      </trkpt>
      <trkpt lat="48.52288" lon="2.12746">
        <ele>138</ele>
        <time>2011-04-15T10:16:05Z</time>
      </trkpt>
      <trkpt lat="48.52287" lon="2.12744">
        <ele>138</ele>
        <time>2011-04-15T10:16:06Z</time>
      </trkpt>
      <trkpt lat="48.52287" lon="2.12742">
        <ele>138</ele>
        <time>2011-04-15T10:16:07Z</time>
      </trkpt>
      <trkpt lat="48.52286" lon="2.1274">
        <ele>138</ele>
        <time>2011-04-15T10:16:08Z</time>
      </trkpt>
      <trkpt lat="48.52286" lon="2.12737">
        <ele>138</ele>
        <time>2011-04-15T10:16:09Z</time>
      </trkpt>
      <trkpt lat="48.52285" lon="2.12735">
        <ele>138</ele>
        <time>2011-04-15T10:16:10Z</time>
      </trkpt>
      <trkpt lat="48.52285" lon="2.12733">
        <ele>138</ele>
        <time>2011-04-15T10:16:11Z</time>
      </trkpt>
      <trkpt lat="48.52285" lon="2.1273">
        <ele>138</ele>
        <time>2011-04-15T10:16:12Z</time>
      </trkpt>
      <trkpt lat="48.52285" lon="2.12728">
        <ele>138</ele>
        <time>2011-04-15T10:16:13Z</time>
      </trkpt>
      <trkpt lat="48.52285" lon="2.12726">
        <ele>138</ele>
        <time>2011-04-15T10:16:14Z</time>
      </trkpt>
      <trkpt lat="48.52285" lon="2.12724">
        <ele>138</ele>
        <time>2011-04-15T10:16:15Z</time>
      </trkpt>
      <trkpt lat="48.52286" lon="2.12722">
        <ele>138</ele>
        <time>2011-04-15T10:16:16Z</time>
      </trkpt>
      <trkpt lat="48.52286" lon="2.12719">
        <ele>138</ele>
        <time>2011-04-15T10:16:17Z</time>
      </trkpt>
      <trkpt lat="48.52286" lon="2.12716">
        <ele>138</ele>
        <time>2011-04-15T10:16:18Z</time>
      </trkpt>
      <trkpt lat="48.52286" lon="2.12714">
        <ele>138</ele>
        <time>2011-04-15T10:16:19Z</time>
      </trkpt>
      <trkpt lat="48.52285" lon="2.12711">
        <ele>138</ele>
        <time>2011-04-15T10:16:20Z</time>
      </trkpt>
      <trkpt lat="48.52285" lon="2.12708">
        <ele>138</ele>
        <time>2011-04-15T10:16:21Z</time>
      </trkpt>
      <trkpt lat="48.52284" lon="2.12706">
        <ele>138</ele>
        <time>2011-04-15T10:16:22Z</time>
      </trkpt>
      <trkpt lat="48.52284" lon="2.12703">
        <ele>138</ele>
        <time>2011-04-15T10:16:23Z</time>
      </trkpt>
      <trkpt lat="48.52283" lon="2.127">
        <ele>138</ele>
        <time>2011-04-15T10:16:24Z</time>
      </trkpt>
      <trkpt lat="48.52283" lon="2.12698">
        <ele>138</ele>
        <time>2011-04-15T10:16:25Z</time>
      </trkpt>
      <trkpt lat="48.52282" lon="2.12695">
        <ele>138</ele>
        <time>2011-04-15T10:16:26Z</time>
      </trkpt>
      <trkpt lat="48.52281" lon="2.12692">
        <ele>138</ele>
        <time>2011-04-15T10:16:27Z</time>
      </trkpt>
      <trkpt lat="48.5228" lon="2.12689">
        <ele>138</ele>
        <time>2011-04-15T10:16:28Z</time>
      </trkpt>
      <trkpt lat="48.5228" lon="2.12686">
        <ele>138</ele>
        <time>2011-04-15T10:16:29Z</time>
      </trkpt>
      <trkpt lat="48.52279" lon="2.12684">
        <ele>138</ele>
        <time>2011-04-15T10:16:30Z</time>
      </trkpt>
      <trkpt lat="48.52279" lon="2.12682">
        <ele>138</ele>
        <time>2011-04-15T10:16:31Z</time>
      </trkpt>
      <trkpt lat="48.52278" lon="2.1268">
        <ele>138</ele>
        <time>2011-04-15T10:16:32Z</time>
      </trkpt>
      <trkpt lat="48.52277" lon="2.12678">
        <ele>138</ele>
        <time>2011-04-15T10:16:33Z</time>
      </trkpt>
      <trkpt lat="48.52276" lon="2.12676">
        <ele>138</ele>
        <time>2011-04-15T10:16:34Z</time>
      </trkpt>
      <trkpt lat="48.52275" lon="2.12673">
        <ele>138</ele>
        <time>2011-04-15T10:16:35Z</time>
      </trkpt>
      <trkpt lat="48.52274" lon="2.12671">
        <ele>138</ele>
        <time>2011-04-15T10:16:36Z</time>
      </trkpt>
      <trkpt lat="48.52274" lon="2.12669">
        <ele>138</ele>
        <time>2011-04-15T10:16:37Z</time>
      </trkpt>
      <trkpt lat="48.52273" lon="2.12667">
        <ele>138</ele>
        <time>2011-04-15T10:16:38Z</time>
      </trkpt>
      <trkpt lat="48.52272" lon="2.12665">
        <ele>138</ele>
        <time>2011-04-15T10:16:39Z</time>
      </trkpt>
      <trkpt lat="48.52271" lon="2.12663">
        <ele>138</ele>
        <time>2011-04-15T10:16:40Z</time>
      </trkpt>
      <trkpt lat="48.5227" lon="2.12661">
        <ele>138</ele>
        <time>2011-04-15T10:16:41Z</time>
      </trkpt>
      <trkpt lat="48.52269" lon="2.12659">
        <ele>138</ele>
        <time>2011-04-15T10:16:42Z</time>
      </trkpt>
      <trkpt lat="48.52268" lon="2.12657">
        <ele>138</ele>
        <time>2011-04-15T10:16:43Z</time>
      </trkpt>
      <trkpt lat="48.52267" lon="2.12655">
        <ele>138</ele>
        <time>2011-04-15T10:16:44Z</time>
      </trkpt>
      <trkpt lat="48.52266" lon="2.12653">
        <ele>138</ele>
        <time>2011-04-15T10:16:45Z</time>
      </trkpt>
      <trkpt lat="48.52265" lon="2.1265">
        <ele>138</ele>
        <time>2011-04-15T10:16:46Z</time>
      </trkpt>
      <trkpt lat="48.52265" lon="2.12648">
        <ele>138</ele>
        <time>2011-04-15T10:16:47Z</time>
      </trkpt>
      <trkpt lat="48.52264" lon="2.12646">
        <ele>138</ele>
        <time>2011-04-15T10:16:48Z</time>
      </trkpt>
      <trkpt lat="48.52263" lon="2.12645">
        <ele>138</ele>
        <time>2011-04-15T10:16:49Z</time>
      </trkpt>
      <trkpt lat="48.52262" lon="2.12643">
        <ele>138</ele>
        <time>2011-04-15T10:16:50Z</time>
      </trkpt>
      <trkpt lat="48.52261" lon="2.12641">
        <ele>138</ele>
        <time>2011-04-15T10:16:51Z</time>
      </trkpt>
      <trkpt lat="48.5226" lon="2.12639">
        <ele>138</ele>
        <time>2011-04-15T10:16:52Z</time>
      </trkpt>
      <trkpt lat="48.5226" lon="2.12637">
        <ele>138</ele>
        <time>2011-04-15T10:16:53Z</time>
      </trkpt>
      <trkpt lat="48.52259" lon="2.12635">
        <ele>138</ele>
        <time>2011-04-15T10:16:54Z</time>
      </trkpt>
      <trkpt lat="48.52257" lon="2.12634">
        <ele>138</ele>
        <time>2011-04-15T10:16:55Z</time>
      </trkpt>
      <trkpt lat="48.52256" lon="2.12632">
        <ele>138</ele>
        <time>2011-04-15T10:16:56Z</time>
      </trkpt>
      <trkpt lat="48.52256" lon="2.12629">
        <ele>138</ele>
        <time>2011-04-15T10:16:58Z</time>
      </trkpt>
      <trkpt lat="48.52255" lon="2.12627">
        <ele>138</ele>
        <time>2011-04-15T10:16:59Z</time>
      </trkpt>
      <trkpt lat="48.52255" lon="2.12625">
        <ele>138</ele>
        <time>2011-04-15T10:17:00Z</time>
      </trkpt>
      <trkpt lat="48.52254" lon="2.12623">
        <ele>138</ele>
        <time>2011-04-15T10:17:01Z</time>
      </trkpt>
      <trkpt lat="48.52253" lon="2.12621">
        <ele>138</ele>
        <time>2011-04-15T10:17:02Z</time>
      </trkpt>
      <trkpt lat="48.52252" lon="2.12619">
        <ele>138</ele>
        <time>2011-04-15T10:17:03Z</time>
      </trkpt>
      <trkpt lat="48.52252" lon="2.12617">
        <ele>138</ele>
        <time>2011-04-15T10:17:04Z</time>
      </trkpt>
      <trkpt lat="48.52251" lon="2.12615">
        <ele>138</ele>
        <time>2011-04-15T10:17:05Z</time>
      </trkpt>
      <trkpt lat="48.5225" lon="2.12614">
        <ele>138</ele>
        <time>2011-04-15T10:17:06Z</time>
      </trkpt>
      <trkpt lat="48.52248" lon="2.12612">
        <ele>138</ele>
        <time>2011-04-15T10:17:07Z</time>
      </trkpt>
      <trkpt lat="48.52247" lon="2.1261">
        <ele>138</ele>
        <time>2011-04-15T10:17:08Z</time>
      </trkpt>
      <trkpt lat="48.52247" lon="2.12608">
        <ele>138</ele>
        <time>2011-04-15T10:17:09Z</time>
      </trkpt>
      <trkpt lat="48.52246" lon="2.12606">
        <ele>138</ele>
        <time>2011-04-15T10:17:10Z</time>
      </trkpt>
      <trkpt lat="48.52245" lon="2.12604">
        <ele>138</ele>
        <time>2011-04-15T10:17:11Z</time>
      </trkpt>
      <trkpt lat="48.52245" lon="2.12602">
        <ele>138</ele>
        <time>2011-04-15T10:17:12Z</time>
      </trkpt>
      <trkpt lat="48.52244" lon="2.126">
        <ele>138</ele>
        <time>2011-04-15T10:17:13Z</time>
      </trkpt>
      <trkpt lat="48.52243" lon="2.12598">
        <ele>138</ele>
        <time>2011-04-15T10:17:14Z</time>
      </trkpt>
      <trkpt lat="48.52242" lon="2.12596">
        <ele>138</ele>
        <time>2011-04-15T10:17:15Z</time>
      </trkpt>
      <trkpt lat="48.52242" lon="2.12594">
        <ele>138</ele>
        <time>2011-04-15T10:17:16Z</time>
      </trkpt>
      <trkpt lat="48.52241" lon="2.12592">
        <ele>138</ele>
        <time>2011-04-15T10:17:17Z</time>
      </trkpt>
      <trkpt lat="48.5224" lon="2.1259">
        <ele>138</ele>
        <time>2011-04-15T10:17:18Z</time>
      </trkpt>
      <trkpt lat="48.52239" lon="2.12588">
        <ele>138</ele>
        <time>2011-04-15T10:17:19Z</time>
      </trkpt>
      <trkpt lat="48.52238" lon="2.12586">
        <ele>138</ele>
        <time>2011-04-15T10:17:20Z</time>
      </trkpt>
      <trkpt lat="48.52237" lon="2.12584">
        <ele>138</ele>
        <time>2011-04-15T10:17:21Z</time>
      </trkpt>
      <trkpt lat="48.52237" lon="2.12581">
        <ele>138</ele>
        <time>2011-04-15T10:17:22Z</time>
      </trkpt>
      <trkpt lat="48.52236" lon="2.12579">
        <ele>138</ele>
        <time>2011-04-15T10:17:23Z</time>
      </trkpt>
      <trkpt lat="48.52235" lon="2.12577">
        <ele>138</ele>
        <time>2011-04-15T10:17:24Z</time>
      </trkpt>
      <trkpt lat="48.52233" lon="2.12575">
        <ele>138</ele>
        <time>2011-04-15T10:17:26Z</time>
      </trkpt>
      <trkpt lat="48.52231" lon="2.12574">
        <ele>138</ele>
        <time>2011-04-15T10:17:27Z</time>
      </trkpt>
      <trkpt lat="48.52229" lon="2.12574">
        <ele>138</ele>
        <time>2011-04-15T10:17:29Z</time>
      </trkpt>
      <trkpt lat="48.52228" lon="2.12574">
        <ele>138</ele>
        <time>2011-04-15T10:17:31Z</time>
      </trkpt>
      <trkpt lat="48.52226" lon="2.12574">
        <ele>138</ele>
        <time>2011-04-15T10:17:34Z</time>
      </trkpt>
      <trkpt lat="48.52226" lon="2.12576">
        <ele>138</ele>
        <time>2011-04-15T10:17:36Z</time>
      </trkpt>
      <trkpt lat="48.52228" lon="2.12577">
        <ele>138</ele>
        <time>2011-04-15T10:17:38Z</time>
      </trkpt>
      <trkpt lat="48.52229" lon="2.12575">
        <ele>138</ele>
        <time>2011-04-15T10:17:43Z</time>
      </trkpt>
      <trkpt lat="48.52227" lon="2.12573">
        <ele>138</ele>
        <time>2011-04-15T10:17:51Z</time>
      </trkpt>
      <trkpt lat="48.52227" lon="2.12571">
        <ele>138</ele>
        <time>2011-04-15T10:17:52Z</time>
      </trkpt>
      <trkpt lat="48.52226" lon="2.12569">
        <ele>138</ele>
        <time>2011-04-15T10:17:53Z</time>
      </trkpt>
      <trkpt lat="48.52225" lon="2.12567">
        <ele>138</ele>
        <time>2011-04-15T10:17:54Z</time>
      </trkpt>
      <trkpt lat="48.52224" lon="2.12565">
        <ele>138</ele>
        <time>2011-04-15T10:17:55Z</time>
      </trkpt>
      <trkpt lat="48.52222" lon="2.12563">
        <ele>138</ele>
        <time>2011-04-15T10:17:57Z</time>
      </trkpt>
      <trkpt lat="48.52221" lon="2.12561">
        <ele>138</ele>
        <time>2011-04-15T10:17:58Z</time>
      </trkpt>
      <trkpt lat="48.52219" lon="2.12558">
        <ele>138</ele>
        <time>2011-04-15T10:18:00Z</time>
      </trkpt>
      <trkpt lat="48.52218" lon="2.12556">
        <ele>138</ele>
        <time>2011-04-15T10:18:01Z</time>
      </trkpt>
      <trkpt lat="48.52216" lon="2.12553">
        <ele>138</ele>
        <time>2011-04-15T10:18:03Z</time>
      </trkpt>
      <trkpt lat="48.52215" lon="2.12551">
        <ele>138</ele>
        <time>2011-04-15T10:18:05Z</time>
      </trkpt>
      <trkpt lat="48.52214" lon="2.12549">
        <ele>138</ele>
        <time>2011-04-15T10:18:06Z</time>
      </trkpt>
      <trkpt lat="48.52213" lon="2.12547">
        <ele>138</ele>
        <time>2011-04-15T10:18:07Z</time>
      </trkpt>
      <trkpt lat="48.52212" lon="2.12546">
        <ele>138</ele>
        <time>2011-04-15T10:18:08Z</time>
      </trkpt>
      <trkpt lat="48.52211" lon="2.12544">
        <ele>138</ele>
        <time>2011-04-15T10:18:09Z</time>
      </trkpt>
      <trkpt lat="48.5221" lon="2.12542">
        <ele>138</ele>
        <time>2011-04-15T10:18:10Z</time>
      </trkpt>
      <trkpt lat="48.52209" lon="2.1254">
        <ele>138</ele>
        <time>2011-04-15T10:18:11Z</time>
      </trkpt>
      <trkpt lat="48.52208" lon="2.12538">
        <ele>138</ele>
        <time>2011-04-15T10:18:12Z</time>
      </trkpt>
      <trkpt lat="48.52207" lon="2.12536">
        <ele>138</ele>
        <time>2011-04-15T10:18:13Z</time>
      </trkpt>
      <trkpt lat="48.52206" lon="2.12535">
        <ele>138</ele>
        <time>2011-04-15T10:18:14Z</time>
      </trkpt>
      <trkpt lat="48.52204" lon="2.12533">
        <ele>138</ele>
        <time>2011-04-15T10:18:15Z</time>
      </trkpt>
      <trkpt lat="48.52203" lon="2.12531">
        <ele>138</ele>
        <time>2011-04-15T10:18:16Z</time>
      </trkpt>
      <trkpt lat="48.52202" lon="2.1253">
        <ele>138</ele>
        <time>2011-04-15T10:18:17Z</time>
      </trkpt>
      <trkpt lat="48.52201" lon="2.12529">
        <ele>138</ele>
        <time>2011-04-15T10:18:18Z</time>
      </trkpt>
      <trkpt lat="48.52199" lon="2.12527">
        <ele>138</ele>
        <time>2011-04-15T10:18:19Z</time>
      </trkpt>
      <trkpt lat="48.52198" lon="2.12526">
        <ele>138</ele>
        <time>2011-04-15T10:18:20Z</time>
      </trkpt>
      <trkpt lat="48.52197" lon="2.12522">
        <ele>138</ele>
        <time>2011-04-15T10:18:22Z</time>
      </trkpt>
      <trkpt lat="48.52197" lon="2.1252">
        <ele>138</ele>
        <time>2011-04-15T10:18:23Z</time>
      </trkpt>
      <trkpt lat="48.52196" lon="2.12519">
        <ele>138</ele>
        <time>2011-04-15T10:18:24Z</time>
      </trkpt>
      <trkpt lat="48.52193" lon="2.12516">
        <ele>138</ele>
        <time>2011-04-15T10:18:26Z</time>
      </trkpt>
      <trkpt lat="48.52192" lon="2.12514">
        <ele>138</ele>
        <time>2011-04-15T10:18:27Z</time>
      </trkpt>
      <trkpt lat="48.52191" lon="2.12512">
        <ele>138</ele>
        <time>2011-04-15T10:18:28Z</time>
      </trkpt>
      <trkpt lat="48.5219" lon="2.1251">
        <ele>138</ele>
        <time>2011-04-15T10:18:29Z</time>
      </trkpt>
      <trkpt lat="48.5219" lon="2.12509">
        <ele>138</ele>
        <time>2011-04-15T10:18:30Z</time>
      </trkpt>
      <trkpt lat="48.52188" lon="2.12507">
        <ele>138</ele>
        <time>2011-04-15T10:18:31Z</time>
      </trkpt>
      <trkpt lat="48.52187" lon="2.12506">
        <ele>138</ele>
        <time>2011-04-15T10:18:32Z</time>
      </trkpt>
      <trkpt lat="48.52186" lon="2.12504">
        <ele>138</ele>
        <time>2011-04-15T10:18:33Z</time>
      </trkpt>
      <trkpt lat="48.52184" lon="2.12501">
        <ele>138</ele>
        <time>2011-04-15T10:18:35Z</time>
      </trkpt>
      <trkpt lat="48.52183" lon="2.12499">
        <ele>138</ele>
        <time>2011-04-15T10:18:36Z</time>
      </trkpt>
      <trkpt lat="48.52182" lon="2.12498">
        <ele>138</ele>
        <time>2011-04-15T10:18:37Z</time>
      </trkpt>
      <trkpt lat="48.52182" lon="2.12496">
        <ele>138</ele>
        <time>2011-04-15T10:18:38Z</time>
      </trkpt>
      <trkpt lat="48.52179" lon="2.12492">
        <ele>138</ele>
        <time>2011-04-15T10:18:40Z</time>
      </trkpt>
      <trkpt lat="48.52178" lon="2.12491">
        <ele>138</ele>
        <time>2011-04-15T10:18:41Z</time>
      </trkpt>
      <trkpt lat="48.52177" lon="2.12489">
        <ele>138</ele>
        <time>2011-04-15T10:18:42Z</time>
      </trkpt>
      <trkpt lat="48.52175" lon="2.12486">
        <ele>138</ele>
        <time>2011-04-15T10:18:44Z</time>
      </trkpt>
      <trkpt lat="48.52174" lon="2.12485">
        <ele>138</ele>
        <time>2011-04-15T10:18:45Z</time>
      </trkpt>
      <trkpt lat="48.52173" lon="2.12483">
        <ele>138</ele>
        <time>2011-04-15T10:18:46Z</time>
      </trkpt>
      <trkpt lat="48.52172" lon="2.12481">
        <ele>138</ele>
        <time>2011-04-15T10:18:47Z</time>
      </trkpt>
      <trkpt lat="48.5217" lon="2.12479">
        <ele>138</ele>
        <time>2011-04-15T10:18:48Z</time>
      </trkpt>
      <trkpt lat="48.52169" lon="2.12478">
        <ele>138</ele>
        <time>2011-04-15T10:18:49Z</time>
      </trkpt>
      <trkpt lat="48.52167" lon="2.12474">
        <ele>138</ele>
        <time>2011-04-15T10:18:51Z</time>
      </trkpt>
      <trkpt lat="48.52165" lon="2.12471">
        <ele>138</ele>
        <time>2011-04-15T10:18:53Z</time>
      </trkpt>
      <trkpt lat="48.52164" lon="2.12469">
        <ele>138</ele>
        <time>2011-04-15T10:18:54Z</time>
      </trkpt>
      <trkpt lat="48.52163" lon="2.12467">
        <ele>138</ele>
        <time>2011-04-15T10:18:55Z</time>
      </trkpt>
      <trkpt lat="48.52162" lon="2.12466">
        <ele>138</ele>
        <time>2011-04-15T10:18:56Z</time>
      </trkpt>
      <trkpt lat="48.52161" lon="2.12464">
        <ele>138</ele>
        <time>2011-04-15T10:18:57Z</time>
      </trkpt>
      <trkpt lat="48.52159" lon="2.1246">
        <ele>138</ele>
        <time>2011-04-15T10:18:59Z</time>
      </trkpt>
      <trkpt lat="48.52158" lon="2.12459">
        <ele>138</ele>
        <time>2011-04-15T10:19:00Z</time>
      </trkpt>
      <trkpt lat="48.52156" lon="2.12457">
        <ele>138</ele>
        <time>2011-04-15T10:19:01Z</time>
      </trkpt>
      <trkpt lat="48.52155" lon="2.12455">
        <ele>138</ele>
        <time>2011-04-15T10:19:02Z</time>
      </trkpt>
      <trkpt lat="48.52154" lon="2.12453">
        <ele>138</ele>
        <time>2011-04-15T10:19:03Z</time>
      </trkpt>
      <trkpt lat="48.52153" lon="2.12452">
        <ele>138</ele>
        <time>2011-04-15T10:19:04Z</time>
      </trkpt>
      <trkpt lat="48.52152" lon="2.1245">
        <ele>138</ele>
        <time>2011-04-15T10:19:05Z</time>
      </trkpt>
      <trkpt lat="48.5215" lon="2.12449">
        <ele>138</ele>
        <time>2011-04-15T10:19:06Z</time>
      </trkpt>
      <trkpt lat="48.52149" lon="2.12447">
        <ele>138</ele>
        <time>2011-04-15T10:19:07Z</time>
      </trkpt>
      <trkpt lat="48.52148" lon="2.12446">
        <ele>138</ele>
        <time>2011-04-15T10:19:08Z</time>
      </trkpt>
      <trkpt lat="48.52147" lon="2.12445">
        <ele>138</ele>
        <time>2011-04-15T10:19:09Z</time>
      </trkpt>
      <trkpt lat="48.52145" lon="2.12444">
        <ele>138</ele>
        <time>2011-04-15T10:19:10Z</time>
      </trkpt>
      <trkpt lat="48.52144" lon="2.12442">
        <ele>138</ele>
        <time>2011-04-15T10:19:11Z</time>
      </trkpt>
      <trkpt lat="48.52142" lon="2.12439">
        <ele>138</ele>
        <time>2011-04-15T10:19:13Z</time>
      </trkpt>
      <trkpt lat="48.52141" lon="2.12438">
        <ele>138</ele>
        <time>2011-04-15T10:19:14Z</time>
      </trkpt>
      <trkpt lat="48.52139" lon="2.12436">
        <ele>138</ele>
        <time>2011-04-15T10:19:15Z</time>
      </trkpt>
      <trkpt lat="48.52138" lon="2.12435">
        <ele>138</ele>
        <time>2011-04-15T10:19:16Z</time>
      </trkpt>
      <trkpt lat="48.52137" lon="2.12433">
        <ele>138</ele>
        <time>2011-04-15T10:19:17Z</time>
      </trkpt>
      <trkpt lat="48.52136" lon="2.12432">
        <ele>138</ele>
        <time>2011-04-15T10:19:18Z</time>
      </trkpt>
      <trkpt lat="48.52134" lon="2.1243">
        <ele>138</ele>
        <time>2011-04-15T10:19:19Z</time>
      </trkpt>
      <trkpt lat="48.52133" lon="2.12428">
        <ele>138</ele>
        <time>2011-04-15T10:19:20Z</time>
      </trkpt>
      <trkpt lat="48.52132" lon="2.12427">
        <ele>138</ele>
        <time>2011-04-15T10:19:21Z</time>
      </trkpt>
      <trkpt lat="48.52131" lon="2.12426">
        <ele>138</ele>
        <time>2011-04-15T10:19:22Z</time>
      </trkpt>
      <trkpt lat="48.52129" lon="2.12424">
        <ele>138</ele>
        <time>2011-04-15T10:19:23Z</time>
      </trkpt>
      <trkpt lat="48.52128" lon="2.12423">
        <ele>138</ele>
        <time>2011-04-15T10:19:24Z</time>
      </trkpt>
      <trkpt lat="48.52127" lon="2.12421">
        <ele>138</ele>
        <time>2011-04-15T10:19:25Z</time>
      </trkpt>
      <trkpt lat="48.52125" lon="2.1242">
        <ele>138</ele>
        <time>2011-04-15T10:19:26Z</time>
      </trkpt>
      <trkpt lat="48.52124" lon="2.12418">
        <ele>138</ele>
        <time>2011-04-15T10:19:27Z</time>
      </trkpt>
      <trkpt lat="48.52123" lon="2.12417">
        <ele>138</ele>
        <time>2011-04-15T10:19:28Z</time>
      </trkpt>
      <trkpt lat="48.52122" lon="2.12416">
        <ele>138</ele>
        <time>2011-04-15T10:19:29Z</time>
      </trkpt>
      <trkpt lat="48.5212" lon="2.12414">
        <ele>138</ele>
        <time>2011-04-15T10:19:30Z</time>
      </trkpt>
      <trkpt lat="48.52119" lon="2.12413">
        <ele>138</ele>
        <time>2011-04-15T10:19:31Z</time>
      </trkpt>
      <trkpt lat="48.52118" lon="2.12412">
        <ele>138</ele>
        <time>2011-04-15T10:19:32Z</time>
      </trkpt>
      <trkpt lat="48.52116" lon="2.1241">
        <ele>138</ele>
        <time>2011-04-15T10:19:33Z</time>
      </trkpt>
      <trkpt lat="48.52115" lon="2.12409">
        <ele>138</ele>
        <time>2011-04-15T10:19:34Z</time>
      </trkpt>
      <trkpt lat="48.52114" lon="2.12408">
        <ele>138</ele>
        <time>2011-04-15T10:19:35Z</time>
      </trkpt>
      <trkpt lat="48.52112" lon="2.12407">
        <ele>138</ele>
        <time>2011-04-15T10:19:36Z</time>
      </trkpt>
      <trkpt lat="48.5211" lon="2.12406">
        <ele>138</ele>
        <time>2011-04-15T10:19:37Z</time>
      </trkpt>
      <trkpt lat="48.52109" lon="2.12405">
        <ele>138</ele>
        <time>2011-04-15T10:19:38Z</time>
      </trkpt>
      <trkpt lat="48.52108" lon="2.12404">
        <ele>138</ele>
        <time>2011-04-15T10:19:39Z</time>
      </trkpt>
      <trkpt lat="48.52106" lon="2.12403">
        <ele>138</ele>
        <time>2011-04-15T10:19:40Z</time>
      </trkpt>
      <trkpt lat="48.52105" lon="2.12402">
        <ele>138</ele>
        <time>2011-04-15T10:19:41Z</time>
      </trkpt>
      <trkpt lat="48.52103" lon="2.12402">
        <ele>138</ele>
        <time>2011-04-15T10:19:42Z</time>
      </trkpt>
      <trkpt lat="48.52102" lon="2.12401">
        <ele>138</ele>
        <time>2011-04-15T10:19:43Z</time>
      </trkpt>
      <trkpt lat="48.521" lon="2.124">
        <ele>138</ele>
        <time>2011-04-15T10:19:44Z</time>
      </trkpt>
      <trkpt lat="48.52099" lon="2.12399">
        <ele>138</ele>
        <time>2011-04-15T10:19:45Z</time>
      </trkpt>
      <trkpt lat="48.52097" lon="2.12398">
        <ele>138</ele>
        <time>2011-04-15T10:19:46Z</time>
      </trkpt>
      <trkpt lat="48.52096" lon="2.12397">
        <ele>138</ele>
        <time>2011-04-15T10:19:47Z</time>
      </trkpt>
      <trkpt lat="48.52094" lon="2.12396">
        <ele>138</ele>
        <time>2011-04-15T10:19:48Z</time>
      </trkpt>
      <trkpt lat="48.52092" lon="2.12396">
        <ele>138</ele>
        <time>2011-04-15T10:19:49Z</time>
      </trkpt>
      <trkpt lat="48.5209" lon="2.12395">
        <ele>138</ele>
        <time>2011-04-15T10:19:50Z</time>
      </trkpt>
      <trkpt lat="48.52088" lon="2.12394">
        <ele>138</ele>
        <time>2011-04-15T10:19:51Z</time>
      </trkpt>
      <trkpt lat="48.52085" lon="2.12394">
        <ele>138</ele>
        <time>2011-04-15T10:19:52Z</time>
      </trkpt>
      <trkpt lat="48.52084" lon="2.12394">
        <ele>138</ele>
        <time>2011-04-15T10:19:53Z</time>
      </trkpt>
      <trkpt lat="48.52082" lon="2.12393">
        <ele>138</ele>
        <time>2011-04-15T10:19:54Z</time>
      </trkpt>
      <trkpt lat="48.5208" lon="2.12393">
        <ele>138</ele>
        <time>2011-04-15T10:19:55Z</time>
      </trkpt>
      <trkpt lat="48.52078" lon="2.12393">
        <ele>138</ele>
        <time>2011-04-15T10:19:56Z</time>
      </trkpt>
      <trkpt lat="48.52077" lon="2.12393">
        <ele>138</ele>
        <time>2011-04-15T10:19:57Z</time>
      </trkpt>
      <trkpt lat="48.52075" lon="2.12392">
        <ele>138</ele>
        <time>2011-04-15T10:19:58Z</time>
      </trkpt>
      <trkpt lat="48.52074" lon="2.12392">
        <ele>138</ele>
        <time>2011-04-15T10:19:59Z</time>
      </trkpt>
      <trkpt lat="48.52072" lon="2.12392">
        <ele>138</ele>
        <time>2011-04-15T10:20:00Z</time>
      </trkpt>
      <trkpt lat="48.52071" lon="2.12392">
        <ele>138</ele>
        <time>2011-04-15T10:20:01Z</time>
      </trkpt>
      <trkpt lat="48.52069" lon="2.12392">
        <ele>138</ele>
        <time>2011-04-15T10:20:02Z</time>
      </trkpt>
      <trkpt lat="48.52068" lon="2.12392">
        <ele>138</ele>
        <time>2011-04-15T10:20:03Z</time>
      </trkpt>
      <trkpt lat="48.52066" lon="2.12392">
        <ele>138</ele>
        <time>2011-04-15T10:20:04Z</time>
      </trkpt>
      <trkpt lat="48.52064" lon="2.12392">
        <ele>138</ele>
        <time>2011-04-15T10:20:05Z</time>
      </trkpt>
      <trkpt lat="48.52062" lon="2.12392">
        <ele>138</ele>
        <time>2011-04-15T10:20:06Z</time>
      </trkpt>
      <trkpt lat="48.5206" lon="2.12392">
        <ele>138</ele>
        <time>2011-04-15T10:20:07Z</time>
      </trkpt>
      <trkpt lat="48.52059" lon="2.12393">
        <ele>138</ele>
        <time>2011-04-15T10:20:08Z</time>
      </trkpt>
      <trkpt lat="48.52057" lon="2.12393">
        <ele>138</ele>
        <time>2011-04-15T10:20:09Z</time>
      </trkpt>
      <trkpt lat="48.52055" lon="2.12392">
        <ele>138</ele>
        <time>2011-04-15T10:20:10Z</time>
      </trkpt>
      <trkpt lat="48.52054" lon="2.12392">
        <ele>138</ele>
        <time>2011-04-15T10:20:11Z</time>
      </trkpt>
      <trkpt lat="48.52052" lon="2.12393">
        <ele>138</ele>
        <time>2011-04-15T10:20:12Z</time>
      </trkpt>
      <trkpt lat="48.5205" lon="2.12393">
        <ele>138</ele>
        <time>2011-04-15T10:20:13Z</time>
      </trkpt>
      <trkpt lat="48.52049" lon="2.12393">
        <ele>138</ele>
        <time>2011-04-15T10:20:14Z</time>
      </trkpt>
      <trkpt lat="48.52047" lon="2.12393">
        <ele>138</ele>
        <time>2011-04-15T10:20:15Z</time>
      </trkpt>
      <trkpt lat="48.52045" lon="2.12393">
        <ele>138</ele>
        <time>2011-04-15T10:20:16Z</time>
      </trkpt>
      <trkpt lat="48.52044" lon="2.12393">
        <ele>138</ele>
        <time>2011-04-15T10:20:17Z</time>
      </trkpt>
      <trkpt lat="48.52042" lon="2.12393">
        <ele>138</ele>
        <time>2011-04-15T10:20:18Z</time>
      </trkpt>
      <trkpt lat="48.52041" lon="2.12393">
        <ele>138</ele>
        <time>2011-04-15T10:20:19Z</time>
      </trkpt>
      <trkpt lat="48.52039" lon="2.12394">
        <ele>138</ele>
        <time>2011-04-15T10:20:20Z</time>
      </trkpt>
      <trkpt lat="48.52037" lon="2.12394">
        <ele>138</ele>
        <time>2011-04-15T10:20:21Z</time>
      </trkpt>
      <trkpt lat="48.52036" lon="2.12394">
        <ele>138</ele>
        <time>2011-04-15T10:20:22Z</time>
      </trkpt>
      <trkpt lat="48.52034" lon="2.12394">
        <ele>138</ele>
        <time>2011-04-15T10:20:23Z</time>
      </trkpt>
      <trkpt lat="48.52033" lon="2.12394">
        <ele>138</ele>
        <time>2011-04-15T10:20:24Z</time>
      </trkpt>
      <trkpt lat="48.52031" lon="2.12394">
        <ele>138</ele>
        <time>2011-04-15T10:20:25Z</time>
      </trkpt>
      <trkpt lat="48.5203" lon="2.12394">
        <ele>138</ele>
        <time>2011-04-15T10:20:26Z</time>
      </trkpt>
      <trkpt lat="48.52028" lon="2.12395">
        <ele>138</ele>
        <time>2011-04-15T10:20:27Z</time>
      </trkpt>
      <trkpt lat="48.52026" lon="2.12395">
        <ele>138</ele>
        <time>2011-04-15T10:20:28Z</time>
      </trkpt>
      <trkpt lat="48.52024" lon="2.12395">
        <ele>138</ele>
        <time>2011-04-15T10:20:29Z</time>
      </trkpt>
      <trkpt lat="48.52022" lon="2.12395">
        <ele>138</ele>
        <time>2011-04-15T10:20:30Z</time>
      </trkpt>
      <trkpt lat="48.52021" lon="2.12395">
        <ele>138</ele>
        <time>2011-04-15T10:20:31Z</time>
      </trkpt>
      <trkpt lat="48.52019" lon="2.12395">
        <ele>138</ele>
        <time>2011-04-15T10:20:32Z</time>
      </trkpt>
      <trkpt lat="48.52018" lon="2.12395">
        <ele>138</ele>
        <time>2011-04-15T10:20:33Z</time>
      </trkpt>
      <trkpt lat="48.52016" lon="2.12395">
        <ele>138</ele>
        <time>2011-04-15T10:20:34Z</time>
      </trkpt>
      <trkpt lat="48.52014" lon="2.12395">
        <ele>138</ele>
        <time>2011-04-15T10:20:35Z</time>
      </trkpt>
      <trkpt lat="48.52013" lon="2.12395">
        <ele>138</ele>
        <time>2011-04-15T10:20:36Z</time>
      </trkpt>
      <trkpt lat="48.52011" lon="2.12395">
        <ele>138</ele>
        <time>2011-04-15T10:20:37Z</time>
      </trkpt>
      <trkpt lat="48.5201" lon="2.12395">
        <ele>138</ele>
        <time>2011-04-15T10:20:38Z</time>
      </trkpt>
      <trkpt lat="48.52008" lon="2.12394">
        <ele>138</ele>
        <time>2011-04-15T10:20:39Z</time>
      </trkpt>
      <trkpt lat="48.52007" lon="2.12394">
        <ele>138</ele>
        <time>2011-04-15T10:20:40Z</time>
      </trkpt>
      <trkpt lat="48.52005" lon="2.12393">
        <ele>138</ele>
        <time>2011-04-15T10:20:41Z</time>
      </trkpt>
      <trkpt lat="48.52003" lon="2.12393">
        <ele>138</ele>
        <time>2011-04-15T10:20:42Z</time>
      </trkpt>
      <trkpt lat="48.52002" lon="2.12392">
        <ele>138</ele>
        <time>2011-04-15T10:20:43Z</time>
      </trkpt>
      <trkpt lat="48.52" lon="2.12391">
        <ele>138</ele>
        <time>2011-04-15T10:20:44Z</time>
      </trkpt>
      <trkpt lat="48.51999" lon="2.12391">
        <ele>138</ele>
        <time>2011-04-15T10:20:45Z</time>
      </trkpt>
      <trkpt lat="48.51997" lon="2.1239">
        <ele>138</ele>
        <time>2011-04-15T10:20:46Z</time>
      </trkpt>
      <trkpt lat="48.51995" lon="2.12389">
        <ele>138</ele>
        <time>2011-04-15T10:20:47Z</time>
      </trkpt>
      <trkpt lat="48.51994" lon="2.12388">
        <ele>138</ele>
        <time>2011-04-15T10:20:48Z</time>
      </trkpt>
      <trkpt lat="48.51992" lon="2.12387">
        <ele>138</ele>
        <time>2011-04-15T10:20:49Z</time>
      </trkpt>
      <trkpt lat="48.51991" lon="2.12386">
        <ele>138</ele>
        <time>2011-04-15T10:20:50Z</time>
      </trkpt>
      <trkpt lat="48.51989" lon="2.12385">
        <ele>138</ele>
        <time>2011-04-15T10:20:51Z</time>
      </trkpt>
      <trkpt lat="48.51988" lon="2.12384">
        <ele>138</ele>
        <time>2011-04-15T10:20:52Z</time>
      </trkpt>
      <trkpt lat="48.51986" lon="2.12383">
        <ele>138</ele>
        <time>2011-04-15T10:20:53Z</time>
      </trkpt>
      <trkpt lat="48.51985" lon="2.12382">
        <ele>138</ele>
        <time>2011-04-15T10:20:54Z</time>
      </trkpt>
      <trkpt lat="48.51984" lon="2.12381">
        <ele>138</ele>
        <time>2011-04-15T10:20:55Z</time>
      </trkpt>
      <trkpt lat="48.51982" lon="2.1238">
        <ele>138</ele>
        <time>2011-04-15T10:20:56Z</time>
      </trkpt>
      <trkpt lat="48.51981" lon="2.12378">
        <ele>138</ele>
        <time>2011-04-15T10:20:57Z</time>
      </trkpt>
      <trkpt lat="48.51979" lon="2.12377">
        <ele>138</ele>
        <time>2011-04-15T10:20:58Z</time>
      </trkpt>
      <trkpt lat="48.51978" lon="2.12376">
        <ele>138</ele>
        <time>2011-04-15T10:20:59Z</time>
      </trkpt>
      <trkpt lat="48.51976" lon="2.12375">
        <ele>139</ele>
        <time>2011-04-15T10:21:00Z</time>
      </trkpt>
      <trkpt lat="48.51975" lon="2.12374">
        <ele>139</ele>
        <time>2011-04-15T10:21:01Z</time>
      </trkpt>
      <trkpt lat="48.51974" lon="2.12373">
        <ele>139</ele>
        <time>2011-04-15T10:21:02Z</time>
      </trkpt>
      <trkpt lat="48.51972" lon="2.12372">
        <ele>139</ele>
        <time>2011-04-15T10:21:03Z</time>
      </trkpt>
      <trkpt lat="48.51971" lon="2.12371">
        <ele>139</ele>
        <time>2011-04-15T10:21:04Z</time>
      </trkpt>
      <trkpt lat="48.51969" lon="2.12369">
        <ele>139</ele>
        <time>2011-04-15T10:21:05Z</time>
      </trkpt>
      <trkpt lat="48.51968" lon="2.12368">
        <ele>140</ele>
        <time>2011-04-15T10:21:06Z</time>
      </trkpt>
      <trkpt lat="48.51967" lon="2.12367">
        <ele>140</ele>
        <time>2011-04-15T10:21:07Z</time>
      </trkpt>
      <trkpt lat="48.51966" lon="2.12366">
        <ele>140</ele>
        <time>2011-04-15T10:21:08Z</time>
      </trkpt>
      <trkpt lat="48.51964" lon="2.12365">
        <ele>140</ele>
        <time>2011-04-15T10:21:09Z</time>
      </trkpt>
      <trkpt lat="48.51963" lon="2.12364">
        <ele>140</ele>
        <time>2011-04-15T10:21:10Z</time>
      </trkpt>
      <trkpt lat="48.51961" lon="2.12364">
        <ele>140</ele>
        <time>2011-04-15T10:21:11Z</time>
      </trkpt>
      <trkpt lat="48.5196" lon="2.12363">
        <ele>140</ele>
        <time>2011-04-15T10:21:12Z</time>
      </trkpt>
      <trkpt lat="48.51958" lon="2.12363">
        <ele>141</ele>
        <time>2011-04-15T10:21:13Z</time>
      </trkpt>
      <trkpt lat="48.51957" lon="2.12362">
        <ele>141</ele>
        <time>2011-04-15T10:21:14Z</time>
      </trkpt>
      <trkpt lat="48.51955" lon="2.12363">
        <ele>141</ele>
        <time>2011-04-15T10:21:15Z</time>
      </trkpt>
      <trkpt lat="48.51954" lon="2.12363">
        <ele>141</ele>
        <time>2011-04-15T10:21:16Z</time>
      </trkpt>
      <trkpt lat="48.51953" lon="2.12365">
        <ele>141</ele>
        <time>2011-04-15T10:21:17Z</time>
      </trkpt>
      <trkpt lat="48.51951" lon="2.12366">
        <ele>141</ele>
        <time>2011-04-15T10:21:18Z</time>
      </trkpt>
      <trkpt lat="48.5195" lon="2.12367">
        <ele>141</ele>
        <time>2011-04-15T10:21:19Z</time>
      </trkpt>
      <trkpt lat="48.51949" lon="2.12368">
        <ele>141</ele>
        <time>2011-04-15T10:21:20Z</time>
      </trkpt>
      <trkpt lat="48.51948" lon="2.1237">
        <ele>141</ele>
        <time>2011-04-15T10:21:21Z</time>
      </trkpt>
      <trkpt lat="48.51946" lon="2.12372">
        <ele>141</ele>
        <time>2011-04-15T10:21:23Z</time>
      </trkpt>
      <trkpt lat="48.51945" lon="2.12374">
        <ele>141</ele>
        <time>2011-04-15T10:21:25Z</time>
      </trkpt>
      <trkpt lat="48.51943" lon="2.12378">
        <ele>141</ele>
        <time>2011-04-15T10:21:27Z</time>
      </trkpt>
      <trkpt lat="48.51942" lon="2.12379">
        <ele>141</ele>
        <time>2011-04-15T10:21:28Z</time>
      </trkpt>
      <trkpt lat="48.5194" lon="2.12381">
        <ele>141</ele>
        <time>2011-04-15T10:21:29Z</time>
      </trkpt>
      <trkpt lat="48.51939" lon="2.12382">
        <ele>141</ele>
        <time>2011-04-15T10:21:30Z</time>
      </trkpt>
      <trkpt lat="48.51938" lon="2.12384">
        <ele>141</ele>
        <time>2011-04-15T10:21:31Z</time>
      </trkpt>
      <trkpt lat="48.51937" lon="2.12385">
        <ele>141</ele>
        <time>2011-04-15T10:21:32Z</time>
      </trkpt>
      <trkpt lat="48.51936" lon="2.12387">
        <ele>141</ele>
        <time>2011-04-15T10:21:33Z</time>
      </trkpt>
      <trkpt lat="48.51935" lon="2.12389">
        <ele>141</ele>
        <time>2011-04-15T10:21:34Z</time>
      </trkpt>
      <trkpt lat="48.51934" lon="2.12391">
        <ele>141</ele>
        <time>2011-04-15T10:21:35Z</time>
      </trkpt>
      <trkpt lat="48.51933" lon="2.12393">
        <ele>141</ele>
        <time>2011-04-15T10:21:36Z</time>
      </trkpt>
      <trkpt lat="48.51932" lon="2.12394">
        <ele>141</ele>
        <time>2011-04-15T10:21:37Z</time>
      </trkpt>
      <trkpt lat="48.51931" lon="2.12396">
        <ele>141</ele>
        <time>2011-04-15T10:21:38Z</time>
      </trkpt>
      <trkpt lat="48.5193" lon="2.12398">
        <ele>141</ele>
        <time>2011-04-15T10:21:39Z</time>
      </trkpt>
      <trkpt lat="48.51929" lon="2.124">
        <ele>141</ele>
        <time>2011-04-15T10:21:40Z</time>
      </trkpt>
      <trkpt lat="48.51928" lon="2.12401">
        <ele>141</ele>
        <time>2011-04-15T10:21:41Z</time>
      </trkpt>
      <trkpt lat="48.51927" lon="2.12403">
        <ele>141</ele>
        <time>2011-04-15T10:21:42Z</time>
      </trkpt>
      <trkpt lat="48.51927" lon="2.12405">
        <ele>141</ele>
        <time>2011-04-15T10:21:43Z</time>
      </trkpt>
      <trkpt lat="48.51926" lon="2.12407">
        <ele>141</ele>
        <time>2011-04-15T10:21:44Z</time>
      </trkpt>
      <trkpt lat="48.51925" lon="2.12409">
        <ele>141</ele>
        <time>2011-04-15T10:21:45Z</time>
      </trkpt>
      <trkpt lat="48.51924" lon="2.12411">
        <ele>141</ele>
        <time>2011-04-15T10:21:46Z</time>
      </trkpt>
      <trkpt lat="48.51923" lon="2.12414">
        <ele>141</ele>
        <time>2011-04-15T10:21:48Z</time>
      </trkpt>
      <trkpt lat="48.51921" lon="2.12417">
        <ele>141</ele>
        <time>2011-04-15T10:21:50Z</time>
      </trkpt>
      <trkpt lat="48.5192" lon="2.12419">
        <ele>141</ele>
        <time>2011-04-15T10:21:52Z</time>
      </trkpt>
      <trkpt lat="48.51919" lon="2.12423">
        <ele>141</ele>
        <time>2011-04-15T10:21:54Z</time>
      </trkpt>
      <trkpt lat="48.51918" lon="2.12424">
        <ele>141</ele>
        <time>2011-04-15T10:21:55Z</time>
      </trkpt>
      <trkpt lat="48.51917" lon="2.12426">
        <ele>141</ele>
        <time>2011-04-15T10:21:56Z</time>
      </trkpt>
      <trkpt lat="48.51917" lon="2.12428">
        <ele>141</ele>
        <time>2011-04-15T10:21:57Z</time>
      </trkpt>
      <trkpt lat="48.51916" lon="2.12431">
        <ele>141</ele>
        <time>2011-04-15T10:21:59Z</time>
      </trkpt>
      <trkpt lat="48.51915" lon="2.12433">
        <ele>141</ele>
        <time>2011-04-15T10:22:00Z</time>
      </trkpt>
      <trkpt lat="48.51915" lon="2.12435">
        <ele>141</ele>
        <time>2011-04-15T10:22:01Z</time>
      </trkpt>
      <trkpt lat="48.51913" lon="2.12437">
        <ele>141</ele>
        <time>2011-04-15T10:22:03Z</time>
      </trkpt>
      <trkpt lat="48.51911" lon="2.1244">
        <ele>141</ele>
        <time>2011-04-15T10:22:05Z</time>
      </trkpt>
      <trkpt lat="48.51909" lon="2.12443">
        <ele>141</ele>
        <time>2011-04-15T10:22:07Z</time>
      </trkpt>
      <trkpt lat="48.51908" lon="2.12446">
        <ele>140</ele>
        <time>2011-04-15T10:22:09Z</time>
      </trkpt>
      <trkpt lat="48.51907" lon="2.12449">
        <ele>140</ele>
        <time>2011-04-15T10:22:11Z</time>
      </trkpt>
      <trkpt lat="48.51905" lon="2.12451">
        <ele>139</ele>
        <time>2011-04-15T10:22:13Z</time>
      </trkpt>
      <trkpt lat="48.51903" lon="2.12454">
        <ele>138</ele>
        <time>2011-04-15T10:22:15Z</time>
      </trkpt>
      <trkpt lat="48.51902" lon="2.12455">
        <ele>138</ele>
        <time>2011-04-15T10:22:16Z</time>
      </trkpt>
      <trkpt lat="48.519" lon="2.12457">
        <ele>137</ele>
        <time>2011-04-15T10:22:18Z</time>
      </trkpt>
      <trkpt lat="48.51899" lon="2.12459">
        <ele>136</ele>
        <time>2011-04-15T10:22:20Z</time>
      </trkpt>
      <trkpt lat="48.51897" lon="2.12462">
        <ele>136</ele>
        <time>2011-04-15T10:22:22Z</time>
      </trkpt>
      <trkpt lat="48.51895" lon="2.12464">
        <ele>135</ele>
        <time>2011-04-15T10:22:24Z</time>
      </trkpt>
      <trkpt lat="48.51894" lon="2.12465">
        <ele>135</ele>
        <time>2011-04-15T10:22:25Z</time>
      </trkpt>
      <trkpt lat="48.51892" lon="2.12466">
        <ele>135</ele>
        <time>2011-04-15T10:22:26Z</time>
      </trkpt>
      <trkpt lat="48.51891" lon="2.12467">
        <ele>134</ele>
        <time>2011-04-15T10:22:27Z</time>
      </trkpt>
      <trkpt lat="48.51889" lon="2.1247">
        <ele>134</ele>
        <time>2011-04-15T10:22:29Z</time>
      </trkpt>
      <trkpt lat="48.51887" lon="2.12472">
        <ele>133</ele>
        <time>2011-04-15T10:22:31Z</time>
      </trkpt>
      <trkpt lat="48.51885" lon="2.12475">
        <ele>133</ele>
        <time>2011-04-15T10:22:33Z</time>
      </trkpt>
      <trkpt lat="48.51884" lon="2.12476">
        <ele>132</ele>
        <time>2011-04-15T10:22:34Z</time>
      </trkpt>
      <trkpt lat="48.51883" lon="2.12477">
        <ele>132</ele>
        <time>2011-04-15T10:22:35Z</time>
      </trkpt>
      <trkpt lat="48.51881" lon="2.12479">
        <ele>132</ele>
        <time>2011-04-15T10:22:37Z</time>
      </trkpt>
      <trkpt lat="48.5188" lon="2.1248">
        <ele>132</ele>
        <time>2011-04-15T10:22:38Z</time>
      </trkpt>
      <trkpt lat="48.51878" lon="2.12481">
        <ele>132</ele>
        <time>2011-04-15T10:22:39Z</time>
      </trkpt>
      <trkpt lat="48.51876" lon="2.12483">
        <ele>131</ele>
        <time>2011-04-15T10:22:41Z</time>
      </trkpt>
      <trkpt lat="48.51875" lon="2.12485">
        <ele>131</ele>
        <time>2011-04-15T10:22:42Z</time>
      </trkpt>
      <trkpt lat="48.51874" lon="2.12485">
        <ele>131</ele>
        <time>2011-04-15T10:22:43Z</time>
      </trkpt>
      <trkpt lat="48.51872" lon="2.12486">
        <ele>131</ele>
        <time>2011-04-15T10:22:44Z</time>
      </trkpt>
      <trkpt lat="48.51871" lon="2.12488">
        <ele>131</ele>
        <time>2011-04-15T10:22:45Z</time>
      </trkpt>
      <trkpt lat="48.5187" lon="2.12489">
        <ele>130</ele>
        <time>2011-04-15T10:22:46Z</time>
      </trkpt>
      <trkpt lat="48.51869" lon="2.1249">
        <ele>130</ele>
        <time>2011-04-15T10:22:47Z</time>
      </trkpt>
      <trkpt lat="48.51868" lon="2.12491">
        <ele>130</ele>
        <time>2011-04-15T10:22:48Z</time>
      </trkpt>
      <trkpt lat="48.51866" lon="2.12491">
        <ele>130</ele>
        <time>2011-04-15T10:22:49Z</time>
      </trkpt>
      <trkpt lat="48.51865" lon="2.12492">
        <ele>129</ele>
        <time>2011-04-15T10:22:50Z</time>
      </trkpt>
      <trkpt lat="48.51864" lon="2.12493">
        <ele>129</ele>
        <time>2011-04-15T10:22:51Z</time>
      </trkpt>
      <trkpt lat="48.51862" lon="2.12495">
        <ele>129</ele>
        <time>2011-04-15T10:22:52Z</time>
      </trkpt>
      <trkpt lat="48.51861" lon="2.12495">
        <ele>129</ele>
        <time>2011-04-15T10:22:53Z</time>
      </trkpt>
      <trkpt lat="48.5186" lon="2.12496">
        <ele>129</ele>
        <time>2011-04-15T10:22:54Z</time>
      </trkpt>
      <trkpt lat="48.51859" lon="2.12496">
        <ele>129</ele>
        <time>2011-04-15T10:22:55Z</time>
      </trkpt>
      <trkpt lat="48.51857" lon="2.12498">
        <ele>129</ele>
        <time>2011-04-15T10:22:56Z</time>
      </trkpt>
      <trkpt lat="48.51856" lon="2.12499">
        <ele>129</ele>
        <time>2011-04-15T10:22:57Z</time>
      </trkpt>
      <trkpt lat="48.51855" lon="2.12501">
        <ele>129</ele>
        <time>2011-04-15T10:22:58Z</time>
      </trkpt>
      <trkpt lat="48.51853" lon="2.12501">
        <ele>129</ele>
        <time>2011-04-15T10:22:59Z</time>
      </trkpt>
      <trkpt lat="48.51852" lon="2.12502">
        <ele>129</ele>
        <time>2011-04-15T10:23:00Z</time>
      </trkpt>
      <trkpt lat="48.51851" lon="2.12503">
        <ele>128</ele>
        <time>2011-04-15T10:23:01Z</time>
      </trkpt>
      <trkpt lat="48.5185" lon="2.12503">
        <ele>128</ele>
        <time>2011-04-15T10:23:02Z</time>
      </trkpt>
      <trkpt lat="48.51848" lon="2.12504">
        <ele>128</ele>
        <time>2011-04-15T10:23:03Z</time>
      </trkpt>
      <trkpt lat="48.51847" lon="2.12504">
        <ele>128</ele>
        <time>2011-04-15T10:23:04Z</time>
      </trkpt>
      <trkpt lat="48.51846" lon="2.12505">
        <ele>128</ele>
        <time>2011-04-15T10:23:05Z</time>
      </trkpt>
      <trkpt lat="48.51844" lon="2.12506">
        <ele>127</ele>
        <time>2011-04-15T10:23:06Z</time>
      </trkpt>
      <trkpt lat="48.51843" lon="2.12507">
        <ele>127</ele>
        <time>2011-04-15T10:23:07Z</time>
      </trkpt>
      <trkpt lat="48.51842" lon="2.12508">
        <ele>127</ele>
        <time>2011-04-15T10:23:08Z</time>
      </trkpt>
      <trkpt lat="48.51841" lon="2.12509">
        <ele>126</ele>
        <time>2011-04-15T10:23:09Z</time>
      </trkpt>
      <trkpt lat="48.5184" lon="2.12511">
        <ele>126</ele>
        <time>2011-04-15T10:23:10Z</time>
      </trkpt>
      <trkpt lat="48.51838" lon="2.12512">
        <ele>125</ele>
        <time>2011-04-15T10:23:11Z</time>
      </trkpt>
      <trkpt lat="48.51837" lon="2.12513">
        <ele>125</ele>
        <time>2011-04-15T10:23:12Z</time>
      </trkpt>
      <trkpt lat="48.51836" lon="2.12514">
        <ele>125</ele>
        <time>2011-04-15T10:23:13Z</time>
      </trkpt>
      <trkpt lat="48.51834" lon="2.12515">
        <ele>125</ele>
        <time>2011-04-15T10:23:14Z</time>
      </trkpt>
      <trkpt lat="48.51833" lon="2.12515">
        <ele>125</ele>
        <time>2011-04-15T10:23:15Z</time>
      </trkpt>
      <trkpt lat="48.51832" lon="2.12516">
        <ele>125</ele>
        <time>2011-04-15T10:23:16Z</time>
      </trkpt>
      <trkpt lat="48.5183" lon="2.12516">
        <ele>125</ele>
        <time>2011-04-15T10:23:17Z</time>
      </trkpt>
      <trkpt lat="48.51829" lon="2.12517">
        <ele>124</ele>
        <time>2011-04-15T10:23:18Z</time>
      </trkpt>
      <trkpt lat="48.51827" lon="2.12519">
        <ele>123</ele>
        <time>2011-04-15T10:23:20Z</time>
      </trkpt>
      <trkpt lat="48.51826" lon="2.1252">
        <ele>123</ele>
        <time>2011-04-15T10:23:21Z</time>
      </trkpt>
      <trkpt lat="48.51825" lon="2.12521">
        <ele>123</ele>
        <time>2011-04-15T10:23:22Z</time>
      </trkpt>
      <trkpt lat="48.51824" lon="2.12522">
        <ele>122</ele>
        <time>2011-04-15T10:23:23Z</time>
      </trkpt>
      <trkpt lat="48.51822" lon="2.12524">
        <ele>122</ele>
        <time>2011-04-15T10:23:24Z</time>
      </trkpt>
      <trkpt lat="48.51821" lon="2.12525">
        <ele>122</ele>
        <time>2011-04-15T10:23:25Z</time>
      </trkpt>
      <trkpt lat="48.51819" lon="2.12526">
        <ele>122</ele>
        <time>2011-04-15T10:23:26Z</time>
      </trkpt>
      <trkpt lat="48.51818" lon="2.12527">
        <ele>122</ele>
        <time>2011-04-15T10:23:27Z</time>
      </trkpt>
      <trkpt lat="48.51817" lon="2.12529">
        <ele>122</ele>
        <time>2011-04-15T10:23:28Z</time>
      </trkpt>
      <trkpt lat="48.51816" lon="2.1253">
        <ele>122</ele>
        <time>2011-04-15T10:23:29Z</time>
      </trkpt>
      <trkpt lat="48.51814" lon="2.12531">
        <ele>121</ele>
        <time>2011-04-15T10:23:31Z</time>
      </trkpt>
      <trkpt lat="48.51812" lon="2.12533">
        <ele>121</ele>
        <time>2011-04-15T10:23:33Z</time>
      </trkpt>
      <trkpt lat="48.5181" lon="2.12536">
        <ele>121</ele>
        <time>2011-04-15T10:23:35Z</time>
      </trkpt>
      <trkpt lat="48.51808" lon="2.12537">
        <ele>121</ele>
        <time>2011-04-15T10:23:36Z</time>
      </trkpt>
      <trkpt lat="48.51807" lon="2.12539">
        <ele>121</ele>
        <time>2011-04-15T10:23:37Z</time>
      </trkpt>
      <trkpt lat="48.51806" lon="2.1254">
        <ele>121</ele>
        <time>2011-04-15T10:23:38Z</time>
      </trkpt>
      <trkpt lat="48.51804" lon="2.12542">
        <ele>121</ele>
        <time>2011-04-15T10:23:39Z</time>
      </trkpt>
      <trkpt lat="48.51803" lon="2.12543">
        <ele>121</ele>
        <time>2011-04-15T10:23:40Z</time>
      </trkpt>
      <trkpt lat="48.51802" lon="2.12545">
        <ele>120</ele>
        <time>2011-04-15T10:23:41Z</time>
      </trkpt>
      <trkpt lat="48.51801" lon="2.12547">
        <ele>120</ele>
        <time>2011-04-15T10:23:42Z</time>
      </trkpt>
      <trkpt lat="48.518" lon="2.12549">
        <ele>120</ele>
        <time>2011-04-15T10:23:43Z</time>
      </trkpt>
      <trkpt lat="48.51799" lon="2.1255">
        <ele>119</ele>
        <time>2011-04-15T10:23:44Z</time>
      </trkpt>
      <trkpt lat="48.51798" lon="2.12551">
        <ele>118</ele>
        <time>2011-04-15T10:23:45Z</time>
      </trkpt>
      <trkpt lat="48.51796" lon="2.12552">
        <ele>118</ele>
        <time>2011-04-15T10:23:47Z</time>
      </trkpt>
      <trkpt lat="48.51794" lon="2.12553">
        <ele>117</ele>
        <time>2011-04-15T10:23:49Z</time>
      </trkpt>
      <trkpt lat="48.51793" lon="2.12554">
        <ele>116</ele>
        <time>2011-04-15T10:23:50Z</time>
      </trkpt>
      <trkpt lat="48.51791" lon="2.12555">
        <ele>116</ele>
        <time>2011-04-15T10:23:51Z</time>
      </trkpt>
      <trkpt lat="48.5179" lon="2.12555">
        <ele>116</ele>
        <time>2011-04-15T10:23:52Z</time>
      </trkpt>
      <trkpt lat="48.51788" lon="2.12556">
        <ele>115</ele>
        <time>2011-04-15T10:23:53Z</time>
      </trkpt>
      <trkpt lat="48.51786" lon="2.12559">
        <ele>115</ele>
        <time>2011-04-15T10:23:55Z</time>
      </trkpt>
      <trkpt lat="48.51785" lon="2.1256">
        <ele>114</ele>
        <time>2011-04-15T10:23:56Z</time>
      </trkpt>
      <trkpt lat="48.51784" lon="2.12561">
        <ele>114</ele>
        <time>2011-04-15T10:23:57Z</time>
      </trkpt>
      <trkpt lat="48.51783" lon="2.12562">
        <ele>114</ele>
        <time>2011-04-15T10:23:58Z</time>
      </trkpt>
      <trkpt lat="48.51781" lon="2.12565">
        <ele>113</ele>
        <time>2011-04-15T10:24:00Z</time>
      </trkpt>
      <trkpt lat="48.5178" lon="2.12566">
        <ele>113</ele>
        <time>2011-04-15T10:24:01Z</time>
      </trkpt>
      <trkpt lat="48.51778" lon="2.12568">
        <ele>112</ele>
        <time>2011-04-15T10:24:03Z</time>
      </trkpt>
      <trkpt lat="48.51776" lon="2.1257">
        <ele>111</ele>
        <time>2011-04-15T10:24:05Z</time>
      </trkpt>
      <trkpt lat="48.51774" lon="2.12571">
        <ele>111</ele>
        <time>2011-04-15T10:24:06Z</time>
      </trkpt>
      <trkpt lat="48.51773" lon="2.12572">
        <ele>110</ele>
        <time>2011-04-15T10:24:07Z</time>
      </trkpt>
      <trkpt lat="48.51771" lon="2.12574">
        <ele>110</ele>
        <time>2011-04-15T10:24:09Z</time>
      </trkpt>
      <trkpt lat="48.5177" lon="2.12576">
        <ele>109</ele>
        <time>2011-04-15T10:24:11Z</time>
      </trkpt>
      <trkpt lat="48.51768" lon="2.12578">
        <ele>108</ele>
        <time>2011-04-15T10:24:13Z</time>
      </trkpt>
      <trkpt lat="48.51766" lon="2.1258">
        <ele>108</ele>
        <time>2011-04-15T10:24:15Z</time>
      </trkpt>
      <trkpt lat="48.51765" lon="2.12582">
        <ele>108</ele>
        <time>2011-04-15T10:24:16Z</time>
      </trkpt>
      <trkpt lat="48.51763" lon="2.12585">
        <ele>107</ele>
        <time>2011-04-15T10:24:18Z</time>
      </trkpt>
      <trkpt lat="48.51762" lon="2.12587">
        <ele>107</ele>
        <time>2011-04-15T10:24:20Z</time>
      </trkpt>
      <trkpt lat="48.51762" lon="2.12589">
        <ele>107</ele>
        <time>2011-04-15T10:24:21Z</time>
      </trkpt>
      <trkpt lat="48.51761" lon="2.12591">
        <ele>106</ele>
        <time>2011-04-15T10:24:22Z</time>
      </trkpt>
      <trkpt lat="48.5176" lon="2.12593">
        <ele>106</ele>
        <time>2011-04-15T10:24:23Z</time>
      </trkpt>
      <trkpt lat="48.51759" lon="2.12595">
        <ele>106</ele>
        <time>2011-04-15T10:24:24Z</time>
      </trkpt>
      <trkpt lat="48.51759" lon="2.12597">
        <ele>105</ele>
        <time>2011-04-15T10:24:25Z</time>
      </trkpt>
      <trkpt lat="48.51757" lon="2.126">
        <ele>105</ele>
        <time>2011-04-15T10:24:27Z</time>
      </trkpt>
      <trkpt lat="48.51757" lon="2.12602">
        <ele>104</ele>
        <time>2011-04-15T10:24:29Z</time>
      </trkpt>
      <trkpt lat="48.51756" lon="2.12604">
        <ele>104</ele>
        <time>2011-04-15T10:24:30Z</time>
      </trkpt>
      <trkpt lat="48.51755" lon="2.12606">
        <ele>104</ele>
        <time>2011-04-15T10:24:31Z</time>
      </trkpt>
      <trkpt lat="48.51754" lon="2.12609">
        <ele>103</ele>
        <time>2011-04-15T10:24:33Z</time>
      </trkpt>
      <trkpt lat="48.51753" lon="2.1261">
        <ele>103</ele>
        <time>2011-04-15T10:24:34Z</time>
      </trkpt>
      <trkpt lat="48.51752" lon="2.12613">
        <ele>103</ele>
        <time>2011-04-15T10:24:36Z</time>
      </trkpt>
      <trkpt lat="48.5175" lon="2.12616">
        <ele>103</ele>
        <time>2011-04-15T10:24:38Z</time>
      </trkpt>
      <trkpt lat="48.51749" lon="2.12617">
        <ele>103</ele>
        <time>2011-04-15T10:24:39Z</time>
      </trkpt>
      <trkpt lat="48.51749" lon="2.12619">
        <ele>103</ele>
        <time>2011-04-15T10:24:40Z</time>
      </trkpt>
      <trkpt lat="48.51748" lon="2.12621">
        <ele>103</ele>
        <time>2011-04-15T10:24:41Z</time>
      </trkpt>
      <trkpt lat="48.51747" lon="2.12623">
        <ele>102</ele>
        <time>2011-04-15T10:24:42Z</time>
      </trkpt>
      <trkpt lat="48.51746" lon="2.12624">
        <ele>102</ele>
        <time>2011-04-15T10:24:43Z</time>
      </trkpt>
      <trkpt lat="48.51745" lon="2.12626">
        <ele>102</ele>
        <time>2011-04-15T10:24:44Z</time>
      </trkpt>
      <trkpt lat="48.51744" lon="2.12627">
        <ele>102</ele>
        <time>2011-04-15T10:24:45Z</time>
      </trkpt>
      <trkpt lat="48.51743" lon="2.12628">
        <ele>102</ele>
        <time>2011-04-15T10:24:46Z</time>
      </trkpt>
      <trkpt lat="48.51741" lon="2.12629">
        <ele>101</ele>
        <time>2011-04-15T10:24:47Z</time>
      </trkpt>
      <trkpt lat="48.5174" lon="2.1263">
        <ele>101</ele>
        <time>2011-04-15T10:24:48Z</time>
      </trkpt>
      <trkpt lat="48.51739" lon="2.12631">
        <ele>101</ele>
        <time>2011-04-15T10:24:49Z</time>
      </trkpt>
      <trkpt lat="48.51737" lon="2.12632">
        <ele>101</ele>
        <time>2011-04-15T10:24:50Z</time>
      </trkpt>
      <trkpt lat="48.51736" lon="2.12632">
        <ele>100</ele>
        <time>2011-04-15T10:24:51Z</time>
      </trkpt>
      <trkpt lat="48.51734" lon="2.12633">
        <ele>100</ele>
        <time>2011-04-15T10:24:53Z</time>
      </trkpt>
      <trkpt lat="48.51733" lon="2.12634">
        <ele>99</ele>
        <time>2011-04-15T10:24:55Z</time>
      </trkpt>
      <trkpt lat="48.51731" lon="2.12634">
        <ele>99</ele>
        <time>2011-04-15T10:25:01Z</time>
      </trkpt>
      <trkpt lat="48.5173" lon="2.12633">
        <ele>99</ele>
        <time>2011-04-15T10:25:03Z</time>
      </trkpt>
      <trkpt lat="48.51728" lon="2.1263">
        <ele>99</ele>
        <time>2011-04-15T10:25:05Z</time>
      </trkpt>
      <trkpt lat="48.51727" lon="2.12627">
        <ele>99</ele>
        <time>2011-04-15T10:25:07Z</time>
      </trkpt>
      <trkpt lat="48.51725" lon="2.12624">
        <ele>99</ele>
        <time>2011-04-15T10:25:09Z</time>
      </trkpt>
      <trkpt lat="48.51724" lon="2.12621">
        <ele>99</ele>
        <time>2011-04-15T10:25:11Z</time>
      </trkpt>
      <trkpt lat="48.51723" lon="2.12619">
        <ele>99</ele>
        <time>2011-04-15T10:25:13Z</time>
      </trkpt>
      <trkpt lat="48.51722" lon="2.12615">
        <ele>99</ele>
        <time>2011-04-15T10:25:15Z</time>
      </trkpt>
      <trkpt lat="48.51721" lon="2.12614">
        <ele>98</ele>
        <time>2011-04-15T10:25:16Z</time>
      </trkpt>
      <trkpt lat="48.5172" lon="2.12612">
        <ele>98</ele>
        <time>2011-04-15T10:25:17Z</time>
      </trkpt>
      <trkpt lat="48.51719" lon="2.1261">
        <ele>98</ele>
        <time>2011-04-15T10:25:18Z</time>
      </trkpt>
      <trkpt lat="48.51718" lon="2.12609">
        <ele>98</ele>
        <time>2011-04-15T10:25:19Z</time>
      </trkpt>
      <trkpt lat="48.51717" lon="2.12607">
        <ele>98</ele>
        <time>2011-04-15T10:25:20Z</time>
      </trkpt>
      <trkpt lat="48.51716" lon="2.12605">
        <ele>98</ele>
        <time>2011-04-15T10:25:21Z</time>
      </trkpt>
      <trkpt lat="48.51715" lon="2.12603">
        <ele>98</ele>
        <time>2011-04-15T10:25:22Z</time>
      </trkpt>
      <trkpt lat="48.51714" lon="2.12602">
        <ele>98</ele>
        <time>2011-04-15T10:25:23Z</time>
      </trkpt>
      <trkpt lat="48.51713" lon="2.126">
        <ele>98</ele>
        <time>2011-04-15T10:25:24Z</time>
      </trkpt>
      <trkpt lat="48.51713" lon="2.12598">
        <ele>98</ele>
        <time>2011-04-15T10:25:25Z</time>
      </trkpt>
      <trkpt lat="48.51712" lon="2.12595">
        <ele>98</ele>
        <time>2011-04-15T10:25:26Z</time>
      </trkpt>
      <trkpt lat="48.51711" lon="2.12593">
        <ele>98</ele>
        <time>2011-04-15T10:25:27Z</time>
      </trkpt>
      <trkpt lat="48.5171" lon="2.12591">
        <ele>98</ele>
        <time>2011-04-15T10:25:28Z</time>
      </trkpt>
      <trkpt lat="48.5171" lon="2.12589">
        <ele>98</ele>
        <time>2011-04-15T10:25:29Z</time>
      </trkpt>
      <trkpt lat="48.51709" lon="2.12588">
        <ele>98</ele>
        <time>2011-04-15T10:25:30Z</time>
      </trkpt>
      <trkpt lat="48.51708" lon="2.12586">
        <ele>98</ele>
        <time>2011-04-15T10:25:31Z</time>
      </trkpt>
      <trkpt lat="48.51707" lon="2.12584">
        <ele>98</ele>
        <time>2011-04-15T10:25:32Z</time>
      </trkpt>
      <trkpt lat="48.51706" lon="2.12582">
        <ele>98</ele>
        <time>2011-04-15T10:25:33Z</time>
      </trkpt>
      <trkpt lat="48.51704" lon="2.12579">
        <ele>98</ele>
        <time>2011-04-15T10:25:35Z</time>
      </trkpt>
      <trkpt lat="48.51703" lon="2.12578">
        <ele>98</ele>
        <time>2011-04-15T10:25:36Z</time>
      </trkpt>
      <trkpt lat="48.51701" lon="2.12575">
        <ele>98</ele>
        <time>2011-04-15T10:25:38Z</time>
      </trkpt>
      <trkpt lat="48.51699" lon="2.12572">
        <ele>98</ele>
        <time>2011-04-15T10:25:40Z</time>
      </trkpt>
      <trkpt lat="48.51697" lon="2.12569">
        <ele>98</ele>
        <time>2011-04-15T10:25:42Z</time>
      </trkpt>
      <trkpt lat="48.51696" lon="2.12567">
        <ele>98</ele>
        <time>2011-04-15T10:25:43Z</time>
      </trkpt>
      <trkpt lat="48.51695" lon="2.12566">
        <ele>98</ele>
        <time>2011-04-15T10:25:44Z</time>
      </trkpt>
      <trkpt lat="48.51694" lon="2.12564">
        <ele>98</ele>
        <time>2011-04-15T10:25:45Z</time>
      </trkpt>
      <trkpt lat="48.51693" lon="2.12562">
        <ele>98</ele>
        <time>2011-04-15T10:25:46Z</time>
      </trkpt>
      <trkpt lat="48.51693" lon="2.12561">
        <ele>98</ele>
        <time>2011-04-15T10:25:47Z</time>
      </trkpt>
      <trkpt lat="48.51692" lon="2.12559">
        <ele>98</ele>
        <time>2011-04-15T10:25:48Z</time>
      </trkpt>
      <trkpt lat="48.51691" lon="2.12557">
        <ele>98</ele>
        <time>2011-04-15T10:25:49Z</time>
      </trkpt>
      <trkpt lat="48.5169" lon="2.12556">
        <ele>98</ele>
        <time>2011-04-15T10:25:50Z</time>
      </trkpt>
      <trkpt lat="48.51689" lon="2.12554">
        <ele>98</ele>
        <time>2011-04-15T10:25:51Z</time>
      </trkpt>
      <trkpt lat="48.51688" lon="2.12552">
        <ele>98</ele>
        <time>2011-04-15T10:25:52Z</time>
      </trkpt>
      <trkpt lat="48.51687" lon="2.1255">
        <ele>98</ele>
        <time>2011-04-15T10:25:53Z</time>
      </trkpt>
      <trkpt lat="48.51686" lon="2.12549">
        <ele>98</ele>
        <time>2011-04-15T10:25:54Z</time>
      </trkpt>
      <trkpt lat="48.51685" lon="2.12547">
        <ele>98</ele>
        <time>2011-04-15T10:25:55Z</time>
      </trkpt>
      <trkpt lat="48.51684" lon="2.12545">
        <ele>98</ele>
        <time>2011-04-15T10:25:56Z</time>
      </trkpt>
      <trkpt lat="48.51683" lon="2.12544">
        <ele>98</ele>
        <time>2011-04-15T10:25:57Z</time>
      </trkpt>
      <trkpt lat="48.51682" lon="2.12542">
        <ele>98</ele>
        <time>2011-04-15T10:25:58Z</time>
      </trkpt>
      <trkpt lat="48.5168" lon="2.1254">
        <ele>98</ele>
        <time>2011-04-15T10:25:59Z</time>
      </trkpt>
      <trkpt lat="48.51679" lon="2.12539">
        <ele>98</ele>
        <time>2011-04-15T10:26:00Z</time>
      </trkpt>
      <trkpt lat="48.51678" lon="2.12537">
        <ele>98</ele>
        <time>2011-04-15T10:26:01Z</time>
      </trkpt>
      <trkpt lat="48.51676" lon="2.12534">
        <ele>98</ele>
        <time>2011-04-15T10:26:03Z</time>
      </trkpt>
      <trkpt lat="48.51676" lon="2.12532">
        <ele>98</ele>
        <time>2011-04-15T10:26:04Z</time>
      </trkpt>
      <trkpt lat="48.51675" lon="2.1253">
        <ele>97</ele>
        <time>2011-04-15T10:26:05Z</time>
      </trkpt>
      <trkpt lat="48.51673" lon="2.12527">
        <ele>97</ele>
        <time>2011-04-15T10:26:07Z</time>
      </trkpt>
      <trkpt lat="48.51672" lon="2.12526">
        <ele>97</ele>
        <time>2011-04-15T10:26:08Z</time>
      </trkpt>
      <trkpt lat="48.51671" lon="2.12524">
        <ele>97</ele>
        <time>2011-04-15T10:26:09Z</time>
      </trkpt>
      <trkpt lat="48.51669" lon="2.12522">
        <ele>97</ele>
        <time>2011-04-15T10:26:10Z</time>
      </trkpt>
      <trkpt lat="48.51668" lon="2.12519">
        <ele>97</ele>
        <time>2011-04-15T10:26:12Z</time>
      </trkpt>
      <trkpt lat="48.51666" lon="2.12518">
        <ele>97</ele>
        <time>2011-04-15T10:26:13Z</time>
      </trkpt>
      <trkpt lat="48.51665" lon="2.12516">
        <ele>97</ele>
        <time>2011-04-15T10:26:14Z</time>
      </trkpt>
      <trkpt lat="48.51664" lon="2.12515">
        <ele>97</ele>
        <time>2011-04-15T10:26:15Z</time>
      </trkpt>
      <trkpt lat="48.51663" lon="2.12513">
        <ele>97</ele>
        <time>2011-04-15T10:26:16Z</time>
      </trkpt>
      <trkpt lat="48.51662" lon="2.12511">
        <ele>97</ele>
        <time>2011-04-15T10:26:17Z</time>
      </trkpt>
      <trkpt lat="48.5166" lon="2.1251">
        <ele>97</ele>
        <time>2011-04-15T10:26:18Z</time>
      </trkpt>
      <trkpt lat="48.51658" lon="2.12507">
        <ele>97</ele>
        <time>2011-04-15T10:26:20Z</time>
      </trkpt>
      <trkpt lat="48.51656" lon="2.12504">
        <ele>96</ele>
        <time>2011-04-15T10:26:22Z</time>
      </trkpt>
      <trkpt lat="48.51654" lon="2.12501">
        <ele>96</ele>
        <time>2011-04-15T10:26:24Z</time>
      </trkpt>
      <trkpt lat="48.51653" lon="2.12499">
        <ele>96</ele>
        <time>2011-04-15T10:26:25Z</time>
      </trkpt>
      <trkpt lat="48.51652" lon="2.12498">
        <ele>96</ele>
        <time>2011-04-15T10:26:26Z</time>
      </trkpt>
      <trkpt lat="48.51651" lon="2.12497">
        <ele>96</ele>
        <time>2011-04-15T10:26:27Z</time>
      </trkpt>
      <trkpt lat="48.5165" lon="2.12495">
        <ele>96</ele>
        <time>2011-04-15T10:26:28Z</time>
      </trkpt>
      <trkpt lat="48.51648" lon="2.12494">
        <ele>96</ele>
        <time>2011-04-15T10:26:29Z</time>
      </trkpt>
      <trkpt lat="48.51646" lon="2.12491">
        <ele>96</ele>
        <time>2011-04-15T10:26:31Z</time>
      </trkpt>
      <trkpt lat="48.51644" lon="2.12489">
        <ele>96</ele>
        <time>2011-04-15T10:26:33Z</time>
      </trkpt>
      <trkpt lat="48.51642" lon="2.12486">
        <ele>96</ele>
        <time>2011-04-15T10:26:35Z</time>
      </trkpt>
      <trkpt lat="48.5164" lon="2.12482">
        <ele>95</ele>
        <time>2011-04-15T10:26:37Z</time>
      </trkpt>
      <trkpt lat="48.51639" lon="2.12481">
        <ele>95</ele>
        <time>2011-04-15T10:26:38Z</time>
      </trkpt>
      <trkpt lat="48.51638" lon="2.12479">
        <ele>95</ele>
        <time>2011-04-15T10:26:39Z</time>
      </trkpt>
      <trkpt lat="48.51636" lon="2.12476">
        <ele>95</ele>
        <time>2011-04-15T10:26:41Z</time>
      </trkpt>
      <trkpt lat="48.51635" lon="2.12475">
        <ele>95</ele>
        <time>2011-04-15T10:26:42Z</time>
      </trkpt>
      <trkpt lat="48.51633" lon="2.12472">
        <ele>95</ele>
        <time>2011-04-15T10:26:44Z</time>
      </trkpt>
      <trkpt lat="48.51631" lon="2.12469">
        <ele>95</ele>
        <time>2011-04-15T10:26:46Z</time>
      </trkpt>
      <trkpt lat="48.5163" lon="2.12467">
        <ele>94</ele>
        <time>2011-04-15T10:26:47Z</time>
      </trkpt>
      <trkpt lat="48.51629" lon="2.12466">
        <ele>94</ele>
        <time>2011-04-15T10:26:48Z</time>
      </trkpt>
      <trkpt lat="48.51628" lon="2.12464">
        <ele>94</ele>
        <time>2011-04-15T10:26:49Z</time>
      </trkpt>
      <trkpt lat="48.51627" lon="2.12462">
        <ele>94</ele>
        <time>2011-04-15T10:26:50Z</time>
      </trkpt>
      <trkpt lat="48.51626" lon="2.12461">
        <ele>94</ele>
        <time>2011-04-15T10:26:51Z</time>
      </trkpt>
      <trkpt lat="48.51623" lon="2.12458">
        <ele>93</ele>
        <time>2011-04-15T10:26:53Z</time>
      </trkpt>
      <trkpt lat="48.51622" lon="2.12456">
        <ele>93</ele>
        <time>2011-04-15T10:26:54Z</time>
      </trkpt>
      <trkpt lat="48.5162" lon="2.12453">
        <ele>93</ele>
        <time>2011-04-15T10:26:56Z</time>
      </trkpt>
      <trkpt lat="48.51619" lon="2.12451">
        <ele>93</ele>
        <time>2011-04-15T10:26:57Z</time>
      </trkpt>
      <trkpt lat="48.51617" lon="2.12448">
        <ele>93</ele>
        <time>2011-04-15T10:26:59Z</time>
      </trkpt>
      <trkpt lat="48.51615" lon="2.12446">
        <ele>93</ele>
        <time>2011-04-15T10:27:01Z</time>
      </trkpt>
      <trkpt lat="48.51613" lon="2.12443">
        <ele>93</ele>
        <time>2011-04-15T10:27:03Z</time>
      </trkpt>
      <trkpt lat="48.51611" lon="2.1244">
        <ele>93</ele>
        <time>2011-04-15T10:27:05Z</time>
      </trkpt>
      <trkpt lat="48.51609" lon="2.12437">
        <ele>93</ele>
        <time>2011-04-15T10:27:07Z</time>
      </trkpt>
      <trkpt lat="48.51608" lon="2.12435">
        <ele>93</ele>
        <time>2011-04-15T10:27:08Z</time>
      </trkpt>
      <trkpt lat="48.51607" lon="2.12433">
        <ele>93</ele>
        <time>2011-04-15T10:27:09Z</time>
      </trkpt>
      <trkpt lat="48.51605" lon="2.12431">
        <ele>93</ele>
        <time>2011-04-15T10:27:11Z</time>
      </trkpt>
      <trkpt lat="48.51604" lon="2.12429">
        <ele>93</ele>
        <time>2011-04-15T10:27:12Z</time>
      </trkpt>
      <trkpt lat="48.51603" lon="2.12427">
        <ele>93</ele>
        <time>2011-04-15T10:27:13Z</time>
      </trkpt>
      <trkpt lat="48.51602" lon="2.12426">
        <ele>93</ele>
        <time>2011-04-15T10:27:14Z</time>
      </trkpt>
      <trkpt lat="48.51601" lon="2.12424">
        <ele>93</ele>
        <time>2011-04-15T10:27:15Z</time>
      </trkpt>
      <trkpt lat="48.516" lon="2.12422">
        <ele>93</ele>
        <time>2011-04-15T10:27:16Z</time>
      </trkpt>
      <trkpt lat="48.51597" lon="2.1242">
        <ele>93</ele>
        <time>2011-04-15T10:27:18Z</time>
      </trkpt>
      <trkpt lat="48.51595" lon="2.12418">
        <ele>93</ele>
        <time>2011-04-15T10:27:19Z</time>
      </trkpt>
      <trkpt lat="48.51594" lon="2.12417">
        <ele>93</ele>
        <time>2011-04-15T10:27:20Z</time>
      </trkpt>
      <trkpt lat="48.51593" lon="2.12415">
        <ele>93</ele>
        <time>2011-04-15T10:27:21Z</time>
      </trkpt>
      <trkpt lat="48.51591" lon="2.12412">
        <ele>93</ele>
        <time>2011-04-15T10:27:23Z</time>
      </trkpt>
      <trkpt lat="48.51589" lon="2.12411">
        <ele>92</ele>
        <time>2011-04-15T10:27:24Z</time>
      </trkpt>
      <trkpt lat="48.51588" lon="2.12409">
        <ele>92</ele>
        <time>2011-04-15T10:27:25Z</time>
      </trkpt>
      <trkpt lat="48.51587" lon="2.12408">
        <ele>92</ele>
        <time>2011-04-15T10:27:26Z</time>
      </trkpt>
      <trkpt lat="48.51586" lon="2.12406">
        <ele>92</ele>
        <time>2011-04-15T10:27:27Z</time>
      </trkpt>
      <trkpt lat="48.51584" lon="2.12405">
        <ele>92</ele>
        <time>2011-04-15T10:27:28Z</time>
      </trkpt>
      <trkpt lat="48.51583" lon="2.12404">
        <ele>92</ele>
        <time>2011-04-15T10:27:29Z</time>
      </trkpt>
      <trkpt lat="48.51581" lon="2.12402">
        <ele>92</ele>
        <time>2011-04-15T10:27:30Z</time>
      </trkpt>
      <trkpt lat="48.51579" lon="2.12401">
        <ele>92</ele>
        <time>2011-04-15T10:27:31Z</time>
      </trkpt>
      <trkpt lat="48.51578" lon="2.12399">
        <ele>92</ele>
        <time>2011-04-15T10:27:32Z</time>
      </trkpt>
      <trkpt lat="48.51576" lon="2.12398">
        <ele>92</ele>
        <time>2011-04-15T10:27:33Z</time>
      </trkpt>
      <trkpt lat="48.51575" lon="2.12397">
        <ele>91</ele>
        <time>2011-04-15T10:27:34Z</time>
      </trkpt>
      <trkpt lat="48.51572" lon="2.12394">
        <ele>91</ele>
        <time>2011-04-15T10:27:36Z</time>
      </trkpt>
      <trkpt lat="48.51571" lon="2.12393">
        <ele>91</ele>
        <time>2011-04-15T10:27:37Z</time>
      </trkpt>
      <trkpt lat="48.5157" lon="2.12392">
        <ele>91</ele>
        <time>2011-04-15T10:27:38Z</time>
      </trkpt>
      <trkpt lat="48.51568" lon="2.12391">
        <ele>91</ele>
        <time>2011-04-15T10:27:39Z</time>
      </trkpt>
      <trkpt lat="48.51567" lon="2.1239">
        <ele>91</ele>
        <time>2011-04-15T10:27:40Z</time>
      </trkpt>
      <trkpt lat="48.51565" lon="2.12389">
        <ele>90</ele>
        <time>2011-04-15T10:27:41Z</time>
      </trkpt>
      <trkpt lat="48.51564" lon="2.12388">
        <ele>90</ele>
        <time>2011-04-15T10:27:42Z</time>
      </trkpt>
      <trkpt lat="48.51562" lon="2.12387">
        <ele>89</ele>
        <time>2011-04-15T10:27:43Z</time>
      </trkpt>
      <trkpt lat="48.51561" lon="2.12386">
        <ele>89</ele>
        <time>2011-04-15T10:27:44Z</time>
      </trkpt>
      <trkpt lat="48.5156" lon="2.12385">
        <ele>88</ele>
        <time>2011-04-15T10:27:45Z</time>
      </trkpt>
      <trkpt lat="48.51559" lon="2.12384">
        <ele>88</ele>
        <time>2011-04-15T10:27:46Z</time>
      </trkpt>
      <trkpt lat="48.51557" lon="2.12384">
        <ele>88</ele>
        <time>2011-04-15T10:27:47Z</time>
      </trkpt>
      <trkpt lat="48.51556" lon="2.12383">
        <ele>87</ele>
        <time>2011-04-15T10:27:48Z</time>
      </trkpt>
      <trkpt lat="48.51555" lon="2.12381">
        <ele>87</ele>
        <time>2011-04-15T10:27:49Z</time>
      </trkpt>
      <trkpt lat="48.51553" lon="2.1238">
        <ele>87</ele>
        <time>2011-04-15T10:27:50Z</time>
      </trkpt>
      <trkpt lat="48.51552" lon="2.12379">
        <ele>86</ele>
        <time>2011-04-15T10:27:51Z</time>
      </trkpt>
      <trkpt lat="48.51551" lon="2.12378">
        <ele>86</ele>
        <time>2011-04-15T10:27:52Z</time>
      </trkpt>
      <trkpt lat="48.51549" lon="2.12377">
        <ele>86</ele>
        <time>2011-04-15T10:27:53Z</time>
      </trkpt>
      <trkpt lat="48.51548" lon="2.12376">
        <ele>86</ele>
        <time>2011-04-15T10:27:54Z</time>
      </trkpt>
      <trkpt lat="48.51546" lon="2.12375">
        <ele>85</ele>
        <time>2011-04-15T10:27:55Z</time>
      </trkpt>
      <trkpt lat="48.51545" lon="2.12375">
        <ele>85</ele>
        <time>2011-04-15T10:27:56Z</time>
      </trkpt>
      <trkpt lat="48.51543" lon="2.12374">
        <ele>85</ele>
        <time>2011-04-15T10:27:57Z</time>
      </trkpt>
      <trkpt lat="48.51542" lon="2.12373">
        <ele>85</ele>
        <time>2011-04-15T10:27:58Z</time>
      </trkpt>
      <trkpt lat="48.5154" lon="2.12373">
        <ele>85</ele>
        <time>2011-04-15T10:27:59Z</time>
      </trkpt>
      <trkpt lat="48.51539" lon="2.12372">
        <ele>84</ele>
        <time>2011-04-15T10:28:00Z</time>
      </trkpt>
      <trkpt lat="48.51537" lon="2.12371">
        <ele>84</ele>
        <time>2011-04-15T10:28:01Z</time>
      </trkpt>
      <trkpt lat="48.51536" lon="2.12371">
        <ele>84</ele>
        <time>2011-04-15T10:28:02Z</time>
      </trkpt>
      <trkpt lat="48.51534" lon="2.1237">
        <ele>84</ele>
        <time>2011-04-15T10:28:03Z</time>
      </trkpt>
      <trkpt lat="48.51533" lon="2.1237">
        <ele>84</ele>
        <time>2011-04-15T10:28:04Z</time>
      </trkpt>
      <trkpt lat="48.51531" lon="2.12369">
        <ele>84</ele>
        <time>2011-04-15T10:28:05Z</time>
      </trkpt>
      <trkpt lat="48.5153" lon="2.12369">
        <ele>84</ele>
        <time>2011-04-15T10:28:06Z</time>
      </trkpt>
      <trkpt lat="48.51529" lon="2.12368">
        <ele>83</ele>
        <time>2011-04-15T10:28:07Z</time>
      </trkpt>
      <trkpt lat="48.51527" lon="2.12368">
        <ele>83</ele>
        <time>2011-04-15T10:28:08Z</time>
      </trkpt>
      <trkpt lat="48.51526" lon="2.12367">
        <ele>83</ele>
        <time>2011-04-15T10:28:09Z</time>
      </trkpt>
      <trkpt lat="48.51524" lon="2.12367">
        <ele>83</ele>
        <time>2011-04-15T10:28:10Z</time>
      </trkpt>
      <trkpt lat="48.51523" lon="2.12366">
        <ele>82</ele>
        <time>2011-04-15T10:28:11Z</time>
      </trkpt>
      <trkpt lat="48.51521" lon="2.12366">
        <ele>82</ele>
        <time>2011-04-15T10:28:12Z</time>
      </trkpt>
      <trkpt lat="48.5152" lon="2.12366">
        <ele>82</ele>
        <time>2011-04-15T10:28:13Z</time>
      </trkpt>
      <trkpt lat="48.51518" lon="2.12366">
        <ele>82</ele>
        <time>2011-04-15T10:28:14Z</time>
      </trkpt>
      <trkpt lat="48.51516" lon="2.12365">
        <ele>82</ele>
        <time>2011-04-15T10:28:15Z</time>
      </trkpt>
      <trkpt lat="48.51515" lon="2.12365">
        <ele>82</ele>
        <time>2011-04-15T10:28:16Z</time>
      </trkpt>
      <trkpt lat="48.51513" lon="2.12364">
        <ele>81</ele>
        <time>2011-04-15T10:28:17Z</time>
      </trkpt>
      <trkpt lat="48.51512" lon="2.12364">
        <ele>81</ele>
        <time>2011-04-15T10:28:18Z</time>
      </trkpt>
      <trkpt lat="48.5151" lon="2.12364">
        <ele>81</ele>
        <time>2011-04-15T10:28:19Z</time>
      </trkpt>
      <trkpt lat="48.51509" lon="2.12363">
        <ele>81</ele>
        <time>2011-04-15T10:28:20Z</time>
      </trkpt>
      <trkpt lat="48.51508" lon="2.12363">
        <ele>81</ele>
        <time>2011-04-15T10:28:21Z</time>
      </trkpt>
      <trkpt lat="48.51506" lon="2.12363">
        <ele>81</ele>
        <time>2011-04-15T10:28:22Z</time>
      </trkpt>
      <trkpt lat="48.51505" lon="2.12363">
        <ele>81</ele>
        <time>2011-04-15T10:28:23Z</time>
      </trkpt>
      <trkpt lat="48.51503" lon="2.12363">
        <ele>81</ele>
        <time>2011-04-15T10:28:24Z</time>
      </trkpt>
      <trkpt lat="48.51502" lon="2.12362">
        <ele>81</ele>
        <time>2011-04-15T10:28:25Z</time>
      </trkpt>
      <trkpt lat="48.515" lon="2.12361">
        <ele>81</ele>
        <time>2011-04-15T10:28:26Z</time>
      </trkpt>
      <trkpt lat="48.51499" lon="2.1236">
        <ele>81</ele>
        <time>2011-04-15T10:28:27Z</time>
      </trkpt>
      <trkpt lat="48.51496" lon="2.12358">
        <ele>81</ele>
        <time>2011-04-15T10:28:28Z</time>
      </trkpt>
      <trkpt lat="48.51494" lon="2.12357">
        <ele>81</ele>
        <time>2011-04-15T10:28:29Z</time>
      </trkpt>
      <trkpt lat="48.51492" lon="2.12356">
        <ele>81</ele>
        <time>2011-04-15T10:28:30Z</time>
      </trkpt>
      <trkpt lat="48.5149" lon="2.12356">
        <ele>81</ele>
        <time>2011-04-15T10:28:31Z</time>
      </trkpt>
      <trkpt lat="48.51488" lon="2.12355">
        <ele>81</ele>
        <time>2011-04-15T10:28:32Z</time>
      </trkpt>
      <trkpt lat="48.51487" lon="2.12354">
        <ele>81</ele>
        <time>2011-04-15T10:28:33Z</time>
      </trkpt>
      <trkpt lat="48.51486" lon="2.12353">
        <ele>81</ele>
        <time>2011-04-15T10:28:34Z</time>
      </trkpt>
      <trkpt lat="48.51484" lon="2.12352">
        <ele>81</ele>
        <time>2011-04-15T10:28:35Z</time>
      </trkpt>
      <trkpt lat="48.51483" lon="2.12351">
        <ele>81</ele>
        <time>2011-04-15T10:28:36Z</time>
      </trkpt>
      <trkpt lat="48.51481" lon="2.1235">
        <ele>81</ele>
        <time>2011-04-15T10:28:37Z</time>
      </trkpt>
      <trkpt lat="48.51479" lon="2.1235">
        <ele>81</ele>
        <time>2011-04-15T10:28:38Z</time>
      </trkpt>
      <trkpt lat="48.51478" lon="2.12349">
        <ele>81</ele>
        <time>2011-04-15T10:28:39Z</time>
      </trkpt>
      <trkpt lat="48.51476" lon="2.12348">
        <ele>81</ele>
        <time>2011-04-15T10:28:40Z</time>
      </trkpt>
      <trkpt lat="48.51475" lon="2.12348">
        <ele>81</ele>
        <time>2011-04-15T10:28:41Z</time>
      </trkpt>
      <trkpt lat="48.51473" lon="2.12347">
        <ele>81</ele>
        <time>2011-04-15T10:28:42Z</time>
      </trkpt>
      <trkpt lat="48.51471" lon="2.12347">
        <ele>81</ele>
        <time>2011-04-15T10:28:43Z</time>
      </trkpt>
      <trkpt lat="48.5147" lon="2.12346">
        <ele>81</ele>
        <time>2011-04-15T10:28:44Z</time>
      </trkpt>
      <trkpt lat="48.51468" lon="2.12346">
        <ele>81</ele>
        <time>2011-04-15T10:28:45Z</time>
      </trkpt>
      <trkpt lat="48.51467" lon="2.12345">
        <ele>81</ele>
        <time>2011-04-15T10:28:46Z</time>
      </trkpt>
      <trkpt lat="48.51465" lon="2.12344">
        <ele>81</ele>
        <time>2011-04-15T10:28:47Z</time>
      </trkpt>
      <trkpt lat="48.51464" lon="2.12343">
        <ele>81</ele>
        <time>2011-04-15T10:28:48Z</time>
      </trkpt>
      <trkpt lat="48.51463" lon="2.12342">
        <ele>81</ele>
        <time>2011-04-15T10:28:49Z</time>
      </trkpt>
      <trkpt lat="48.51461" lon="2.12341">
        <ele>81</ele>
        <time>2011-04-15T10:28:50Z</time>
      </trkpt>
      <trkpt lat="48.5146" lon="2.1234">
        <ele>81</ele>
        <time>2011-04-15T10:28:51Z</time>
      </trkpt>
      <trkpt lat="48.51458" lon="2.1234">
        <ele>81</ele>
        <time>2011-04-15T10:28:52Z</time>
      </trkpt>
      <trkpt lat="48.51457" lon="2.12339">
        <ele>81</ele>
        <time>2011-04-15T10:28:53Z</time>
      </trkpt>
      <trkpt lat="48.51456" lon="2.12338">
        <ele>82</ele>
        <time>2011-04-15T10:28:54Z</time>
      </trkpt>
      <trkpt lat="48.51454" lon="2.12337">
        <ele>82</ele>
        <time>2011-04-15T10:28:55Z</time>
      </trkpt>
      <trkpt lat="48.51452" lon="2.12336">
        <ele>82</ele>
        <time>2011-04-15T10:28:56Z</time>
      </trkpt>
      <trkpt lat="48.51451" lon="2.12334">
        <ele>83</ele>
        <time>2011-04-15T10:28:57Z</time>
      </trkpt>
      <trkpt lat="48.5145" lon="2.12333">
        <ele>83</ele>
        <time>2011-04-15T10:28:58Z</time>
      </trkpt>
      <trkpt lat="48.51449" lon="2.12332">
        <ele>83</ele>
        <time>2011-04-15T10:28:59Z</time>
      </trkpt>
      <trkpt lat="48.51447" lon="2.12332">
        <ele>83</ele>
        <time>2011-04-15T10:29:00Z</time>
      </trkpt>
      <trkpt lat="48.51446" lon="2.12331">
        <ele>83</ele>
        <time>2011-04-15T10:29:01Z</time>
      </trkpt>
      <trkpt lat="48.51444" lon="2.12329">
        <ele>83</ele>
        <time>2011-04-15T10:29:03Z</time>
      </trkpt>
      <trkpt lat="48.51442" lon="2.12327">
        <ele>83</ele>
        <time>2011-04-15T10:29:05Z</time>
      </trkpt>
      <trkpt lat="48.5144" lon="2.12327">
        <ele>83</ele>
        <time>2011-04-15T10:29:07Z</time>
      </trkpt>
      <trkpt lat="48.51439" lon="2.12326">
        <ele>83</ele>
        <time>2011-04-15T10:29:09Z</time>
      </trkpt>
      <trkpt lat="48.51437" lon="2.12326">
        <ele>83</ele>
        <time>2011-04-15T10:29:11Z</time>
      </trkpt>
      <trkpt lat="48.51435" lon="2.12326">
        <ele>83</ele>
        <time>2011-04-15T10:29:13Z</time>
      </trkpt>
      <trkpt lat="48.51433" lon="2.12328">
        <ele>83</ele>
        <time>2011-04-15T10:29:15Z</time>
      </trkpt>
      <trkpt lat="48.51432" lon="2.12331">
        <ele>83</ele>
        <time>2011-04-15T10:29:17Z</time>
      </trkpt>
      <trkpt lat="48.51432" lon="2.12334">
        <ele>83</ele>
        <time>2011-04-15T10:29:19Z</time>
      </trkpt>
      <trkpt lat="48.51431" lon="2.12336">
        <ele>83</ele>
        <time>2011-04-15T10:29:20Z</time>
      </trkpt>
      <trkpt lat="48.51431" lon="2.12338">
        <ele>83</ele>
        <time>2011-04-15T10:29:21Z</time>
      </trkpt>
      <trkpt lat="48.5143" lon="2.1234">
        <ele>83</ele>
        <time>2011-04-15T10:29:22Z</time>
      </trkpt>
      <trkpt lat="48.5143" lon="2.12342">
        <ele>83</ele>
        <time>2011-04-15T10:29:23Z</time>
      </trkpt>
      <trkpt lat="48.5143" lon="2.12344">
        <ele>83</ele>
        <time>2011-04-15T10:29:24Z</time>
      </trkpt>
      <trkpt lat="48.5143" lon="2.12346">
        <ele>83</ele>
        <time>2011-04-15T10:29:25Z</time>
      </trkpt>
      <trkpt lat="48.5143" lon="2.12348">
        <ele>83</ele>
        <time>2011-04-15T10:29:26Z</time>
      </trkpt>
      <trkpt lat="48.5143" lon="2.12351">
        <ele>83</ele>
        <time>2011-04-15T10:29:27Z</time>
      </trkpt>
      <trkpt lat="48.5143" lon="2.12353">
        <ele>83</ele>
        <time>2011-04-15T10:29:28Z</time>
      </trkpt>
      <trkpt lat="48.5143" lon="2.12355">
        <ele>83</ele>
        <time>2011-04-15T10:29:29Z</time>
      </trkpt>
      <trkpt lat="48.5143" lon="2.12357">
        <ele>83</ele>
        <time>2011-04-15T10:29:30Z</time>
      </trkpt>
      <trkpt lat="48.5143" lon="2.12359">
        <ele>83</ele>
        <time>2011-04-15T10:29:31Z</time>
      </trkpt>
      <trkpt lat="48.51429" lon="2.12362">
        <ele>83</ele>
        <time>2011-04-15T10:29:32Z</time>
      </trkpt>
      <trkpt lat="48.51429" lon="2.12364">
        <ele>83</ele>
        <time>2011-04-15T10:29:33Z</time>
      </trkpt>
      <trkpt lat="48.51429" lon="2.12366">
        <ele>83</ele>
        <time>2011-04-15T10:29:34Z</time>
      </trkpt>
      <trkpt lat="48.51429" lon="2.12369">
        <ele>83</ele>
        <time>2011-04-15T10:29:35Z</time>
      </trkpt>
      <trkpt lat="48.51429" lon="2.12371">
        <ele>83</ele>
        <time>2011-04-15T10:29:36Z</time>
      </trkpt>
      <trkpt lat="48.51429" lon="2.12373">
        <ele>83</ele>
        <time>2011-04-15T10:29:37Z</time>
      </trkpt>
      <trkpt lat="48.51429" lon="2.12375">
        <ele>83</ele>
        <time>2011-04-15T10:29:38Z</time>
      </trkpt>
      <trkpt lat="48.51429" lon="2.12377">
        <ele>83</ele>
        <time>2011-04-15T10:29:39Z</time>
      </trkpt>
      <trkpt lat="48.51429" lon="2.1238">
        <ele>83</ele>
        <time>2011-04-15T10:29:40Z</time>
      </trkpt>
      <trkpt lat="48.51429" lon="2.12382">
        <ele>83</ele>
        <time>2011-04-15T10:29:41Z</time>
      </trkpt>
      <trkpt lat="48.51429" lon="2.12384">
        <ele>83</ele>
        <time>2011-04-15T10:29:42Z</time>
      </trkpt>
      <trkpt lat="48.51428" lon="2.12386">
        <ele>83</ele>
        <time>2011-04-15T10:29:43Z</time>
      </trkpt>
      <trkpt lat="48.51428" lon="2.12389">
        <ele>83</ele>
        <time>2011-04-15T10:29:44Z</time>
      </trkpt>
      <trkpt lat="48.51428" lon="2.12391">
        <ele>83</ele>
        <time>2011-04-15T10:29:45Z</time>
      </trkpt>
      <trkpt lat="48.51428" lon="2.12393">
        <ele>83</ele>
        <time>2011-04-15T10:29:46Z</time>
      </trkpt>
      <trkpt lat="48.51428" lon="2.12395">
        <ele>83</ele>
        <time>2011-04-15T10:29:47Z</time>
      </trkpt>
      <trkpt lat="48.51428" lon="2.12397">
        <ele>83</ele>
        <time>2011-04-15T10:29:48Z</time>
      </trkpt>
      <trkpt lat="48.51428" lon="2.124">
        <ele>83</ele>
        <time>2011-04-15T10:29:49Z</time>
      </trkpt>
      <trkpt lat="48.51427" lon="2.12402">
        <ele>83</ele>
        <time>2011-04-15T10:29:50Z</time>
      </trkpt>
      <trkpt lat="48.51427" lon="2.12404">
        <ele>83</ele>
        <time>2011-04-15T10:29:51Z</time>
      </trkpt>
      <trkpt lat="48.51426" lon="2.12406">
        <ele>83</ele>
        <time>2011-04-15T10:29:52Z</time>
      </trkpt>
      <trkpt lat="48.51426" lon="2.12408">
        <ele>83</ele>
        <time>2011-04-15T10:29:53Z</time>
      </trkpt>
      <trkpt lat="48.51426" lon="2.1241">
        <ele>83</ele>
        <time>2011-04-15T10:29:54Z</time>
      </trkpt>
      <trkpt lat="48.51426" lon="2.12412">
        <ele>83</ele>
        <time>2011-04-15T10:29:55Z</time>
      </trkpt>
      <trkpt lat="48.51425" lon="2.12414">
        <ele>83</ele>
        <time>2011-04-15T10:29:56Z</time>
      </trkpt>
      <trkpt lat="48.51425" lon="2.12417">
        <ele>83</ele>
        <time>2011-04-15T10:29:57Z</time>
      </trkpt>
      <trkpt lat="48.51425" lon="2.12419">
        <ele>83</ele>
        <time>2011-04-15T10:29:58Z</time>
      </trkpt>
      <trkpt lat="48.51424" lon="2.12421">
        <ele>83</ele>
        <time>2011-04-15T10:29:59Z</time>
      </trkpt>
      <trkpt lat="48.51424" lon="2.12424">
        <ele>83</ele>
        <time>2011-04-15T10:30:00Z</time>
      </trkpt>
      <trkpt lat="48.51424" lon="2.12426">
        <ele>83</ele>
        <time>2011-04-15T10:30:01Z</time>
      </trkpt>
      <trkpt lat="48.51424" lon="2.12428">
        <ele>83</ele>
        <time>2011-04-15T10:30:02Z</time>
      </trkpt>
      <trkpt lat="48.51423" lon="2.1243">
        <ele>83</ele>
        <time>2011-04-15T10:30:03Z</time>
      </trkpt>
      <trkpt lat="48.51423" lon="2.12432">
        <ele>83</ele>
        <time>2011-04-15T10:30:04Z</time>
      </trkpt>
      <trkpt lat="48.51423" lon="2.12434">
        <ele>83</ele>
        <time>2011-04-15T10:30:05Z</time>
      </trkpt>
      <trkpt lat="48.51423" lon="2.12436">
        <ele>83</ele>
        <time>2011-04-15T10:30:06Z</time>
      </trkpt>
      <trkpt lat="48.51423" lon="2.12438">
        <ele>83</ele>
        <time>2011-04-15T10:30:07Z</time>
      </trkpt>
      <trkpt lat="48.51422" lon="2.12441">
        <ele>83</ele>
        <time>2011-04-15T10:30:08Z</time>
      </trkpt>
      <trkpt lat="48.51422" lon="2.12443">
        <ele>83</ele>
        <time>2011-04-15T10:30:09Z</time>
      </trkpt>
      <trkpt lat="48.51421" lon="2.12445">
        <ele>83</ele>
        <time>2011-04-15T10:30:10Z</time>
      </trkpt>
      <trkpt lat="48.51421" lon="2.12447">
        <ele>83</ele>
        <time>2011-04-15T10:30:11Z</time>
      </trkpt>
      <trkpt lat="48.5142" lon="2.12449">
        <ele>83</ele>
        <time>2011-04-15T10:30:12Z</time>
      </trkpt>
      <trkpt lat="48.5142" lon="2.12451">
        <ele>83</ele>
        <time>2011-04-15T10:30:13Z</time>
      </trkpt>
      <trkpt lat="48.51419" lon="2.12453">
        <ele>83</ele>
        <time>2011-04-15T10:30:14Z</time>
      </trkpt>
      <trkpt lat="48.51419" lon="2.12455">
        <ele>83</ele>
        <time>2011-04-15T10:30:15Z</time>
      </trkpt>
      <trkpt lat="48.51418" lon="2.12458">
        <ele>83</ele>
        <time>2011-04-15T10:30:16Z</time>
      </trkpt>
      <trkpt lat="48.51417" lon="2.12461">
        <ele>83</ele>
        <time>2011-04-15T10:30:17Z</time>
      </trkpt>
      <trkpt lat="48.51415" lon="2.12464">
        <ele>83</ele>
        <time>2011-04-15T10:30:18Z</time>
      </trkpt>
      <trkpt lat="48.51414" lon="2.12467">
        <ele>83</ele>
        <time>2011-04-15T10:30:19Z</time>
      </trkpt>
      <trkpt lat="48.51413" lon="2.1247">
        <ele>83</ele>
        <time>2011-04-15T10:30:20Z</time>
      </trkpt>
      <trkpt lat="48.51412" lon="2.12472">
        <ele>83</ele>
        <time>2011-04-15T10:30:21Z</time>
      </trkpt>
      <trkpt lat="48.51411" lon="2.12475">
        <ele>83</ele>
        <time>2011-04-15T10:30:22Z</time>
      </trkpt>
      <trkpt lat="48.5141" lon="2.12477">
        <ele>83</ele>
        <time>2011-04-15T10:30:23Z</time>
      </trkpt>
      <trkpt lat="48.51409" lon="2.12479">
        <ele>83</ele>
        <time>2011-04-15T10:30:24Z</time>
      </trkpt>
      <trkpt lat="48.51408" lon="2.12481">
        <ele>83</ele>
        <time>2011-04-15T10:30:25Z</time>
      </trkpt>
      <trkpt lat="48.51407" lon="2.12484">
        <ele>83</ele>
        <time>2011-04-15T10:30:26Z</time>
      </trkpt>
      <trkpt lat="48.51405" lon="2.12486">
        <ele>83</ele>
        <time>2011-04-15T10:30:27Z</time>
      </trkpt>
      <trkpt lat="48.51405" lon="2.12488">
        <ele>83</ele>
        <time>2011-04-15T10:30:28Z</time>
      </trkpt>
      <trkpt lat="48.51404" lon="2.1249">
        <ele>83</ele>
        <time>2011-04-15T10:30:29Z</time>
      </trkpt>
      <trkpt lat="48.51403" lon="2.12492">
        <ele>83</ele>
        <time>2011-04-15T10:30:30Z</time>
      </trkpt>
      <trkpt lat="48.51402" lon="2.12494">
        <ele>83</ele>
        <time>2011-04-15T10:30:31Z</time>
      </trkpt>
      <trkpt lat="48.51401" lon="2.12496">
        <ele>83</ele>
        <time>2011-04-15T10:30:32Z</time>
      </trkpt>
      <trkpt lat="48.514" lon="2.12498">
        <ele>83</ele>
        <time>2011-04-15T10:30:33Z</time>
      </trkpt>
      <trkpt lat="48.51399" lon="2.12499">
        <ele>83</ele>
        <time>2011-04-15T10:30:34Z</time>
      </trkpt>
      <trkpt lat="48.51397" lon="2.12502">
        <ele>83</ele>
        <time>2011-04-15T10:30:36Z</time>
      </trkpt>
      <trkpt lat="48.51396" lon="2.12504">
        <ele>83</ele>
        <time>2011-04-15T10:30:37Z</time>
      </trkpt>
      <trkpt lat="48.51394" lon="2.12507">
        <ele>83</ele>
        <time>2011-04-15T10:30:39Z</time>
      </trkpt>
      <trkpt lat="48.51391" lon="2.1251">
        <ele>83</ele>
        <time>2011-04-15T10:30:41Z</time>
      </trkpt>
      <trkpt lat="48.5139" lon="2.12511">
        <ele>83</ele>
        <time>2011-04-15T10:30:42Z</time>
      </trkpt>
      <trkpt lat="48.51388" lon="2.12514">
        <ele>83</ele>
        <time>2011-04-15T10:30:44Z</time>
      </trkpt>
      <trkpt lat="48.51386" lon="2.12517">
        <ele>83</ele>
        <time>2011-04-15T10:30:46Z</time>
      </trkpt>
      <trkpt lat="48.51385" lon="2.12518">
        <ele>83</ele>
        <time>2011-04-15T10:30:47Z</time>
      </trkpt>
      <trkpt lat="48.51383" lon="2.1252">
        <ele>83</ele>
        <time>2011-04-15T10:30:48Z</time>
      </trkpt>
      <trkpt lat="48.51382" lon="2.12521">
        <ele>83</ele>
        <time>2011-04-15T10:30:49Z</time>
      </trkpt>
      <trkpt lat="48.51381" lon="2.12523">
        <ele>83</ele>
        <time>2011-04-15T10:30:50Z</time>
      </trkpt>
      <trkpt lat="48.5138" lon="2.12524">
        <ele>83</ele>
        <time>2011-04-15T10:30:51Z</time>
      </trkpt>
      <trkpt lat="48.51379" lon="2.12526">
        <ele>83</ele>
        <time>2011-04-15T10:30:52Z</time>
      </trkpt>
      <trkpt lat="48.51377" lon="2.12528">
        <ele>83</ele>
        <time>2011-04-15T10:30:53Z</time>
      </trkpt>
      <trkpt lat="48.51376" lon="2.12529">
        <ele>83</ele>
        <time>2011-04-15T10:30:54Z</time>
      </trkpt>
      <trkpt lat="48.51375" lon="2.1253">
        <ele>83</ele>
        <time>2011-04-15T10:30:55Z</time>
      </trkpt>
      <trkpt lat="48.51374" lon="2.12532">
        <ele>83</ele>
        <time>2011-04-15T10:30:56Z</time>
      </trkpt>
      <trkpt lat="48.51372" lon="2.12534">
        <ele>83</ele>
        <time>2011-04-15T10:30:57Z</time>
      </trkpt>
      <trkpt lat="48.5137" lon="2.12537">
        <ele>83</ele>
        <time>2011-04-15T10:30:59Z</time>
      </trkpt>
      <trkpt lat="48.51368" lon="2.1254">
        <ele>83</ele>
        <time>2011-04-15T10:31:01Z</time>
      </trkpt>
      <trkpt lat="48.51367" lon="2.12542">
        <ele>83</ele>
        <time>2011-04-15T10:31:02Z</time>
      </trkpt>
      <trkpt lat="48.51365" lon="2.12545">
        <ele>83</ele>
        <time>2011-04-15T10:31:04Z</time>
      </trkpt>
      <trkpt lat="48.51364" lon="2.12548">
        <ele>83</ele>
        <time>2011-04-15T10:31:06Z</time>
      </trkpt>
      <trkpt lat="48.51362" lon="2.12551">
        <ele>83</ele>
        <time>2011-04-15T10:31:08Z</time>
      </trkpt>
      <trkpt lat="48.51361" lon="2.12552">
        <ele>83</ele>
        <time>2011-04-15T10:31:09Z</time>
      </trkpt>
      <trkpt lat="48.51359" lon="2.12554">
        <ele>83</ele>
        <time>2011-04-15T10:31:10Z</time>
      </trkpt>
      <trkpt lat="48.51358" lon="2.12556">
        <ele>83</ele>
        <time>2011-04-15T10:31:11Z</time>
      </trkpt>
      <trkpt lat="48.51357" lon="2.12557">
        <ele>83</ele>
        <time>2011-04-15T10:31:12Z</time>
      </trkpt>
      <trkpt lat="48.51355" lon="2.12559">
        <ele>83</ele>
        <time>2011-04-15T10:31:14Z</time>
      </trkpt>
      <trkpt lat="48.51354" lon="2.12561">
        <ele>83</ele>
        <time>2011-04-15T10:31:15Z</time>
      </trkpt>
      <trkpt lat="48.51353" lon="2.12562">
        <ele>83</ele>
        <time>2011-04-15T10:31:16Z</time>
      </trkpt>
      <trkpt lat="48.51352" lon="2.12563">
        <ele>83</ele>
        <time>2011-04-15T10:31:17Z</time>
      </trkpt>
      <trkpt lat="48.51351" lon="2.12564">
        <ele>83</ele>
        <time>2011-04-15T10:31:18Z</time>
      </trkpt>
      <trkpt lat="48.51349" lon="2.12565">
        <ele>83</ele>
        <time>2011-04-15T10:31:19Z</time>
      </trkpt>
      <trkpt lat="48.51348" lon="2.12566">
        <ele>83</ele>
        <time>2011-04-15T10:31:20Z</time>
      </trkpt>
      <trkpt lat="48.51347" lon="2.12568">
        <ele>83</ele>
        <time>2011-04-15T10:31:21Z</time>
      </trkpt>
      <trkpt lat="48.51346" lon="2.12569">
        <ele>83</ele>
        <time>2011-04-15T10:31:22Z</time>
      </trkpt>
      <trkpt lat="48.51344" lon="2.12571">
        <ele>83</ele>
        <time>2011-04-15T10:31:23Z</time>
      </trkpt>
      <trkpt lat="48.51342" lon="2.12573">
        <ele>83</ele>
        <time>2011-04-15T10:31:25Z</time>
      </trkpt>
      <trkpt lat="48.51341" lon="2.12574">
        <ele>83</ele>
        <time>2011-04-15T10:31:26Z</time>
      </trkpt>
      <trkpt lat="48.51338" lon="2.12576">
        <ele>83</ele>
        <time>2011-04-15T10:31:28Z</time>
      </trkpt>
      <trkpt lat="48.51336" lon="2.12578">
        <ele>83</ele>
        <time>2011-04-15T10:31:30Z</time>
      </trkpt>
      <trkpt lat="48.51334" lon="2.1258">
        <ele>83</ele>
        <time>2011-04-15T10:31:32Z</time>
      </trkpt>
      <trkpt lat="48.51333" lon="2.12581">
        <ele>83</ele>
        <time>2011-04-15T10:31:33Z</time>
      </trkpt>
      <trkpt lat="48.51332" lon="2.12582">
        <ele>83</ele>
        <time>2011-04-15T10:31:34Z</time>
      </trkpt>
      <trkpt lat="48.51331" lon="2.12583">
        <ele>83</ele>
        <time>2011-04-15T10:31:35Z</time>
      </trkpt>
      <trkpt lat="48.51329" lon="2.12584">
        <ele>83</ele>
        <time>2011-04-15T10:31:36Z</time>
      </trkpt>
      <trkpt lat="48.51328" lon="2.12585">
        <ele>83</ele>
        <time>2011-04-15T10:31:37Z</time>
      </trkpt>
      <trkpt lat="48.51327" lon="2.12586">
        <ele>83</ele>
        <time>2011-04-15T10:31:38Z</time>
      </trkpt>
      <trkpt lat="48.51326" lon="2.12587">
        <ele>83</ele>
        <time>2011-04-15T10:31:39Z</time>
      </trkpt>
      <trkpt lat="48.51324" lon="2.12588">
        <ele>83</ele>
        <time>2011-04-15T10:31:40Z</time>
      </trkpt>
      <trkpt lat="48.51323" lon="2.12589">
        <ele>83</ele>
        <time>2011-04-15T10:31:41Z</time>
      </trkpt>
      <trkpt lat="48.51322" lon="2.1259">
        <ele>83</ele>
        <time>2011-04-15T10:31:42Z</time>
      </trkpt>
      <trkpt lat="48.51321" lon="2.12591">
        <ele>83</ele>
        <time>2011-04-15T10:31:43Z</time>
      </trkpt>
      <trkpt lat="48.51319" lon="2.12592">
        <ele>83</ele>
        <time>2011-04-15T10:31:44Z</time>
      </trkpt>
      <trkpt lat="48.51318" lon="2.12593">
        <ele>83</ele>
        <time>2011-04-15T10:31:45Z</time>
      </trkpt>
      <trkpt lat="48.51316" lon="2.12594">
        <ele>83</ele>
        <time>2011-04-15T10:31:46Z</time>
      </trkpt>
      <trkpt lat="48.51315" lon="2.12595">
        <ele>83</ele>
        <time>2011-04-15T10:31:47Z</time>
      </trkpt>
      <trkpt lat="48.51313" lon="2.12595">
        <ele>83</ele>
        <time>2011-04-15T10:31:48Z</time>
      </trkpt>
      <trkpt lat="48.51312" lon="2.12596">
        <ele>83</ele>
        <time>2011-04-15T10:31:49Z</time>
      </trkpt>
      <trkpt lat="48.5131" lon="2.12597">
        <ele>83</ele>
        <time>2011-04-15T10:31:50Z</time>
      </trkpt>
      <trkpt lat="48.51309" lon="2.12597">
        <ele>83</ele>
        <time>2011-04-15T10:31:51Z</time>
      </trkpt>
      <trkpt lat="48.51307" lon="2.12597">
        <ele>83</ele>
        <time>2011-04-15T10:31:52Z</time>
      </trkpt>
      <trkpt lat="48.51306" lon="2.12597">
        <ele>83</ele>
        <time>2011-04-15T10:31:53Z</time>
      </trkpt>
      <trkpt lat="48.51304" lon="2.12596">
        <ele>83</ele>
        <time>2011-04-15T10:31:54Z</time>
      </trkpt>
      <trkpt lat="48.51303" lon="2.12595">
        <ele>83</ele>
        <time>2011-04-15T10:31:55Z</time>
      </trkpt>
      <trkpt lat="48.51302" lon="2.12593">
        <ele>83</ele>
        <time>2011-04-15T10:31:56Z</time>
      </trkpt>
      <trkpt lat="48.51301" lon="2.12592">
        <ele>83</ele>
        <time>2011-04-15T10:31:57Z</time>
      </trkpt>
      <trkpt lat="48.513" lon="2.12591">
        <ele>83</ele>
        <time>2011-04-15T10:31:58Z</time>
      </trkpt>
      <trkpt lat="48.51298" lon="2.12589">
        <ele>83</ele>
        <time>2011-04-15T10:31:59Z</time>
      </trkpt>
      <trkpt lat="48.51297" lon="2.12587">
        <ele>83</ele>
        <time>2011-04-15T10:32:00Z</time>
      </trkpt>
      <trkpt lat="48.51295" lon="2.12584">
        <ele>83</ele>
        <time>2011-04-15T10:32:02Z</time>
      </trkpt>
      <trkpt lat="48.51294" lon="2.12582">
        <ele>83</ele>
        <time>2011-04-15T10:32:03Z</time>
      </trkpt>
      <trkpt lat="48.51293" lon="2.12581">
        <ele>83</ele>
        <time>2011-04-15T10:32:04Z</time>
      </trkpt>
      <trkpt lat="48.51292" lon="2.12579">
        <ele>83</ele>
        <time>2011-04-15T10:32:05Z</time>
      </trkpt>
      <trkpt lat="48.51291" lon="2.12577">
        <ele>83</ele>
        <time>2011-04-15T10:32:06Z</time>
      </trkpt>
      <trkpt lat="48.5129" lon="2.12575">
        <ele>83</ele>
        <time>2011-04-15T10:32:07Z</time>
      </trkpt>
      <trkpt lat="48.51289" lon="2.12574">
        <ele>83</ele>
        <time>2011-04-15T10:32:08Z</time>
      </trkpt>
      <trkpt lat="48.51289" lon="2.12572">
        <ele>83</ele>
        <time>2011-04-15T10:32:09Z</time>
      </trkpt>
      <trkpt lat="48.51288" lon="2.1257">
        <ele>83</ele>
        <time>2011-04-15T10:32:10Z</time>
      </trkpt>
      <trkpt lat="48.51287" lon="2.12568">
        <ele>83</ele>
        <time>2011-04-15T10:32:11Z</time>
      </trkpt>
      <trkpt lat="48.51286" lon="2.12566">
        <ele>83</ele>
        <time>2011-04-15T10:32:12Z</time>
      </trkpt>
      <trkpt lat="48.51285" lon="2.12564">
        <ele>83</ele>
        <time>2011-04-15T10:32:13Z</time>
      </trkpt>
      <trkpt lat="48.51284" lon="2.12562">
        <ele>83</ele>
        <time>2011-04-15T10:32:14Z</time>
      </trkpt>
      <trkpt lat="48.51284" lon="2.1256">
        <ele>83</ele>
        <time>2011-04-15T10:32:15Z</time>
      </trkpt>
      <trkpt lat="48.51283" lon="2.12559">
        <ele>83</ele>
        <time>2011-04-15T10:32:16Z</time>
      </trkpt>
      <trkpt lat="48.51282" lon="2.12556">
        <ele>83</ele>
        <time>2011-04-15T10:32:17Z</time>
      </trkpt>
      <trkpt lat="48.51281" lon="2.12554">
        <ele>83</ele>
        <time>2011-04-15T10:32:18Z</time>
      </trkpt>
      <trkpt lat="48.51281" lon="2.12552">
        <ele>83</ele>
        <time>2011-04-15T10:32:19Z</time>
      </trkpt>
      <trkpt lat="48.5128" lon="2.1255">
        <ele>83</ele>
        <time>2011-04-15T10:32:20Z</time>
      </trkpt>
      <trkpt lat="48.51279" lon="2.12549">
        <ele>83</ele>
        <time>2011-04-15T10:32:21Z</time>
      </trkpt>
      <trkpt lat="48.51279" lon="2.12547">
        <ele>83</ele>
        <time>2011-04-15T10:32:22Z</time>
      </trkpt>
      <trkpt lat="48.51278" lon="2.12545">
        <ele>83</ele>
        <time>2011-04-15T10:32:23Z</time>
      </trkpt>
      <trkpt lat="48.51277" lon="2.12543">
        <ele>83</ele>
        <time>2011-04-15T10:32:24Z</time>
      </trkpt>
      <trkpt lat="48.51276" lon="2.12541">
        <ele>83</ele>
        <time>2011-04-15T10:32:25Z</time>
      </trkpt>
      <trkpt lat="48.51275" lon="2.12539">
        <ele>83</ele>
        <time>2011-04-15T10:32:26Z</time>
      </trkpt>
      <trkpt lat="48.51274" lon="2.12537">
        <ele>83</ele>
        <time>2011-04-15T10:32:27Z</time>
      </trkpt>
      <trkpt lat="48.51274" lon="2.12535">
        <ele>83</ele>
        <time>2011-04-15T10:32:28Z</time>
      </trkpt>
      <trkpt lat="48.51273" lon="2.12533">
        <ele>83</ele>
        <time>2011-04-15T10:32:29Z</time>
      </trkpt>
      <trkpt lat="48.51272" lon="2.12531">
        <ele>83</ele>
        <time>2011-04-15T10:32:30Z</time>
      </trkpt>
      <trkpt lat="48.51271" lon="2.12529">
        <ele>83</ele>
        <time>2011-04-15T10:32:31Z</time>
      </trkpt>
      <trkpt lat="48.5127" lon="2.12527">
        <ele>83</ele>
        <time>2011-04-15T10:32:32Z</time>
      </trkpt>
      <trkpt lat="48.5127" lon="2.12525">
        <ele>83</ele>
        <time>2011-04-15T10:32:33Z</time>
      </trkpt>
      <trkpt lat="48.51269" lon="2.12523">
        <ele>83</ele>
        <time>2011-04-15T10:32:34Z</time>
      </trkpt>
      <trkpt lat="48.51268" lon="2.12521">
        <ele>83</ele>
        <time>2011-04-15T10:32:35Z</time>
      </trkpt>
      <trkpt lat="48.51267" lon="2.1252">
        <ele>83</ele>
        <time>2011-04-15T10:32:36Z</time>
      </trkpt>
      <trkpt lat="48.51266" lon="2.12518">
        <ele>83</ele>
        <time>2011-04-15T10:32:37Z</time>
      </trkpt>
      <trkpt lat="48.51265" lon="2.12516">
        <ele>83</ele>
        <time>2011-04-15T10:32:38Z</time>
      </trkpt>
      <trkpt lat="48.51264" lon="2.12514">
        <ele>83</ele>
        <time>2011-04-15T10:32:39Z</time>
      </trkpt>
      <trkpt lat="48.51263" lon="2.12512">
        <ele>83</ele>
        <time>2011-04-15T10:32:40Z</time>
      </trkpt>
      <trkpt lat="48.51262" lon="2.1251">
        <ele>83</ele>
        <time>2011-04-15T10:32:41Z</time>
      </trkpt>
      <trkpt lat="48.51262" lon="2.12509">
        <ele>83</ele>
        <time>2011-04-15T10:32:42Z</time>
      </trkpt>
      <trkpt lat="48.51261" lon="2.12507">
        <ele>83</ele>
        <time>2011-04-15T10:32:43Z</time>
      </trkpt>
      <trkpt lat="48.5126" lon="2.12505">
        <ele>83</ele>
        <time>2011-04-15T10:32:44Z</time>
      </trkpt>
      <trkpt lat="48.51259" lon="2.12503">
        <ele>83</ele>
        <time>2011-04-15T10:32:45Z</time>
      </trkpt>
      <trkpt lat="48.51258" lon="2.12501">
        <ele>83</ele>
        <time>2011-04-15T10:32:46Z</time>
      </trkpt>
      <trkpt lat="48.51258" lon="2.125">
        <ele>83</ele>
        <time>2011-04-15T10:32:47Z</time>
      </trkpt>
      <trkpt lat="48.51257" lon="2.12497">
        <ele>83</ele>
        <time>2011-04-15T10:32:48Z</time>
      </trkpt>
      <trkpt lat="48.51256" lon="2.12496">
        <ele>83</ele>
        <time>2011-04-15T10:32:49Z</time>
      </trkpt>
      <trkpt lat="48.51255" lon="2.12494">
        <ele>83</ele>
        <time>2011-04-15T10:32:50Z</time>
      </trkpt>
      <trkpt lat="48.51255" lon="2.12492">
        <ele>83</ele>
        <time>2011-04-15T10:32:51Z</time>
      </trkpt>
      <trkpt lat="48.51254" lon="2.1249">
        <ele>83</ele>
        <time>2011-04-15T10:32:52Z</time>
      </trkpt>
      <trkpt lat="48.51253" lon="2.12488">
        <ele>83</ele>
        <time>2011-04-15T10:32:53Z</time>
      </trkpt>
      <trkpt lat="48.51252" lon="2.12486">
        <ele>83</ele>
        <time>2011-04-15T10:32:54Z</time>
      </trkpt>
      <trkpt lat="48.51252" lon="2.12484">
        <ele>83</ele>
        <time>2011-04-15T10:32:55Z</time>
      </trkpt>
      <trkpt lat="48.51251" lon="2.12483">
        <ele>83</ele>
        <time>2011-04-15T10:32:56Z</time>
      </trkpt>
      <trkpt lat="48.5125" lon="2.12481">
        <ele>83</ele>
        <time>2011-04-15T10:32:57Z</time>
      </trkpt>
      <trkpt lat="48.51249" lon="2.12477">
        <ele>83</ele>
        <time>2011-04-15T10:32:59Z</time>
      </trkpt>
      <trkpt lat="48.51248" lon="2.12476">
        <ele>83</ele>
        <time>2011-04-15T10:33:00Z</time>
      </trkpt>
      <trkpt lat="48.51247" lon="2.12474">
        <ele>83</ele>
        <time>2011-04-15T10:33:01Z</time>
      </trkpt>
      <trkpt lat="48.51246" lon="2.12472">
        <ele>83</ele>
        <time>2011-04-15T10:33:02Z</time>
      </trkpt>
      <trkpt lat="48.51245" lon="2.1247">
        <ele>83</ele>
        <time>2011-04-15T10:33:03Z</time>
      </trkpt>
      <trkpt lat="48.51244" lon="2.12468">
        <ele>83</ele>
        <time>2011-04-15T10:33:04Z</time>
      </trkpt>
      <trkpt lat="48.51244" lon="2.12466">
        <ele>83</ele>
        <time>2011-04-15T10:33:05Z</time>
      </trkpt>
      <trkpt lat="48.51244" lon="2.12464">
        <ele>83</ele>
        <time>2011-04-15T10:33:06Z</time>
      </trkpt>
      <trkpt lat="48.51243" lon="2.12462">
        <ele>83</ele>
        <time>2011-04-15T10:33:07Z</time>
      </trkpt>
      <trkpt lat="48.51242" lon="2.12459">
        <ele>83</ele>
        <time>2011-04-15T10:33:08Z</time>
      </trkpt>
      <trkpt lat="48.51242" lon="2.12458">
        <ele>83</ele>
        <time>2011-04-15T10:33:09Z</time>
      </trkpt>
      <trkpt lat="48.51241" lon="2.12456">
        <ele>83</ele>
        <time>2011-04-15T10:33:10Z</time>
      </trkpt>
      <trkpt lat="48.5124" lon="2.12454">
        <ele>83</ele>
        <time>2011-04-15T10:33:11Z</time>
      </trkpt>
      <trkpt lat="48.51239" lon="2.1245">
        <ele>83</ele>
        <time>2011-04-15T10:33:13Z</time>
      </trkpt>
      <trkpt lat="48.51238" lon="2.12447">
        <ele>83</ele>
        <time>2011-04-15T10:33:15Z</time>
      </trkpt>
      <trkpt lat="48.51237" lon="2.12445">
        <ele>83</ele>
        <time>2011-04-15T10:33:16Z</time>
      </trkpt>
      <trkpt lat="48.51236" lon="2.12443">
        <ele>83</ele>
        <time>2011-04-15T10:33:17Z</time>
      </trkpt>
      <trkpt lat="48.51236" lon="2.12441">
        <ele>83</ele>
        <time>2011-04-15T10:33:18Z</time>
      </trkpt>
      <trkpt lat="48.51234" lon="2.12438">
        <ele>83</ele>
        <time>2011-04-15T10:33:20Z</time>
      </trkpt>
      <trkpt lat="48.51234" lon="2.12436">
        <ele>83</ele>
        <time>2011-04-15T10:33:21Z</time>
      </trkpt>
      <trkpt lat="48.51233" lon="2.12434">
        <ele>83</ele>
        <time>2011-04-15T10:33:22Z</time>
      </trkpt>
      <trkpt lat="48.51232" lon="2.12432">
        <ele>83</ele>
        <time>2011-04-15T10:33:23Z</time>
      </trkpt>
      <trkpt lat="48.51232" lon="2.12431">
        <ele>83</ele>
        <time>2011-04-15T10:33:24Z</time>
      </trkpt>
      <trkpt lat="48.5123" lon="2.12427">
        <ele>83</ele>
        <time>2011-04-15T10:33:26Z</time>
      </trkpt>
      <trkpt lat="48.51229" lon="2.12426">
        <ele>83</ele>
        <time>2011-04-15T10:33:27Z</time>
      </trkpt>
      <trkpt lat="48.51229" lon="2.12424">
        <ele>83</ele>
        <time>2011-04-15T10:33:28Z</time>
      </trkpt>
      <trkpt lat="48.51228" lon="2.12423">
        <ele>83</ele>
        <time>2011-04-15T10:33:29Z</time>
      </trkpt>
      <trkpt lat="48.51225" lon="2.12421">
        <ele>83</ele>
        <time>2011-04-15T10:33:31Z</time>
      </trkpt>
      <trkpt lat="48.51224" lon="2.12419">
        <ele>83</ele>
        <time>2011-04-15T10:33:32Z</time>
      </trkpt>
      <trkpt lat="48.51224" lon="2.12417">
        <ele>83</ele>
        <time>2011-04-15T10:33:33Z</time>
      </trkpt>
      <trkpt lat="48.51221" lon="2.12414">
        <ele>83</ele>
        <time>2011-04-15T10:33:35Z</time>
      </trkpt>
      <trkpt lat="48.5122" lon="2.12413">
        <ele>83</ele>
        <time>2011-04-15T10:33:36Z</time>
      </trkpt>
      <trkpt lat="48.51218" lon="2.12411">
        <ele>83</ele>
        <time>2011-04-15T10:33:38Z</time>
      </trkpt>
      <trkpt lat="48.51217" lon="2.12411">
        <ele>83</ele>
        <time>2011-04-15T10:33:39Z</time>
      </trkpt>
      <trkpt lat="48.51215" lon="2.1241">
        <ele>83</ele>
        <time>2011-04-15T10:33:40Z</time>
      </trkpt>
      <trkpt lat="48.51214" lon="2.12409">
        <ele>83</ele>
        <time>2011-04-15T10:33:41Z</time>
      </trkpt>
      <trkpt lat="48.51213" lon="2.12408">
        <ele>83</ele>
        <time>2011-04-15T10:33:42Z</time>
      </trkpt>
      <trkpt lat="48.51211" lon="2.12406">
        <ele>83</ele>
        <time>2011-04-15T10:33:44Z</time>
      </trkpt>
      <trkpt lat="48.5121" lon="2.12405">
        <ele>83</ele>
        <time>2011-04-15T10:33:45Z</time>
      </trkpt>
      <trkpt lat="48.51207" lon="2.12402">
        <ele>83</ele>
        <time>2011-04-15T10:33:47Z</time>
      </trkpt>
      <trkpt lat="48.51206" lon="2.12401">
        <ele>83</ele>
        <time>2011-04-15T10:33:48Z</time>
      </trkpt>
      <trkpt lat="48.51205" lon="2.124">
        <ele>83</ele>
        <time>2011-04-15T10:33:49Z</time>
      </trkpt>
      <trkpt lat="48.51203" lon="2.12399">
        <ele>83</ele>
        <time>2011-04-15T10:33:50Z</time>
      </trkpt>
      <trkpt lat="48.51202" lon="2.12399">
        <ele>83</ele>
        <time>2011-04-15T10:33:51Z</time>
      </trkpt>
      <trkpt lat="48.51201" lon="2.12398">
        <ele>83</ele>
        <time>2011-04-15T10:33:52Z</time>
      </trkpt>
      <trkpt lat="48.512" lon="2.12397">
        <ele>83</ele>
        <time>2011-04-15T10:33:53Z</time>
      </trkpt>
      <trkpt lat="48.51198" lon="2.12396">
        <ele>83</ele>
        <time>2011-04-15T10:33:54Z</time>
      </trkpt>
      <trkpt lat="48.51197" lon="2.12395">
        <ele>83</ele>
        <time>2011-04-15T10:33:55Z</time>
      </trkpt>
      <trkpt lat="48.51196" lon="2.12394">
        <ele>83</ele>
        <time>2011-04-15T10:33:56Z</time>
      </trkpt>
      <trkpt lat="48.51194" lon="2.12394">
        <ele>83</ele>
        <time>2011-04-15T10:33:57Z</time>
      </trkpt>
      <trkpt lat="48.51193" lon="2.12393">
        <ele>83</ele>
        <time>2011-04-15T10:33:58Z</time>
      </trkpt>
      <trkpt lat="48.51191" lon="2.12393">
        <ele>83</ele>
        <time>2011-04-15T10:33:59Z</time>
      </trkpt>
      <trkpt lat="48.5119" lon="2.12392">
        <ele>83</ele>
        <time>2011-04-15T10:34:00Z</time>
      </trkpt>
      <trkpt lat="48.51189" lon="2.12391">
        <ele>83</ele>
        <time>2011-04-15T10:34:01Z</time>
      </trkpt>
      <trkpt lat="48.51187" lon="2.12391">
        <ele>83</ele>
        <time>2011-04-15T10:34:02Z</time>
      </trkpt>
      <trkpt lat="48.51186" lon="2.1239">
        <ele>83</ele>
        <time>2011-04-15T10:34:03Z</time>
      </trkpt>
      <trkpt lat="48.51185" lon="2.12389">
        <ele>83</ele>
        <time>2011-04-15T10:34:04Z</time>
      </trkpt>
      <trkpt lat="48.51183" lon="2.12388">
        <ele>84</ele>
        <time>2011-04-15T10:34:06Z</time>
      </trkpt>
      <trkpt lat="48.51182" lon="2.12386">
        <ele>84</ele>
        <time>2011-04-15T10:34:08Z</time>
      </trkpt>
      <trkpt lat="48.51182" lon="2.12384">
        <ele>84</ele>
        <time>2011-04-15T10:34:10Z</time>
      </trkpt>
      <trkpt lat="48.51182" lon="2.12382">
        <ele>84</ele>
        <time>2011-04-15T10:34:12Z</time>
      </trkpt>
      <trkpt lat="48.51181" lon="2.12383">
        <ele>84</ele>
        <time>2011-04-15T10:34:22Z</time>
      </trkpt>
      <trkpt lat="48.51181" lon="2.12381">
        <ele>85</ele>
        <time>2011-04-15T10:34:44Z</time>
      </trkpt>
      <trkpt lat="48.5118" lon="2.12379">
        <ele>85</ele>
        <time>2011-04-15T10:34:51Z</time>
      </trkpt>
      <trkpt lat="48.51179" lon="2.12377">
        <ele>86</ele>
        <time>2011-04-15T10:34:56Z</time>
      </trkpt>
      <trkpt lat="48.51178" lon="2.12375">
        <ele>86</ele>
        <time>2011-04-15T10:34:58Z</time>
      </trkpt>
      <trkpt lat="48.51179" lon="2.12377">
        <ele>87</ele>
        <time>2011-04-15T10:35:16Z</time>
      </trkpt>
      <trkpt lat="48.51177" lon="2.12378">
        <ele>88</ele>
        <time>2011-04-15T10:36:14Z</time>
      </trkpt>
      <trkpt lat="48.51179" lon="2.12377">
        <ele>88</ele>
        <time>2011-04-15T10:36:28Z</time>
      </trkpt>
      <trkpt lat="48.51179" lon="2.12378">
        <ele>88</ele>
        <time>2011-04-15T10:36:30Z</time>
      </trkpt>
      <trkpt lat="48.5118" lon="2.12377">
        <ele>88</ele>
        <time>2011-04-15T10:36:34Z</time>
      </trkpt>
      <trkpt lat="48.51181" lon="2.12378">
        <ele>88</ele>
        <time>2011-04-15T10:37:03Z</time>
      </trkpt>
      <trkpt lat="48.51181" lon="2.1238">
        <ele>88</ele>
        <time>2011-04-15T10:37:18Z</time>
      </trkpt>
      <trkpt lat="48.5118" lon="2.12379">
        <ele>88</ele>
        <time>2011-04-15T10:37:20Z</time>
      </trkpt>
      <trkpt lat="48.49462" lon="2.12052">
        <ele>92</ele>
        <time>2011-04-15T10:38:12Z</time>
      </trkpt>
      <trkpt lat="48.4946" lon="2.12052">
        <ele>92</ele>
        <time>2011-04-15T10:38:13Z</time>
      </trkpt>
      <trkpt lat="48.49459" lon="2.12052">
        <ele>92</ele>
        <time>2011-04-15T10:38:14Z</time>
      </trkpt>
      <trkpt lat="48.49458" lon="2.12053">
        <ele>92</ele>
        <time>2011-04-15T10:38:15Z</time>
      </trkpt>
      <trkpt lat="48.49456" lon="2.12053">
        <ele>92</ele>
        <time>2011-04-15T10:38:16Z</time>
      </trkpt>
      <trkpt lat="48.49455" lon="2.12054">
        <ele>92</ele>
        <time>2011-04-15T10:38:17Z</time>
      </trkpt>
      <trkpt lat="48.49453" lon="2.12055">
        <ele>92</ele>
        <time>2011-04-15T10:38:18Z</time>
      </trkpt>
      <trkpt lat="48.49452" lon="2.12056">
        <ele>92</ele>
        <time>2011-04-15T10:38:19Z</time>
      </trkpt>
      <trkpt lat="48.4945" lon="2.12056">
        <ele>92</ele>
        <time>2011-04-15T10:38:20Z</time>
      </trkpt>
      <trkpt lat="48.49449" lon="2.12057">
        <ele>92</ele>
        <time>2011-04-15T10:38:21Z</time>
      </trkpt>
      <trkpt lat="48.49447" lon="2.12058">
        <ele>92</ele>
        <time>2011-04-15T10:38:22Z</time>
      </trkpt>
      <trkpt lat="48.49444" lon="2.12059">
        <ele>92</ele>
        <time>2011-04-15T10:38:23Z</time>
      </trkpt>
      <trkpt lat="48.49442" lon="2.1206">
        <ele>92</ele>
        <time>2011-04-15T10:38:24Z</time>
      </trkpt>
      <trkpt lat="48.49439" lon="2.1206">
        <ele>92</ele>
        <time>2011-04-15T10:38:25Z</time>
      </trkpt>
      <trkpt lat="48.49437" lon="2.12061">
        <ele>92</ele>
        <time>2011-04-15T10:38:26Z</time>
      </trkpt>
      <trkpt lat="48.49435" lon="2.12062">
        <ele>92</ele>
        <time>2011-04-15T10:38:27Z</time>
      </trkpt>
      <trkpt lat="48.49433" lon="2.12062">
        <ele>92</ele>
        <time>2011-04-15T10:38:28Z</time>
      </trkpt>
      <trkpt lat="48.49431" lon="2.12063">
        <ele>92</ele>
        <time>2011-04-15T10:38:29Z</time>
      </trkpt>
      <trkpt lat="48.49429" lon="2.12064">
        <ele>92</ele>
        <time>2011-04-15T10:38:30Z</time>
      </trkpt>
      <trkpt lat="48.49428" lon="2.12064">
        <ele>92</ele>
        <time>2011-04-15T10:38:31Z</time>
      </trkpt>
      <trkpt lat="48.49427" lon="2.12065">
        <ele>92</ele>
        <time>2011-04-15T10:38:32Z</time>
      </trkpt>
      <trkpt lat="48.49425" lon="2.12066">
        <ele>92</ele>
        <time>2011-04-15T10:38:33Z</time>
      </trkpt>
      <trkpt lat="48.49424" lon="2.12066">
        <ele>92</ele>
        <time>2011-04-15T10:38:34Z</time>
      </trkpt>
      <trkpt lat="48.49422" lon="2.12067">
        <ele>92</ele>
        <time>2011-04-15T10:38:35Z</time>
      </trkpt>
      <trkpt lat="48.4942" lon="2.12068">
        <ele>92</ele>
        <time>2011-04-15T10:38:36Z</time>
      </trkpt>
      <trkpt lat="48.49419" lon="2.12068">
        <ele>92</ele>
        <time>2011-04-15T10:38:37Z</time>
      </trkpt>
      <trkpt lat="48.49417" lon="2.12069">
        <ele>92</ele>
        <time>2011-04-15T10:38:38Z</time>
      </trkpt>
      <trkpt lat="48.49416" lon="2.1207">
        <ele>92</ele>
        <time>2011-04-15T10:38:39Z</time>
      </trkpt>
      <trkpt lat="48.49414" lon="2.1207">
        <ele>92</ele>
        <time>2011-04-15T10:38:40Z</time>
      </trkpt>
      <trkpt lat="48.49413" lon="2.12071">
        <ele>92</ele>
        <time>2011-04-15T10:38:41Z</time>
      </trkpt>
      <trkpt lat="48.49411" lon="2.12072">
        <ele>92</ele>
        <time>2011-04-15T10:38:42Z</time>
      </trkpt>
      <trkpt lat="48.49409" lon="2.12073">
        <ele>92</ele>
        <time>2011-04-15T10:38:43Z</time>
      </trkpt>
      <trkpt lat="48.49408" lon="2.12073">
        <ele>92</ele>
        <time>2011-04-15T10:38:44Z</time>
      </trkpt>
      <trkpt lat="48.49406" lon="2.12074">
        <ele>92</ele>
        <time>2011-04-15T10:38:45Z</time>
      </trkpt>
      <trkpt lat="48.49405" lon="2.12075">
        <ele>92</ele>
        <time>2011-04-15T10:38:46Z</time>
      </trkpt>
      <trkpt lat="48.49403" lon="2.12076">
        <ele>92</ele>
        <time>2011-04-15T10:38:47Z</time>
      </trkpt>
      <trkpt lat="48.49402" lon="2.12077">
        <ele>92</ele>
        <time>2011-04-15T10:38:48Z</time>
      </trkpt>
      <trkpt lat="48.494" lon="2.12078">
        <ele>92</ele>
        <time>2011-04-15T10:38:49Z</time>
      </trkpt>
      <trkpt lat="48.49398" lon="2.12078">
        <ele>92</ele>
        <time>2011-04-15T10:38:50Z</time>
      </trkpt>
      <trkpt lat="48.49396" lon="2.12079">
        <ele>92</ele>
        <time>2011-04-15T10:38:51Z</time>
      </trkpt>
      <trkpt lat="48.49395" lon="2.1208">
        <ele>92</ele>
        <time>2011-04-15T10:38:52Z</time>
      </trkpt>
      <trkpt lat="48.49393" lon="2.12081">
        <ele>92</ele>
        <time>2011-04-15T10:38:53Z</time>
      </trkpt>
      <trkpt lat="48.49392" lon="2.12082">
        <ele>92</ele>
        <time>2011-04-15T10:38:54Z</time>
      </trkpt>
      <trkpt lat="48.4939" lon="2.12083">
        <ele>92</ele>
        <time>2011-04-15T10:38:55Z</time>
      </trkpt>
      <trkpt lat="48.49388" lon="2.12084">
        <ele>92</ele>
        <time>2011-04-15T10:38:56Z</time>
      </trkpt>
      <trkpt lat="48.49387" lon="2.12085">
        <ele>92</ele>
        <time>2011-04-15T10:38:57Z</time>
      </trkpt>
      <trkpt lat="48.49385" lon="2.12085">
        <ele>92</ele>
        <time>2011-04-15T10:38:58Z</time>
      </trkpt>
      <trkpt lat="48.49383" lon="2.12086">
        <ele>92</ele>
        <time>2011-04-15T10:38:59Z</time>
      </trkpt>
      <trkpt lat="48.49382" lon="2.12088">
        <ele>92</ele>
        <time>2011-04-15T10:39:00Z</time>
      </trkpt>
      <trkpt lat="48.4938" lon="2.12089">
        <ele>92</ele>
        <time>2011-04-15T10:39:01Z</time>
      </trkpt>
      <trkpt lat="48.49379" lon="2.1209">
        <ele>92</ele>
        <time>2011-04-15T10:39:02Z</time>
      </trkpt>
      <trkpt lat="48.49377" lon="2.1209">
        <ele>92</ele>
        <time>2011-04-15T10:39:03Z</time>
      </trkpt>
      <trkpt lat="48.49375" lon="2.12091">
        <ele>92</ele>
        <time>2011-04-15T10:39:04Z</time>
      </trkpt>
      <trkpt lat="48.49374" lon="2.12092">
        <ele>92</ele>
        <time>2011-04-15T10:39:05Z</time>
      </trkpt>
      <trkpt lat="48.49372" lon="2.12093">
        <ele>92</ele>
        <time>2011-04-15T10:39:06Z</time>
      </trkpt>
      <trkpt lat="48.4937" lon="2.12094">
        <ele>92</ele>
        <time>2011-04-15T10:39:07Z</time>
      </trkpt>
      <trkpt lat="48.49369" lon="2.12095">
        <ele>92</ele>
        <time>2011-04-15T10:39:08Z</time>
      </trkpt>
      <trkpt lat="48.49367" lon="2.12096">
        <ele>92</ele>
        <time>2011-04-15T10:39:09Z</time>
      </trkpt>
      <trkpt lat="48.49365" lon="2.12097">
        <ele>92</ele>
        <time>2011-04-15T10:39:10Z</time>
      </trkpt>
      <trkpt lat="48.49364" lon="2.12098">
        <ele>92</ele>
        <time>2011-04-15T10:39:11Z</time>
      </trkpt>
      <trkpt lat="48.49362" lon="2.12099">
        <ele>92</ele>
        <time>2011-04-15T10:39:12Z</time>
      </trkpt>
      <trkpt lat="48.49361" lon="2.12099">
        <ele>92</ele>
        <time>2011-04-15T10:39:13Z</time>
      </trkpt>
      <trkpt lat="48.49359" lon="2.121">
        <ele>92</ele>
        <time>2011-04-15T10:39:14Z</time>
      </trkpt>
      <trkpt lat="48.49357" lon="2.12101">
        <ele>92</ele>
        <time>2011-04-15T10:39:15Z</time>
      </trkpt>
      <trkpt lat="48.49355" lon="2.12101">
        <ele>92</ele>
        <time>2011-04-15T10:39:16Z</time>
      </trkpt>
      <trkpt lat="48.49354" lon="2.12102">
        <ele>92</ele>
        <time>2011-04-15T10:39:17Z</time>
      </trkpt>
      <trkpt lat="48.49352" lon="2.12103">
        <ele>92</ele>
        <time>2011-04-15T10:39:18Z</time>
      </trkpt>
      <trkpt lat="48.4935" lon="2.12104">
        <ele>92</ele>
        <time>2011-04-15T10:39:19Z</time>
      </trkpt>
      <trkpt lat="48.49349" lon="2.12104">
        <ele>92</ele>
        <time>2011-04-15T10:39:20Z</time>
      </trkpt>
      <trkpt lat="48.49347" lon="2.12105">
        <ele>92</ele>
        <time>2011-04-15T10:39:21Z</time>
      </trkpt>
      <trkpt lat="48.49345" lon="2.12106">
        <ele>92</ele>
        <time>2011-04-15T10:39:22Z</time>
      </trkpt>
      <trkpt lat="48.49344" lon="2.12106">
        <ele>92</ele>
        <time>2011-04-15T10:39:23Z</time>
      </trkpt>
      <trkpt lat="48.49342" lon="2.12107">
        <ele>92</ele>
        <time>2011-04-15T10:39:24Z</time>
      </trkpt>
      <trkpt lat="48.4934" lon="2.12107">
        <ele>92</ele>
        <time>2011-04-15T10:39:25Z</time>
      </trkpt>
      <trkpt lat="48.49339" lon="2.12108">
        <ele>92</ele>
        <time>2011-04-15T10:39:26Z</time>
      </trkpt>
      <trkpt lat="48.49337" lon="2.12108">
        <ele>92</ele>
        <time>2011-04-15T10:39:27Z</time>
      </trkpt>
      <trkpt lat="48.49335" lon="2.12108">
        <ele>92</ele>
        <time>2011-04-15T10:39:28Z</time>
      </trkpt>
      <trkpt lat="48.49334" lon="2.12109">
        <ele>92</ele>
        <time>2011-04-15T10:39:29Z</time>
      </trkpt>
      <trkpt lat="48.49332" lon="2.1211">
        <ele>92</ele>
        <time>2011-04-15T10:39:30Z</time>
      </trkpt>
      <trkpt lat="48.4933" lon="2.1211">
        <ele>92</ele>
        <time>2011-04-15T10:39:31Z</time>
      </trkpt>
      <trkpt lat="48.49329" lon="2.12111">
        <ele>92</ele>
        <time>2011-04-15T10:39:32Z</time>
      </trkpt>
      <trkpt lat="48.49327" lon="2.12112">
        <ele>92</ele>
        <time>2011-04-15T10:39:33Z</time>
      </trkpt>
      <trkpt lat="48.49325" lon="2.12113">
        <ele>92</ele>
        <time>2011-04-15T10:39:34Z</time>
      </trkpt>
      <trkpt lat="48.49323" lon="2.12114">
        <ele>92</ele>
        <time>2011-04-15T10:39:35Z</time>
      </trkpt>
      <trkpt lat="48.49322" lon="2.12115">
        <ele>92</ele>
        <time>2011-04-15T10:39:36Z</time>
      </trkpt>
      <trkpt lat="48.4932" lon="2.12115">
        <ele>92</ele>
        <time>2011-04-15T10:39:37Z</time>
      </trkpt>
      <trkpt lat="48.49318" lon="2.12116">
        <ele>92</ele>
        <time>2011-04-15T10:39:38Z</time>
      </trkpt>
      <trkpt lat="48.49316" lon="2.12117">
        <ele>92</ele>
        <time>2011-04-15T10:39:39Z</time>
      </trkpt>
      <trkpt lat="48.49315" lon="2.12117">
        <ele>92</ele>
        <time>2011-04-15T10:39:40Z</time>
      </trkpt>
      <trkpt lat="48.49313" lon="2.12118">
        <ele>92</ele>
        <time>2011-04-15T10:39:41Z</time>
      </trkpt>
      <trkpt lat="48.49311" lon="2.12119">
        <ele>92</ele>
        <time>2011-04-15T10:39:42Z</time>
      </trkpt>
      <trkpt lat="48.4931" lon="2.1212">
        <ele>93</ele>
        <time>2011-04-15T10:39:43Z</time>
      </trkpt>
      <trkpt lat="48.49309" lon="2.12121">
        <ele>93</ele>
        <time>2011-04-15T10:39:44Z</time>
      </trkpt>
      <trkpt lat="48.49307" lon="2.12121">
        <ele>93</ele>
        <time>2011-04-15T10:39:45Z</time>
      </trkpt>
      <trkpt lat="48.49305" lon="2.12122">
        <ele>93</ele>
        <time>2011-04-15T10:39:46Z</time>
      </trkpt>
      <trkpt lat="48.49304" lon="2.12123">
        <ele>93</ele>
        <time>2011-04-15T10:39:47Z</time>
      </trkpt>
      <trkpt lat="48.49302" lon="2.12123">
        <ele>93</ele>
        <time>2011-04-15T10:39:48Z</time>
      </trkpt>
      <trkpt lat="48.493" lon="2.12124">
        <ele>93</ele>
        <time>2011-04-15T10:39:49Z</time>
      </trkpt>
      <trkpt lat="48.49299" lon="2.12124">
        <ele>93</ele>
        <time>2011-04-15T10:39:50Z</time>
      </trkpt>
      <trkpt lat="48.49298" lon="2.12125">
        <ele>93</ele>
        <time>2011-04-15T10:39:51Z</time>
      </trkpt>
      <trkpt lat="48.49296" lon="2.12126">
        <ele>93</ele>
        <time>2011-04-15T10:39:52Z</time>
      </trkpt>
      <trkpt lat="48.49295" lon="2.12127">
        <ele>93</ele>
        <time>2011-04-15T10:39:53Z</time>
      </trkpt>
      <trkpt lat="48.49293" lon="2.12127">
        <ele>93</ele>
        <time>2011-04-15T10:39:54Z</time>
      </trkpt>
      <trkpt lat="48.49292" lon="2.12128">
        <ele>94</ele>
        <time>2011-04-15T10:39:55Z</time>
      </trkpt>
      <trkpt lat="48.49291" lon="2.12128">
        <ele>94</ele>
        <time>2011-04-15T10:39:56Z</time>
      </trkpt>
      <trkpt lat="48.49289" lon="2.12129">
        <ele>94</ele>
        <time>2011-04-15T10:39:57Z</time>
      </trkpt>
      <trkpt lat="48.49288" lon="2.1213">
        <ele>94</ele>
        <time>2011-04-15T10:39:58Z</time>
      </trkpt>
      <trkpt lat="48.49286" lon="2.1213">
        <ele>94</ele>
        <time>2011-04-15T10:39:59Z</time>
      </trkpt>
      <trkpt lat="48.49285" lon="2.12131">
        <ele>94</ele>
        <time>2011-04-15T10:40:00Z</time>
      </trkpt>
      <trkpt lat="48.49283" lon="2.12132">
        <ele>94</ele>
        <time>2011-04-15T10:40:01Z</time>
      </trkpt>
      <trkpt lat="48.49282" lon="2.12131">
        <ele>94</ele>
        <time>2011-04-15T10:40:02Z</time>
      </trkpt>
      <trkpt lat="48.4928" lon="2.12131">
        <ele>94</ele>
        <time>2011-04-15T10:40:03Z</time>
      </trkpt>
      <trkpt lat="48.49279" lon="2.12132">
        <ele>94</ele>
        <time>2011-04-15T10:40:04Z</time>
      </trkpt>
      <trkpt lat="48.49277" lon="2.12133">
        <ele>95</ele>
        <time>2011-04-15T10:40:05Z</time>
      </trkpt>
      <trkpt lat="48.49276" lon="2.12134">
        <ele>95</ele>
        <time>2011-04-15T10:40:06Z</time>
      </trkpt>
      <trkpt lat="48.49274" lon="2.12136">
        <ele>95</ele>
        <time>2011-04-15T10:40:07Z</time>
      </trkpt>
      <trkpt lat="48.49273" lon="2.12137">
        <ele>95</ele>
        <time>2011-04-15T10:40:08Z</time>
      </trkpt>
      <trkpt lat="48.49271" lon="2.12138">
        <ele>95</ele>
        <time>2011-04-15T10:40:09Z</time>
      </trkpt>
      <trkpt lat="48.49269" lon="2.12139">
        <ele>95</ele>
        <time>2011-04-15T10:40:10Z</time>
      </trkpt>
      <trkpt lat="48.49268" lon="2.1214">
        <ele>96</ele>
        <time>2011-04-15T10:40:11Z</time>
      </trkpt>
      <trkpt lat="48.49266" lon="2.12141">
        <ele>96</ele>
        <time>2011-04-15T10:40:12Z</time>
      </trkpt>
      <trkpt lat="48.49265" lon="2.12143">
        <ele>96</ele>
        <time>2011-04-15T10:40:13Z</time>
      </trkpt>
      <trkpt lat="48.49263" lon="2.12144">
        <ele>96</ele>
        <time>2011-04-15T10:40:14Z</time>
      </trkpt>
      <trkpt lat="48.49261" lon="2.12144">
        <ele>97</ele>
        <time>2011-04-15T10:40:15Z</time>
      </trkpt>
      <trkpt lat="48.49259" lon="2.12146">
        <ele>97</ele>
        <time>2011-04-15T10:40:16Z</time>
      </trkpt>
      <trkpt lat="48.49258" lon="2.12146">
        <ele>97</ele>
        <time>2011-04-15T10:40:17Z</time>
      </trkpt>
      <trkpt lat="48.49256" lon="2.12147">
        <ele>97</ele>
        <time>2011-04-15T10:40:18Z</time>
      </trkpt>
      <trkpt lat="48.49255" lon="2.12148">
        <ele>97</ele>
        <time>2011-04-15T10:40:19Z</time>
      </trkpt>
      <trkpt lat="48.49254" lon="2.12149">
        <ele>98</ele>
        <time>2011-04-15T10:40:20Z</time>
      </trkpt>
      <trkpt lat="48.49253" lon="2.1215">
        <ele>98</ele>
        <time>2011-04-15T10:40:21Z</time>
      </trkpt>
      <trkpt lat="48.49251" lon="2.12151">
        <ele>98</ele>
        <time>2011-04-15T10:40:22Z</time>
      </trkpt>
      <trkpt lat="48.4925" lon="2.12152">
        <ele>98</ele>
        <time>2011-04-15T10:40:23Z</time>
      </trkpt>
      <trkpt lat="48.49248" lon="2.12153">
        <ele>98</ele>
        <time>2011-04-15T10:40:24Z</time>
      </trkpt>
      <trkpt lat="48.49246" lon="2.12154">
        <ele>98</ele>
        <time>2011-04-15T10:40:25Z</time>
      </trkpt>
      <trkpt lat="48.49244" lon="2.12154">
        <ele>98</ele>
        <time>2011-04-15T10:40:26Z</time>
      </trkpt>
      <trkpt lat="48.49243" lon="2.12155">
        <ele>98</ele>
        <time>2011-04-15T10:40:27Z</time>
      </trkpt>
      <trkpt lat="48.49241" lon="2.12156">
        <ele>98</ele>
        <time>2011-04-15T10:40:28Z</time>
      </trkpt>
      <trkpt lat="48.49239" lon="2.12156">
        <ele>98</ele>
        <time>2011-04-15T10:40:29Z</time>
      </trkpt>
      <trkpt lat="48.49238" lon="2.12157">
        <ele>98</ele>
        <time>2011-04-15T10:40:30Z</time>
      </trkpt>
      <trkpt lat="48.49236" lon="2.12158">
        <ele>99</ele>
        <time>2011-04-15T10:40:31Z</time>
      </trkpt>
      <trkpt lat="48.49234" lon="2.12158">
        <ele>99</ele>
        <time>2011-04-15T10:40:32Z</time>
      </trkpt>
      <trkpt lat="48.49233" lon="2.12159">
        <ele>99</ele>
        <time>2011-04-15T10:40:33Z</time>
      </trkpt>
      <trkpt lat="48.49231" lon="2.12159">
        <ele>99</ele>
        <time>2011-04-15T10:40:34Z</time>
      </trkpt>
      <trkpt lat="48.49229" lon="2.12159">
        <ele>99</ele>
        <time>2011-04-15T10:40:35Z</time>
      </trkpt>
      <trkpt lat="48.49228" lon="2.1216">
        <ele>99</ele>
        <time>2011-04-15T10:40:36Z</time>
      </trkpt>
      <trkpt lat="48.49226" lon="2.1216">
        <ele>99</ele>
        <time>2011-04-15T10:40:37Z</time>
      </trkpt>
      <trkpt lat="48.49224" lon="2.1216">
        <ele>99</ele>
        <time>2011-04-15T10:40:38Z</time>
      </trkpt>
      <trkpt lat="48.49222" lon="2.12161">
        <ele>99</ele>
        <time>2011-04-15T10:40:39Z</time>
      </trkpt>
      <trkpt lat="48.49221" lon="2.12161">
        <ele>99</ele>
        <time>2011-04-15T10:40:40Z</time>
      </trkpt>
      <trkpt lat="48.49219" lon="2.12161">
        <ele>99</ele>
        <time>2011-04-15T10:40:41Z</time>
      </trkpt>
      <trkpt lat="48.49217" lon="2.12161">
        <ele>99</ele>
        <time>2011-04-15T10:40:42Z</time>
      </trkpt>
      <trkpt lat="48.49215" lon="2.12161">
        <ele>99</ele>
        <time>2011-04-15T10:40:43Z</time>
      </trkpt>
      <trkpt lat="48.49214" lon="2.12161">
        <ele>99</ele>
        <time>2011-04-15T10:40:44Z</time>
      </trkpt>
      <trkpt lat="48.49212" lon="2.12161">
        <ele>99</ele>
        <time>2011-04-15T10:40:45Z</time>
      </trkpt>
      <trkpt lat="48.4921" lon="2.12161">
        <ele>99</ele>
        <time>2011-04-15T10:40:46Z</time>
      </trkpt>
      <trkpt lat="48.49209" lon="2.12161">
        <ele>99</ele>
        <time>2011-04-15T10:40:47Z</time>
      </trkpt>
      <trkpt lat="48.49207" lon="2.12161">
        <ele>99</ele>
        <time>2011-04-15T10:40:48Z</time>
      </trkpt>
      <trkpt lat="48.49206" lon="2.12161">
        <ele>99</ele>
        <time>2011-04-15T10:40:49Z</time>
      </trkpt>
      <trkpt lat="48.49204" lon="2.12161">
        <ele>99</ele>
        <time>2011-04-15T10:40:50Z</time>
      </trkpt>
      <trkpt lat="48.49203" lon="2.12161">
        <ele>99</ele>
        <time>2011-04-15T10:40:51Z</time>
      </trkpt>
      <trkpt lat="48.49201" lon="2.12162">
        <ele>99</ele>
        <time>2011-04-15T10:40:52Z</time>
      </trkpt>
      <trkpt lat="48.49199" lon="2.12162">
        <ele>99</ele>
        <time>2011-04-15T10:40:53Z</time>
      </trkpt>
      <trkpt lat="48.49198" lon="2.12162">
        <ele>99</ele>
        <time>2011-04-15T10:40:54Z</time>
      </trkpt>
      <trkpt lat="48.49196" lon="2.12163">
        <ele>99</ele>
        <time>2011-04-15T10:40:55Z</time>
      </trkpt>
      <trkpt lat="48.49195" lon="2.12163">
        <ele>99</ele>
        <time>2011-04-15T10:40:56Z</time>
      </trkpt>
      <trkpt lat="48.49193" lon="2.12163">
        <ele>99</ele>
        <time>2011-04-15T10:40:57Z</time>
      </trkpt>
      <trkpt lat="48.49191" lon="2.12163">
        <ele>99</ele>
        <time>2011-04-15T10:40:58Z</time>
      </trkpt>
      <trkpt lat="48.4919" lon="2.12162">
        <ele>99</ele>
        <time>2011-04-15T10:40:59Z</time>
      </trkpt>
      <trkpt lat="48.49188" lon="2.12162">
        <ele>99</ele>
        <time>2011-04-15T10:41:00Z</time>
      </trkpt>
      <trkpt lat="48.49186" lon="2.12162">
        <ele>99</ele>
        <time>2011-04-15T10:41:01Z</time>
      </trkpt>
      <trkpt lat="48.49184" lon="2.12162">
        <ele>99</ele>
        <time>2011-04-15T10:41:02Z</time>
      </trkpt>
      <trkpt lat="48.49182" lon="2.12162">
        <ele>99</ele>
        <time>2011-04-15T10:41:03Z</time>
      </trkpt>
      <trkpt lat="48.4918" lon="2.12162">
        <ele>99</ele>
        <time>2011-04-15T10:41:04Z</time>
      </trkpt>
      <trkpt lat="48.49177" lon="2.12161">
        <ele>99</ele>
        <time>2011-04-15T10:41:05Z</time>
      </trkpt>
      <trkpt lat="48.49175" lon="2.1216">
        <ele>99</ele>
        <time>2011-04-15T10:41:06Z</time>
      </trkpt>
      <trkpt lat="48.49174" lon="2.1216">
        <ele>99</ele>
        <time>2011-04-15T10:41:07Z</time>
      </trkpt>
      <trkpt lat="48.49172" lon="2.1216">
        <ele>99</ele>
        <time>2011-04-15T10:41:08Z</time>
      </trkpt>
      <trkpt lat="48.4917" lon="2.1216">
        <ele>99</ele>
        <time>2011-04-15T10:41:09Z</time>
      </trkpt>
      <trkpt lat="48.49169" lon="2.12159">
        <ele>99</ele>
        <time>2011-04-15T10:41:10Z</time>
      </trkpt>
      <trkpt lat="48.49167" lon="2.12159">
        <ele>99</ele>
        <time>2011-04-15T10:41:11Z</time>
      </trkpt>
      <trkpt lat="48.49166" lon="2.12159">
        <ele>99</ele>
        <time>2011-04-15T10:41:12Z</time>
      </trkpt>
      <trkpt lat="48.49164" lon="2.12159">
        <ele>99</ele>
        <time>2011-04-15T10:41:13Z</time>
      </trkpt>
      <trkpt lat="48.49163" lon="2.12158">
        <ele>99</ele>
        <time>2011-04-15T10:41:14Z</time>
      </trkpt>
      <trkpt lat="48.49161" lon="2.12158">
        <ele>99</ele>
        <time>2011-04-15T10:41:15Z</time>
      </trkpt>
      <trkpt lat="48.4916" lon="2.12158">
        <ele>99</ele>
        <time>2011-04-15T10:41:16Z</time>
      </trkpt>
      <trkpt lat="48.49158" lon="2.12158">
        <ele>99</ele>
        <time>2011-04-15T10:41:17Z</time>
      </trkpt>
      <trkpt lat="48.49157" lon="2.12157">
        <ele>99</ele>
        <time>2011-04-15T10:41:18Z</time>
      </trkpt>
      <trkpt lat="48.49155" lon="2.12157">
        <ele>99</ele>
        <time>2011-04-15T10:41:19Z</time>
      </trkpt>
      <trkpt lat="48.49154" lon="2.12157">
        <ele>99</ele>
        <time>2011-04-15T10:41:20Z</time>
      </trkpt>
      <trkpt lat="48.49152" lon="2.12157">
        <ele>99</ele>
        <time>2011-04-15T10:41:21Z</time>
      </trkpt>
      <trkpt lat="48.49151" lon="2.12157">
        <ele>99</ele>
        <time>2011-04-15T10:41:22Z</time>
      </trkpt>
      <trkpt lat="48.49149" lon="2.12157">
        <ele>99</ele>
        <time>2011-04-15T10:41:23Z</time>
      </trkpt>
      <trkpt lat="48.49147" lon="2.12157">
        <ele>99</ele>
        <time>2011-04-15T10:41:24Z</time>
      </trkpt>
      <trkpt lat="48.49144" lon="2.12157">
        <ele>99</ele>
        <time>2011-04-15T10:41:25Z</time>
      </trkpt>
      <trkpt lat="48.49143" lon="2.12157">
        <ele>99</ele>
        <time>2011-04-15T10:41:26Z</time>
      </trkpt>
      <trkpt lat="48.49141" lon="2.12157">
        <ele>99</ele>
        <time>2011-04-15T10:41:27Z</time>
      </trkpt>
      <trkpt lat="48.49139" lon="2.12156">
        <ele>99</ele>
        <time>2011-04-15T10:41:28Z</time>
      </trkpt>
      <trkpt lat="48.49137" lon="2.12155">
        <ele>99</ele>
        <time>2011-04-15T10:41:29Z</time>
      </trkpt>
      <trkpt lat="48.49135" lon="2.12155">
        <ele>99</ele>
        <time>2011-04-15T10:41:30Z</time>
      </trkpt>
      <trkpt lat="48.49133" lon="2.12155">
        <ele>99</ele>
        <time>2011-04-15T10:41:31Z</time>
      </trkpt>
      <trkpt lat="48.49132" lon="2.12154">
        <ele>99</ele>
        <time>2011-04-15T10:41:32Z</time>
      </trkpt>
      <trkpt lat="48.4913" lon="2.12153">
        <ele>99</ele>
        <time>2011-04-15T10:41:33Z</time>
      </trkpt>
      <trkpt lat="48.49128" lon="2.12153">
        <ele>99</ele>
        <time>2011-04-15T10:41:34Z</time>
      </trkpt>
      <trkpt lat="48.49127" lon="2.12153">
        <ele>99</ele>
        <time>2011-04-15T10:41:35Z</time>
      </trkpt>
      <trkpt lat="48.49125" lon="2.12153">
        <ele>99</ele>
        <time>2011-04-15T10:41:36Z</time>
      </trkpt>
      <trkpt lat="48.49123" lon="2.12152">
        <ele>99</ele>
        <time>2011-04-15T10:41:37Z</time>
      </trkpt>
      <trkpt lat="48.49121" lon="2.12152">
        <ele>99</ele>
        <time>2011-04-15T10:41:38Z</time>
      </trkpt>
      <trkpt lat="48.4912" lon="2.12152">
        <ele>99</ele>
        <time>2011-04-15T10:41:39Z</time>
      </trkpt>
      <trkpt lat="48.49118" lon="2.12151">
        <ele>99</ele>
        <time>2011-04-15T10:41:40Z</time>
      </trkpt>
      <trkpt lat="48.49116" lon="2.12151">
        <ele>99</ele>
        <time>2011-04-15T10:41:41Z</time>
      </trkpt>
      <trkpt lat="48.49115" lon="2.12151">
        <ele>99</ele>
        <time>2011-04-15T10:41:42Z</time>
      </trkpt>
      <trkpt lat="48.49113" lon="2.12151">
        <ele>99</ele>
        <time>2011-04-15T10:41:43Z</time>
      </trkpt>
      <trkpt lat="48.49112" lon="2.12151">
        <ele>99</ele>
        <time>2011-04-15T10:41:44Z</time>
      </trkpt>
      <trkpt lat="48.4911" lon="2.12151">
        <ele>99</ele>
        <time>2011-04-15T10:41:45Z</time>
      </trkpt>
      <trkpt lat="48.49109" lon="2.1215">
        <ele>99</ele>
        <time>2011-04-15T10:41:46Z</time>
      </trkpt>
      <trkpt lat="48.49107" lon="2.1215">
        <ele>99</ele>
        <time>2011-04-15T10:41:47Z</time>
      </trkpt>
      <trkpt lat="48.49105" lon="2.1215">
        <ele>99</ele>
        <time>2011-04-15T10:41:48Z</time>
      </trkpt>
      <trkpt lat="48.49104" lon="2.12149">
        <ele>99</ele>
        <time>2011-04-15T10:41:49Z</time>
      </trkpt>
      <trkpt lat="48.49102" lon="2.12149">
        <ele>99</ele>
        <time>2011-04-15T10:41:50Z</time>
      </trkpt>
      <trkpt lat="48.491" lon="2.12149">
        <ele>99</ele>
        <time>2011-04-15T10:41:51Z</time>
      </trkpt>
      <trkpt lat="48.49099" lon="2.12148">
        <ele>99</ele>
        <time>2011-04-15T10:41:52Z</time>
      </trkpt>
      <trkpt lat="48.49097" lon="2.12148">
        <ele>99</ele>
        <time>2011-04-15T10:41:53Z</time>
      </trkpt>
      <trkpt lat="48.49095" lon="2.12148">
        <ele>99</ele>
        <time>2011-04-15T10:41:54Z</time>
      </trkpt>
      <trkpt lat="48.49093" lon="2.12148">
        <ele>99</ele>
        <time>2011-04-15T10:41:55Z</time>
      </trkpt>
      <trkpt lat="48.49091" lon="2.12148">
        <ele>99</ele>
        <time>2011-04-15T10:41:56Z</time>
      </trkpt>
      <trkpt lat="48.49089" lon="2.12148">
        <ele>99</ele>
        <time>2011-04-15T10:41:57Z</time>
      </trkpt>
      <trkpt lat="48.49088" lon="2.12148">
        <ele>99</ele>
        <time>2011-04-15T10:41:58Z</time>
      </trkpt>
      <trkpt lat="48.49086" lon="2.12148">
        <ele>99</ele>
        <time>2011-04-15T10:41:59Z</time>
      </trkpt>
      <trkpt lat="48.49085" lon="2.12147">
        <ele>99</ele>
        <time>2011-04-15T10:42:00Z</time>
      </trkpt>
      <trkpt lat="48.49083" lon="2.12147">
        <ele>98</ele>
        <time>2011-04-15T10:42:01Z</time>
      </trkpt>
      <trkpt lat="48.49081" lon="2.12147">
        <ele>98</ele>
        <time>2011-04-15T10:42:02Z</time>
      </trkpt>
      <trkpt lat="48.49079" lon="2.12146">
        <ele>98</ele>
        <time>2011-04-15T10:42:03Z</time>
      </trkpt>
      <trkpt lat="48.49077" lon="2.12146">
        <ele>98</ele>
        <time>2011-04-15T10:42:04Z</time>
      </trkpt>
      <trkpt lat="48.49076" lon="2.12146">
        <ele>98</ele>
        <time>2011-04-15T10:42:05Z</time>
      </trkpt>
      <trkpt lat="48.49074" lon="2.12146">
        <ele>98</ele>
        <time>2011-04-15T10:42:06Z</time>
      </trkpt>
      <trkpt lat="48.49072" lon="2.12146">
        <ele>98</ele>
        <time>2011-04-15T10:42:07Z</time>
      </trkpt>
      <trkpt lat="48.4907" lon="2.12145">
        <ele>98</ele>
        <time>2011-04-15T10:42:08Z</time>
      </trkpt>
      <trkpt lat="48.49069" lon="2.12145">
        <ele>98</ele>
        <time>2011-04-15T10:42:09Z</time>
      </trkpt>
      <trkpt lat="48.49067" lon="2.12145">
        <ele>98</ele>
        <time>2011-04-15T10:42:10Z</time>
      </trkpt>
      <trkpt lat="48.49065" lon="2.12145">
        <ele>98</ele>
        <time>2011-04-15T10:42:11Z</time>
      </trkpt>
      <trkpt lat="48.49064" lon="2.12145">
        <ele>98</ele>
        <time>2011-04-15T10:42:12Z</time>
      </trkpt>
      <trkpt lat="48.49062" lon="2.12145">
        <ele>98</ele>
        <time>2011-04-15T10:42:13Z</time>
      </trkpt>
      <trkpt lat="48.4906" lon="2.12144">
        <ele>98</ele>
        <time>2011-04-15T10:42:14Z</time>
      </trkpt>
      <trkpt lat="48.49058" lon="2.12144">
        <ele>98</ele>
        <time>2011-04-15T10:42:15Z</time>
      </trkpt>
      <trkpt lat="48.49057" lon="2.12143">
        <ele>98</ele>
        <time>2011-04-15T10:42:16Z</time>
      </trkpt>
      <trkpt lat="48.49055" lon="2.12143">
        <ele>98</ele>
        <time>2011-04-15T10:42:17Z</time>
      </trkpt>
      <trkpt lat="48.49053" lon="2.12143">
        <ele>98</ele>
        <time>2011-04-15T10:42:18Z</time>
      </trkpt>
      <trkpt lat="48.49052" lon="2.12142">
        <ele>98</ele>
        <time>2011-04-15T10:42:19Z</time>
      </trkpt>
      <trkpt lat="48.4905" lon="2.12142">
        <ele>98</ele>
        <time>2011-04-15T10:42:20Z</time>
      </trkpt>
      <trkpt lat="48.49049" lon="2.12141">
        <ele>98</ele>
        <time>2011-04-15T10:42:21Z</time>
      </trkpt>
      <trkpt lat="48.49047" lon="2.1214">
        <ele>98</ele>
        <time>2011-04-15T10:42:22Z</time>
      </trkpt>
      <trkpt lat="48.49045" lon="2.1214">
        <ele>98</ele>
        <time>2011-04-15T10:42:23Z</time>
      </trkpt>
      <trkpt lat="48.49044" lon="2.1214">
        <ele>98</ele>
        <time>2011-04-15T10:42:24Z</time>
      </trkpt>
      <trkpt lat="48.49042" lon="2.1214">
        <ele>98</ele>
        <time>2011-04-15T10:42:25Z</time>
      </trkpt>
      <trkpt lat="48.4904" lon="2.1214">
        <ele>98</ele>
        <time>2011-04-15T10:42:26Z</time>
      </trkpt>
      <trkpt lat="48.49039" lon="2.12139">
        <ele>98</ele>
        <time>2011-04-15T10:42:27Z</time>
      </trkpt>
      <trkpt lat="48.49037" lon="2.12139">
        <ele>98</ele>
        <time>2011-04-15T10:42:28Z</time>
      </trkpt>
      <trkpt lat="48.49036" lon="2.12138">
        <ele>98</ele>
        <time>2011-04-15T10:42:29Z</time>
      </trkpt>
      <trkpt lat="48.49034" lon="2.12138">
        <ele>98</ele>
        <time>2011-04-15T10:42:30Z</time>
      </trkpt>
      <trkpt lat="48.49033" lon="2.12138">
        <ele>98</ele>
        <time>2011-04-15T10:42:31Z</time>
      </trkpt>
      <trkpt lat="48.49031" lon="2.12137">
        <ele>98</ele>
        <time>2011-04-15T10:42:32Z</time>
      </trkpt>
      <trkpt lat="48.4903" lon="2.12136">
        <ele>98</ele>
        <time>2011-04-15T10:42:33Z</time>
      </trkpt>
      <trkpt lat="48.49028" lon="2.12136">
        <ele>98</ele>
        <time>2011-04-15T10:42:34Z</time>
      </trkpt>
      <trkpt lat="48.49026" lon="2.12135">
        <ele>98</ele>
        <time>2011-04-15T10:42:35Z</time>
      </trkpt>
      <trkpt lat="48.49025" lon="2.12134">
        <ele>98</ele>
        <time>2011-04-15T10:42:36Z</time>
      </trkpt>
      <trkpt lat="48.49023" lon="2.12134">
        <ele>98</ele>
        <time>2011-04-15T10:42:37Z</time>
      </trkpt>
      <trkpt lat="48.49022" lon="2.12133">
        <ele>98</ele>
        <time>2011-04-15T10:42:38Z</time>
      </trkpt>
      <trkpt lat="48.49021" lon="2.12132">
        <ele>98</ele>
        <time>2011-04-15T10:42:39Z</time>
      </trkpt>
      <trkpt lat="48.49018" lon="2.1213">
        <ele>98</ele>
        <time>2011-04-15T10:42:41Z</time>
      </trkpt>
      <trkpt lat="48.49016" lon="2.12129">
        <ele>98</ele>
        <time>2011-04-15T10:42:42Z</time>
      </trkpt>
      <trkpt lat="48.49014" lon="2.12128">
        <ele>98</ele>
        <time>2011-04-15T10:42:43Z</time>
      </trkpt>
      <trkpt lat="48.49012" lon="2.12127">
        <ele>98</ele>
        <time>2011-04-15T10:42:44Z</time>
      </trkpt>
      <trkpt lat="48.49011" lon="2.12126">
        <ele>98</ele>
        <time>2011-04-15T10:42:45Z</time>
      </trkpt>
      <trkpt lat="48.49009" lon="2.12125">
        <ele>98</ele>
        <time>2011-04-15T10:42:46Z</time>
      </trkpt>
      <trkpt lat="48.49007" lon="2.12125">
        <ele>98</ele>
        <time>2011-04-15T10:42:47Z</time>
      </trkpt>
      <trkpt lat="48.49006" lon="2.12123">
        <ele>98</ele>
        <time>2011-04-15T10:42:48Z</time>
      </trkpt>
      <trkpt lat="48.49004" lon="2.12122">
        <ele>98</ele>
        <time>2011-04-15T10:42:49Z</time>
      </trkpt>
      <trkpt lat="48.49002" lon="2.12122">
        <ele>98</ele>
        <time>2011-04-15T10:42:50Z</time>
      </trkpt>
      <trkpt lat="48.49001" lon="2.12122">
        <ele>98</ele>
        <time>2011-04-15T10:42:51Z</time>
      </trkpt>
      <trkpt lat="48.48999" lon="2.12122">
        <ele>98</ele>
        <time>2011-04-15T10:42:52Z</time>
      </trkpt>
      <trkpt lat="48.48998" lon="2.12121">
        <ele>98</ele>
        <time>2011-04-15T10:42:53Z</time>
      </trkpt>
      <trkpt lat="48.48996" lon="2.12121">
        <ele>98</ele>
        <time>2011-04-15T10:42:54Z</time>
      </trkpt>
      <trkpt lat="48.48994" lon="2.1212">
        <ele>98</ele>
        <time>2011-04-15T10:42:55Z</time>
      </trkpt>
      <trkpt lat="48.48992" lon="2.1212">
        <ele>98</ele>
        <time>2011-04-15T10:42:56Z</time>
      </trkpt>
      <trkpt lat="48.48991" lon="2.12119">
        <ele>98</ele>
        <time>2011-04-15T10:42:57Z</time>
      </trkpt>
      <trkpt lat="48.48989" lon="2.12119">
        <ele>98</ele>
        <time>2011-04-15T10:42:58Z</time>
      </trkpt>
      <trkpt lat="48.48987" lon="2.12118">
        <ele>98</ele>
        <time>2011-04-15T10:42:59Z</time>
      </trkpt>
      <trkpt lat="48.48986" lon="2.12117">
        <ele>98</ele>
        <time>2011-04-15T10:43:00Z</time>
      </trkpt>
      <trkpt lat="48.48984" lon="2.12116">
        <ele>98</ele>
        <time>2011-04-15T10:43:01Z</time>
      </trkpt>
      <trkpt lat="48.48982" lon="2.12116">
        <ele>98</ele>
        <time>2011-04-15T10:43:02Z</time>
      </trkpt>
      <trkpt lat="48.48981" lon="2.12115">
        <ele>98</ele>
        <time>2011-04-15T10:43:03Z</time>
      </trkpt>
      <trkpt lat="48.4898" lon="2.12115">
        <ele>98</ele>
        <time>2011-04-15T10:43:04Z</time>
      </trkpt>
      <trkpt lat="48.48978" lon="2.12114">
        <ele>98</ele>
        <time>2011-04-15T10:43:05Z</time>
      </trkpt>
      <trkpt lat="48.48977" lon="2.12114">
        <ele>98</ele>
        <time>2011-04-15T10:43:06Z</time>
      </trkpt>
      <trkpt lat="48.48975" lon="2.12113">
        <ele>98</ele>
        <time>2011-04-15T10:43:07Z</time>
      </trkpt>
      <trkpt lat="48.48974" lon="2.12113">
        <ele>98</ele>
        <time>2011-04-15T10:43:08Z</time>
      </trkpt>
      <trkpt lat="48.48972" lon="2.12111">
        <ele>98</ele>
        <time>2011-04-15T10:43:09Z</time>
      </trkpt>
      <trkpt lat="48.48971" lon="2.1211">
        <ele>98</ele>
        <time>2011-04-15T10:43:10Z</time>
      </trkpt>
      <trkpt lat="48.4897" lon="2.12109">
        <ele>98</ele>
        <time>2011-04-15T10:43:11Z</time>
      </trkpt>
      <trkpt lat="48.48968" lon="2.12108">
        <ele>97</ele>
        <time>2011-04-15T10:43:12Z</time>
      </trkpt>
      <trkpt lat="48.48967" lon="2.12108">
        <ele>97</ele>
        <time>2011-04-15T10:43:13Z</time>
      </trkpt>
      <trkpt lat="48.48965" lon="2.12107">
        <ele>97</ele>
        <time>2011-04-15T10:43:14Z</time>
      </trkpt>
      <trkpt lat="48.48964" lon="2.12106">
        <ele>97</ele>
        <time>2011-04-15T10:43:15Z</time>
      </trkpt>
      <trkpt lat="48.48962" lon="2.12106">
        <ele>97</ele>
        <time>2011-04-15T10:43:16Z</time>
      </trkpt>
      <trkpt lat="48.48961" lon="2.12105">
        <ele>97</ele>
        <time>2011-04-15T10:43:17Z</time>
      </trkpt>
      <trkpt lat="48.48959" lon="2.12105">
        <ele>97</ele>
        <time>2011-04-15T10:43:18Z</time>
      </trkpt>
      <trkpt lat="48.48957" lon="2.12104">
        <ele>97</ele>
        <time>2011-04-15T10:43:19Z</time>
      </trkpt>
      <trkpt lat="48.48955" lon="2.12103">
        <ele>97</ele>
        <time>2011-04-15T10:43:20Z</time>
      </trkpt>
      <trkpt lat="48.48953" lon="2.12103">
        <ele>97</ele>
        <time>2011-04-15T10:43:21Z</time>
      </trkpt>
      <trkpt lat="48.48952" lon="2.12102">
        <ele>97</ele>
        <time>2011-04-15T10:43:22Z</time>
      </trkpt>
      <trkpt lat="48.4895" lon="2.12102">
        <ele>97</ele>
        <time>2011-04-15T10:43:23Z</time>
      </trkpt>
      <trkpt lat="48.48949" lon="2.12102">
        <ele>97</ele>
        <time>2011-04-15T10:43:24Z</time>
      </trkpt>
      <trkpt lat="48.48947" lon="2.12101">
        <ele>97</ele>
        <time>2011-04-15T10:43:25Z</time>
      </trkpt>
      <trkpt lat="48.48945" lon="2.12101">
        <ele>97</ele>
        <time>2011-04-15T10:43:26Z</time>
      </trkpt>
      <trkpt lat="48.48944" lon="2.12101">
        <ele>97</ele>
        <time>2011-04-15T10:43:27Z</time>
      </trkpt>
      <trkpt lat="48.48942" lon="2.12101">
        <ele>97</ele>
        <time>2011-04-15T10:43:28Z</time>
      </trkpt>
      <trkpt lat="48.48941" lon="2.12101">
        <ele>97</ele>
        <time>2011-04-15T10:43:29Z</time>
      </trkpt>
      <trkpt lat="48.48939" lon="2.12101">
        <ele>96</ele>
        <time>2011-04-15T10:43:30Z</time>
      </trkpt>
      <trkpt lat="48.48937" lon="2.121">
        <ele>96</ele>
        <time>2011-04-15T10:43:31Z</time>
      </trkpt>
      <trkpt lat="48.48935" lon="2.121">
        <ele>96</ele>
        <time>2011-04-15T10:43:32Z</time>
      </trkpt>
      <trkpt lat="48.48933" lon="2.121">
        <ele>96</ele>
        <time>2011-04-15T10:43:33Z</time>
      </trkpt>
      <trkpt lat="48.48931" lon="2.121">
        <ele>96</ele>
        <time>2011-04-15T10:43:34Z</time>
      </trkpt>
      <trkpt lat="48.48929" lon="2.121">
        <ele>96</ele>
        <time>2011-04-15T10:43:35Z</time>
      </trkpt>
      <trkpt lat="48.48927" lon="2.121">
        <ele>96</ele>
        <time>2011-04-15T10:43:36Z</time>
      </trkpt>
      <trkpt lat="48.48926" lon="2.12101">
        <ele>96</ele>
        <time>2011-04-15T10:43:37Z</time>
      </trkpt>
      <trkpt lat="48.48924" lon="2.12101">
        <ele>96</ele>
        <time>2011-04-15T10:43:38Z</time>
      </trkpt>
      <trkpt lat="48.48922" lon="2.12101">
        <ele>96</ele>
        <time>2011-04-15T10:43:39Z</time>
      </trkpt>
      <trkpt lat="48.48921" lon="2.12101">
        <ele>96</ele>
        <time>2011-04-15T10:43:40Z</time>
      </trkpt>
      <trkpt lat="48.48919" lon="2.12101">
        <ele>96</ele>
        <time>2011-04-15T10:43:41Z</time>
      </trkpt>
      <trkpt lat="48.48917" lon="2.12101">
        <ele>96</ele>
        <time>2011-04-15T10:43:42Z</time>
      </trkpt>
      <trkpt lat="48.48916" lon="2.12101">
        <ele>96</ele>
        <time>2011-04-15T10:43:43Z</time>
      </trkpt>
      <trkpt lat="48.48914" lon="2.12102">
        <ele>96</ele>
        <time>2011-04-15T10:43:44Z</time>
      </trkpt>
      <trkpt lat="48.48912" lon="2.12102">
        <ele>96</ele>
        <time>2011-04-15T10:43:45Z</time>
      </trkpt>
      <trkpt lat="48.4891" lon="2.12102">
        <ele>96</ele>
        <time>2011-04-15T10:43:46Z</time>
      </trkpt>
      <trkpt lat="48.48908" lon="2.12102">
        <ele>96</ele>
        <time>2011-04-15T10:43:47Z</time>
      </trkpt>
      <trkpt lat="48.48907" lon="2.12103">
        <ele>96</ele>
        <time>2011-04-15T10:43:48Z</time>
      </trkpt>
      <trkpt lat="48.48905" lon="2.12102">
        <ele>96</ele>
        <time>2011-04-15T10:43:49Z</time>
      </trkpt>
      <trkpt lat="48.48903" lon="2.12102">
        <ele>96</ele>
        <time>2011-04-15T10:43:50Z</time>
      </trkpt>
      <trkpt lat="48.48901" lon="2.12102">
        <ele>96</ele>
        <time>2011-04-15T10:43:51Z</time>
      </trkpt>
      <trkpt lat="48.48898" lon="2.12103">
        <ele>96</ele>
        <time>2011-04-15T10:43:52Z</time>
      </trkpt>
      <trkpt lat="48.48895" lon="2.12103">
        <ele>96</ele>
        <time>2011-04-15T10:43:53Z</time>
      </trkpt>
      <trkpt lat="48.48891" lon="2.12103">
        <ele>96</ele>
        <time>2011-04-15T10:43:54Z</time>
      </trkpt>
      <trkpt lat="48.48887" lon="2.12104">
        <ele>96</ele>
        <time>2011-04-15T10:43:55Z</time>
      </trkpt>
      <trkpt lat="48.48883" lon="2.12105">
        <ele>96</ele>
        <time>2011-04-15T10:43:56Z</time>
      </trkpt>
      <trkpt lat="48.48878" lon="2.12105">
        <ele>96</ele>
        <time>2011-04-15T10:43:57Z</time>
      </trkpt>
      <trkpt lat="48.48874" lon="2.12106">
        <ele>96</ele>
        <time>2011-04-15T10:43:58Z</time>
      </trkpt>
      <trkpt lat="48.4887" lon="2.12107">
        <ele>96</ele>
        <time>2011-04-15T10:43:59Z</time>
      </trkpt>
      <trkpt lat="48.48865" lon="2.12107">
        <ele>96</ele>
        <time>2011-04-15T10:44:00Z</time>
      </trkpt>
      <trkpt lat="48.48861" lon="2.12108">
        <ele>96</ele>
        <time>2011-04-15T10:44:01Z</time>
      </trkpt>
      <trkpt lat="48.48857" lon="2.12108">
        <ele>96</ele>
        <time>2011-04-15T10:44:02Z</time>
      </trkpt>
      <trkpt lat="48.48853" lon="2.12109">
        <ele>96</ele>
        <time>2011-04-15T10:44:03Z</time>
      </trkpt>
      <trkpt lat="48.4885" lon="2.12109">
        <ele>96</ele>
        <time>2011-04-15T10:44:04Z</time>
      </trkpt>
      <trkpt lat="48.48846" lon="2.1211">
        <ele>96</ele>
        <time>2011-04-15T10:44:05Z</time>
      </trkpt>
      <trkpt lat="48.48843" lon="2.12112">
        <ele>96</ele>
        <time>2011-04-15T10:44:06Z</time>
      </trkpt>
      <trkpt lat="48.48839" lon="2.12113">
        <ele>96</ele>
        <time>2011-04-15T10:44:07Z</time>
      </trkpt>
      <trkpt lat="48.48835" lon="2.12114">
        <ele>96</ele>
        <time>2011-04-15T10:44:08Z</time>
      </trkpt>
      <trkpt lat="48.48831" lon="2.12115">
        <ele>96</ele>
        <time>2011-04-15T10:44:09Z</time>
      </trkpt>
      <trkpt lat="48.48828" lon="2.12116">
        <ele>96</ele>
        <time>2011-04-15T10:44:10Z</time>
      </trkpt>
      <trkpt lat="48.48824" lon="2.12117">
        <ele>96</ele>
        <time>2011-04-15T10:44:11Z</time>
      </trkpt>
      <trkpt lat="48.4882" lon="2.12118">
        <ele>96</ele>
        <time>2011-04-15T10:44:12Z</time>
      </trkpt>
      <trkpt lat="48.48816" lon="2.1212">
        <ele>96</ele>
        <time>2011-04-15T10:44:13Z</time>
      </trkpt>
      <trkpt lat="48.48813" lon="2.12121">
        <ele>96</ele>
        <time>2011-04-15T10:44:14Z</time>
      </trkpt>
      <trkpt lat="48.48809" lon="2.12122">
        <ele>96</ele>
        <time>2011-04-15T10:44:15Z</time>
      </trkpt>
      <trkpt lat="48.48805" lon="2.12123">
        <ele>96</ele>
        <time>2011-04-15T10:44:16Z</time>
      </trkpt>
      <trkpt lat="48.48801" lon="2.12124">
        <ele>96</ele>
        <time>2011-04-15T10:44:17Z</time>
      </trkpt>
      <trkpt lat="48.48797" lon="2.12126">
        <ele>96</ele>
        <time>2011-04-15T10:44:18Z</time>
      </trkpt>
      <trkpt lat="48.48793" lon="2.12129">
        <ele>96</ele>
        <time>2011-04-15T10:44:19Z</time>
      </trkpt>
      <trkpt lat="48.48789" lon="2.12131">
        <ele>96</ele>
        <time>2011-04-15T10:44:20Z</time>
      </trkpt>
      <trkpt lat="48.48785" lon="2.12133">
        <ele>96</ele>
        <time>2011-04-15T10:44:21Z</time>
      </trkpt>
      <trkpt lat="48.48781" lon="2.12134">
        <ele>96</ele>
        <time>2011-04-15T10:44:22Z</time>
      </trkpt>
      <trkpt lat="48.48778" lon="2.12135">
        <ele>96</ele>
        <time>2011-04-15T10:44:23Z</time>
      </trkpt>
      <trkpt lat="48.48774" lon="2.12137">
        <ele>96</ele>
        <time>2011-04-15T10:44:24Z</time>
      </trkpt>
      <trkpt lat="48.4877" lon="2.12138">
        <ele>96</ele>
        <time>2011-04-15T10:44:25Z</time>
      </trkpt>
      <trkpt lat="48.48766" lon="2.1214">
        <ele>96</ele>
        <time>2011-04-15T10:44:26Z</time>
      </trkpt>
      <trkpt lat="48.48762" lon="2.12141">
        <ele>96</ele>
        <time>2011-04-15T10:44:27Z</time>
      </trkpt>
      <trkpt lat="48.48758" lon="2.12142">
        <ele>96</ele>
        <time>2011-04-15T10:44:28Z</time>
      </trkpt>
      <trkpt lat="48.48754" lon="2.12143">
        <ele>96</ele>
        <time>2011-04-15T10:44:29Z</time>
      </trkpt>
      <trkpt lat="48.4875" lon="2.12143">
        <ele>96</ele>
        <time>2011-04-15T10:44:30Z</time>
      </trkpt>
      <trkpt lat="48.48746" lon="2.12144">
        <ele>96</ele>
        <time>2011-04-15T10:44:31Z</time>
      </trkpt>
      <trkpt lat="48.48742" lon="2.12144">
        <ele>96</ele>
        <time>2011-04-15T10:44:32Z</time>
      </trkpt>
      <trkpt lat="48.48738" lon="2.12145">
        <ele>96</ele>
        <time>2011-04-15T10:44:33Z</time>
      </trkpt>
      <trkpt lat="48.48734" lon="2.12146">
        <ele>96</ele>
        <time>2011-04-15T10:44:34Z</time>
      </trkpt>
      <trkpt lat="48.4873" lon="2.12146">
        <ele>96</ele>
        <time>2011-04-15T10:44:35Z</time>
      </trkpt>
      <trkpt lat="48.48726" lon="2.12146">
        <ele>96</ele>
        <time>2011-04-15T10:44:36Z</time>
      </trkpt>
      <trkpt lat="48.48722" lon="2.12147">
        <ele>96</ele>
        <time>2011-04-15T10:44:37Z</time>
      </trkpt>
      <trkpt lat="48.48717" lon="2.12147">
        <ele>96</ele>
        <time>2011-04-15T10:44:38Z</time>
      </trkpt>
      <trkpt lat="48.48713" lon="2.12147">
        <ele>96</ele>
        <time>2011-04-15T10:44:39Z</time>
      </trkpt>
      <trkpt lat="48.48709" lon="2.12148">
        <ele>96</ele>
        <time>2011-04-15T10:44:40Z</time>
      </trkpt>
      <trkpt lat="48.48705" lon="2.12148">
        <ele>96</ele>
        <time>2011-04-15T10:44:41Z</time>
      </trkpt>
      <trkpt lat="48.487" lon="2.12149">
        <ele>96</ele>
        <time>2011-04-15T10:44:42Z</time>
      </trkpt>
      <trkpt lat="48.48696" lon="2.12149">
        <ele>96</ele>
        <time>2011-04-15T10:44:43Z</time>
      </trkpt>
      <trkpt lat="48.48692" lon="2.12149">
        <ele>96</ele>
        <time>2011-04-15T10:44:44Z</time>
      </trkpt>
      <trkpt lat="48.48688" lon="2.12149">
        <ele>96</ele>
        <time>2011-04-15T10:44:45Z</time>
      </trkpt>
      <trkpt lat="48.48684" lon="2.12149">
        <ele>96</ele>
        <time>2011-04-15T10:44:46Z</time>
      </trkpt>
      <trkpt lat="48.4868" lon="2.12149">
        <ele>96</ele>
        <time>2011-04-15T10:44:47Z</time>
      </trkpt>
      <trkpt lat="48.48675" lon="2.12149">
        <ele>96</ele>
        <time>2011-04-15T10:44:48Z</time>
      </trkpt>
      <trkpt lat="48.48671" lon="2.12148">
        <ele>96</ele>
        <time>2011-04-15T10:44:49Z</time>
      </trkpt>
      <trkpt lat="48.48666" lon="2.12147">
        <ele>96</ele>
        <time>2011-04-15T10:44:50Z</time>
      </trkpt>
      <trkpt lat="48.48661" lon="2.12147">
        <ele>96</ele>
        <time>2011-04-15T10:44:51Z</time>
      </trkpt>
      <trkpt lat="48.48657" lon="2.12146">
        <ele>96</ele>
        <time>2011-04-15T10:44:52Z</time>
      </trkpt>
      <trkpt lat="48.48653" lon="2.12146">
        <ele>96</ele>
        <time>2011-04-15T10:44:53Z</time>
      </trkpt>
      <trkpt lat="48.48649" lon="2.12146">
        <ele>96</ele>
        <time>2011-04-15T10:44:54Z</time>
      </trkpt>
      <trkpt lat="48.48645" lon="2.12147">
        <ele>96</ele>
        <time>2011-04-15T10:44:55Z</time>
      </trkpt>
      <trkpt lat="48.48641" lon="2.12147">
        <ele>96</ele>
        <time>2011-04-15T10:44:56Z</time>
      </trkpt>
      <trkpt lat="48.48638" lon="2.12148">
        <ele>96</ele>
        <time>2011-04-15T10:44:57Z</time>
      </trkpt>
      <trkpt lat="48.48634" lon="2.12148">
        <ele>96</ele>
        <time>2011-04-15T10:44:58Z</time>
      </trkpt>
      <trkpt lat="48.4863" lon="2.12148">
        <ele>96</ele>
        <time>2011-04-15T10:44:59Z</time>
      </trkpt>
      <trkpt lat="48.48625" lon="2.12148">
        <ele>96</ele>
        <time>2011-04-15T10:45:00Z</time>
      </trkpt>
      <trkpt lat="48.4862" lon="2.12148">
        <ele>96</ele>
        <time>2011-04-15T10:45:01Z</time>
      </trkpt>
      <trkpt lat="48.48615" lon="2.12147">
        <ele>96</ele>
        <time>2011-04-15T10:45:02Z</time>
      </trkpt>
      <trkpt lat="48.4861" lon="2.12147">
        <ele>97</ele>
        <time>2011-04-15T10:45:03Z</time>
      </trkpt>
      <trkpt lat="48.48605" lon="2.12146">
        <ele>97</ele>
        <time>2011-04-15T10:45:04Z</time>
      </trkpt>
      <trkpt lat="48.486" lon="2.12146">
        <ele>97</ele>
        <time>2011-04-15T10:45:05Z</time>
      </trkpt>
      <trkpt lat="48.48596" lon="2.12146">
        <ele>97</ele>
        <time>2011-04-15T10:45:06Z</time>
      </trkpt>
      <trkpt lat="48.48591" lon="2.12146">
        <ele>97</ele>
        <time>2011-04-15T10:45:07Z</time>
      </trkpt>
      <trkpt lat="48.48587" lon="2.12146">
        <ele>98</ele>
        <time>2011-04-15T10:45:08Z</time>
      </trkpt>
      <trkpt lat="48.48583" lon="2.12146">
        <ele>98</ele>
        <time>2011-04-15T10:45:09Z</time>
      </trkpt>
      <trkpt lat="48.48578" lon="2.12145">
        <ele>98</ele>
        <time>2011-04-15T10:45:10Z</time>
      </trkpt>
      <trkpt lat="48.48574" lon="2.12145">
        <ele>98</ele>
        <time>2011-04-15T10:45:11Z</time>
      </trkpt>
      <trkpt lat="48.4857" lon="2.12145">
        <ele>98</ele>
        <time>2011-04-15T10:45:12Z</time>
      </trkpt>
      <trkpt lat="48.48566" lon="2.12144">
        <ele>98</ele>
        <time>2011-04-15T10:45:13Z</time>
      </trkpt>
      <trkpt lat="48.48562" lon="2.12143">
        <ele>98</ele>
        <time>2011-04-15T10:45:14Z</time>
      </trkpt>
      <trkpt lat="48.48558" lon="2.12142">
        <ele>98</ele>
        <time>2011-04-15T10:45:15Z</time>
      </trkpt>
      <trkpt lat="48.48554" lon="2.1214">
        <ele>98</ele>
        <time>2011-04-15T10:45:16Z</time>
      </trkpt>
      <trkpt lat="48.4855" lon="2.12137">
        <ele>98</ele>
        <time>2011-04-15T10:45:17Z</time>
      </trkpt>
      <trkpt lat="48.48547" lon="2.12133">
        <ele>99</ele>
        <time>2011-04-15T10:45:18Z</time>
      </trkpt>
      <trkpt lat="48.48545" lon="2.12127">
        <ele>99</ele>
        <time>2011-04-15T10:45:19Z</time>
      </trkpt>
      <trkpt lat="48.48542" lon="2.12122">
        <ele>99</ele>
        <time>2011-04-15T10:45:20Z</time>
      </trkpt>
      <trkpt lat="48.48541" lon="2.12115">
        <ele>99</ele>
        <time>2011-04-15T10:45:21Z</time>
      </trkpt>
      <trkpt lat="48.48539" lon="2.12109">
        <ele>99</ele>
        <time>2011-04-15T10:45:22Z</time>
      </trkpt>
      <trkpt lat="48.48537" lon="2.12103">
        <ele>99</ele>
        <time>2011-04-15T10:45:23Z</time>
      </trkpt>
      <trkpt lat="48.48535" lon="2.12097">
        <ele>99</ele>
        <time>2011-04-15T10:45:24Z</time>
      </trkpt>
      <trkpt lat="48.48533" lon="2.1209">
        <ele>99</ele>
        <time>2011-04-15T10:45:25Z</time>
      </trkpt>
      <trkpt lat="48.48531" lon="2.12084">
        <ele>99</ele>
        <time>2011-04-15T10:45:26Z</time>
      </trkpt>
      <trkpt lat="48.48529" lon="2.12078">
        <ele>99</ele>
        <time>2011-04-15T10:45:27Z</time>
      </trkpt>
      <trkpt lat="48.48527" lon="2.12072">
        <ele>100</ele>
        <time>2011-04-15T10:45:28Z</time>
      </trkpt>
      <trkpt lat="48.48525" lon="2.12066">
        <ele>100</ele>
        <time>2011-04-15T10:45:29Z</time>
      </trkpt>
      <trkpt lat="48.48524" lon="2.1206">
        <ele>100</ele>
        <time>2011-04-15T10:45:30Z</time>
      </trkpt>
      <trkpt lat="48.48522" lon="2.12054">
        <ele>100</ele>
        <time>2011-04-15T10:45:31Z</time>
      </trkpt>
      <trkpt lat="48.4852" lon="2.12048">
        <ele>100</ele>
        <time>2011-04-15T10:45:32Z</time>
      </trkpt>
      <trkpt lat="48.48518" lon="2.12042">
        <ele>100</ele>
        <time>2011-04-15T10:45:33Z</time>
      </trkpt>
      <trkpt lat="48.48516" lon="2.12036">
        <ele>100</ele>
        <time>2011-04-15T10:45:34Z</time>
      </trkpt>
      <trkpt lat="48.48515" lon="2.1203">
        <ele>101</ele>
        <time>2011-04-15T10:45:35Z</time>
      </trkpt>
      <trkpt lat="48.48513" lon="2.12025">
        <ele>101</ele>
        <time>2011-04-15T10:45:36Z</time>
      </trkpt>
      <trkpt lat="48.48511" lon="2.12019">
        <ele>101</ele>
        <time>2011-04-15T10:45:37Z</time>
      </trkpt>
      <trkpt lat="48.48509" lon="2.12014">
        <ele>101</ele>
        <time>2011-04-15T10:45:38Z</time>
      </trkpt>
      <trkpt lat="48.48507" lon="2.12008">
        <ele>101</ele>
        <time>2011-04-15T10:45:39Z</time>
      </trkpt>
      <trkpt lat="48.48506" lon="2.12002">
        <ele>101</ele>
        <time>2011-04-15T10:45:40Z</time>
      </trkpt>
      <trkpt lat="48.48504" lon="2.11997">
        <ele>101</ele>
        <time>2011-04-15T10:45:41Z</time>
      </trkpt>
      <trkpt lat="48.48502" lon="2.11991">
        <ele>101</ele>
        <time>2011-04-15T10:45:42Z</time>
      </trkpt>
      <trkpt lat="48.48501" lon="2.11985">
        <ele>101</ele>
        <time>2011-04-15T10:45:43Z</time>
      </trkpt>
      <trkpt lat="48.48499" lon="2.11979">
        <ele>101</ele>
        <time>2011-04-15T10:45:44Z</time>
      </trkpt>
      <trkpt lat="48.48497" lon="2.11974">
        <ele>101</ele>
        <time>2011-04-15T10:45:45Z</time>
      </trkpt>
      <trkpt lat="48.48495" lon="2.11968">
        <ele>101</ele>
        <time>2011-04-15T10:45:46Z</time>
      </trkpt>
      <trkpt lat="48.48494" lon="2.11963">
        <ele>102</ele>
        <time>2011-04-15T10:45:47Z</time>
      </trkpt>
      <trkpt lat="48.48492" lon="2.11957">
        <ele>102</ele>
        <time>2011-04-15T10:45:48Z</time>
      </trkpt>
      <trkpt lat="48.48491" lon="2.11952">
        <ele>102</ele>
        <time>2011-04-15T10:45:49Z</time>
      </trkpt>
      <trkpt lat="48.48489" lon="2.11946">
        <ele>102</ele>
        <time>2011-04-15T10:45:50Z</time>
      </trkpt>
      <trkpt lat="48.48487" lon="2.11941">
        <ele>103</ele>
        <time>2011-04-15T10:45:51Z</time>
      </trkpt>
      <trkpt lat="48.48486" lon="2.11935">
        <ele>103</ele>
        <time>2011-04-15T10:45:52Z</time>
      </trkpt>
      <trkpt lat="48.48484" lon="2.1193">
        <ele>103</ele>
        <time>2011-04-15T10:45:53Z</time>
      </trkpt>
      <trkpt lat="48.48482" lon="2.11925">
        <ele>103</ele>
        <time>2011-04-15T10:45:54Z</time>
      </trkpt>
      <trkpt lat="48.48481" lon="2.1192">
        <ele>103</ele>
        <time>2011-04-15T10:45:55Z</time>
      </trkpt>
      <trkpt lat="48.48479" lon="2.11914">
        <ele>103</ele>
        <time>2011-04-15T10:45:56Z</time>
      </trkpt>
      <trkpt lat="48.48477" lon="2.11908">
        <ele>104</ele>
        <time>2011-04-15T10:45:57Z</time>
      </trkpt>
      <trkpt lat="48.48476" lon="2.11903">
        <ele>104</ele>
        <time>2011-04-15T10:45:58Z</time>
      </trkpt>
      <trkpt lat="48.48474" lon="2.11897">
        <ele>104</ele>
        <time>2011-04-15T10:45:59Z</time>
      </trkpt>
      <trkpt lat="48.48473" lon="2.11892">
        <ele>104</ele>
        <time>2011-04-15T10:46:00Z</time>
      </trkpt>
      <trkpt lat="48.48471" lon="2.11886">
        <ele>104</ele>
        <time>2011-04-15T10:46:01Z</time>
      </trkpt>
      <trkpt lat="48.48469" lon="2.11881">
        <ele>105</ele>
        <time>2011-04-15T10:46:02Z</time>
      </trkpt>
      <trkpt lat="48.48468" lon="2.11876">
        <ele>105</ele>
        <time>2011-04-15T10:46:03Z</time>
      </trkpt>
      <trkpt lat="48.48466" lon="2.11871">
        <ele>105</ele>
        <time>2011-04-15T10:46:04Z</time>
      </trkpt>
      <trkpt lat="48.48465" lon="2.11866">
        <ele>105</ele>
        <time>2011-04-15T10:46:05Z</time>
      </trkpt>
      <trkpt lat="48.48463" lon="2.1186">
        <ele>105</ele>
        <time>2011-04-15T10:46:06Z</time>
      </trkpt>
      <trkpt lat="48.48462" lon="2.11855">
        <ele>105</ele>
        <time>2011-04-15T10:46:07Z</time>
      </trkpt>
      <trkpt lat="48.4846" lon="2.11849">
        <ele>105</ele>
        <time>2011-04-15T10:46:08Z</time>
      </trkpt>
      <trkpt lat="48.48458" lon="2.11843">
        <ele>105</ele>
        <time>2011-04-15T10:46:09Z</time>
      </trkpt>
      <trkpt lat="48.48456" lon="2.11838">
        <ele>105</ele>
        <time>2011-04-15T10:46:10Z</time>
      </trkpt>
      <trkpt lat="48.48454" lon="2.11832">
        <ele>105</ele>
        <time>2011-04-15T10:46:11Z</time>
      </trkpt>
      <trkpt lat="48.48452" lon="2.11827">
        <ele>106</ele>
        <time>2011-04-15T10:46:12Z</time>
      </trkpt>
      <trkpt lat="48.48451" lon="2.11822">
        <ele>106</ele>
        <time>2011-04-15T10:46:13Z</time>
      </trkpt>
      <trkpt lat="48.48449" lon="2.11816">
        <ele>106</ele>
        <time>2011-04-15T10:46:14Z</time>
      </trkpt>
      <trkpt lat="48.48447" lon="2.11811">
        <ele>106</ele>
        <time>2011-04-15T10:46:15Z</time>
      </trkpt>
      <trkpt lat="48.48445" lon="2.11805">
        <ele>107</ele>
        <time>2011-04-15T10:46:16Z</time>
      </trkpt>
      <trkpt lat="48.48444" lon="2.11799">
        <ele>107</ele>
        <time>2011-04-15T10:46:17Z</time>
      </trkpt>
      <trkpt lat="48.48442" lon="2.11794">
        <ele>107</ele>
        <time>2011-04-15T10:46:18Z</time>
      </trkpt>
      <trkpt lat="48.4844" lon="2.11788">
        <ele>107</ele>
        <time>2011-04-15T10:46:19Z</time>
      </trkpt>
      <trkpt lat="48.48438" lon="2.11782">
        <ele>107</ele>
        <time>2011-04-15T10:46:20Z</time>
      </trkpt>
      <trkpt lat="48.48437" lon="2.11776">
        <ele>107</ele>
        <time>2011-04-15T10:46:21Z</time>
      </trkpt>
      <trkpt lat="48.48435" lon="2.1177">
        <ele>108</ele>
        <time>2011-04-15T10:46:22Z</time>
      </trkpt>
      <trkpt lat="48.48434" lon="2.11764">
        <ele>108</ele>
        <time>2011-04-15T10:46:23Z</time>
      </trkpt>
      <trkpt lat="48.48432" lon="2.11759">
        <ele>108</ele>
        <time>2011-04-15T10:46:24Z</time>
      </trkpt>
      <trkpt lat="48.48431" lon="2.11755">
        <ele>108</ele>
        <time>2011-04-15T10:46:25Z</time>
      </trkpt>
      <trkpt lat="48.4843" lon="2.11751">
        <ele>108</ele>
        <time>2011-04-15T10:46:26Z</time>
      </trkpt>
      <trkpt lat="48.48429" lon="2.11749">
        <ele>109</ele>
        <time>2011-04-15T10:46:27Z</time>
      </trkpt>
      <trkpt lat="48.48428" lon="2.11747">
        <ele>109</ele>
        <time>2011-04-15T10:46:28Z</time>
      </trkpt>
      <trkpt lat="48.48428" lon="2.11744">
        <ele>109</ele>
        <time>2011-04-15T10:46:30Z</time>
      </trkpt>
      <trkpt lat="48.48426" lon="2.11741">
        <ele>110</ele>
        <time>2011-04-15T10:46:32Z</time>
      </trkpt>
      <trkpt lat="48.48426" lon="2.11739">
        <ele>110</ele>
        <time>2011-04-15T10:46:33Z</time>
      </trkpt>
      <trkpt lat="48.48425" lon="2.11737">
        <ele>110</ele>
        <time>2011-04-15T10:46:34Z</time>
      </trkpt>
      <trkpt lat="48.48424" lon="2.11735">
        <ele>110</ele>
        <time>2011-04-15T10:46:36Z</time>
      </trkpt>
      <trkpt lat="48.48423" lon="2.11734">
        <ele>110</ele>
        <time>2011-04-15T10:46:40Z</time>
      </trkpt>
      <trkpt lat="48.48423" lon="2.11736">
        <ele>110</ele>
        <time>2011-04-15T10:46:45Z</time>
      </trkpt>
      <trkpt lat="48.48424" lon="2.11738">
        <ele>110</ele>
        <time>2011-04-15T10:46:54Z</time>
      </trkpt>
      <trkpt lat="48.48425" lon="2.11739">
        <ele>111</ele>
        <time>2011-04-15T10:47:11Z</time>
      </trkpt>
      <trkpt lat="48.48426" lon="2.1174">
        <ele>112</ele>
        <time>2011-04-15T10:47:21Z</time>
      </trkpt>
      <trkpt lat="48.48427" lon="2.11742">
        <ele>113</ele>
        <time>2011-04-15T10:47:23Z</time>
      </trkpt>
      <trkpt lat="48.48428" lon="2.11744">
        <ele>113</ele>
        <time>2011-04-15T10:47:24Z</time>
      </trkpt>
      <trkpt lat="48.48429" lon="2.11746">
        <ele>113</ele>
        <time>2011-04-15T10:47:25Z</time>
      </trkpt>
      <trkpt lat="48.4843" lon="2.11749">
        <ele>113</ele>
        <time>2011-04-15T10:47:26Z</time>
      </trkpt>
      <trkpt lat="48.48431" lon="2.11751">
        <ele>113</ele>
        <time>2011-04-15T10:47:27Z</time>
      </trkpt>
      <trkpt lat="48.48432" lon="2.11754">
        <ele>113</ele>
        <time>2011-04-15T10:47:28Z</time>
      </trkpt>
      <trkpt lat="48.48432" lon="2.11756">
        <ele>113</ele>
        <time>2011-04-15T10:47:29Z</time>
      </trkpt>
      <trkpt lat="48.48433" lon="2.11759">
        <ele>113</ele>
        <time>2011-04-15T10:47:30Z</time>
      </trkpt>
      <trkpt lat="48.48434" lon="2.11761">
        <ele>113</ele>
        <time>2011-04-15T10:47:31Z</time>
      </trkpt>
      <trkpt lat="48.48434" lon="2.11764">
        <ele>113</ele>
        <time>2011-04-15T10:47:32Z</time>
      </trkpt>
      <trkpt lat="48.48435" lon="2.11766">
        <ele>113</ele>
        <time>2011-04-15T10:47:33Z</time>
      </trkpt>
      <trkpt lat="48.48436" lon="2.11768">
        <ele>113</ele>
        <time>2011-04-15T10:47:34Z</time>
      </trkpt>
      <trkpt lat="48.48437" lon="2.1177">
        <ele>113</ele>
        <time>2011-04-15T10:47:35Z</time>
      </trkpt>
      <trkpt lat="48.48437" lon="2.11773">
        <ele>113</ele>
        <time>2011-04-15T10:47:36Z</time>
      </trkpt>
      <trkpt lat="48.48438" lon="2.11775">
        <ele>113</ele>
        <time>2011-04-15T10:47:37Z</time>
      </trkpt>
      <trkpt lat="48.48439" lon="2.11778">
        <ele>113</ele>
        <time>2011-04-15T10:47:38Z</time>
      </trkpt>
      <trkpt lat="48.4844" lon="2.11781">
        <ele>113</ele>
        <time>2011-04-15T10:47:39Z</time>
      </trkpt>
      <trkpt lat="48.48442" lon="2.11784">
        <ele>113</ele>
        <time>2011-04-15T10:47:40Z</time>
      </trkpt>
      <trkpt lat="48.48442" lon="2.11786">
        <ele>113</ele>
        <time>2011-04-15T10:47:41Z</time>
      </trkpt>
      <trkpt lat="48.48443" lon="2.11789">
        <ele>113</ele>
        <time>2011-04-15T10:47:42Z</time>
      </trkpt>
      <trkpt lat="48.48444" lon="2.11792">
        <ele>113</ele>
        <time>2011-04-15T10:47:43Z</time>
      </trkpt>
      <trkpt lat="48.48445" lon="2.11794">
        <ele>113</ele>
        <time>2011-04-15T10:47:44Z</time>
      </trkpt>
      <trkpt lat="48.48446" lon="2.11797">
        <ele>113</ele>
        <time>2011-04-15T10:47:45Z</time>
      </trkpt>
      <trkpt lat="48.48447" lon="2.11799">
        <ele>113</ele>
        <time>2011-04-15T10:47:46Z</time>
      </trkpt>
      <trkpt lat="48.48448" lon="2.11802">
        <ele>113</ele>
        <time>2011-04-15T10:47:47Z</time>
      </trkpt>
      <trkpt lat="48.48449" lon="2.11804">
        <ele>113</ele>
        <time>2011-04-15T10:47:48Z</time>
      </trkpt>
      <trkpt lat="48.48449" lon="2.11807">
        <ele>113</ele>
        <time>2011-04-15T10:47:49Z</time>
      </trkpt>
      <trkpt lat="48.4845" lon="2.11809">
        <ele>113</ele>
        <time>2011-04-15T10:47:50Z</time>
      </trkpt>
      <trkpt lat="48.48451" lon="2.11811">
        <ele>113</ele>
        <time>2011-04-15T10:47:51Z</time>
      </trkpt>
      <trkpt lat="48.48452" lon="2.11814">
        <ele>113</ele>
        <time>2011-04-15T10:47:52Z</time>
      </trkpt>
      <trkpt lat="48.48453" lon="2.11816">
        <ele>113</ele>
        <time>2011-04-15T10:47:53Z</time>
      </trkpt>
      <trkpt lat="48.48453" lon="2.11819">
        <ele>113</ele>
        <time>2011-04-15T10:47:54Z</time>
      </trkpt>
      <trkpt lat="48.48454" lon="2.11822">
        <ele>113</ele>
        <time>2011-04-15T10:47:55Z</time>
      </trkpt>
      <trkpt lat="48.48455" lon="2.11824">
        <ele>113</ele>
        <time>2011-04-15T10:47:56Z</time>
      </trkpt>
      <trkpt lat="48.48456" lon="2.11827">
        <ele>113</ele>
        <time>2011-04-15T10:47:57Z</time>
      </trkpt>
      <trkpt lat="48.48457" lon="2.11829">
        <ele>113</ele>
        <time>2011-04-15T10:47:58Z</time>
      </trkpt>
      <trkpt lat="48.48457" lon="2.11832">
        <ele>113</ele>
        <time>2011-04-15T10:47:59Z</time>
      </trkpt>
      <trkpt lat="48.48458" lon="2.11835">
        <ele>113</ele>
        <time>2011-04-15T10:48:00Z</time>
      </trkpt>
      <trkpt lat="48.48459" lon="2.11837">
        <ele>113</ele>
        <time>2011-04-15T10:48:01Z</time>
      </trkpt>
      <trkpt lat="48.4846" lon="2.11839">
        <ele>113</ele>
        <time>2011-04-15T10:48:02Z</time>
      </trkpt>
      <trkpt lat="48.48461" lon="2.11842">
        <ele>113</ele>
        <time>2011-04-15T10:48:03Z</time>
      </trkpt>
      <trkpt lat="48.48461" lon="2.11844">
        <ele>113</ele>
        <time>2011-04-15T10:48:04Z</time>
      </trkpt>
      <trkpt lat="48.48462" lon="2.11846">
        <ele>113</ele>
        <time>2011-04-15T10:48:05Z</time>
      </trkpt>
      <trkpt lat="48.48462" lon="2.11849">
        <ele>113</ele>
        <time>2011-04-15T10:48:06Z</time>
      </trkpt>
      <trkpt lat="48.48463" lon="2.11851">
        <ele>113</ele>
        <time>2011-04-15T10:48:07Z</time>
      </trkpt>
      <trkpt lat="48.48464" lon="2.11854">
        <ele>113</ele>
        <time>2011-04-15T10:48:08Z</time>
      </trkpt>
      <trkpt lat="48.48465" lon="2.11856">
        <ele>113</ele>
        <time>2011-04-15T10:48:09Z</time>
      </trkpt>
      <trkpt lat="48.48466" lon="2.11859">
        <ele>113</ele>
        <time>2011-04-15T10:48:10Z</time>
      </trkpt>
      <trkpt lat="48.48467" lon="2.11861">
        <ele>113</ele>
        <time>2011-04-15T10:48:11Z</time>
      </trkpt>
      <trkpt lat="48.48468" lon="2.11864">
        <ele>113</ele>
        <time>2011-04-15T10:48:12Z</time>
      </trkpt>
      <trkpt lat="48.48469" lon="2.11867">
        <ele>113</ele>
        <time>2011-04-15T10:48:13Z</time>
      </trkpt>
      <trkpt lat="48.48469" lon="2.11869">
        <ele>113</ele>
        <time>2011-04-15T10:48:14Z</time>
      </trkpt>
      <trkpt lat="48.4847" lon="2.11872">
        <ele>113</ele>
        <time>2011-04-15T10:48:15Z</time>
      </trkpt>
      <trkpt lat="48.48471" lon="2.11874">
        <ele>113</ele>
        <time>2011-04-15T10:48:16Z</time>
      </trkpt>
      <trkpt lat="48.48471" lon="2.11876">
        <ele>113</ele>
        <time>2011-04-15T10:48:17Z</time>
      </trkpt>
      <trkpt lat="48.48472" lon="2.11878">
        <ele>113</ele>
        <time>2011-04-15T10:48:18Z</time>
      </trkpt>
      <trkpt lat="48.48473" lon="2.11881">
        <ele>113</ele>
        <time>2011-04-15T10:48:19Z</time>
      </trkpt>
      <trkpt lat="48.48473" lon="2.11883">
        <ele>113</ele>
        <time>2011-04-15T10:48:20Z</time>
      </trkpt>
      <trkpt lat="48.48474" lon="2.11885">
        <ele>113</ele>
        <time>2011-04-15T10:48:21Z</time>
      </trkpt>
      <trkpt lat="48.48475" lon="2.11888">
        <ele>113</ele>
        <time>2011-04-15T10:48:22Z</time>
      </trkpt>
      <trkpt lat="48.48475" lon="2.1189">
        <ele>113</ele>
        <time>2011-04-15T10:48:23Z</time>
      </trkpt>
      <trkpt lat="48.48476" lon="2.11892">
        <ele>113</ele>
        <time>2011-04-15T10:48:24Z</time>
      </trkpt>
      <trkpt lat="48.48477" lon="2.11895">
        <ele>113</ele>
        <time>2011-04-15T10:48:25Z</time>
      </trkpt>
      <trkpt lat="48.48477" lon="2.11897">
        <ele>113</ele>
        <time>2011-04-15T10:48:26Z</time>
      </trkpt>
      <trkpt lat="48.48478" lon="2.11899">
        <ele>113</ele>
        <time>2011-04-15T10:48:27Z</time>
      </trkpt>
      <trkpt lat="48.48479" lon="2.11901">
        <ele>113</ele>
        <time>2011-04-15T10:48:28Z</time>
      </trkpt>
      <trkpt lat="48.48479" lon="2.11903">
        <ele>113</ele>
        <time>2011-04-15T10:48:29Z</time>
      </trkpt>
      <trkpt lat="48.4848" lon="2.11905">
        <ele>113</ele>
        <time>2011-04-15T10:48:30Z</time>
      </trkpt>
      <trkpt lat="48.4848" lon="2.11907">
        <ele>113</ele>
        <time>2011-04-15T10:48:31Z</time>
      </trkpt>
      <trkpt lat="48.48481" lon="2.11909">
        <ele>113</ele>
        <time>2011-04-15T10:48:32Z</time>
      </trkpt>
      <trkpt lat="48.48481" lon="2.11911">
        <ele>113</ele>
        <time>2011-04-15T10:48:33Z</time>
      </trkpt>
      <trkpt lat="48.48482" lon="2.11914">
        <ele>113</ele>
        <time>2011-04-15T10:48:34Z</time>
      </trkpt>
      <trkpt lat="48.48482" lon="2.11916">
        <ele>113</ele>
        <time>2011-04-15T10:48:35Z</time>
      </trkpt>
      <trkpt lat="48.48483" lon="2.11919">
        <ele>113</ele>
        <time>2011-04-15T10:48:36Z</time>
      </trkpt>
      <trkpt lat="48.48483" lon="2.11921">
        <ele>113</ele>
        <time>2011-04-15T10:48:37Z</time>
      </trkpt>
      <trkpt lat="48.48484" lon="2.11924">
        <ele>113</ele>
        <time>2011-04-15T10:48:38Z</time>
      </trkpt>
      <trkpt lat="48.48485" lon="2.11926">
        <ele>113</ele>
        <time>2011-04-15T10:48:39Z</time>
      </trkpt>
      <trkpt lat="48.48485" lon="2.11928">
        <ele>113</ele>
        <time>2011-04-15T10:48:40Z</time>
      </trkpt>
      <trkpt lat="48.48486" lon="2.11931">
        <ele>113</ele>
        <time>2011-04-15T10:48:41Z</time>
      </trkpt>
      <trkpt lat="48.48487" lon="2.11934">
        <ele>113</ele>
        <time>2011-04-15T10:48:42Z</time>
      </trkpt>
      <trkpt lat="48.48488" lon="2.11936">
        <ele>113</ele>
        <time>2011-04-15T10:48:43Z</time>
      </trkpt>
      <trkpt lat="48.48488" lon="2.11939">
        <ele>113</ele>
        <time>2011-04-15T10:48:44Z</time>
      </trkpt>
      <trkpt lat="48.48489" lon="2.11941">
        <ele>113</ele>
        <time>2011-04-15T10:48:45Z</time>
      </trkpt>
      <trkpt lat="48.4849" lon="2.11944">
        <ele>113</ele>
        <time>2011-04-15T10:48:46Z</time>
      </trkpt>
      <trkpt lat="48.48491" lon="2.11946">
        <ele>113</ele>
        <time>2011-04-15T10:48:47Z</time>
      </trkpt>
      <trkpt lat="48.48491" lon="2.11949">
        <ele>113</ele>
        <time>2011-04-15T10:48:48Z</time>
      </trkpt>
      <trkpt lat="48.48492" lon="2.11951">
        <ele>113</ele>
        <time>2011-04-15T10:48:49Z</time>
      </trkpt>
      <trkpt lat="48.48492" lon="2.11953">
        <ele>112</ele>
        <time>2011-04-15T10:48:50Z</time>
      </trkpt>
      <trkpt lat="48.48493" lon="2.11955">
        <ele>112</ele>
        <time>2011-04-15T10:48:51Z</time>
      </trkpt>
      <trkpt lat="48.48494" lon="2.11958">
        <ele>112</ele>
        <time>2011-04-15T10:48:52Z</time>
      </trkpt>
      <trkpt lat="48.48494" lon="2.1196">
        <ele>112</ele>
        <time>2011-04-15T10:48:53Z</time>
      </trkpt>
      <trkpt lat="48.48495" lon="2.11962">
        <ele>112</ele>
        <time>2011-04-15T10:48:54Z</time>
      </trkpt>
      <trkpt lat="48.48496" lon="2.11965">
        <ele>112</ele>
        <time>2011-04-15T10:48:55Z</time>
      </trkpt>
      <trkpt lat="48.48496" lon="2.11967">
        <ele>111</ele>
        <time>2011-04-15T10:48:56Z</time>
      </trkpt>
      <trkpt lat="48.48497" lon="2.11969">
        <ele>111</ele>
        <time>2011-04-15T10:48:57Z</time>
      </trkpt>
      <trkpt lat="48.48497" lon="2.11972">
        <ele>111</ele>
        <time>2011-04-15T10:48:58Z</time>
      </trkpt>
      <trkpt lat="48.48498" lon="2.11974">
        <ele>111</ele>
        <time>2011-04-15T10:48:59Z</time>
      </trkpt>
      <trkpt lat="48.48499" lon="2.11977">
        <ele>111</ele>
        <time>2011-04-15T10:49:00Z</time>
      </trkpt>
      <trkpt lat="48.48499" lon="2.11979">
        <ele>111</ele>
        <time>2011-04-15T10:49:01Z</time>
      </trkpt>
      <trkpt lat="48.485" lon="2.11982">
        <ele>111</ele>
        <time>2011-04-15T10:49:02Z</time>
      </trkpt>
      <trkpt lat="48.48501" lon="2.11985">
        <ele>111</ele>
        <time>2011-04-15T10:49:03Z</time>
      </trkpt>
      <trkpt lat="48.48501" lon="2.11987">
        <ele>111</ele>
        <time>2011-04-15T10:49:04Z</time>
      </trkpt>
      <trkpt lat="48.48502" lon="2.1199">
        <ele>110</ele>
        <time>2011-04-15T10:49:05Z</time>
      </trkpt>
      <trkpt lat="48.48503" lon="2.11992">
        <ele>110</ele>
        <time>2011-04-15T10:49:06Z</time>
      </trkpt>
      <trkpt lat="48.48503" lon="2.11994">
        <ele>110</ele>
        <time>2011-04-15T10:49:07Z</time>
      </trkpt>
      <trkpt lat="48.48504" lon="2.11996">
        <ele>110</ele>
        <time>2011-04-15T10:49:08Z</time>
      </trkpt>
      <trkpt lat="48.48505" lon="2.11999">
        <ele>110</ele>
        <time>2011-04-15T10:49:09Z</time>
      </trkpt>
      <trkpt lat="48.48506" lon="2.12001">
        <ele>110</ele>
        <time>2011-04-15T10:49:10Z</time>
      </trkpt>
      <trkpt lat="48.48507" lon="2.12004">
        <ele>110</ele>
        <time>2011-04-15T10:49:11Z</time>
      </trkpt>
      <trkpt lat="48.48508" lon="2.12006">
        <ele>110</ele>
        <time>2011-04-15T10:49:12Z</time>
      </trkpt>
      <trkpt lat="48.48509" lon="2.12008">
        <ele>110</ele>
        <time>2011-04-15T10:49:13Z</time>
      </trkpt>
      <trkpt lat="48.48509" lon="2.1201">
        <ele>110</ele>
        <time>2011-04-15T10:49:14Z</time>
      </trkpt>
      <trkpt lat="48.4851" lon="2.12013">
        <ele>110</ele>
        <time>2011-04-15T10:49:15Z</time>
      </trkpt>
      <trkpt lat="48.48511" lon="2.12015">
        <ele>110</ele>
        <time>2011-04-15T10:49:16Z</time>
      </trkpt>
      <trkpt lat="48.48512" lon="2.12018">
        <ele>110</ele>
        <time>2011-04-15T10:49:17Z</time>
      </trkpt>
      <trkpt lat="48.48512" lon="2.1202">
        <ele>110</ele>
        <time>2011-04-15T10:49:18Z</time>
      </trkpt>
      <trkpt lat="48.48513" lon="2.12023">
        <ele>110</ele>
        <time>2011-04-15T10:49:19Z</time>
      </trkpt>
      <trkpt lat="48.48513" lon="2.12025">
        <ele>110</ele>
        <time>2011-04-15T10:49:20Z</time>
      </trkpt>
      <trkpt lat="48.48514" lon="2.12028">
        <ele>110</ele>
        <time>2011-04-15T10:49:21Z</time>
      </trkpt>
      <trkpt lat="48.48515" lon="2.1203">
        <ele>110</ele>
        <time>2011-04-15T10:49:22Z</time>
      </trkpt>
      <trkpt lat="48.48515" lon="2.12033">
        <ele>110</ele>
        <time>2011-04-15T10:49:23Z</time>
      </trkpt>
      <trkpt lat="48.48516" lon="2.12035">
        <ele>110</ele>
        <time>2011-04-15T10:49:24Z</time>
      </trkpt>
      <trkpt lat="48.48517" lon="2.12038">
        <ele>110</ele>
        <time>2011-04-15T10:49:25Z</time>
      </trkpt>
      <trkpt lat="48.48518" lon="2.1204">
        <ele>110</ele>
        <time>2011-04-15T10:49:26Z</time>
      </trkpt>
      <trkpt lat="48.48518" lon="2.12043">
        <ele>110</ele>
        <time>2011-04-15T10:49:27Z</time>
      </trkpt>
      <trkpt lat="48.48519" lon="2.12045">
        <ele>109</ele>
        <time>2011-04-15T10:49:28Z</time>
      </trkpt>
      <trkpt lat="48.48519" lon="2.12047">
        <ele>109</ele>
        <time>2011-04-15T10:49:29Z</time>
      </trkpt>
      <trkpt lat="48.4852" lon="2.12049">
        <ele>109</ele>
        <time>2011-04-15T10:49:30Z</time>
      </trkpt>
      <trkpt lat="48.48521" lon="2.12052">
        <ele>109</ele>
        <time>2011-04-15T10:49:31Z</time>
      </trkpt>
      <trkpt lat="48.48522" lon="2.12054">
        <ele>109</ele>
        <time>2011-04-15T10:49:32Z</time>
      </trkpt>
      <trkpt lat="48.48523" lon="2.12057">
        <ele>109</ele>
        <time>2011-04-15T10:49:33Z</time>
      </trkpt>
      <trkpt lat="48.48524" lon="2.12059">
        <ele>109</ele>
        <time>2011-04-15T10:49:34Z</time>
      </trkpt>
      <trkpt lat="48.48525" lon="2.12061">
        <ele>109</ele>
        <time>2011-04-15T10:49:35Z</time>
      </trkpt>
      <trkpt lat="48.48526" lon="2.12064">
        <ele>109</ele>
        <time>2011-04-15T10:49:36Z</time>
      </trkpt>
      <trkpt lat="48.48527" lon="2.12066">
        <ele>109</ele>
        <time>2011-04-15T10:49:37Z</time>
      </trkpt>
      <trkpt lat="48.48527" lon="2.12068">
        <ele>109</ele>
        <time>2011-04-15T10:49:38Z</time>
      </trkpt>
      <trkpt lat="48.48528" lon="2.12071">
        <ele>109</ele>
        <time>2011-04-15T10:49:39Z</time>
      </trkpt>
      <trkpt lat="48.48529" lon="2.12073">
        <ele>109</ele>
        <time>2011-04-15T10:49:40Z</time>
      </trkpt>
      <trkpt lat="48.48529" lon="2.12075">
        <ele>109</ele>
        <time>2011-04-15T10:49:41Z</time>
      </trkpt>
      <trkpt lat="48.4853" lon="2.12077">
        <ele>109</ele>
        <time>2011-04-15T10:49:42Z</time>
      </trkpt>
      <trkpt lat="48.48531" lon="2.1208">
        <ele>109</ele>
        <time>2011-04-15T10:49:43Z</time>
      </trkpt>
      <trkpt lat="48.48532" lon="2.12082">
        <ele>109</ele>
        <time>2011-04-15T10:49:44Z</time>
      </trkpt>
      <trkpt lat="48.48532" lon="2.12084">
        <ele>109</ele>
        <time>2011-04-15T10:49:45Z</time>
      </trkpt>
      <trkpt lat="48.48533" lon="2.12087">
        <ele>109</ele>
        <time>2011-04-15T10:49:46Z</time>
      </trkpt>
      <trkpt lat="48.48534" lon="2.12089">
        <ele>109</ele>
        <time>2011-04-15T10:49:47Z</time>
      </trkpt>
      <trkpt lat="48.48534" lon="2.12091">
        <ele>109</ele>
        <time>2011-04-15T10:49:48Z</time>
      </trkpt>
      <trkpt lat="48.48535" lon="2.12093">
        <ele>109</ele>
        <time>2011-04-15T10:49:49Z</time>
      </trkpt>
      <trkpt lat="48.48536" lon="2.12095">
        <ele>109</ele>
        <time>2011-04-15T10:49:50Z</time>
      </trkpt>
      <trkpt lat="48.48536" lon="2.12098">
        <ele>109</ele>
        <time>2011-04-15T10:49:51Z</time>
      </trkpt>
      <trkpt lat="48.48537" lon="2.121">
        <ele>109</ele>
        <time>2011-04-15T10:49:52Z</time>
      </trkpt>
      <trkpt lat="48.48538" lon="2.12102">
        <ele>109</ele>
        <time>2011-04-15T10:49:53Z</time>
      </trkpt>
      <trkpt lat="48.48538" lon="2.12104">
        <ele>109</ele>
        <time>2011-04-15T10:49:54Z</time>
      </trkpt>
      <trkpt lat="48.48539" lon="2.12107">
        <ele>109</ele>
        <time>2011-04-15T10:49:55Z</time>
      </trkpt>
      <trkpt lat="48.4854" lon="2.12109">
        <ele>109</ele>
        <time>2011-04-15T10:49:56Z</time>
      </trkpt>
      <trkpt lat="48.48541" lon="2.12111">
        <ele>109</ele>
        <time>2011-04-15T10:49:57Z</time>
      </trkpt>
      <trkpt lat="48.48541" lon="2.12114">
        <ele>109</ele>
        <time>2011-04-15T10:49:58Z</time>
      </trkpt>
      <trkpt lat="48.48542" lon="2.12117">
        <ele>109</ele>
        <time>2011-04-15T10:49:59Z</time>
      </trkpt>
      <trkpt lat="48.48543" lon="2.12119">
        <ele>109</ele>
        <time>2011-04-15T10:50:00Z</time>
      </trkpt>
      <trkpt lat="48.48543" lon="2.12121">
        <ele>109</ele>
        <time>2011-04-15T10:50:01Z</time>
      </trkpt>
      <trkpt lat="48.48544" lon="2.12123">
        <ele>109</ele>
        <time>2011-04-15T10:50:02Z</time>
      </trkpt>
      <trkpt lat="48.48545" lon="2.12125">
        <ele>109</ele>
        <time>2011-04-15T10:50:03Z</time>
      </trkpt>
      <trkpt lat="48.48546" lon="2.12128">
        <ele>109</ele>
        <time>2011-04-15T10:50:04Z</time>
      </trkpt>
      <trkpt lat="48.48547" lon="2.1213">
        <ele>109</ele>
        <time>2011-04-15T10:50:05Z</time>
      </trkpt>
      <trkpt lat="48.48547" lon="2.12132">
        <ele>109</ele>
        <time>2011-04-15T10:50:06Z</time>
      </trkpt>
      <trkpt lat="48.48549" lon="2.12134">
        <ele>109</ele>
        <time>2011-04-15T10:50:07Z</time>
      </trkpt>
      <trkpt lat="48.4855" lon="2.12136">
        <ele>109</ele>
        <time>2011-04-15T10:50:08Z</time>
      </trkpt>
      <trkpt lat="48.48551" lon="2.12138">
        <ele>109</ele>
        <time>2011-04-15T10:50:09Z</time>
      </trkpt>
      <trkpt lat="48.48552" lon="2.1214">
        <ele>109</ele>
        <time>2011-04-15T10:50:10Z</time>
      </trkpt>
      <trkpt lat="48.48553" lon="2.12141">
        <ele>109</ele>
        <time>2011-04-15T10:50:11Z</time>
      </trkpt>
      <trkpt lat="48.48555" lon="2.12142">
        <ele>109</ele>
        <time>2011-04-15T10:50:12Z</time>
      </trkpt>
      <trkpt lat="48.48557" lon="2.12143">
        <ele>109</ele>
        <time>2011-04-15T10:50:13Z</time>
      </trkpt>
      <trkpt lat="48.48558" lon="2.12144">
        <ele>109</ele>
        <time>2011-04-15T10:50:14Z</time>
      </trkpt>
      <trkpt lat="48.48559" lon="2.12144">
        <ele>109</ele>
        <time>2011-04-15T10:50:15Z</time>
      </trkpt>
      <trkpt lat="48.48561" lon="2.12145">
        <ele>109</ele>
        <time>2011-04-15T10:50:17Z</time>
      </trkpt>
      <trkpt lat="48.48563" lon="2.12145">
        <ele>109</ele>
        <time>2011-04-15T10:50:19Z</time>
      </trkpt>
      <trkpt lat="48.48564" lon="2.12146">
        <ele>109</ele>
        <time>2011-04-15T10:50:20Z</time>
      </trkpt>
      <trkpt lat="48.48566" lon="2.12146">
        <ele>109</ele>
        <time>2011-04-15T10:50:21Z</time>
      </trkpt>
      <trkpt lat="48.48568" lon="2.12146">
        <ele>109</ele>
        <time>2011-04-15T10:50:22Z</time>
      </trkpt>
      <trkpt lat="48.48569" lon="2.12147">
        <ele>109</ele>
        <time>2011-04-15T10:50:23Z</time>
      </trkpt>
      <trkpt lat="48.48571" lon="2.12147">
        <ele>109</ele>
        <time>2011-04-15T10:50:24Z</time>
      </trkpt>
      <trkpt lat="48.48572" lon="2.12147">
        <ele>109</ele>
        <time>2011-04-15T10:50:25Z</time>
      </trkpt>
      <trkpt lat="48.48574" lon="2.12147">
        <ele>109</ele>
        <time>2011-04-15T10:50:26Z</time>
      </trkpt>
      <trkpt lat="48.48576" lon="2.12147">
        <ele>109</ele>
        <time>2011-04-15T10:50:27Z</time>
      </trkpt>
      <trkpt lat="48.48577" lon="2.12147">
        <ele>109</ele>
        <time>2011-04-15T10:50:28Z</time>
      </trkpt>
      <trkpt lat="48.48579" lon="2.12147">
        <ele>109</ele>
        <time>2011-04-15T10:50:29Z</time>
      </trkpt>
      <trkpt lat="48.48581" lon="2.12147">
        <ele>109</ele>
        <time>2011-04-15T10:50:30Z</time>
      </trkpt>
      <trkpt lat="48.48582" lon="2.12147">
        <ele>109</ele>
        <time>2011-04-15T10:50:31Z</time>
      </trkpt>
      <trkpt lat="48.48584" lon="2.12147">
        <ele>109</ele>
        <time>2011-04-15T10:50:32Z</time>
      </trkpt>
      <trkpt lat="48.48585" lon="2.12148">
        <ele>109</ele>
        <time>2011-04-15T10:50:33Z</time>
      </trkpt>
      <trkpt lat="48.48587" lon="2.12148">
        <ele>109</ele>
        <time>2011-04-15T10:50:34Z</time>
      </trkpt>
      <trkpt lat="48.48589" lon="2.12149">
        <ele>109</ele>
        <time>2011-04-15T10:50:35Z</time>
      </trkpt>
      <trkpt lat="48.4859" lon="2.12149">
        <ele>109</ele>
        <time>2011-04-15T10:50:36Z</time>
      </trkpt>
      <trkpt lat="48.48592" lon="2.12148">
        <ele>109</ele>
        <time>2011-04-15T10:50:37Z</time>
      </trkpt>
      <trkpt lat="48.48594" lon="2.12148">
        <ele>109</ele>
        <time>2011-04-15T10:50:38Z</time>
      </trkpt>
      <trkpt lat="48.48595" lon="2.12148">
        <ele>109</ele>
        <time>2011-04-15T10:50:39Z</time>
      </trkpt>
      <trkpt lat="48.48597" lon="2.12148">
        <ele>109</ele>
        <time>2011-04-15T10:50:40Z</time>
      </trkpt>
      <trkpt lat="48.48599" lon="2.12148">
        <ele>109</ele>
        <time>2011-04-15T10:50:41Z</time>
      </trkpt>
      <trkpt lat="48.486" lon="2.12148">
        <ele>109</ele>
        <time>2011-04-15T10:50:42Z</time>
      </trkpt>
      <trkpt lat="48.48602" lon="2.12148">
        <ele>109</ele>
        <time>2011-04-15T10:50:43Z</time>
      </trkpt>
      <trkpt lat="48.48604" lon="2.12148">
        <ele>108</ele>
        <time>2011-04-15T10:50:44Z</time>
      </trkpt>
      <trkpt lat="48.48605" lon="2.12148">
        <ele>108</ele>
        <time>2011-04-15T10:50:45Z</time>
      </trkpt>
      <trkpt lat="48.48607" lon="2.12149">
        <ele>108</ele>
        <time>2011-04-15T10:50:46Z</time>
      </trkpt>
      <trkpt lat="48.48608" lon="2.12149">
        <ele>108</ele>
        <time>2011-04-15T10:50:47Z</time>
      </trkpt>
      <trkpt lat="48.4861" lon="2.12149">
        <ele>108</ele>
        <time>2011-04-15T10:50:48Z</time>
      </trkpt>
      <trkpt lat="48.48612" lon="2.12149">
        <ele>108</ele>
        <time>2011-04-15T10:50:49Z</time>
      </trkpt>
      <trkpt lat="48.48613" lon="2.12149">
        <ele>108</ele>
        <time>2011-04-15T10:50:50Z</time>
      </trkpt>
      <trkpt lat="48.48615" lon="2.12149">
        <ele>108</ele>
        <time>2011-04-15T10:50:51Z</time>
      </trkpt>
      <trkpt lat="48.48616" lon="2.12149">
        <ele>108</ele>
        <time>2011-04-15T10:50:52Z</time>
      </trkpt>
      <trkpt lat="48.48618" lon="2.12149">
        <ele>108</ele>
        <time>2011-04-15T10:50:53Z</time>
      </trkpt>
      <trkpt lat="48.48619" lon="2.12148">
        <ele>108</ele>
        <time>2011-04-15T10:50:54Z</time>
      </trkpt>
      <trkpt lat="48.48621" lon="2.12149">
        <ele>108</ele>
        <time>2011-04-15T10:50:55Z</time>
      </trkpt>
      <trkpt lat="48.48622" lon="2.12148">
        <ele>108</ele>
        <time>2011-04-15T10:50:56Z</time>
      </trkpt>
      <trkpt lat="48.48624" lon="2.12148">
        <ele>108</ele>
        <time>2011-04-15T10:50:57Z</time>
      </trkpt>
      <trkpt lat="48.48625" lon="2.12148">
        <ele>108</ele>
        <time>2011-04-15T10:50:58Z</time>
      </trkpt>
      <trkpt lat="48.48627" lon="2.12148">
        <ele>108</ele>
        <time>2011-04-15T10:50:59Z</time>
      </trkpt>
      <trkpt lat="48.48629" lon="2.12148">
        <ele>108</ele>
        <time>2011-04-15T10:51:00Z</time>
      </trkpt>
      <trkpt lat="48.48631" lon="2.12148">
        <ele>108</ele>
        <time>2011-04-15T10:51:01Z</time>
      </trkpt>
      <trkpt lat="48.48632" lon="2.12147">
        <ele>108</ele>
        <time>2011-04-15T10:51:02Z</time>
      </trkpt>
      <trkpt lat="48.48634" lon="2.12147">
        <ele>108</ele>
        <time>2011-04-15T10:51:03Z</time>
      </trkpt>
      <trkpt lat="48.48636" lon="2.12147">
        <ele>108</ele>
        <time>2011-04-15T10:51:04Z</time>
      </trkpt>
      <trkpt lat="48.48637" lon="2.12146">
        <ele>107</ele>
        <time>2011-04-15T10:51:05Z</time>
      </trkpt>
      <trkpt lat="48.48639" lon="2.12146">
        <ele>107</ele>
        <time>2011-04-15T10:51:06Z</time>
      </trkpt>
      <trkpt lat="48.48641" lon="2.12146">
        <ele>107</ele>
        <time>2011-04-15T10:51:07Z</time>
      </trkpt>
      <trkpt lat="48.48643" lon="2.12146">
        <ele>107</ele>
        <time>2011-04-15T10:51:08Z</time>
      </trkpt>
      <trkpt lat="48.48645" lon="2.12145">
        <ele>107</ele>
        <time>2011-04-15T10:51:09Z</time>
      </trkpt>
      <trkpt lat="48.48646" lon="2.12145">
        <ele>107</ele>
        <time>2011-04-15T10:51:10Z</time>
      </trkpt>
      <trkpt lat="48.48648" lon="2.12145">
        <ele>107</ele>
        <time>2011-04-15T10:51:11Z</time>
      </trkpt>
      <trkpt lat="48.4865" lon="2.12145">
        <ele>107</ele>
        <time>2011-04-15T10:51:12Z</time>
      </trkpt>
      <trkpt lat="48.48652" lon="2.12145">
        <ele>107</ele>
        <time>2011-04-15T10:51:13Z</time>
      </trkpt>
      <trkpt lat="48.48653" lon="2.12145">
        <ele>107</ele>
        <time>2011-04-15T10:51:14Z</time>
      </trkpt>
      <trkpt lat="48.48655" lon="2.12146">
        <ele>106</ele>
        <time>2011-04-15T10:51:15Z</time>
      </trkpt>
      <trkpt lat="48.48657" lon="2.12146">
        <ele>106</ele>
        <time>2011-04-15T10:51:16Z</time>
      </trkpt>
      <trkpt lat="48.4866" lon="2.12146">
        <ele>106</ele>
        <time>2011-04-15T10:51:17Z</time>
      </trkpt>
      <trkpt lat="48.48662" lon="2.12146">
        <ele>106</ele>
        <time>2011-04-15T10:51:18Z</time>
      </trkpt>
      <trkpt lat="48.48664" lon="2.12146">
        <ele>105</ele>
        <time>2011-04-15T10:51:19Z</time>
      </trkpt>
      <trkpt lat="48.48666" lon="2.12146">
        <ele>105</ele>
        <time>2011-04-15T10:51:20Z</time>
      </trkpt>
      <trkpt lat="48.48668" lon="2.12147">
        <ele>105</ele>
        <time>2011-04-15T10:51:21Z</time>
      </trkpt>
      <trkpt lat="48.4867" lon="2.12147">
        <ele>105</ele>
        <time>2011-04-15T10:51:22Z</time>
      </trkpt>
      <trkpt lat="48.48672" lon="2.12147">
        <ele>104</ele>
        <time>2011-04-15T10:51:23Z</time>
      </trkpt>
      <trkpt lat="48.48673" lon="2.12147">
        <ele>104</ele>
        <time>2011-04-15T10:51:24Z</time>
      </trkpt>
      <trkpt lat="48.48675" lon="2.12147">
        <ele>104</ele>
        <time>2011-04-15T10:51:25Z</time>
      </trkpt>
      <trkpt lat="48.48677" lon="2.12147">
        <ele>104</ele>
        <time>2011-04-15T10:51:26Z</time>
      </trkpt>
      <trkpt lat="48.48679" lon="2.12147">
        <ele>104</ele>
        <time>2011-04-15T10:51:27Z</time>
      </trkpt>
      <trkpt lat="48.4868" lon="2.12147">
        <ele>104</ele>
        <time>2011-04-15T10:51:28Z</time>
      </trkpt>
      <trkpt lat="48.48682" lon="2.12147">
        <ele>104</ele>
        <time>2011-04-15T10:51:29Z</time>
      </trkpt>
      <trkpt lat="48.48683" lon="2.12147">
        <ele>104</ele>
        <time>2011-04-15T10:51:30Z</time>
      </trkpt>
      <trkpt lat="48.48685" lon="2.12147">
        <ele>104</ele>
        <time>2011-04-15T10:51:31Z</time>
      </trkpt>
      <trkpt lat="48.48687" lon="2.12147">
        <ele>104</ele>
        <time>2011-04-15T10:51:32Z</time>
      </trkpt>
      <trkpt lat="48.48689" lon="2.12146">
        <ele>104</ele>
        <time>2011-04-15T10:51:33Z</time>
      </trkpt>
      <trkpt lat="48.48691" lon="2.12146">
        <ele>104</ele>
        <time>2011-04-15T10:51:34Z</time>
      </trkpt>
      <trkpt lat="48.48693" lon="2.12147">
        <ele>104</ele>
        <time>2011-04-15T10:51:35Z</time>
      </trkpt>
      <trkpt lat="48.48694" lon="2.12147">
        <ele>103</ele>
        <time>2011-04-15T10:51:36Z</time>
      </trkpt>
      <trkpt lat="48.48696" lon="2.12147">
        <ele>103</ele>
        <time>2011-04-15T10:51:37Z</time>
      </trkpt>
      <trkpt lat="48.48698" lon="2.12147">
        <ele>103</ele>
        <time>2011-04-15T10:51:38Z</time>
      </trkpt>
      <trkpt lat="48.48699" lon="2.12147">
        <ele>103</ele>
        <time>2011-04-15T10:51:39Z</time>
      </trkpt>
      <trkpt lat="48.48701" lon="2.12147">
        <ele>103</ele>
        <time>2011-04-15T10:51:40Z</time>
      </trkpt>
      <trkpt lat="48.48703" lon="2.12148">
        <ele>103</ele>
        <time>2011-04-15T10:51:41Z</time>
      </trkpt>
      <trkpt lat="48.48705" lon="2.12148">
        <ele>103</ele>
        <time>2011-04-15T10:51:42Z</time>
      </trkpt>
      <trkpt lat="48.48707" lon="2.12148">
        <ele>103</ele>
        <time>2011-04-15T10:51:43Z</time>
      </trkpt>
      <trkpt lat="48.48708" lon="2.12148">
        <ele>103</ele>
        <time>2011-04-15T10:51:44Z</time>
      </trkpt>
      <trkpt lat="48.4871" lon="2.12148">
        <ele>103</ele>
        <time>2011-04-15T10:51:45Z</time>
      </trkpt>
      <trkpt lat="48.48711" lon="2.12148">
        <ele>103</ele>
        <time>2011-04-15T10:51:46Z</time>
      </trkpt>
      <trkpt lat="48.48713" lon="2.12148">
        <ele>103</ele>
        <time>2011-04-15T10:51:47Z</time>
      </trkpt>
      <trkpt lat="48.48714" lon="2.12148">
        <ele>103</ele>
        <time>2011-04-15T10:51:48Z</time>
      </trkpt>
      <trkpt lat="48.48716" lon="2.12148">
        <ele>103</ele>
        <time>2011-04-15T10:51:49Z</time>
      </trkpt>
      <trkpt lat="48.48717" lon="2.12148">
        <ele>103</ele>
        <time>2011-04-15T10:51:50Z</time>
      </trkpt>
      <trkpt lat="48.48719" lon="2.12147">
        <ele>103</ele>
        <time>2011-04-15T10:51:51Z</time>
      </trkpt>
      <trkpt lat="48.4872" lon="2.12147">
        <ele>103</ele>
        <time>2011-04-15T10:51:52Z</time>
      </trkpt>
      <trkpt lat="48.48722" lon="2.12147">
        <ele>103</ele>
        <time>2011-04-15T10:51:53Z</time>
      </trkpt>
      <trkpt lat="48.48724" lon="2.12147">
        <ele>103</ele>
        <time>2011-04-15T10:51:54Z</time>
      </trkpt>
      <trkpt lat="48.48725" lon="2.12147">
        <ele>103</ele>
        <time>2011-04-15T10:51:55Z</time>
      </trkpt>
      <trkpt lat="48.48727" lon="2.12147">
        <ele>103</ele>
        <time>2011-04-15T10:51:56Z</time>
      </trkpt>
      <trkpt lat="48.48729" lon="2.12146">
        <ele>103</ele>
        <time>2011-04-15T10:51:57Z</time>
      </trkpt>
      <trkpt lat="48.4873" lon="2.12146">
        <ele>103</ele>
        <time>2011-04-15T10:51:58Z</time>
      </trkpt>
      <trkpt lat="48.48732" lon="2.12145">
        <ele>103</ele>
        <time>2011-04-15T10:51:59Z</time>
      </trkpt>
      <trkpt lat="48.48734" lon="2.12145">
        <ele>103</ele>
        <time>2011-04-15T10:52:00Z</time>
      </trkpt>
      <trkpt lat="48.48736" lon="2.12145">
        <ele>103</ele>
        <time>2011-04-15T10:52:01Z</time>
      </trkpt>
      <trkpt lat="48.48737" lon="2.12145">
        <ele>103</ele>
        <time>2011-04-15T10:52:02Z</time>
      </trkpt>
      <trkpt lat="48.48739" lon="2.12145">
        <ele>103</ele>
        <time>2011-04-15T10:52:03Z</time>
      </trkpt>
      <trkpt lat="48.48741" lon="2.12145">
        <ele>102</ele>
        <time>2011-04-15T10:52:04Z</time>
      </trkpt>
      <trkpt lat="48.48743" lon="2.12145">
        <ele>102</ele>
        <time>2011-04-15T10:52:05Z</time>
      </trkpt>
      <trkpt lat="48.48744" lon="2.12145">
        <ele>101</ele>
        <time>2011-04-15T10:52:06Z</time>
      </trkpt>
      <trkpt lat="48.48746" lon="2.12145">
        <ele>101</ele>
        <time>2011-04-15T10:52:07Z</time>
      </trkpt>
      <trkpt lat="48.48747" lon="2.12145">
        <ele>101</ele>
        <time>2011-04-15T10:52:08Z</time>
      </trkpt>
      <trkpt lat="48.48749" lon="2.12145">
        <ele>101</ele>
        <time>2011-04-15T10:52:09Z</time>
      </trkpt>
      <trkpt lat="48.4875" lon="2.12144">
        <ele>101</ele>
        <time>2011-04-15T10:52:10Z</time>
      </trkpt>
      <trkpt lat="48.48751" lon="2.12144">
        <ele>101</ele>
        <time>2011-04-15T10:52:12Z</time>
      </trkpt>
      <trkpt lat="48.48752" lon="2.12142">
        <ele>100</ele>
        <time>2011-04-15T10:52:20Z</time>
      </trkpt>
      <trkpt lat="48.48756" lon="2.12142">
        <ele>100</ele>
        <time>2011-04-15T10:52:37Z</time>
      </trkpt>
      <trkpt lat="48.48759" lon="2.12141">
        <ele>100</ele>
        <time>2011-04-15T10:52:38Z</time>
      </trkpt>
      <trkpt lat="48.48764" lon="2.1214">
        <ele>100</ele>
        <time>2011-04-15T10:52:39Z</time>
      </trkpt>
      <trkpt lat="48.4877" lon="2.12138">
        <ele>100</ele>
        <time>2011-04-15T10:52:40Z</time>
      </trkpt>
      <trkpt lat="48.48776" lon="2.12136">
        <ele>100</ele>
        <time>2011-04-15T10:52:41Z</time>
      </trkpt>
      <trkpt lat="48.48781" lon="2.12133">
        <ele>100</ele>
        <time>2011-04-15T10:52:42Z</time>
      </trkpt>
      <trkpt lat="48.48786" lon="2.1213">
        <ele>100</ele>
        <time>2011-04-15T10:52:43Z</time>
      </trkpt>
      <trkpt lat="48.48791" lon="2.12127">
        <ele>100</ele>
        <time>2011-04-15T10:52:44Z</time>
      </trkpt>
      <trkpt lat="48.48795" lon="2.12125">
        <ele>100</ele>
        <time>2011-04-15T10:52:45Z</time>
      </trkpt>
      <trkpt lat="48.48798" lon="2.12123">
        <ele>100</ele>
        <time>2011-04-15T10:52:46Z</time>
      </trkpt>
      <trkpt lat="48.48801" lon="2.12121">
        <ele>100</ele>
        <time>2011-04-15T10:52:47Z</time>
      </trkpt>
      <trkpt lat="48.48804" lon="2.1212">
        <ele>100</ele>
        <time>2011-04-15T10:52:48Z</time>
      </trkpt>
      <trkpt lat="48.48807" lon="2.12119">
        <ele>100</ele>
        <time>2011-04-15T10:52:49Z</time>
      </trkpt>
      <trkpt lat="48.4881" lon="2.12118">
        <ele>100</ele>
        <time>2011-04-15T10:52:50Z</time>
      </trkpt>
      <trkpt lat="48.48813" lon="2.12117">
        <ele>100</ele>
        <time>2011-04-15T10:52:51Z</time>
      </trkpt>
      <trkpt lat="48.48815" lon="2.12117">
        <ele>100</ele>
        <time>2011-04-15T10:52:52Z</time>
      </trkpt>
      <trkpt lat="48.48818" lon="2.12116">
        <ele>100</ele>
        <time>2011-04-15T10:52:53Z</time>
      </trkpt>
      <trkpt lat="48.4882" lon="2.12115">
        <ele>100</ele>
        <time>2011-04-15T10:52:54Z</time>
      </trkpt>
      <trkpt lat="48.48823" lon="2.12114">
        <ele>100</ele>
        <time>2011-04-15T10:52:55Z</time>
      </trkpt>
      <trkpt lat="48.48826" lon="2.12114">
        <ele>100</ele>
        <time>2011-04-15T10:52:56Z</time>
      </trkpt>
      <trkpt lat="48.48828" lon="2.12113">
        <ele>100</ele>
        <time>2011-04-15T10:52:57Z</time>
      </trkpt>
      <trkpt lat="48.4883" lon="2.12112">
        <ele>100</ele>
        <time>2011-04-15T10:52:58Z</time>
      </trkpt>
      <trkpt lat="48.48832" lon="2.12111">
        <ele>100</ele>
        <time>2011-04-15T10:52:59Z</time>
      </trkpt>
      <trkpt lat="48.48834" lon="2.12111">
        <ele>100</ele>
        <time>2011-04-15T10:53:00Z</time>
      </trkpt>
      <trkpt lat="48.48836" lon="2.12111">
        <ele>100</ele>
        <time>2011-04-15T10:53:01Z</time>
      </trkpt>
      <trkpt lat="48.48838" lon="2.1211">
        <ele>100</ele>
        <time>2011-04-15T10:53:02Z</time>
      </trkpt>
      <trkpt lat="48.4884" lon="2.1211">
        <ele>100</ele>
        <time>2011-04-15T10:53:03Z</time>
      </trkpt>
      <trkpt lat="48.48842" lon="2.1211">
        <ele>100</ele>
        <time>2011-04-15T10:53:04Z</time>
      </trkpt>
      <trkpt lat="48.48844" lon="2.1211">
        <ele>100</ele>
        <time>2011-04-15T10:53:05Z</time>
      </trkpt>
      <trkpt lat="48.48846" lon="2.12109">
        <ele>100</ele>
        <time>2011-04-15T10:53:06Z</time>
      </trkpt>
      <trkpt lat="48.48847" lon="2.12109">
        <ele>100</ele>
        <time>2011-04-15T10:53:07Z</time>
      </trkpt>
      <trkpt lat="48.48849" lon="2.12109">
        <ele>100</ele>
        <time>2011-04-15T10:53:08Z</time>
      </trkpt>
      <trkpt lat="48.48851" lon="2.12108">
        <ele>100</ele>
        <time>2011-04-15T10:53:09Z</time>
      </trkpt>
      <trkpt lat="48.48853" lon="2.12108">
        <ele>100</ele>
        <time>2011-04-15T10:53:10Z</time>
      </trkpt>
      <trkpt lat="48.48855" lon="2.12107">
        <ele>100</ele>
        <time>2011-04-15T10:53:11Z</time>
      </trkpt>
      <trkpt lat="48.48857" lon="2.12107">
        <ele>100</ele>
        <time>2011-04-15T10:53:12Z</time>
      </trkpt>
      <trkpt lat="48.48859" lon="2.12107">
        <ele>100</ele>
        <time>2011-04-15T10:53:13Z</time>
      </trkpt>
      <trkpt lat="48.4886" lon="2.12107">
        <ele>100</ele>
        <time>2011-04-15T10:53:14Z</time>
      </trkpt>
      <trkpt lat="48.48862" lon="2.12107">
        <ele>100</ele>
        <time>2011-04-15T10:53:16Z</time>
      </trkpt>
      <trkpt lat="48.48864" lon="2.12107">
        <ele>100</ele>
        <time>2011-04-15T10:53:17Z</time>
      </trkpt>
      <trkpt lat="48.48865" lon="2.12107">
        <ele>100</ele>
        <time>2011-04-15T10:53:18Z</time>
      </trkpt>
      <trkpt lat="48.48869" lon="2.12107">
        <ele>100</ele>
        <time>2011-04-15T10:53:20Z</time>
      </trkpt>
      <trkpt lat="48.48871" lon="2.12106">
        <ele>100</ele>
        <time>2011-04-15T10:53:20Z</time>
      </trkpt>
      <trkpt lat="48.48873" lon="2.12106">
        <ele>100</ele>
        <time>2011-04-15T10:53:21Z</time>
      </trkpt>
      <trkpt lat="48.48875" lon="2.12105">
        <ele>100</ele>
        <time>2011-04-15T10:53:22Z</time>
      </trkpt>
      <trkpt lat="48.48877" lon="2.12105">
        <ele>100</ele>
        <time>2011-04-15T10:53:23Z</time>
      </trkpt>
      <trkpt lat="48.48879" lon="2.12105">
        <ele>100</ele>
        <time>2011-04-15T10:53:24Z</time>
      </trkpt>
      <trkpt lat="48.48881" lon="2.12105">
        <ele>100</ele>
        <time>2011-04-15T10:53:25Z</time>
      </trkpt>
      <trkpt lat="48.48882" lon="2.12105">
        <ele>100</ele>
        <time>2011-04-15T10:53:26Z</time>
      </trkpt>
      <trkpt lat="48.48883" lon="2.12104">
        <ele>100</ele>
        <time>2011-04-15T10:53:27Z</time>
      </trkpt>
      <trkpt lat="48.48885" lon="2.12104">
        <ele>100</ele>
        <time>2011-04-15T10:53:28Z</time>
      </trkpt>
      <trkpt lat="48.48887" lon="2.12104">
        <ele>100</ele>
        <time>2011-04-15T10:53:29Z</time>
      </trkpt>
      <trkpt lat="48.48888" lon="2.12103">
        <ele>100</ele>
        <time>2011-04-15T10:53:30Z</time>
      </trkpt>
      <trkpt lat="48.4889" lon="2.12103">
        <ele>100</ele>
        <time>2011-04-15T10:53:31Z</time>
      </trkpt>
      <trkpt lat="48.48892" lon="2.12102">
        <ele>100</ele>
        <time>2011-04-15T10:53:32Z</time>
      </trkpt>
      <trkpt lat="48.48893" lon="2.12102">
        <ele>100</ele>
        <time>2011-04-15T10:53:33Z</time>
      </trkpt>
      <trkpt lat="48.48895" lon="2.12102">
        <ele>100</ele>
        <time>2011-04-15T10:53:34Z</time>
      </trkpt>
      <trkpt lat="48.48896" lon="2.12102">
        <ele>100</ele>
        <time>2011-04-15T10:53:35Z</time>
      </trkpt>
      <trkpt lat="48.48898" lon="2.12102">
        <ele>100</ele>
        <time>2011-04-15T10:53:36Z</time>
      </trkpt>
      <trkpt lat="48.48899" lon="2.12102">
        <ele>100</ele>
        <time>2011-04-15T10:53:37Z</time>
      </trkpt>
      <trkpt lat="48.48901" lon="2.12102">
        <ele>100</ele>
        <time>2011-04-15T10:53:38Z</time>
      </trkpt>
      <trkpt lat="48.48902" lon="2.12102">
        <ele>100</ele>
        <time>2011-04-15T10:53:39Z</time>
      </trkpt>
      <trkpt lat="48.48904" lon="2.12102">
        <ele>100</ele>
        <time>2011-04-15T10:53:40Z</time>
      </trkpt>
      <trkpt lat="48.48905" lon="2.12102">
        <ele>100</ele>
        <time>2011-04-15T10:53:41Z</time>
      </trkpt>
      <trkpt lat="48.48907" lon="2.12102">
        <ele>100</ele>
        <time>2011-04-15T10:53:42Z</time>
      </trkpt>
      <trkpt lat="48.48909" lon="2.12102">
        <ele>100</ele>
        <time>2011-04-15T10:53:43Z</time>
      </trkpt>
      <trkpt lat="48.4891" lon="2.12102">
        <ele>100</ele>
        <time>2011-04-15T10:53:44Z</time>
      </trkpt>
      <trkpt lat="48.48912" lon="2.12102">
        <ele>100</ele>
        <time>2011-04-15T10:53:45Z</time>
      </trkpt>
      <trkpt lat="48.48913" lon="2.12102">
        <ele>100</ele>
        <time>2011-04-15T10:53:46Z</time>
      </trkpt>
      <trkpt lat="48.48915" lon="2.12101">
        <ele>100</ele>
        <time>2011-04-15T10:53:47Z</time>
      </trkpt>
      <trkpt lat="48.48917" lon="2.12101">
        <ele>100</ele>
        <time>2011-04-15T10:53:48Z</time>
      </trkpt>
      <trkpt lat="48.48919" lon="2.12101">
        <ele>100</ele>
        <time>2011-04-15T10:53:49Z</time>
      </trkpt>
      <trkpt lat="48.48921" lon="2.12101">
        <ele>100</ele>
        <time>2011-04-15T10:53:50Z</time>
      </trkpt>
      <trkpt lat="48.48922" lon="2.12101">
        <ele>100</ele>
        <time>2011-04-15T10:53:51Z</time>
      </trkpt>
      <trkpt lat="48.48924" lon="2.12101">
        <ele>100</ele>
        <time>2011-04-15T10:53:52Z</time>
      </trkpt>
      <trkpt lat="48.48926" lon="2.12101">
        <ele>100</ele>
        <time>2011-04-15T10:53:53Z</time>
      </trkpt>
      <trkpt lat="48.48928" lon="2.12101">
        <ele>99</ele>
        <time>2011-04-15T10:53:54Z</time>
      </trkpt>
      <trkpt lat="48.4893" lon="2.12101">
        <ele>99</ele>
        <time>2011-04-15T10:53:55Z</time>
      </trkpt>
      <trkpt lat="48.48932" lon="2.12101">
        <ele>99</ele>
        <time>2011-04-15T10:53:56Z</time>
      </trkpt>
      <trkpt lat="48.48934" lon="2.12102">
        <ele>99</ele>
        <time>2011-04-15T10:53:57Z</time>
      </trkpt>
      <trkpt lat="48.48936" lon="2.12101">
        <ele>99</ele>
        <time>2011-04-15T10:53:58Z</time>
      </trkpt>
      <trkpt lat="48.48938" lon="2.12101">
        <ele>99</ele>
        <time>2011-04-15T10:53:59Z</time>
      </trkpt>
      <trkpt lat="48.4894" lon="2.12101">
        <ele>99</ele>
        <time>2011-04-15T10:54:00Z</time>
      </trkpt>
      <trkpt lat="48.48941" lon="2.12101">
        <ele>99</ele>
        <time>2011-04-15T10:54:01Z</time>
      </trkpt>
      <trkpt lat="48.48943" lon="2.12101">
        <ele>99</ele>
        <time>2011-04-15T10:54:02Z</time>
      </trkpt>
      <trkpt lat="48.48945" lon="2.12101">
        <ele>99</ele>
        <time>2011-04-15T10:54:03Z</time>
      </trkpt>
      <trkpt lat="48.48946" lon="2.12102">
        <ele>99</ele>
        <time>2011-04-15T10:54:04Z</time>
      </trkpt>
      <trkpt lat="48.48948" lon="2.12102">
        <ele>99</ele>
        <time>2011-04-15T10:54:05Z</time>
      </trkpt>
      <trkpt lat="48.4895" lon="2.12103">
        <ele>99</ele>
        <time>2011-04-15T10:54:06Z</time>
      </trkpt>
      <trkpt lat="48.48952" lon="2.12103">
        <ele>99</ele>
        <time>2011-04-15T10:54:07Z</time>
      </trkpt>
      <trkpt lat="48.48954" lon="2.12104">
        <ele>99</ele>
        <time>2011-04-15T10:54:08Z</time>
      </trkpt>
      <trkpt lat="48.48956" lon="2.12104">
        <ele>99</ele>
        <time>2011-04-15T10:54:09Z</time>
      </trkpt>
      <trkpt lat="48.48958" lon="2.12105">
        <ele>98</ele>
        <time>2011-04-15T10:54:10Z</time>
      </trkpt>
      <trkpt lat="48.4896" lon="2.12106">
        <ele>98</ele>
        <time>2011-04-15T10:54:11Z</time>
      </trkpt>
      <trkpt lat="48.48962" lon="2.12106">
        <ele>98</ele>
        <time>2011-04-15T10:54:12Z</time>
      </trkpt>
      <trkpt lat="48.48964" lon="2.12107">
        <ele>98</ele>
        <time>2011-04-15T10:54:13Z</time>
      </trkpt>
      <trkpt lat="48.48965" lon="2.12107">
        <ele>98</ele>
        <time>2011-04-15T10:54:14Z</time>
      </trkpt>
      <trkpt lat="48.48967" lon="2.12108">
        <ele>98</ele>
        <time>2011-04-15T10:54:15Z</time>
      </trkpt>
      <trkpt lat="48.48968" lon="2.12109">
        <ele>98</ele>
        <time>2011-04-15T10:54:16Z</time>
      </trkpt>
      <trkpt lat="48.48969" lon="2.1211">
        <ele>98</ele>
        <time>2011-04-15T10:54:17Z</time>
      </trkpt>
      <trkpt lat="48.48971" lon="2.1211">
        <ele>98</ele>
        <time>2011-04-15T10:54:18Z</time>
      </trkpt>
      <trkpt lat="48.48972" lon="2.12111">
        <ele>98</ele>
        <time>2011-04-15T10:54:19Z</time>
      </trkpt>
      <trkpt lat="48.48973" lon="2.12111">
        <ele>98</ele>
        <time>2011-04-15T10:54:20Z</time>
      </trkpt>
      <trkpt lat="48.48975" lon="2.12112">
        <ele>98</ele>
        <time>2011-04-15T10:54:21Z</time>
      </trkpt>
      <trkpt lat="48.48977" lon="2.12112">
        <ele>98</ele>
        <time>2011-04-15T10:54:22Z</time>
      </trkpt>
      <trkpt lat="48.48978" lon="2.12113">
        <ele>98</ele>
        <time>2011-04-15T10:54:23Z</time>
      </trkpt>
      <trkpt lat="48.48979" lon="2.12113">
        <ele>98</ele>
        <time>2011-04-15T10:54:24Z</time>
      </trkpt>
      <trkpt lat="48.48981" lon="2.12112">
        <ele>98</ele>
        <time>2011-04-15T10:54:26Z</time>
      </trkpt>
      <trkpt lat="48.48983" lon="2.12113">
        <ele>98</ele>
        <time>2011-04-15T10:54:28Z</time>
      </trkpt>
      <trkpt lat="48.48984" lon="2.12113">
        <ele>98</ele>
        <time>2011-04-15T10:54:29Z</time>
      </trkpt>
      <trkpt lat="48.48985" lon="2.12114">
        <ele>98</ele>
        <time>2011-04-15T10:54:30Z</time>
      </trkpt>
      <trkpt lat="48.48987" lon="2.12115">
        <ele>98</ele>
        <time>2011-04-15T10:54:31Z</time>
      </trkpt>
      <trkpt lat="48.48988" lon="2.12116">
        <ele>98</ele>
        <time>2011-04-15T10:54:32Z</time>
      </trkpt>
      <trkpt lat="48.4899" lon="2.12117">
        <ele>98</ele>
        <time>2011-04-15T10:54:33Z</time>
      </trkpt>
      <trkpt lat="48.48992" lon="2.12118">
        <ele>98</ele>
        <time>2011-04-15T10:54:34Z</time>
      </trkpt>
      <trkpt lat="48.48994" lon="2.12119">
        <ele>98</ele>
        <time>2011-04-15T10:54:35Z</time>
      </trkpt>
      <trkpt lat="48.48996" lon="2.1212">
        <ele>98</ele>
        <time>2011-04-15T10:54:36Z</time>
      </trkpt>
      <trkpt lat="48.48998" lon="2.12121">
        <ele>98</ele>
        <time>2011-04-15T10:54:37Z</time>
      </trkpt>
      <trkpt lat="48.49" lon="2.12121">
        <ele>98</ele>
        <time>2011-04-15T10:54:38Z</time>
      </trkpt>
      <trkpt lat="48.49002" lon="2.12123">
        <ele>98</ele>
        <time>2011-04-15T10:54:39Z</time>
      </trkpt>
      <trkpt lat="48.49004" lon="2.12124">
        <ele>98</ele>
        <time>2011-04-15T10:54:40Z</time>
      </trkpt>
      <trkpt lat="48.49006" lon="2.12125">
        <ele>98</ele>
        <time>2011-04-15T10:54:41Z</time>
      </trkpt>
      <trkpt lat="48.49008" lon="2.12126">
        <ele>98</ele>
        <time>2011-04-15T10:54:42Z</time>
      </trkpt>
      <trkpt lat="48.4901" lon="2.12127">
        <ele>98</ele>
        <time>2011-04-15T10:54:43Z</time>
      </trkpt>
      <trkpt lat="48.49012" lon="2.12128">
        <ele>98</ele>
        <time>2011-04-15T10:54:44Z</time>
      </trkpt>
      <trkpt lat="48.49013" lon="2.12129">
        <ele>98</ele>
        <time>2011-04-15T10:54:45Z</time>
      </trkpt>
      <trkpt lat="48.49015" lon="2.12129">
        <ele>98</ele>
        <time>2011-04-15T10:54:46Z</time>
      </trkpt>
      <trkpt lat="48.49016" lon="2.1213">
        <ele>98</ele>
        <time>2011-04-15T10:54:47Z</time>
      </trkpt>
      <trkpt lat="48.49018" lon="2.12131">
        <ele>98</ele>
        <time>2011-04-15T10:54:49Z</time>
      </trkpt>
      <trkpt lat="48.4902" lon="2.12132">
        <ele>98</ele>
        <time>2011-04-15T10:54:51Z</time>
      </trkpt>
      <trkpt lat="48.49022" lon="2.12132">
        <ele>98</ele>
        <time>2011-04-15T10:54:58Z</time>
      </trkpt>
      <trkpt lat="48.49023" lon="2.12133">
        <ele>98</ele>
        <time>2011-04-15T10:54:59Z</time>
      </trkpt>
      <trkpt lat="48.49025" lon="2.12134">
        <ele>98</ele>
        <time>2011-04-15T10:55:00Z</time>
      </trkpt>
      <trkpt lat="48.49027" lon="2.12134">
        <ele>98</ele>
        <time>2011-04-15T10:55:01Z</time>
      </trkpt>
      <trkpt lat="48.49028" lon="2.12135">
        <ele>98</ele>
        <time>2011-04-15T10:55:02Z</time>
      </trkpt>
      <trkpt lat="48.4903" lon="2.12136">
        <ele>98</ele>
        <time>2011-04-15T10:55:03Z</time>
      </trkpt>
      <trkpt lat="48.49031" lon="2.12136">
        <ele>98</ele>
        <time>2011-04-15T10:55:04Z</time>
      </trkpt>
      <trkpt lat="48.49033" lon="2.12137">
        <ele>98</ele>
        <time>2011-04-15T10:55:05Z</time>
      </trkpt>
      <trkpt lat="48.49034" lon="2.12137">
        <ele>98</ele>
        <time>2011-04-15T10:55:06Z</time>
      </trkpt>
      <trkpt lat="48.49037" lon="2.12138">
        <ele>98</ele>
        <time>2011-04-15T10:55:07Z</time>
      </trkpt>
      <trkpt lat="48.49039" lon="2.12139">
        <ele>98</ele>
        <time>2011-04-15T10:55:08Z</time>
      </trkpt>
      <trkpt lat="48.49042" lon="2.12139">
        <ele>98</ele>
        <time>2011-04-15T10:55:09Z</time>
      </trkpt>
      <trkpt lat="48.49045" lon="2.1214">
        <ele>98</ele>
        <time>2011-04-15T10:55:10Z</time>
      </trkpt>
      <trkpt lat="48.49048" lon="2.12141">
        <ele>98</ele>
        <time>2011-04-15T10:55:11Z</time>
      </trkpt>
      <trkpt lat="48.49052" lon="2.12141">
        <ele>98</ele>
        <time>2011-04-15T10:55:12Z</time>
      </trkpt>
      <trkpt lat="48.49056" lon="2.12142">
        <ele>98</ele>
        <time>2011-04-15T10:55:13Z</time>
      </trkpt>
      <trkpt lat="48.4906" lon="2.12142">
        <ele>98</ele>
        <time>2011-04-15T10:55:14Z</time>
      </trkpt>
      <trkpt lat="48.49065" lon="2.12143">
        <ele>98</ele>
        <time>2011-04-15T10:55:15Z</time>
      </trkpt>
      <trkpt lat="48.49069" lon="2.12144">
        <ele>98</ele>
        <time>2011-04-15T10:55:16Z</time>
      </trkpt>
      <trkpt lat="48.49074" lon="2.12145">
        <ele>98</ele>
        <time>2011-04-15T10:55:17Z</time>
      </trkpt>
      <trkpt lat="48.49079" lon="2.12145">
        <ele>98</ele>
        <time>2011-04-15T10:55:18Z</time>
      </trkpt>
      <trkpt lat="48.49085" lon="2.12146">
        <ele>98</ele>
        <time>2011-04-15T10:55:19Z</time>
      </trkpt>
      <trkpt lat="48.49091" lon="2.12147">
        <ele>98</ele>
        <time>2011-04-15T10:55:20Z</time>
      </trkpt>
      <trkpt lat="48.49097" lon="2.12148">
        <ele>98</ele>
        <time>2011-04-15T10:55:21Z</time>
      </trkpt>
      <trkpt lat="48.49104" lon="2.12149">
        <ele>98</ele>
        <time>2011-04-15T10:55:22Z</time>
      </trkpt>
      <trkpt lat="48.49112" lon="2.1215">
        <ele>98</ele>
        <time>2011-04-15T10:55:23Z</time>
      </trkpt>
      <trkpt lat="48.49119" lon="2.12151">
        <ele>98</ele>
        <time>2011-04-15T10:55:24Z</time>
      </trkpt>
      <trkpt lat="48.49126" lon="2.12153">
        <ele>98</ele>
        <time>2011-04-15T10:55:25Z</time>
      </trkpt>
      <trkpt lat="48.49135" lon="2.12154">
        <ele>98</ele>
        <time>2011-04-15T10:55:26Z</time>
      </trkpt>
      <trkpt lat="48.49143" lon="2.12156">
        <ele>98</ele>
        <time>2011-04-15T10:55:27Z</time>
      </trkpt>
      <trkpt lat="48.49152" lon="2.12157">
        <ele>98</ele>
        <time>2011-04-15T10:55:28Z</time>
      </trkpt>
      <trkpt lat="48.4916" lon="2.12158">
        <ele>98</ele>
        <time>2011-04-15T10:55:29Z</time>
      </trkpt>
      <trkpt lat="48.49169" lon="2.12159">
        <ele>98</ele>
        <time>2011-04-15T10:55:30Z</time>
      </trkpt>
      <trkpt lat="48.49176" lon="2.1216">
        <ele>98</ele>
        <time>2011-04-15T10:55:31Z</time>
      </trkpt>
      <trkpt lat="48.49184" lon="2.12161">
        <ele>98</ele>
        <time>2011-04-15T10:55:32Z</time>
      </trkpt>
      <trkpt lat="48.4919" lon="2.12161">
        <ele>98</ele>
        <time>2011-04-15T10:55:33Z</time>
      </trkpt>
      <trkpt lat="48.49196" lon="2.12162">
        <ele>99</ele>
        <time>2011-04-15T10:55:34Z</time>
      </trkpt>
      <trkpt lat="48.49201" lon="2.12162">
        <ele>99</ele>
        <time>2011-04-15T10:55:35Z</time>
      </trkpt>
      <trkpt lat="48.49205" lon="2.12162">
        <ele>99</ele>
        <time>2011-04-15T10:55:36Z</time>
      </trkpt>
      <trkpt lat="48.49209" lon="2.12162">
        <ele>100</ele>
        <time>2011-04-15T10:55:37Z</time>
      </trkpt>
      <trkpt lat="48.49213" lon="2.12162">
        <ele>100</ele>
        <time>2011-04-15T10:55:38Z</time>
      </trkpt>
      <trkpt lat="48.49216" lon="2.12161">
        <ele>100</ele>
        <time>2011-04-15T10:55:39Z</time>
      </trkpt>
      <trkpt lat="48.49219" lon="2.12161">
        <ele>100</ele>
        <time>2011-04-15T10:55:40Z</time>
      </trkpt>
      <trkpt lat="48.49221" lon="2.1216">
        <ele>101</ele>
        <time>2011-04-15T10:55:41Z</time>
      </trkpt>
      <trkpt lat="48.49222" lon="2.12156">
        <ele>101</ele>
        <time>2011-04-15T10:55:43Z</time>
      </trkpt>
      <trkpt lat="48.49221" lon="2.12155">
        <ele>101</ele>
        <time>2011-04-15T10:55:44Z</time>
      </trkpt>
      <trkpt lat="48.49221" lon="2.12153">
        <ele>101</ele>
        <time>2011-04-15T10:55:45Z</time>
      </trkpt>
      <trkpt lat="48.49221" lon="2.12151">
        <ele>101</ele>
        <time>2011-04-15T10:55:46Z</time>
      </trkpt>
      <trkpt lat="48.49221" lon="2.12149">
        <ele>101</ele>
        <time>2011-04-15T10:55:47Z</time>
      </trkpt>
      <trkpt lat="48.49221" lon="2.12146">
        <ele>101</ele>
        <time>2011-04-15T10:55:49Z</time>
      </trkpt>
      <trkpt lat="48.49221" lon="2.12148">
        <ele>102</ele>
        <time>2011-04-15T10:56:17Z</time>
      </trkpt>
      <trkpt lat="48.49223" lon="2.12149">
        <ele>102</ele>
        <time>2011-04-15T10:56:47Z</time>
      </trkpt>
      <trkpt lat="48.49223" lon="2.12151">
        <ele>102</ele>
        <time>2011-04-15T10:56:50Z</time>
      </trkpt>
      <trkpt lat="48.49223" lon="2.12153">
        <ele>102</ele>
        <time>2011-04-15T10:56:56Z</time>
      </trkpt>
      <trkpt lat="48.49222" lon="2.12154">
        <ele>102</ele>
        <time>2011-04-15T10:57:03Z</time>
      </trkpt>
      <trkpt lat="48.49222" lon="2.12156">
        <ele>102</ele>
        <time>2011-04-15T10:57:05Z</time>
      </trkpt>
      <trkpt lat="48.49221" lon="2.12159">
        <ele>102</ele>
        <time>2011-04-15T10:57:07Z</time>
      </trkpt>
      <trkpt lat="48.49223" lon="2.12159">
        <ele>102</ele>
        <time>2011-04-15T10:57:18Z</time>
      </trkpt>
      <trkpt lat="48.49223" lon="2.1216">
        <ele>102</ele>
        <time>2011-04-15T10:57:23Z</time>
      </trkpt>
      <trkpt lat="48.49223" lon="2.12162">
        <ele>102</ele>
        <time>2011-04-15T10:57:26Z</time>
      </trkpt>
      <trkpt lat="48.49223" lon="2.1216">
        <ele>102</ele>
        <time>2011-04-15T10:57:38Z</time>
      </trkpt>
      <trkpt lat="48.49225" lon="2.12159">
        <ele>102</ele>
        <time>2011-04-15T10:57:41Z</time>
      </trkpt>
      <trkpt lat="48.49224" lon="2.12157">
        <ele>102</ele>
        <time>2011-04-15T10:57:54Z</time>
      </trkpt>
      <trkpt lat="48.49223" lon="2.12154">
        <ele>102</ele>
        <time>2011-04-15T10:57:56Z</time>
      </trkpt>
      <trkpt lat="48.49222" lon="2.12152">
        <ele>102</ele>
        <time>2011-04-15T10:57:57Z</time>
      </trkpt>
      <trkpt lat="48.49222" lon="2.1215">
        <ele>102</ele>
        <time>2011-04-15T10:57:58Z</time>
      </trkpt>
      <trkpt lat="48.49221" lon="2.12148">
        <ele>102</ele>
        <time>2011-04-15T10:57:59Z</time>
      </trkpt>
      <trkpt lat="48.49221" lon="2.12146">
        <ele>102</ele>
        <time>2011-04-15T10:58:00Z</time>
      </trkpt>
      <trkpt lat="48.4922" lon="2.12143">
        <ele>102</ele>
        <time>2011-04-15T10:58:01Z</time>
      </trkpt>
      <trkpt lat="48.4922" lon="2.1214">
        <ele>102</ele>
        <time>2011-04-15T10:58:02Z</time>
      </trkpt>
      <trkpt lat="48.4922" lon="2.12136">
        <ele>102</ele>
        <time>2011-04-15T10:58:03Z</time>
      </trkpt>
      <trkpt lat="48.49219" lon="2.12133">
        <ele>102</ele>
        <time>2011-04-15T10:58:04Z</time>
      </trkpt>
      <trkpt lat="48.49219" lon="2.12129">
        <ele>102</ele>
        <time>2011-04-15T10:58:05Z</time>
      </trkpt>
      <trkpt lat="48.49219" lon="2.12126">
        <ele>102</ele>
        <time>2011-04-15T10:58:06Z</time>
      </trkpt>
      <trkpt lat="48.49219" lon="2.12123">
        <ele>102</ele>
        <time>2011-04-15T10:58:07Z</time>
      </trkpt>
      <trkpt lat="48.49219" lon="2.1212">
        <ele>102</ele>
        <time>2011-04-15T10:58:08Z</time>
      </trkpt>
      <trkpt lat="48.49219" lon="2.12117">
        <ele>102</ele>
        <time>2011-04-15T10:58:09Z</time>
      </trkpt>
      <trkpt lat="48.49218" lon="2.12115">
        <ele>102</ele>
        <time>2011-04-15T10:58:10Z</time>
      </trkpt>
      <trkpt lat="48.49218" lon="2.12112">
        <ele>102</ele>
        <time>2011-04-15T10:58:11Z</time>
      </trkpt>
      <trkpt lat="48.49218" lon="2.1211">
        <ele>102</ele>
        <time>2011-04-15T10:58:12Z</time>
      </trkpt>
      <trkpt lat="48.49218" lon="2.12108">
        <ele>102</ele>
        <time>2011-04-15T10:58:13Z</time>
      </trkpt>
      <trkpt lat="48.49218" lon="2.12105">
        <ele>102</ele>
        <time>2011-04-15T10:58:14Z</time>
      </trkpt>
      <trkpt lat="48.49218" lon="2.12103">
        <ele>102</ele>
        <time>2011-04-15T10:58:15Z</time>
      </trkpt>
      <trkpt lat="48.49217" lon="2.121">
        <ele>102</ele>
        <time>2011-04-15T10:58:16Z</time>
      </trkpt>
      <trkpt lat="48.49217" lon="2.12098">
        <ele>102</ele>
        <time>2011-04-15T10:58:17Z</time>
      </trkpt>
      <trkpt lat="48.49217" lon="2.12096">
        <ele>102</ele>
        <time>2011-04-15T10:58:18Z</time>
      </trkpt>
      <trkpt lat="48.49217" lon="2.12094">
        <ele>102</ele>
        <time>2011-04-15T10:58:19Z</time>
      </trkpt>
      <trkpt lat="48.49217" lon="2.12091">
        <ele>102</ele>
        <time>2011-04-15T10:58:20Z</time>
      </trkpt>
      <trkpt lat="48.49217" lon="2.12089">
        <ele>102</ele>
        <time>2011-04-15T10:58:21Z</time>
      </trkpt>
      <trkpt lat="48.49217" lon="2.12086">
        <ele>102</ele>
        <time>2011-04-15T10:58:22Z</time>
      </trkpt>
      <trkpt lat="48.49217" lon="2.12083">
        <ele>102</ele>
        <time>2011-04-15T10:58:23Z</time>
      </trkpt>
      <trkpt lat="48.49217" lon="2.12081">
        <ele>102</ele>
        <time>2011-04-15T10:58:24Z</time>
      </trkpt>
      <trkpt lat="48.49216" lon="2.12078">
        <ele>102</ele>
        <time>2011-04-15T10:58:25Z</time>
      </trkpt>
      <trkpt lat="48.49216" lon="2.12076">
        <ele>102</ele>
        <time>2011-04-15T10:58:26Z</time>
      </trkpt>
      <trkpt lat="48.49216" lon="2.12074">
        <ele>102</ele>
        <time>2011-04-15T10:58:27Z</time>
      </trkpt>
      <trkpt lat="48.49216" lon="2.12071">
        <ele>102</ele>
        <time>2011-04-15T10:58:28Z</time>
      </trkpt>
      <trkpt lat="48.49216" lon="2.12069">
        <ele>102</ele>
        <time>2011-04-15T10:58:29Z</time>
      </trkpt>
      <trkpt lat="48.49216" lon="2.12067">
        <ele>102</ele>
        <time>2011-04-15T10:58:30Z</time>
      </trkpt>
      <trkpt lat="48.49216" lon="2.12065">
        <ele>102</ele>
        <time>2011-04-15T10:58:31Z</time>
      </trkpt>
      <trkpt lat="48.49216" lon="2.12062">
        <ele>102</ele>
        <time>2011-04-15T10:58:32Z</time>
      </trkpt>
      <trkpt lat="48.49216" lon="2.12059">
        <ele>102</ele>
        <time>2011-04-15T10:58:33Z</time>
      </trkpt>
      <trkpt lat="48.49216" lon="2.12056">
        <ele>102</ele>
        <time>2011-04-15T10:58:34Z</time>
      </trkpt>
      <trkpt lat="48.49216" lon="2.12054">
        <ele>102</ele>
        <time>2011-04-15T10:58:35Z</time>
      </trkpt>
      <trkpt lat="48.49215" lon="2.12052">
        <ele>102</ele>
        <time>2011-04-15T10:58:36Z</time>
      </trkpt>
      <trkpt lat="48.49215" lon="2.1205">
        <ele>102</ele>
        <time>2011-04-15T10:58:37Z</time>
      </trkpt>
      <trkpt lat="48.49215" lon="2.12047">
        <ele>102</ele>
        <time>2011-04-15T10:58:38Z</time>
      </trkpt>
      <trkpt lat="48.49215" lon="2.12045">
        <ele>102</ele>
        <time>2011-04-15T10:58:39Z</time>
      </trkpt>
      <trkpt lat="48.49215" lon="2.12042">
        <ele>102</ele>
        <time>2011-04-15T10:58:40Z</time>
      </trkpt>
      <trkpt lat="48.49215" lon="2.1204">
        <ele>102</ele>
        <time>2011-04-15T10:58:41Z</time>
      </trkpt>
      <trkpt lat="48.49215" lon="2.12037">
        <ele>102</ele>
        <time>2011-04-15T10:58:42Z</time>
      </trkpt>
      <trkpt lat="48.49215" lon="2.12035">
        <ele>102</ele>
        <time>2011-04-15T10:58:43Z</time>
      </trkpt>
      <trkpt lat="48.49215" lon="2.12033">
        <ele>102</ele>
        <time>2011-04-15T10:58:44Z</time>
      </trkpt>
      <trkpt lat="48.49215" lon="2.1203">
        <ele>102</ele>
        <time>2011-04-15T10:58:45Z</time>
      </trkpt>
      <trkpt lat="48.49215" lon="2.12028">
        <ele>102</ele>
        <time>2011-04-15T10:58:46Z</time>
      </trkpt>
      <trkpt lat="48.49214" lon="2.12025">
        <ele>102</ele>
        <time>2011-04-15T10:58:47Z</time>
      </trkpt>
      <trkpt lat="48.49214" lon="2.12023">
        <ele>102</ele>
        <time>2011-04-15T10:58:48Z</time>
      </trkpt>
      <trkpt lat="48.49214" lon="2.12021">
        <ele>102</ele>
        <time>2011-04-15T10:58:49Z</time>
      </trkpt>
      <trkpt lat="48.49214" lon="2.12018">
        <ele>102</ele>
        <time>2011-04-15T10:58:50Z</time>
      </trkpt>
      <trkpt lat="48.49213" lon="2.12016">
        <ele>102</ele>
        <time>2011-04-15T10:58:51Z</time>
      </trkpt>
      <trkpt lat="48.49213" lon="2.12013">
        <ele>102</ele>
        <time>2011-04-15T10:58:52Z</time>
      </trkpt>
      <trkpt lat="48.49213" lon="2.12011">
        <ele>102</ele>
        <time>2011-04-15T10:58:53Z</time>
      </trkpt>
      <trkpt lat="48.49213" lon="2.12008">
        <ele>102</ele>
        <time>2011-04-15T10:58:54Z</time>
      </trkpt>
      <trkpt lat="48.49213" lon="2.12006">
        <ele>102</ele>
        <time>2011-04-15T10:58:55Z</time>
      </trkpt>
      <trkpt lat="48.49213" lon="2.12003">
        <ele>102</ele>
        <time>2011-04-15T10:58:56Z</time>
      </trkpt>
      <trkpt lat="48.49212" lon="2.12001">
        <ele>102</ele>
        <time>2011-04-15T10:58:57Z</time>
      </trkpt>
      <trkpt lat="48.49212" lon="2.11999">
        <ele>102</ele>
        <time>2011-04-15T10:58:58Z</time>
      </trkpt>
      <trkpt lat="48.49212" lon="2.11997">
        <ele>102</ele>
        <time>2011-04-15T10:58:59Z</time>
      </trkpt>
      <trkpt lat="48.49212" lon="2.11995">
        <ele>102</ele>
        <time>2011-04-15T10:59:00Z</time>
      </trkpt>
      <trkpt lat="48.49212" lon="2.11993">
        <ele>102</ele>
        <time>2011-04-15T10:59:01Z</time>
      </trkpt>
      <trkpt lat="48.49212" lon="2.11991">
        <ele>102</ele>
        <time>2011-04-15T10:59:02Z</time>
      </trkpt>
      <trkpt lat="48.49212" lon="2.11989">
        <ele>102</ele>
        <time>2011-04-15T10:59:03Z</time>
      </trkpt>
      <trkpt lat="48.49212" lon="2.11987">
        <ele>102</ele>
        <time>2011-04-15T10:59:04Z</time>
      </trkpt>
      <trkpt lat="48.49211" lon="2.11985">
        <ele>102</ele>
        <time>2011-04-15T10:59:05Z</time>
      </trkpt>
      <trkpt lat="48.49211" lon="2.11983">
        <ele>102</ele>
        <time>2011-04-15T10:59:06Z</time>
      </trkpt>
      <trkpt lat="48.49211" lon="2.1198">
        <ele>102</ele>
        <time>2011-04-15T10:59:07Z</time>
      </trkpt>
      <trkpt lat="48.49211" lon="2.11978">
        <ele>102</ele>
        <time>2011-04-15T10:59:08Z</time>
      </trkpt>
      <trkpt lat="48.49211" lon="2.11976">
        <ele>102</ele>
        <time>2011-04-15T10:59:09Z</time>
      </trkpt>
      <trkpt lat="48.49211" lon="2.11974">
        <ele>102</ele>
        <time>2011-04-15T10:59:10Z</time>
      </trkpt>
      <trkpt lat="48.49211" lon="2.11971">
        <ele>102</ele>
        <time>2011-04-15T10:59:11Z</time>
      </trkpt>
      <trkpt lat="48.4921" lon="2.11969">
        <ele>102</ele>
        <time>2011-04-15T10:59:12Z</time>
      </trkpt>
      <trkpt lat="48.4921" lon="2.11967">
        <ele>102</ele>
        <time>2011-04-15T10:59:13Z</time>
      </trkpt>
      <trkpt lat="48.4921" lon="2.11964">
        <ele>102</ele>
        <time>2011-04-15T10:59:14Z</time>
      </trkpt>
      <trkpt lat="48.4921" lon="2.11962">
        <ele>102</ele>
        <time>2011-04-15T10:59:15Z</time>
      </trkpt>
      <trkpt lat="48.4921" lon="2.11959">
        <ele>102</ele>
        <time>2011-04-15T10:59:16Z</time>
      </trkpt>
      <trkpt lat="48.4921" lon="2.11956">
        <ele>102</ele>
        <time>2011-04-15T10:59:17Z</time>
      </trkpt>
      <trkpt lat="48.4921" lon="2.11953">
        <ele>102</ele>
        <time>2011-04-15T10:59:18Z</time>
      </trkpt>
      <trkpt lat="48.4921" lon="2.1195">
        <ele>102</ele>
        <time>2011-04-15T10:59:19Z</time>
      </trkpt>
      <trkpt lat="48.4921" lon="2.11945">
        <ele>102</ele>
        <time>2011-04-15T10:59:20Z</time>
      </trkpt>
      <trkpt lat="48.49209" lon="2.1194">
        <ele>102</ele>
        <time>2011-04-15T10:59:21Z</time>
      </trkpt>
      <trkpt lat="48.49209" lon="2.11935">
        <ele>103</ele>
        <time>2011-04-15T10:59:22Z</time>
      </trkpt>
      <trkpt lat="48.49209" lon="2.11929">
        <ele>103</ele>
        <time>2011-04-15T10:59:23Z</time>
      </trkpt>
      <trkpt lat="48.49208" lon="2.11924">
        <ele>103</ele>
        <time>2011-04-15T10:59:24Z</time>
      </trkpt>
      <trkpt lat="48.49208" lon="2.11918">
        <ele>103</ele>
        <time>2011-04-15T10:59:25Z</time>
      </trkpt>
      <trkpt lat="48.49208" lon="2.11912">
        <ele>104</ele>
        <time>2011-04-15T10:59:26Z</time>
      </trkpt>
      <trkpt lat="48.49207" lon="2.11906">
        <ele>104</ele>
        <time>2011-04-15T10:59:27Z</time>
      </trkpt>
      <trkpt lat="48.49207" lon="2.119">
        <ele>104</ele>
        <time>2011-04-15T10:59:28Z</time>
      </trkpt>
      <trkpt lat="48.49206" lon="2.11893">
        <ele>105</ele>
        <time>2011-04-15T10:59:29Z</time>
      </trkpt>
      <trkpt lat="48.49206" lon="2.11887">
        <ele>105</ele>
        <time>2011-04-15T10:59:30Z</time>
      </trkpt>
      <trkpt lat="48.49205" lon="2.11881">
        <ele>105</ele>
        <time>2011-04-15T10:59:31Z</time>
      </trkpt>
      <trkpt lat="48.49205" lon="2.11875">
        <ele>106</ele>
        <time>2011-04-15T10:59:32Z</time>
      </trkpt>
      <trkpt lat="48.49204" lon="2.11869">
        <ele>106</ele>
        <time>2011-04-15T10:59:33Z</time>
      </trkpt>
      <trkpt lat="48.49204" lon="2.11863">
        <ele>106</ele>
        <time>2011-04-15T10:59:34Z</time>
      </trkpt>
      <trkpt lat="48.49204" lon="2.11857">
        <ele>107</ele>
        <time>2011-04-15T10:59:35Z</time>
      </trkpt>
      <trkpt lat="48.49204" lon="2.11851">
        <ele>107</ele>
        <time>2011-04-15T10:59:36Z</time>
      </trkpt>
      <trkpt lat="48.49204" lon="2.11846">
        <ele>107</ele>
        <time>2011-04-15T10:59:37Z</time>
      </trkpt>
      <trkpt lat="48.49204" lon="2.1184">
        <ele>107</ele>
        <time>2011-04-15T10:59:38Z</time>
      </trkpt>
      <trkpt lat="48.49204" lon="2.11834">
        <ele>108</ele>
        <time>2011-04-15T10:59:39Z</time>
      </trkpt>
      <trkpt lat="48.49204" lon="2.11828">
        <ele>108</ele>
        <time>2011-04-15T10:59:40Z</time>
      </trkpt>
      <trkpt lat="48.49204" lon="2.11822">
        <ele>108</ele>
        <time>2011-04-15T10:59:41Z</time>
      </trkpt>
      <trkpt lat="48.49204" lon="2.11816">
        <ele>109</ele>
        <time>2011-04-15T10:59:42Z</time>
      </trkpt>
      <trkpt lat="48.49204" lon="2.1181">
        <ele>109</ele>
        <time>2011-04-15T10:59:43Z</time>
      </trkpt>
      <trkpt lat="48.49204" lon="2.11805">
        <ele>109</ele>
        <time>2011-04-15T10:59:44Z</time>
      </trkpt>
      <trkpt lat="48.49205" lon="2.118">
        <ele>109</ele>
        <time>2011-04-15T10:59:45Z</time>
      </trkpt>
      <trkpt lat="48.49205" lon="2.11794">
        <ele>110</ele>
        <time>2011-04-15T10:59:46Z</time>
      </trkpt>
      <trkpt lat="48.49204" lon="2.11789">
        <ele>110</ele>
        <time>2011-04-15T10:59:47Z</time>
      </trkpt>
      <trkpt lat="48.49204" lon="2.11783">
        <ele>110</ele>
        <time>2011-04-15T10:59:48Z</time>
      </trkpt>
      <trkpt lat="48.49204" lon="2.11777">
        <ele>111</ele>
        <time>2011-04-15T10:59:49Z</time>
      </trkpt>
      <trkpt lat="48.49204" lon="2.11771">
        <ele>111</ele>
        <time>2011-04-15T10:59:50Z</time>
      </trkpt>
      <trkpt lat="48.49204" lon="2.11764">
        <ele>112</ele>
        <time>2011-04-15T10:59:51Z</time>
      </trkpt>
      <trkpt lat="48.49202" lon="2.11758">
        <ele>112</ele>
        <time>2011-04-15T10:59:52Z</time>
      </trkpt>
      <trkpt lat="48.492" lon="2.11752">
        <ele>112</ele>
        <time>2011-04-15T10:59:53Z</time>
      </trkpt>
      <trkpt lat="48.49198" lon="2.11747">
        <ele>113</ele>
        <time>2011-04-15T10:59:54Z</time>
      </trkpt>
      <trkpt lat="48.49195" lon="2.11742">
        <ele>113</ele>
        <time>2011-04-15T10:59:55Z</time>
      </trkpt>
      <trkpt lat="48.49191" lon="2.11738">
        <ele>113</ele>
        <time>2011-04-15T10:59:56Z</time>
      </trkpt>
      <trkpt lat="48.49187" lon="2.11734">
        <ele>114</ele>
        <time>2011-04-15T10:59:57Z</time>
      </trkpt>
      <trkpt lat="48.49184" lon="2.1173">
        <ele>114</ele>
        <time>2011-04-15T10:59:58Z</time>
      </trkpt>
      <trkpt lat="48.4918" lon="2.11727">
        <ele>115</ele>
        <time>2011-04-15T10:59:59Z</time>
      </trkpt>
      <trkpt lat="48.49177" lon="2.11724">
        <ele>115</ele>
        <time>2011-04-15T11:00:00Z</time>
      </trkpt>
      <trkpt lat="48.49173" lon="2.11721">
        <ele>115</ele>
        <time>2011-04-15T11:00:01Z</time>
      </trkpt>
      <trkpt lat="48.4917" lon="2.11718">
        <ele>116</ele>
        <time>2011-04-15T11:00:02Z</time>
      </trkpt>
      <trkpt lat="48.49167" lon="2.11715">
        <ele>116</ele>
        <time>2011-04-15T11:00:03Z</time>
      </trkpt>
      <trkpt lat="48.49164" lon="2.11712">
        <ele>116</ele>
        <time>2011-04-15T11:00:04Z</time>
      </trkpt>
      <trkpt lat="48.4916" lon="2.1171">
        <ele>116</ele>
        <time>2011-04-15T11:00:05Z</time>
      </trkpt>
      <trkpt lat="48.49157" lon="2.11708">
        <ele>116</ele>
        <time>2011-04-15T11:00:06Z</time>
      </trkpt>
      <trkpt lat="48.49154" lon="2.11705">
        <ele>116</ele>
        <time>2011-04-15T11:00:07Z</time>
      </trkpt>
      <trkpt lat="48.4915" lon="2.11703">
        <ele>116</ele>
        <time>2011-04-15T11:00:08Z</time>
      </trkpt>
      <trkpt lat="48.49146" lon="2.11701">
        <ele>116</ele>
        <time>2011-04-15T11:00:09Z</time>
      </trkpt>
      <trkpt lat="48.49142" lon="2.11698">
        <ele>116</ele>
        <time>2011-04-15T11:00:10Z</time>
      </trkpt>
      <trkpt lat="48.49138" lon="2.11696">
        <ele>116</ele>
        <time>2011-04-15T11:00:11Z</time>
      </trkpt>
      <trkpt lat="48.49134" lon="2.11694">
        <ele>117</ele>
        <time>2011-04-15T11:00:12Z</time>
      </trkpt>
      <trkpt lat="48.4913" lon="2.11692">
        <ele>117</ele>
        <time>2011-04-15T11:00:13Z</time>
      </trkpt>
      <trkpt lat="48.49126" lon="2.11689">
        <ele>117</ele>
        <time>2011-04-15T11:00:14Z</time>
      </trkpt>
      <trkpt lat="48.49123" lon="2.11686">
        <ele>118</ele>
        <time>2011-04-15T11:00:15Z</time>
      </trkpt>
      <trkpt lat="48.49119" lon="2.11683">
        <ele>118</ele>
        <time>2011-04-15T11:00:16Z</time>
      </trkpt>
      <trkpt lat="48.49115" lon="2.1168">
        <ele>118</ele>
        <time>2011-04-15T11:00:17Z</time>
      </trkpt>
      <trkpt lat="48.49112" lon="2.11677">
        <ele>119</ele>
        <time>2011-04-15T11:00:18Z</time>
      </trkpt>
      <trkpt lat="48.49109" lon="2.11675">
        <ele>119</ele>
        <time>2011-04-15T11:00:19Z</time>
      </trkpt>
      <trkpt lat="48.49105" lon="2.11672">
        <ele>119</ele>
        <time>2011-04-15T11:00:20Z</time>
      </trkpt>
      <trkpt lat="48.49102" lon="2.11669">
        <ele>119</ele>
        <time>2011-04-15T11:00:21Z</time>
      </trkpt>
      <trkpt lat="48.49099" lon="2.11666">
        <ele>120</ele>
        <time>2011-04-15T11:00:22Z</time>
      </trkpt>
      <trkpt lat="48.49096" lon="2.11664">
        <ele>120</ele>
        <time>2011-04-15T11:00:23Z</time>
      </trkpt>
      <trkpt lat="48.49092" lon="2.11661">
        <ele>120</ele>
        <time>2011-04-15T11:00:24Z</time>
      </trkpt>
      <trkpt lat="48.49089" lon="2.11658">
        <ele>120</ele>
        <time>2011-04-15T11:00:25Z</time>
      </trkpt>
      <trkpt lat="48.49086" lon="2.11655">
        <ele>121</ele>
        <time>2011-04-15T11:00:26Z</time>
      </trkpt>
      <trkpt lat="48.49082" lon="2.11651">
        <ele>121</ele>
        <time>2011-04-15T11:00:27Z</time>
      </trkpt>
      <trkpt lat="48.49078" lon="2.11648">
        <ele>122</ele>
        <time>2011-04-15T11:00:28Z</time>
      </trkpt>
      <trkpt lat="48.49074" lon="2.11644">
        <ele>122</ele>
        <time>2011-04-15T11:00:29Z</time>
      </trkpt>
      <trkpt lat="48.49071" lon="2.11641">
        <ele>123</ele>
        <time>2011-04-15T11:00:30Z</time>
      </trkpt>
      <trkpt lat="48.49066" lon="2.11639">
        <ele>123</ele>
        <time>2011-04-15T11:00:31Z</time>
      </trkpt>
      <trkpt lat="48.49063" lon="2.11636">
        <ele>124</ele>
        <time>2011-04-15T11:00:32Z</time>
      </trkpt>
      <trkpt lat="48.49059" lon="2.11632">
        <ele>124</ele>
        <time>2011-04-15T11:00:33Z</time>
      </trkpt>
      <trkpt lat="48.49055" lon="2.11628">
        <ele>124</ele>
        <time>2011-04-15T11:00:34Z</time>
      </trkpt>
      <trkpt lat="48.49051" lon="2.11625">
        <ele>125</ele>
        <time>2011-04-15T11:00:35Z</time>
      </trkpt>
      <trkpt lat="48.49048" lon="2.11621">
        <ele>125</ele>
        <time>2011-04-15T11:00:36Z</time>
      </trkpt>
      <trkpt lat="48.49044" lon="2.11618">
        <ele>125</ele>
        <time>2011-04-15T11:00:37Z</time>
      </trkpt>
      <trkpt lat="48.4904" lon="2.11615">
        <ele>126</ele>
        <time>2011-04-15T11:00:38Z</time>
      </trkpt>
      <trkpt lat="48.49037" lon="2.11612">
        <ele>126</ele>
        <time>2011-04-15T11:00:39Z</time>
      </trkpt>
      <trkpt lat="48.49033" lon="2.11609">
        <ele>126</ele>
        <time>2011-04-15T11:00:40Z</time>
      </trkpt>
      <trkpt lat="48.4903" lon="2.11605">
        <ele>126</ele>
        <time>2011-04-15T11:00:41Z</time>
      </trkpt>
      <trkpt lat="48.49026" lon="2.11602">
        <ele>126</ele>
        <time>2011-04-15T11:00:42Z</time>
      </trkpt>
      <trkpt lat="48.49022" lon="2.11599">
        <ele>126</ele>
        <time>2011-04-15T11:00:43Z</time>
      </trkpt>
      <trkpt lat="48.49018" lon="2.11596">
        <ele>126</ele>
        <time>2011-04-15T11:00:44Z</time>
      </trkpt>
      <trkpt lat="48.49014" lon="2.11592">
        <ele>126</ele>
        <time>2011-04-15T11:00:45Z</time>
      </trkpt>
      <trkpt lat="48.4901" lon="2.11589">
        <ele>126</ele>
        <time>2011-04-15T11:00:46Z</time>
      </trkpt>
      <trkpt lat="48.49006" lon="2.11586">
        <ele>126</ele>
        <time>2011-04-15T11:00:47Z</time>
      </trkpt>
      <trkpt lat="48.49003" lon="2.11582">
        <ele>126</ele>
        <time>2011-04-15T11:00:48Z</time>
      </trkpt>
      <trkpt lat="48.48999" lon="2.11579">
        <ele>127</ele>
        <time>2011-04-15T11:00:49Z</time>
      </trkpt>
      <trkpt lat="48.48995" lon="2.11575">
        <ele>127</ele>
        <time>2011-04-15T11:00:50Z</time>
      </trkpt>
      <trkpt lat="48.48991" lon="2.11571">
        <ele>127</ele>
        <time>2011-04-15T11:00:51Z</time>
      </trkpt>
      <trkpt lat="48.48987" lon="2.11568">
        <ele>127</ele>
        <time>2011-04-15T11:00:52Z</time>
      </trkpt>
      <trkpt lat="48.48984" lon="2.11564">
        <ele>127</ele>
        <time>2011-04-15T11:00:53Z</time>
      </trkpt>
      <trkpt lat="48.4898" lon="2.11561">
        <ele>127</ele>
        <time>2011-04-15T11:00:54Z</time>
      </trkpt>
      <trkpt lat="48.48976" lon="2.11558">
        <ele>127</ele>
        <time>2011-04-15T11:00:55Z</time>
      </trkpt>
      <trkpt lat="48.48973" lon="2.11555">
        <ele>127</ele>
        <time>2011-04-15T11:00:56Z</time>
      </trkpt>
      <trkpt lat="48.48969" lon="2.11551">
        <ele>127</ele>
        <time>2011-04-15T11:00:57Z</time>
      </trkpt>
      <trkpt lat="48.48966" lon="2.11547">
        <ele>127</ele>
        <time>2011-04-15T11:00:58Z</time>
      </trkpt>
      <trkpt lat="48.48962" lon="2.11544">
        <ele>128</ele>
        <time>2011-04-15T11:00:59Z</time>
      </trkpt>
      <trkpt lat="48.48959" lon="2.11541">
        <ele>128</ele>
        <time>2011-04-15T11:01:00Z</time>
      </trkpt>
      <trkpt lat="48.48956" lon="2.11537">
        <ele>128</ele>
        <time>2011-04-15T11:01:01Z</time>
      </trkpt>
      <trkpt lat="48.48953" lon="2.11534">
        <ele>128</ele>
        <time>2011-04-15T11:01:02Z</time>
      </trkpt>
      <trkpt lat="48.4895" lon="2.1153">
        <ele>128</ele>
        <time>2011-04-15T11:01:03Z</time>
      </trkpt>
      <trkpt lat="48.48946" lon="2.11526">
        <ele>128</ele>
        <time>2011-04-15T11:01:04Z</time>
      </trkpt>
      <trkpt lat="48.48943" lon="2.11522">
        <ele>128</ele>
        <time>2011-04-15T11:01:05Z</time>
      </trkpt>
      <trkpt lat="48.4894" lon="2.11518">
        <ele>128</ele>
        <time>2011-04-15T11:01:06Z</time>
      </trkpt>
      <trkpt lat="48.48936" lon="2.11514">
        <ele>128</ele>
        <time>2011-04-15T11:01:07Z</time>
      </trkpt>
      <trkpt lat="48.48933" lon="2.1151">
        <ele>129</ele>
        <time>2011-04-15T11:01:08Z</time>
      </trkpt>
      <trkpt lat="48.4893" lon="2.11506">
        <ele>129</ele>
        <time>2011-04-15T11:01:09Z</time>
      </trkpt>
      <trkpt lat="48.48926" lon="2.11502">
        <ele>129</ele>
        <time>2011-04-15T11:01:10Z</time>
      </trkpt>
      <trkpt lat="48.48922" lon="2.11498">
        <ele>129</ele>
        <time>2011-04-15T11:01:11Z</time>
      </trkpt>
      <trkpt lat="48.48919" lon="2.11494">
        <ele>129</ele>
        <time>2011-04-15T11:01:12Z</time>
      </trkpt>
      <trkpt lat="48.48915" lon="2.11491">
        <ele>129</ele>
        <time>2011-04-15T11:01:13Z</time>
      </trkpt>
      <trkpt lat="48.48912" lon="2.11487">
        <ele>129</ele>
        <time>2011-04-15T11:01:14Z</time>
      </trkpt>
      <trkpt lat="48.48908" lon="2.11484">
        <ele>129</ele>
        <time>2011-04-15T11:01:15Z</time>
      </trkpt>
      <trkpt lat="48.48905" lon="2.1148">
        <ele>129</ele>
        <time>2011-04-15T11:01:16Z</time>
      </trkpt>
      <trkpt lat="48.48902" lon="2.11476">
        <ele>129</ele>
        <time>2011-04-15T11:01:17Z</time>
      </trkpt>
      <trkpt lat="48.48899" lon="2.11472">
        <ele>130</ele>
        <time>2011-04-15T11:01:18Z</time>
      </trkpt>
      <trkpt lat="48.48897" lon="2.11468">
        <ele>130</ele>
        <time>2011-04-15T11:01:19Z</time>
      </trkpt>
      <trkpt lat="48.48894" lon="2.11464">
        <ele>130</ele>
        <time>2011-04-15T11:01:20Z</time>
      </trkpt>
      <trkpt lat="48.48891" lon="2.11459">
        <ele>130</ele>
        <time>2011-04-15T11:01:21Z</time>
      </trkpt>
      <trkpt lat="48.48888" lon="2.11455">
        <ele>130</ele>
        <time>2011-04-15T11:01:22Z</time>
      </trkpt>
      <trkpt lat="48.48885" lon="2.1145">
        <ele>130</ele>
        <time>2011-04-15T11:01:23Z</time>
      </trkpt>
      <trkpt lat="48.48881" lon="2.11446">
        <ele>130</ele>
        <time>2011-04-15T11:01:24Z</time>
      </trkpt>
      <trkpt lat="48.48877" lon="2.11442">
        <ele>130</ele>
        <time>2011-04-15T11:01:25Z</time>
      </trkpt>
      <trkpt lat="48.48873" lon="2.11439">
        <ele>130</ele>
        <time>2011-04-15T11:01:26Z</time>
      </trkpt>
      <trkpt lat="48.4887" lon="2.11435">
        <ele>130</ele>
        <time>2011-04-15T11:01:27Z</time>
      </trkpt>
      <trkpt lat="48.48867" lon="2.11431">
        <ele>130</ele>
        <time>2011-04-15T11:01:28Z</time>
      </trkpt>
      <trkpt lat="48.48863" lon="2.11427">
        <ele>130</ele>
        <time>2011-04-15T11:01:29Z</time>
      </trkpt>
      <trkpt lat="48.4886" lon="2.11423">
        <ele>130</ele>
        <time>2011-04-15T11:01:30Z</time>
      </trkpt>
      <trkpt lat="48.48857" lon="2.11419">
        <ele>131</ele>
        <time>2011-04-15T11:01:31Z</time>
      </trkpt>
      <trkpt lat="48.48853" lon="2.11415">
        <ele>131</ele>
        <time>2011-04-15T11:01:32Z</time>
      </trkpt>
      <trkpt lat="48.4885" lon="2.11411">
        <ele>131</ele>
        <time>2011-04-15T11:01:33Z</time>
      </trkpt>
      <trkpt lat="48.48846" lon="2.11407">
        <ele>131</ele>
        <time>2011-04-15T11:01:34Z</time>
      </trkpt>
      <trkpt lat="48.48843" lon="2.11402">
        <ele>131</ele>
        <time>2011-04-15T11:01:35Z</time>
      </trkpt>
      <trkpt lat="48.4884" lon="2.11398">
        <ele>131</ele>
        <time>2011-04-15T11:01:36Z</time>
      </trkpt>
      <trkpt lat="48.48836" lon="2.11395">
        <ele>131</ele>
        <time>2011-04-15T11:01:37Z</time>
      </trkpt>
      <trkpt lat="48.48833" lon="2.11391">
        <ele>131</ele>
        <time>2011-04-15T11:01:38Z</time>
      </trkpt>
      <trkpt lat="48.48829" lon="2.11388">
        <ele>131</ele>
        <time>2011-04-15T11:01:39Z</time>
      </trkpt>
      <trkpt lat="48.48825" lon="2.11384">
        <ele>131</ele>
        <time>2011-04-15T11:01:40Z</time>
      </trkpt>
      <trkpt lat="48.48821" lon="2.11381">
        <ele>131</ele>
        <time>2011-04-15T11:01:41Z</time>
      </trkpt>
      <trkpt lat="48.48818" lon="2.11378">
        <ele>131</ele>
        <time>2011-04-15T11:01:42Z</time>
      </trkpt>
      <trkpt lat="48.48814" lon="2.11374">
        <ele>131</ele>
        <time>2011-04-15T11:01:43Z</time>
      </trkpt>
      <trkpt lat="48.4881" lon="2.11371">
        <ele>131</ele>
        <time>2011-04-15T11:01:44Z</time>
      </trkpt>
      <trkpt lat="48.48806" lon="2.11367">
        <ele>131</ele>
        <time>2011-04-15T11:01:45Z</time>
      </trkpt>
      <trkpt lat="48.48802" lon="2.11364">
        <ele>131</ele>
        <time>2011-04-15T11:01:46Z</time>
      </trkpt>
      <trkpt lat="48.48798" lon="2.1136">
        <ele>132</ele>
        <time>2011-04-15T11:01:47Z</time>
      </trkpt>
      <trkpt lat="48.48794" lon="2.11357">
        <ele>132</ele>
        <time>2011-04-15T11:01:48Z</time>
      </trkpt>
      <trkpt lat="48.4879" lon="2.11354">
        <ele>132</ele>
        <time>2011-04-15T11:01:49Z</time>
      </trkpt>
      <trkpt lat="48.48786" lon="2.11351">
        <ele>133</ele>
        <time>2011-04-15T11:01:50Z</time>
      </trkpt>
      <trkpt lat="48.48782" lon="2.11348">
        <ele>133</ele>
        <time>2011-04-15T11:01:51Z</time>
      </trkpt>
      <trkpt lat="48.48777" lon="2.11346">
        <ele>133</ele>
        <time>2011-04-15T11:01:52Z</time>
      </trkpt>
      <trkpt lat="48.48773" lon="2.11343">
        <ele>134</ele>
        <time>2011-04-15T11:01:53Z</time>
      </trkpt>
      <trkpt lat="48.48769" lon="2.11341">
        <ele>134</ele>
        <time>2011-04-15T11:01:54Z</time>
      </trkpt>
      <trkpt lat="48.48765" lon="2.11339">
        <ele>134</ele>
        <time>2011-04-15T11:01:55Z</time>
      </trkpt>
      <trkpt lat="48.48761" lon="2.11336">
        <ele>134</ele>
        <time>2011-04-15T11:01:56Z</time>
      </trkpt>
      <trkpt lat="48.48756" lon="2.11335">
        <ele>134</ele>
        <time>2011-04-15T11:01:57Z</time>
      </trkpt>
      <trkpt lat="48.48752" lon="2.11333">
        <ele>134</ele>
        <time>2011-04-15T11:01:58Z</time>
      </trkpt>
      <trkpt lat="48.48748" lon="2.11331">
        <ele>134</ele>
        <time>2011-04-15T11:01:59Z</time>
      </trkpt>
      <trkpt lat="48.48743" lon="2.11329">
        <ele>134</ele>
        <time>2011-04-15T11:02:00Z</time>
      </trkpt>
      <trkpt lat="48.48739" lon="2.11326">
        <ele>134</ele>
        <time>2011-04-15T11:02:01Z</time>
      </trkpt>
      <trkpt lat="48.48735" lon="2.11323">
        <ele>134</ele>
        <time>2011-04-15T11:02:02Z</time>
      </trkpt>
      <trkpt lat="48.48731" lon="2.1132">
        <ele>134</ele>
        <time>2011-04-15T11:02:03Z</time>
      </trkpt>
      <trkpt lat="48.48727" lon="2.11317">
        <ele>134</ele>
        <time>2011-04-15T11:02:04Z</time>
      </trkpt>
      <trkpt lat="48.48723" lon="2.11313">
        <ele>134</ele>
        <time>2011-04-15T11:02:05Z</time>
      </trkpt>
      <trkpt lat="48.4872" lon="2.1131">
        <ele>134</ele>
        <time>2011-04-15T11:02:06Z</time>
      </trkpt>
      <trkpt lat="48.48716" lon="2.11306">
        <ele>134</ele>
        <time>2011-04-15T11:02:07Z</time>
      </trkpt>
      <trkpt lat="48.48714" lon="2.11302">
        <ele>134</ele>
        <time>2011-04-15T11:02:08Z</time>
      </trkpt>
      <trkpt lat="48.48711" lon="2.11297">
        <ele>134</ele>
        <time>2011-04-15T11:02:09Z</time>
      </trkpt>
      <trkpt lat="48.48709" lon="2.11291">
        <ele>134</ele>
        <time>2011-04-15T11:02:10Z</time>
      </trkpt>
      <trkpt lat="48.48706" lon="2.11285">
        <ele>134</ele>
        <time>2011-04-15T11:02:11Z</time>
      </trkpt>
      <trkpt lat="48.48704" lon="2.11279">
        <ele>134</ele>
        <time>2011-04-15T11:02:12Z</time>
      </trkpt>
      <trkpt lat="48.48701" lon="2.11273">
        <ele>134</ele>
        <time>2011-04-15T11:02:13Z</time>
      </trkpt>
      <trkpt lat="48.48699" lon="2.11267">
        <ele>134</ele>
        <time>2011-04-15T11:02:14Z</time>
      </trkpt>
      <trkpt lat="48.48697" lon="2.11261">
        <ele>134</ele>
        <time>2011-04-15T11:02:15Z</time>
      </trkpt>
      <trkpt lat="48.48696" lon="2.11254">
        <ele>134</ele>
        <time>2011-04-15T11:02:16Z</time>
      </trkpt>
      <trkpt lat="48.48694" lon="2.11246">
        <ele>134</ele>
        <time>2011-04-15T11:02:17Z</time>
      </trkpt>
      <trkpt lat="48.48693" lon="2.1124">
        <ele>134</ele>
        <time>2011-04-15T11:02:18Z</time>
      </trkpt>
      <trkpt lat="48.48692" lon="2.11233">
        <ele>134</ele>
        <time>2011-04-15T11:02:19Z</time>
      </trkpt>
      <trkpt lat="48.48691" lon="2.11226">
        <ele>134</ele>
        <time>2011-04-15T11:02:20Z</time>
      </trkpt>
      <trkpt lat="48.4869" lon="2.11219">
        <ele>134</ele>
        <time>2011-04-15T11:02:21Z</time>
      </trkpt>
      <trkpt lat="48.48689" lon="2.11212">
        <ele>134</ele>
        <time>2011-04-15T11:02:22Z</time>
      </trkpt>
      <trkpt lat="48.48687" lon="2.11205">
        <ele>134</ele>
        <time>2011-04-15T11:02:23Z</time>
      </trkpt>
      <trkpt lat="48.48686" lon="2.11198">
        <ele>134</ele>
        <time>2011-04-15T11:02:24Z</time>
      </trkpt>
      <trkpt lat="48.48684" lon="2.11191">
        <ele>134</ele>
        <time>2011-04-15T11:02:25Z</time>
      </trkpt>
      <trkpt lat="48.48682" lon="2.11184">
        <ele>134</ele>
        <time>2011-04-15T11:02:26Z</time>
      </trkpt>
      <trkpt lat="48.48681" lon="2.11178">
        <ele>134</ele>
        <time>2011-04-15T11:02:27Z</time>
      </trkpt>
      <trkpt lat="48.48679" lon="2.11172">
        <ele>134</ele>
        <time>2011-04-15T11:02:28Z</time>
      </trkpt>
      <trkpt lat="48.48677" lon="2.11166">
        <ele>134</ele>
        <time>2011-04-15T11:02:29Z</time>
      </trkpt>
      <trkpt lat="48.48675" lon="2.1116">
        <ele>134</ele>
        <time>2011-04-15T11:02:30Z</time>
      </trkpt>
      <trkpt lat="48.48673" lon="2.11154">
        <ele>134</ele>
        <time>2011-04-15T11:02:31Z</time>
      </trkpt>
      <trkpt lat="48.48671" lon="2.11149">
        <ele>134</ele>
        <time>2011-04-15T11:02:32Z</time>
      </trkpt>
      <trkpt lat="48.48669" lon="2.11143">
        <ele>134</ele>
        <time>2011-04-15T11:02:33Z</time>
      </trkpt>
      <trkpt lat="48.48667" lon="2.11138">
        <ele>134</ele>
        <time>2011-04-15T11:02:34Z</time>
      </trkpt>
      <trkpt lat="48.48665" lon="2.11133">
        <ele>134</ele>
        <time>2011-04-15T11:02:35Z</time>
      </trkpt>
      <trkpt lat="48.48662" lon="2.11128">
        <ele>134</ele>
        <time>2011-04-15T11:02:36Z</time>
      </trkpt>
      <trkpt lat="48.4866" lon="2.11122">
        <ele>134</ele>
        <time>2011-04-15T11:02:37Z</time>
      </trkpt>
      <trkpt lat="48.48658" lon="2.11117">
        <ele>134</ele>
        <time>2011-04-15T11:02:38Z</time>
      </trkpt>
      <trkpt lat="48.48656" lon="2.11111">
        <ele>134</ele>
        <time>2011-04-15T11:02:39Z</time>
      </trkpt>
      <trkpt lat="48.48653" lon="2.11105">
        <ele>134</ele>
        <time>2011-04-15T11:02:40Z</time>
      </trkpt>
      <trkpt lat="48.48651" lon="2.11099">
        <ele>134</ele>
        <time>2011-04-15T11:02:41Z</time>
      </trkpt>
      <trkpt lat="48.48649" lon="2.11094">
        <ele>134</ele>
        <time>2011-04-15T11:02:42Z</time>
      </trkpt>
      <trkpt lat="48.48646" lon="2.11088">
        <ele>134</ele>
        <time>2011-04-15T11:02:43Z</time>
      </trkpt>
      <trkpt lat="48.48643" lon="2.11082">
        <ele>134</ele>
        <time>2011-04-15T11:02:44Z</time>
      </trkpt>
      <trkpt lat="48.48641" lon="2.11076">
        <ele>134</ele>
        <time>2011-04-15T11:02:45Z</time>
      </trkpt>
      <trkpt lat="48.48639" lon="2.1107">
        <ele>134</ele>
        <time>2011-04-15T11:02:46Z</time>
      </trkpt>
      <trkpt lat="48.48636" lon="2.11063">
        <ele>134</ele>
        <time>2011-04-15T11:02:47Z</time>
      </trkpt>
      <trkpt lat="48.48634" lon="2.11057">
        <ele>134</ele>
        <time>2011-04-15T11:02:48Z</time>
      </trkpt>
      <trkpt lat="48.48632" lon="2.11052">
        <ele>134</ele>
        <time>2011-04-15T11:02:49Z</time>
      </trkpt>
      <trkpt lat="48.48629" lon="2.11045">
        <ele>134</ele>
        <time>2011-04-15T11:02:50Z</time>
      </trkpt>
      <trkpt lat="48.48627" lon="2.11039">
        <ele>134</ele>
        <time>2011-04-15T11:02:51Z</time>
      </trkpt>
      <trkpt lat="48.48624" lon="2.11033">
        <ele>134</ele>
        <time>2011-04-15T11:02:52Z</time>
      </trkpt>
      <trkpt lat="48.48621" lon="2.11027">
        <ele>134</ele>
        <time>2011-04-15T11:02:53Z</time>
      </trkpt>
      <trkpt lat="48.48619" lon="2.11021">
        <ele>134</ele>
        <time>2011-04-15T11:02:54Z</time>
      </trkpt>
      <trkpt lat="48.48616" lon="2.11015">
        <ele>134</ele>
        <time>2011-04-15T11:02:55Z</time>
      </trkpt>
      <trkpt lat="48.48613" lon="2.11009">
        <ele>134</ele>
        <time>2011-04-15T11:02:56Z</time>
      </trkpt>
      <trkpt lat="48.48611" lon="2.11004">
        <ele>134</ele>
        <time>2011-04-15T11:02:57Z</time>
      </trkpt>
      <trkpt lat="48.48609" lon="2.10998">
        <ele>134</ele>
        <time>2011-04-15T11:02:58Z</time>
      </trkpt>
      <trkpt lat="48.48607" lon="2.10992">
        <ele>134</ele>
        <time>2011-04-15T11:02:59Z</time>
      </trkpt>
      <trkpt lat="48.48605" lon="2.10987">
        <ele>134</ele>
        <time>2011-04-15T11:03:00Z</time>
      </trkpt>
      <trkpt lat="48.48602" lon="2.10982">
        <ele>134</ele>
        <time>2011-04-15T11:03:01Z</time>
      </trkpt>
      <trkpt lat="48.486" lon="2.10976">
        <ele>134</ele>
        <time>2011-04-15T11:03:02Z</time>
      </trkpt>
      <trkpt lat="48.48598" lon="2.10971">
        <ele>134</ele>
        <time>2011-04-15T11:03:03Z</time>
      </trkpt>
      <trkpt lat="48.48596" lon="2.10965">
        <ele>134</ele>
        <time>2011-04-15T11:03:04Z</time>
      </trkpt>
      <trkpt lat="48.48593" lon="2.1096">
        <ele>134</ele>
        <time>2011-04-15T11:03:05Z</time>
      </trkpt>
      <trkpt lat="48.48591" lon="2.10954">
        <ele>134</ele>
        <time>2011-04-15T11:03:06Z</time>
      </trkpt>
      <trkpt lat="48.48588" lon="2.10949">
        <ele>134</ele>
        <time>2011-04-15T11:03:07Z</time>
      </trkpt>
      <trkpt lat="48.48586" lon="2.10943">
        <ele>134</ele>
        <time>2011-04-15T11:03:08Z</time>
      </trkpt>
      <trkpt lat="48.48583" lon="2.10937">
        <ele>134</ele>
        <time>2011-04-15T11:03:09Z</time>
      </trkpt>
      <trkpt lat="48.48581" lon="2.10931">
        <ele>134</ele>
        <time>2011-04-15T11:03:10Z</time>
      </trkpt>
      <trkpt lat="48.48578" lon="2.10925">
        <ele>134</ele>
        <time>2011-04-15T11:03:11Z</time>
      </trkpt>
      <trkpt lat="48.48576" lon="2.1092">
        <ele>134</ele>
        <time>2011-04-15T11:03:12Z</time>
      </trkpt>
      <trkpt lat="48.48573" lon="2.10914">
        <ele>134</ele>
        <time>2011-04-15T11:03:13Z</time>
      </trkpt>
      <trkpt lat="48.4857" lon="2.10908">
        <ele>134</ele>
        <time>2011-04-15T11:03:14Z</time>
      </trkpt>
      <trkpt lat="48.48568" lon="2.10903">
        <ele>134</ele>
        <time>2011-04-15T11:03:15Z</time>
      </trkpt>
      <trkpt lat="48.48566" lon="2.10897">
        <ele>134</ele>
        <time>2011-04-15T11:03:16Z</time>
      </trkpt>
      <trkpt lat="48.48563" lon="2.10891">
        <ele>134</ele>
        <time>2011-04-15T11:03:17Z</time>
      </trkpt>
      <trkpt lat="48.48561" lon="2.10885">
        <ele>134</ele>
        <time>2011-04-15T11:03:18Z</time>
      </trkpt>
      <trkpt lat="48.48558" lon="2.10879">
        <ele>134</ele>
        <time>2011-04-15T11:03:19Z</time>
      </trkpt>
      <trkpt lat="48.48555" lon="2.10873">
        <ele>134</ele>
        <time>2011-04-15T11:03:20Z</time>
      </trkpt>
      <trkpt lat="48.48552" lon="2.10867">
        <ele>134</ele>
        <time>2011-04-15T11:03:21Z</time>
      </trkpt>
      <trkpt lat="48.4855" lon="2.10861">
        <ele>134</ele>
        <time>2011-04-15T11:03:22Z</time>
      </trkpt>
      <trkpt lat="48.48547" lon="2.10856">
        <ele>134</ele>
        <time>2011-04-15T11:03:23Z</time>
      </trkpt>
      <trkpt lat="48.48544" lon="2.1085">
        <ele>134</ele>
        <time>2011-04-15T11:03:24Z</time>
      </trkpt>
      <trkpt lat="48.48541" lon="2.10844">
        <ele>134</ele>
        <time>2011-04-15T11:03:25Z</time>
      </trkpt>
      <trkpt lat="48.48538" lon="2.10838">
        <ele>134</ele>
        <time>2011-04-15T11:03:26Z</time>
      </trkpt>
      <trkpt lat="48.48534" lon="2.10831">
        <ele>134</ele>
        <time>2011-04-15T11:03:27Z</time>
      </trkpt>
      <trkpt lat="48.48531" lon="2.10824">
        <ele>134</ele>
        <time>2011-04-15T11:03:28Z</time>
      </trkpt>
      <trkpt lat="48.48528" lon="2.10816">
        <ele>134</ele>
        <time>2011-04-15T11:03:29Z</time>
      </trkpt>
      <trkpt lat="48.48525" lon="2.10808">
        <ele>134</ele>
        <time>2011-04-15T11:03:30Z</time>
      </trkpt>
      <trkpt lat="48.48521" lon="2.108">
        <ele>134</ele>
        <time>2011-04-15T11:03:31Z</time>
      </trkpt>
      <trkpt lat="48.48518" lon="2.10792">
        <ele>134</ele>
        <time>2011-04-15T11:03:32Z</time>
      </trkpt>
      <trkpt lat="48.48514" lon="2.10784">
        <ele>134</ele>
        <time>2011-04-15T11:03:33Z</time>
      </trkpt>
      <trkpt lat="48.4851" lon="2.10775">
        <ele>134</ele>
        <time>2011-04-15T11:03:34Z</time>
      </trkpt>
      <trkpt lat="48.48507" lon="2.10767">
        <ele>134</ele>
        <time>2011-04-15T11:03:35Z</time>
      </trkpt>
      <trkpt lat="48.48503" lon="2.10759">
        <ele>134</ele>
        <time>2011-04-15T11:03:36Z</time>
      </trkpt>
      <trkpt lat="48.485" lon="2.10751">
        <ele>134</ele>
        <time>2011-04-15T11:03:37Z</time>
      </trkpt>
      <trkpt lat="48.48496" lon="2.10742">
        <ele>134</ele>
        <time>2011-04-15T11:03:38Z</time>
      </trkpt>
      <trkpt lat="48.48492" lon="2.10734">
        <ele>134</ele>
        <time>2011-04-15T11:03:39Z</time>
      </trkpt>
      <trkpt lat="48.48489" lon="2.10725">
        <ele>134</ele>
        <time>2011-04-15T11:03:40Z</time>
      </trkpt>
      <trkpt lat="48.48485" lon="2.10717">
        <ele>134</ele>
        <time>2011-04-15T11:03:41Z</time>
      </trkpt>
      <trkpt lat="48.48481" lon="2.10709">
        <ele>134</ele>
        <time>2011-04-15T11:03:42Z</time>
      </trkpt>
      <trkpt lat="48.48478" lon="2.107">
        <ele>134</ele>
        <time>2011-04-15T11:03:43Z</time>
      </trkpt>
      <trkpt lat="48.48474" lon="2.10692">
        <ele>134</ele>
        <time>2011-04-15T11:03:44Z</time>
      </trkpt>
      <trkpt lat="48.48471" lon="2.10683">
        <ele>134</ele>
        <time>2011-04-15T11:03:45Z</time>
      </trkpt>
      <trkpt lat="48.48468" lon="2.10674">
        <ele>134</ele>
        <time>2011-04-15T11:03:46Z</time>
      </trkpt>
      <trkpt lat="48.48464" lon="2.10666">
        <ele>134</ele>
        <time>2011-04-15T11:03:47Z</time>
      </trkpt>
      <trkpt lat="48.48461" lon="2.10657">
        <ele>134</ele>
        <time>2011-04-15T11:03:48Z</time>
      </trkpt>
      <trkpt lat="48.48458" lon="2.10648">
        <ele>134</ele>
        <time>2011-04-15T11:03:49Z</time>
      </trkpt>
      <trkpt lat="48.48456" lon="2.10639">
        <ele>134</ele>
        <time>2011-04-15T11:03:50Z</time>
      </trkpt>
      <trkpt lat="48.48454" lon="2.1063">
        <ele>134</ele>
        <time>2011-04-15T11:03:51Z</time>
      </trkpt>
      <trkpt lat="48.48452" lon="2.1062">
        <ele>134</ele>
        <time>2011-04-15T11:03:52Z</time>
      </trkpt>
      <trkpt lat="48.4845" lon="2.10611">
        <ele>134</ele>
        <time>2011-04-15T11:03:53Z</time>
      </trkpt>
      <trkpt lat="48.48448" lon="2.10601">
        <ele>134</ele>
        <time>2011-04-15T11:03:54Z</time>
      </trkpt>
      <trkpt lat="48.48446" lon="2.10592">
        <ele>134</ele>
        <time>2011-04-15T11:03:55Z</time>
      </trkpt>
      <trkpt lat="48.48444" lon="2.10582">
        <ele>135</ele>
        <time>2011-04-15T11:03:56Z</time>
      </trkpt>
      <trkpt lat="48.48441" lon="2.10572">
        <ele>135</ele>
        <time>2011-04-15T11:03:57Z</time>
      </trkpt>
      <trkpt lat="48.48438" lon="2.10562">
        <ele>135</ele>
        <time>2011-04-15T11:03:58Z</time>
      </trkpt>
      <trkpt lat="48.48435" lon="2.10552">
        <ele>135</ele>
        <time>2011-04-15T11:03:59Z</time>
      </trkpt>
      <trkpt lat="48.48431" lon="2.10542">
        <ele>135</ele>
        <time>2011-04-15T11:04:00Z</time>
      </trkpt>
      <trkpt lat="48.48428" lon="2.10532">
        <ele>135</ele>
        <time>2011-04-15T11:04:01Z</time>
      </trkpt>
      <trkpt lat="48.48425" lon="2.10522">
        <ele>135</ele>
        <time>2011-04-15T11:04:02Z</time>
      </trkpt>
      <trkpt lat="48.48421" lon="2.10512">
        <ele>135</ele>
        <time>2011-04-15T11:04:03Z</time>
      </trkpt>
      <trkpt lat="48.48417" lon="2.10502">
        <ele>135</ele>
        <time>2011-04-15T11:04:04Z</time>
      </trkpt>
      <trkpt lat="48.48414" lon="2.10492">
        <ele>135</ele>
        <time>2011-04-15T11:04:05Z</time>
      </trkpt>
      <trkpt lat="48.4841" lon="2.10482">
        <ele>135</ele>
        <time>2011-04-15T11:04:06Z</time>
      </trkpt>
      <trkpt lat="48.48407" lon="2.10472">
        <ele>135</ele>
        <time>2011-04-15T11:04:07Z</time>
      </trkpt>
      <trkpt lat="48.48403" lon="2.10463">
        <ele>135</ele>
        <time>2011-04-15T11:04:08Z</time>
      </trkpt>
      <trkpt lat="48.484" lon="2.10453">
        <ele>135</ele>
        <time>2011-04-15T11:04:09Z</time>
      </trkpt>
      <trkpt lat="48.48396" lon="2.10443">
        <ele>135</ele>
        <time>2011-04-15T11:04:10Z</time>
      </trkpt>
      <trkpt lat="48.48392" lon="2.10434">
        <ele>135</ele>
        <time>2011-04-15T11:04:11Z</time>
      </trkpt>
      <trkpt lat="48.48388" lon="2.10425">
        <ele>135</ele>
        <time>2011-04-15T11:04:12Z</time>
      </trkpt>
      <trkpt lat="48.48384" lon="2.10415">
        <ele>135</ele>
        <time>2011-04-15T11:04:13Z</time>
      </trkpt>
      <trkpt lat="48.48379" lon="2.10407">
        <ele>135</ele>
        <time>2011-04-15T11:04:14Z</time>
      </trkpt>
      <trkpt lat="48.48375" lon="2.10398">
        <ele>135</ele>
        <time>2011-04-15T11:04:15Z</time>
      </trkpt>
      <trkpt lat="48.48371" lon="2.1039">
        <ele>135</ele>
        <time>2011-04-15T11:04:16Z</time>
      </trkpt>
      <trkpt lat="48.48367" lon="2.10382">
        <ele>135</ele>
        <time>2011-04-15T11:04:17Z</time>
      </trkpt>
      <trkpt lat="48.48363" lon="2.10374">
        <ele>135</ele>
        <time>2011-04-15T11:04:18Z</time>
      </trkpt>
      <trkpt lat="48.48359" lon="2.10366">
        <ele>135</ele>
        <time>2011-04-15T11:04:19Z</time>
      </trkpt>
      <trkpt lat="48.48354" lon="2.10359">
        <ele>135</ele>
        <time>2011-04-15T11:04:20Z</time>
      </trkpt>
      <trkpt lat="48.48351" lon="2.10352">
        <ele>135</ele>
        <time>2011-04-15T11:04:21Z</time>
      </trkpt>
      <trkpt lat="48.48347" lon="2.10345">
        <ele>135</ele>
        <time>2011-04-15T11:04:22Z</time>
      </trkpt>
      <trkpt lat="48.48343" lon="2.10338">
        <ele>135</ele>
        <time>2011-04-15T11:04:23Z</time>
      </trkpt>
      <trkpt lat="48.48339" lon="2.10332">
        <ele>135</ele>
        <time>2011-04-15T11:04:24Z</time>
      </trkpt>
      <trkpt lat="48.48336" lon="2.10325">
        <ele>135</ele>
        <time>2011-04-15T11:04:25Z</time>
      </trkpt>
      <trkpt lat="48.48332" lon="2.10319">
        <ele>135</ele>
        <time>2011-04-15T11:04:26Z</time>
      </trkpt>
      <trkpt lat="48.48329" lon="2.10312">
        <ele>135</ele>
        <time>2011-04-15T11:04:27Z</time>
      </trkpt>
      <trkpt lat="48.48326" lon="2.10306">
        <ele>135</ele>
        <time>2011-04-15T11:04:28Z</time>
      </trkpt>
      <trkpt lat="48.48322" lon="2.10299">
        <ele>135</ele>
        <time>2011-04-15T11:04:29Z</time>
      </trkpt>
      <trkpt lat="48.48319" lon="2.10293">
        <ele>135</ele>
        <time>2011-04-15T11:04:30Z</time>
      </trkpt>
      <trkpt lat="48.48315" lon="2.10286">
        <ele>135</ele>
        <time>2011-04-15T11:04:31Z</time>
      </trkpt>
      <trkpt lat="48.48311" lon="2.10278">
        <ele>135</ele>
        <time>2011-04-15T11:04:32Z</time>
      </trkpt>
      <trkpt lat="48.48307" lon="2.10271">
        <ele>135</ele>
        <time>2011-04-15T11:04:33Z</time>
      </trkpt>
      <trkpt lat="48.48303" lon="2.10263">
        <ele>135</ele>
        <time>2011-04-15T11:04:34Z</time>
      </trkpt>
      <trkpt lat="48.48299" lon="2.10255">
        <ele>135</ele>
        <time>2011-04-15T11:04:35Z</time>
      </trkpt>
      <trkpt lat="48.48294" lon="2.10246">
        <ele>135</ele>
        <time>2011-04-15T11:04:36Z</time>
      </trkpt>
      <trkpt lat="48.48289" lon="2.10237">
        <ele>135</ele>
        <time>2011-04-15T11:04:37Z</time>
      </trkpt>
      <trkpt lat="48.48285" lon="2.10228">
        <ele>135</ele>
        <time>2011-04-15T11:04:38Z</time>
      </trkpt>
      <trkpt lat="48.4828" lon="2.1022">
        <ele>135</ele>
        <time>2011-04-15T11:04:39Z</time>
      </trkpt>
      <trkpt lat="48.48275" lon="2.10211">
        <ele>135</ele>
        <time>2011-04-15T11:04:40Z</time>
      </trkpt>
      <trkpt lat="48.48271" lon="2.10203">
        <ele>135</ele>
        <time>2011-04-15T11:04:41Z</time>
      </trkpt>
      <trkpt lat="48.48266" lon="2.10194">
        <ele>135</ele>
        <time>2011-04-15T11:04:42Z</time>
      </trkpt>
      <trkpt lat="48.48262" lon="2.10186">
        <ele>135</ele>
        <time>2011-04-15T11:04:43Z</time>
      </trkpt>
      <trkpt lat="48.48257" lon="2.10178">
        <ele>135</ele>
        <time>2011-04-15T11:04:44Z</time>
      </trkpt>
      <trkpt lat="48.48253" lon="2.10171">
        <ele>135</ele>
        <time>2011-04-15T11:04:45Z</time>
      </trkpt>
      <trkpt lat="48.48249" lon="2.10163">
        <ele>135</ele>
        <time>2011-04-15T11:04:46Z</time>
      </trkpt>
      <trkpt lat="48.48245" lon="2.10156">
        <ele>135</ele>
        <time>2011-04-15T11:04:47Z</time>
      </trkpt>
      <trkpt lat="48.48241" lon="2.10148">
        <ele>135</ele>
        <time>2011-04-15T11:04:48Z</time>
      </trkpt>
      <trkpt lat="48.48236" lon="2.1014">
        <ele>135</ele>
        <time>2011-04-15T11:04:49Z</time>
      </trkpt>
      <trkpt lat="48.48232" lon="2.10132">
        <ele>135</ele>
        <time>2011-04-15T11:04:50Z</time>
      </trkpt>
      <trkpt lat="48.48228" lon="2.10124">
        <ele>135</ele>
        <time>2011-04-15T11:04:51Z</time>
      </trkpt>
      <trkpt lat="48.48224" lon="2.10116">
        <ele>135</ele>
        <time>2011-04-15T11:04:52Z</time>
      </trkpt>
      <trkpt lat="48.48219" lon="2.10107">
        <ele>135</ele>
        <time>2011-04-15T11:04:53Z</time>
      </trkpt>
      <trkpt lat="48.48215" lon="2.10099">
        <ele>135</ele>
        <time>2011-04-15T11:04:54Z</time>
      </trkpt>
      <trkpt lat="48.48211" lon="2.10092">
        <ele>135</ele>
        <time>2011-04-15T11:04:55Z</time>
      </trkpt>
      <trkpt lat="48.48207" lon="2.10084">
        <ele>136</ele>
        <time>2011-04-15T11:04:56Z</time>
      </trkpt>
      <trkpt lat="48.48203" lon="2.10077">
        <ele>136</ele>
        <time>2011-04-15T11:04:57Z</time>
      </trkpt>
      <trkpt lat="48.48199" lon="2.10069">
        <ele>136</ele>
        <time>2011-04-15T11:04:58Z</time>
      </trkpt>
      <trkpt lat="48.48195" lon="2.10062">
        <ele>136</ele>
        <time>2011-04-15T11:04:59Z</time>
      </trkpt>
      <trkpt lat="48.48191" lon="2.10054">
        <ele>136</ele>
        <time>2011-04-15T11:05:00Z</time>
      </trkpt>
      <trkpt lat="48.48187" lon="2.10047">
        <ele>136</ele>
        <time>2011-04-15T11:05:01Z</time>
      </trkpt>
      <trkpt lat="48.48183" lon="2.1004">
        <ele>136</ele>
        <time>2011-04-15T11:05:02Z</time>
      </trkpt>
      <trkpt lat="48.4818" lon="2.10034">
        <ele>136</ele>
        <time>2011-04-15T11:05:03Z</time>
      </trkpt>
      <trkpt lat="48.48177" lon="2.10027">
        <ele>136</ele>
        <time>2011-04-15T11:05:04Z</time>
      </trkpt>
      <trkpt lat="48.48173" lon="2.10022">
        <ele>137</ele>
        <time>2011-04-15T11:05:05Z</time>
      </trkpt>
      <trkpt lat="48.4817" lon="2.10016">
        <ele>137</ele>
        <time>2011-04-15T11:05:06Z</time>
      </trkpt>
      <trkpt lat="48.48167" lon="2.1001">
        <ele>137</ele>
        <time>2011-04-15T11:05:07Z</time>
      </trkpt>
      <trkpt lat="48.48163" lon="2.10004">
        <ele>137</ele>
        <time>2011-04-15T11:05:08Z</time>
      </trkpt>
      <trkpt lat="48.4816" lon="2.09998">
        <ele>137</ele>
        <time>2011-04-15T11:05:09Z</time>
      </trkpt>
      <trkpt lat="48.48157" lon="2.09992">
        <ele>137</ele>
        <time>2011-04-15T11:05:10Z</time>
      </trkpt>
      <trkpt lat="48.48154" lon="2.09986">
        <ele>137</ele>
        <time>2011-04-15T11:05:11Z</time>
      </trkpt>
      <trkpt lat="48.48152" lon="2.09981">
        <ele>137</ele>
        <time>2011-04-15T11:05:12Z</time>
      </trkpt>
      <trkpt lat="48.48148" lon="2.09975">
        <ele>137</ele>
        <time>2011-04-15T11:05:13Z</time>
      </trkpt>
      <trkpt lat="48.48145" lon="2.09969">
        <ele>137</ele>
        <time>2011-04-15T11:05:14Z</time>
      </trkpt>
      <trkpt lat="48.48142" lon="2.09962">
        <ele>137</ele>
        <time>2011-04-15T11:05:15Z</time>
      </trkpt>
      <trkpt lat="48.48139" lon="2.09956">
        <ele>137</ele>
        <time>2011-04-15T11:05:16Z</time>
      </trkpt>
      <trkpt lat="48.48135" lon="2.0995">
        <ele>137</ele>
        <time>2011-04-15T11:05:17Z</time>
      </trkpt>
      <trkpt lat="48.48132" lon="2.09944">
        <ele>137</ele>
        <time>2011-04-15T11:05:18Z</time>
      </trkpt>
      <trkpt lat="48.48129" lon="2.09938">
        <ele>137</ele>
        <time>2011-04-15T11:05:19Z</time>
      </trkpt>
      <trkpt lat="48.48126" lon="2.09932">
        <ele>137</ele>
        <time>2011-04-15T11:05:20Z</time>
      </trkpt>
      <trkpt lat="48.48123" lon="2.09926">
        <ele>137</ele>
        <time>2011-04-15T11:05:21Z</time>
      </trkpt>
      <trkpt lat="48.4812" lon="2.09919">
        <ele>137</ele>
        <time>2011-04-15T11:05:22Z</time>
      </trkpt>
      <trkpt lat="48.48117" lon="2.09913">
        <ele>138</ele>
        <time>2011-04-15T11:05:23Z</time>
      </trkpt>
      <trkpt lat="48.48113" lon="2.09906">
        <ele>138</ele>
        <time>2011-04-15T11:05:24Z</time>
      </trkpt>
      <trkpt lat="48.4811" lon="2.09899">
        <ele>138</ele>
        <time>2011-04-15T11:05:25Z</time>
      </trkpt>
      <trkpt lat="48.48106" lon="2.09892">
        <ele>138</ele>
        <time>2011-04-15T11:05:26Z</time>
      </trkpt>
      <trkpt lat="48.48103" lon="2.09885">
        <ele>138</ele>
        <time>2011-04-15T11:05:27Z</time>
      </trkpt>
      <trkpt lat="48.48099" lon="2.09879">
        <ele>138</ele>
        <time>2011-04-15T11:05:28Z</time>
      </trkpt>
      <trkpt lat="48.48096" lon="2.09872">
        <ele>138</ele>
        <time>2011-04-15T11:05:29Z</time>
      </trkpt>
      <trkpt lat="48.48092" lon="2.09864">
        <ele>138</ele>
        <time>2011-04-15T11:05:30Z</time>
      </trkpt>
      <trkpt lat="48.48088" lon="2.09858">
        <ele>138</ele>
        <time>2011-04-15T11:05:31Z</time>
      </trkpt>
      <trkpt lat="48.48085" lon="2.09851">
        <ele>138</ele>
        <time>2011-04-15T11:05:32Z</time>
      </trkpt>
      <trkpt lat="48.48082" lon="2.09844">
        <ele>138</ele>
        <time>2011-04-15T11:05:33Z</time>
      </trkpt>
      <trkpt lat="48.48079" lon="2.09838">
        <ele>138</ele>
        <time>2011-04-15T11:05:34Z</time>
      </trkpt>
      <trkpt lat="48.48076" lon="2.09832">
        <ele>138</ele>
        <time>2011-04-15T11:05:35Z</time>
      </trkpt>
      <trkpt lat="48.48073" lon="2.09826">
        <ele>138</ele>
        <time>2011-04-15T11:05:36Z</time>
      </trkpt>
      <trkpt lat="48.4807" lon="2.0982">
        <ele>138</ele>
        <time>2011-04-15T11:05:37Z</time>
      </trkpt>
      <trkpt lat="48.48067" lon="2.09815">
        <ele>138</ele>
        <time>2011-04-15T11:05:38Z</time>
      </trkpt>
      <trkpt lat="48.48064" lon="2.09809">
        <ele>138</ele>
        <time>2011-04-15T11:05:39Z</time>
      </trkpt>
      <trkpt lat="48.48061" lon="2.09803">
        <ele>138</ele>
        <time>2011-04-15T11:05:40Z</time>
      </trkpt>
      <trkpt lat="48.48058" lon="2.09797">
        <ele>138</ele>
        <time>2011-04-15T11:05:41Z</time>
      </trkpt>
      <trkpt lat="48.48055" lon="2.09791">
        <ele>138</ele>
        <time>2011-04-15T11:05:42Z</time>
      </trkpt>
      <trkpt lat="48.48052" lon="2.09785">
        <ele>138</ele>
        <time>2011-04-15T11:05:43Z</time>
      </trkpt>
      <trkpt lat="48.48049" lon="2.09779">
        <ele>138</ele>
        <time>2011-04-15T11:05:44Z</time>
      </trkpt>
      <trkpt lat="48.48045" lon="2.09772">
        <ele>138</ele>
        <time>2011-04-15T11:05:45Z</time>
      </trkpt>
      <trkpt lat="48.48042" lon="2.09765">
        <ele>138</ele>
        <time>2011-04-15T11:05:46Z</time>
      </trkpt>
      <trkpt lat="48.48039" lon="2.09759">
        <ele>138</ele>
        <time>2011-04-15T11:05:47Z</time>
      </trkpt>
      <trkpt lat="48.48036" lon="2.09752">
        <ele>138</ele>
        <time>2011-04-15T11:05:48Z</time>
      </trkpt>
      <trkpt lat="48.48033" lon="2.09746">
        <ele>138</ele>
        <time>2011-04-15T11:05:49Z</time>
      </trkpt>
      <trkpt lat="48.48029" lon="2.09739">
        <ele>138</ele>
        <time>2011-04-15T11:05:50Z</time>
      </trkpt>
      <trkpt lat="48.48026" lon="2.09733">
        <ele>138</ele>
        <time>2011-04-15T11:05:51Z</time>
      </trkpt>
      <trkpt lat="48.48023" lon="2.09726">
        <ele>138</ele>
        <time>2011-04-15T11:05:52Z</time>
      </trkpt>
      <trkpt lat="48.4802" lon="2.0972">
        <ele>138</ele>
        <time>2011-04-15T11:05:53Z</time>
      </trkpt>
      <trkpt lat="48.48017" lon="2.09714">
        <ele>138</ele>
        <time>2011-04-15T11:05:54Z</time>
      </trkpt>
      <trkpt lat="48.48014" lon="2.09708">
        <ele>138</ele>
        <time>2011-04-15T11:05:55Z</time>
      </trkpt>
      <trkpt lat="48.48012" lon="2.09703">
        <ele>138</ele>
        <time>2011-04-15T11:05:56Z</time>
      </trkpt>
      <trkpt lat="48.48009" lon="2.09697">
        <ele>138</ele>
        <time>2011-04-15T11:05:57Z</time>
      </trkpt>
      <trkpt lat="48.48007" lon="2.09692">
        <ele>138</ele>
        <time>2011-04-15T11:05:58Z</time>
      </trkpt>
      <trkpt lat="48.48005" lon="2.09688">
        <ele>138</ele>
        <time>2011-04-15T11:05:59Z</time>
      </trkpt>
      <trkpt lat="48.48003" lon="2.09684">
        <ele>138</ele>
        <time>2011-04-15T11:06:00Z</time>
      </trkpt>
      <trkpt lat="48.48002" lon="2.0968">
        <ele>138</ele>
        <time>2011-04-15T11:06:01Z</time>
      </trkpt>
      <trkpt lat="48.48" lon="2.09675">
        <ele>138</ele>
        <time>2011-04-15T11:06:02Z</time>
      </trkpt>
      <trkpt lat="48.47999" lon="2.09671">
        <ele>138</ele>
        <time>2011-04-15T11:06:03Z</time>
      </trkpt>
      <trkpt lat="48.47997" lon="2.09666">
        <ele>138</ele>
        <time>2011-04-15T11:06:04Z</time>
      </trkpt>
      <trkpt lat="48.47995" lon="2.09661">
        <ele>138</ele>
        <time>2011-04-15T11:06:05Z</time>
      </trkpt>
      <trkpt lat="48.47993" lon="2.09656">
        <ele>138</ele>
        <time>2011-04-15T11:06:06Z</time>
      </trkpt>
      <trkpt lat="48.47991" lon="2.09651">
        <ele>138</ele>
        <time>2011-04-15T11:06:07Z</time>
      </trkpt>
      <trkpt lat="48.47988" lon="2.09645">
        <ele>138</ele>
        <time>2011-04-15T11:06:08Z</time>
      </trkpt>
      <trkpt lat="48.47986" lon="2.0964">
        <ele>138</ele>
        <time>2011-04-15T11:06:09Z</time>
      </trkpt>
      <trkpt lat="48.47984" lon="2.09635">
        <ele>138</ele>
        <time>2011-04-15T11:06:10Z</time>
      </trkpt>
      <trkpt lat="48.47982" lon="2.0963">
        <ele>138</ele>
        <time>2011-04-15T11:06:11Z</time>
      </trkpt>
      <trkpt lat="48.4798" lon="2.09624">
        <ele>138</ele>
        <time>2011-04-15T11:06:12Z</time>
      </trkpt>
      <trkpt lat="48.47978" lon="2.09619">
        <ele>138</ele>
        <time>2011-04-15T11:06:13Z</time>
      </trkpt>
      <trkpt lat="48.47976" lon="2.09614">
        <ele>138</ele>
        <time>2011-04-15T11:06:14Z</time>
      </trkpt>
      <trkpt lat="48.47974" lon="2.09608">
        <ele>138</ele>
        <time>2011-04-15T11:06:15Z</time>
      </trkpt>
      <trkpt lat="48.47972" lon="2.09603">
        <ele>138</ele>
        <time>2011-04-15T11:06:16Z</time>
      </trkpt>
      <trkpt lat="48.4797" lon="2.09597">
        <ele>138</ele>
        <time>2011-04-15T11:06:17Z</time>
      </trkpt>
      <trkpt lat="48.47968" lon="2.09592">
        <ele>138</ele>
        <time>2011-04-15T11:06:18Z</time>
      </trkpt>
      <trkpt lat="48.47966" lon="2.09587">
        <ele>138</ele>
        <time>2011-04-15T11:06:19Z</time>
      </trkpt>
      <trkpt lat="48.47965" lon="2.09583">
        <ele>138</ele>
        <time>2011-04-15T11:06:20Z</time>
      </trkpt>
      <trkpt lat="48.47964" lon="2.09579">
        <ele>138</ele>
        <time>2011-04-15T11:06:21Z</time>
      </trkpt>
      <trkpt lat="48.47963" lon="2.09575">
        <ele>138</ele>
        <time>2011-04-15T11:06:22Z</time>
      </trkpt>
      <trkpt lat="48.47962" lon="2.09572">
        <ele>138</ele>
        <time>2011-04-15T11:06:23Z</time>
      </trkpt>
      <trkpt lat="48.47961" lon="2.0957">
        <ele>138</ele>
        <time>2011-04-15T11:06:24Z</time>
      </trkpt>
      <trkpt lat="48.47961" lon="2.09568">
        <ele>138</ele>
        <time>2011-04-15T11:06:25Z</time>
      </trkpt>
      <trkpt lat="48.4796" lon="2.09567">
        <ele>138</ele>
        <time>2011-04-15T11:06:26Z</time>
      </trkpt>
      <trkpt lat="48.47959" lon="2.09565">
        <ele>138</ele>
        <time>2011-04-15T11:06:27Z</time>
      </trkpt>
      <trkpt lat="48.47959" lon="2.09563">
        <ele>138</ele>
        <time>2011-04-15T11:06:28Z</time>
      </trkpt>
      <trkpt lat="48.47958" lon="2.09561">
        <ele>138</ele>
        <time>2011-04-15T11:06:29Z</time>
      </trkpt>
      <trkpt lat="48.47957" lon="2.0956">
        <ele>138</ele>
        <time>2011-04-15T11:06:30Z</time>
      </trkpt>
      <trkpt lat="48.47957" lon="2.09558">
        <ele>138</ele>
        <time>2011-04-15T11:06:31Z</time>
      </trkpt>
      <trkpt lat="48.47956" lon="2.09556">
        <ele>138</ele>
        <time>2011-04-15T11:06:32Z</time>
      </trkpt>
      <trkpt lat="48.47956" lon="2.09553">
        <ele>138</ele>
        <time>2011-04-15T11:06:33Z</time>
      </trkpt>
      <trkpt lat="48.47955" lon="2.09551">
        <ele>138</ele>
        <time>2011-04-15T11:06:34Z</time>
      </trkpt>
      <trkpt lat="48.47955" lon="2.09549">
        <ele>138</ele>
        <time>2011-04-15T11:06:35Z</time>
      </trkpt>
      <trkpt lat="48.47954" lon="2.09546">
        <ele>138</ele>
        <time>2011-04-15T11:06:36Z</time>
      </trkpt>
      <trkpt lat="48.47953" lon="2.09544">
        <ele>138</ele>
        <time>2011-04-15T11:06:37Z</time>
      </trkpt>
      <trkpt lat="48.47953" lon="2.09542">
        <ele>138</ele>
        <time>2011-04-15T11:06:38Z</time>
      </trkpt>
      <trkpt lat="48.47952" lon="2.0954">
        <ele>138</ele>
        <time>2011-04-15T11:06:39Z</time>
      </trkpt>
      <trkpt lat="48.47951" lon="2.09537">
        <ele>138</ele>
        <time>2011-04-15T11:06:40Z</time>
      </trkpt>
      <trkpt lat="48.47951" lon="2.09535">
        <ele>138</ele>
        <time>2011-04-15T11:06:41Z</time>
      </trkpt>
      <trkpt lat="48.4795" lon="2.09533">
        <ele>138</ele>
        <time>2011-04-15T11:06:42Z</time>
      </trkpt>
      <trkpt lat="48.47949" lon="2.09531">
        <ele>138</ele>
        <time>2011-04-15T11:06:43Z</time>
      </trkpt>
      <trkpt lat="48.47948" lon="2.09529">
        <ele>138</ele>
        <time>2011-04-15T11:06:44Z</time>
      </trkpt>
      <trkpt lat="48.47948" lon="2.09527">
        <ele>138</ele>
        <time>2011-04-15T11:06:45Z</time>
      </trkpt>
      <trkpt lat="48.47947" lon="2.09525">
        <ele>138</ele>
        <time>2011-04-15T11:06:46Z</time>
      </trkpt>
      <trkpt lat="48.47946" lon="2.09522">
        <ele>138</ele>
        <time>2011-04-15T11:06:47Z</time>
      </trkpt>
      <trkpt lat="48.47945" lon="2.0952">
        <ele>138</ele>
        <time>2011-04-15T11:06:48Z</time>
      </trkpt>
      <trkpt lat="48.47945" lon="2.09518">
        <ele>138</ele>
        <time>2011-04-15T11:06:49Z</time>
      </trkpt>
      <trkpt lat="48.47944" lon="2.09516">
        <ele>138</ele>
        <time>2011-04-15T11:06:50Z</time>
      </trkpt>
      <trkpt lat="48.47943" lon="2.09513">
        <ele>138</ele>
        <time>2011-04-15T11:06:51Z</time>
      </trkpt>
      <trkpt lat="48.47942" lon="2.09511">
        <ele>138</ele>
        <time>2011-04-15T11:06:52Z</time>
      </trkpt>
      <trkpt lat="48.47941" lon="2.09509">
        <ele>138</ele>
        <time>2011-04-15T11:06:53Z</time>
      </trkpt>
      <trkpt lat="48.47941" lon="2.09507">
        <ele>138</ele>
        <time>2011-04-15T11:06:54Z</time>
      </trkpt>
      <trkpt lat="48.4794" lon="2.09504">
        <ele>138</ele>
        <time>2011-04-15T11:06:55Z</time>
      </trkpt>
      <trkpt lat="48.47939" lon="2.09502">
        <ele>138</ele>
        <time>2011-04-15T11:06:56Z</time>
      </trkpt>
      <trkpt lat="48.47938" lon="2.095">
        <ele>138</ele>
        <time>2011-04-15T11:06:57Z</time>
      </trkpt>
      <trkpt lat="48.47938" lon="2.09498">
        <ele>138</ele>
        <time>2011-04-15T11:06:58Z</time>
      </trkpt>
      <trkpt lat="48.47937" lon="2.09495">
        <ele>138</ele>
        <time>2011-04-15T11:06:59Z</time>
      </trkpt>
      <trkpt lat="48.47936" lon="2.09493">
        <ele>138</ele>
        <time>2011-04-15T11:07:00Z</time>
      </trkpt>
      <trkpt lat="48.47935" lon="2.09491">
        <ele>138</ele>
        <time>2011-04-15T11:07:01Z</time>
      </trkpt>
      <trkpt lat="48.47934" lon="2.09489">
        <ele>138</ele>
        <time>2011-04-15T11:07:02Z</time>
      </trkpt>
      <trkpt lat="48.47934" lon="2.09487">
        <ele>138</ele>
        <time>2011-04-15T11:07:03Z</time>
      </trkpt>
      <trkpt lat="48.47933" lon="2.09485">
        <ele>138</ele>
        <time>2011-04-15T11:07:04Z</time>
      </trkpt>
      <trkpt lat="48.47932" lon="2.09482">
        <ele>138</ele>
        <time>2011-04-15T11:07:05Z</time>
      </trkpt>
      <trkpt lat="48.47932" lon="2.0948">
        <ele>138</ele>
        <time>2011-04-15T11:07:06Z</time>
      </trkpt>
      <trkpt lat="48.47931" lon="2.09478">
        <ele>138</ele>
        <time>2011-04-15T11:07:07Z</time>
      </trkpt>
      <trkpt lat="48.4793" lon="2.09477">
        <ele>138</ele>
        <time>2011-04-15T11:07:08Z</time>
      </trkpt>
      <trkpt lat="48.47929" lon="2.09474">
        <ele>138</ele>
        <time>2011-04-15T11:07:10Z</time>
      </trkpt>
      <trkpt lat="48.47927" lon="2.09474">
        <ele>138</ele>
        <time>2011-04-15T11:07:12Z</time>
      </trkpt>
      <trkpt lat="48.47925" lon="2.09474">
        <ele>138</ele>
        <time>2011-04-15T11:07:13Z</time>
      </trkpt>
      <trkpt lat="48.47924" lon="2.09475">
        <ele>138</ele>
        <time>2011-04-15T11:07:14Z</time>
      </trkpt>
      <trkpt lat="48.47922" lon="2.09477">
        <ele>138</ele>
        <time>2011-04-15T11:07:15Z</time>
      </trkpt>
      <trkpt lat="48.4792" lon="2.09479">
        <ele>138</ele>
        <time>2011-04-15T11:07:16Z</time>
      </trkpt>
      <trkpt lat="48.47919" lon="2.0948">
        <ele>138</ele>
        <time>2011-04-15T11:07:17Z</time>
      </trkpt>
      <trkpt lat="48.47917" lon="2.09481">
        <ele>138</ele>
        <time>2011-04-15T11:07:18Z</time>
      </trkpt>
      <trkpt lat="48.47916" lon="2.09482">
        <ele>138</ele>
        <time>2011-04-15T11:07:19Z</time>
      </trkpt>
      <trkpt lat="48.47914" lon="2.09483">
        <ele>138</ele>
        <time>2011-04-15T11:07:20Z</time>
      </trkpt>
      <trkpt lat="48.47913" lon="2.09484">
        <ele>138</ele>
        <time>2011-04-15T11:07:21Z</time>
      </trkpt>
      <trkpt lat="48.47912" lon="2.09485">
        <ele>138</ele>
        <time>2011-04-15T11:07:22Z</time>
      </trkpt>
      <trkpt lat="48.4791" lon="2.09486">
        <ele>138</ele>
        <time>2011-04-15T11:07:23Z</time>
      </trkpt>
      <trkpt lat="48.47908" lon="2.09487">
        <ele>138</ele>
        <time>2011-04-15T11:07:24Z</time>
      </trkpt>
      <trkpt lat="48.47906" lon="2.09488">
        <ele>138</ele>
        <time>2011-04-15T11:07:25Z</time>
      </trkpt>
      <trkpt lat="48.47905" lon="2.09489">
        <ele>138</ele>
        <time>2011-04-15T11:07:26Z</time>
      </trkpt>
      <trkpt lat="48.47903" lon="2.0949">
        <ele>138</ele>
        <time>2011-04-15T11:07:27Z</time>
      </trkpt>
      <trkpt lat="48.47901" lon="2.09491">
        <ele>138</ele>
        <time>2011-04-15T11:07:28Z</time>
      </trkpt>
      <trkpt lat="48.479" lon="2.09492">
        <ele>138</ele>
        <time>2011-04-15T11:07:29Z</time>
      </trkpt>
      <trkpt lat="48.47898" lon="2.09493">
        <ele>138</ele>
        <time>2011-04-15T11:07:30Z</time>
      </trkpt>
      <trkpt lat="48.47897" lon="2.09494">
        <ele>138</ele>
        <time>2011-04-15T11:07:31Z</time>
      </trkpt>
      <trkpt lat="48.47896" lon="2.09495">
        <ele>138</ele>
        <time>2011-04-15T11:07:32Z</time>
      </trkpt>
      <trkpt lat="48.47894" lon="2.09497">
        <ele>138</ele>
        <time>2011-04-15T11:07:33Z</time>
      </trkpt>
      <trkpt lat="48.47893" lon="2.09498">
        <ele>138</ele>
        <time>2011-04-15T11:07:34Z</time>
      </trkpt>
      <trkpt lat="48.47891" lon="2.09499">
        <ele>138</ele>
        <time>2011-04-15T11:07:35Z</time>
      </trkpt>
      <trkpt lat="48.4789" lon="2.09499">
        <ele>138</ele>
        <time>2011-04-15T11:07:36Z</time>
      </trkpt>
      <trkpt lat="48.47889" lon="2.095">
        <ele>138</ele>
        <time>2011-04-15T11:07:37Z</time>
      </trkpt>
      <trkpt lat="48.47887" lon="2.09501">
        <ele>138</ele>
        <time>2011-04-15T11:07:38Z</time>
      </trkpt>
      <trkpt lat="48.47886" lon="2.09502">
        <ele>138</ele>
        <time>2011-04-15T11:07:39Z</time>
      </trkpt>
      <trkpt lat="48.47885" lon="2.09503">
        <ele>138</ele>
        <time>2011-04-15T11:07:40Z</time>
      </trkpt>
      <trkpt lat="48.47883" lon="2.09504">
        <ele>138</ele>
        <time>2011-04-15T11:07:41Z</time>
      </trkpt>
      <trkpt lat="48.47882" lon="2.09505">
        <ele>138</ele>
        <time>2011-04-15T11:07:42Z</time>
      </trkpt>
      <trkpt lat="48.4788" lon="2.09506">
        <ele>138</ele>
        <time>2011-04-15T11:07:43Z</time>
      </trkpt>
      <trkpt lat="48.47879" lon="2.09507">
        <ele>138</ele>
        <time>2011-04-15T11:07:44Z</time>
      </trkpt>
      <trkpt lat="48.47878" lon="2.09508">
        <ele>138</ele>
        <time>2011-04-15T11:07:45Z</time>
      </trkpt>
      <trkpt lat="48.47877" lon="2.09508">
        <ele>138</ele>
        <time>2011-04-15T11:07:46Z</time>
      </trkpt>
      <trkpt lat="48.47875" lon="2.09509">
        <ele>138</ele>
        <time>2011-04-15T11:07:47Z</time>
      </trkpt>
      <trkpt lat="48.47874" lon="2.0951">
        <ele>138</ele>
        <time>2011-04-15T11:07:48Z</time>
      </trkpt>
      <trkpt lat="48.47873" lon="2.09511">
        <ele>138</ele>
        <time>2011-04-15T11:07:49Z</time>
      </trkpt>
      <trkpt lat="48.47871" lon="2.09512">
        <ele>138</ele>
        <time>2011-04-15T11:07:50Z</time>
      </trkpt>
      <trkpt lat="48.4787" lon="2.09514">
        <ele>138</ele>
        <time>2011-04-15T11:07:51Z</time>
      </trkpt>
      <trkpt lat="48.47869" lon="2.09515">
        <ele>138</ele>
        <time>2011-04-15T11:07:52Z</time>
      </trkpt>
      <trkpt lat="48.47866" lon="2.09517">
        <ele>138</ele>
        <time>2011-04-15T11:07:54Z</time>
      </trkpt>
      <trkpt lat="48.47865" lon="2.09518">
        <ele>138</ele>
        <time>2011-04-15T11:07:55Z</time>
      </trkpt>
      <trkpt lat="48.47864" lon="2.09518">
        <ele>138</ele>
        <time>2011-04-15T11:07:56Z</time>
      </trkpt>
      <trkpt lat="48.47862" lon="2.09519">
        <ele>138</ele>
        <time>2011-04-15T11:07:57Z</time>
      </trkpt>
      <trkpt lat="48.47861" lon="2.0952">
        <ele>138</ele>
        <time>2011-04-15T11:07:58Z</time>
      </trkpt>
      <trkpt lat="48.47859" lon="2.0952">
        <ele>138</ele>
        <time>2011-04-15T11:07:59Z</time>
      </trkpt>
      <trkpt lat="48.47858" lon="2.09521">
        <ele>138</ele>
        <time>2011-04-15T11:08:00Z</time>
      </trkpt>
      <trkpt lat="48.47857" lon="2.09522">
        <ele>138</ele>
        <time>2011-04-15T11:08:01Z</time>
      </trkpt>
      <trkpt lat="48.47855" lon="2.09524">
        <ele>138</ele>
        <time>2011-04-15T11:08:02Z</time>
      </trkpt>
      <trkpt lat="48.47854" lon="2.09525">
        <ele>138</ele>
        <time>2011-04-15T11:08:03Z</time>
      </trkpt>
      <trkpt lat="48.47853" lon="2.09526">
        <ele>138</ele>
        <time>2011-04-15T11:08:04Z</time>
      </trkpt>
      <trkpt lat="48.47851" lon="2.09526">
        <ele>138</ele>
        <time>2011-04-15T11:08:05Z</time>
      </trkpt>
      <trkpt lat="48.4785" lon="2.09527">
        <ele>138</ele>
        <time>2011-04-15T11:08:06Z</time>
      </trkpt>
      <trkpt lat="48.47848" lon="2.09528">
        <ele>138</ele>
        <time>2011-04-15T11:08:07Z</time>
      </trkpt>
      <trkpt lat="48.47847" lon="2.09529">
        <ele>138</ele>
        <time>2011-04-15T11:08:08Z</time>
      </trkpt>
      <trkpt lat="48.47846" lon="2.0953">
        <ele>138</ele>
        <time>2011-04-15T11:08:09Z</time>
      </trkpt>
      <trkpt lat="48.47844" lon="2.0953">
        <ele>138</ele>
        <time>2011-04-15T11:08:10Z</time>
      </trkpt>
      <trkpt lat="48.47843" lon="2.09531">
        <ele>138</ele>
        <time>2011-04-15T11:08:11Z</time>
      </trkpt>
      <trkpt lat="48.47841" lon="2.09532">
        <ele>138</ele>
        <time>2011-04-15T11:08:12Z</time>
      </trkpt>
      <trkpt lat="48.4784" lon="2.09533">
        <ele>138</ele>
        <time>2011-04-15T11:08:13Z</time>
      </trkpt>
      <trkpt lat="48.47838" lon="2.09534">
        <ele>138</ele>
        <time>2011-04-15T11:08:14Z</time>
      </trkpt>
      <trkpt lat="48.47837" lon="2.09535">
        <ele>138</ele>
        <time>2011-04-15T11:08:15Z</time>
      </trkpt>
      <trkpt lat="48.47836" lon="2.09536">
        <ele>138</ele>
        <time>2011-04-15T11:08:16Z</time>
      </trkpt>
      <trkpt lat="48.47834" lon="2.09536">
        <ele>138</ele>
        <time>2011-04-15T11:08:17Z</time>
      </trkpt>
      <trkpt lat="48.47833" lon="2.09537">
        <ele>138</ele>
        <time>2011-04-15T11:08:18Z</time>
      </trkpt>
      <trkpt lat="48.47832" lon="2.09538">
        <ele>138</ele>
        <time>2011-04-15T11:08:19Z</time>
      </trkpt>
      <trkpt lat="48.4783" lon="2.09539">
        <ele>139</ele>
        <time>2011-04-15T11:08:20Z</time>
      </trkpt>
      <trkpt lat="48.47829" lon="2.0954">
        <ele>139</ele>
        <time>2011-04-15T11:08:21Z</time>
      </trkpt>
      <trkpt lat="48.47828" lon="2.09541">
        <ele>139</ele>
        <time>2011-04-15T11:08:22Z</time>
      </trkpt>
      <trkpt lat="48.47826" lon="2.09541">
        <ele>139</ele>
        <time>2011-04-15T11:08:23Z</time>
      </trkpt>
      <trkpt lat="48.47825" lon="2.09542">
        <ele>139</ele>
        <time>2011-04-15T11:08:24Z</time>
      </trkpt>
      <trkpt lat="48.47824" lon="2.09543">
        <ele>139</ele>
        <time>2011-04-15T11:08:25Z</time>
      </trkpt>
      <trkpt lat="48.47822" lon="2.09544">
        <ele>139</ele>
        <time>2011-04-15T11:08:26Z</time>
      </trkpt>
      <trkpt lat="48.47821" lon="2.09545">
        <ele>139</ele>
        <time>2011-04-15T11:08:27Z</time>
      </trkpt>
      <trkpt lat="48.4782" lon="2.09546">
        <ele>139</ele>
        <time>2011-04-15T11:08:28Z</time>
      </trkpt>
      <trkpt lat="48.47818" lon="2.09547">
        <ele>139</ele>
        <time>2011-04-15T11:08:29Z</time>
      </trkpt>
      <trkpt lat="48.47817" lon="2.09548">
        <ele>139</ele>
        <time>2011-04-15T11:08:30Z</time>
      </trkpt>
      <trkpt lat="48.47816" lon="2.09549">
        <ele>139</ele>
        <time>2011-04-15T11:08:31Z</time>
      </trkpt>
      <trkpt lat="48.47814" lon="2.0955">
        <ele>139</ele>
        <time>2011-04-15T11:08:32Z</time>
      </trkpt>
      <trkpt lat="48.47813" lon="2.09551">
        <ele>139</ele>
        <time>2011-04-15T11:08:33Z</time>
      </trkpt>
      <trkpt lat="48.47812" lon="2.09552">
        <ele>139</ele>
        <time>2011-04-15T11:08:34Z</time>
      </trkpt>
      <trkpt lat="48.4781" lon="2.09553">
        <ele>140</ele>
        <time>2011-04-15T11:08:35Z</time>
      </trkpt>
      <trkpt lat="48.47809" lon="2.09554">
        <ele>140</ele>
        <time>2011-04-15T11:08:36Z</time>
      </trkpt>
      <trkpt lat="48.47808" lon="2.09554">
        <ele>140</ele>
        <time>2011-04-15T11:08:37Z</time>
      </trkpt>
      <trkpt lat="48.47806" lon="2.09556">
        <ele>140</ele>
        <time>2011-04-15T11:08:38Z</time>
      </trkpt>
      <trkpt lat="48.47805" lon="2.09557">
        <ele>140</ele>
        <time>2011-04-15T11:08:39Z</time>
      </trkpt>
      <trkpt lat="48.47803" lon="2.09558">
        <ele>140</ele>
        <time>2011-04-15T11:08:40Z</time>
      </trkpt>
      <trkpt lat="48.47802" lon="2.09559">
        <ele>140</ele>
        <time>2011-04-15T11:08:41Z</time>
      </trkpt>
      <trkpt lat="48.47799" lon="2.09562">
        <ele>140</ele>
        <time>2011-04-15T11:08:43Z</time>
      </trkpt>
      <trkpt lat="48.47797" lon="2.09564">
        <ele>140</ele>
        <time>2011-04-15T11:08:44Z</time>
      </trkpt>
      <trkpt lat="48.47796" lon="2.09566">
        <ele>140</ele>
        <time>2011-04-15T11:08:45Z</time>
      </trkpt>
      <trkpt lat="48.47794" lon="2.09569">
        <ele>140</ele>
        <time>2011-04-15T11:08:46Z</time>
      </trkpt>
      <trkpt lat="48.47792" lon="2.0957">
        <ele>140</ele>
        <time>2011-04-15T11:08:47Z</time>
      </trkpt>
      <trkpt lat="48.4779" lon="2.0957">
        <ele>140</ele>
        <time>2011-04-15T11:08:48Z</time>
      </trkpt>
      <trkpt lat="48.47789" lon="2.09572">
        <ele>140</ele>
        <time>2011-04-15T11:08:49Z</time>
      </trkpt>
      <trkpt lat="48.47787" lon="2.09573">
        <ele>140</ele>
        <time>2011-04-15T11:08:50Z</time>
      </trkpt>
      <trkpt lat="48.47785" lon="2.09575">
        <ele>140</ele>
        <time>2011-04-15T11:08:51Z</time>
      </trkpt>
      <trkpt lat="48.47783" lon="2.09576">
        <ele>140</ele>
        <time>2011-04-15T11:08:52Z</time>
      </trkpt>
      <trkpt lat="48.47781" lon="2.09577">
        <ele>140</ele>
        <time>2011-04-15T11:08:53Z</time>
      </trkpt>
      <trkpt lat="48.4778" lon="2.09579">
        <ele>140</ele>
        <time>2011-04-15T11:08:54Z</time>
      </trkpt>
      <trkpt lat="48.47778" lon="2.0958">
        <ele>140</ele>
        <time>2011-04-15T11:08:55Z</time>
      </trkpt>
      <trkpt lat="48.47777" lon="2.09581">
        <ele>140</ele>
        <time>2011-04-15T11:08:56Z</time>
      </trkpt>
      <trkpt lat="48.47775" lon="2.09583">
        <ele>140</ele>
        <time>2011-04-15T11:08:57Z</time>
      </trkpt>
      <trkpt lat="48.47772" lon="2.09584">
        <ele>140</ele>
        <time>2011-04-15T11:08:58Z</time>
      </trkpt>
      <trkpt lat="48.47769" lon="2.09587">
        <ele>140</ele>
        <time>2011-04-15T11:08:59Z</time>
      </trkpt>
      <trkpt lat="48.47766" lon="2.0959">
        <ele>140</ele>
        <time>2011-04-15T11:09:00Z</time>
      </trkpt>
      <trkpt lat="48.47763" lon="2.09592">
        <ele>140</ele>
        <time>2011-04-15T11:09:01Z</time>
      </trkpt>
      <trkpt lat="48.47759" lon="2.09596">
        <ele>140</ele>
        <time>2011-04-15T11:09:02Z</time>
      </trkpt>
      <trkpt lat="48.47756" lon="2.09599">
        <ele>140</ele>
        <time>2011-04-15T11:09:03Z</time>
      </trkpt>
      <trkpt lat="48.47752" lon="2.09602">
        <ele>140</ele>
        <time>2011-04-15T11:09:04Z</time>
      </trkpt>
      <trkpt lat="48.47748" lon="2.09606">
        <ele>140</ele>
        <time>2011-04-15T11:09:05Z</time>
      </trkpt>
      <trkpt lat="48.47745" lon="2.0961">
        <ele>140</ele>
        <time>2011-04-15T11:09:06Z</time>
      </trkpt>
      <trkpt lat="48.47741" lon="2.09614">
        <ele>140</ele>
        <time>2011-04-15T11:09:07Z</time>
      </trkpt>
      <trkpt lat="48.47737" lon="2.09618">
        <ele>140</ele>
        <time>2011-04-15T11:09:08Z</time>
      </trkpt>
      <trkpt lat="48.47733" lon="2.09622">
        <ele>140</ele>
        <time>2011-04-15T11:09:09Z</time>
      </trkpt>
      <trkpt lat="48.47729" lon="2.09627">
        <ele>140</ele>
        <time>2011-04-15T11:09:10Z</time>
      </trkpt>
      <trkpt lat="48.47725" lon="2.09632">
        <ele>140</ele>
        <time>2011-04-15T11:09:11Z</time>
      </trkpt>
      <trkpt lat="48.47722" lon="2.09637">
        <ele>140</ele>
        <time>2011-04-15T11:09:12Z</time>
      </trkpt>
      <trkpt lat="48.47718" lon="2.09642">
        <ele>140</ele>
        <time>2011-04-15T11:09:13Z</time>
      </trkpt>
      <trkpt lat="48.47714" lon="2.09647">
        <ele>140</ele>
        <time>2011-04-15T11:09:14Z</time>
      </trkpt>
      <trkpt lat="48.47709" lon="2.09653">
        <ele>140</ele>
        <time>2011-04-15T11:09:15Z</time>
      </trkpt>
      <trkpt lat="48.47705" lon="2.09659">
        <ele>140</ele>
        <time>2011-04-15T11:09:16Z</time>
      </trkpt>
      <trkpt lat="48.477" lon="2.09664">
        <ele>140</ele>
        <time>2011-04-15T11:09:17Z</time>
      </trkpt>
      <trkpt lat="48.47695" lon="2.0967">
        <ele>140</ele>
        <time>2011-04-15T11:09:18Z</time>
      </trkpt>
      <trkpt lat="48.4769" lon="2.09676">
        <ele>140</ele>
        <time>2011-04-15T11:09:19Z</time>
      </trkpt>
      <trkpt lat="48.47685" lon="2.09682">
        <ele>140</ele>
        <time>2011-04-15T11:09:20Z</time>
      </trkpt>
      <trkpt lat="48.47681" lon="2.09688">
        <ele>141</ele>
        <time>2011-04-15T11:09:21Z</time>
      </trkpt>
      <trkpt lat="48.47676" lon="2.09694">
        <ele>141</ele>
        <time>2011-04-15T11:09:22Z</time>
      </trkpt>
      <trkpt lat="48.47671" lon="2.097">
        <ele>141</ele>
        <time>2011-04-15T11:09:23Z</time>
      </trkpt>
      <trkpt lat="48.47667" lon="2.09706">
        <ele>141</ele>
        <time>2011-04-15T11:09:24Z</time>
      </trkpt>
      <trkpt lat="48.47661" lon="2.09712">
        <ele>141</ele>
        <time>2011-04-15T11:09:25Z</time>
      </trkpt>
      <trkpt lat="48.47656" lon="2.09718">
        <ele>141</ele>
        <time>2011-04-15T11:09:26Z</time>
      </trkpt>
      <trkpt lat="48.4765" lon="2.09724">
        <ele>142</ele>
        <time>2011-04-15T11:09:27Z</time>
      </trkpt>
      <trkpt lat="48.47644" lon="2.0973">
        <ele>142</ele>
        <time>2011-04-15T11:09:28Z</time>
      </trkpt>
      <trkpt lat="48.47639" lon="2.09736">
        <ele>142</ele>
        <time>2011-04-15T11:09:29Z</time>
      </trkpt>
      <trkpt lat="48.47633" lon="2.09741">
        <ele>142</ele>
        <time>2011-04-15T11:09:30Z</time>
      </trkpt>
      <trkpt lat="48.47626" lon="2.09747">
        <ele>142</ele>
        <time>2011-04-15T11:09:31Z</time>
      </trkpt>
      <trkpt lat="48.47619" lon="2.09754">
        <ele>142</ele>
        <time>2011-04-15T11:09:32Z</time>
      </trkpt>
      <trkpt lat="48.47611" lon="2.09762">
        <ele>142</ele>
        <time>2011-04-15T11:09:33Z</time>
      </trkpt>
      <trkpt lat="48.47602" lon="2.0977">
        <ele>142</ele>
        <time>2011-04-15T11:09:34Z</time>
      </trkpt>
      <trkpt lat="48.47594" lon="2.09778">
        <ele>142</ele>
        <time>2011-04-15T11:09:35Z</time>
      </trkpt>
      <trkpt lat="48.47586" lon="2.09785">
        <ele>142</ele>
        <time>2011-04-15T11:09:36Z</time>
      </trkpt>
      <trkpt lat="48.47577" lon="2.09793">
        <ele>142</ele>
        <time>2011-04-15T11:09:37Z</time>
      </trkpt>
      <trkpt lat="48.47569" lon="2.09801">
        <ele>142</ele>
        <time>2011-04-15T11:09:38Z</time>
      </trkpt>
      <trkpt lat="48.4756" lon="2.09809">
        <ele>142</ele>
        <time>2011-04-15T11:09:39Z</time>
      </trkpt>
      <trkpt lat="48.47552" lon="2.09818">
        <ele>142</ele>
        <time>2011-04-15T11:09:40Z</time>
      </trkpt>
      <trkpt lat="48.47543" lon="2.09826">
        <ele>142</ele>
        <time>2011-04-15T11:09:41Z</time>
      </trkpt>
      <trkpt lat="48.47534" lon="2.09835">
        <ele>142</ele>
        <time>2011-04-15T11:09:42Z</time>
      </trkpt>
      <trkpt lat="48.47526" lon="2.09843">
        <ele>142</ele>
        <time>2011-04-15T11:09:43Z</time>
      </trkpt>
      <trkpt lat="48.47516" lon="2.09851">
        <ele>142</ele>
        <time>2011-04-15T11:09:44Z</time>
      </trkpt>
      <trkpt lat="48.47507" lon="2.0986">
        <ele>142</ele>
        <time>2011-04-15T11:09:45Z</time>
      </trkpt>
      <trkpt lat="48.47498" lon="2.09868">
        <ele>142</ele>
        <time>2011-04-15T11:09:46Z</time>
      </trkpt>
      <trkpt lat="48.47489" lon="2.09876">
        <ele>142</ele>
        <time>2011-04-15T11:09:47Z</time>
      </trkpt>
      <trkpt lat="48.4748" lon="2.09884">
        <ele>142</ele>
        <time>2011-04-15T11:09:48Z</time>
      </trkpt>
      <trkpt lat="48.4747" lon="2.09892">
        <ele>142</ele>
        <time>2011-04-15T11:09:49Z</time>
      </trkpt>
      <trkpt lat="48.47461" lon="2.099">
        <ele>142</ele>
        <time>2011-04-15T11:09:50Z</time>
      </trkpt>
      <trkpt lat="48.47452" lon="2.09908">
        <ele>142</ele>
        <time>2011-04-15T11:09:51Z</time>
      </trkpt>
      <trkpt lat="48.47443" lon="2.09916">
        <ele>142</ele>
        <time>2011-04-15T11:09:52Z</time>
      </trkpt>
      <trkpt lat="48.47434" lon="2.09924">
        <ele>142</ele>
        <time>2011-04-15T11:09:53Z</time>
      </trkpt>
      <trkpt lat="48.47425" lon="2.09932">
        <ele>142</ele>
        <time>2011-04-15T11:09:54Z</time>
      </trkpt>
      <trkpt lat="48.47417" lon="2.09939">
        <ele>142</ele>
        <time>2011-04-15T11:09:55Z</time>
      </trkpt>
      <trkpt lat="48.47408" lon="2.09947">
        <ele>142</ele>
        <time>2011-04-15T11:09:56Z</time>
      </trkpt>
      <trkpt lat="48.47399" lon="2.09954">
        <ele>142</ele>
        <time>2011-04-15T11:09:57Z</time>
      </trkpt>
      <trkpt lat="48.4739" lon="2.09962">
        <ele>142</ele>
        <time>2011-04-15T11:09:58Z</time>
      </trkpt>
      <trkpt lat="48.47381" lon="2.0997">
        <ele>142</ele>
        <time>2011-04-15T11:09:59Z</time>
      </trkpt>
      <trkpt lat="48.47373" lon="2.09978">
        <ele>142</ele>
        <time>2011-04-15T11:10:00Z</time>
      </trkpt>
      <trkpt lat="48.47364" lon="2.09986">
        <ele>142</ele>
        <time>2011-04-15T11:10:01Z</time>
      </trkpt>
      <trkpt lat="48.47356" lon="2.09994">
        <ele>142</ele>
        <time>2011-04-15T11:10:02Z</time>
      </trkpt>
      <trkpt lat="48.47347" lon="2.10003">
        <ele>142</ele>
        <time>2011-04-15T11:10:03Z</time>
      </trkpt>
      <trkpt lat="48.47339" lon="2.10011">
        <ele>142</ele>
        <time>2011-04-15T11:10:04Z</time>
      </trkpt>
      <trkpt lat="48.4733" lon="2.10019">
        <ele>142</ele>
        <time>2011-04-15T11:10:05Z</time>
      </trkpt>
      <trkpt lat="48.47322" lon="2.10028">
        <ele>142</ele>
        <time>2011-04-15T11:10:06Z</time>
      </trkpt>
      <trkpt lat="48.47313" lon="2.10036">
        <ele>142</ele>
        <time>2011-04-15T11:10:07Z</time>
      </trkpt>
      <trkpt lat="48.47304" lon="2.10044">
        <ele>142</ele>
        <time>2011-04-15T11:10:08Z</time>
      </trkpt>
      <trkpt lat="48.47295" lon="2.10052">
        <ele>141</ele>
        <time>2011-04-15T11:10:09Z</time>
      </trkpt>
      <trkpt lat="48.47286" lon="2.10061">
        <ele>141</ele>
        <time>2011-04-15T11:10:10Z</time>
      </trkpt>
      <trkpt lat="48.47277" lon="2.10069">
        <ele>140</ele>
        <time>2011-04-15T11:10:11Z</time>
      </trkpt>
      <trkpt lat="48.47268" lon="2.10078">
        <ele>140</ele>
        <time>2011-04-15T11:10:12Z</time>
      </trkpt>
      <trkpt lat="48.47258" lon="2.10087">
        <ele>139</ele>
        <time>2011-04-15T11:10:13Z</time>
      </trkpt>
      <trkpt lat="48.47248" lon="2.10095">
        <ele>139</ele>
        <time>2011-04-15T11:10:14Z</time>
      </trkpt>
      <trkpt lat="48.47239" lon="2.10103">
        <ele>139</ele>
        <time>2011-04-15T11:10:15Z</time>
      </trkpt>
      <trkpt lat="48.4723" lon="2.10111">
        <ele>139</ele>
        <time>2011-04-15T11:10:16Z</time>
      </trkpt>
      <trkpt lat="48.47222" lon="2.10118">
        <ele>139</ele>
        <time>2011-04-15T11:10:17Z</time>
      </trkpt>
      <trkpt lat="48.47214" lon="2.10126">
        <ele>139</ele>
        <time>2011-04-15T11:10:18Z</time>
      </trkpt>
      <trkpt lat="48.47207" lon="2.10133">
        <ele>139</ele>
        <time>2011-04-15T11:10:19Z</time>
      </trkpt>
      <trkpt lat="48.472" lon="2.10141">
        <ele>139</ele>
        <time>2011-04-15T11:10:20Z</time>
      </trkpt>
      <trkpt lat="48.47193" lon="2.10149">
        <ele>139</ele>
        <time>2011-04-15T11:10:21Z</time>
      </trkpt>
      <trkpt lat="48.47186" lon="2.10156">
        <ele>139</ele>
        <time>2011-04-15T11:10:22Z</time>
      </trkpt>
      <trkpt lat="48.4718" lon="2.10163">
        <ele>139</ele>
        <time>2011-04-15T11:10:23Z</time>
      </trkpt>
      <trkpt lat="48.47175" lon="2.1017">
        <ele>139</ele>
        <time>2011-04-15T11:10:24Z</time>
      </trkpt>
      <trkpt lat="48.4717" lon="2.10176">
        <ele>139</ele>
        <time>2011-04-15T11:10:25Z</time>
      </trkpt>
      <trkpt lat="48.47165" lon="2.10182">
        <ele>139</ele>
        <time>2011-04-15T11:10:26Z</time>
      </trkpt>
      <trkpt lat="48.47161" lon="2.10187">
        <ele>139</ele>
        <time>2011-04-15T11:10:27Z</time>
      </trkpt>
      <trkpt lat="48.47157" lon="2.10191">
        <ele>139</ele>
        <time>2011-04-15T11:10:28Z</time>
      </trkpt>
      <trkpt lat="48.47152" lon="2.10194">
        <ele>139</ele>
        <time>2011-04-15T11:10:29Z</time>
      </trkpt>
      <trkpt lat="48.47148" lon="2.10197">
        <ele>139</ele>
        <time>2011-04-15T11:10:30Z</time>
      </trkpt>
      <trkpt lat="48.47143" lon="2.102">
        <ele>139</ele>
        <time>2011-04-15T11:10:31Z</time>
      </trkpt>
      <trkpt lat="48.47139" lon="2.10203">
        <ele>139</ele>
        <time>2011-04-15T11:10:32Z</time>
      </trkpt>
      <trkpt lat="48.47135" lon="2.10207">
        <ele>139</ele>
        <time>2011-04-15T11:10:33Z</time>
      </trkpt>
      <trkpt lat="48.47131" lon="2.10212">
        <ele>139</ele>
        <time>2011-04-15T11:10:34Z</time>
      </trkpt>
      <trkpt lat="48.47127" lon="2.10217">
        <ele>139</ele>
        <time>2011-04-15T11:10:35Z</time>
      </trkpt>
      <trkpt lat="48.47122" lon="2.10224">
        <ele>139</ele>
        <time>2011-04-15T11:10:36Z</time>
      </trkpt>
      <trkpt lat="48.47117" lon="2.10231">
        <ele>139</ele>
        <time>2011-04-15T11:10:37Z</time>
      </trkpt>
      <trkpt lat="48.47112" lon="2.10239">
        <ele>139</ele>
        <time>2011-04-15T11:10:38Z</time>
      </trkpt>
      <trkpt lat="48.47107" lon="2.10246">
        <ele>139</ele>
        <time>2011-04-15T11:10:39Z</time>
      </trkpt>
      <trkpt lat="48.47102" lon="2.10253">
        <ele>139</ele>
        <time>2011-04-15T11:10:40Z</time>
      </trkpt>
      <trkpt lat="48.47098" lon="2.10261">
        <ele>139</ele>
        <time>2011-04-15T11:10:41Z</time>
      </trkpt>
      <trkpt lat="48.47093" lon="2.10268">
        <ele>139</ele>
        <time>2011-04-15T11:10:42Z</time>
      </trkpt>
      <trkpt lat="48.47087" lon="2.10276">
        <ele>139</ele>
        <time>2011-04-15T11:10:43Z</time>
      </trkpt>
      <trkpt lat="48.47082" lon="2.10284">
        <ele>139</ele>
        <time>2011-04-15T11:10:44Z</time>
      </trkpt>
      <trkpt lat="48.47076" lon="2.10292">
        <ele>139</ele>
        <time>2011-04-15T11:10:45Z</time>
      </trkpt>
      <trkpt lat="48.47071" lon="2.10301">
        <ele>139</ele>
        <time>2011-04-15T11:10:46Z</time>
      </trkpt>
      <trkpt lat="48.47065" lon="2.1031">
        <ele>139</ele>
        <time>2011-04-15T11:10:47Z</time>
      </trkpt>
      <trkpt lat="48.47058" lon="2.10319">
        <ele>139</ele>
        <time>2011-04-15T11:10:48Z</time>
      </trkpt>
      <trkpt lat="48.47052" lon="2.10328">
        <ele>139</ele>
        <time>2011-04-15T11:10:49Z</time>
      </trkpt>
      <trkpt lat="48.47046" lon="2.10337">
        <ele>139</ele>
        <time>2011-04-15T11:10:50Z</time>
      </trkpt>
      <trkpt lat="48.47039" lon="2.10346">
        <ele>139</ele>
        <time>2011-04-15T11:10:51Z</time>
      </trkpt>
      <trkpt lat="48.47032" lon="2.10355">
        <ele>139</ele>
        <time>2011-04-15T11:10:52Z</time>
      </trkpt>
      <trkpt lat="48.47026" lon="2.10365">
        <ele>139</ele>
        <time>2011-04-15T11:10:53Z</time>
      </trkpt>
      <trkpt lat="48.4702" lon="2.10374">
        <ele>139</ele>
        <time>2011-04-15T11:10:54Z</time>
      </trkpt>
      <trkpt lat="48.47013" lon="2.10383">
        <ele>139</ele>
        <time>2011-04-15T11:10:55Z</time>
      </trkpt>
      <trkpt lat="48.47007" lon="2.10392">
        <ele>139</ele>
        <time>2011-04-15T11:10:56Z</time>
      </trkpt>
      <trkpt lat="48.47001" lon="2.10401">
        <ele>139</ele>
        <time>2011-04-15T11:10:57Z</time>
      </trkpt>
      <trkpt lat="48.46995" lon="2.10409">
        <ele>139</ele>
        <time>2011-04-15T11:10:58Z</time>
      </trkpt>
      <trkpt lat="48.46988" lon="2.10417">
        <ele>139</ele>
        <time>2011-04-15T11:10:59Z</time>
      </trkpt>
      <trkpt lat="48.46982" lon="2.10426">
        <ele>139</ele>
        <time>2011-04-15T11:11:00Z</time>
      </trkpt>
      <trkpt lat="48.46976" lon="2.10434">
        <ele>139</ele>
        <time>2011-04-15T11:11:01Z</time>
      </trkpt>
      <trkpt lat="48.4697" lon="2.10443">
        <ele>139</ele>
        <time>2011-04-15T11:11:02Z</time>
      </trkpt>
      <trkpt lat="48.46964" lon="2.10452">
        <ele>139</ele>
        <time>2011-04-15T11:11:03Z</time>
      </trkpt>
      <trkpt lat="48.46958" lon="2.10461">
        <ele>139</ele>
        <time>2011-04-15T11:11:04Z</time>
      </trkpt>
      <trkpt lat="48.46951" lon="2.10469">
        <ele>139</ele>
        <time>2011-04-15T11:11:05Z</time>
      </trkpt>
      <trkpt lat="48.46944" lon="2.10477">
        <ele>139</ele>
        <time>2011-04-15T11:11:06Z</time>
      </trkpt>
      <trkpt lat="48.46937" lon="2.10485">
        <ele>139</ele>
        <time>2011-04-15T11:11:07Z</time>
      </trkpt>
      <trkpt lat="48.4693" lon="2.10493">
        <ele>139</ele>
        <time>2011-04-15T11:11:08Z</time>
      </trkpt>
      <trkpt lat="48.46923" lon="2.10502">
        <ele>139</ele>
        <time>2011-04-15T11:11:09Z</time>
      </trkpt>
      <trkpt lat="48.46916" lon="2.1051">
        <ele>139</ele>
        <time>2011-04-15T11:11:10Z</time>
      </trkpt>
      <trkpt lat="48.46908" lon="2.10518">
        <ele>139</ele>
        <time>2011-04-15T11:11:11Z</time>
      </trkpt>
      <trkpt lat="48.469" lon="2.10527">
        <ele>139</ele>
        <time>2011-04-15T11:11:12Z</time>
      </trkpt>
      <trkpt lat="48.46893" lon="2.10535">
        <ele>139</ele>
        <time>2011-04-15T11:11:13Z</time>
      </trkpt>
      <trkpt lat="48.46885" lon="2.10543">
        <ele>139</ele>
        <time>2011-04-15T11:11:14Z</time>
      </trkpt>
      <trkpt lat="48.46877" lon="2.10551">
        <ele>139</ele>
        <time>2011-04-15T11:11:15Z</time>
      </trkpt>
      <trkpt lat="48.46869" lon="2.10559">
        <ele>139</ele>
        <time>2011-04-15T11:11:16Z</time>
      </trkpt>
      <trkpt lat="48.46861" lon="2.10568">
        <ele>139</ele>
        <time>2011-04-15T11:11:17Z</time>
      </trkpt>
      <trkpt lat="48.46853" lon="2.10577">
        <ele>139</ele>
        <time>2011-04-15T11:11:18Z</time>
      </trkpt>
      <trkpt lat="48.46845" lon="2.10585">
        <ele>139</ele>
        <time>2011-04-15T11:11:19Z</time>
      </trkpt>
      <trkpt lat="48.46837" lon="2.10594">
        <ele>139</ele>
        <time>2011-04-15T11:11:20Z</time>
      </trkpt>
      <trkpt lat="48.46829" lon="2.10603">
        <ele>139</ele>
        <time>2011-04-15T11:11:21Z</time>
      </trkpt>
      <trkpt lat="48.4682" lon="2.10612">
        <ele>139</ele>
        <time>2011-04-15T11:11:22Z</time>
      </trkpt>
      <trkpt lat="48.46812" lon="2.1062">
        <ele>139</ele>
        <time>2011-04-15T11:11:23Z</time>
      </trkpt>
      <trkpt lat="48.46804" lon="2.10629">
        <ele>139</ele>
        <time>2011-04-15T11:11:24Z</time>
      </trkpt>
      <trkpt lat="48.46796" lon="2.10638">
        <ele>139</ele>
        <time>2011-04-15T11:11:25Z</time>
      </trkpt>
      <trkpt lat="48.46788" lon="2.10647">
        <ele>139</ele>
        <time>2011-04-15T11:11:26Z</time>
      </trkpt>
      <trkpt lat="48.4678" lon="2.10656">
        <ele>139</ele>
        <time>2011-04-15T11:11:27Z</time>
      </trkpt>
      <trkpt lat="48.46772" lon="2.10665">
        <ele>139</ele>
        <time>2011-04-15T11:11:28Z</time>
      </trkpt>
      <trkpt lat="48.46764" lon="2.10674">
        <ele>139</ele>
        <time>2011-04-15T11:11:29Z</time>
      </trkpt>
      <trkpt lat="48.46757" lon="2.10683">
        <ele>139</ele>
        <time>2011-04-15T11:11:30Z</time>
      </trkpt>
      <trkpt lat="48.4675" lon="2.10692">
        <ele>139</ele>
        <time>2011-04-15T11:11:31Z</time>
      </trkpt>
      <trkpt lat="48.46743" lon="2.10701">
        <ele>139</ele>
        <time>2011-04-15T11:11:32Z</time>
      </trkpt>
      <trkpt lat="48.46736" lon="2.10711">
        <ele>139</ele>
        <time>2011-04-15T11:11:33Z</time>
      </trkpt>
      <trkpt lat="48.46729" lon="2.10721">
        <ele>139</ele>
        <time>2011-04-15T11:11:34Z</time>
      </trkpt>
      <trkpt lat="48.46723" lon="2.1073">
        <ele>139</ele>
        <time>2011-04-15T11:11:35Z</time>
      </trkpt>
      <trkpt lat="48.46716" lon="2.1074">
        <ele>139</ele>
        <time>2011-04-15T11:11:36Z</time>
      </trkpt>
      <trkpt lat="48.4671" lon="2.10749">
        <ele>139</ele>
        <time>2011-04-15T11:11:37Z</time>
      </trkpt>
      <trkpt lat="48.46703" lon="2.10758">
        <ele>139</ele>
        <time>2011-04-15T11:11:38Z</time>
      </trkpt>
      <trkpt lat="48.46697" lon="2.10767">
        <ele>139</ele>
        <time>2011-04-15T11:11:39Z</time>
      </trkpt>
      <trkpt lat="48.4669" lon="2.10776">
        <ele>139</ele>
        <time>2011-04-15T11:11:40Z</time>
      </trkpt>
      <trkpt lat="48.46684" lon="2.10784">
        <ele>139</ele>
        <time>2011-04-15T11:11:41Z</time>
      </trkpt>
      <trkpt lat="48.46679" lon="2.10793">
        <ele>139</ele>
        <time>2011-04-15T11:11:42Z</time>
      </trkpt>
      <trkpt lat="48.46673" lon="2.10801">
        <ele>139</ele>
        <time>2011-04-15T11:11:43Z</time>
      </trkpt>
      <trkpt lat="48.46667" lon="2.10809">
        <ele>139</ele>
        <time>2011-04-15T11:11:44Z</time>
      </trkpt>
      <trkpt lat="48.46661" lon="2.10817">
        <ele>139</ele>
        <time>2011-04-15T11:11:45Z</time>
      </trkpt>
      <trkpt lat="48.46655" lon="2.10825">
        <ele>139</ele>
        <time>2011-04-15T11:11:46Z</time>
      </trkpt>
      <trkpt lat="48.46649" lon="2.10833">
        <ele>139</ele>
        <time>2011-04-15T11:11:47Z</time>
      </trkpt>
      <trkpt lat="48.46642" lon="2.10842">
        <ele>139</ele>
        <time>2011-04-15T11:11:48Z</time>
      </trkpt>
      <trkpt lat="48.46636" lon="2.1085">
        <ele>139</ele>
        <time>2011-04-15T11:11:49Z</time>
      </trkpt>
      <trkpt lat="48.4663" lon="2.10858">
        <ele>139</ele>
        <time>2011-04-15T11:11:50Z</time>
      </trkpt>
      <trkpt lat="48.46623" lon="2.10867">
        <ele>139</ele>
        <time>2011-04-15T11:11:51Z</time>
      </trkpt>
      <trkpt lat="48.46617" lon="2.10875">
        <ele>139</ele>
        <time>2011-04-15T11:11:52Z</time>
      </trkpt>
      <trkpt lat="48.4661" lon="2.10883">
        <ele>139</ele>
        <time>2011-04-15T11:11:53Z</time>
      </trkpt>
      <trkpt lat="48.46604" lon="2.10892">
        <ele>139</ele>
        <time>2011-04-15T11:11:54Z</time>
      </trkpt>
      <trkpt lat="48.46597" lon="2.109">
        <ele>139</ele>
        <time>2011-04-15T11:11:55Z</time>
      </trkpt>
      <trkpt lat="48.46591" lon="2.10908">
        <ele>139</ele>
        <time>2011-04-15T11:11:56Z</time>
      </trkpt>
      <trkpt lat="48.46585" lon="2.10917">
        <ele>139</ele>
        <time>2011-04-15T11:11:57Z</time>
      </trkpt>
      <trkpt lat="48.46578" lon="2.10925">
        <ele>139</ele>
        <time>2011-04-15T11:11:58Z</time>
      </trkpt>
      <trkpt lat="48.46572" lon="2.10934">
        <ele>139</ele>
        <time>2011-04-15T11:11:59Z</time>
      </trkpt>
      <trkpt lat="48.46566" lon="2.10942">
        <ele>139</ele>
        <time>2011-04-15T11:12:00Z</time>
      </trkpt>
      <trkpt lat="48.46559" lon="2.1095">
        <ele>139</ele>
        <time>2011-04-15T11:12:01Z</time>
      </trkpt>
      <trkpt lat="48.46553" lon="2.10958">
        <ele>139</ele>
        <time>2011-04-15T11:12:02Z</time>
      </trkpt>
      <trkpt lat="48.46547" lon="2.10967">
        <ele>139</ele>
        <time>2011-04-15T11:12:03Z</time>
      </trkpt>
      <trkpt lat="48.46541" lon="2.10975">
        <ele>139</ele>
        <time>2011-04-15T11:12:04Z</time>
      </trkpt>
      <trkpt lat="48.46535" lon="2.10982">
        <ele>139</ele>
        <time>2011-04-15T11:12:05Z</time>
      </trkpt>
      <trkpt lat="48.46529" lon="2.1099">
        <ele>139</ele>
        <time>2011-04-15T11:12:06Z</time>
      </trkpt>
      <trkpt lat="48.46524" lon="2.10999">
        <ele>139</ele>
        <time>2011-04-15T11:12:07Z</time>
      </trkpt>
      <trkpt lat="48.46518" lon="2.11008">
        <ele>139</ele>
        <time>2011-04-15T11:12:08Z</time>
      </trkpt>
      <trkpt lat="48.46513" lon="2.11018">
        <ele>139</ele>
        <time>2011-04-15T11:12:09Z</time>
      </trkpt>
      <trkpt lat="48.46508" lon="2.11028">
        <ele>139</ele>
        <time>2011-04-15T11:12:10Z</time>
      </trkpt>
      <trkpt lat="48.46504" lon="2.11038">
        <ele>139</ele>
        <time>2011-04-15T11:12:11Z</time>
      </trkpt>
      <trkpt lat="48.465" lon="2.11048">
        <ele>139</ele>
        <time>2011-04-15T11:12:12Z</time>
      </trkpt>
      <trkpt lat="48.46496" lon="2.11057">
        <ele>139</ele>
        <time>2011-04-15T11:12:13Z</time>
      </trkpt>
      <trkpt lat="48.46492" lon="2.11067">
        <ele>139</ele>
        <time>2011-04-15T11:12:14Z</time>
      </trkpt>
      <trkpt lat="48.46488" lon="2.11077">
        <ele>139</ele>
        <time>2011-04-15T11:12:15Z</time>
      </trkpt>
      <trkpt lat="48.46484" lon="2.11086">
        <ele>139</ele>
        <time>2011-04-15T11:12:16Z</time>
      </trkpt>
      <trkpt lat="48.46481" lon="2.11095">
        <ele>139</ele>
        <time>2011-04-15T11:12:17Z</time>
      </trkpt>
      <trkpt lat="48.46477" lon="2.11105">
        <ele>139</ele>
        <time>2011-04-15T11:12:18Z</time>
      </trkpt>
      <trkpt lat="48.46473" lon="2.11113">
        <ele>139</ele>
        <time>2011-04-15T11:12:19Z</time>
      </trkpt>
      <trkpt lat="48.4647" lon="2.11122">
        <ele>139</ele>
        <time>2011-04-15T11:12:20Z</time>
      </trkpt>
      <trkpt lat="48.46466" lon="2.11131">
        <ele>139</ele>
        <time>2011-04-15T11:12:21Z</time>
      </trkpt>
      <trkpt lat="48.46462" lon="2.11139">
        <ele>139</ele>
        <time>2011-04-15T11:12:22Z</time>
      </trkpt>
      <trkpt lat="48.46457" lon="2.11149">
        <ele>139</ele>
        <time>2011-04-15T11:12:23Z</time>
      </trkpt>
      <trkpt lat="48.46452" lon="2.11157">
        <ele>139</ele>
        <time>2011-04-15T11:12:24Z</time>
      </trkpt>
      <trkpt lat="48.46447" lon="2.11165">
        <ele>139</ele>
        <time>2011-04-15T11:12:25Z</time>
      </trkpt>
      <trkpt lat="48.46443" lon="2.11171">
        <ele>139</ele>
        <time>2011-04-15T11:12:26Z</time>
      </trkpt>
      <trkpt lat="48.4644" lon="2.11177">
        <ele>139</ele>
        <time>2011-04-15T11:12:27Z</time>
      </trkpt>
      <trkpt lat="48.46436" lon="2.11184">
        <ele>139</ele>
        <time>2011-04-15T11:12:28Z</time>
      </trkpt>
      <trkpt lat="48.46432" lon="2.1119">
        <ele>139</ele>
        <time>2011-04-15T11:12:29Z</time>
      </trkpt>
      <trkpt lat="48.46428" lon="2.11196">
        <ele>139</ele>
        <time>2011-04-15T11:12:30Z</time>
      </trkpt>
      <trkpt lat="48.46425" lon="2.11201">
        <ele>139</ele>
        <time>2011-04-15T11:12:31Z</time>
      </trkpt>
      <trkpt lat="48.46421" lon="2.11206">
        <ele>139</ele>
        <time>2011-04-15T11:12:32Z</time>
      </trkpt>
      <trkpt lat="48.46418" lon="2.11211">
        <ele>139</ele>
        <time>2011-04-15T11:12:33Z</time>
      </trkpt>
      <trkpt lat="48.46414" lon="2.11216">
        <ele>139</ele>
        <time>2011-04-15T11:12:34Z</time>
      </trkpt>
      <trkpt lat="48.46411" lon="2.11221">
        <ele>139</ele>
        <time>2011-04-15T11:12:35Z</time>
      </trkpt>
      <trkpt lat="48.46408" lon="2.11227">
        <ele>139</ele>
        <time>2011-04-15T11:12:36Z</time>
      </trkpt>
      <trkpt lat="48.46405" lon="2.11231">
        <ele>139</ele>
        <time>2011-04-15T11:12:37Z</time>
      </trkpt>
      <trkpt lat="48.46402" lon="2.11236">
        <ele>139</ele>
        <time>2011-04-15T11:12:38Z</time>
      </trkpt>
      <trkpt lat="48.46399" lon="2.1124">
        <ele>139</ele>
        <time>2011-04-15T11:12:39Z</time>
      </trkpt>
      <trkpt lat="48.46396" lon="2.11245">
        <ele>139</ele>
        <time>2011-04-15T11:12:40Z</time>
      </trkpt>
      <trkpt lat="48.46393" lon="2.1125">
        <ele>139</ele>
        <time>2011-04-15T11:12:41Z</time>
      </trkpt>
      <trkpt lat="48.4639" lon="2.11254">
        <ele>139</ele>
        <time>2011-04-15T11:12:42Z</time>
      </trkpt>
      <trkpt lat="48.46387" lon="2.11258">
        <ele>139</ele>
        <time>2011-04-15T11:12:43Z</time>
      </trkpt>
      <trkpt lat="48.46384" lon="2.11263">
        <ele>139</ele>
        <time>2011-04-15T11:12:44Z</time>
      </trkpt>
      <trkpt lat="48.46381" lon="2.11267">
        <ele>139</ele>
        <time>2011-04-15T11:12:45Z</time>
      </trkpt>
      <trkpt lat="48.46378" lon="2.11272">
        <ele>139</ele>
        <time>2011-04-15T11:12:46Z</time>
      </trkpt>
      <trkpt lat="48.46375" lon="2.11277">
        <ele>139</ele>
        <time>2011-04-15T11:12:47Z</time>
      </trkpt>
      <trkpt lat="48.46371" lon="2.11282">
        <ele>139</ele>
        <time>2011-04-15T11:12:48Z</time>
      </trkpt>
      <trkpt lat="48.46368" lon="2.11287">
        <ele>139</ele>
        <time>2011-04-15T11:12:49Z</time>
      </trkpt>
      <trkpt lat="48.46364" lon="2.11291">
        <ele>139</ele>
        <time>2011-04-15T11:12:50Z</time>
      </trkpt>
      <trkpt lat="48.46361" lon="2.11296">
        <ele>139</ele>
        <time>2011-04-15T11:12:51Z</time>
      </trkpt>
      <trkpt lat="48.46358" lon="2.11301">
        <ele>139</ele>
        <time>2011-04-15T11:12:52Z</time>
      </trkpt>
      <trkpt lat="48.46356" lon="2.11305">
        <ele>139</ele>
        <time>2011-04-15T11:12:53Z</time>
      </trkpt>
      <trkpt lat="48.46353" lon="2.1131">
        <ele>139</ele>
        <time>2011-04-15T11:12:54Z</time>
      </trkpt>
      <trkpt lat="48.46349" lon="2.11315">
        <ele>139</ele>
        <time>2011-04-15T11:12:55Z</time>
      </trkpt>
      <trkpt lat="48.46346" lon="2.1132">
        <ele>139</ele>
        <time>2011-04-15T11:12:56Z</time>
      </trkpt>
      <trkpt lat="48.46343" lon="2.11324">
        <ele>139</ele>
        <time>2011-04-15T11:12:57Z</time>
      </trkpt>
      <trkpt lat="48.4634" lon="2.11329">
        <ele>139</ele>
        <time>2011-04-15T11:12:58Z</time>
      </trkpt>
      <trkpt lat="48.46337" lon="2.11333">
        <ele>139</ele>
        <time>2011-04-15T11:12:59Z</time>
      </trkpt>
      <trkpt lat="48.46334" lon="2.11338">
        <ele>139</ele>
        <time>2011-04-15T11:13:00Z</time>
      </trkpt>
      <trkpt lat="48.46331" lon="2.11342">
        <ele>139</ele>
        <time>2011-04-15T11:13:01Z</time>
      </trkpt>
      <trkpt lat="48.46328" lon="2.11346">
        <ele>139</ele>
        <time>2011-04-15T11:13:02Z</time>
      </trkpt>
      <trkpt lat="48.46326" lon="2.1135">
        <ele>139</ele>
        <time>2011-04-15T11:13:03Z</time>
      </trkpt>
      <trkpt lat="48.46323" lon="2.11355">
        <ele>139</ele>
        <time>2011-04-15T11:13:04Z</time>
      </trkpt>
      <trkpt lat="48.46319" lon="2.1136">
        <ele>139</ele>
        <time>2011-04-15T11:13:05Z</time>
      </trkpt>
      <trkpt lat="48.46316" lon="2.11365">
        <ele>139</ele>
        <time>2011-04-15T11:13:06Z</time>
      </trkpt>
      <trkpt lat="48.46312" lon="2.11371">
        <ele>139</ele>
        <time>2011-04-15T11:13:07Z</time>
      </trkpt>
      <trkpt lat="48.46309" lon="2.11376">
        <ele>139</ele>
        <time>2011-04-15T11:13:08Z</time>
      </trkpt>
      <trkpt lat="48.46305" lon="2.11381">
        <ele>139</ele>
        <time>2011-04-15T11:13:09Z</time>
      </trkpt>
      <trkpt lat="48.46302" lon="2.11386">
        <ele>139</ele>
        <time>2011-04-15T11:13:10Z</time>
      </trkpt>
      <trkpt lat="48.46299" lon="2.11391">
        <ele>139</ele>
        <time>2011-04-15T11:13:11Z</time>
      </trkpt>
      <trkpt lat="48.46296" lon="2.11395">
        <ele>139</ele>
        <time>2011-04-15T11:13:12Z</time>
      </trkpt>
      <trkpt lat="48.46292" lon="2.114">
        <ele>139</ele>
        <time>2011-04-15T11:13:13Z</time>
      </trkpt>
      <trkpt lat="48.46289" lon="2.11406">
        <ele>139</ele>
        <time>2011-04-15T11:13:14Z</time>
      </trkpt>
      <trkpt lat="48.46285" lon="2.11411">
        <ele>139</ele>
        <time>2011-04-15T11:13:15Z</time>
      </trkpt>
      <trkpt lat="48.46281" lon="2.11416">
        <ele>139</ele>
        <time>2011-04-15T11:13:16Z</time>
      </trkpt>
      <trkpt lat="48.46278" lon="2.11422">
        <ele>139</ele>
        <time>2011-04-15T11:13:17Z</time>
      </trkpt>
      <trkpt lat="48.46274" lon="2.11427">
        <ele>139</ele>
        <time>2011-04-15T11:13:18Z</time>
      </trkpt>
      <trkpt lat="48.4627" lon="2.11432">
        <ele>139</ele>
        <time>2011-04-15T11:13:19Z</time>
      </trkpt>
      <trkpt lat="48.46267" lon="2.11438">
        <ele>139</ele>
        <time>2011-04-15T11:13:20Z</time>
      </trkpt>
      <trkpt lat="48.46263" lon="2.11443">
        <ele>139</ele>
        <time>2011-04-15T11:13:21Z</time>
      </trkpt>
      <trkpt lat="48.4626" lon="2.11448">
        <ele>139</ele>
        <time>2011-04-15T11:13:22Z</time>
      </trkpt>
      <trkpt lat="48.46256" lon="2.11454">
        <ele>139</ele>
        <time>2011-04-15T11:13:23Z</time>
      </trkpt>
      <trkpt lat="48.46252" lon="2.11459">
        <ele>139</ele>
        <time>2011-04-15T11:13:24Z</time>
      </trkpt>
      <trkpt lat="48.46249" lon="2.11465">
        <ele>139</ele>
        <time>2011-04-15T11:13:25Z</time>
      </trkpt>
      <trkpt lat="48.46245" lon="2.11471">
        <ele>139</ele>
        <time>2011-04-15T11:13:26Z</time>
      </trkpt>
      <trkpt lat="48.46241" lon="2.11477">
        <ele>139</ele>
        <time>2011-04-15T11:13:27Z</time>
      </trkpt>
      <trkpt lat="48.46238" lon="2.11483">
        <ele>139</ele>
        <time>2011-04-15T11:13:28Z</time>
      </trkpt>
      <trkpt lat="48.46234" lon="2.11488">
        <ele>138</ele>
        <time>2011-04-15T11:13:29Z</time>
      </trkpt>
      <trkpt lat="48.4623" lon="2.11493">
        <ele>138</ele>
        <time>2011-04-15T11:13:30Z</time>
      </trkpt>
      <trkpt lat="48.46227" lon="2.11498">
        <ele>138</ele>
        <time>2011-04-15T11:13:31Z</time>
      </trkpt>
      <trkpt lat="48.46223" lon="2.11503">
        <ele>138</ele>
        <time>2011-04-15T11:13:32Z</time>
      </trkpt>
      <trkpt lat="48.46219" lon="2.11508">
        <ele>138</ele>
        <time>2011-04-15T11:13:33Z</time>
      </trkpt>
      <trkpt lat="48.46215" lon="2.11512">
        <ele>138</ele>
        <time>2011-04-15T11:13:34Z</time>
      </trkpt>
      <trkpt lat="48.46211" lon="2.11516">
        <ele>138</ele>
        <time>2011-04-15T11:13:35Z</time>
      </trkpt>
      <trkpt lat="48.46206" lon="2.11521">
        <ele>138</ele>
        <time>2011-04-15T11:13:36Z</time>
      </trkpt>
      <trkpt lat="48.46202" lon="2.11525">
        <ele>138</ele>
        <time>2011-04-15T11:13:37Z</time>
      </trkpt>
      <trkpt lat="48.46197" lon="2.11529">
        <ele>138</ele>
        <time>2011-04-15T11:13:38Z</time>
      </trkpt>
      <trkpt lat="48.46193" lon="2.11533">
        <ele>138</ele>
        <time>2011-04-15T11:13:39Z</time>
      </trkpt>
      <trkpt lat="48.46189" lon="2.11537">
        <ele>138</ele>
        <time>2011-04-15T11:13:40Z</time>
      </trkpt>
      <trkpt lat="48.46185" lon="2.11542">
        <ele>138</ele>
        <time>2011-04-15T11:13:41Z</time>
      </trkpt>
      <trkpt lat="48.4618" lon="2.11545">
        <ele>138</ele>
        <time>2011-04-15T11:13:42Z</time>
      </trkpt>
      <trkpt lat="48.46176" lon="2.11549">
        <ele>138</ele>
        <time>2011-04-15T11:13:43Z</time>
      </trkpt>
      <trkpt lat="48.46172" lon="2.11552">
        <ele>138</ele>
        <time>2011-04-15T11:13:44Z</time>
      </trkpt>
      <trkpt lat="48.46168" lon="2.11556">
        <ele>138</ele>
        <time>2011-04-15T11:13:45Z</time>
      </trkpt>
      <trkpt lat="48.46164" lon="2.11559">
        <ele>138</ele>
        <time>2011-04-15T11:13:46Z</time>
      </trkpt>
      <trkpt lat="48.4616" lon="2.11562">
        <ele>138</ele>
        <time>2011-04-15T11:13:47Z</time>
      </trkpt>
      <trkpt lat="48.46156" lon="2.11565">
        <ele>138</ele>
        <time>2011-04-15T11:13:48Z</time>
      </trkpt>
      <trkpt lat="48.46152" lon="2.11568">
        <ele>138</ele>
        <time>2011-04-15T11:13:49Z</time>
      </trkpt>
      <trkpt lat="48.46149" lon="2.11571">
        <ele>138</ele>
        <time>2011-04-15T11:13:50Z</time>
      </trkpt>
      <trkpt lat="48.46145" lon="2.11574">
        <ele>138</ele>
        <time>2011-04-15T11:13:51Z</time>
      </trkpt>
      <trkpt lat="48.46141" lon="2.11576">
        <ele>138</ele>
        <time>2011-04-15T11:13:52Z</time>
      </trkpt>
      <trkpt lat="48.46137" lon="2.11579">
        <ele>138</ele>
        <time>2011-04-15T11:13:53Z</time>
      </trkpt>
      <trkpt lat="48.46133" lon="2.11582">
        <ele>138</ele>
        <time>2011-04-15T11:13:54Z</time>
      </trkpt>
      <trkpt lat="48.46129" lon="2.11585">
        <ele>138</ele>
        <time>2011-04-15T11:13:55Z</time>
      </trkpt>
      <trkpt lat="48.46126" lon="2.11588">
        <ele>138</ele>
        <time>2011-04-15T11:13:56Z</time>
      </trkpt>
      <trkpt lat="48.46122" lon="2.1159">
        <ele>138</ele>
        <time>2011-04-15T11:13:57Z</time>
      </trkpt>
      <trkpt lat="48.46118" lon="2.11594">
        <ele>138</ele>
        <time>2011-04-15T11:13:58Z</time>
      </trkpt>
      <trkpt lat="48.46115" lon="2.11597">
        <ele>138</ele>
        <time>2011-04-15T11:13:59Z</time>
      </trkpt>
      <trkpt lat="48.46111" lon="2.116">
        <ele>138</ele>
        <time>2011-04-15T11:14:00Z</time>
      </trkpt>
      <trkpt lat="48.46107" lon="2.11602">
        <ele>138</ele>
        <time>2011-04-15T11:14:01Z</time>
      </trkpt>
      <trkpt lat="48.46103" lon="2.11605">
        <ele>138</ele>
        <time>2011-04-15T11:14:02Z</time>
      </trkpt>
      <trkpt lat="48.46099" lon="2.11608">
        <ele>138</ele>
        <time>2011-04-15T11:14:03Z</time>
      </trkpt>
      <trkpt lat="48.46095" lon="2.11612">
        <ele>138</ele>
        <time>2011-04-15T11:14:04Z</time>
      </trkpt>
      <trkpt lat="48.46091" lon="2.11615">
        <ele>138</ele>
        <time>2011-04-15T11:14:05Z</time>
      </trkpt>
      <trkpt lat="48.46088" lon="2.11618">
        <ele>138</ele>
        <time>2011-04-15T11:14:06Z</time>
      </trkpt>
      <trkpt lat="48.46084" lon="2.11621">
        <ele>138</ele>
        <time>2011-04-15T11:14:07Z</time>
      </trkpt>
      <trkpt lat="48.46081" lon="2.11624">
        <ele>138</ele>
        <time>2011-04-15T11:14:08Z</time>
      </trkpt>
      <trkpt lat="48.46078" lon="2.11627">
        <ele>138</ele>
        <time>2011-04-15T11:14:09Z</time>
      </trkpt>
      <trkpt lat="48.46074" lon="2.1163">
        <ele>138</ele>
        <time>2011-04-15T11:14:10Z</time>
      </trkpt>
      <trkpt lat="48.4607" lon="2.11634">
        <ele>138</ele>
        <time>2011-04-15T11:14:11Z</time>
      </trkpt>
      <trkpt lat="48.46067" lon="2.11637">
        <ele>138</ele>
        <time>2011-04-15T11:14:12Z</time>
      </trkpt>
      <trkpt lat="48.46063" lon="2.1164">
        <ele>138</ele>
        <time>2011-04-15T11:14:13Z</time>
      </trkpt>
      <trkpt lat="48.4606" lon="2.11643">
        <ele>138</ele>
        <time>2011-04-15T11:14:14Z</time>
      </trkpt>
      <trkpt lat="48.46057" lon="2.11646">
        <ele>138</ele>
        <time>2011-04-15T11:14:15Z</time>
      </trkpt>
      <trkpt lat="48.46054" lon="2.11649">
        <ele>138</ele>
        <time>2011-04-15T11:14:16Z</time>
      </trkpt>
      <trkpt lat="48.46051" lon="2.11654">
        <ele>138</ele>
        <time>2011-04-15T11:14:17Z</time>
      </trkpt>
      <trkpt lat="48.46047" lon="2.11657">
        <ele>138</ele>
        <time>2011-04-15T11:14:18Z</time>
      </trkpt>
      <trkpt lat="48.46044" lon="2.11661">
        <ele>138</ele>
        <time>2011-04-15T11:14:19Z</time>
      </trkpt>
      <trkpt lat="48.46042" lon="2.11663">
        <ele>138</ele>
        <time>2011-04-15T11:14:20Z</time>
      </trkpt>
      <trkpt lat="48.46039" lon="2.11667">
        <ele>138</ele>
        <time>2011-04-15T11:14:21Z</time>
      </trkpt>
      <trkpt lat="48.46035" lon="2.11671">
        <ele>138</ele>
        <time>2011-04-15T11:14:22Z</time>
      </trkpt>
      <trkpt lat="48.46032" lon="2.11674">
        <ele>138</ele>
        <time>2011-04-15T11:14:23Z</time>
      </trkpt>
      <trkpt lat="48.4603" lon="2.11675">
        <ele>138</ele>
        <time>2011-04-15T11:14:24Z</time>
      </trkpt>
      <trkpt lat="48.46029" lon="2.11676">
        <ele>138</ele>
        <time>2011-04-15T11:14:25Z</time>
      </trkpt>
      <trkpt lat="48.46028" lon="2.11677">
        <ele>138</ele>
        <time>2011-04-15T11:14:27Z</time>
      </trkpt>
      <trkpt lat="48.46027" lon="2.11678">
        <ele>138</ele>
        <time>2011-04-15T11:14:28Z</time>
      </trkpt>
      <trkpt lat="48.46025" lon="2.11679">
        <ele>138</ele>
        <time>2011-04-15T11:14:29Z</time>
      </trkpt>
      <trkpt lat="48.46024" lon="2.1168">
        <ele>138</ele>
        <time>2011-04-15T11:14:30Z</time>
      </trkpt>
      <trkpt lat="48.46023" lon="2.11681">
        <ele>138</ele>
        <time>2011-04-15T11:14:31Z</time>
      </trkpt>
      <trkpt lat="48.46022" lon="2.11683">
        <ele>138</ele>
        <time>2011-04-15T11:14:32Z</time>
      </trkpt>
      <trkpt lat="48.46021" lon="2.11684">
        <ele>138</ele>
        <time>2011-04-15T11:14:33Z</time>
      </trkpt>
      <trkpt lat="48.46019" lon="2.11686">
        <ele>138</ele>
        <time>2011-04-15T11:14:34Z</time>
      </trkpt>
      <trkpt lat="48.46018" lon="2.11687">
        <ele>138</ele>
        <time>2011-04-15T11:14:35Z</time>
      </trkpt>
      <trkpt lat="48.46016" lon="2.11688">
        <ele>138</ele>
        <time>2011-04-15T11:14:36Z</time>
      </trkpt>
      <trkpt lat="48.46015" lon="2.1169">
        <ele>138</ele>
        <time>2011-04-15T11:14:37Z</time>
      </trkpt>
      <trkpt lat="48.46013" lon="2.11691">
        <ele>138</ele>
        <time>2011-04-15T11:14:38Z</time>
      </trkpt>
      <trkpt lat="48.46011" lon="2.11692">
        <ele>138</ele>
        <time>2011-04-15T11:14:39Z</time>
      </trkpt>
      <trkpt lat="48.46009" lon="2.11692">
        <ele>138</ele>
        <time>2011-04-15T11:14:40Z</time>
      </trkpt>
      <trkpt lat="48.46008" lon="2.11691">
        <ele>138</ele>
        <time>2011-04-15T11:14:41Z</time>
      </trkpt>
      <trkpt lat="48.46006" lon="2.11691">
        <ele>138</ele>
        <time>2011-04-15T11:14:42Z</time>
      </trkpt>
      <trkpt lat="48.46004" lon="2.11692">
        <ele>138</ele>
        <time>2011-04-15T11:14:43Z</time>
      </trkpt>
      <trkpt lat="48.46002" lon="2.11692">
        <ele>138</ele>
        <time>2011-04-15T11:14:44Z</time>
      </trkpt>
      <trkpt lat="48.46001" lon="2.11692">
        <ele>138</ele>
        <time>2011-04-15T11:14:45Z</time>
      </trkpt>
      <trkpt lat="48.45999" lon="2.11693">
        <ele>138</ele>
        <time>2011-04-15T11:14:46Z</time>
      </trkpt>
      <trkpt lat="48.45998" lon="2.11694">
        <ele>138</ele>
        <time>2011-04-15T11:14:47Z</time>
      </trkpt>
      <trkpt lat="48.45997" lon="2.11696">
        <ele>138</ele>
        <time>2011-04-15T11:14:48Z</time>
      </trkpt>
      <trkpt lat="48.45996" lon="2.11697">
        <ele>138</ele>
        <time>2011-04-15T11:14:49Z</time>
      </trkpt>
      <trkpt lat="48.45994" lon="2.11699">
        <ele>138</ele>
        <time>2011-04-15T11:14:50Z</time>
      </trkpt>
      <trkpt lat="48.45993" lon="2.11701">
        <ele>138</ele>
        <time>2011-04-15T11:14:51Z</time>
      </trkpt>
      <trkpt lat="48.45991" lon="2.11704">
        <ele>138</ele>
        <time>2011-04-15T11:14:53Z</time>
      </trkpt>
      <trkpt lat="48.4599" lon="2.11706">
        <ele>138</ele>
        <time>2011-04-15T11:14:54Z</time>
      </trkpt>
      <trkpt lat="48.45988" lon="2.11708">
        <ele>138</ele>
        <time>2011-04-15T11:14:56Z</time>
      </trkpt>
      <trkpt lat="48.45987" lon="2.11709">
        <ele>138</ele>
        <time>2011-04-15T11:14:57Z</time>
      </trkpt>
      <trkpt lat="48.45986" lon="2.1171">
        <ele>138</ele>
        <time>2011-04-15T11:14:58Z</time>
      </trkpt>
      <trkpt lat="48.45984" lon="2.11711">
        <ele>138</ele>
        <time>2011-04-15T11:14:59Z</time>
      </trkpt>
      <trkpt lat="48.45983" lon="2.11713">
        <ele>138</ele>
        <time>2011-04-15T11:15:00Z</time>
      </trkpt>
      <trkpt lat="48.45982" lon="2.11714">
        <ele>138</ele>
        <time>2011-04-15T11:15:01Z</time>
      </trkpt>
      <trkpt lat="48.4598" lon="2.11716">
        <ele>138</ele>
        <time>2011-04-15T11:15:02Z</time>
      </trkpt>
      <trkpt lat="48.45979" lon="2.11717">
        <ele>138</ele>
        <time>2011-04-15T11:15:03Z</time>
      </trkpt>
      <trkpt lat="48.45978" lon="2.11719">
        <ele>138</ele>
        <time>2011-04-15T11:15:04Z</time>
      </trkpt>
      <trkpt lat="48.45976" lon="2.1172">
        <ele>138</ele>
        <time>2011-04-15T11:15:05Z</time>
      </trkpt>
      <trkpt lat="48.45975" lon="2.11722">
        <ele>138</ele>
        <time>2011-04-15T11:15:06Z</time>
      </trkpt>
      <trkpt lat="48.45974" lon="2.11723">
        <ele>138</ele>
        <time>2011-04-15T11:15:07Z</time>
      </trkpt>
      <trkpt lat="48.45973" lon="2.11724">
        <ele>138</ele>
        <time>2011-04-15T11:15:08Z</time>
      </trkpt>
      <trkpt lat="48.45971" lon="2.11726">
        <ele>138</ele>
        <time>2011-04-15T11:15:09Z</time>
      </trkpt>
      <trkpt lat="48.45969" lon="2.11729">
        <ele>138</ele>
        <time>2011-04-15T11:15:11Z</time>
      </trkpt>
      <trkpt lat="48.45967" lon="2.11731">
        <ele>138</ele>
        <time>2011-04-15T11:15:12Z</time>
      </trkpt>
      <trkpt lat="48.45966" lon="2.11732">
        <ele>138</ele>
        <time>2011-04-15T11:15:13Z</time>
      </trkpt>
      <trkpt lat="48.45964" lon="2.11734">
        <ele>138</ele>
        <time>2011-04-15T11:15:15Z</time>
      </trkpt>
      <trkpt lat="48.45962" lon="2.11735">
        <ele>138</ele>
        <time>2011-04-15T11:15:17Z</time>
      </trkpt>
      <trkpt lat="48.4596" lon="2.11737">
        <ele>138</ele>
        <time>2011-04-15T11:15:19Z</time>
      </trkpt>
      <trkpt lat="48.45958" lon="2.11738">
        <ele>138</ele>
        <time>2011-04-15T11:15:20Z</time>
      </trkpt>
      <trkpt lat="48.45957" lon="2.11739">
        <ele>138</ele>
        <time>2011-04-15T11:15:21Z</time>
      </trkpt>
      <trkpt lat="48.45955" lon="2.11741">
        <ele>138</ele>
        <time>2011-04-15T11:15:22Z</time>
      </trkpt>
      <trkpt lat="48.45953" lon="2.11743">
        <ele>138</ele>
        <time>2011-04-15T11:15:23Z</time>
      </trkpt>
      <trkpt lat="48.45952" lon="2.11744">
        <ele>138</ele>
        <time>2011-04-15T11:15:24Z</time>
      </trkpt>
      <trkpt lat="48.45951" lon="2.11746">
        <ele>138</ele>
        <time>2011-04-15T11:15:25Z</time>
      </trkpt>
      <trkpt lat="48.45949" lon="2.11747">
        <ele>138</ele>
        <time>2011-04-15T11:15:26Z</time>
      </trkpt>
      <trkpt lat="48.45948" lon="2.11747">
        <ele>138</ele>
        <time>2011-04-15T11:15:27Z</time>
      </trkpt>
      <trkpt lat="48.45947" lon="2.11748">
        <ele>138</ele>
        <time>2011-04-15T11:15:28Z</time>
      </trkpt>
      <trkpt lat="48.45946" lon="2.11749">
        <ele>139</ele>
        <time>2011-04-15T11:15:29Z</time>
      </trkpt>
      <trkpt lat="48.45944" lon="2.1175">
        <ele>139</ele>
        <time>2011-04-15T11:15:30Z</time>
      </trkpt>
      <trkpt lat="48.45943" lon="2.11752">
        <ele>139</ele>
        <time>2011-04-15T11:15:31Z</time>
      </trkpt>
      <trkpt lat="48.45942" lon="2.11752">
        <ele>139</ele>
        <time>2011-04-15T11:15:32Z</time>
      </trkpt>
      <trkpt lat="48.45941" lon="2.11753">
        <ele>139</ele>
        <time>2011-04-15T11:15:33Z</time>
      </trkpt>
      <trkpt lat="48.45939" lon="2.11754">
        <ele>139</ele>
        <time>2011-04-15T11:15:34Z</time>
      </trkpt>
      <trkpt lat="48.45938" lon="2.11756">
        <ele>139</ele>
        <time>2011-04-15T11:15:35Z</time>
      </trkpt>
      <trkpt lat="48.45937" lon="2.11757">
        <ele>139</ele>
        <time>2011-04-15T11:15:36Z</time>
      </trkpt>
      <trkpt lat="48.45936" lon="2.11758">
        <ele>139</ele>
        <time>2011-04-15T11:15:37Z</time>
      </trkpt>
      <trkpt lat="48.45934" lon="2.1176">
        <ele>139</ele>
        <time>2011-04-15T11:15:38Z</time>
      </trkpt>
      <trkpt lat="48.45933" lon="2.11762">
        <ele>139</ele>
        <time>2011-04-15T11:15:39Z</time>
      </trkpt>
      <trkpt lat="48.45932" lon="2.11764">
        <ele>139</ele>
        <time>2011-04-15T11:15:40Z</time>
      </trkpt>
      <trkpt lat="48.45932" lon="2.11766">
        <ele>139</ele>
        <time>2011-04-15T11:15:41Z</time>
      </trkpt>
      <trkpt lat="48.45931" lon="2.11768">
        <ele>139</ele>
        <time>2011-04-15T11:15:42Z</time>
      </trkpt>
      <trkpt lat="48.4593" lon="2.1177">
        <ele>139</ele>
        <time>2011-04-15T11:15:43Z</time>
      </trkpt>
      <trkpt lat="48.45929" lon="2.11772">
        <ele>139</ele>
        <time>2011-04-15T11:15:44Z</time>
      </trkpt>
      <trkpt lat="48.45928" lon="2.11774">
        <ele>139</ele>
        <time>2011-04-15T11:15:45Z</time>
      </trkpt>
      <trkpt lat="48.45927" lon="2.11777">
        <ele>139</ele>
        <time>2011-04-15T11:15:46Z</time>
      </trkpt>
      <trkpt lat="48.45925" lon="2.11778">
        <ele>139</ele>
        <time>2011-04-15T11:15:47Z</time>
      </trkpt>
      <trkpt lat="48.45924" lon="2.1178">
        <ele>139</ele>
        <time>2011-04-15T11:15:48Z</time>
      </trkpt>
      <trkpt lat="48.45923" lon="2.11782">
        <ele>139</ele>
        <time>2011-04-15T11:15:49Z</time>
      </trkpt>
      <trkpt lat="48.45922" lon="2.11784">
        <ele>139</ele>
        <time>2011-04-15T11:15:50Z</time>
      </trkpt>
      <trkpt lat="48.45921" lon="2.11785">
        <ele>139</ele>
        <time>2011-04-15T11:15:51Z</time>
      </trkpt>
      <trkpt lat="48.4592" lon="2.11786">
        <ele>139</ele>
        <time>2011-04-15T11:15:52Z</time>
      </trkpt>
      <trkpt lat="48.45918" lon="2.11787">
        <ele>139</ele>
        <time>2011-04-15T11:15:53Z</time>
      </trkpt>
      <trkpt lat="48.45917" lon="2.11788">
        <ele>139</ele>
        <time>2011-04-15T11:15:54Z</time>
      </trkpt>
      <trkpt lat="48.45915" lon="2.11788">
        <ele>139</ele>
        <time>2011-04-15T11:15:55Z</time>
      </trkpt>
      <trkpt lat="48.45914" lon="2.11789">
        <ele>139</ele>
        <time>2011-04-15T11:15:56Z</time>
      </trkpt>
      <trkpt lat="48.45912" lon="2.1179">
        <ele>139</ele>
        <time>2011-04-15T11:15:57Z</time>
      </trkpt>
      <trkpt lat="48.45911" lon="2.11791">
        <ele>139</ele>
        <time>2011-04-15T11:15:58Z</time>
      </trkpt>
      <trkpt lat="48.45909" lon="2.11791">
        <ele>139</ele>
        <time>2011-04-15T11:15:59Z</time>
      </trkpt>
      <trkpt lat="48.45907" lon="2.11791">
        <ele>139</ele>
        <time>2011-04-15T11:16:00Z</time>
      </trkpt>
      <trkpt lat="48.45906" lon="2.11792">
        <ele>139</ele>
        <time>2011-04-15T11:16:01Z</time>
      </trkpt>
      <trkpt lat="48.45904" lon="2.11793">
        <ele>139</ele>
        <time>2011-04-15T11:16:02Z</time>
      </trkpt>
      <trkpt lat="48.45903" lon="2.11794">
        <ele>139</ele>
        <time>2011-04-15T11:16:03Z</time>
      </trkpt>
      <trkpt lat="48.45901" lon="2.11794">
        <ele>139</ele>
        <time>2011-04-15T11:16:04Z</time>
      </trkpt>
      <trkpt lat="48.459" lon="2.11795">
        <ele>139</ele>
        <time>2011-04-15T11:16:05Z</time>
      </trkpt>
      <trkpt lat="48.45899" lon="2.11796">
        <ele>139</ele>
        <time>2011-04-15T11:16:06Z</time>
      </trkpt>
      <trkpt lat="48.45897" lon="2.11797">
        <ele>139</ele>
        <time>2011-04-15T11:16:07Z</time>
      </trkpt>
      <trkpt lat="48.45896" lon="2.11798">
        <ele>139</ele>
        <time>2011-04-15T11:16:08Z</time>
      </trkpt>
      <trkpt lat="48.45894" lon="2.11798">
        <ele>139</ele>
        <time>2011-04-15T11:16:09Z</time>
      </trkpt>
      <trkpt lat="48.45892" lon="2.11799">
        <ele>139</ele>
        <time>2011-04-15T11:16:10Z</time>
      </trkpt>
      <trkpt lat="48.45891" lon="2.118">
        <ele>139</ele>
        <time>2011-04-15T11:16:11Z</time>
      </trkpt>
      <trkpt lat="48.45889" lon="2.11801">
        <ele>139</ele>
        <time>2011-04-15T11:16:12Z</time>
      </trkpt>
      <trkpt lat="48.45888" lon="2.11802">
        <ele>139</ele>
        <time>2011-04-15T11:16:13Z</time>
      </trkpt>
      <trkpt lat="48.45886" lon="2.11802">
        <ele>139</ele>
        <time>2011-04-15T11:16:14Z</time>
      </trkpt>
      <trkpt lat="48.45885" lon="2.11803">
        <ele>139</ele>
        <time>2011-04-15T11:16:15Z</time>
      </trkpt>
      <trkpt lat="48.45883" lon="2.11803">
        <ele>139</ele>
        <time>2011-04-15T11:16:16Z</time>
      </trkpt>
      <trkpt lat="48.45882" lon="2.11804">
        <ele>139</ele>
        <time>2011-04-15T11:16:17Z</time>
      </trkpt>
      <trkpt lat="48.4588" lon="2.11804">
        <ele>139</ele>
        <time>2011-04-15T11:16:18Z</time>
      </trkpt>
      <trkpt lat="48.45879" lon="2.11805">
        <ele>139</ele>
        <time>2011-04-15T11:16:19Z</time>
      </trkpt>
      <trkpt lat="48.45877" lon="2.11805">
        <ele>139</ele>
        <time>2011-04-15T11:16:20Z</time>
      </trkpt>
      <trkpt lat="48.45876" lon="2.11805">
        <ele>139</ele>
        <time>2011-04-15T11:16:21Z</time>
      </trkpt>
      <trkpt lat="48.45874" lon="2.11806">
        <ele>139</ele>
        <time>2011-04-15T11:16:22Z</time>
      </trkpt>
      <trkpt lat="48.45873" lon="2.11807">
        <ele>139</ele>
        <time>2011-04-15T11:16:23Z</time>
      </trkpt>
      <trkpt lat="48.45871" lon="2.11808">
        <ele>139</ele>
        <time>2011-04-15T11:16:24Z</time>
      </trkpt>
      <trkpt lat="48.4587" lon="2.11808">
        <ele>139</ele>
        <time>2011-04-15T11:16:25Z</time>
      </trkpt>
      <trkpt lat="48.45869" lon="2.11809">
        <ele>139</ele>
        <time>2011-04-15T11:16:26Z</time>
      </trkpt>
      <trkpt lat="48.45867" lon="2.1181">
        <ele>139</ele>
        <time>2011-04-15T11:16:27Z</time>
      </trkpt>
      <trkpt lat="48.45866" lon="2.11811">
        <ele>139</ele>
        <time>2011-04-15T11:16:28Z</time>
      </trkpt>
      <trkpt lat="48.45864" lon="2.11812">
        <ele>139</ele>
        <time>2011-04-15T11:16:29Z</time>
      </trkpt>
      <trkpt lat="48.45862" lon="2.11812">
        <ele>139</ele>
        <time>2011-04-15T11:16:30Z</time>
      </trkpt>
      <trkpt lat="48.4586" lon="2.11813">
        <ele>139</ele>
        <time>2011-04-15T11:16:31Z</time>
      </trkpt>
      <trkpt lat="48.45859" lon="2.11814">
        <ele>139</ele>
        <time>2011-04-15T11:16:32Z</time>
      </trkpt>
      <trkpt lat="48.45857" lon="2.11814">
        <ele>139</ele>
        <time>2011-04-15T11:16:33Z</time>
      </trkpt>
      <trkpt lat="48.45855" lon="2.11815">
        <ele>139</ele>
        <time>2011-04-15T11:16:34Z</time>
      </trkpt>
      <trkpt lat="48.45854" lon="2.11816">
        <ele>139</ele>
        <time>2011-04-15T11:16:35Z</time>
      </trkpt>
      <trkpt lat="48.45852" lon="2.11817">
        <ele>139</ele>
        <time>2011-04-15T11:16:36Z</time>
      </trkpt>
      <trkpt lat="48.4585" lon="2.11818">
        <ele>139</ele>
        <time>2011-04-15T11:16:37Z</time>
      </trkpt>
      <trkpt lat="48.45849" lon="2.11818">
        <ele>139</ele>
        <time>2011-04-15T11:16:38Z</time>
      </trkpt>
      <trkpt lat="48.45847" lon="2.11819">
        <ele>139</ele>
        <time>2011-04-15T11:16:39Z</time>
      </trkpt>
      <trkpt lat="48.45845" lon="2.1182">
        <ele>139</ele>
        <time>2011-04-15T11:16:40Z</time>
      </trkpt>
      <trkpt lat="48.45844" lon="2.11821">
        <ele>139</ele>
        <time>2011-04-15T11:16:41Z</time>
      </trkpt>
      <trkpt lat="48.45842" lon="2.11821">
        <ele>139</ele>
        <time>2011-04-15T11:16:42Z</time>
      </trkpt>
      <trkpt lat="48.45841" lon="2.11822">
        <ele>139</ele>
        <time>2011-04-15T11:16:43Z</time>
      </trkpt>
      <trkpt lat="48.45839" lon="2.11822">
        <ele>139</ele>
        <time>2011-04-15T11:16:44Z</time>
      </trkpt>
      <trkpt lat="48.45837" lon="2.11823">
        <ele>139</ele>
        <time>2011-04-15T11:16:45Z</time>
      </trkpt>
      <trkpt lat="48.45835" lon="2.11823">
        <ele>139</ele>
        <time>2011-04-15T11:16:46Z</time>
      </trkpt>
      <trkpt lat="48.45833" lon="2.11824">
        <ele>139</ele>
        <time>2011-04-15T11:16:47Z</time>
      </trkpt>
      <trkpt lat="48.45832" lon="2.11825">
        <ele>139</ele>
        <time>2011-04-15T11:16:48Z</time>
      </trkpt>
      <trkpt lat="48.4583" lon="2.11825">
        <ele>139</ele>
        <time>2011-04-15T11:16:49Z</time>
      </trkpt>
      <trkpt lat="48.45829" lon="2.11826">
        <ele>139</ele>
        <time>2011-04-15T11:16:50Z</time>
      </trkpt>
      <trkpt lat="48.45827" lon="2.11827">
        <ele>139</ele>
        <time>2011-04-15T11:16:51Z</time>
      </trkpt>
      <trkpt lat="48.45826" lon="2.11827">
        <ele>139</ele>
        <time>2011-04-15T11:16:52Z</time>
      </trkpt>
      <trkpt lat="48.45824" lon="2.11828">
        <ele>139</ele>
        <time>2011-04-15T11:16:53Z</time>
      </trkpt>
      <trkpt lat="48.45822" lon="2.11828">
        <ele>139</ele>
        <time>2011-04-15T11:16:54Z</time>
      </trkpt>
      <trkpt lat="48.4582" lon="2.11829">
        <ele>139</ele>
        <time>2011-04-15T11:16:55Z</time>
      </trkpt>
      <trkpt lat="48.45819" lon="2.1183">
        <ele>139</ele>
        <time>2011-04-15T11:16:56Z</time>
      </trkpt>
      <trkpt lat="48.45817" lon="2.1183">
        <ele>139</ele>
        <time>2011-04-15T11:16:57Z</time>
      </trkpt>
      <trkpt lat="48.45815" lon="2.11831">
        <ele>139</ele>
        <time>2011-04-15T11:16:58Z</time>
      </trkpt>
      <trkpt lat="48.45814" lon="2.11832">
        <ele>139</ele>
        <time>2011-04-15T11:16:59Z</time>
      </trkpt>
      <trkpt lat="48.45812" lon="2.11832">
        <ele>139</ele>
        <time>2011-04-15T11:17:00Z</time>
      </trkpt>
      <trkpt lat="48.4581" lon="2.11833">
        <ele>139</ele>
        <time>2011-04-15T11:17:01Z</time>
      </trkpt>
      <trkpt lat="48.45808" lon="2.11834">
        <ele>139</ele>
        <time>2011-04-15T11:17:02Z</time>
      </trkpt>
      <trkpt lat="48.45807" lon="2.11834">
        <ele>139</ele>
        <time>2011-04-15T11:17:03Z</time>
      </trkpt>
      <trkpt lat="48.45805" lon="2.11834">
        <ele>139</ele>
        <time>2011-04-15T11:17:04Z</time>
      </trkpt>
      <trkpt lat="48.45803" lon="2.11835">
        <ele>139</ele>
        <time>2011-04-15T11:17:05Z</time>
      </trkpt>
      <trkpt lat="48.45802" lon="2.11835">
        <ele>139</ele>
        <time>2011-04-15T11:17:06Z</time>
      </trkpt>
      <trkpt lat="48.458" lon="2.11835">
        <ele>139</ele>
        <time>2011-04-15T11:17:07Z</time>
      </trkpt>
      <trkpt lat="48.45798" lon="2.11835">
        <ele>139</ele>
        <time>2011-04-15T11:17:08Z</time>
      </trkpt>
      <trkpt lat="48.45797" lon="2.11835">
        <ele>139</ele>
        <time>2011-04-15T11:17:09Z</time>
      </trkpt>
      <trkpt lat="48.45795" lon="2.11835">
        <ele>139</ele>
        <time>2011-04-15T11:17:10Z</time>
      </trkpt>
      <trkpt lat="48.45793" lon="2.11836">
        <ele>139</ele>
        <time>2011-04-15T11:17:11Z</time>
      </trkpt>
      <trkpt lat="48.4579" lon="2.11837">
        <ele>139</ele>
        <time>2011-04-15T11:17:12Z</time>
      </trkpt>
      <trkpt lat="48.45787" lon="2.11837">
        <ele>139</ele>
        <time>2011-04-15T11:17:13Z</time>
      </trkpt>
      <trkpt lat="48.45784" lon="2.11837">
        <ele>139</ele>
        <time>2011-04-15T11:17:14Z</time>
      </trkpt>
      <trkpt lat="48.45781" lon="2.11838">
        <ele>139</ele>
        <time>2011-04-15T11:17:15Z</time>
      </trkpt>
      <trkpt lat="48.45777" lon="2.11839">
        <ele>139</ele>
        <time>2011-04-15T11:17:16Z</time>
      </trkpt>
      <trkpt lat="48.45773" lon="2.1184">
        <ele>139</ele>
        <time>2011-04-15T11:17:17Z</time>
      </trkpt>
      <trkpt lat="48.45769" lon="2.11841">
        <ele>139</ele>
        <time>2011-04-15T11:17:18Z</time>
      </trkpt>
      <trkpt lat="48.45766" lon="2.11842">
        <ele>138</ele>
        <time>2011-04-15T11:17:19Z</time>
      </trkpt>
      <trkpt lat="48.45761" lon="2.11843">
        <ele>138</ele>
        <time>2011-04-15T11:17:20Z</time>
      </trkpt>
      <trkpt lat="48.45757" lon="2.11844">
        <ele>138</ele>
        <time>2011-04-15T11:17:21Z</time>
      </trkpt>
      <trkpt lat="48.45753" lon="2.11844">
        <ele>138</ele>
        <time>2011-04-15T11:17:22Z</time>
      </trkpt>
      <trkpt lat="48.45748" lon="2.11845">
        <ele>138</ele>
        <time>2011-04-15T11:17:23Z</time>
      </trkpt>
      <trkpt lat="48.45744" lon="2.11846">
        <ele>138</ele>
        <time>2011-04-15T11:17:24Z</time>
      </trkpt>
      <trkpt lat="48.45741" lon="2.11847">
        <ele>138</ele>
        <time>2011-04-15T11:17:25Z</time>
      </trkpt>
      <trkpt lat="48.45737" lon="2.11848">
        <ele>138</ele>
        <time>2011-04-15T11:17:26Z</time>
      </trkpt>
      <trkpt lat="48.45734" lon="2.11849">
        <ele>138</ele>
        <time>2011-04-15T11:17:27Z</time>
      </trkpt>
      <trkpt lat="48.4573" lon="2.1185">
        <ele>138</ele>
        <time>2011-04-15T11:17:28Z</time>
      </trkpt>
      <trkpt lat="48.45727" lon="2.11851">
        <ele>138</ele>
        <time>2011-04-15T11:17:29Z</time>
      </trkpt>
      <trkpt lat="48.45723" lon="2.11853">
        <ele>138</ele>
        <time>2011-04-15T11:17:30Z</time>
      </trkpt>
      <trkpt lat="48.4572" lon="2.11854">
        <ele>138</ele>
        <time>2011-04-15T11:17:31Z</time>
      </trkpt>
      <trkpt lat="48.45716" lon="2.11855">
        <ele>137</ele>
        <time>2011-04-15T11:17:32Z</time>
      </trkpt>
      <trkpt lat="48.45713" lon="2.11856">
        <ele>137</ele>
        <time>2011-04-15T11:17:33Z</time>
      </trkpt>
      <trkpt lat="48.45709" lon="2.11857">
        <ele>137</ele>
        <time>2011-04-15T11:17:34Z</time>
      </trkpt>
      <trkpt lat="48.45705" lon="2.11858">
        <ele>137</ele>
        <time>2011-04-15T11:17:35Z</time>
      </trkpt>
      <trkpt lat="48.45701" lon="2.11859">
        <ele>137</ele>
        <time>2011-04-15T11:17:36Z</time>
      </trkpt>
      <trkpt lat="48.45697" lon="2.1186">
        <ele>136</ele>
        <time>2011-04-15T11:17:37Z</time>
      </trkpt>
      <trkpt lat="48.45693" lon="2.11861">
        <ele>136</ele>
        <time>2011-04-15T11:17:38Z</time>
      </trkpt>
      <trkpt lat="48.4569" lon="2.11863">
        <ele>136</ele>
        <time>2011-04-15T11:17:39Z</time>
      </trkpt>
      <trkpt lat="48.45686" lon="2.11864">
        <ele>136</ele>
        <time>2011-04-15T11:17:40Z</time>
      </trkpt>
      <trkpt lat="48.45683" lon="2.11865">
        <ele>136</ele>
        <time>2011-04-15T11:17:41Z</time>
      </trkpt>
      <trkpt lat="48.45679" lon="2.11866">
        <ele>136</ele>
        <time>2011-04-15T11:17:42Z</time>
      </trkpt>
      <trkpt lat="48.45675" lon="2.11868">
        <ele>136</ele>
        <time>2011-04-15T11:17:43Z</time>
      </trkpt>
      <trkpt lat="48.45671" lon="2.11869">
        <ele>136</ele>
        <time>2011-04-15T11:17:44Z</time>
      </trkpt>
      <trkpt lat="48.45667" lon="2.11871">
        <ele>136</ele>
        <time>2011-04-15T11:17:45Z</time>
      </trkpt>
      <trkpt lat="48.45663" lon="2.11872">
        <ele>136</ele>
        <time>2011-04-15T11:17:46Z</time>
      </trkpt>
      <trkpt lat="48.4566" lon="2.11873">
        <ele>136</ele>
        <time>2011-04-15T11:17:47Z</time>
      </trkpt>
      <trkpt lat="48.45656" lon="2.11874">
        <ele>136</ele>
        <time>2011-04-15T11:17:48Z</time>
      </trkpt>
      <trkpt lat="48.45653" lon="2.11875">
        <ele>136</ele>
        <time>2011-04-15T11:17:49Z</time>
      </trkpt>
      <trkpt lat="48.45649" lon="2.11876">
        <ele>136</ele>
        <time>2011-04-15T11:17:50Z</time>
      </trkpt>
      <trkpt lat="48.45646" lon="2.11877">
        <ele>136</ele>
        <time>2011-04-15T11:17:51Z</time>
      </trkpt>
      <trkpt lat="48.45642" lon="2.11879">
        <ele>136</ele>
        <time>2011-04-15T11:17:52Z</time>
      </trkpt>
      <trkpt lat="48.45638" lon="2.11881">
        <ele>136</ele>
        <time>2011-04-15T11:17:53Z</time>
      </trkpt>
      <trkpt lat="48.45634" lon="2.11883">
        <ele>136</ele>
        <time>2011-04-15T11:17:54Z</time>
      </trkpt>
      <trkpt lat="48.4563" lon="2.11884">
        <ele>136</ele>
        <time>2011-04-15T11:17:55Z</time>
      </trkpt>
      <trkpt lat="48.45626" lon="2.11885">
        <ele>136</ele>
        <time>2011-04-15T11:17:56Z</time>
      </trkpt>
      <trkpt lat="48.45622" lon="2.11886">
        <ele>136</ele>
        <time>2011-04-15T11:17:57Z</time>
      </trkpt>
      <trkpt lat="48.45618" lon="2.11888">
        <ele>136</ele>
        <time>2011-04-15T11:17:58Z</time>
      </trkpt>
      <trkpt lat="48.45615" lon="2.11889">
        <ele>136</ele>
        <time>2011-04-15T11:17:59Z</time>
      </trkpt>
      <trkpt lat="48.45611" lon="2.1189">
        <ele>136</ele>
        <time>2011-04-15T11:18:00Z</time>
      </trkpt>
      <trkpt lat="48.45608" lon="2.11892">
        <ele>136</ele>
        <time>2011-04-15T11:18:01Z</time>
      </trkpt>
      <trkpt lat="48.45605" lon="2.11894">
        <ele>136</ele>
        <time>2011-04-15T11:18:02Z</time>
      </trkpt>
      <trkpt lat="48.45601" lon="2.11895">
        <ele>136</ele>
        <time>2011-04-15T11:18:03Z</time>
      </trkpt>
      <trkpt lat="48.45597" lon="2.11898">
        <ele>136</ele>
        <time>2011-04-15T11:18:04Z</time>
      </trkpt>
      <trkpt lat="48.45592" lon="2.11899">
        <ele>136</ele>
        <time>2011-04-15T11:18:05Z</time>
      </trkpt>
      <trkpt lat="48.45588" lon="2.11901">
        <ele>136</ele>
        <time>2011-04-15T11:18:06Z</time>
      </trkpt>
      <trkpt lat="48.45584" lon="2.11902">
        <ele>136</ele>
        <time>2011-04-15T11:18:07Z</time>
      </trkpt>
      <trkpt lat="48.4558" lon="2.11904">
        <ele>136</ele>
        <time>2011-04-15T11:18:08Z</time>
      </trkpt>
      <trkpt lat="48.45576" lon="2.11905">
        <ele>136</ele>
        <time>2011-04-15T11:18:09Z</time>
      </trkpt>
      <trkpt lat="48.45571" lon="2.11908">
        <ele>136</ele>
        <time>2011-04-15T11:18:10Z</time>
      </trkpt>
      <trkpt lat="48.45567" lon="2.11909">
        <ele>136</ele>
        <time>2011-04-15T11:18:11Z</time>
      </trkpt>
      <trkpt lat="48.45562" lon="2.11911">
        <ele>136</ele>
        <time>2011-04-15T11:18:12Z</time>
      </trkpt>
      <trkpt lat="48.45558" lon="2.11913">
        <ele>136</ele>
        <time>2011-04-15T11:18:13Z</time>
      </trkpt>
      <trkpt lat="48.45554" lon="2.11914">
        <ele>136</ele>
        <time>2011-04-15T11:18:14Z</time>
      </trkpt>
      <trkpt lat="48.4555" lon="2.11916">
        <ele>136</ele>
        <time>2011-04-15T11:18:15Z</time>
      </trkpt>
      <trkpt lat="48.45546" lon="2.11917">
        <ele>136</ele>
        <time>2011-04-15T11:18:16Z</time>
      </trkpt>
      <trkpt lat="48.45542" lon="2.11918">
        <ele>136</ele>
        <time>2011-04-15T11:18:17Z</time>
      </trkpt>
      <trkpt lat="48.45538" lon="2.1192">
        <ele>136</ele>
        <time>2011-04-15T11:18:18Z</time>
      </trkpt>
      <trkpt lat="48.45534" lon="2.11922">
        <ele>136</ele>
        <time>2011-04-15T11:18:19Z</time>
      </trkpt>
      <trkpt lat="48.45529" lon="2.11924">
        <ele>136</ele>
        <time>2011-04-15T11:18:20Z</time>
      </trkpt>
      <trkpt lat="48.45525" lon="2.11926">
        <ele>136</ele>
        <time>2011-04-15T11:18:21Z</time>
      </trkpt>
      <trkpt lat="48.45521" lon="2.11928">
        <ele>136</ele>
        <time>2011-04-15T11:18:22Z</time>
      </trkpt>
      <trkpt lat="48.45517" lon="2.1193">
        <ele>136</ele>
        <time>2011-04-15T11:18:23Z</time>
      </trkpt>
      <trkpt lat="48.45514" lon="2.11932">
        <ele>136</ele>
        <time>2011-04-15T11:18:24Z</time>
      </trkpt>
      <trkpt lat="48.4551" lon="2.11934">
        <ele>136</ele>
        <time>2011-04-15T11:18:25Z</time>
      </trkpt>
      <trkpt lat="48.45507" lon="2.11935">
        <ele>136</ele>
        <time>2011-04-15T11:18:26Z</time>
      </trkpt>
      <trkpt lat="48.45503" lon="2.11937">
        <ele>136</ele>
        <time>2011-04-15T11:18:27Z</time>
      </trkpt>
      <trkpt lat="48.455" lon="2.11939">
        <ele>136</ele>
        <time>2011-04-15T11:18:28Z</time>
      </trkpt>
      <trkpt lat="48.45495" lon="2.11941">
        <ele>136</ele>
        <time>2011-04-15T11:18:29Z</time>
      </trkpt>
      <trkpt lat="48.45491" lon="2.11942">
        <ele>136</ele>
        <time>2011-04-15T11:18:30Z</time>
      </trkpt>
      <trkpt lat="48.45487" lon="2.11944">
        <ele>136</ele>
        <time>2011-04-15T11:18:31Z</time>
      </trkpt>
      <trkpt lat="48.45483" lon="2.11946">
        <ele>136</ele>
        <time>2011-04-15T11:18:32Z</time>
      </trkpt>
      <trkpt lat="48.45479" lon="2.11948">
        <ele>136</ele>
        <time>2011-04-15T11:18:33Z</time>
      </trkpt>
      <trkpt lat="48.45475" lon="2.1195">
        <ele>136</ele>
        <time>2011-04-15T11:18:34Z</time>
      </trkpt>
      <trkpt lat="48.45471" lon="2.11952">
        <ele>136</ele>
        <time>2011-04-15T11:18:35Z</time>
      </trkpt>
      <trkpt lat="48.45467" lon="2.11953">
        <ele>136</ele>
        <time>2011-04-15T11:18:36Z</time>
      </trkpt>
      <trkpt lat="48.45464" lon="2.11955">
        <ele>136</ele>
        <time>2011-04-15T11:18:37Z</time>
      </trkpt>
      <trkpt lat="48.4546" lon="2.11956">
        <ele>136</ele>
        <time>2011-04-15T11:18:38Z</time>
      </trkpt>
      <trkpt lat="48.45457" lon="2.11958">
        <ele>136</ele>
        <time>2011-04-15T11:18:39Z</time>
      </trkpt>
      <trkpt lat="48.45453" lon="2.1196">
        <ele>136</ele>
        <time>2011-04-15T11:18:40Z</time>
      </trkpt>
      <trkpt lat="48.4545" lon="2.11961">
        <ele>136</ele>
        <time>2011-04-15T11:18:41Z</time>
      </trkpt>
      <trkpt lat="48.45445" lon="2.11964">
        <ele>136</ele>
        <time>2011-04-15T11:18:42Z</time>
      </trkpt>
      <trkpt lat="48.45441" lon="2.11966">
        <ele>136</ele>
        <time>2011-04-15T11:18:43Z</time>
      </trkpt>
      <trkpt lat="48.45437" lon="2.11968">
        <ele>136</ele>
        <time>2011-04-15T11:18:44Z</time>
      </trkpt>
      <trkpt lat="48.45433" lon="2.1197">
        <ele>136</ele>
        <time>2011-04-15T11:18:45Z</time>
      </trkpt>
      <trkpt lat="48.45429" lon="2.11972">
        <ele>136</ele>
        <time>2011-04-15T11:18:46Z</time>
      </trkpt>
      <trkpt lat="48.45426" lon="2.11973">
        <ele>136</ele>
        <time>2011-04-15T11:18:47Z</time>
      </trkpt>
      <trkpt lat="48.45421" lon="2.11976">
        <ele>136</ele>
        <time>2011-04-15T11:18:48Z</time>
      </trkpt>
      <trkpt lat="48.45417" lon="2.11978">
        <ele>136</ele>
        <time>2011-04-15T11:18:49Z</time>
      </trkpt>
      <trkpt lat="48.45413" lon="2.1198">
        <ele>136</ele>
        <time>2011-04-15T11:18:50Z</time>
      </trkpt>
      <trkpt lat="48.45409" lon="2.11982">
        <ele>136</ele>
        <time>2011-04-15T11:18:51Z</time>
      </trkpt>
      <trkpt lat="48.45405" lon="2.11984">
        <ele>136</ele>
        <time>2011-04-15T11:18:52Z</time>
      </trkpt>
      <trkpt lat="48.454" lon="2.11986">
        <ele>136</ele>
        <time>2011-04-15T11:18:53Z</time>
      </trkpt>
      <trkpt lat="48.45396" lon="2.11988">
        <ele>136</ele>
        <time>2011-04-15T11:18:54Z</time>
      </trkpt>
      <trkpt lat="48.45393" lon="2.11989">
        <ele>136</ele>
        <time>2011-04-15T11:18:55Z</time>
      </trkpt>
      <trkpt lat="48.45388" lon="2.11991">
        <ele>136</ele>
        <time>2011-04-15T11:18:56Z</time>
      </trkpt>
      <trkpt lat="48.45383" lon="2.11993">
        <ele>136</ele>
        <time>2011-04-15T11:18:57Z</time>
      </trkpt>
      <trkpt lat="48.45379" lon="2.11995">
        <ele>136</ele>
        <time>2011-04-15T11:18:58Z</time>
      </trkpt>
      <trkpt lat="48.45374" lon="2.11997">
        <ele>136</ele>
        <time>2011-04-15T11:18:59Z</time>
      </trkpt>
      <trkpt lat="48.45371" lon="2.11999">
        <ele>136</ele>
        <time>2011-04-15T11:19:00Z</time>
      </trkpt>
      <trkpt lat="48.45367" lon="2.12">
        <ele>136</ele>
        <time>2011-04-15T11:19:01Z</time>
      </trkpt>
      <trkpt lat="48.45363" lon="2.12002">
        <ele>136</ele>
        <time>2011-04-15T11:19:02Z</time>
      </trkpt>
      <trkpt lat="48.4536" lon="2.12004">
        <ele>136</ele>
        <time>2011-04-15T11:19:03Z</time>
      </trkpt>
      <trkpt lat="48.45356" lon="2.12005">
        <ele>136</ele>
        <time>2011-04-15T11:19:04Z</time>
      </trkpt>
      <trkpt lat="48.45352" lon="2.12007">
        <ele>136</ele>
        <time>2011-04-15T11:19:05Z</time>
      </trkpt>
      <trkpt lat="48.45348" lon="2.12008">
        <ele>136</ele>
        <time>2011-04-15T11:19:06Z</time>
      </trkpt>
      <trkpt lat="48.45345" lon="2.1201">
        <ele>136</ele>
        <time>2011-04-15T11:19:07Z</time>
      </trkpt>
      <trkpt lat="48.45341" lon="2.12011">
        <ele>136</ele>
        <time>2011-04-15T11:19:08Z</time>
      </trkpt>
      <trkpt lat="48.45337" lon="2.12013">
        <ele>136</ele>
        <time>2011-04-15T11:19:09Z</time>
      </trkpt>
      <trkpt lat="48.45333" lon="2.12014">
        <ele>136</ele>
        <time>2011-04-15T11:19:10Z</time>
      </trkpt>
      <trkpt lat="48.4533" lon="2.12016">
        <ele>136</ele>
        <time>2011-04-15T11:19:11Z</time>
      </trkpt>
      <trkpt lat="48.45326" lon="2.12018">
        <ele>136</ele>
        <time>2011-04-15T11:19:12Z</time>
      </trkpt>
      <trkpt lat="48.45322" lon="2.1202">
        <ele>136</ele>
        <time>2011-04-15T11:19:13Z</time>
      </trkpt>
      <trkpt lat="48.45318" lon="2.12021">
        <ele>136</ele>
        <time>2011-04-15T11:19:14Z</time>
      </trkpt>
      <trkpt lat="48.45315" lon="2.12024">
        <ele>136</ele>
        <time>2011-04-15T11:19:15Z</time>
      </trkpt>
      <trkpt lat="48.4531" lon="2.12026">
        <ele>136</ele>
        <time>2011-04-15T11:19:16Z</time>
      </trkpt>
      <trkpt lat="48.45306" lon="2.12029">
        <ele>136</ele>
        <time>2011-04-15T11:19:17Z</time>
      </trkpt>
      <trkpt lat="48.45302" lon="2.12031">
        <ele>136</ele>
        <time>2011-04-15T11:19:18Z</time>
      </trkpt>
      <trkpt lat="48.45298" lon="2.12033">
        <ele>136</ele>
        <time>2011-04-15T11:19:19Z</time>
      </trkpt>
      <trkpt lat="48.45294" lon="2.12036">
        <ele>136</ele>
        <time>2011-04-15T11:19:20Z</time>
      </trkpt>
      <trkpt lat="48.4529" lon="2.12038">
        <ele>136</ele>
        <time>2011-04-15T11:19:21Z</time>
      </trkpt>
      <trkpt lat="48.45286" lon="2.1204">
        <ele>136</ele>
        <time>2011-04-15T11:19:22Z</time>
      </trkpt>
      <trkpt lat="48.45282" lon="2.12043">
        <ele>136</ele>
        <time>2011-04-15T11:19:23Z</time>
      </trkpt>
      <trkpt lat="48.45277" lon="2.12046">
        <ele>136</ele>
        <time>2011-04-15T11:19:24Z</time>
      </trkpt>
      <trkpt lat="48.45273" lon="2.12048">
        <ele>136</ele>
        <time>2011-04-15T11:19:25Z</time>
      </trkpt>
      <trkpt lat="48.45269" lon="2.1205">
        <ele>136</ele>
        <time>2011-04-15T11:19:26Z</time>
      </trkpt>
      <trkpt lat="48.45265" lon="2.12053">
        <ele>136</ele>
        <time>2011-04-15T11:19:27Z</time>
      </trkpt>
      <trkpt lat="48.45261" lon="2.12055">
        <ele>136</ele>
        <time>2011-04-15T11:19:28Z</time>
      </trkpt>
      <trkpt lat="48.45257" lon="2.12058">
        <ele>136</ele>
        <time>2011-04-15T11:19:29Z</time>
      </trkpt>
      <trkpt lat="48.45252" lon="2.1206">
        <ele>136</ele>
        <time>2011-04-15T11:19:30Z</time>
      </trkpt>
      <trkpt lat="48.45248" lon="2.12063">
        <ele>136</ele>
        <time>2011-04-15T11:19:31Z</time>
      </trkpt>
      <trkpt lat="48.45243" lon="2.12066">
        <ele>136</ele>
        <time>2011-04-15T11:19:32Z</time>
      </trkpt>
      <trkpt lat="48.45239" lon="2.12069">
        <ele>136</ele>
        <time>2011-04-15T11:19:33Z</time>
      </trkpt>
      <trkpt lat="48.45235" lon="2.12072">
        <ele>136</ele>
        <time>2011-04-15T11:19:34Z</time>
      </trkpt>
      <trkpt lat="48.45232" lon="2.12074">
        <ele>136</ele>
        <time>2011-04-15T11:19:35Z</time>
      </trkpt>
      <trkpt lat="48.45228" lon="2.12076">
        <ele>136</ele>
        <time>2011-04-15T11:19:36Z</time>
      </trkpt>
      <trkpt lat="48.45225" lon="2.12079">
        <ele>136</ele>
        <time>2011-04-15T11:19:37Z</time>
      </trkpt>
      <trkpt lat="48.45221" lon="2.12081">
        <ele>136</ele>
        <time>2011-04-15T11:19:38Z</time>
      </trkpt>
      <trkpt lat="48.45218" lon="2.12084">
        <ele>136</ele>
        <time>2011-04-15T11:19:39Z</time>
      </trkpt>
      <trkpt lat="48.45214" lon="2.12087">
        <ele>136</ele>
        <time>2011-04-15T11:19:40Z</time>
      </trkpt>
      <trkpt lat="48.4521" lon="2.12089">
        <ele>136</ele>
        <time>2011-04-15T11:19:41Z</time>
      </trkpt>
      <trkpt lat="48.45206" lon="2.12092">
        <ele>136</ele>
        <time>2011-04-15T11:19:42Z</time>
      </trkpt>
      <trkpt lat="48.45202" lon="2.12094">
        <ele>136</ele>
        <time>2011-04-15T11:19:43Z</time>
      </trkpt>
      <trkpt lat="48.45199" lon="2.12096">
        <ele>136</ele>
        <time>2011-04-15T11:19:44Z</time>
      </trkpt>
      <trkpt lat="48.45196" lon="2.12098">
        <ele>136</ele>
        <time>2011-04-15T11:19:45Z</time>
      </trkpt>
      <trkpt lat="48.45193" lon="2.12101">
        <ele>136</ele>
        <time>2011-04-15T11:19:46Z</time>
      </trkpt>
      <trkpt lat="48.45189" lon="2.12104">
        <ele>136</ele>
        <time>2011-04-15T11:19:47Z</time>
      </trkpt>
      <trkpt lat="48.45185" lon="2.12106">
        <ele>136</ele>
        <time>2011-04-15T11:19:48Z</time>
      </trkpt>
      <trkpt lat="48.45181" lon="2.12109">
        <ele>136</ele>
        <time>2011-04-15T11:19:49Z</time>
      </trkpt>
      <trkpt lat="48.45177" lon="2.12113">
        <ele>136</ele>
        <time>2011-04-15T11:19:50Z</time>
      </trkpt>
      <trkpt lat="48.45174" lon="2.12116">
        <ele>136</ele>
        <time>2011-04-15T11:19:51Z</time>
      </trkpt>
      <trkpt lat="48.45171" lon="2.12118">
        <ele>136</ele>
        <time>2011-04-15T11:19:52Z</time>
      </trkpt>
      <trkpt lat="48.45167" lon="2.12121">
        <ele>136</ele>
        <time>2011-04-15T11:19:53Z</time>
      </trkpt>
      <trkpt lat="48.45164" lon="2.12124">
        <ele>136</ele>
        <time>2011-04-15T11:19:54Z</time>
      </trkpt>
      <trkpt lat="48.45161" lon="2.12127">
        <ele>136</ele>
        <time>2011-04-15T11:19:55Z</time>
      </trkpt>
      <trkpt lat="48.45157" lon="2.1213">
        <ele>136</ele>
        <time>2011-04-15T11:19:56Z</time>
      </trkpt>
      <trkpt lat="48.45153" lon="2.12133">
        <ele>136</ele>
        <time>2011-04-15T11:19:57Z</time>
      </trkpt>
      <trkpt lat="48.45149" lon="2.12137">
        <ele>136</ele>
        <time>2011-04-15T11:19:58Z</time>
      </trkpt>
      <trkpt lat="48.45145" lon="2.1214">
        <ele>136</ele>
        <time>2011-04-15T11:19:59Z</time>
      </trkpt>
      <trkpt lat="48.45141" lon="2.12143">
        <ele>136</ele>
        <time>2011-04-15T11:20:00Z</time>
      </trkpt>
      <trkpt lat="48.45137" lon="2.12145">
        <ele>136</ele>
        <time>2011-04-15T11:20:01Z</time>
      </trkpt>
      <trkpt lat="48.45133" lon="2.12148">
        <ele>136</ele>
        <time>2011-04-15T11:20:02Z</time>
      </trkpt>
      <trkpt lat="48.45129" lon="2.12151">
        <ele>136</ele>
        <time>2011-04-15T11:20:03Z</time>
      </trkpt>
      <trkpt lat="48.45125" lon="2.12154">
        <ele>136</ele>
        <time>2011-04-15T11:20:04Z</time>
      </trkpt>
      <trkpt lat="48.45121" lon="2.12156">
        <ele>136</ele>
        <time>2011-04-15T11:20:05Z</time>
      </trkpt>
      <trkpt lat="48.45117" lon="2.12159">
        <ele>136</ele>
        <time>2011-04-15T11:20:06Z</time>
      </trkpt>
      <trkpt lat="48.45114" lon="2.12162">
        <ele>136</ele>
        <time>2011-04-15T11:20:07Z</time>
      </trkpt>
      <trkpt lat="48.45112" lon="2.12163">
        <ele>136</ele>
        <time>2011-04-15T11:20:08Z</time>
      </trkpt>
      <trkpt lat="48.4511" lon="2.12164">
        <ele>136</ele>
        <time>2011-04-15T11:20:09Z</time>
      </trkpt>
      <trkpt lat="48.45108" lon="2.12165">
        <ele>136</ele>
        <time>2011-04-15T11:20:10Z</time>
      </trkpt>
      <trkpt lat="48.45106" lon="2.12166">
        <ele>136</ele>
        <time>2011-04-15T11:20:12Z</time>
      </trkpt>
      <trkpt lat="48.45104" lon="2.12168">
        <ele>136</ele>
        <time>2011-04-15T11:20:14Z</time>
      </trkpt>
      <trkpt lat="48.45103" lon="2.12168">
        <ele>136</ele>
        <time>2011-04-15T11:20:15Z</time>
      </trkpt>
      <trkpt lat="48.45101" lon="2.12169">
        <ele>136</ele>
        <time>2011-04-15T11:20:16Z</time>
      </trkpt>
      <trkpt lat="48.451" lon="2.1217">
        <ele>136</ele>
        <time>2011-04-15T11:20:17Z</time>
      </trkpt>
      <trkpt lat="48.45098" lon="2.12171">
        <ele>136</ele>
        <time>2011-04-15T11:20:18Z</time>
      </trkpt>
      <trkpt lat="48.45096" lon="2.12173">
        <ele>136</ele>
        <time>2011-04-15T11:20:19Z</time>
      </trkpt>
      <trkpt lat="48.45095" lon="2.12173">
        <ele>136</ele>
        <time>2011-04-15T11:20:20Z</time>
      </trkpt>
      <trkpt lat="48.45093" lon="2.12174">
        <ele>136</ele>
        <time>2011-04-15T11:20:21Z</time>
      </trkpt>
      <trkpt lat="48.45091" lon="2.12175">
        <ele>136</ele>
        <time>2011-04-15T11:20:22Z</time>
      </trkpt>
      <trkpt lat="48.4509" lon="2.12176">
        <ele>136</ele>
        <time>2011-04-15T11:20:23Z</time>
      </trkpt>
      <trkpt lat="48.45088" lon="2.12177">
        <ele>136</ele>
        <time>2011-04-15T11:20:24Z</time>
      </trkpt>
      <trkpt lat="48.45087" lon="2.12178">
        <ele>136</ele>
        <time>2011-04-15T11:20:25Z</time>
      </trkpt>
      <trkpt lat="48.45085" lon="2.12179">
        <ele>136</ele>
        <time>2011-04-15T11:20:26Z</time>
      </trkpt>
      <trkpt lat="48.45083" lon="2.1218">
        <ele>136</ele>
        <time>2011-04-15T11:20:27Z</time>
      </trkpt>
      <trkpt lat="48.45082" lon="2.1218">
        <ele>136</ele>
        <time>2011-04-15T11:20:28Z</time>
      </trkpt>
      <trkpt lat="48.4508" lon="2.12181">
        <ele>136</ele>
        <time>2011-04-15T11:20:29Z</time>
      </trkpt>
      <trkpt lat="48.45078" lon="2.12182">
        <ele>136</ele>
        <time>2011-04-15T11:20:30Z</time>
      </trkpt>
      <trkpt lat="48.45077" lon="2.12183">
        <ele>136</ele>
        <time>2011-04-15T11:20:31Z</time>
      </trkpt>
      <trkpt lat="48.45075" lon="2.12184">
        <ele>136</ele>
        <time>2011-04-15T11:20:32Z</time>
      </trkpt>
      <trkpt lat="48.45073" lon="2.12185">
        <ele>136</ele>
        <time>2011-04-15T11:20:33Z</time>
      </trkpt>
      <trkpt lat="48.45071" lon="2.12186">
        <ele>136</ele>
        <time>2011-04-15T11:20:34Z</time>
      </trkpt>
      <trkpt lat="48.45069" lon="2.12187">
        <ele>136</ele>
        <time>2011-04-15T11:20:35Z</time>
      </trkpt>
      <trkpt lat="48.45068" lon="2.12188">
        <ele>136</ele>
        <time>2011-04-15T11:20:36Z</time>
      </trkpt>
      <trkpt lat="48.45066" lon="2.12189">
        <ele>136</ele>
        <time>2011-04-15T11:20:37Z</time>
      </trkpt>
      <trkpt lat="48.45064" lon="2.1219">
        <ele>136</ele>
        <time>2011-04-15T11:20:38Z</time>
      </trkpt>
      <trkpt lat="48.45062" lon="2.12191">
        <ele>136</ele>
        <time>2011-04-15T11:20:39Z</time>
      </trkpt>
      <trkpt lat="48.45061" lon="2.12191">
        <ele>136</ele>
        <time>2011-04-15T11:20:40Z</time>
      </trkpt>
      <trkpt lat="48.45059" lon="2.12192">
        <ele>136</ele>
        <time>2011-04-15T11:20:41Z</time>
      </trkpt>
      <trkpt lat="48.45058" lon="2.12193">
        <ele>136</ele>
        <time>2011-04-15T11:20:42Z</time>
      </trkpt>
      <trkpt lat="48.45056" lon="2.12193">
        <ele>136</ele>
        <time>2011-04-15T11:20:43Z</time>
      </trkpt>
      <trkpt lat="48.45055" lon="2.12194">
        <ele>136</ele>
        <time>2011-04-15T11:20:44Z</time>
      </trkpt>
      <trkpt lat="48.45053" lon="2.12195">
        <ele>136</ele>
        <time>2011-04-15T11:20:45Z</time>
      </trkpt>
      <trkpt lat="48.45051" lon="2.12195">
        <ele>136</ele>
        <time>2011-04-15T11:20:46Z</time>
      </trkpt>
      <trkpt lat="48.4505" lon="2.12196">
        <ele>136</ele>
        <time>2011-04-15T11:20:47Z</time>
      </trkpt>
      <trkpt lat="48.45048" lon="2.12196">
        <ele>136</ele>
        <time>2011-04-15T11:20:48Z</time>
      </trkpt>
      <trkpt lat="48.45046" lon="2.12197">
        <ele>136</ele>
        <time>2011-04-15T11:20:49Z</time>
      </trkpt>
      <trkpt lat="48.45045" lon="2.12197">
        <ele>136</ele>
        <time>2011-04-15T11:20:50Z</time>
      </trkpt>
      <trkpt lat="48.45043" lon="2.12198">
        <ele>136</ele>
        <time>2011-04-15T11:20:51Z</time>
      </trkpt>
      <trkpt lat="48.45041" lon="2.12198">
        <ele>136</ele>
        <time>2011-04-15T11:20:52Z</time>
      </trkpt>
      <trkpt lat="48.4504" lon="2.12199">
        <ele>136</ele>
        <time>2011-04-15T11:20:53Z</time>
      </trkpt>
      <trkpt lat="48.45038" lon="2.12199">
        <ele>136</ele>
        <time>2011-04-15T11:20:54Z</time>
      </trkpt>
      <trkpt lat="48.45036" lon="2.12199">
        <ele>136</ele>
        <time>2011-04-15T11:20:55Z</time>
      </trkpt>
      <trkpt lat="48.45035" lon="2.122">
        <ele>136</ele>
        <time>2011-04-15T11:20:56Z</time>
      </trkpt>
      <trkpt lat="48.45033" lon="2.122">
        <ele>136</ele>
        <time>2011-04-15T11:20:57Z</time>
      </trkpt>
      <trkpt lat="48.45032" lon="2.122">
        <ele>136</ele>
        <time>2011-04-15T11:20:58Z</time>
      </trkpt>
      <trkpt lat="48.4503" lon="2.12201">
        <ele>136</ele>
        <time>2011-04-15T11:20:59Z</time>
      </trkpt>
      <trkpt lat="48.45029" lon="2.12201">
        <ele>136</ele>
        <time>2011-04-15T11:21:00Z</time>
      </trkpt>
      <trkpt lat="48.45027" lon="2.12202">
        <ele>136</ele>
        <time>2011-04-15T11:21:01Z</time>
      </trkpt>
      <trkpt lat="48.45025" lon="2.12202">
        <ele>136</ele>
        <time>2011-04-15T11:21:02Z</time>
      </trkpt>
      <trkpt lat="48.45024" lon="2.12203">
        <ele>136</ele>
        <time>2011-04-15T11:21:03Z</time>
      </trkpt>
      <trkpt lat="48.45022" lon="2.12203">
        <ele>136</ele>
        <time>2011-04-15T11:21:04Z</time>
      </trkpt>
      <trkpt lat="48.4502" lon="2.12203">
        <ele>136</ele>
        <time>2011-04-15T11:21:05Z</time>
      </trkpt>
      <trkpt lat="48.45019" lon="2.12203">
        <ele>136</ele>
        <time>2011-04-15T11:21:06Z</time>
      </trkpt>
      <trkpt lat="48.45017" lon="2.12203">
        <ele>136</ele>
        <time>2011-04-15T11:21:07Z</time>
      </trkpt>
      <trkpt lat="48.45016" lon="2.12203">
        <ele>136</ele>
        <time>2011-04-15T11:21:08Z</time>
      </trkpt>
      <trkpt lat="48.45014" lon="2.12203">
        <ele>136</ele>
        <time>2011-04-15T11:21:09Z</time>
      </trkpt>
      <trkpt lat="48.45013" lon="2.12203">
        <ele>136</ele>
        <time>2011-04-15T11:21:10Z</time>
      </trkpt>
      <trkpt lat="48.45011" lon="2.12203">
        <ele>136</ele>
        <time>2011-04-15T11:21:11Z</time>
      </trkpt>
      <trkpt lat="48.4501" lon="2.12203">
        <ele>136</ele>
        <time>2011-04-15T11:21:12Z</time>
      </trkpt>
      <trkpt lat="48.45009" lon="2.12204">
        <ele>136</ele>
        <time>2011-04-15T11:21:13Z</time>
      </trkpt>
      <trkpt lat="48.45007" lon="2.12204">
        <ele>136</ele>
        <time>2011-04-15T11:21:14Z</time>
      </trkpt>
      <trkpt lat="48.45005" lon="2.12204">
        <ele>136</ele>
        <time>2011-04-15T11:21:16Z</time>
      </trkpt>
      <trkpt lat="48.45004" lon="2.12204">
        <ele>136</ele>
        <time>2011-04-15T11:21:17Z</time>
      </trkpt>
      <trkpt lat="48.45002" lon="2.12204">
        <ele>136</ele>
        <time>2011-04-15T11:21:18Z</time>
      </trkpt>
      <trkpt lat="48.45001" lon="2.12203">
        <ele>136</ele>
        <time>2011-04-15T11:21:19Z</time>
      </trkpt>
      <trkpt lat="48.45" lon="2.12203">
        <ele>136</ele>
        <time>2011-04-15T11:21:20Z</time>
      </trkpt>
      <trkpt lat="48.44998" lon="2.12204">
        <ele>136</ele>
        <time>2011-04-15T11:21:21Z</time>
      </trkpt>
      <trkpt lat="48.44997" lon="2.12204">
        <ele>136</ele>
        <time>2011-04-15T11:21:22Z</time>
      </trkpt>
      <trkpt lat="48.44995" lon="2.12204">
        <ele>136</ele>
        <time>2011-04-15T11:21:23Z</time>
      </trkpt>
      <trkpt lat="48.44993" lon="2.12205">
        <ele>136</ele>
        <time>2011-04-15T11:21:24Z</time>
      </trkpt>
      <trkpt lat="48.44992" lon="2.12205">
        <ele>136</ele>
        <time>2011-04-15T11:21:25Z</time>
      </trkpt>
      <trkpt lat="48.44991" lon="2.12205">
        <ele>136</ele>
        <time>2011-04-15T11:21:26Z</time>
      </trkpt>
      <trkpt lat="48.44989" lon="2.12206">
        <ele>136</ele>
        <time>2011-04-15T11:21:27Z</time>
      </trkpt>
      <trkpt lat="48.44987" lon="2.12207">
        <ele>136</ele>
        <time>2011-04-15T11:21:28Z</time>
      </trkpt>
      <trkpt lat="48.44985" lon="2.12207">
        <ele>136</ele>
        <time>2011-04-15T11:21:29Z</time>
      </trkpt>
      <trkpt lat="48.44984" lon="2.12208">
        <ele>136</ele>
        <time>2011-04-15T11:21:30Z</time>
      </trkpt>
      <trkpt lat="48.44982" lon="2.12208">
        <ele>136</ele>
        <time>2011-04-15T11:21:31Z</time>
      </trkpt>
      <trkpt lat="48.44981" lon="2.12209">
        <ele>136</ele>
        <time>2011-04-15T11:21:32Z</time>
      </trkpt>
      <trkpt lat="48.44979" lon="2.1221">
        <ele>136</ele>
        <time>2011-04-15T11:21:33Z</time>
      </trkpt>
      <trkpt lat="48.44977" lon="2.12213">
        <ele>136</ele>
        <time>2011-04-15T11:21:34Z</time>
      </trkpt>
      <trkpt lat="48.44975" lon="2.12214">
        <ele>136</ele>
        <time>2011-04-15T11:21:35Z</time>
      </trkpt>
      <trkpt lat="48.44973" lon="2.12216">
        <ele>136</ele>
        <time>2011-04-15T11:21:36Z</time>
      </trkpt>
      <trkpt lat="48.44972" lon="2.12219">
        <ele>136</ele>
        <time>2011-04-15T11:21:37Z</time>
      </trkpt>
      <trkpt lat="48.4497" lon="2.12221">
        <ele>136</ele>
        <time>2011-04-15T11:21:38Z</time>
      </trkpt>
      <trkpt lat="48.44969" lon="2.12223">
        <ele>136</ele>
        <time>2011-04-15T11:21:39Z</time>
      </trkpt>
      <trkpt lat="48.44968" lon="2.12224">
        <ele>136</ele>
        <time>2011-04-15T11:21:40Z</time>
      </trkpt>
      <trkpt lat="48.44967" lon="2.12226">
        <ele>136</ele>
        <time>2011-04-15T11:21:41Z</time>
      </trkpt>
      <trkpt lat="48.44966" lon="2.12228">
        <ele>136</ele>
        <time>2011-04-15T11:21:42Z</time>
      </trkpt>
      <trkpt lat="48.44964" lon="2.1223">
        <ele>136</ele>
        <time>2011-04-15T11:21:43Z</time>
      </trkpt>
      <trkpt lat="48.44963" lon="2.12232">
        <ele>136</ele>
        <time>2011-04-15T11:21:44Z</time>
      </trkpt>
      <trkpt lat="48.44962" lon="2.12233">
        <ele>136</ele>
        <time>2011-04-15T11:21:45Z</time>
      </trkpt>
      <trkpt lat="48.44961" lon="2.12235">
        <ele>136</ele>
        <time>2011-04-15T11:21:46Z</time>
      </trkpt>
      <trkpt lat="48.4496" lon="2.12236">
        <ele>136</ele>
        <time>2011-04-15T11:21:47Z</time>
      </trkpt>
      <trkpt lat="48.44958" lon="2.12238">
        <ele>136</ele>
        <time>2011-04-15T11:21:48Z</time>
      </trkpt>
      <trkpt lat="48.44956" lon="2.12239">
        <ele>136</ele>
        <time>2011-04-15T11:21:49Z</time>
      </trkpt>
      <trkpt lat="48.44955" lon="2.1224">
        <ele>136</ele>
        <time>2011-04-15T11:21:50Z</time>
      </trkpt>
      <trkpt lat="48.44953" lon="2.12241">
        <ele>136</ele>
        <time>2011-04-15T11:21:51Z</time>
      </trkpt>
      <trkpt lat="48.44952" lon="2.12242">
        <ele>136</ele>
        <time>2011-04-15T11:21:52Z</time>
      </trkpt>
      <trkpt lat="48.44951" lon="2.12243">
        <ele>136</ele>
        <time>2011-04-15T11:21:53Z</time>
      </trkpt>
      <trkpt lat="48.44949" lon="2.12245">
        <ele>136</ele>
        <time>2011-04-15T11:21:54Z</time>
      </trkpt>
      <trkpt lat="48.44948" lon="2.12246">
        <ele>136</ele>
        <time>2011-04-15T11:21:55Z</time>
      </trkpt>
      <trkpt lat="48.44947" lon="2.12247">
        <ele>136</ele>
        <time>2011-04-15T11:21:56Z</time>
      </trkpt>
      <trkpt lat="48.44945" lon="2.12248">
        <ele>136</ele>
        <time>2011-04-15T11:21:57Z</time>
      </trkpt>
      <trkpt lat="48.44944" lon="2.12248">
        <ele>136</ele>
        <time>2011-04-15T11:21:58Z</time>
      </trkpt>
      <trkpt lat="48.44943" lon="2.12249">
        <ele>136</ele>
        <time>2011-04-15T11:21:59Z</time>
      </trkpt>
      <trkpt lat="48.44941" lon="2.12249">
        <ele>136</ele>
        <time>2011-04-15T11:22:00Z</time>
      </trkpt>
      <trkpt lat="48.4494" lon="2.1225">
        <ele>136</ele>
        <time>2011-04-15T11:22:01Z</time>
      </trkpt>
      <trkpt lat="48.44938" lon="2.1225">
        <ele>136</ele>
        <time>2011-04-15T11:22:03Z</time>
      </trkpt>
      <trkpt lat="48.4494" lon="2.12248">
        <ele>136</ele>
        <time>2011-04-15T11:22:10Z</time>
      </trkpt>
      <trkpt lat="48.44942" lon="2.12248">
        <ele>136</ele>
        <time>2011-04-15T11:22:12Z</time>
      </trkpt>
      <trkpt lat="48.44943" lon="2.12248">
        <ele>136</ele>
        <time>2011-04-15T11:22:13Z</time>
      </trkpt>
      <trkpt lat="48.44944" lon="2.12248">
        <ele>136</ele>
        <time>2011-04-15T11:22:14Z</time>
      </trkpt>
      <trkpt lat="48.44946" lon="2.12248">
        <ele>136</ele>
        <time>2011-04-15T11:22:16Z</time>
      </trkpt>
      <trkpt lat="48.44948" lon="2.12247">
        <ele>136</ele>
        <time>2011-04-15T11:22:18Z</time>
      </trkpt>
      <trkpt lat="48.4495" lon="2.12245">
        <ele>136</ele>
        <time>2011-04-15T11:22:20Z</time>
      </trkpt>
      <trkpt lat="48.44952" lon="2.12243">
        <ele>136</ele>
        <time>2011-04-15T11:22:22Z</time>
      </trkpt>
      <trkpt lat="48.44953" lon="2.12242">
        <ele>136</ele>
        <time>2011-04-15T11:22:23Z</time>
      </trkpt>
      <trkpt lat="48.44955" lon="2.12241">
        <ele>136</ele>
        <time>2011-04-15T11:22:24Z</time>
      </trkpt>
      <trkpt lat="48.44956" lon="2.1224">
        <ele>136</ele>
        <time>2011-04-15T11:22:25Z</time>
      </trkpt>
      <trkpt lat="48.44957" lon="2.12238">
        <ele>136</ele>
        <time>2011-04-15T11:22:26Z</time>
      </trkpt>
      <trkpt lat="48.44958" lon="2.12237">
        <ele>136</ele>
        <time>2011-04-15T11:22:27Z</time>
      </trkpt>
      <trkpt lat="48.4496" lon="2.12235">
        <ele>136</ele>
        <time>2011-04-15T11:22:29Z</time>
      </trkpt>
      <trkpt lat="48.44962" lon="2.12232">
        <ele>136</ele>
        <time>2011-04-15T11:22:31Z</time>
      </trkpt>
      <trkpt lat="48.44963" lon="2.1223">
        <ele>136</ele>
        <time>2011-04-15T11:22:32Z</time>
      </trkpt>
      <trkpt lat="48.44964" lon="2.12227">
        <ele>136</ele>
        <time>2011-04-15T11:22:33Z</time>
      </trkpt>
      <trkpt lat="48.44966" lon="2.12225">
        <ele>136</ele>
        <time>2011-04-15T11:22:34Z</time>
      </trkpt>
      <trkpt lat="48.44967" lon="2.12222">
        <ele>136</ele>
        <time>2011-04-15T11:22:35Z</time>
      </trkpt>
      <trkpt lat="48.44969" lon="2.12219">
        <ele>136</ele>
        <time>2011-04-15T11:22:36Z</time>
      </trkpt>
      <trkpt lat="48.44972" lon="2.12216">
        <ele>136</ele>
        <time>2011-04-15T11:22:37Z</time>
      </trkpt>
      <trkpt lat="48.44974" lon="2.12214">
        <ele>136</ele>
        <time>2011-04-15T11:22:38Z</time>
      </trkpt>
      <trkpt lat="48.44976" lon="2.12211">
        <ele>136</ele>
        <time>2011-04-15T11:22:39Z</time>
      </trkpt>
      <trkpt lat="48.44979" lon="2.1221">
        <ele>136</ele>
        <time>2011-04-15T11:22:40Z</time>
      </trkpt>
      <trkpt lat="48.44982" lon="2.12208">
        <ele>136</ele>
        <time>2011-04-15T11:22:41Z</time>
      </trkpt>
      <trkpt lat="48.44985" lon="2.12206">
        <ele>136</ele>
        <time>2011-04-15T11:22:42Z</time>
      </trkpt>
      <trkpt lat="48.44988" lon="2.12205">
        <ele>136</ele>
        <time>2011-04-15T11:22:43Z</time>
      </trkpt>
      <trkpt lat="48.44991" lon="2.12204">
        <ele>136</ele>
        <time>2011-04-15T11:22:44Z</time>
      </trkpt>
      <trkpt lat="48.44994" lon="2.12203">
        <ele>136</ele>
        <time>2011-04-15T11:22:45Z</time>
      </trkpt>
      <trkpt lat="48.44998" lon="2.12203">
        <ele>136</ele>
        <time>2011-04-15T11:22:46Z</time>
      </trkpt>
      <trkpt lat="48.45001" lon="2.12202">
        <ele>136</ele>
        <time>2011-04-15T11:22:47Z</time>
      </trkpt>
      <trkpt lat="48.45005" lon="2.12202">
        <ele>136</ele>
        <time>2011-04-15T11:22:48Z</time>
      </trkpt>
      <trkpt lat="48.45009" lon="2.12202">
        <ele>136</ele>
        <time>2011-04-15T11:22:49Z</time>
      </trkpt>
      <trkpt lat="48.45012" lon="2.12201">
        <ele>136</ele>
        <time>2011-04-15T11:22:50Z</time>
      </trkpt>
      <trkpt lat="48.45015" lon="2.12201">
        <ele>136</ele>
        <time>2011-04-15T11:22:51Z</time>
      </trkpt>
      <trkpt lat="48.45019" lon="2.122">
        <ele>136</ele>
        <time>2011-04-15T11:22:52Z</time>
      </trkpt>
      <trkpt lat="48.45022" lon="2.122">
        <ele>136</ele>
        <time>2011-04-15T11:22:53Z</time>
      </trkpt>
      <trkpt lat="48.45025" lon="2.12199">
        <ele>136</ele>
        <time>2011-04-15T11:22:54Z</time>
      </trkpt>
      <trkpt lat="48.45029" lon="2.12199">
        <ele>136</ele>
        <time>2011-04-15T11:22:55Z</time>
      </trkpt>
      <trkpt lat="48.45032" lon="2.12198">
        <ele>136</ele>
        <time>2011-04-15T11:22:56Z</time>
      </trkpt>
      <trkpt lat="48.45036" lon="2.12197">
        <ele>136</ele>
        <time>2011-04-15T11:22:57Z</time>
      </trkpt>
      <trkpt lat="48.4504" lon="2.12196">
        <ele>136</ele>
        <time>2011-04-15T11:22:58Z</time>
      </trkpt>
      <trkpt lat="48.45044" lon="2.12195">
        <ele>136</ele>
        <time>2011-04-15T11:22:59Z</time>
      </trkpt>
      <trkpt lat="48.45048" lon="2.12194">
        <ele>136</ele>
        <time>2011-04-15T11:23:00Z</time>
      </trkpt>
      <trkpt lat="48.45052" lon="2.12193">
        <ele>136</ele>
        <time>2011-04-15T11:23:01Z</time>
      </trkpt>
      <trkpt lat="48.45055" lon="2.12191">
        <ele>136</ele>
        <time>2011-04-15T11:23:02Z</time>
      </trkpt>
      <trkpt lat="48.45059" lon="2.1219">
        <ele>136</ele>
        <time>2011-04-15T11:23:03Z</time>
      </trkpt>
      <trkpt lat="48.45063" lon="2.12188">
        <ele>136</ele>
        <time>2011-04-15T11:23:04Z</time>
      </trkpt>
      <trkpt lat="48.45066" lon="2.12187">
        <ele>136</ele>
        <time>2011-04-15T11:23:05Z</time>
      </trkpt>
      <trkpt lat="48.4507" lon="2.12185">
        <ele>136</ele>
        <time>2011-04-15T11:23:06Z</time>
      </trkpt>
      <trkpt lat="48.45074" lon="2.12183">
        <ele>136</ele>
        <time>2011-04-15T11:23:07Z</time>
      </trkpt>
      <trkpt lat="48.45078" lon="2.12181">
        <ele>136</ele>
        <time>2011-04-15T11:23:08Z</time>
      </trkpt>
      <trkpt lat="48.45082" lon="2.1218">
        <ele>136</ele>
        <time>2011-04-15T11:23:09Z</time>
      </trkpt>
      <trkpt lat="48.45085" lon="2.12178">
        <ele>136</ele>
        <time>2011-04-15T11:23:10Z</time>
      </trkpt>
      <trkpt lat="48.45089" lon="2.12177">
        <ele>136</ele>
        <time>2011-04-15T11:23:11Z</time>
      </trkpt>
      <trkpt lat="48.45092" lon="2.12175">
        <ele>136</ele>
        <time>2011-04-15T11:23:12Z</time>
      </trkpt>
      <trkpt lat="48.45095" lon="2.12174">
        <ele>136</ele>
        <time>2011-04-15T11:23:13Z</time>
      </trkpt>
      <trkpt lat="48.45098" lon="2.12172">
        <ele>137</ele>
        <time>2011-04-15T11:23:14Z</time>
      </trkpt>
      <trkpt lat="48.451" lon="2.1217">
        <ele>137</ele>
        <time>2011-04-15T11:23:15Z</time>
      </trkpt>
      <trkpt lat="48.45101" lon="2.12168">
        <ele>137</ele>
        <time>2011-04-15T11:23:16Z</time>
      </trkpt>
      <trkpt lat="48.45102" lon="2.12166">
        <ele>137</ele>
        <time>2011-04-15T11:23:17Z</time>
      </trkpt>
      <trkpt lat="48.45102" lon="2.12164">
        <ele>137</ele>
        <time>2011-04-15T11:23:19Z</time>
      </trkpt>
      <trkpt lat="48.45102" lon="2.12166">
        <ele>138</ele>
        <time>2011-04-15T11:23:26Z</time>
      </trkpt>
      <trkpt lat="48.45104" lon="2.12167">
        <ele>138</ele>
        <time>2011-04-15T11:23:28Z</time>
      </trkpt>
      <trkpt lat="48.45105" lon="2.12169">
        <ele>138</ele>
        <time>2011-04-15T11:23:30Z</time>
      </trkpt>
      <trkpt lat="48.45103" lon="2.12171">
        <ele>138</ele>
        <time>2011-04-15T11:23:33Z</time>
      </trkpt>
      <trkpt lat="48.45105" lon="2.12171">
        <ele>138</ele>
        <time>2011-04-15T11:23:58Z</time>
      </trkpt>
      <trkpt lat="48.45106" lon="2.12169">
        <ele>138</ele>
        <time>2011-04-15T11:24:04Z</time>
      </trkpt>
      <trkpt lat="48.45106" lon="2.12165">
        <ele>138</ele>
        <time>2011-04-15T11:24:06Z</time>
      </trkpt>
      <trkpt lat="48.45104" lon="2.12162">
        <ele>138</ele>
        <time>2011-04-15T11:24:08Z</time>
      </trkpt>
      <trkpt lat="48.45103" lon="2.1216">
        <ele>138</ele>
        <time>2011-04-15T11:24:09Z</time>
      </trkpt>
      <trkpt lat="48.45103" lon="2.12158">
        <ele>138</ele>
        <time>2011-04-15T11:24:10Z</time>
      </trkpt>
      <trkpt lat="48.45102" lon="2.12156">
        <ele>138</ele>
        <time>2011-04-15T11:24:11Z</time>
      </trkpt>
      <trkpt lat="48.45102" lon="2.12154">
        <ele>138</ele>
        <time>2011-04-15T11:24:12Z</time>
      </trkpt>
      <trkpt lat="48.45101" lon="2.12152">
        <ele>138</ele>
        <time>2011-04-15T11:24:13Z</time>
      </trkpt>
      <trkpt lat="48.45101" lon="2.12149">
        <ele>138</ele>
        <time>2011-04-15T11:24:14Z</time>
      </trkpt>
      <trkpt lat="48.45101" lon="2.12148">
        <ele>138</ele>
        <time>2011-04-15T11:24:15Z</time>
      </trkpt>
      <trkpt lat="48.451" lon="2.12146">
        <ele>138</ele>
        <time>2011-04-15T11:24:16Z</time>
      </trkpt>
      <trkpt lat="48.451" lon="2.12143">
        <ele>138</ele>
        <time>2011-04-15T11:24:17Z</time>
      </trkpt>
      <trkpt lat="48.451" lon="2.12141">
        <ele>138</ele>
        <time>2011-04-15T11:24:18Z</time>
      </trkpt>
      <trkpt lat="48.45099" lon="2.12139">
        <ele>138</ele>
        <time>2011-04-15T11:24:19Z</time>
      </trkpt>
      <trkpt lat="48.45099" lon="2.12137">
        <ele>138</ele>
        <time>2011-04-15T11:24:20Z</time>
      </trkpt>
      <trkpt lat="48.45099" lon="2.12135">
        <ele>138</ele>
        <time>2011-04-15T11:24:21Z</time>
      </trkpt>
      <trkpt lat="48.45098" lon="2.12133">
        <ele>138</ele>
        <time>2011-04-15T11:24:22Z</time>
      </trkpt>
      <trkpt lat="48.45098" lon="2.12131">
        <ele>138</ele>
        <time>2011-04-15T11:24:23Z</time>
      </trkpt>
      <trkpt lat="48.45098" lon="2.12129">
        <ele>138</ele>
        <time>2011-04-15T11:24:24Z</time>
      </trkpt>
      <trkpt lat="48.45097" lon="2.12127">
        <ele>138</ele>
        <time>2011-04-15T11:24:25Z</time>
      </trkpt>
      <trkpt lat="48.45096" lon="2.12125">
        <ele>138</ele>
        <time>2011-04-15T11:24:26Z</time>
      </trkpt>
      <trkpt lat="48.45096" lon="2.12123">
        <ele>138</ele>
        <time>2011-04-15T11:24:27Z</time>
      </trkpt>
      <trkpt lat="48.45095" lon="2.1212">
        <ele>138</ele>
        <time>2011-04-15T11:24:28Z</time>
      </trkpt>
      <trkpt lat="48.45095" lon="2.12118">
        <ele>138</ele>
        <time>2011-04-15T11:24:29Z</time>
      </trkpt>
      <trkpt lat="48.45095" lon="2.12116">
        <ele>138</ele>
        <time>2011-04-15T11:24:30Z</time>
      </trkpt>
      <trkpt lat="48.45094" lon="2.12113">
        <ele>138</ele>
        <time>2011-04-15T11:24:31Z</time>
      </trkpt>
      <trkpt lat="48.45094" lon="2.12111">
        <ele>138</ele>
        <time>2011-04-15T11:24:32Z</time>
      </trkpt>
      <trkpt lat="48.45093" lon="2.12109">
        <ele>138</ele>
        <time>2011-04-15T11:24:33Z</time>
      </trkpt>
      <trkpt lat="48.45093" lon="2.12107">
        <ele>138</ele>
        <time>2011-04-15T11:24:34Z</time>
      </trkpt>
      <trkpt lat="48.45092" lon="2.12105">
        <ele>138</ele>
        <time>2011-04-15T11:24:35Z</time>
      </trkpt>
      <trkpt lat="48.45092" lon="2.12103">
        <ele>138</ele>
        <time>2011-04-15T11:24:36Z</time>
      </trkpt>
      <trkpt lat="48.4509" lon="2.12102">
        <ele>138</ele>
        <time>2011-04-15T11:24:38Z</time>
      </trkpt>
      <trkpt lat="48.45088" lon="2.12102">
        <ele>138</ele>
        <time>2011-04-15T11:24:39Z</time>
      </trkpt>
      <trkpt lat="48.45087" lon="2.12102">
        <ele>138</ele>
        <time>2011-04-15T11:24:40Z</time>
      </trkpt>
      <trkpt lat="48.45086" lon="2.12102">
        <ele>138</ele>
        <time>2011-04-15T11:24:41Z</time>
      </trkpt>
      <trkpt lat="48.45084" lon="2.12103">
        <ele>138</ele>
        <time>2011-04-15T11:24:42Z</time>
      </trkpt>
      <trkpt lat="48.45083" lon="2.12103">
        <ele>138</ele>
        <time>2011-04-15T11:24:43Z</time>
      </trkpt>
      <trkpt lat="48.45082" lon="2.12103">
        <ele>138</ele>
        <time>2011-04-15T11:24:44Z</time>
      </trkpt>
      <trkpt lat="48.4508" lon="2.12104">
        <ele>138</ele>
        <time>2011-04-15T11:24:45Z</time>
      </trkpt>
      <trkpt lat="48.45078" lon="2.12104">
        <ele>138</ele>
        <time>2011-04-15T11:24:46Z</time>
      </trkpt>
      <trkpt lat="48.45077" lon="2.12104">
        <ele>138</ele>
        <time>2011-04-15T11:24:47Z</time>
      </trkpt>
      <trkpt lat="48.45075" lon="2.12105">
        <ele>138</ele>
        <time>2011-04-15T11:24:48Z</time>
      </trkpt>
      <trkpt lat="48.45074" lon="2.12105">
        <ele>138</ele>
        <time>2011-04-15T11:24:49Z</time>
      </trkpt>
      <trkpt lat="48.45073" lon="2.12105">
        <ele>138</ele>
        <time>2011-04-15T11:24:50Z</time>
      </trkpt>
      <trkpt lat="48.45071" lon="2.12105">
        <ele>138</ele>
        <time>2011-04-15T11:24:51Z</time>
      </trkpt>
      <trkpt lat="48.4507" lon="2.12104">
        <ele>138</ele>
        <time>2011-04-15T11:24:52Z</time>
      </trkpt>
      <trkpt lat="48.45068" lon="2.12105">
        <ele>138</ele>
        <time>2011-04-15T11:24:53Z</time>
      </trkpt>
      <trkpt lat="48.45067" lon="2.12105">
        <ele>138</ele>
        <time>2011-04-15T11:24:54Z</time>
      </trkpt>
      <trkpt lat="48.45065" lon="2.12105">
        <ele>138</ele>
        <time>2011-04-15T11:24:55Z</time>
      </trkpt>
      <trkpt lat="48.45064" lon="2.12106">
        <ele>138</ele>
        <time>2011-04-15T11:24:56Z</time>
      </trkpt>
      <trkpt lat="48.45062" lon="2.12106">
        <ele>138</ele>
        <time>2011-04-15T11:24:57Z</time>
      </trkpt>
      <trkpt lat="48.45061" lon="2.12106">
        <ele>138</ele>
        <time>2011-04-15T11:24:58Z</time>
      </trkpt>
      <trkpt lat="48.45059" lon="2.12107">
        <ele>138</ele>
        <time>2011-04-15T11:24:59Z</time>
      </trkpt>
      <trkpt lat="48.45057" lon="2.12107">
        <ele>138</ele>
        <time>2011-04-15T11:25:00Z</time>
      </trkpt>
      <trkpt lat="48.45055" lon="2.12107">
        <ele>138</ele>
        <time>2011-04-15T11:25:01Z</time>
      </trkpt>
      <trkpt lat="48.45053" lon="2.12107">
        <ele>138</ele>
        <time>2011-04-15T11:25:02Z</time>
      </trkpt>
      <trkpt lat="48.45051" lon="2.12108">
        <ele>138</ele>
        <time>2011-04-15T11:25:03Z</time>
      </trkpt>
      <trkpt lat="48.45049" lon="2.12108">
        <ele>138</ele>
        <time>2011-04-15T11:25:04Z</time>
      </trkpt>
      <trkpt lat="48.45047" lon="2.12109">
        <ele>138</ele>
        <time>2011-04-15T11:25:05Z</time>
      </trkpt>
      <trkpt lat="48.45045" lon="2.1211">
        <ele>138</ele>
        <time>2011-04-15T11:25:06Z</time>
      </trkpt>
      <trkpt lat="48.45043" lon="2.1211">
        <ele>138</ele>
        <time>2011-04-15T11:25:07Z</time>
      </trkpt>
      <trkpt lat="48.45042" lon="2.1211">
        <ele>138</ele>
        <time>2011-04-15T11:25:08Z</time>
      </trkpt>
      <trkpt lat="48.45041" lon="2.12111">
        <ele>138</ele>
        <time>2011-04-15T11:25:09Z</time>
      </trkpt>
      <trkpt lat="48.45039" lon="2.12111">
        <ele>138</ele>
        <time>2011-04-15T11:25:10Z</time>
      </trkpt>
      <trkpt lat="48.45037" lon="2.12111">
        <ele>138</ele>
        <time>2011-04-15T11:25:11Z</time>
      </trkpt>
      <trkpt lat="48.45036" lon="2.12112">
        <ele>138</ele>
        <time>2011-04-15T11:25:12Z</time>
      </trkpt>
      <trkpt lat="48.45034" lon="2.12112">
        <ele>138</ele>
        <time>2011-04-15T11:25:13Z</time>
      </trkpt>
      <trkpt lat="48.45033" lon="2.12112">
        <ele>138</ele>
        <time>2011-04-15T11:25:14Z</time>
      </trkpt>
      <trkpt lat="48.45031" lon="2.12112">
        <ele>138</ele>
        <time>2011-04-15T11:25:15Z</time>
      </trkpt>
      <trkpt lat="48.4503" lon="2.12113">
        <ele>138</ele>
        <time>2011-04-15T11:25:16Z</time>
      </trkpt>
      <trkpt lat="48.45028" lon="2.12113">
        <ele>138</ele>
        <time>2011-04-15T11:25:17Z</time>
      </trkpt>
      <trkpt lat="48.45027" lon="2.12113">
        <ele>138</ele>
        <time>2011-04-15T11:25:18Z</time>
      </trkpt>
      <trkpt lat="48.45025" lon="2.12114">
        <ele>138</ele>
        <time>2011-04-15T11:25:19Z</time>
      </trkpt>
      <trkpt lat="48.45024" lon="2.12114">
        <ele>138</ele>
        <time>2011-04-15T11:25:20Z</time>
      </trkpt>
      <trkpt lat="48.45022" lon="2.12115">
        <ele>138</ele>
        <time>2011-04-15T11:25:21Z</time>
      </trkpt>
      <trkpt lat="48.45021" lon="2.12115">
        <ele>138</ele>
        <time>2011-04-15T11:25:22Z</time>
      </trkpt>
      <trkpt lat="48.45019" lon="2.12115">
        <ele>138</ele>
        <time>2011-04-15T11:25:23Z</time>
      </trkpt>
      <trkpt lat="48.45018" lon="2.12115">
        <ele>138</ele>
        <time>2011-04-15T11:25:24Z</time>
      </trkpt>
      <trkpt lat="48.45017" lon="2.12115">
        <ele>138</ele>
        <time>2011-04-15T11:25:25Z</time>
      </trkpt>
      <trkpt lat="48.45015" lon="2.12116">
        <ele>138</ele>
        <time>2011-04-15T11:25:26Z</time>
      </trkpt>
      <trkpt lat="48.45014" lon="2.12116">
        <ele>138</ele>
        <time>2011-04-15T11:25:27Z</time>
      </trkpt>
      <trkpt lat="48.45013" lon="2.12116">
        <ele>138</ele>
        <time>2011-04-15T11:25:28Z</time>
      </trkpt>
      <trkpt lat="48.45011" lon="2.12117">
        <ele>137</ele>
        <time>2011-04-15T11:25:29Z</time>
      </trkpt>
      <trkpt lat="48.4501" lon="2.12117">
        <ele>137</ele>
        <time>2011-04-15T11:25:30Z</time>
      </trkpt>
      <trkpt lat="48.45008" lon="2.12117">
        <ele>137</ele>
        <time>2011-04-15T11:25:31Z</time>
      </trkpt>
      <trkpt lat="48.45007" lon="2.12117">
        <ele>137</ele>
        <time>2011-04-15T11:25:32Z</time>
      </trkpt>
      <trkpt lat="48.45006" lon="2.12117">
        <ele>137</ele>
        <time>2011-04-15T11:25:33Z</time>
      </trkpt>
      <trkpt lat="48.45004" lon="2.12118">
        <ele>137</ele>
        <time>2011-04-15T11:25:34Z</time>
      </trkpt>
      <trkpt lat="48.45002" lon="2.12118">
        <ele>137</ele>
        <time>2011-04-15T11:25:35Z</time>
      </trkpt>
      <trkpt lat="48.45001" lon="2.12118">
        <ele>137</ele>
        <time>2011-04-15T11:25:36Z</time>
      </trkpt>
      <trkpt lat="48.44999" lon="2.12119">
        <ele>137</ele>
        <time>2011-04-15T11:25:37Z</time>
      </trkpt>
      <trkpt lat="48.44998" lon="2.12119">
        <ele>137</ele>
        <time>2011-04-15T11:25:38Z</time>
      </trkpt>
      <trkpt lat="48.44997" lon="2.1212">
        <ele>136</ele>
        <time>2011-04-15T11:25:39Z</time>
      </trkpt>
      <trkpt lat="48.44995" lon="2.1212">
        <ele>136</ele>
        <time>2011-04-15T11:25:40Z</time>
      </trkpt>
      <trkpt lat="48.44994" lon="2.12121">
        <ele>136</ele>
        <time>2011-04-15T11:25:41Z</time>
      </trkpt>
      <trkpt lat="48.44992" lon="2.12121">
        <ele>136</ele>
        <time>2011-04-15T11:25:42Z</time>
      </trkpt>
      <trkpt lat="48.44991" lon="2.12122">
        <ele>136</ele>
        <time>2011-04-15T11:25:43Z</time>
      </trkpt>
      <trkpt lat="48.44989" lon="2.12122">
        <ele>136</ele>
        <time>2011-04-15T11:25:44Z</time>
      </trkpt>
      <trkpt lat="48.44988" lon="2.12123">
        <ele>136</ele>
        <time>2011-04-15T11:25:45Z</time>
      </trkpt>
      <trkpt lat="48.44986" lon="2.12123">
        <ele>135</ele>
        <time>2011-04-15T11:25:46Z</time>
      </trkpt>
      <trkpt lat="48.44985" lon="2.12124">
        <ele>135</ele>
        <time>2011-04-15T11:25:47Z</time>
      </trkpt>
      <trkpt lat="48.44984" lon="2.12125">
        <ele>135</ele>
        <time>2011-04-15T11:25:48Z</time>
      </trkpt>
      <trkpt lat="48.44982" lon="2.12126">
        <ele>135</ele>
        <time>2011-04-15T11:25:49Z</time>
      </trkpt>
      <trkpt lat="48.44981" lon="2.12127">
        <ele>134</ele>
        <time>2011-04-15T11:25:50Z</time>
      </trkpt>
      <trkpt lat="48.4498" lon="2.12128">
        <ele>134</ele>
        <time>2011-04-15T11:25:51Z</time>
      </trkpt>
      <trkpt lat="48.44979" lon="2.12129">
        <ele>134</ele>
        <time>2011-04-15T11:25:52Z</time>
      </trkpt>
      <trkpt lat="48.44977" lon="2.1213">
        <ele>134</ele>
        <time>2011-04-15T11:25:53Z</time>
      </trkpt>
      <trkpt lat="48.44976" lon="2.12131">
        <ele>134</ele>
        <time>2011-04-15T11:25:54Z</time>
      </trkpt>
      <trkpt lat="48.44974" lon="2.12132">
        <ele>133</ele>
        <time>2011-04-15T11:25:55Z</time>
      </trkpt>
      <trkpt lat="48.44973" lon="2.12133">
        <ele>133</ele>
        <time>2011-04-15T11:25:56Z</time>
      </trkpt>
      <trkpt lat="48.44971" lon="2.12133">
        <ele>133</ele>
        <time>2011-04-15T11:25:57Z</time>
      </trkpt>
      <trkpt lat="48.4497" lon="2.12134">
        <ele>133</ele>
        <time>2011-04-15T11:25:58Z</time>
      </trkpt>
      <trkpt lat="48.44968" lon="2.12136">
        <ele>133</ele>
        <time>2011-04-15T11:25:59Z</time>
      </trkpt>
      <trkpt lat="48.44965" lon="2.12138">
        <ele>133</ele>
        <time>2011-04-15T11:26:00Z</time>
      </trkpt>
      <trkpt lat="48.44963" lon="2.1214">
        <ele>133</ele>
        <time>2011-04-15T11:26:01Z</time>
      </trkpt>
      <trkpt lat="48.44961" lon="2.12143">
        <ele>133</ele>
        <time>2011-04-15T11:26:02Z</time>
      </trkpt>
      <trkpt lat="48.44958" lon="2.12145">
        <ele>133</ele>
        <time>2011-04-15T11:26:03Z</time>
      </trkpt>
      <trkpt lat="48.44957" lon="2.12147">
        <ele>133</ele>
        <time>2011-04-15T11:26:04Z</time>
      </trkpt>
      <trkpt lat="48.44955" lon="2.12149">
        <ele>133</ele>
        <time>2011-04-15T11:26:05Z</time>
      </trkpt>
      <trkpt lat="48.44954" lon="2.12151">
        <ele>132</ele>
        <time>2011-04-15T11:26:06Z</time>
      </trkpt>
      <trkpt lat="48.44953" lon="2.12152">
        <ele>132</ele>
        <time>2011-04-15T11:26:07Z</time>
      </trkpt>
      <trkpt lat="48.44952" lon="2.12154">
        <ele>132</ele>
        <time>2011-04-15T11:26:08Z</time>
      </trkpt>
      <trkpt lat="48.4495" lon="2.12156">
        <ele>132</ele>
        <time>2011-04-15T11:26:09Z</time>
      </trkpt>
      <trkpt lat="48.44949" lon="2.12158">
        <ele>132</ele>
        <time>2011-04-15T11:26:10Z</time>
      </trkpt>
      <trkpt lat="48.44947" lon="2.1216">
        <ele>132</ele>
        <time>2011-04-15T11:26:11Z</time>
      </trkpt>
      <trkpt lat="48.44946" lon="2.12163">
        <ele>132</ele>
        <time>2011-04-15T11:26:12Z</time>
      </trkpt>
      <trkpt lat="48.44944" lon="2.12165">
        <ele>132</ele>
        <time>2011-04-15T11:26:13Z</time>
      </trkpt>
      <trkpt lat="48.44943" lon="2.12166">
        <ele>132</ele>
        <time>2011-04-15T11:26:14Z</time>
      </trkpt>
      <trkpt lat="48.44941" lon="2.12169">
        <ele>132</ele>
        <time>2011-04-15T11:26:16Z</time>
      </trkpt>
      <trkpt lat="48.4494" lon="2.12171">
        <ele>132</ele>
        <time>2011-04-15T11:26:17Z</time>
      </trkpt>
      <trkpt lat="48.44938" lon="2.12173">
        <ele>132</ele>
        <time>2011-04-15T11:26:18Z</time>
      </trkpt>
      <trkpt lat="48.44937" lon="2.12174">
        <ele>132</ele>
        <time>2011-04-15T11:26:19Z</time>
      </trkpt>
      <trkpt lat="48.44936" lon="2.12177">
        <ele>132</ele>
        <time>2011-04-15T11:26:20Z</time>
      </trkpt>
      <trkpt lat="48.44935" lon="2.12179">
        <ele>132</ele>
        <time>2011-04-15T11:26:21Z</time>
      </trkpt>
      <trkpt lat="48.44933" lon="2.12182">
        <ele>132</ele>
        <time>2011-04-15T11:26:22Z</time>
      </trkpt>
      <trkpt lat="48.44932" lon="2.12184">
        <ele>132</ele>
        <time>2011-04-15T11:26:23Z</time>
      </trkpt>
      <trkpt lat="48.44931" lon="2.12186">
        <ele>132</ele>
        <time>2011-04-15T11:26:24Z</time>
      </trkpt>
      <trkpt lat="48.44929" lon="2.12188">
        <ele>132</ele>
        <time>2011-04-15T11:26:25Z</time>
      </trkpt>
      <trkpt lat="48.44929" lon="2.1219">
        <ele>132</ele>
        <time>2011-04-15T11:26:26Z</time>
      </trkpt>
      <trkpt lat="48.44928" lon="2.12193">
        <ele>132</ele>
        <time>2011-04-15T11:26:27Z</time>
      </trkpt>
      <trkpt lat="48.44927" lon="2.12195">
        <ele>132</ele>
        <time>2011-04-15T11:26:28Z</time>
      </trkpt>
      <trkpt lat="48.44926" lon="2.12197">
        <ele>132</ele>
        <time>2011-04-15T11:26:29Z</time>
      </trkpt>
      <trkpt lat="48.44925" lon="2.12199">
        <ele>132</ele>
        <time>2011-04-15T11:26:30Z</time>
      </trkpt>
      <trkpt lat="48.44924" lon="2.12202">
        <ele>132</ele>
        <time>2011-04-15T11:26:31Z</time>
      </trkpt>
      <trkpt lat="48.44924" lon="2.12204">
        <ele>132</ele>
        <time>2011-04-15T11:26:32Z</time>
      </trkpt>
      <trkpt lat="48.44923" lon="2.12206">
        <ele>132</ele>
        <time>2011-04-15T11:26:33Z</time>
      </trkpt>
      <trkpt lat="48.44922" lon="2.12209">
        <ele>132</ele>
        <time>2011-04-15T11:26:34Z</time>
      </trkpt>
      <trkpt lat="48.44922" lon="2.12211">
        <ele>132</ele>
        <time>2011-04-15T11:26:35Z</time>
      </trkpt>
      <trkpt lat="48.44922" lon="2.12213">
        <ele>132</ele>
        <time>2011-04-15T11:26:36Z</time>
      </trkpt>
      <trkpt lat="48.44921" lon="2.12216">
        <ele>132</ele>
        <time>2011-04-15T11:26:37Z</time>
      </trkpt>
      <trkpt lat="48.4492" lon="2.12219">
        <ele>132</ele>
        <time>2011-04-15T11:26:38Z</time>
      </trkpt>
      <trkpt lat="48.44919" lon="2.12222">
        <ele>132</ele>
        <time>2011-04-15T11:26:39Z</time>
      </trkpt>
      <trkpt lat="48.44918" lon="2.12224">
        <ele>132</ele>
        <time>2011-04-15T11:26:40Z</time>
      </trkpt>
      <trkpt lat="48.44918" lon="2.12227">
        <ele>132</ele>
        <time>2011-04-15T11:26:41Z</time>
      </trkpt>
      <trkpt lat="48.44917" lon="2.12229">
        <ele>132</ele>
        <time>2011-04-15T11:26:42Z</time>
      </trkpt>
      <trkpt lat="48.44917" lon="2.12231">
        <ele>132</ele>
        <time>2011-04-15T11:26:43Z</time>
      </trkpt>
      <trkpt lat="48.44916" lon="2.12234">
        <ele>132</ele>
        <time>2011-04-15T11:26:44Z</time>
      </trkpt>
      <trkpt lat="48.44916" lon="2.12236">
        <ele>132</ele>
        <time>2011-04-15T11:26:45Z</time>
      </trkpt>
      <trkpt lat="48.44915" lon="2.12239">
        <ele>132</ele>
        <time>2011-04-15T11:26:46Z</time>
      </trkpt>
      <trkpt lat="48.44914" lon="2.12241">
        <ele>132</ele>
        <time>2011-04-15T11:26:47Z</time>
      </trkpt>
      <trkpt lat="48.44913" lon="2.12244">
        <ele>132</ele>
        <time>2011-04-15T11:26:48Z</time>
      </trkpt>
      <trkpt lat="48.44913" lon="2.12246">
        <ele>132</ele>
        <time>2011-04-15T11:26:49Z</time>
      </trkpt>
      <trkpt lat="48.44912" lon="2.12248">
        <ele>132</ele>
        <time>2011-04-15T11:26:50Z</time>
      </trkpt>
      <trkpt lat="48.44911" lon="2.12251">
        <ele>132</ele>
        <time>2011-04-15T11:26:51Z</time>
      </trkpt>
      <trkpt lat="48.44911" lon="2.12253">
        <ele>132</ele>
        <time>2011-04-15T11:26:52Z</time>
      </trkpt>
      <trkpt lat="48.4491" lon="2.12256">
        <ele>132</ele>
        <time>2011-04-15T11:26:53Z</time>
      </trkpt>
      <trkpt lat="48.44909" lon="2.12258">
        <ele>132</ele>
        <time>2011-04-15T11:26:54Z</time>
      </trkpt>
      <trkpt lat="48.44909" lon="2.12261">
        <ele>132</ele>
        <time>2011-04-15T11:26:55Z</time>
      </trkpt>
      <trkpt lat="48.44908" lon="2.12264">
        <ele>132</ele>
        <time>2011-04-15T11:26:56Z</time>
      </trkpt>
      <trkpt lat="48.44908" lon="2.12266">
        <ele>132</ele>
        <time>2011-04-15T11:26:57Z</time>
      </trkpt>
      <trkpt lat="48.44907" lon="2.12268">
        <ele>132</ele>
        <time>2011-04-15T11:26:58Z</time>
      </trkpt>
      <trkpt lat="48.44906" lon="2.1227">
        <ele>132</ele>
        <time>2011-04-15T11:26:59Z</time>
      </trkpt>
      <trkpt lat="48.44906" lon="2.12272">
        <ele>132</ele>
        <time>2011-04-15T11:27:00Z</time>
      </trkpt>
      <trkpt lat="48.44906" lon="2.12275">
        <ele>132</ele>
        <time>2011-04-15T11:27:01Z</time>
      </trkpt>
      <trkpt lat="48.44905" lon="2.12278">
        <ele>132</ele>
        <time>2011-04-15T11:27:02Z</time>
      </trkpt>
      <trkpt lat="48.44905" lon="2.1228">
        <ele>132</ele>
        <time>2011-04-15T11:27:03Z</time>
      </trkpt>
      <trkpt lat="48.44904" lon="2.12284">
        <ele>132</ele>
        <time>2011-04-15T11:27:04Z</time>
      </trkpt>
      <trkpt lat="48.44903" lon="2.12286">
        <ele>132</ele>
        <time>2011-04-15T11:27:05Z</time>
      </trkpt>
      <trkpt lat="48.44902" lon="2.12289">
        <ele>132</ele>
        <time>2011-04-15T11:27:06Z</time>
      </trkpt>
      <trkpt lat="48.449" lon="2.12291">
        <ele>132</ele>
        <time>2011-04-15T11:27:07Z</time>
      </trkpt>
      <trkpt lat="48.44899" lon="2.12293">
        <ele>132</ele>
        <time>2011-04-15T11:27:08Z</time>
      </trkpt>
      <trkpt lat="48.44898" lon="2.12295">
        <ele>132</ele>
        <time>2011-04-15T11:27:09Z</time>
      </trkpt>
      <trkpt lat="48.44897" lon="2.12297">
        <ele>132</ele>
        <time>2011-04-15T11:27:10Z</time>
      </trkpt>
      <trkpt lat="48.44896" lon="2.12299">
        <ele>132</ele>
        <time>2011-04-15T11:27:11Z</time>
      </trkpt>
      <trkpt lat="48.44895" lon="2.12302">
        <ele>132</ele>
        <time>2011-04-15T11:27:12Z</time>
      </trkpt>
      <trkpt lat="48.44894" lon="2.12305">
        <ele>132</ele>
        <time>2011-04-15T11:27:13Z</time>
      </trkpt>
      <trkpt lat="48.44893" lon="2.12307">
        <ele>132</ele>
        <time>2011-04-15T11:27:14Z</time>
      </trkpt>
      <trkpt lat="48.44892" lon="2.12308">
        <ele>132</ele>
        <time>2011-04-15T11:27:15Z</time>
      </trkpt>
      <trkpt lat="48.44891" lon="2.1231">
        <ele>132</ele>
        <time>2011-04-15T11:27:16Z</time>
      </trkpt>
      <trkpt lat="48.44889" lon="2.12313">
        <ele>132</ele>
        <time>2011-04-15T11:27:18Z</time>
      </trkpt>
      <trkpt lat="48.44888" lon="2.12315">
        <ele>132</ele>
        <time>2011-04-15T11:27:19Z</time>
      </trkpt>
      <trkpt lat="48.44887" lon="2.12317">
        <ele>132</ele>
        <time>2011-04-15T11:27:21Z</time>
      </trkpt>
      <trkpt lat="48.44885" lon="2.1232">
        <ele>132</ele>
        <time>2011-04-15T11:27:22Z</time>
      </trkpt>
      <trkpt lat="48.44884" lon="2.12322">
        <ele>132</ele>
        <time>2011-04-15T11:27:23Z</time>
      </trkpt>
      <trkpt lat="48.44883" lon="2.12324">
        <ele>132</ele>
        <time>2011-04-15T11:27:24Z</time>
      </trkpt>
      <trkpt lat="48.44881" lon="2.12326">
        <ele>132</ele>
        <time>2011-04-15T11:27:25Z</time>
      </trkpt>
      <trkpt lat="48.4488" lon="2.12328">
        <ele>132</ele>
        <time>2011-04-15T11:27:26Z</time>
      </trkpt>
      <trkpt lat="48.44879" lon="2.1233">
        <ele>132</ele>
        <time>2011-04-15T11:27:27Z</time>
      </trkpt>
      <trkpt lat="48.44878" lon="2.12333">
        <ele>132</ele>
        <time>2011-04-15T11:27:28Z</time>
      </trkpt>
      <trkpt lat="48.44877" lon="2.12335">
        <ele>132</ele>
        <time>2011-04-15T11:27:29Z</time>
      </trkpt>
      <trkpt lat="48.44875" lon="2.12338">
        <ele>132</ele>
        <time>2011-04-15T11:27:30Z</time>
      </trkpt>
      <trkpt lat="48.44874" lon="2.1234">
        <ele>132</ele>
        <time>2011-04-15T11:27:31Z</time>
      </trkpt>
      <trkpt lat="48.44872" lon="2.12342">
        <ele>132</ele>
        <time>2011-04-15T11:27:32Z</time>
      </trkpt>
      <trkpt lat="48.44871" lon="2.12345">
        <ele>132</ele>
        <time>2011-04-15T11:27:33Z</time>
      </trkpt>
      <trkpt lat="48.4487" lon="2.12347">
        <ele>132</ele>
        <time>2011-04-15T11:27:34Z</time>
      </trkpt>
      <trkpt lat="48.44868" lon="2.12351">
        <ele>132</ele>
        <time>2011-04-15T11:27:36Z</time>
      </trkpt>
      <trkpt lat="48.44867" lon="2.12352">
        <ele>132</ele>
        <time>2011-04-15T11:27:37Z</time>
      </trkpt>
      <trkpt lat="48.44866" lon="2.12354">
        <ele>132</ele>
        <time>2011-04-15T11:27:38Z</time>
      </trkpt>
      <trkpt lat="48.44864" lon="2.12357">
        <ele>132</ele>
        <time>2011-04-15T11:27:40Z</time>
      </trkpt>
      <trkpt lat="48.44863" lon="2.12359">
        <ele>132</ele>
        <time>2011-04-15T11:27:41Z</time>
      </trkpt>
      <trkpt lat="48.44861" lon="2.1236">
        <ele>132</ele>
        <time>2011-04-15T11:27:42Z</time>
      </trkpt>
      <trkpt lat="48.4486" lon="2.12363">
        <ele>132</ele>
        <time>2011-04-15T11:27:43Z</time>
      </trkpt>
      <trkpt lat="48.44858" lon="2.12365">
        <ele>132</ele>
        <time>2011-04-15T11:27:44Z</time>
      </trkpt>
      <trkpt lat="48.44857" lon="2.12367">
        <ele>132</ele>
        <time>2011-04-15T11:27:45Z</time>
      </trkpt>
      <trkpt lat="48.44856" lon="2.12369">
        <ele>132</ele>
        <time>2011-04-15T11:27:46Z</time>
      </trkpt>
      <trkpt lat="48.44854" lon="2.1237">
        <ele>132</ele>
        <time>2011-04-15T11:27:47Z</time>
      </trkpt>
      <trkpt lat="48.44853" lon="2.12372">
        <ele>132</ele>
        <time>2011-04-15T11:27:48Z</time>
      </trkpt>
      <trkpt lat="48.44852" lon="2.12374">
        <ele>132</ele>
        <time>2011-04-15T11:27:49Z</time>
      </trkpt>
      <trkpt lat="48.44851" lon="2.12376">
        <ele>132</ele>
        <time>2011-04-15T11:27:50Z</time>
      </trkpt>
      <trkpt lat="48.4485" lon="2.12378">
        <ele>132</ele>
        <time>2011-04-15T11:27:51Z</time>
      </trkpt>
      <trkpt lat="48.44849" lon="2.1238">
        <ele>132</ele>
        <time>2011-04-15T11:27:52Z</time>
      </trkpt>
      <trkpt lat="48.44847" lon="2.12382">
        <ele>132</ele>
        <time>2011-04-15T11:27:53Z</time>
      </trkpt>
      <trkpt lat="48.44846" lon="2.12384">
        <ele>132</ele>
        <time>2011-04-15T11:27:54Z</time>
      </trkpt>
      <trkpt lat="48.44845" lon="2.12385">
        <ele>132</ele>
        <time>2011-04-15T11:27:55Z</time>
      </trkpt>
      <trkpt lat="48.44843" lon="2.12387">
        <ele>132</ele>
        <time>2011-04-15T11:27:56Z</time>
      </trkpt>
      <trkpt lat="48.44842" lon="2.12389">
        <ele>132</ele>
        <time>2011-04-15T11:27:57Z</time>
      </trkpt>
      <trkpt lat="48.44841" lon="2.12391">
        <ele>132</ele>
        <time>2011-04-15T11:27:58Z</time>
      </trkpt>
      <trkpt lat="48.44839" lon="2.12393">
        <ele>132</ele>
        <time>2011-04-15T11:27:59Z</time>
      </trkpt>
      <trkpt lat="48.44838" lon="2.12394">
        <ele>132</ele>
        <time>2011-04-15T11:28:00Z</time>
      </trkpt>
      <trkpt lat="48.44837" lon="2.12396">
        <ele>132</ele>
        <time>2011-04-15T11:28:01Z</time>
      </trkpt>
      <trkpt lat="48.44835" lon="2.12398">
        <ele>132</ele>
        <time>2011-04-15T11:28:02Z</time>
      </trkpt>
      <trkpt lat="48.44834" lon="2.124">
        <ele>132</ele>
        <time>2011-04-15T11:28:03Z</time>
      </trkpt>
      <trkpt lat="48.44833" lon="2.12402">
        <ele>132</ele>
        <time>2011-04-15T11:28:04Z</time>
      </trkpt>
      <trkpt lat="48.44832" lon="2.12404">
        <ele>132</ele>
        <time>2011-04-15T11:28:05Z</time>
      </trkpt>
      <trkpt lat="48.44831" lon="2.12407">
        <ele>132</ele>
        <time>2011-04-15T11:28:06Z</time>
      </trkpt>
      <trkpt lat="48.4483" lon="2.12409">
        <ele>132</ele>
        <time>2011-04-15T11:28:07Z</time>
      </trkpt>
      <trkpt lat="48.44829" lon="2.12411">
        <ele>132</ele>
        <time>2011-04-15T11:28:08Z</time>
      </trkpt>
      <trkpt lat="48.44827" lon="2.12413">
        <ele>132</ele>
        <time>2011-04-15T11:28:09Z</time>
      </trkpt>
      <trkpt lat="48.44826" lon="2.12415">
        <ele>132</ele>
        <time>2011-04-15T11:28:10Z</time>
      </trkpt>
      <trkpt lat="48.44825" lon="2.12416">
        <ele>132</ele>
        <time>2011-04-15T11:28:11Z</time>
      </trkpt>
      <trkpt lat="48.44823" lon="2.12418">
        <ele>132</ele>
        <time>2011-04-15T11:28:12Z</time>
      </trkpt>
      <trkpt lat="48.44822" lon="2.1242">
        <ele>132</ele>
        <time>2011-04-15T11:28:13Z</time>
      </trkpt>
      <trkpt lat="48.4482" lon="2.12423">
        <ele>132</ele>
        <time>2011-04-15T11:28:15Z</time>
      </trkpt>
      <trkpt lat="48.44819" lon="2.12424">
        <ele>132</ele>
        <time>2011-04-15T11:28:16Z</time>
      </trkpt>
      <trkpt lat="48.44818" lon="2.12426">
        <ele>132</ele>
        <time>2011-04-15T11:28:17Z</time>
      </trkpt>
      <trkpt lat="48.44816" lon="2.12428">
        <ele>132</ele>
        <time>2011-04-15T11:28:18Z</time>
      </trkpt>
      <trkpt lat="48.44815" lon="2.1243">
        <ele>132</ele>
        <time>2011-04-15T11:28:19Z</time>
      </trkpt>
      <trkpt lat="48.44814" lon="2.12431">
        <ele>132</ele>
        <time>2011-04-15T11:28:20Z</time>
      </trkpt>
      <trkpt lat="48.44812" lon="2.12433">
        <ele>133</ele>
        <time>2011-04-15T11:28:22Z</time>
      </trkpt>
      <trkpt lat="48.44809" lon="2.12437">
        <ele>133</ele>
        <time>2011-04-15T11:28:24Z</time>
      </trkpt>
      <trkpt lat="48.44808" lon="2.12438">
        <ele>133</ele>
        <time>2011-04-15T11:28:25Z</time>
      </trkpt>
      <trkpt lat="48.44807" lon="2.1244">
        <ele>134</ele>
        <time>2011-04-15T11:28:26Z</time>
      </trkpt>
      <trkpt lat="48.44806" lon="2.12443">
        <ele>134</ele>
        <time>2011-04-15T11:28:28Z</time>
      </trkpt>
      <trkpt lat="48.44805" lon="2.12446">
        <ele>134</ele>
        <time>2011-04-15T11:28:30Z</time>
      </trkpt>
      <trkpt lat="48.44804" lon="2.12448">
        <ele>134</ele>
        <time>2011-04-15T11:28:31Z</time>
      </trkpt>
      <trkpt lat="48.44802" lon="2.12451">
        <ele>135</ele>
        <time>2011-04-15T11:28:33Z</time>
      </trkpt>
      <trkpt lat="48.448" lon="2.12454">
        <ele>135</ele>
        <time>2011-04-15T11:28:35Z</time>
      </trkpt>
      <trkpt lat="48.44798" lon="2.12455">
        <ele>135</ele>
        <time>2011-04-15T11:28:36Z</time>
      </trkpt>
      <trkpt lat="48.44796" lon="2.12456">
        <ele>135</ele>
        <time>2011-04-15T11:28:37Z</time>
      </trkpt>
      <trkpt lat="48.44794" lon="2.12457">
        <ele>135</ele>
        <time>2011-04-15T11:28:38Z</time>
      </trkpt>
      <trkpt lat="48.44793" lon="2.12459">
        <ele>135</ele>
        <time>2011-04-15T11:28:39Z</time>
      </trkpt>
      <trkpt lat="48.44792" lon="2.12462">
        <ele>135</ele>
        <time>2011-04-15T11:28:40Z</time>
      </trkpt>
      <trkpt lat="48.44792" lon="2.12464">
        <ele>135</ele>
        <time>2011-04-15T11:28:41Z</time>
      </trkpt>
      <trkpt lat="48.44791" lon="2.12465">
        <ele>135</ele>
        <time>2011-04-15T11:28:42Z</time>
      </trkpt>
      <trkpt lat="48.44791" lon="2.12467">
        <ele>135</ele>
        <time>2011-04-15T11:28:43Z</time>
      </trkpt>
      <trkpt lat="48.44789" lon="2.12469">
        <ele>135</ele>
        <time>2011-04-15T11:28:45Z</time>
      </trkpt>
      <trkpt lat="48.44787" lon="2.12471">
        <ele>135</ele>
        <time>2011-04-15T11:28:46Z</time>
      </trkpt>
      <trkpt lat="48.44785" lon="2.12474">
        <ele>135</ele>
        <time>2011-04-15T11:28:48Z</time>
      </trkpt>
      <trkpt lat="48.44784" lon="2.12475">
        <ele>135</ele>
        <time>2011-04-15T11:28:49Z</time>
      </trkpt>
      <trkpt lat="48.44783" lon="2.12476">
        <ele>135</ele>
        <time>2011-04-15T11:28:50Z</time>
      </trkpt>
      <trkpt lat="48.44781" lon="2.12478">
        <ele>135</ele>
        <time>2011-04-15T11:28:51Z</time>
      </trkpt>
      <trkpt lat="48.44779" lon="2.12479">
        <ele>135</ele>
        <time>2011-04-15T11:28:52Z</time>
      </trkpt>
      <trkpt lat="48.44777" lon="2.1248">
        <ele>135</ele>
        <time>2011-04-15T11:28:53Z</time>
      </trkpt>
      <trkpt lat="48.44776" lon="2.12481">
        <ele>135</ele>
        <time>2011-04-15T11:28:54Z</time>
      </trkpt>
      <trkpt lat="48.44774" lon="2.12483">
        <ele>135</ele>
        <time>2011-04-15T11:28:55Z</time>
      </trkpt>
      <trkpt lat="48.44773" lon="2.12484">
        <ele>135</ele>
        <time>2011-04-15T11:28:56Z</time>
      </trkpt>
      <trkpt lat="48.44771" lon="2.12486">
        <ele>135</ele>
        <time>2011-04-15T11:28:57Z</time>
      </trkpt>
      <trkpt lat="48.4477" lon="2.12487">
        <ele>135</ele>
        <time>2011-04-15T11:28:58Z</time>
      </trkpt>
      <trkpt lat="48.44768" lon="2.12489">
        <ele>135</ele>
        <time>2011-04-15T11:28:59Z</time>
      </trkpt>
      <trkpt lat="48.44766" lon="2.12491">
        <ele>135</ele>
        <time>2011-04-15T11:29:00Z</time>
      </trkpt>
      <trkpt lat="48.44765" lon="2.12493">
        <ele>135</ele>
        <time>2011-04-15T11:29:01Z</time>
      </trkpt>
      <trkpt lat="48.44765" lon="2.12495">
        <ele>135</ele>
        <time>2011-04-15T11:29:02Z</time>
      </trkpt>
      <trkpt lat="48.44763" lon="2.12497">
        <ele>135</ele>
        <time>2011-04-15T11:29:03Z</time>
      </trkpt>
      <trkpt lat="48.44762" lon="2.12498">
        <ele>135</ele>
        <time>2011-04-15T11:29:04Z</time>
      </trkpt>
      <trkpt lat="48.44761" lon="2.12499">
        <ele>135</ele>
        <time>2011-04-15T11:29:05Z</time>
      </trkpt>
      <trkpt lat="48.4476" lon="2.12501">
        <ele>135</ele>
        <time>2011-04-15T11:29:06Z</time>
      </trkpt>
      <trkpt lat="48.44759" lon="2.12502">
        <ele>135</ele>
        <time>2011-04-15T11:29:07Z</time>
      </trkpt>
      <trkpt lat="48.44757" lon="2.12504">
        <ele>135</ele>
        <time>2011-04-15T11:29:08Z</time>
      </trkpt>
      <trkpt lat="48.44756" lon="2.12506">
        <ele>135</ele>
        <time>2011-04-15T11:29:09Z</time>
      </trkpt>
      <trkpt lat="48.44754" lon="2.12509">
        <ele>135</ele>
        <time>2011-04-15T11:29:10Z</time>
      </trkpt>
      <trkpt lat="48.44752" lon="2.12509">
        <ele>135</ele>
        <time>2011-04-15T11:29:11Z</time>
      </trkpt>
      <trkpt lat="48.4475" lon="2.12511">
        <ele>135</ele>
        <time>2011-04-15T11:29:12Z</time>
      </trkpt>
      <trkpt lat="48.44749" lon="2.12513">
        <ele>135</ele>
        <time>2011-04-15T11:29:13Z</time>
      </trkpt>
      <trkpt lat="48.44748" lon="2.12515">
        <ele>135</ele>
        <time>2011-04-15T11:29:14Z</time>
      </trkpt>
      <trkpt lat="48.44746" lon="2.12517">
        <ele>135</ele>
        <time>2011-04-15T11:29:15Z</time>
      </trkpt>
      <trkpt lat="48.44745" lon="2.12519">
        <ele>136</ele>
        <time>2011-04-15T11:29:16Z</time>
      </trkpt>
      <trkpt lat="48.44744" lon="2.12521">
        <ele>136</ele>
        <time>2011-04-15T11:29:17Z</time>
      </trkpt>
      <trkpt lat="48.44743" lon="2.12522">
        <ele>136</ele>
        <time>2011-04-15T11:29:18Z</time>
      </trkpt>
      <trkpt lat="48.44742" lon="2.12524">
        <ele>136</ele>
        <time>2011-04-15T11:29:19Z</time>
      </trkpt>
      <trkpt lat="48.44739" lon="2.12527">
        <ele>136</ele>
        <time>2011-04-15T11:29:21Z</time>
      </trkpt>
      <trkpt lat="48.44738" lon="2.12529">
        <ele>136</ele>
        <time>2011-04-15T11:29:22Z</time>
      </trkpt>
      <trkpt lat="48.44737" lon="2.12531">
        <ele>136</ele>
        <time>2011-04-15T11:29:23Z</time>
      </trkpt>
      <trkpt lat="48.44736" lon="2.12532">
        <ele>136</ele>
        <time>2011-04-15T11:29:24Z</time>
      </trkpt>
      <trkpt lat="48.44734" lon="2.12534">
        <ele>136</ele>
        <time>2011-04-15T11:29:25Z</time>
      </trkpt>
      <trkpt lat="48.44733" lon="2.12536">
        <ele>137</ele>
        <time>2011-04-15T11:29:26Z</time>
      </trkpt>
      <trkpt lat="48.44732" lon="2.12537">
        <ele>137</ele>
        <time>2011-04-15T11:29:27Z</time>
      </trkpt>
      <trkpt lat="48.44732" lon="2.12539">
        <ele>137</ele>
        <time>2011-04-15T11:29:28Z</time>
      </trkpt>
      <trkpt lat="48.44731" lon="2.12541">
        <ele>137</ele>
        <time>2011-04-15T11:29:29Z</time>
      </trkpt>
      <trkpt lat="48.4473" lon="2.12542">
        <ele>137</ele>
        <time>2011-04-15T11:29:30Z</time>
      </trkpt>
      <trkpt lat="48.44729" lon="2.12544">
        <ele>137</ele>
        <time>2011-04-15T11:29:31Z</time>
      </trkpt>
      <trkpt lat="48.44727" lon="2.12547">
        <ele>137</ele>
        <time>2011-04-15T11:29:33Z</time>
      </trkpt>
      <trkpt lat="48.44726" lon="2.12549">
        <ele>137</ele>
        <time>2011-04-15T11:29:34Z</time>
      </trkpt>
      <trkpt lat="48.44725" lon="2.12551">
        <ele>137</ele>
        <time>2011-04-15T11:29:35Z</time>
      </trkpt>
      <trkpt lat="48.44723" lon="2.12553">
        <ele>137</ele>
        <time>2011-04-15T11:29:36Z</time>
      </trkpt>
      <trkpt lat="48.44722" lon="2.12556">
        <ele>137</ele>
        <time>2011-04-15T11:29:37Z</time>
      </trkpt>
      <trkpt lat="48.44721" lon="2.12559">
        <ele>137</ele>
        <time>2011-04-15T11:29:38Z</time>
      </trkpt>
      <trkpt lat="48.4472" lon="2.12561">
        <ele>137</ele>
        <time>2011-04-15T11:29:39Z</time>
      </trkpt>
      <trkpt lat="48.44719" lon="2.12563">
        <ele>137</ele>
        <time>2011-04-15T11:29:40Z</time>
      </trkpt>
      <trkpt lat="48.44717" lon="2.12565">
        <ele>137</ele>
        <time>2011-04-15T11:29:41Z</time>
      </trkpt>
      <trkpt lat="48.44716" lon="2.12567">
        <ele>137</ele>
        <time>2011-04-15T11:29:42Z</time>
      </trkpt>
      <trkpt lat="48.44714" lon="2.12569">
        <ele>137</ele>
        <time>2011-04-15T11:29:43Z</time>
      </trkpt>
      <trkpt lat="48.44713" lon="2.12572">
        <ele>137</ele>
        <time>2011-04-15T11:29:44Z</time>
      </trkpt>
      <trkpt lat="48.44712" lon="2.12574">
        <ele>137</ele>
        <time>2011-04-15T11:29:45Z</time>
      </trkpt>
      <trkpt lat="48.44711" lon="2.12576">
        <ele>137</ele>
        <time>2011-04-15T11:29:46Z</time>
      </trkpt>
      <trkpt lat="48.4471" lon="2.12578">
        <ele>137</ele>
        <time>2011-04-15T11:29:47Z</time>
      </trkpt>
      <trkpt lat="48.44709" lon="2.12581">
        <ele>137</ele>
        <time>2011-04-15T11:29:48Z</time>
      </trkpt>
      <trkpt lat="48.44707" lon="2.12583">
        <ele>137</ele>
        <time>2011-04-15T11:29:49Z</time>
      </trkpt>
      <trkpt lat="48.44706" lon="2.12585">
        <ele>137</ele>
        <time>2011-04-15T11:29:50Z</time>
      </trkpt>
      <trkpt lat="48.44705" lon="2.12587">
        <ele>137</ele>
        <time>2011-04-15T11:29:51Z</time>
      </trkpt>
      <trkpt lat="48.44703" lon="2.12589">
        <ele>137</ele>
        <time>2011-04-15T11:29:52Z</time>
      </trkpt>
      <trkpt lat="48.44702" lon="2.12591">
        <ele>137</ele>
        <time>2011-04-15T11:29:53Z</time>
      </trkpt>
      <trkpt lat="48.44701" lon="2.12592">
        <ele>137</ele>
        <time>2011-04-15T11:29:54Z</time>
      </trkpt>
      <trkpt lat="48.447" lon="2.12594">
        <ele>137</ele>
        <time>2011-04-15T11:29:55Z</time>
      </trkpt>
      <trkpt lat="48.44698" lon="2.12596">
        <ele>137</ele>
        <time>2011-04-15T11:29:56Z</time>
      </trkpt>
      <trkpt lat="48.44697" lon="2.12598">
        <ele>137</ele>
        <time>2011-04-15T11:29:57Z</time>
      </trkpt>
      <trkpt lat="48.44696" lon="2.126">
        <ele>137</ele>
        <time>2011-04-15T11:29:58Z</time>
      </trkpt>
      <trkpt lat="48.44695" lon="2.12602">
        <ele>137</ele>
        <time>2011-04-15T11:29:59Z</time>
      </trkpt>
      <trkpt lat="48.44694" lon="2.12604">
        <ele>137</ele>
        <time>2011-04-15T11:30:00Z</time>
      </trkpt>
      <trkpt lat="48.44693" lon="2.12606">
        <ele>137</ele>
        <time>2011-04-15T11:30:01Z</time>
      </trkpt>
      <trkpt lat="48.44692" lon="2.12607">
        <ele>137</ele>
        <time>2011-04-15T11:30:02Z</time>
      </trkpt>
      <trkpt lat="48.44691" lon="2.12609">
        <ele>137</ele>
        <time>2011-04-15T11:30:03Z</time>
      </trkpt>
      <trkpt lat="48.4469" lon="2.12612">
        <ele>137</ele>
        <time>2011-04-15T11:30:04Z</time>
      </trkpt>
      <trkpt lat="48.44689" lon="2.12614">
        <ele>137</ele>
        <time>2011-04-15T11:30:05Z</time>
      </trkpt>
      <trkpt lat="48.44688" lon="2.12617">
        <ele>137</ele>
        <time>2011-04-15T11:30:06Z</time>
      </trkpt>
      <trkpt lat="48.44686" lon="2.12619">
        <ele>137</ele>
        <time>2011-04-15T11:30:07Z</time>
      </trkpt>
      <trkpt lat="48.44685" lon="2.12621">
        <ele>137</ele>
        <time>2011-04-15T11:30:08Z</time>
      </trkpt>
      <trkpt lat="48.44684" lon="2.12624">
        <ele>137</ele>
        <time>2011-04-15T11:30:09Z</time>
      </trkpt>
      <trkpt lat="48.44683" lon="2.12626">
        <ele>137</ele>
        <time>2011-04-15T11:30:10Z</time>
      </trkpt>
      <trkpt lat="48.44681" lon="2.12628">
        <ele>137</ele>
        <time>2011-04-15T11:30:11Z</time>
      </trkpt>
      <trkpt lat="48.4468" lon="2.1263">
        <ele>137</ele>
        <time>2011-04-15T11:30:12Z</time>
      </trkpt>
      <trkpt lat="48.44678" lon="2.12632">
        <ele>137</ele>
        <time>2011-04-15T11:30:13Z</time>
      </trkpt>
      <trkpt lat="48.44677" lon="2.12634">
        <ele>137</ele>
        <time>2011-04-15T11:30:14Z</time>
      </trkpt>
      <trkpt lat="48.44676" lon="2.12636">
        <ele>137</ele>
        <time>2011-04-15T11:30:15Z</time>
      </trkpt>
      <trkpt lat="48.44675" lon="2.12639">
        <ele>137</ele>
        <time>2011-04-15T11:30:16Z</time>
      </trkpt>
      <trkpt lat="48.44673" lon="2.12641">
        <ele>137</ele>
        <time>2011-04-15T11:30:17Z</time>
      </trkpt>
      <trkpt lat="48.44672" lon="2.12643">
        <ele>137</ele>
        <time>2011-04-15T11:30:18Z</time>
      </trkpt>
      <trkpt lat="48.44671" lon="2.12644">
        <ele>137</ele>
        <time>2011-04-15T11:30:19Z</time>
      </trkpt>
      <trkpt lat="48.4467" lon="2.12646">
        <ele>137</ele>
        <time>2011-04-15T11:30:20Z</time>
      </trkpt>
      <trkpt lat="48.44669" lon="2.12648">
        <ele>137</ele>
        <time>2011-04-15T11:30:21Z</time>
      </trkpt>
      <trkpt lat="48.44668" lon="2.1265">
        <ele>137</ele>
        <time>2011-04-15T11:30:22Z</time>
      </trkpt>
      <trkpt lat="48.44666" lon="2.12652">
        <ele>137</ele>
        <time>2011-04-15T11:30:23Z</time>
      </trkpt>
      <trkpt lat="48.44665" lon="2.12654">
        <ele>137</ele>
        <time>2011-04-15T11:30:24Z</time>
      </trkpt>
      <trkpt lat="48.44664" lon="2.12655">
        <ele>137</ele>
        <time>2011-04-15T11:30:25Z</time>
      </trkpt>
      <trkpt lat="48.44663" lon="2.12657">
        <ele>137</ele>
        <time>2011-04-15T11:30:26Z</time>
      </trkpt>
      <trkpt lat="48.44662" lon="2.12659">
        <ele>137</ele>
        <time>2011-04-15T11:30:27Z</time>
      </trkpt>
      <trkpt lat="48.44661" lon="2.12661">
        <ele>137</ele>
        <time>2011-04-15T11:30:28Z</time>
      </trkpt>
      <trkpt lat="48.44659" lon="2.12663">
        <ele>137</ele>
        <time>2011-04-15T11:30:29Z</time>
      </trkpt>
      <trkpt lat="48.44658" lon="2.12665">
        <ele>137</ele>
        <time>2011-04-15T11:30:30Z</time>
      </trkpt>
      <trkpt lat="48.44657" lon="2.12667">
        <ele>137</ele>
        <time>2011-04-15T11:30:31Z</time>
      </trkpt>
      <trkpt lat="48.44656" lon="2.12669">
        <ele>137</ele>
        <time>2011-04-15T11:30:32Z</time>
      </trkpt>
      <trkpt lat="48.44654" lon="2.12671">
        <ele>137</ele>
        <time>2011-04-15T11:30:33Z</time>
      </trkpt>
      <trkpt lat="48.44653" lon="2.12673">
        <ele>137</ele>
        <time>2011-04-15T11:30:34Z</time>
      </trkpt>
      <trkpt lat="48.44652" lon="2.12675">
        <ele>137</ele>
        <time>2011-04-15T11:30:35Z</time>
      </trkpt>
      <trkpt lat="48.44651" lon="2.12676">
        <ele>137</ele>
        <time>2011-04-15T11:30:36Z</time>
      </trkpt>
      <trkpt lat="48.4465" lon="2.12678">
        <ele>137</ele>
        <time>2011-04-15T11:30:37Z</time>
      </trkpt>
      <trkpt lat="48.44648" lon="2.1268">
        <ele>137</ele>
        <time>2011-04-15T11:30:38Z</time>
      </trkpt>
      <trkpt lat="48.44647" lon="2.12682">
        <ele>137</ele>
        <time>2011-04-15T11:30:39Z</time>
      </trkpt>
      <trkpt lat="48.44646" lon="2.12684">
        <ele>137</ele>
        <time>2011-04-15T11:30:40Z</time>
      </trkpt>
      <trkpt lat="48.44645" lon="2.12686">
        <ele>137</ele>
        <time>2011-04-15T11:30:41Z</time>
      </trkpt>
      <trkpt lat="48.44644" lon="2.12688">
        <ele>137</ele>
        <time>2011-04-15T11:30:42Z</time>
      </trkpt>
      <trkpt lat="48.44643" lon="2.1269">
        <ele>137</ele>
        <time>2011-04-15T11:30:43Z</time>
      </trkpt>
      <trkpt lat="48.44642" lon="2.12692">
        <ele>137</ele>
        <time>2011-04-15T11:30:44Z</time>
      </trkpt>
      <trkpt lat="48.44641" lon="2.12694">
        <ele>137</ele>
        <time>2011-04-15T11:30:45Z</time>
      </trkpt>
      <trkpt lat="48.44639" lon="2.12696">
        <ele>137</ele>
        <time>2011-04-15T11:30:46Z</time>
      </trkpt>
      <trkpt lat="48.44638" lon="2.12697">
        <ele>137</ele>
        <time>2011-04-15T11:30:47Z</time>
      </trkpt>
      <trkpt lat="48.44637" lon="2.12699">
        <ele>137</ele>
        <time>2011-04-15T11:30:48Z</time>
      </trkpt>
      <trkpt lat="48.44636" lon="2.127">
        <ele>137</ele>
        <time>2011-04-15T11:30:49Z</time>
      </trkpt>
      <trkpt lat="48.44635" lon="2.12702">
        <ele>137</ele>
        <time>2011-04-15T11:30:50Z</time>
      </trkpt>
      <trkpt lat="48.44634" lon="2.12704">
        <ele>137</ele>
        <time>2011-04-15T11:30:51Z</time>
      </trkpt>
      <trkpt lat="48.44633" lon="2.12706">
        <ele>137</ele>
        <time>2011-04-15T11:30:52Z</time>
      </trkpt>
      <trkpt lat="48.44631" lon="2.12708">
        <ele>137</ele>
        <time>2011-04-15T11:30:53Z</time>
      </trkpt>
      <trkpt lat="48.4463" lon="2.1271">
        <ele>137</ele>
        <time>2011-04-15T11:30:54Z</time>
      </trkpt>
      <trkpt lat="48.44629" lon="2.12712">
        <ele>137</ele>
        <time>2011-04-15T11:30:55Z</time>
      </trkpt>
      <trkpt lat="48.44628" lon="2.12714">
        <ele>137</ele>
        <time>2011-04-15T11:30:56Z</time>
      </trkpt>
      <trkpt lat="48.44626" lon="2.12716">
        <ele>137</ele>
        <time>2011-04-15T11:30:57Z</time>
      </trkpt>
      <trkpt lat="48.44625" lon="2.12718">
        <ele>137</ele>
        <time>2011-04-15T11:30:58Z</time>
      </trkpt>
      <trkpt lat="48.44624" lon="2.1272">
        <ele>137</ele>
        <time>2011-04-15T11:30:59Z</time>
      </trkpt>
      <trkpt lat="48.44623" lon="2.12722">
        <ele>137</ele>
        <time>2011-04-15T11:31:00Z</time>
      </trkpt>
      <trkpt lat="48.44622" lon="2.12723">
        <ele>137</ele>
        <time>2011-04-15T11:31:01Z</time>
      </trkpt>
      <trkpt lat="48.44621" lon="2.12725">
        <ele>137</ele>
        <time>2011-04-15T11:31:02Z</time>
      </trkpt>
      <trkpt lat="48.4462" lon="2.12727">
        <ele>137</ele>
        <time>2011-04-15T11:31:03Z</time>
      </trkpt>
      <trkpt lat="48.44619" lon="2.12729">
        <ele>137</ele>
        <time>2011-04-15T11:31:04Z</time>
      </trkpt>
      <trkpt lat="48.44618" lon="2.12731">
        <ele>137</ele>
        <time>2011-04-15T11:31:05Z</time>
      </trkpt>
      <trkpt lat="48.44617" lon="2.12732">
        <ele>137</ele>
        <time>2011-04-15T11:31:06Z</time>
      </trkpt>
      <trkpt lat="48.44616" lon="2.12734">
        <ele>137</ele>
        <time>2011-04-15T11:31:07Z</time>
      </trkpt>
      <trkpt lat="48.44614" lon="2.12736">
        <ele>137</ele>
        <time>2011-04-15T11:31:08Z</time>
      </trkpt>
      <trkpt lat="48.44613" lon="2.12738">
        <ele>137</ele>
        <time>2011-04-15T11:31:09Z</time>
      </trkpt>
      <trkpt lat="48.44612" lon="2.1274">
        <ele>137</ele>
        <time>2011-04-15T11:31:10Z</time>
      </trkpt>
      <trkpt lat="48.4461" lon="2.12742">
        <ele>137</ele>
        <time>2011-04-15T11:31:11Z</time>
      </trkpt>
      <trkpt lat="48.44609" lon="2.12744">
        <ele>137</ele>
        <time>2011-04-15T11:31:12Z</time>
      </trkpt>
      <trkpt lat="48.44608" lon="2.12746">
        <ele>137</ele>
        <time>2011-04-15T11:31:13Z</time>
      </trkpt>
      <trkpt lat="48.44607" lon="2.12748">
        <ele>137</ele>
        <time>2011-04-15T11:31:14Z</time>
      </trkpt>
      <trkpt lat="48.44606" lon="2.1275">
        <ele>137</ele>
        <time>2011-04-15T11:31:15Z</time>
      </trkpt>
      <trkpt lat="48.44604" lon="2.12752">
        <ele>137</ele>
        <time>2011-04-15T11:31:16Z</time>
      </trkpt>
      <trkpt lat="48.44603" lon="2.12754">
        <ele>137</ele>
        <time>2011-04-15T11:31:17Z</time>
      </trkpt>
      <trkpt lat="48.44602" lon="2.12756">
        <ele>137</ele>
        <time>2011-04-15T11:31:18Z</time>
      </trkpt>
      <trkpt lat="48.44601" lon="2.12758">
        <ele>137</ele>
        <time>2011-04-15T11:31:19Z</time>
      </trkpt>
      <trkpt lat="48.446" lon="2.1276">
        <ele>137</ele>
        <time>2011-04-15T11:31:20Z</time>
      </trkpt>
      <trkpt lat="48.44599" lon="2.12762">
        <ele>137</ele>
        <time>2011-04-15T11:31:21Z</time>
      </trkpt>
      <trkpt lat="48.44598" lon="2.12764">
        <ele>137</ele>
        <time>2011-04-15T11:31:22Z</time>
      </trkpt>
      <trkpt lat="48.44597" lon="2.12766">
        <ele>137</ele>
        <time>2011-04-15T11:31:23Z</time>
      </trkpt>
      <trkpt lat="48.44595" lon="2.12769">
        <ele>137</ele>
        <time>2011-04-15T11:31:24Z</time>
      </trkpt>
      <trkpt lat="48.44594" lon="2.12771">
        <ele>137</ele>
        <time>2011-04-15T11:31:25Z</time>
      </trkpt>
      <trkpt lat="48.44593" lon="2.12773">
        <ele>137</ele>
        <time>2011-04-15T11:31:26Z</time>
      </trkpt>
      <trkpt lat="48.44592" lon="2.12775">
        <ele>137</ele>
        <time>2011-04-15T11:31:27Z</time>
      </trkpt>
      <trkpt lat="48.44591" lon="2.12777">
        <ele>137</ele>
        <time>2011-04-15T11:31:28Z</time>
      </trkpt>
      <trkpt lat="48.44589" lon="2.1278">
        <ele>137</ele>
        <time>2011-04-15T11:31:29Z</time>
      </trkpt>
      <trkpt lat="48.44588" lon="2.12782">
        <ele>137</ele>
        <time>2011-04-15T11:31:30Z</time>
      </trkpt>
      <trkpt lat="48.44587" lon="2.12784">
        <ele>137</ele>
        <time>2011-04-15T11:31:31Z</time>
      </trkpt>
      <trkpt lat="48.44586" lon="2.12787">
        <ele>137</ele>
        <time>2011-04-15T11:31:32Z</time>
      </trkpt>
      <trkpt lat="48.44585" lon="2.12789">
        <ele>137</ele>
        <time>2011-04-15T11:31:33Z</time>
      </trkpt>
      <trkpt lat="48.44584" lon="2.12791">
        <ele>137</ele>
        <time>2011-04-15T11:31:34Z</time>
      </trkpt>
      <trkpt lat="48.44583" lon="2.12793">
        <ele>137</ele>
        <time>2011-04-15T11:31:35Z</time>
      </trkpt>
      <trkpt lat="48.44582" lon="2.12795">
        <ele>137</ele>
        <time>2011-04-15T11:31:36Z</time>
      </trkpt>
      <trkpt lat="48.44581" lon="2.12797">
        <ele>137</ele>
        <time>2011-04-15T11:31:37Z</time>
      </trkpt>
      <trkpt lat="48.44581" lon="2.128">
        <ele>137</ele>
        <time>2011-04-15T11:31:38Z</time>
      </trkpt>
      <trkpt lat="48.4458" lon="2.12801">
        <ele>137</ele>
        <time>2011-04-15T11:31:39Z</time>
      </trkpt>
      <trkpt lat="48.44579" lon="2.12803">
        <ele>137</ele>
        <time>2011-04-15T11:31:40Z</time>
      </trkpt>
      <trkpt lat="48.44578" lon="2.12806">
        <ele>137</ele>
        <time>2011-04-15T11:31:41Z</time>
      </trkpt>
      <trkpt lat="48.44577" lon="2.12808">
        <ele>137</ele>
        <time>2011-04-15T11:31:42Z</time>
      </trkpt>
      <trkpt lat="48.44575" lon="2.1281">
        <ele>137</ele>
        <time>2011-04-15T11:31:43Z</time>
      </trkpt>
      <trkpt lat="48.44574" lon="2.12812">
        <ele>137</ele>
        <time>2011-04-15T11:31:44Z</time>
      </trkpt>
      <trkpt lat="48.44574" lon="2.12814">
        <ele>137</ele>
        <time>2011-04-15T11:31:45Z</time>
      </trkpt>
      <trkpt lat="48.44573" lon="2.12816">
        <ele>137</ele>
        <time>2011-04-15T11:31:46Z</time>
      </trkpt>
      <trkpt lat="48.44572" lon="2.12818">
        <ele>137</ele>
        <time>2011-04-15T11:31:47Z</time>
      </trkpt>
      <trkpt lat="48.44571" lon="2.1282">
        <ele>137</ele>
        <time>2011-04-15T11:31:48Z</time>
      </trkpt>
      <trkpt lat="48.4457" lon="2.12823">
        <ele>137</ele>
        <time>2011-04-15T11:31:49Z</time>
      </trkpt>
      <trkpt lat="48.44569" lon="2.12824">
        <ele>137</ele>
        <time>2011-04-15T11:31:50Z</time>
      </trkpt>
      <trkpt lat="48.44568" lon="2.12827">
        <ele>137</ele>
        <time>2011-04-15T11:31:51Z</time>
      </trkpt>
      <trkpt lat="48.44567" lon="2.12829">
        <ele>137</ele>
        <time>2011-04-15T11:31:52Z</time>
      </trkpt>
      <trkpt lat="48.44566" lon="2.12831">
        <ele>137</ele>
        <time>2011-04-15T11:31:53Z</time>
      </trkpt>
      <trkpt lat="48.44565" lon="2.12833">
        <ele>137</ele>
        <time>2011-04-15T11:31:54Z</time>
      </trkpt>
      <trkpt lat="48.44564" lon="2.12836">
        <ele>137</ele>
        <time>2011-04-15T11:31:55Z</time>
      </trkpt>
      <trkpt lat="48.44563" lon="2.12838">
        <ele>137</ele>
        <time>2011-04-15T11:31:56Z</time>
      </trkpt>
      <trkpt lat="48.44562" lon="2.1284">
        <ele>137</ele>
        <time>2011-04-15T11:31:57Z</time>
      </trkpt>
      <trkpt lat="48.44561" lon="2.12842">
        <ele>137</ele>
        <time>2011-04-15T11:31:58Z</time>
      </trkpt>
      <trkpt lat="48.4456" lon="2.12845">
        <ele>137</ele>
        <time>2011-04-15T11:31:59Z</time>
      </trkpt>
      <trkpt lat="48.44559" lon="2.12847">
        <ele>137</ele>
        <time>2011-04-15T11:32:00Z</time>
      </trkpt>
      <trkpt lat="48.44558" lon="2.12849">
        <ele>137</ele>
        <time>2011-04-15T11:32:01Z</time>
      </trkpt>
      <trkpt lat="48.44557" lon="2.12851">
        <ele>137</ele>
        <time>2011-04-15T11:32:02Z</time>
      </trkpt>
      <trkpt lat="48.44556" lon="2.12853">
        <ele>137</ele>
        <time>2011-04-15T11:32:03Z</time>
      </trkpt>
      <trkpt lat="48.44556" lon="2.12855">
        <ele>137</ele>
        <time>2011-04-15T11:32:04Z</time>
      </trkpt>
      <trkpt lat="48.44555" lon="2.12857">
        <ele>137</ele>
        <time>2011-04-15T11:32:05Z</time>
      </trkpt>
      <trkpt lat="48.44554" lon="2.12859">
        <ele>137</ele>
        <time>2011-04-15T11:32:06Z</time>
      </trkpt>
      <trkpt lat="48.44553" lon="2.12861">
        <ele>137</ele>
        <time>2011-04-15T11:32:07Z</time>
      </trkpt>
      <trkpt lat="48.44552" lon="2.12864">
        <ele>137</ele>
        <time>2011-04-15T11:32:08Z</time>
      </trkpt>
      <trkpt lat="48.44551" lon="2.12866">
        <ele>137</ele>
        <time>2011-04-15T11:32:09Z</time>
      </trkpt>
      <trkpt lat="48.44551" lon="2.12868">
        <ele>137</ele>
        <time>2011-04-15T11:32:10Z</time>
      </trkpt>
      <trkpt lat="48.4455" lon="2.1287">
        <ele>137</ele>
        <time>2011-04-15T11:32:11Z</time>
      </trkpt>
      <trkpt lat="48.44549" lon="2.12873">
        <ele>137</ele>
        <time>2011-04-15T11:32:12Z</time>
      </trkpt>
      <trkpt lat="48.44548" lon="2.12875">
        <ele>137</ele>
        <time>2011-04-15T11:32:13Z</time>
      </trkpt>
      <trkpt lat="48.44547" lon="2.12877">
        <ele>137</ele>
        <time>2011-04-15T11:32:14Z</time>
      </trkpt>
      <trkpt lat="48.44546" lon="2.12879">
        <ele>137</ele>
        <time>2011-04-15T11:32:15Z</time>
      </trkpt>
      <trkpt lat="48.44545" lon="2.12881">
        <ele>137</ele>
        <time>2011-04-15T11:32:16Z</time>
      </trkpt>
      <trkpt lat="48.44544" lon="2.12884">
        <ele>137</ele>
        <time>2011-04-15T11:32:17Z</time>
      </trkpt>
      <trkpt lat="48.44543" lon="2.12886">
        <ele>137</ele>
        <time>2011-04-15T11:32:18Z</time>
      </trkpt>
      <trkpt lat="48.44542" lon="2.12888">
        <ele>137</ele>
        <time>2011-04-15T11:32:19Z</time>
      </trkpt>
      <trkpt lat="48.44541" lon="2.1289">
        <ele>137</ele>
        <time>2011-04-15T11:32:20Z</time>
      </trkpt>
      <trkpt lat="48.4454" lon="2.12892">
        <ele>137</ele>
        <time>2011-04-15T11:32:21Z</time>
      </trkpt>
      <trkpt lat="48.4454" lon="2.12895">
        <ele>137</ele>
        <time>2011-04-15T11:32:22Z</time>
      </trkpt>
      <trkpt lat="48.44539" lon="2.12898">
        <ele>137</ele>
        <time>2011-04-15T11:32:23Z</time>
      </trkpt>
      <trkpt lat="48.44538" lon="2.129">
        <ele>137</ele>
        <time>2011-04-15T11:32:24Z</time>
      </trkpt>
      <trkpt lat="48.44537" lon="2.12903">
        <ele>137</ele>
        <time>2011-04-15T11:32:25Z</time>
      </trkpt>
      <trkpt lat="48.44536" lon="2.12905">
        <ele>137</ele>
        <time>2011-04-15T11:32:26Z</time>
      </trkpt>
      <trkpt lat="48.44535" lon="2.12907">
        <ele>137</ele>
        <time>2011-04-15T11:32:27Z</time>
      </trkpt>
      <trkpt lat="48.44534" lon="2.1291">
        <ele>137</ele>
        <time>2011-04-15T11:32:28Z</time>
      </trkpt>
      <trkpt lat="48.44534" lon="2.12912">
        <ele>137</ele>
        <time>2011-04-15T11:32:29Z</time>
      </trkpt>
      <trkpt lat="48.44533" lon="2.12914">
        <ele>137</ele>
        <time>2011-04-15T11:32:30Z</time>
      </trkpt>
      <trkpt lat="48.44532" lon="2.12916">
        <ele>137</ele>
        <time>2011-04-15T11:32:31Z</time>
      </trkpt>
      <trkpt lat="48.44531" lon="2.12918">
        <ele>137</ele>
        <time>2011-04-15T11:32:32Z</time>
      </trkpt>
      <trkpt lat="48.44531" lon="2.1292">
        <ele>137</ele>
        <time>2011-04-15T11:32:33Z</time>
      </trkpt>
      <trkpt lat="48.4453" lon="2.12923">
        <ele>137</ele>
        <time>2011-04-15T11:32:34Z</time>
      </trkpt>
      <trkpt lat="48.4453" lon="2.12925">
        <ele>137</ele>
        <time>2011-04-15T11:32:35Z</time>
      </trkpt>
      <trkpt lat="48.44529" lon="2.12928">
        <ele>137</ele>
        <time>2011-04-15T11:32:36Z</time>
      </trkpt>
      <trkpt lat="48.44528" lon="2.1293">
        <ele>137</ele>
        <time>2011-04-15T11:32:37Z</time>
      </trkpt>
      <trkpt lat="48.44527" lon="2.12933">
        <ele>137</ele>
        <time>2011-04-15T11:32:38Z</time>
      </trkpt>
      <trkpt lat="48.44527" lon="2.12935">
        <ele>137</ele>
        <time>2011-04-15T11:32:39Z</time>
      </trkpt>
      <trkpt lat="48.44526" lon="2.12937">
        <ele>137</ele>
        <time>2011-04-15T11:32:40Z</time>
      </trkpt>
      <trkpt lat="48.44526" lon="2.1294">
        <ele>137</ele>
        <time>2011-04-15T11:32:41Z</time>
      </trkpt>
      <trkpt lat="48.44525" lon="2.12942">
        <ele>137</ele>
        <time>2011-04-15T11:32:42Z</time>
      </trkpt>
      <trkpt lat="48.44524" lon="2.12945">
        <ele>137</ele>
        <time>2011-04-15T11:32:43Z</time>
      </trkpt>
      <trkpt lat="48.44523" lon="2.12947">
        <ele>137</ele>
        <time>2011-04-15T11:32:44Z</time>
      </trkpt>
      <trkpt lat="48.44523" lon="2.1295">
        <ele>137</ele>
        <time>2011-04-15T11:32:45Z</time>
      </trkpt>
      <trkpt lat="48.44522" lon="2.12952">
        <ele>137</ele>
        <time>2011-04-15T11:32:46Z</time>
      </trkpt>
      <trkpt lat="48.44521" lon="2.12955">
        <ele>137</ele>
        <time>2011-04-15T11:32:47Z</time>
      </trkpt>
      <trkpt lat="48.44521" lon="2.12957">
        <ele>137</ele>
        <time>2011-04-15T11:32:48Z</time>
      </trkpt>
      <trkpt lat="48.4452" lon="2.1296">
        <ele>137</ele>
        <time>2011-04-15T11:32:49Z</time>
      </trkpt>
      <trkpt lat="48.44519" lon="2.12963">
        <ele>137</ele>
        <time>2011-04-15T11:32:50Z</time>
      </trkpt>
      <trkpt lat="48.44518" lon="2.12965">
        <ele>137</ele>
        <time>2011-04-15T11:32:51Z</time>
      </trkpt>
      <trkpt lat="48.44518" lon="2.12967">
        <ele>137</ele>
        <time>2011-04-15T11:32:52Z</time>
      </trkpt>
      <trkpt lat="48.44517" lon="2.1297">
        <ele>137</ele>
        <time>2011-04-15T11:32:53Z</time>
      </trkpt>
      <trkpt lat="48.44516" lon="2.12972">
        <ele>137</ele>
        <time>2011-04-15T11:32:54Z</time>
      </trkpt>
      <trkpt lat="48.44516" lon="2.12974">
        <ele>137</ele>
        <time>2011-04-15T11:32:55Z</time>
      </trkpt>
      <trkpt lat="48.44515" lon="2.12976">
        <ele>137</ele>
        <time>2011-04-15T11:32:56Z</time>
      </trkpt>
      <trkpt lat="48.44515" lon="2.12979">
        <ele>137</ele>
        <time>2011-04-15T11:32:57Z</time>
      </trkpt>
      <trkpt lat="48.44514" lon="2.12981">
        <ele>137</ele>
        <time>2011-04-15T11:32:58Z</time>
      </trkpt>
      <trkpt lat="48.44513" lon="2.12984">
        <ele>137</ele>
        <time>2011-04-15T11:32:59Z</time>
      </trkpt>
      <trkpt lat="48.44512" lon="2.12986">
        <ele>137</ele>
        <time>2011-04-15T11:33:00Z</time>
      </trkpt>
      <trkpt lat="48.44511" lon="2.12988">
        <ele>137</ele>
        <time>2011-04-15T11:33:01Z</time>
      </trkpt>
      <trkpt lat="48.4451" lon="2.12991">
        <ele>137</ele>
        <time>2011-04-15T11:33:02Z</time>
      </trkpt>
      <trkpt lat="48.44509" lon="2.12993">
        <ele>137</ele>
        <time>2011-04-15T11:33:03Z</time>
      </trkpt>
      <trkpt lat="48.44508" lon="2.12996">
        <ele>137</ele>
        <time>2011-04-15T11:33:04Z</time>
      </trkpt>
      <trkpt lat="48.44508" lon="2.12998">
        <ele>137</ele>
        <time>2011-04-15T11:33:05Z</time>
      </trkpt>
      <trkpt lat="48.44507" lon="2.13">
        <ele>137</ele>
        <time>2011-04-15T11:33:06Z</time>
      </trkpt>
      <trkpt lat="48.44507" lon="2.13002">
        <ele>137</ele>
        <time>2011-04-15T11:33:07Z</time>
      </trkpt>
      <trkpt lat="48.44506" lon="2.13005">
        <ele>137</ele>
        <time>2011-04-15T11:33:08Z</time>
      </trkpt>
      <trkpt lat="48.44505" lon="2.13007">
        <ele>137</ele>
        <time>2011-04-15T11:33:09Z</time>
      </trkpt>
      <trkpt lat="48.44505" lon="2.13009">
        <ele>137</ele>
        <time>2011-04-15T11:33:10Z</time>
      </trkpt>
      <trkpt lat="48.44504" lon="2.13012">
        <ele>137</ele>
        <time>2011-04-15T11:33:11Z</time>
      </trkpt>
      <trkpt lat="48.44504" lon="2.13014">
        <ele>137</ele>
        <time>2011-04-15T11:33:12Z</time>
      </trkpt>
      <trkpt lat="48.44503" lon="2.13016">
        <ele>137</ele>
        <time>2011-04-15T11:33:13Z</time>
      </trkpt>
      <trkpt lat="48.44503" lon="2.13019">
        <ele>137</ele>
        <time>2011-04-15T11:33:14Z</time>
      </trkpt>
      <trkpt lat="48.44502" lon="2.13021">
        <ele>137</ele>
        <time>2011-04-15T11:33:15Z</time>
      </trkpt>
      <trkpt lat="48.44502" lon="2.13024">
        <ele>137</ele>
        <time>2011-04-15T11:33:16Z</time>
      </trkpt>
      <trkpt lat="48.44501" lon="2.13026">
        <ele>137</ele>
        <time>2011-04-15T11:33:17Z</time>
      </trkpt>
      <trkpt lat="48.44501" lon="2.13028">
        <ele>137</ele>
        <time>2011-04-15T11:33:18Z</time>
      </trkpt>
      <trkpt lat="48.445" lon="2.13031">
        <ele>137</ele>
        <time>2011-04-15T11:33:19Z</time>
      </trkpt>
      <trkpt lat="48.44499" lon="2.13033">
        <ele>137</ele>
        <time>2011-04-15T11:33:20Z</time>
      </trkpt>
      <trkpt lat="48.44499" lon="2.13035">
        <ele>137</ele>
        <time>2011-04-15T11:33:21Z</time>
      </trkpt>
      <trkpt lat="48.44498" lon="2.13038">
        <ele>137</ele>
        <time>2011-04-15T11:33:22Z</time>
      </trkpt>
      <trkpt lat="48.44498" lon="2.1304">
        <ele>137</ele>
        <time>2011-04-15T11:33:23Z</time>
      </trkpt>
      <trkpt lat="48.44497" lon="2.13043">
        <ele>137</ele>
        <time>2011-04-15T11:33:24Z</time>
      </trkpt>
      <trkpt lat="48.44496" lon="2.13046">
        <ele>137</ele>
        <time>2011-04-15T11:33:25Z</time>
      </trkpt>
      <trkpt lat="48.44496" lon="2.13048">
        <ele>137</ele>
        <time>2011-04-15T11:33:26Z</time>
      </trkpt>
      <trkpt lat="48.44495" lon="2.1305">
        <ele>137</ele>
        <time>2011-04-15T11:33:27Z</time>
      </trkpt>
      <trkpt lat="48.44495" lon="2.13052">
        <ele>137</ele>
        <time>2011-04-15T11:33:28Z</time>
      </trkpt>
      <trkpt lat="48.44494" lon="2.13055">
        <ele>137</ele>
        <time>2011-04-15T11:33:29Z</time>
      </trkpt>
      <trkpt lat="48.44494" lon="2.13057">
        <ele>137</ele>
        <time>2011-04-15T11:33:30Z</time>
      </trkpt>
      <trkpt lat="48.44493" lon="2.1306">
        <ele>137</ele>
        <time>2011-04-15T11:33:31Z</time>
      </trkpt>
      <trkpt lat="48.44493" lon="2.13062">
        <ele>137</ele>
        <time>2011-04-15T11:33:32Z</time>
      </trkpt>
      <trkpt lat="48.44492" lon="2.13064">
        <ele>137</ele>
        <time>2011-04-15T11:33:33Z</time>
      </trkpt>
      <trkpt lat="48.44492" lon="2.13067">
        <ele>137</ele>
        <time>2011-04-15T11:33:34Z</time>
      </trkpt>
      <trkpt lat="48.44491" lon="2.13069">
        <ele>137</ele>
        <time>2011-04-15T11:33:35Z</time>
      </trkpt>
      <trkpt lat="48.4449" lon="2.13071">
        <ele>137</ele>
        <time>2011-04-15T11:33:36Z</time>
      </trkpt>
      <trkpt lat="48.4449" lon="2.13074">
        <ele>137</ele>
        <time>2011-04-15T11:33:37Z</time>
      </trkpt>
      <trkpt lat="48.44489" lon="2.13077">
        <ele>137</ele>
        <time>2011-04-15T11:33:38Z</time>
      </trkpt>
      <trkpt lat="48.44488" lon="2.13079">
        <ele>137</ele>
        <time>2011-04-15T11:33:39Z</time>
      </trkpt>
      <trkpt lat="48.44487" lon="2.13081">
        <ele>137</ele>
        <time>2011-04-15T11:33:40Z</time>
      </trkpt>
      <trkpt lat="48.44487" lon="2.13084">
        <ele>137</ele>
        <time>2011-04-15T11:33:41Z</time>
      </trkpt>
      <trkpt lat="48.44486" lon="2.13086">
        <ele>137</ele>
        <time>2011-04-15T11:33:42Z</time>
      </trkpt>
      <trkpt lat="48.44485" lon="2.13088">
        <ele>137</ele>
        <time>2011-04-15T11:33:43Z</time>
      </trkpt>
      <trkpt lat="48.44485" lon="2.13091">
        <ele>137</ele>
        <time>2011-04-15T11:33:44Z</time>
      </trkpt>
      <trkpt lat="48.44484" lon="2.13093">
        <ele>137</ele>
        <time>2011-04-15T11:33:45Z</time>
      </trkpt>
      <trkpt lat="48.44484" lon="2.13096">
        <ele>137</ele>
        <time>2011-04-15T11:33:46Z</time>
      </trkpt>
      <trkpt lat="48.44483" lon="2.13098">
        <ele>137</ele>
        <time>2011-04-15T11:33:47Z</time>
      </trkpt>
      <trkpt lat="48.44482" lon="2.13101">
        <ele>137</ele>
        <time>2011-04-15T11:33:48Z</time>
      </trkpt>
      <trkpt lat="48.44482" lon="2.13103">
        <ele>137</ele>
        <time>2011-04-15T11:33:49Z</time>
      </trkpt>
      <trkpt lat="48.44481" lon="2.13106">
        <ele>137</ele>
        <time>2011-04-15T11:33:50Z</time>
      </trkpt>
      <trkpt lat="48.44481" lon="2.13108">
        <ele>137</ele>
        <time>2011-04-15T11:33:51Z</time>
      </trkpt>
      <trkpt lat="48.4448" lon="2.13111">
        <ele>137</ele>
        <time>2011-04-15T11:33:52Z</time>
      </trkpt>
      <trkpt lat="48.4448" lon="2.13113">
        <ele>137</ele>
        <time>2011-04-15T11:33:53Z</time>
      </trkpt>
      <trkpt lat="48.44479" lon="2.13115">
        <ele>137</ele>
        <time>2011-04-15T11:33:54Z</time>
      </trkpt>
      <trkpt lat="48.44478" lon="2.13117">
        <ele>137</ele>
        <time>2011-04-15T11:33:55Z</time>
      </trkpt>
      <trkpt lat="48.44478" lon="2.1312">
        <ele>137</ele>
        <time>2011-04-15T11:33:56Z</time>
      </trkpt>
      <trkpt lat="48.44477" lon="2.13122">
        <ele>137</ele>
        <time>2011-04-15T11:33:57Z</time>
      </trkpt>
      <trkpt lat="48.44476" lon="2.13125">
        <ele>137</ele>
        <time>2011-04-15T11:33:58Z</time>
      </trkpt>
      <trkpt lat="48.44475" lon="2.13127">
        <ele>137</ele>
        <time>2011-04-15T11:33:59Z</time>
      </trkpt>
      <trkpt lat="48.44475" lon="2.13129">
        <ele>137</ele>
        <time>2011-04-15T11:34:00Z</time>
      </trkpt>
      <trkpt lat="48.44474" lon="2.13132">
        <ele>137</ele>
        <time>2011-04-15T11:34:01Z</time>
      </trkpt>
      <trkpt lat="48.44474" lon="2.13134">
        <ele>137</ele>
        <time>2011-04-15T11:34:02Z</time>
      </trkpt>
      <trkpt lat="48.44473" lon="2.13136">
        <ele>137</ele>
        <time>2011-04-15T11:34:03Z</time>
      </trkpt>
      <trkpt lat="48.44473" lon="2.13138">
        <ele>137</ele>
        <time>2011-04-15T11:34:04Z</time>
      </trkpt>
      <trkpt lat="48.44472" lon="2.1314">
        <ele>137</ele>
        <time>2011-04-15T11:34:05Z</time>
      </trkpt>
      <trkpt lat="48.44472" lon="2.13143">
        <ele>137</ele>
        <time>2011-04-15T11:34:06Z</time>
      </trkpt>
      <trkpt lat="48.44471" lon="2.13145">
        <ele>137</ele>
        <time>2011-04-15T11:34:07Z</time>
      </trkpt>
      <trkpt lat="48.4447" lon="2.13148">
        <ele>137</ele>
        <time>2011-04-15T11:34:08Z</time>
      </trkpt>
      <trkpt lat="48.4447" lon="2.1315">
        <ele>137</ele>
        <time>2011-04-15T11:34:09Z</time>
      </trkpt>
      <trkpt lat="48.44469" lon="2.13153">
        <ele>137</ele>
        <time>2011-04-15T11:34:10Z</time>
      </trkpt>
      <trkpt lat="48.44469" lon="2.13156">
        <ele>137</ele>
        <time>2011-04-15T11:34:11Z</time>
      </trkpt>
      <trkpt lat="48.44468" lon="2.13158">
        <ele>137</ele>
        <time>2011-04-15T11:34:12Z</time>
      </trkpt>
      <trkpt lat="48.44468" lon="2.13161">
        <ele>137</ele>
        <time>2011-04-15T11:34:13Z</time>
      </trkpt>
      <trkpt lat="48.44467" lon="2.13163">
        <ele>137</ele>
        <time>2011-04-15T11:34:14Z</time>
      </trkpt>
      <trkpt lat="48.44467" lon="2.13166">
        <ele>137</ele>
        <time>2011-04-15T11:34:15Z</time>
      </trkpt>
      <trkpt lat="48.44466" lon="2.13168">
        <ele>137</ele>
        <time>2011-04-15T11:34:16Z</time>
      </trkpt>
      <trkpt lat="48.44466" lon="2.13171">
        <ele>137</ele>
        <time>2011-04-15T11:34:17Z</time>
      </trkpt>
      <trkpt lat="48.44465" lon="2.13173">
        <ele>137</ele>
        <time>2011-04-15T11:34:18Z</time>
      </trkpt>
      <trkpt lat="48.44465" lon="2.13175">
        <ele>137</ele>
        <time>2011-04-15T11:34:19Z</time>
      </trkpt>
      <trkpt lat="48.44464" lon="2.13178">
        <ele>137</ele>
        <time>2011-04-15T11:34:20Z</time>
      </trkpt>
      <trkpt lat="48.44464" lon="2.1318">
        <ele>137</ele>
        <time>2011-04-15T11:34:21Z</time>
      </trkpt>
      <trkpt lat="48.44463" lon="2.13182">
        <ele>137</ele>
        <time>2011-04-15T11:34:22Z</time>
      </trkpt>
      <trkpt lat="48.44463" lon="2.13185">
        <ele>137</ele>
        <time>2011-04-15T11:34:23Z</time>
      </trkpt>
      <trkpt lat="48.44462" lon="2.13187">
        <ele>137</ele>
        <time>2011-04-15T11:34:24Z</time>
      </trkpt>
      <trkpt lat="48.44462" lon="2.1319">
        <ele>137</ele>
        <time>2011-04-15T11:34:25Z</time>
      </trkpt>
      <trkpt lat="48.44461" lon="2.13192">
        <ele>137</ele>
        <time>2011-04-15T11:34:26Z</time>
      </trkpt>
      <trkpt lat="48.44461" lon="2.13194">
        <ele>137</ele>
        <time>2011-04-15T11:34:27Z</time>
      </trkpt>
      <trkpt lat="48.4446" lon="2.13197">
        <ele>137</ele>
        <time>2011-04-15T11:34:28Z</time>
      </trkpt>
      <trkpt lat="48.4446" lon="2.13199">
        <ele>137</ele>
        <time>2011-04-15T11:34:29Z</time>
      </trkpt>
      <trkpt lat="48.44459" lon="2.13202">
        <ele>137</ele>
        <time>2011-04-15T11:34:30Z</time>
      </trkpt>
      <trkpt lat="48.44459" lon="2.13205">
        <ele>137</ele>
        <time>2011-04-15T11:34:31Z</time>
      </trkpt>
      <trkpt lat="48.44458" lon="2.13207">
        <ele>137</ele>
        <time>2011-04-15T11:34:32Z</time>
      </trkpt>
      <trkpt lat="48.44458" lon="2.1321">
        <ele>137</ele>
        <time>2011-04-15T11:34:33Z</time>
      </trkpt>
      <trkpt lat="48.44457" lon="2.13212">
        <ele>137</ele>
        <time>2011-04-15T11:34:34Z</time>
      </trkpt>
      <trkpt lat="48.44456" lon="2.13215">
        <ele>137</ele>
        <time>2011-04-15T11:34:35Z</time>
      </trkpt>
      <trkpt lat="48.44456" lon="2.13218">
        <ele>137</ele>
        <time>2011-04-15T11:34:36Z</time>
      </trkpt>
      <trkpt lat="48.44455" lon="2.13221">
        <ele>137</ele>
        <time>2011-04-15T11:34:37Z</time>
      </trkpt>
      <trkpt lat="48.44455" lon="2.13224">
        <ele>137</ele>
        <time>2011-04-15T11:34:38Z</time>
      </trkpt>
      <trkpt lat="48.44455" lon="2.13226">
        <ele>137</ele>
        <time>2011-04-15T11:34:39Z</time>
      </trkpt>
      <trkpt lat="48.44454" lon="2.13229">
        <ele>137</ele>
        <time>2011-04-15T11:34:40Z</time>
      </trkpt>
      <trkpt lat="48.44454" lon="2.13231">
        <ele>137</ele>
        <time>2011-04-15T11:34:41Z</time>
      </trkpt>
      <trkpt lat="48.44454" lon="2.13233">
        <ele>137</ele>
        <time>2011-04-15T11:34:42Z</time>
      </trkpt>
      <trkpt lat="48.44453" lon="2.13236">
        <ele>137</ele>
        <time>2011-04-15T11:34:43Z</time>
      </trkpt>
      <trkpt lat="48.44453" lon="2.13239">
        <ele>137</ele>
        <time>2011-04-15T11:34:44Z</time>
      </trkpt>
      <trkpt lat="48.44453" lon="2.13241">
        <ele>137</ele>
        <time>2011-04-15T11:34:45Z</time>
      </trkpt>
      <trkpt lat="48.44453" lon="2.13243">
        <ele>137</ele>
        <time>2011-04-15T11:34:46Z</time>
      </trkpt>
      <trkpt lat="48.44453" lon="2.13245">
        <ele>137</ele>
        <time>2011-04-15T11:34:47Z</time>
      </trkpt>
      <trkpt lat="48.44452" lon="2.13248">
        <ele>137</ele>
        <time>2011-04-15T11:34:48Z</time>
      </trkpt>
      <trkpt lat="48.44451" lon="2.1325">
        <ele>137</ele>
        <time>2011-04-15T11:34:49Z</time>
      </trkpt>
      <trkpt lat="48.44451" lon="2.13253">
        <ele>137</ele>
        <time>2011-04-15T11:34:50Z</time>
      </trkpt>
      <trkpt lat="48.4445" lon="2.13255">
        <ele>137</ele>
        <time>2011-04-15T11:34:51Z</time>
      </trkpt>
      <trkpt lat="48.4445" lon="2.13258">
        <ele>137</ele>
        <time>2011-04-15T11:34:52Z</time>
      </trkpt>
      <trkpt lat="48.4445" lon="2.1326">
        <ele>137</ele>
        <time>2011-04-15T11:34:53Z</time>
      </trkpt>
      <trkpt lat="48.4445" lon="2.13263">
        <ele>137</ele>
        <time>2011-04-15T11:34:54Z</time>
      </trkpt>
      <trkpt lat="48.4445" lon="2.13266">
        <ele>137</ele>
        <time>2011-04-15T11:34:55Z</time>
      </trkpt>
      <trkpt lat="48.44449" lon="2.13268">
        <ele>137</ele>
        <time>2011-04-15T11:34:56Z</time>
      </trkpt>
      <trkpt lat="48.44449" lon="2.13271">
        <ele>137</ele>
        <time>2011-04-15T11:34:57Z</time>
      </trkpt>
      <trkpt lat="48.44449" lon="2.13273">
        <ele>137</ele>
        <time>2011-04-15T11:34:58Z</time>
      </trkpt>
      <trkpt lat="48.44449" lon="2.13276">
        <ele>137</ele>
        <time>2011-04-15T11:34:59Z</time>
      </trkpt>
      <trkpt lat="48.44448" lon="2.13278">
        <ele>137</ele>
        <time>2011-04-15T11:35:00Z</time>
      </trkpt>
      <trkpt lat="48.44448" lon="2.13281">
        <ele>137</ele>
        <time>2011-04-15T11:35:01Z</time>
      </trkpt>
      <trkpt lat="48.44448" lon="2.13283">
        <ele>137</ele>
        <time>2011-04-15T11:35:02Z</time>
      </trkpt>
      <trkpt lat="48.44448" lon="2.13286">
        <ele>137</ele>
        <time>2011-04-15T11:35:03Z</time>
      </trkpt>
      <trkpt lat="48.44447" lon="2.13288">
        <ele>137</ele>
        <time>2011-04-15T11:35:04Z</time>
      </trkpt>
      <trkpt lat="48.44447" lon="2.1329">
        <ele>137</ele>
        <time>2011-04-15T11:35:05Z</time>
      </trkpt>
      <trkpt lat="48.44447" lon="2.13292">
        <ele>137</ele>
        <time>2011-04-15T11:35:06Z</time>
      </trkpt>
      <trkpt lat="48.44447" lon="2.13294">
        <ele>137</ele>
        <time>2011-04-15T11:35:07Z</time>
      </trkpt>
      <trkpt lat="48.44447" lon="2.13296">
        <ele>137</ele>
        <time>2011-04-15T11:35:08Z</time>
      </trkpt>
      <trkpt lat="48.44446" lon="2.13298">
        <ele>137</ele>
        <time>2011-04-15T11:35:09Z</time>
      </trkpt>
      <trkpt lat="48.44446" lon="2.13301">
        <ele>137</ele>
        <time>2011-04-15T11:35:10Z</time>
      </trkpt>
      <trkpt lat="48.44446" lon="2.13303">
        <ele>137</ele>
        <time>2011-04-15T11:35:11Z</time>
      </trkpt>
      <trkpt lat="48.44445" lon="2.13305">
        <ele>137</ele>
        <time>2011-04-15T11:35:12Z</time>
      </trkpt>
      <trkpt lat="48.44445" lon="2.13307">
        <ele>137</ele>
        <time>2011-04-15T11:35:13Z</time>
      </trkpt>
      <trkpt lat="48.44445" lon="2.1331">
        <ele>137</ele>
        <time>2011-04-15T11:35:14Z</time>
      </trkpt>
      <trkpt lat="48.44444" lon="2.13312">
        <ele>137</ele>
        <time>2011-04-15T11:35:15Z</time>
      </trkpt>
      <trkpt lat="48.44444" lon="2.13315">
        <ele>137</ele>
        <time>2011-04-15T11:35:16Z</time>
      </trkpt>
      <trkpt lat="48.44444" lon="2.13317">
        <ele>137</ele>
        <time>2011-04-15T11:35:17Z</time>
      </trkpt>
      <trkpt lat="48.44443" lon="2.1332">
        <ele>137</ele>
        <time>2011-04-15T11:35:18Z</time>
      </trkpt>
      <trkpt lat="48.44443" lon="2.13322">
        <ele>137</ele>
        <time>2011-04-15T11:35:19Z</time>
      </trkpt>
      <trkpt lat="48.44443" lon="2.13325">
        <ele>137</ele>
        <time>2011-04-15T11:35:20Z</time>
      </trkpt>
      <trkpt lat="48.44442" lon="2.13328">
        <ele>137</ele>
        <time>2011-04-15T11:35:21Z</time>
      </trkpt>
      <trkpt lat="48.44442" lon="2.1333">
        <ele>137</ele>
        <time>2011-04-15T11:35:22Z</time>
      </trkpt>
      <trkpt lat="48.44442" lon="2.13333">
        <ele>137</ele>
        <time>2011-04-15T11:35:23Z</time>
      </trkpt>
      <trkpt lat="48.44441" lon="2.13335">
        <ele>137</ele>
        <time>2011-04-15T11:35:24Z</time>
      </trkpt>
      <trkpt lat="48.44441" lon="2.13338">
        <ele>137</ele>
        <time>2011-04-15T11:35:25Z</time>
      </trkpt>
      <trkpt lat="48.44441" lon="2.1334">
        <ele>137</ele>
        <time>2011-04-15T11:35:26Z</time>
      </trkpt>
      <trkpt lat="48.4444" lon="2.13343">
        <ele>137</ele>
        <time>2011-04-15T11:35:27Z</time>
      </trkpt>
      <trkpt lat="48.4444" lon="2.13345">
        <ele>137</ele>
        <time>2011-04-15T11:35:28Z</time>
      </trkpt>
      <trkpt lat="48.44439" lon="2.13348">
        <ele>137</ele>
        <time>2011-04-15T11:35:29Z</time>
      </trkpt>
      <trkpt lat="48.44439" lon="2.1335">
        <ele>137</ele>
        <time>2011-04-15T11:35:30Z</time>
      </trkpt>
      <trkpt lat="48.44439" lon="2.13352">
        <ele>137</ele>
        <time>2011-04-15T11:35:31Z</time>
      </trkpt>
      <trkpt lat="48.44439" lon="2.13355">
        <ele>137</ele>
        <time>2011-04-15T11:35:32Z</time>
      </trkpt>
      <trkpt lat="48.44438" lon="2.13357">
        <ele>137</ele>
        <time>2011-04-15T11:35:33Z</time>
      </trkpt>
      <trkpt lat="48.44438" lon="2.1336">
        <ele>137</ele>
        <time>2011-04-15T11:35:34Z</time>
      </trkpt>
      <trkpt lat="48.44438" lon="2.13362">
        <ele>137</ele>
        <time>2011-04-15T11:35:35Z</time>
      </trkpt>
      <trkpt lat="48.44437" lon="2.13365">
        <ele>137</ele>
        <time>2011-04-15T11:35:36Z</time>
      </trkpt>
      <trkpt lat="48.44437" lon="2.13367">
        <ele>137</ele>
        <time>2011-04-15T11:35:37Z</time>
      </trkpt>
      <trkpt lat="48.44436" lon="2.1337">
        <ele>137</ele>
        <time>2011-04-15T11:35:38Z</time>
      </trkpt>
      <trkpt lat="48.44436" lon="2.13372">
        <ele>137</ele>
        <time>2011-04-15T11:35:39Z</time>
      </trkpt>
      <trkpt lat="48.44435" lon="2.13375">
        <ele>137</ele>
        <time>2011-04-15T11:35:40Z</time>
      </trkpt>
      <trkpt lat="48.44435" lon="2.13377">
        <ele>137</ele>
        <time>2011-04-15T11:35:41Z</time>
      </trkpt>
      <trkpt lat="48.44434" lon="2.1338">
        <ele>137</ele>
        <time>2011-04-15T11:35:42Z</time>
      </trkpt>
      <trkpt lat="48.44434" lon="2.13382">
        <ele>137</ele>
        <time>2011-04-15T11:35:43Z</time>
      </trkpt>
      <trkpt lat="48.44433" lon="2.13384">
        <ele>137</ele>
        <time>2011-04-15T11:35:44Z</time>
      </trkpt>
      <trkpt lat="48.44433" lon="2.13387">
        <ele>137</ele>
        <time>2011-04-15T11:35:45Z</time>
      </trkpt>
      <trkpt lat="48.44433" lon="2.13389">
        <ele>137</ele>
        <time>2011-04-15T11:35:46Z</time>
      </trkpt>
      <trkpt lat="48.44432" lon="2.13392">
        <ele>137</ele>
        <time>2011-04-15T11:35:47Z</time>
      </trkpt>
      <trkpt lat="48.44432" lon="2.13394">
        <ele>137</ele>
        <time>2011-04-15T11:35:48Z</time>
      </trkpt>
      <trkpt lat="48.44431" lon="2.13396">
        <ele>137</ele>
        <time>2011-04-15T11:35:49Z</time>
      </trkpt>
      <trkpt lat="48.44431" lon="2.13398">
        <ele>137</ele>
        <time>2011-04-15T11:35:50Z</time>
      </trkpt>
      <trkpt lat="48.44431" lon="2.134">
        <ele>137</ele>
        <time>2011-04-15T11:35:51Z</time>
      </trkpt>
      <trkpt lat="48.44431" lon="2.13403">
        <ele>137</ele>
        <time>2011-04-15T11:35:52Z</time>
      </trkpt>
      <trkpt lat="48.4443" lon="2.13405">
        <ele>137</ele>
        <time>2011-04-15T11:35:53Z</time>
      </trkpt>
      <trkpt lat="48.4443" lon="2.13407">
        <ele>137</ele>
        <time>2011-04-15T11:35:54Z</time>
      </trkpt>
      <trkpt lat="48.44429" lon="2.13409">
        <ele>137</ele>
        <time>2011-04-15T11:35:55Z</time>
      </trkpt>
      <trkpt lat="48.44428" lon="2.13412">
        <ele>137</ele>
        <time>2011-04-15T11:35:56Z</time>
      </trkpt>
      <trkpt lat="48.44427" lon="2.13414">
        <ele>137</ele>
        <time>2011-04-15T11:35:57Z</time>
      </trkpt>
      <trkpt lat="48.44427" lon="2.13416">
        <ele>137</ele>
        <time>2011-04-15T11:35:58Z</time>
      </trkpt>
      <trkpt lat="48.44426" lon="2.13419">
        <ele>137</ele>
        <time>2011-04-15T11:35:59Z</time>
      </trkpt>
      <trkpt lat="48.44426" lon="2.13421">
        <ele>137</ele>
        <time>2011-04-15T11:36:00Z</time>
      </trkpt>
      <trkpt lat="48.44425" lon="2.13423">
        <ele>137</ele>
        <time>2011-04-15T11:36:01Z</time>
      </trkpt>
      <trkpt lat="48.44425" lon="2.13426">
        <ele>137</ele>
        <time>2011-04-15T11:36:02Z</time>
      </trkpt>
      <trkpt lat="48.44425" lon="2.13428">
        <ele>137</ele>
        <time>2011-04-15T11:36:03Z</time>
      </trkpt>
      <trkpt lat="48.44424" lon="2.13431">
        <ele>137</ele>
        <time>2011-04-15T11:36:04Z</time>
      </trkpt>
      <trkpt lat="48.44424" lon="2.13433">
        <ele>137</ele>
        <time>2011-04-15T11:36:05Z</time>
      </trkpt>
      <trkpt lat="48.44423" lon="2.13436">
        <ele>137</ele>
        <time>2011-04-15T11:36:06Z</time>
      </trkpt>
      <trkpt lat="48.44423" lon="2.13438">
        <ele>137</ele>
        <time>2011-04-15T11:36:07Z</time>
      </trkpt>
      <trkpt lat="48.44422" lon="2.13441">
        <ele>137</ele>
        <time>2011-04-15T11:36:08Z</time>
      </trkpt>
      <trkpt lat="48.44422" lon="2.13443">
        <ele>137</ele>
        <time>2011-04-15T11:36:09Z</time>
      </trkpt>
      <trkpt lat="48.44421" lon="2.13446">
        <ele>137</ele>
        <time>2011-04-15T11:36:10Z</time>
      </trkpt>
      <trkpt lat="48.44421" lon="2.13448">
        <ele>137</ele>
        <time>2011-04-15T11:36:11Z</time>
      </trkpt>
      <trkpt lat="48.4442" lon="2.1345">
        <ele>137</ele>
        <time>2011-04-15T11:36:12Z</time>
      </trkpt>
      <trkpt lat="48.4442" lon="2.13453">
        <ele>137</ele>
        <time>2011-04-15T11:36:13Z</time>
      </trkpt>
      <trkpt lat="48.44419" lon="2.13455">
        <ele>137</ele>
        <time>2011-04-15T11:36:14Z</time>
      </trkpt>
      <trkpt lat="48.44418" lon="2.13457">
        <ele>137</ele>
        <time>2011-04-15T11:36:15Z</time>
      </trkpt>
      <trkpt lat="48.44418" lon="2.1346">
        <ele>137</ele>
        <time>2011-04-15T11:36:16Z</time>
      </trkpt>
      <trkpt lat="48.44417" lon="2.13462">
        <ele>137</ele>
        <time>2011-04-15T11:36:17Z</time>
      </trkpt>
      <trkpt lat="48.44417" lon="2.13464">
        <ele>137</ele>
        <time>2011-04-15T11:36:18Z</time>
      </trkpt>
      <trkpt lat="48.44416" lon="2.13467">
        <ele>137</ele>
        <time>2011-04-15T11:36:19Z</time>
      </trkpt>
      <trkpt lat="48.44416" lon="2.13469">
        <ele>137</ele>
        <time>2011-04-15T11:36:20Z</time>
      </trkpt>
      <trkpt lat="48.44416" lon="2.13471">
        <ele>137</ele>
        <time>2011-04-15T11:36:21Z</time>
      </trkpt>
      <trkpt lat="48.44415" lon="2.13473">
        <ele>137</ele>
        <time>2011-04-15T11:36:22Z</time>
      </trkpt>
      <trkpt lat="48.44415" lon="2.13475">
        <ele>137</ele>
        <time>2011-04-15T11:36:23Z</time>
      </trkpt>
      <trkpt lat="48.44415" lon="2.13478">
        <ele>137</ele>
        <time>2011-04-15T11:36:24Z</time>
      </trkpt>
      <trkpt lat="48.44414" lon="2.1348">
        <ele>137</ele>
        <time>2011-04-15T11:36:25Z</time>
      </trkpt>
      <trkpt lat="48.44414" lon="2.13482">
        <ele>137</ele>
        <time>2011-04-15T11:36:26Z</time>
      </trkpt>
      <trkpt lat="48.44414" lon="2.13485">
        <ele>137</ele>
        <time>2011-04-15T11:36:27Z</time>
      </trkpt>
      <trkpt lat="48.44413" lon="2.13487">
        <ele>137</ele>
        <time>2011-04-15T11:36:28Z</time>
      </trkpt>
      <trkpt lat="48.44413" lon="2.13489">
        <ele>137</ele>
        <time>2011-04-15T11:36:29Z</time>
      </trkpt>
      <trkpt lat="48.44412" lon="2.13492">
        <ele>137</ele>
        <time>2011-04-15T11:36:30Z</time>
      </trkpt>
      <trkpt lat="48.44412" lon="2.13494">
        <ele>137</ele>
        <time>2011-04-15T11:36:31Z</time>
      </trkpt>
      <trkpt lat="48.44412" lon="2.13496">
        <ele>137</ele>
        <time>2011-04-15T11:36:32Z</time>
      </trkpt>
      <trkpt lat="48.44411" lon="2.13498">
        <ele>137</ele>
        <time>2011-04-15T11:36:33Z</time>
      </trkpt>
      <trkpt lat="48.4441" lon="2.13501">
        <ele>137</ele>
        <time>2011-04-15T11:36:34Z</time>
      </trkpt>
      <trkpt lat="48.4441" lon="2.13504">
        <ele>137</ele>
        <time>2011-04-15T11:36:35Z</time>
      </trkpt>
      <trkpt lat="48.44409" lon="2.13506">
        <ele>137</ele>
        <time>2011-04-15T11:36:36Z</time>
      </trkpt>
      <trkpt lat="48.44409" lon="2.13509">
        <ele>137</ele>
        <time>2011-04-15T11:36:37Z</time>
      </trkpt>
      <trkpt lat="48.44408" lon="2.13511">
        <ele>137</ele>
        <time>2011-04-15T11:36:38Z</time>
      </trkpt>
      <trkpt lat="48.44408" lon="2.13513">
        <ele>137</ele>
        <time>2011-04-15T11:36:39Z</time>
      </trkpt>
      <trkpt lat="48.44407" lon="2.13516">
        <ele>137</ele>
        <time>2011-04-15T11:36:40Z</time>
      </trkpt>
      <trkpt lat="48.44406" lon="2.13518">
        <ele>137</ele>
        <time>2011-04-15T11:36:41Z</time>
      </trkpt>
      <trkpt lat="48.44406" lon="2.1352">
        <ele>137</ele>
        <time>2011-04-15T11:36:42Z</time>
      </trkpt>
      <trkpt lat="48.44406" lon="2.13523">
        <ele>137</ele>
        <time>2011-04-15T11:36:43Z</time>
      </trkpt>
      <trkpt lat="48.44405" lon="2.13525">
        <ele>137</ele>
        <time>2011-04-15T11:36:44Z</time>
      </trkpt>
      <trkpt lat="48.44404" lon="2.13528">
        <ele>136</ele>
        <time>2011-04-15T11:36:45Z</time>
      </trkpt>
      <trkpt lat="48.44404" lon="2.1353">
        <ele>136</ele>
        <time>2011-04-15T11:36:46Z</time>
      </trkpt>
      <trkpt lat="48.44403" lon="2.13532">
        <ele>136</ele>
        <time>2011-04-15T11:36:47Z</time>
      </trkpt>
      <trkpt lat="48.44403" lon="2.13535">
        <ele>136</ele>
        <time>2011-04-15T11:36:48Z</time>
      </trkpt>
      <trkpt lat="48.44402" lon="2.13537">
        <ele>136</ele>
        <time>2011-04-15T11:36:49Z</time>
      </trkpt>
      <trkpt lat="48.44402" lon="2.1354">
        <ele>136</ele>
        <time>2011-04-15T11:36:50Z</time>
      </trkpt>
      <trkpt lat="48.44402" lon="2.13542">
        <ele>136</ele>
        <time>2011-04-15T11:36:51Z</time>
      </trkpt>
      <trkpt lat="48.44401" lon="2.13544">
        <ele>136</ele>
        <time>2011-04-15T11:36:52Z</time>
      </trkpt>
      <trkpt lat="48.44401" lon="2.13546">
        <ele>136</ele>
        <time>2011-04-15T11:36:53Z</time>
      </trkpt>
      <trkpt lat="48.44401" lon="2.13549">
        <ele>136</ele>
        <time>2011-04-15T11:36:54Z</time>
      </trkpt>
      <trkpt lat="48.44401" lon="2.13551">
        <ele>136</ele>
        <time>2011-04-15T11:36:55Z</time>
      </trkpt>
      <trkpt lat="48.444" lon="2.13554">
        <ele>136</ele>
        <time>2011-04-15T11:36:56Z</time>
      </trkpt>
      <trkpt lat="48.444" lon="2.13556">
        <ele>136</ele>
        <time>2011-04-15T11:36:57Z</time>
      </trkpt>
      <trkpt lat="48.444" lon="2.13558">
        <ele>136</ele>
        <time>2011-04-15T11:36:58Z</time>
      </trkpt>
      <trkpt lat="48.44399" lon="2.1356">
        <ele>136</ele>
        <time>2011-04-15T11:36:59Z</time>
      </trkpt>
      <trkpt lat="48.44399" lon="2.13563">
        <ele>136</ele>
        <time>2011-04-15T11:37:00Z</time>
      </trkpt>
      <trkpt lat="48.44399" lon="2.13565">
        <ele>136</ele>
        <time>2011-04-15T11:37:01Z</time>
      </trkpt>
      <trkpt lat="48.44398" lon="2.13567">
        <ele>136</ele>
        <time>2011-04-15T11:37:02Z</time>
      </trkpt>
      <trkpt lat="48.44398" lon="2.1357">
        <ele>136</ele>
        <time>2011-04-15T11:37:03Z</time>
      </trkpt>
      <trkpt lat="48.44397" lon="2.13573">
        <ele>136</ele>
        <time>2011-04-15T11:37:04Z</time>
      </trkpt>
      <trkpt lat="48.44397" lon="2.13575">
        <ele>136</ele>
        <time>2011-04-15T11:37:05Z</time>
      </trkpt>
      <trkpt lat="48.44396" lon="2.13577">
        <ele>136</ele>
        <time>2011-04-15T11:37:06Z</time>
      </trkpt>
      <trkpt lat="48.44396" lon="2.1358">
        <ele>136</ele>
        <time>2011-04-15T11:37:07Z</time>
      </trkpt>
      <trkpt lat="48.44395" lon="2.13583">
        <ele>136</ele>
        <time>2011-04-15T11:37:08Z</time>
      </trkpt>
      <trkpt lat="48.44394" lon="2.13585">
        <ele>136</ele>
        <time>2011-04-15T11:37:09Z</time>
      </trkpt>
      <trkpt lat="48.44394" lon="2.13588">
        <ele>136</ele>
        <time>2011-04-15T11:37:10Z</time>
      </trkpt>
      <trkpt lat="48.44393" lon="2.13591">
        <ele>136</ele>
        <time>2011-04-15T11:37:11Z</time>
      </trkpt>
      <trkpt lat="48.44393" lon="2.13594">
        <ele>136</ele>
        <time>2011-04-15T11:37:12Z</time>
      </trkpt>
      <trkpt lat="48.44392" lon="2.13597">
        <ele>136</ele>
        <time>2011-04-15T11:37:13Z</time>
      </trkpt>
      <trkpt lat="48.44392" lon="2.13599">
        <ele>136</ele>
        <time>2011-04-15T11:37:14Z</time>
      </trkpt>
      <trkpt lat="48.44391" lon="2.13602">
        <ele>136</ele>
        <time>2011-04-15T11:37:15Z</time>
      </trkpt>
      <trkpt lat="48.44391" lon="2.13604">
        <ele>136</ele>
        <time>2011-04-15T11:37:16Z</time>
      </trkpt>
      <trkpt lat="48.44391" lon="2.13606">
        <ele>136</ele>
        <time>2011-04-15T11:37:17Z</time>
      </trkpt>
      <trkpt lat="48.44391" lon="2.13609">
        <ele>136</ele>
        <time>2011-04-15T11:37:18Z</time>
      </trkpt>
      <trkpt lat="48.4439" lon="2.13611">
        <ele>136</ele>
        <time>2011-04-15T11:37:19Z</time>
      </trkpt>
      <trkpt lat="48.4439" lon="2.13613">
        <ele>136</ele>
        <time>2011-04-15T11:37:20Z</time>
      </trkpt>
      <trkpt lat="48.4439" lon="2.13615">
        <ele>136</ele>
        <time>2011-04-15T11:37:21Z</time>
      </trkpt>
      <trkpt lat="48.4439" lon="2.13618">
        <ele>136</ele>
        <time>2011-04-15T11:37:22Z</time>
      </trkpt>
      <trkpt lat="48.4439" lon="2.1362">
        <ele>136</ele>
        <time>2011-04-15T11:37:23Z</time>
      </trkpt>
      <trkpt lat="48.4439" lon="2.13622">
        <ele>136</ele>
        <time>2011-04-15T11:37:24Z</time>
      </trkpt>
      <trkpt lat="48.4439" lon="2.13624">
        <ele>136</ele>
        <time>2011-04-15T11:37:25Z</time>
      </trkpt>
      <trkpt lat="48.4439" lon="2.13627">
        <ele>136</ele>
        <time>2011-04-15T11:37:26Z</time>
      </trkpt>
      <trkpt lat="48.4439" lon="2.13629">
        <ele>136</ele>
        <time>2011-04-15T11:37:27Z</time>
      </trkpt>
      <trkpt lat="48.4439" lon="2.13631">
        <ele>136</ele>
        <time>2011-04-15T11:37:28Z</time>
      </trkpt>
      <trkpt lat="48.4439" lon="2.13633">
        <ele>136</ele>
        <time>2011-04-15T11:37:29Z</time>
      </trkpt>
      <trkpt lat="48.44389" lon="2.13636">
        <ele>136</ele>
        <time>2011-04-15T11:37:30Z</time>
      </trkpt>
      <trkpt lat="48.44389" lon="2.13639">
        <ele>136</ele>
        <time>2011-04-15T11:37:31Z</time>
      </trkpt>
      <trkpt lat="48.44389" lon="2.13642">
        <ele>136</ele>
        <time>2011-04-15T11:37:32Z</time>
      </trkpt>
      <trkpt lat="48.44389" lon="2.13644">
        <ele>136</ele>
        <time>2011-04-15T11:37:33Z</time>
      </trkpt>
      <trkpt lat="48.44389" lon="2.13648">
        <ele>136</ele>
        <time>2011-04-15T11:37:34Z</time>
      </trkpt>
      <trkpt lat="48.44388" lon="2.1365">
        <ele>136</ele>
        <time>2011-04-15T11:37:35Z</time>
      </trkpt>
      <trkpt lat="48.44387" lon="2.13653">
        <ele>136</ele>
        <time>2011-04-15T11:37:36Z</time>
      </trkpt>
      <trkpt lat="48.44387" lon="2.13657">
        <ele>136</ele>
        <time>2011-04-15T11:37:37Z</time>
      </trkpt>
      <trkpt lat="48.44386" lon="2.13659">
        <ele>136</ele>
        <time>2011-04-15T11:37:38Z</time>
      </trkpt>
      <trkpt lat="48.44386" lon="2.13662">
        <ele>136</ele>
        <time>2011-04-15T11:37:39Z</time>
      </trkpt>
      <trkpt lat="48.44385" lon="2.13665">
        <ele>136</ele>
        <time>2011-04-15T11:37:40Z</time>
      </trkpt>
      <trkpt lat="48.44385" lon="2.13668">
        <ele>136</ele>
        <time>2011-04-15T11:37:41Z</time>
      </trkpt>
      <trkpt lat="48.44385" lon="2.1367">
        <ele>136</ele>
        <time>2011-04-15T11:37:42Z</time>
      </trkpt>
      <trkpt lat="48.44384" lon="2.13673">
        <ele>136</ele>
        <time>2011-04-15T11:37:43Z</time>
      </trkpt>
      <trkpt lat="48.44384" lon="2.13675">
        <ele>136</ele>
        <time>2011-04-15T11:37:44Z</time>
      </trkpt>
      <trkpt lat="48.44384" lon="2.13678">
        <ele>136</ele>
        <time>2011-04-15T11:37:45Z</time>
      </trkpt>
      <trkpt lat="48.44384" lon="2.1368">
        <ele>136</ele>
        <time>2011-04-15T11:37:46Z</time>
      </trkpt>
      <trkpt lat="48.44384" lon="2.13682">
        <ele>136</ele>
        <time>2011-04-15T11:37:47Z</time>
      </trkpt>
      <trkpt lat="48.44384" lon="2.13684">
        <ele>136</ele>
        <time>2011-04-15T11:37:48Z</time>
      </trkpt>
      <trkpt lat="48.44384" lon="2.13686">
        <ele>136</ele>
        <time>2011-04-15T11:37:49Z</time>
      </trkpt>
      <trkpt lat="48.44384" lon="2.13689">
        <ele>136</ele>
        <time>2011-04-15T11:37:50Z</time>
      </trkpt>
      <trkpt lat="48.44384" lon="2.13691">
        <ele>136</ele>
        <time>2011-04-15T11:37:51Z</time>
      </trkpt>
      <trkpt lat="48.44383" lon="2.13693">
        <ele>136</ele>
        <time>2011-04-15T11:37:52Z</time>
      </trkpt>
      <trkpt lat="48.44383" lon="2.13696">
        <ele>136</ele>
        <time>2011-04-15T11:37:53Z</time>
      </trkpt>
      <trkpt lat="48.44383" lon="2.13698">
        <ele>136</ele>
        <time>2011-04-15T11:37:54Z</time>
      </trkpt>
      <trkpt lat="48.44382" lon="2.13701">
        <ele>136</ele>
        <time>2011-04-15T11:37:55Z</time>
      </trkpt>
      <trkpt lat="48.44382" lon="2.13703">
        <ele>136</ele>
        <time>2011-04-15T11:37:56Z</time>
      </trkpt>
      <trkpt lat="48.44381" lon="2.13706">
        <ele>136</ele>
        <time>2011-04-15T11:37:57Z</time>
      </trkpt>
      <trkpt lat="48.44381" lon="2.13709">
        <ele>136</ele>
        <time>2011-04-15T11:37:58Z</time>
      </trkpt>
      <trkpt lat="48.4438" lon="2.13711">
        <ele>136</ele>
        <time>2011-04-15T11:37:59Z</time>
      </trkpt>
      <trkpt lat="48.4438" lon="2.13714">
        <ele>136</ele>
        <time>2011-04-15T11:38:00Z</time>
      </trkpt>
      <trkpt lat="48.4438" lon="2.13716">
        <ele>136</ele>
        <time>2011-04-15T11:38:01Z</time>
      </trkpt>
      <trkpt lat="48.4438" lon="2.13719">
        <ele>136</ele>
        <time>2011-04-15T11:38:02Z</time>
      </trkpt>
      <trkpt lat="48.4438" lon="2.13721">
        <ele>136</ele>
        <time>2011-04-15T11:38:03Z</time>
      </trkpt>
      <trkpt lat="48.4438" lon="2.13723">
        <ele>136</ele>
        <time>2011-04-15T11:38:04Z</time>
      </trkpt>
      <trkpt lat="48.44379" lon="2.13725">
        <ele>136</ele>
        <time>2011-04-15T11:38:05Z</time>
      </trkpt>
      <trkpt lat="48.44379" lon="2.13727">
        <ele>136</ele>
        <time>2011-04-15T11:38:06Z</time>
      </trkpt>
      <trkpt lat="48.44379" lon="2.1373">
        <ele>136</ele>
        <time>2011-04-15T11:38:07Z</time>
      </trkpt>
      <trkpt lat="48.44379" lon="2.13732">
        <ele>136</ele>
        <time>2011-04-15T11:38:08Z</time>
      </trkpt>
      <trkpt lat="48.44379" lon="2.13735">
        <ele>136</ele>
        <time>2011-04-15T11:38:09Z</time>
      </trkpt>
      <trkpt lat="48.44378" lon="2.13738">
        <ele>136</ele>
        <time>2011-04-15T11:38:10Z</time>
      </trkpt>
      <trkpt lat="48.44377" lon="2.1374">
        <ele>136</ele>
        <time>2011-04-15T11:38:11Z</time>
      </trkpt>
      <trkpt lat="48.44377" lon="2.13742">
        <ele>136</ele>
        <time>2011-04-15T11:38:12Z</time>
      </trkpt>
      <trkpt lat="48.44376" lon="2.13744">
        <ele>136</ele>
        <time>2011-04-15T11:38:13Z</time>
      </trkpt>
      <trkpt lat="48.44376" lon="2.13746">
        <ele>136</ele>
        <time>2011-04-15T11:38:14Z</time>
      </trkpt>
      <trkpt lat="48.44375" lon="2.13748">
        <ele>136</ele>
        <time>2011-04-15T11:38:15Z</time>
      </trkpt>
      <trkpt lat="48.44374" lon="2.13751">
        <ele>136</ele>
        <time>2011-04-15T11:38:16Z</time>
      </trkpt>
      <trkpt lat="48.44373" lon="2.13753">
        <ele>136</ele>
        <time>2011-04-15T11:38:17Z</time>
      </trkpt>
      <trkpt lat="48.44372" lon="2.13754">
        <ele>136</ele>
        <time>2011-04-15T11:38:18Z</time>
      </trkpt>
      <trkpt lat="48.44372" lon="2.13756">
        <ele>136</ele>
        <time>2011-04-15T11:38:19Z</time>
      </trkpt>
      <trkpt lat="48.44371" lon="2.13758">
        <ele>136</ele>
        <time>2011-04-15T11:38:20Z</time>
      </trkpt>
      <trkpt lat="48.4437" lon="2.1376">
        <ele>136</ele>
        <time>2011-04-15T11:38:21Z</time>
      </trkpt>
      <trkpt lat="48.44368" lon="2.13762">
        <ele>136</ele>
        <time>2011-04-15T11:38:22Z</time>
      </trkpt>
      <trkpt lat="48.44367" lon="2.13764">
        <ele>136</ele>
        <time>2011-04-15T11:38:23Z</time>
      </trkpt>
      <trkpt lat="48.44365" lon="2.13767">
        <ele>137</ele>
        <time>2011-04-15T11:38:25Z</time>
      </trkpt>
      <trkpt lat="48.44364" lon="2.13768">
        <ele>137</ele>
        <time>2011-04-15T11:38:26Z</time>
      </trkpt>
      <trkpt lat="48.44362" lon="2.13769">
        <ele>137</ele>
        <time>2011-04-15T11:38:27Z</time>
      </trkpt>
      <trkpt lat="48.44361" lon="2.13769">
        <ele>137</ele>
        <time>2011-04-15T11:38:28Z</time>
      </trkpt>
      <trkpt lat="48.44359" lon="2.1377">
        <ele>137</ele>
        <time>2011-04-15T11:38:29Z</time>
      </trkpt>
      <trkpt lat="48.44358" lon="2.1377">
        <ele>137</ele>
        <time>2011-04-15T11:38:30Z</time>
      </trkpt>
      <trkpt lat="48.44356" lon="2.13769">
        <ele>137</ele>
        <time>2011-04-15T11:38:31Z</time>
      </trkpt>
      <trkpt lat="48.44355" lon="2.13768">
        <ele>137</ele>
        <time>2011-04-15T11:38:32Z</time>
      </trkpt>
      <trkpt lat="48.44353" lon="2.13767">
        <ele>137</ele>
        <time>2011-04-15T11:38:33Z</time>
      </trkpt>
      <trkpt lat="48.44352" lon="2.13766">
        <ele>137</ele>
        <time>2011-04-15T11:38:34Z</time>
      </trkpt>
      <trkpt lat="48.44351" lon="2.13765">
        <ele>137</ele>
        <time>2011-04-15T11:38:35Z</time>
      </trkpt>
      <trkpt lat="48.44349" lon="2.13765">
        <ele>137</ele>
        <time>2011-04-15T11:38:36Z</time>
      </trkpt>
      <trkpt lat="48.44348" lon="2.13764">
        <ele>137</ele>
        <time>2011-04-15T11:38:37Z</time>
      </trkpt>
      <trkpt lat="48.44346" lon="2.13763">
        <ele>137</ele>
        <time>2011-04-15T11:38:38Z</time>
      </trkpt>
      <trkpt lat="48.44344" lon="2.13763">
        <ele>137</ele>
        <time>2011-04-15T11:38:39Z</time>
      </trkpt>
      <trkpt lat="48.44342" lon="2.13763">
        <ele>137</ele>
        <time>2011-04-15T11:38:40Z</time>
      </trkpt>
      <trkpt lat="48.4434" lon="2.13762">
        <ele>137</ele>
        <time>2011-04-15T11:38:41Z</time>
      </trkpt>
      <trkpt lat="48.44339" lon="2.13762">
        <ele>137</ele>
        <time>2011-04-15T11:38:42Z</time>
      </trkpt>
      <trkpt lat="48.44337" lon="2.13761">
        <ele>137</ele>
        <time>2011-04-15T11:38:43Z</time>
      </trkpt>
      <trkpt lat="48.44336" lon="2.13759">
        <ele>137</ele>
        <time>2011-04-15T11:38:44Z</time>
      </trkpt>
      <trkpt lat="48.44334" lon="2.13758">
        <ele>137</ele>
        <time>2011-04-15T11:38:45Z</time>
      </trkpt>
      <trkpt lat="48.44333" lon="2.13757">
        <ele>137</ele>
        <time>2011-04-15T11:38:46Z</time>
      </trkpt>
      <trkpt lat="48.44331" lon="2.13756">
        <ele>137</ele>
        <time>2011-04-15T11:38:47Z</time>
      </trkpt>
      <trkpt lat="48.4433" lon="2.13755">
        <ele>137</ele>
        <time>2011-04-15T11:38:48Z</time>
      </trkpt>
      <trkpt lat="48.44328" lon="2.13754">
        <ele>137</ele>
        <time>2011-04-15T11:38:49Z</time>
      </trkpt>
      <trkpt lat="48.44327" lon="2.13753">
        <ele>137</ele>
        <time>2011-04-15T11:38:50Z</time>
      </trkpt>
      <trkpt lat="48.44325" lon="2.13752">
        <ele>137</ele>
        <time>2011-04-15T11:38:51Z</time>
      </trkpt>
      <trkpt lat="48.44324" lon="2.13751">
        <ele>137</ele>
        <time>2011-04-15T11:38:52Z</time>
      </trkpt>
      <trkpt lat="48.44322" lon="2.13751">
        <ele>137</ele>
        <time>2011-04-15T11:38:53Z</time>
      </trkpt>
      <trkpt lat="48.44321" lon="2.1375">
        <ele>137</ele>
        <time>2011-04-15T11:38:54Z</time>
      </trkpt>
      <trkpt lat="48.44319" lon="2.13749">
        <ele>137</ele>
        <time>2011-04-15T11:38:55Z</time>
      </trkpt>
      <trkpt lat="48.44318" lon="2.13748">
        <ele>137</ele>
        <time>2011-04-15T11:38:56Z</time>
      </trkpt>
      <trkpt lat="48.44316" lon="2.13748">
        <ele>137</ele>
        <time>2011-04-15T11:38:57Z</time>
      </trkpt>
      <trkpt lat="48.44315" lon="2.13747">
        <ele>137</ele>
        <time>2011-04-15T11:38:58Z</time>
      </trkpt>
      <trkpt lat="48.44314" lon="2.13746">
        <ele>137</ele>
        <time>2011-04-15T11:38:59Z</time>
      </trkpt>
      <trkpt lat="48.44312" lon="2.13744">
        <ele>137</ele>
        <time>2011-04-15T11:39:00Z</time>
      </trkpt>
      <trkpt lat="48.4431" lon="2.13743">
        <ele>137</ele>
        <time>2011-04-15T11:39:01Z</time>
      </trkpt>
      <trkpt lat="48.44308" lon="2.13742">
        <ele>137</ele>
        <time>2011-04-15T11:39:02Z</time>
      </trkpt>
      <trkpt lat="48.44307" lon="2.13741">
        <ele>137</ele>
        <time>2011-04-15T11:39:03Z</time>
      </trkpt>
      <trkpt lat="48.44305" lon="2.1374">
        <ele>137</ele>
        <time>2011-04-15T11:39:04Z</time>
      </trkpt>
      <trkpt lat="48.44304" lon="2.1374">
        <ele>137</ele>
        <time>2011-04-15T11:39:05Z</time>
      </trkpt>
      <trkpt lat="48.44302" lon="2.13738">
        <ele>137</ele>
        <time>2011-04-15T11:39:06Z</time>
      </trkpt>
      <trkpt lat="48.443" lon="2.13737">
        <ele>137</ele>
        <time>2011-04-15T11:39:07Z</time>
      </trkpt>
      <trkpt lat="48.44298" lon="2.13737">
        <ele>137</ele>
        <time>2011-04-15T11:39:08Z</time>
      </trkpt>
      <trkpt lat="48.44297" lon="2.13736">
        <ele>137</ele>
        <time>2011-04-15T11:39:09Z</time>
      </trkpt>
      <trkpt lat="48.44295" lon="2.13735">
        <ele>137</ele>
        <time>2011-04-15T11:39:10Z</time>
      </trkpt>
      <trkpt lat="48.44294" lon="2.13735">
        <ele>137</ele>
        <time>2011-04-15T11:39:11Z</time>
      </trkpt>
      <trkpt lat="48.44293" lon="2.13734">
        <ele>137</ele>
        <time>2011-04-15T11:39:12Z</time>
      </trkpt>
      <trkpt lat="48.44291" lon="2.13734">
        <ele>137</ele>
        <time>2011-04-15T11:39:13Z</time>
      </trkpt>
      <trkpt lat="48.4429" lon="2.13733">
        <ele>137</ele>
        <time>2011-04-15T11:39:14Z</time>
      </trkpt>
      <trkpt lat="48.44288" lon="2.13732">
        <ele>137</ele>
        <time>2011-04-15T11:39:15Z</time>
      </trkpt>
      <trkpt lat="48.44287" lon="2.13732">
        <ele>137</ele>
        <time>2011-04-15T11:39:16Z</time>
      </trkpt>
      <trkpt lat="48.44285" lon="2.13731">
        <ele>137</ele>
        <time>2011-04-15T11:39:17Z</time>
      </trkpt>
      <trkpt lat="48.44284" lon="2.13731">
        <ele>137</ele>
        <time>2011-04-15T11:39:18Z</time>
      </trkpt>
      <trkpt lat="48.44282" lon="2.1373">
        <ele>137</ele>
        <time>2011-04-15T11:39:19Z</time>
      </trkpt>
      <trkpt lat="48.44281" lon="2.1373">
        <ele>137</ele>
        <time>2011-04-15T11:39:20Z</time>
      </trkpt>
      <trkpt lat="48.4428" lon="2.13729">
        <ele>137</ele>
        <time>2011-04-15T11:39:21Z</time>
      </trkpt>
      <trkpt lat="48.44278" lon="2.13728">
        <ele>137</ele>
        <time>2011-04-15T11:39:22Z</time>
      </trkpt>
      <trkpt lat="48.44277" lon="2.13728">
        <ele>137</ele>
        <time>2011-04-15T11:39:23Z</time>
      </trkpt>
      <trkpt lat="48.44275" lon="2.13727">
        <ele>137</ele>
        <time>2011-04-15T11:39:24Z</time>
      </trkpt>
      <trkpt lat="48.44274" lon="2.13726">
        <ele>137</ele>
        <time>2011-04-15T11:39:25Z</time>
      </trkpt>
      <trkpt lat="48.44272" lon="2.13726">
        <ele>137</ele>
        <time>2011-04-15T11:39:26Z</time>
      </trkpt>
      <trkpt lat="48.44271" lon="2.13725">
        <ele>137</ele>
        <time>2011-04-15T11:39:27Z</time>
      </trkpt>
      <trkpt lat="48.44269" lon="2.13724">
        <ele>137</ele>
        <time>2011-04-15T11:39:28Z</time>
      </trkpt>
      <trkpt lat="48.44268" lon="2.13723">
        <ele>137</ele>
        <time>2011-04-15T11:39:29Z</time>
      </trkpt>
      <trkpt lat="48.44266" lon="2.13722">
        <ele>137</ele>
        <time>2011-04-15T11:39:30Z</time>
      </trkpt>
      <trkpt lat="48.44265" lon="2.13721">
        <ele>137</ele>
        <time>2011-04-15T11:39:31Z</time>
      </trkpt>
      <trkpt lat="48.44263" lon="2.1372">
        <ele>137</ele>
        <time>2011-04-15T11:39:32Z</time>
      </trkpt>
      <trkpt lat="48.44262" lon="2.1372">
        <ele>137</ele>
        <time>2011-04-15T11:39:33Z</time>
      </trkpt>
      <trkpt lat="48.44261" lon="2.13719">
        <ele>137</ele>
        <time>2011-04-15T11:39:34Z</time>
      </trkpt>
      <trkpt lat="48.44259" lon="2.13719">
        <ele>137</ele>
        <time>2011-04-15T11:39:35Z</time>
      </trkpt>
      <trkpt lat="48.44258" lon="2.13718">
        <ele>137</ele>
        <time>2011-04-15T11:39:36Z</time>
      </trkpt>
      <trkpt lat="48.44257" lon="2.13718">
        <ele>137</ele>
        <time>2011-04-15T11:39:37Z</time>
      </trkpt>
      <trkpt lat="48.44255" lon="2.13717">
        <ele>137</ele>
        <time>2011-04-15T11:39:38Z</time>
      </trkpt>
      <trkpt lat="48.44254" lon="2.13716">
        <ele>137</ele>
        <time>2011-04-15T11:39:39Z</time>
      </trkpt>
      <trkpt lat="48.44252" lon="2.13715">
        <ele>137</ele>
        <time>2011-04-15T11:39:40Z</time>
      </trkpt>
      <trkpt lat="48.44251" lon="2.13715">
        <ele>137</ele>
        <time>2011-04-15T11:39:41Z</time>
      </trkpt>
      <trkpt lat="48.4425" lon="2.13714">
        <ele>137</ele>
        <time>2011-04-15T11:39:42Z</time>
      </trkpt>
      <trkpt lat="48.44249" lon="2.13713">
        <ele>137</ele>
        <time>2011-04-15T11:39:43Z</time>
      </trkpt>
      <trkpt lat="48.44247" lon="2.13712">
        <ele>137</ele>
        <time>2011-04-15T11:39:44Z</time>
      </trkpt>
      <trkpt lat="48.44246" lon="2.13711">
        <ele>137</ele>
        <time>2011-04-15T11:39:45Z</time>
      </trkpt>
      <trkpt lat="48.44245" lon="2.1371">
        <ele>137</ele>
        <time>2011-04-15T11:39:46Z</time>
      </trkpt>
      <trkpt lat="48.44243" lon="2.13709">
        <ele>137</ele>
        <time>2011-04-15T11:39:47Z</time>
      </trkpt>
      <trkpt lat="48.44242" lon="2.13708">
        <ele>137</ele>
        <time>2011-04-15T11:39:48Z</time>
      </trkpt>
      <trkpt lat="48.44241" lon="2.13707">
        <ele>137</ele>
        <time>2011-04-15T11:39:49Z</time>
      </trkpt>
      <trkpt lat="48.4424" lon="2.13706">
        <ele>137</ele>
        <time>2011-04-15T11:39:50Z</time>
      </trkpt>
      <trkpt lat="48.44238" lon="2.13705">
        <ele>137</ele>
        <time>2011-04-15T11:39:51Z</time>
      </trkpt>
      <trkpt lat="48.44237" lon="2.13704">
        <ele>137</ele>
        <time>2011-04-15T11:39:52Z</time>
      </trkpt>
      <trkpt lat="48.44236" lon="2.13703">
        <ele>137</ele>
        <time>2011-04-15T11:39:53Z</time>
      </trkpt>
      <trkpt lat="48.44235" lon="2.13702">
        <ele>137</ele>
        <time>2011-04-15T11:39:54Z</time>
      </trkpt>
      <trkpt lat="48.44233" lon="2.13701">
        <ele>137</ele>
        <time>2011-04-15T11:39:55Z</time>
      </trkpt>
      <trkpt lat="48.44232" lon="2.137">
        <ele>137</ele>
        <time>2011-04-15T11:39:56Z</time>
      </trkpt>
      <trkpt lat="48.44231" lon="2.13699">
        <ele>137</ele>
        <time>2011-04-15T11:39:57Z</time>
      </trkpt>
      <trkpt lat="48.44229" lon="2.13698">
        <ele>137</ele>
        <time>2011-04-15T11:39:58Z</time>
      </trkpt>
      <trkpt lat="48.44228" lon="2.13696">
        <ele>137</ele>
        <time>2011-04-15T11:39:59Z</time>
      </trkpt>
      <trkpt lat="48.44227" lon="2.13695">
        <ele>137</ele>
        <time>2011-04-15T11:40:00Z</time>
      </trkpt>
      <trkpt lat="48.44225" lon="2.13694">
        <ele>137</ele>
        <time>2011-04-15T11:40:01Z</time>
      </trkpt>
      <trkpt lat="48.44224" lon="2.13693">
        <ele>137</ele>
        <time>2011-04-15T11:40:02Z</time>
      </trkpt>
      <trkpt lat="48.44223" lon="2.13692">
        <ele>137</ele>
        <time>2011-04-15T11:40:03Z</time>
      </trkpt>
      <trkpt lat="48.44222" lon="2.13691">
        <ele>137</ele>
        <time>2011-04-15T11:40:04Z</time>
      </trkpt>
      <trkpt lat="48.4422" lon="2.13689">
        <ele>137</ele>
        <time>2011-04-15T11:40:06Z</time>
      </trkpt>
      <trkpt lat="48.44219" lon="2.13689">
        <ele>137</ele>
        <time>2011-04-15T11:40:14Z</time>
      </trkpt>
      <trkpt lat="48.44217" lon="2.13689">
        <ele>137</ele>
        <time>2011-04-15T11:40:16Z</time>
      </trkpt>
      <trkpt lat="48.44216" lon="2.13687">
        <ele>137</ele>
        <time>2011-04-15T11:40:27Z</time>
      </trkpt>
      <trkpt lat="48.44215" lon="2.13684">
        <ele>137</ele>
        <time>2011-04-15T11:40:29Z</time>
      </trkpt>
      <trkpt lat="48.44214" lon="2.13683">
        <ele>137</ele>
        <time>2011-04-15T11:40:30Z</time>
      </trkpt>
      <trkpt lat="48.44213" lon="2.13681">
        <ele>137</ele>
        <time>2011-04-15T11:40:31Z</time>
      </trkpt>
      <trkpt lat="48.44212" lon="2.13679">
        <ele>137</ele>
        <time>2011-04-15T11:40:32Z</time>
      </trkpt>
      <trkpt lat="48.44211" lon="2.13676">
        <ele>137</ele>
        <time>2011-04-15T11:40:33Z</time>
      </trkpt>
      <trkpt lat="48.4421" lon="2.13673">
        <ele>137</ele>
        <time>2011-04-15T11:40:34Z</time>
      </trkpt>
      <trkpt lat="48.4421" lon="2.13671">
        <ele>137</ele>
        <time>2011-04-15T11:40:35Z</time>
      </trkpt>
      <trkpt lat="48.44209" lon="2.13669">
        <ele>137</ele>
        <time>2011-04-15T11:40:36Z</time>
      </trkpt>
      <trkpt lat="48.44209" lon="2.13667">
        <ele>137</ele>
        <time>2011-04-15T11:40:37Z</time>
      </trkpt>
      <trkpt lat="48.44208" lon="2.13665">
        <ele>137</ele>
        <time>2011-04-15T11:40:38Z</time>
      </trkpt>
      <trkpt lat="48.44207" lon="2.13663">
        <ele>137</ele>
        <time>2011-04-15T11:40:39Z</time>
      </trkpt>
      <trkpt lat="48.44206" lon="2.13661">
        <ele>137</ele>
        <time>2011-04-15T11:40:40Z</time>
      </trkpt>
      <trkpt lat="48.44205" lon="2.13659">
        <ele>137</ele>
        <time>2011-04-15T11:40:41Z</time>
      </trkpt>
      <trkpt lat="48.44204" lon="2.13657">
        <ele>137</ele>
        <time>2011-04-15T11:40:42Z</time>
      </trkpt>
      <trkpt lat="48.44203" lon="2.13655">
        <ele>137</ele>
        <time>2011-04-15T11:40:43Z</time>
      </trkpt>
      <trkpt lat="48.44202" lon="2.13652">
        <ele>137</ele>
        <time>2011-04-15T11:40:44Z</time>
      </trkpt>
      <trkpt lat="48.44201" lon="2.1365">
        <ele>137</ele>
        <time>2011-04-15T11:40:45Z</time>
      </trkpt>
      <trkpt lat="48.442" lon="2.13648">
        <ele>137</ele>
        <time>2011-04-15T11:40:46Z</time>
      </trkpt>
      <trkpt lat="48.44198" lon="2.13646">
        <ele>137</ele>
        <time>2011-04-15T11:40:47Z</time>
      </trkpt>
      <trkpt lat="48.44196" lon="2.13644">
        <ele>137</ele>
        <time>2011-04-15T11:40:48Z</time>
      </trkpt>
      <trkpt lat="48.44195" lon="2.13642">
        <ele>137</ele>
        <time>2011-04-15T11:40:49Z</time>
      </trkpt>
      <trkpt lat="48.44193" lon="2.13641">
        <ele>137</ele>
        <time>2011-04-15T11:40:50Z</time>
      </trkpt>
      <trkpt lat="48.44191" lon="2.13639">
        <ele>137</ele>
        <time>2011-04-15T11:40:51Z</time>
      </trkpt>
      <trkpt lat="48.44189" lon="2.13638">
        <ele>137</ele>
        <time>2011-04-15T11:40:52Z</time>
      </trkpt>
      <trkpt lat="48.44187" lon="2.13637">
        <ele>137</ele>
        <time>2011-04-15T11:40:53Z</time>
      </trkpt>
      <trkpt lat="48.44185" lon="2.13636">
        <ele>137</ele>
        <time>2011-04-15T11:40:54Z</time>
      </trkpt>
      <trkpt lat="48.44184" lon="2.13635">
        <ele>137</ele>
        <time>2011-04-15T11:40:55Z</time>
      </trkpt>
      <trkpt lat="48.44182" lon="2.13635">
        <ele>137</ele>
        <time>2011-04-15T11:40:56Z</time>
      </trkpt>
      <trkpt lat="48.4418" lon="2.13634">
        <ele>137</ele>
        <time>2011-04-15T11:40:57Z</time>
      </trkpt>
      <trkpt lat="48.44178" lon="2.13635">
        <ele>137</ele>
        <time>2011-04-15T11:40:58Z</time>
      </trkpt>
      <trkpt lat="48.44176" lon="2.13635">
        <ele>137</ele>
        <time>2011-04-15T11:40:59Z</time>
      </trkpt>
      <trkpt lat="48.44175" lon="2.13635">
        <ele>137</ele>
        <time>2011-04-15T11:41:00Z</time>
      </trkpt>
      <trkpt lat="48.44173" lon="2.13636">
        <ele>137</ele>
        <time>2011-04-15T11:41:01Z</time>
      </trkpt>
      <trkpt lat="48.44172" lon="2.13636">
        <ele>137</ele>
        <time>2011-04-15T11:41:02Z</time>
      </trkpt>
      <trkpt lat="48.4417" lon="2.13637">
        <ele>137</ele>
        <time>2011-04-15T11:41:03Z</time>
      </trkpt>
      <trkpt lat="48.44169" lon="2.13638">
        <ele>137</ele>
        <time>2011-04-15T11:41:04Z</time>
      </trkpt>
      <trkpt lat="48.44168" lon="2.13639">
        <ele>137</ele>
        <time>2011-04-15T11:41:05Z</time>
      </trkpt>
      <trkpt lat="48.44166" lon="2.1364">
        <ele>137</ele>
        <time>2011-04-15T11:41:06Z</time>
      </trkpt>
      <trkpt lat="48.44165" lon="2.13641">
        <ele>137</ele>
        <time>2011-04-15T11:41:07Z</time>
      </trkpt>
      <trkpt lat="48.44164" lon="2.13642">
        <ele>137</ele>
        <time>2011-04-15T11:41:08Z</time>
      </trkpt>
      <trkpt lat="48.44163" lon="2.13644">
        <ele>137</ele>
        <time>2011-04-15T11:41:09Z</time>
      </trkpt>
      <trkpt lat="48.44161" lon="2.13645">
        <ele>137</ele>
        <time>2011-04-15T11:41:10Z</time>
      </trkpt>
      <trkpt lat="48.4416" lon="2.13648">
        <ele>137</ele>
        <time>2011-04-15T11:41:12Z</time>
      </trkpt>
      <trkpt lat="48.44158" lon="2.1365">
        <ele>137</ele>
        <time>2011-04-15T11:41:14Z</time>
      </trkpt>
      <trkpt lat="48.44156" lon="2.13653">
        <ele>137</ele>
        <time>2011-04-15T11:41:16Z</time>
      </trkpt>
      <trkpt lat="48.44155" lon="2.13653">
        <ele>137</ele>
        <time>2011-04-15T11:41:17Z</time>
      </trkpt>
      <trkpt lat="48.44153" lon="2.13653">
        <ele>137</ele>
        <time>2011-04-15T11:41:18Z</time>
      </trkpt>
      <trkpt lat="48.44152" lon="2.13654">
        <ele>137</ele>
        <time>2011-04-15T11:41:19Z</time>
      </trkpt>
      <trkpt lat="48.44151" lon="2.13654">
        <ele>137</ele>
        <time>2011-04-15T11:41:20Z</time>
      </trkpt>
      <trkpt lat="48.44149" lon="2.13655">
        <ele>137</ele>
        <time>2011-04-15T11:41:21Z</time>
      </trkpt>
      <trkpt lat="48.44148" lon="2.13656">
        <ele>137</ele>
        <time>2011-04-15T11:41:22Z</time>
      </trkpt>
      <trkpt lat="48.44146" lon="2.13656">
        <ele>137</ele>
        <time>2011-04-15T11:41:23Z</time>
      </trkpt>
      <trkpt lat="48.44145" lon="2.13657">
        <ele>137</ele>
        <time>2011-04-15T11:41:25Z</time>
      </trkpt>
      <trkpt lat="48.44144" lon="2.1366">
        <ele>137</ele>
        <time>2011-04-15T11:41:31Z</time>
      </trkpt>
      <trkpt lat="48.44142" lon="2.13661">
        <ele>137</ele>
        <time>2011-04-15T11:41:33Z</time>
      </trkpt>
      <trkpt lat="48.4414" lon="2.13662">
        <ele>137</ele>
        <time>2011-04-15T11:41:35Z</time>
      </trkpt>
      <trkpt lat="48.44138" lon="2.13663">
        <ele>137</ele>
        <time>2011-04-15T11:41:36Z</time>
      </trkpt>
      <trkpt lat="48.44137" lon="2.13664">
        <ele>137</ele>
        <time>2011-04-15T11:41:37Z</time>
      </trkpt>
      <trkpt lat="48.44136" lon="2.13664">
        <ele>137</ele>
        <time>2011-04-15T11:41:38Z</time>
      </trkpt>
      <trkpt lat="48.44134" lon="2.13664">
        <ele>137</ele>
        <time>2011-04-15T11:41:39Z</time>
      </trkpt>
      <trkpt lat="48.44133" lon="2.13665">
        <ele>137</ele>
        <time>2011-04-15T11:41:40Z</time>
      </trkpt>
      <trkpt lat="48.44131" lon="2.13665">
        <ele>137</ele>
        <time>2011-04-15T11:41:41Z</time>
      </trkpt>
      <trkpt lat="48.4413" lon="2.13665">
        <ele>137</ele>
        <time>2011-04-15T11:41:42Z</time>
      </trkpt>
      <trkpt lat="48.44129" lon="2.13665">
        <ele>137</ele>
        <time>2011-04-15T11:41:43Z</time>
      </trkpt>
      <trkpt lat="48.44127" lon="2.13666">
        <ele>137</ele>
        <time>2011-04-15T11:41:44Z</time>
      </trkpt>
      <trkpt lat="48.44126" lon="2.13666">
        <ele>137</ele>
        <time>2011-04-15T11:41:45Z</time>
      </trkpt>
      <trkpt lat="48.44124" lon="2.13666">
        <ele>137</ele>
        <time>2011-04-15T11:41:46Z</time>
      </trkpt>
      <trkpt lat="48.44122" lon="2.13665">
        <ele>137</ele>
        <time>2011-04-15T11:41:47Z</time>
      </trkpt>
      <trkpt lat="48.44121" lon="2.13665">
        <ele>137</ele>
        <time>2011-04-15T11:41:48Z</time>
      </trkpt>
      <trkpt lat="48.44119" lon="2.13665">
        <ele>137</ele>
        <time>2011-04-15T11:41:49Z</time>
      </trkpt>
      <trkpt lat="48.44118" lon="2.13665">
        <ele>137</ele>
        <time>2011-04-15T11:41:50Z</time>
      </trkpt>
      <trkpt lat="48.44116" lon="2.13665">
        <ele>137</ele>
        <time>2011-04-15T11:41:51Z</time>
      </trkpt>
      <trkpt lat="48.44115" lon="2.13665">
        <ele>137</ele>
        <time>2011-04-15T11:41:52Z</time>
      </trkpt>
      <trkpt lat="48.44113" lon="2.13665">
        <ele>137</ele>
        <time>2011-04-15T11:41:53Z</time>
      </trkpt>
      <trkpt lat="48.44112" lon="2.13665">
        <ele>137</ele>
        <time>2011-04-15T11:41:54Z</time>
      </trkpt>
      <trkpt lat="48.4411" lon="2.13665">
        <ele>137</ele>
        <time>2011-04-15T11:41:55Z</time>
      </trkpt>
      <trkpt lat="48.44108" lon="2.13665">
        <ele>137</ele>
        <time>2011-04-15T11:41:56Z</time>
      </trkpt>
      <trkpt lat="48.44107" lon="2.13665">
        <ele>137</ele>
        <time>2011-04-15T11:41:57Z</time>
      </trkpt>
      <trkpt lat="48.44105" lon="2.13664">
        <ele>137</ele>
        <time>2011-04-15T11:41:58Z</time>
      </trkpt>
      <trkpt lat="48.44104" lon="2.13664">
        <ele>137</ele>
        <time>2011-04-15T11:41:59Z</time>
      </trkpt>
      <trkpt lat="48.44102" lon="2.13664">
        <ele>137</ele>
        <time>2011-04-15T11:42:00Z</time>
      </trkpt>
      <trkpt lat="48.44101" lon="2.13663">
        <ele>137</ele>
        <time>2011-04-15T11:42:01Z</time>
      </trkpt>
      <trkpt lat="48.44099" lon="2.13664">
        <ele>137</ele>
        <time>2011-04-15T11:42:02Z</time>
      </trkpt>
      <trkpt lat="48.44098" lon="2.13664">
        <ele>137</ele>
        <time>2011-04-15T11:42:03Z</time>
      </trkpt>
      <trkpt lat="48.44096" lon="2.13664">
        <ele>137</ele>
        <time>2011-04-15T11:42:04Z</time>
      </trkpt>
      <trkpt lat="48.44094" lon="2.13663">
        <ele>137</ele>
        <time>2011-04-15T11:42:05Z</time>
      </trkpt>
      <trkpt lat="48.44092" lon="2.13663">
        <ele>137</ele>
        <time>2011-04-15T11:42:06Z</time>
      </trkpt>
      <trkpt lat="48.4409" lon="2.13662">
        <ele>137</ele>
        <time>2011-04-15T11:42:07Z</time>
      </trkpt>
      <trkpt lat="48.44089" lon="2.13662">
        <ele>137</ele>
        <time>2011-04-15T11:42:08Z</time>
      </trkpt>
      <trkpt lat="48.44087" lon="2.13662">
        <ele>137</ele>
        <time>2011-04-15T11:42:09Z</time>
      </trkpt>
      <trkpt lat="48.44085" lon="2.13662">
        <ele>137</ele>
        <time>2011-04-15T11:42:10Z</time>
      </trkpt>
      <trkpt lat="48.44083" lon="2.13661">
        <ele>137</ele>
        <time>2011-04-15T11:42:11Z</time>
      </trkpt>
      <trkpt lat="48.44082" lon="2.13661">
        <ele>137</ele>
        <time>2011-04-15T11:42:12Z</time>
      </trkpt>
      <trkpt lat="48.4408" lon="2.1366">
        <ele>137</ele>
        <time>2011-04-15T11:42:13Z</time>
      </trkpt>
      <trkpt lat="48.44079" lon="2.1366">
        <ele>137</ele>
        <time>2011-04-15T11:42:14Z</time>
      </trkpt>
      <trkpt lat="48.44077" lon="2.1366">
        <ele>137</ele>
        <time>2011-04-15T11:42:15Z</time>
      </trkpt>
      <trkpt lat="48.44075" lon="2.13659">
        <ele>137</ele>
        <time>2011-04-15T11:42:16Z</time>
      </trkpt>
      <trkpt lat="48.44074" lon="2.13658">
        <ele>137</ele>
        <time>2011-04-15T11:42:17Z</time>
      </trkpt>
      <trkpt lat="48.44072" lon="2.13658">
        <ele>137</ele>
        <time>2011-04-15T11:42:18Z</time>
      </trkpt>
      <trkpt lat="48.44071" lon="2.13658">
        <ele>137</ele>
        <time>2011-04-15T11:42:19Z</time>
      </trkpt>
      <trkpt lat="48.44069" lon="2.13658">
        <ele>137</ele>
        <time>2011-04-15T11:42:20Z</time>
      </trkpt>
      <trkpt lat="48.44068" lon="2.13658">
        <ele>137</ele>
        <time>2011-04-15T11:42:21Z</time>
      </trkpt>
      <trkpt lat="48.44066" lon="2.13657">
        <ele>137</ele>
        <time>2011-04-15T11:42:22Z</time>
      </trkpt>
      <trkpt lat="48.44065" lon="2.13657">
        <ele>137</ele>
        <time>2011-04-15T11:42:23Z</time>
      </trkpt>
      <trkpt lat="48.44063" lon="2.13657">
        <ele>137</ele>
        <time>2011-04-15T11:42:24Z</time>
      </trkpt>
      <trkpt lat="48.44062" lon="2.13656">
        <ele>137</ele>
        <time>2011-04-15T11:42:25Z</time>
      </trkpt>
      <trkpt lat="48.4406" lon="2.13656">
        <ele>137</ele>
        <time>2011-04-15T11:42:26Z</time>
      </trkpt>
      <trkpt lat="48.44059" lon="2.13656">
        <ele>137</ele>
        <time>2011-04-15T11:42:27Z</time>
      </trkpt>
      <trkpt lat="48.44057" lon="2.13656">
        <ele>137</ele>
        <time>2011-04-15T11:42:28Z</time>
      </trkpt>
      <trkpt lat="48.44056" lon="2.13655">
        <ele>137</ele>
        <time>2011-04-15T11:42:29Z</time>
      </trkpt>
      <trkpt lat="48.44055" lon="2.13655">
        <ele>137</ele>
        <time>2011-04-15T11:42:30Z</time>
      </trkpt>
      <trkpt lat="48.44053" lon="2.13655">
        <ele>137</ele>
        <time>2011-04-15T11:42:31Z</time>
      </trkpt>
      <trkpt lat="48.44052" lon="2.13655">
        <ele>137</ele>
        <time>2011-04-15T11:42:32Z</time>
      </trkpt>
      <trkpt lat="48.4405" lon="2.13655">
        <ele>137</ele>
        <time>2011-04-15T11:42:33Z</time>
      </trkpt>
      <trkpt lat="48.44048" lon="2.13655">
        <ele>137</ele>
        <time>2011-04-15T11:42:34Z</time>
      </trkpt>
      <trkpt lat="48.44046" lon="2.13655">
        <ele>137</ele>
        <time>2011-04-15T11:42:35Z</time>
      </trkpt>
      <trkpt lat="48.44044" lon="2.13655">
        <ele>138</ele>
        <time>2011-04-15T11:42:36Z</time>
      </trkpt>
      <trkpt lat="48.44042" lon="2.13654">
        <ele>138</ele>
        <time>2011-04-15T11:42:37Z</time>
      </trkpt>
      <trkpt lat="48.4404" lon="2.13654">
        <ele>138</ele>
        <time>2011-04-15T11:42:38Z</time>
      </trkpt>
      <trkpt lat="48.44038" lon="2.13653">
        <ele>138</ele>
        <time>2011-04-15T11:42:39Z</time>
      </trkpt>
      <trkpt lat="48.44037" lon="2.13652">
        <ele>138</ele>
        <time>2011-04-15T11:42:40Z</time>
      </trkpt>
      <trkpt lat="48.44035" lon="2.13651">
        <ele>138</ele>
        <time>2011-04-15T11:42:41Z</time>
      </trkpt>
      <trkpt lat="48.44034" lon="2.13651">
        <ele>138</ele>
        <time>2011-04-15T11:42:42Z</time>
      </trkpt>
      <trkpt lat="48.44032" lon="2.1365">
        <ele>138</ele>
        <time>2011-04-15T11:42:43Z</time>
      </trkpt>
      <trkpt lat="48.44031" lon="2.13649">
        <ele>138</ele>
        <time>2011-04-15T11:42:44Z</time>
      </trkpt>
      <trkpt lat="48.44029" lon="2.13648">
        <ele>138</ele>
        <time>2011-04-15T11:42:45Z</time>
      </trkpt>
      <trkpt lat="48.44028" lon="2.13647">
        <ele>138</ele>
        <time>2011-04-15T11:42:46Z</time>
      </trkpt>
      <trkpt lat="48.44027" lon="2.13647">
        <ele>138</ele>
        <time>2011-04-15T11:42:47Z</time>
      </trkpt>
      <trkpt lat="48.44025" lon="2.13646">
        <ele>138</ele>
        <time>2011-04-15T11:42:48Z</time>
      </trkpt>
      <trkpt lat="48.44024" lon="2.13645">
        <ele>138</ele>
        <time>2011-04-15T11:42:49Z</time>
      </trkpt>
      <trkpt lat="48.44023" lon="2.13645">
        <ele>138</ele>
        <time>2011-04-15T11:42:50Z</time>
      </trkpt>
      <trkpt lat="48.44021" lon="2.13644">
        <ele>138</ele>
        <time>2011-04-15T11:42:51Z</time>
      </trkpt>
      <trkpt lat="48.44019" lon="2.13644">
        <ele>138</ele>
        <time>2011-04-15T11:42:52Z</time>
      </trkpt>
      <trkpt lat="48.44017" lon="2.13644">
        <ele>138</ele>
        <time>2011-04-15T11:42:53Z</time>
      </trkpt>
      <trkpt lat="48.44015" lon="2.13644">
        <ele>138</ele>
        <time>2011-04-15T11:42:54Z</time>
      </trkpt>
      <trkpt lat="48.44014" lon="2.13644">
        <ele>138</ele>
        <time>2011-04-15T11:42:55Z</time>
      </trkpt>
      <trkpt lat="48.44012" lon="2.13644">
        <ele>138</ele>
        <time>2011-04-15T11:42:56Z</time>
      </trkpt>
      <trkpt lat="48.4401" lon="2.13644">
        <ele>138</ele>
        <time>2011-04-15T11:42:57Z</time>
      </trkpt>
      <trkpt lat="48.44009" lon="2.13643">
        <ele>138</ele>
        <time>2011-04-15T11:42:58Z</time>
      </trkpt>
      <trkpt lat="48.44007" lon="2.13643">
        <ele>138</ele>
        <time>2011-04-15T11:42:59Z</time>
      </trkpt>
      <trkpt lat="48.44005" lon="2.13642">
        <ele>138</ele>
        <time>2011-04-15T11:43:00Z</time>
      </trkpt>
      <trkpt lat="48.44004" lon="2.13642">
        <ele>138</ele>
        <time>2011-04-15T11:43:01Z</time>
      </trkpt>
      <trkpt lat="48.44002" lon="2.13641">
        <ele>138</ele>
        <time>2011-04-15T11:43:02Z</time>
      </trkpt>
      <trkpt lat="48.44001" lon="2.13641">
        <ele>138</ele>
        <time>2011-04-15T11:43:03Z</time>
      </trkpt>
      <trkpt lat="48.43999" lon="2.1364">
        <ele>138</ele>
        <time>2011-04-15T11:43:04Z</time>
      </trkpt>
      <trkpt lat="48.43998" lon="2.13639">
        <ele>138</ele>
        <time>2011-04-15T11:43:05Z</time>
      </trkpt>
      <trkpt lat="48.43996" lon="2.13639">
        <ele>138</ele>
        <time>2011-04-15T11:43:06Z</time>
      </trkpt>
      <trkpt lat="48.43995" lon="2.13638">
        <ele>138</ele>
        <time>2011-04-15T11:43:07Z</time>
      </trkpt>
      <trkpt lat="48.43993" lon="2.13637">
        <ele>138</ele>
        <time>2011-04-15T11:43:08Z</time>
      </trkpt>
      <trkpt lat="48.43992" lon="2.13637">
        <ele>138</ele>
        <time>2011-04-15T11:43:09Z</time>
      </trkpt>
      <trkpt lat="48.4399" lon="2.13637">
        <ele>138</ele>
        <time>2011-04-15T11:43:10Z</time>
      </trkpt>
      <trkpt lat="48.43989" lon="2.13636">
        <ele>138</ele>
        <time>2011-04-15T11:43:11Z</time>
      </trkpt>
      <trkpt lat="48.43987" lon="2.13636">
        <ele>138</ele>
        <time>2011-04-15T11:43:12Z</time>
      </trkpt>
      <trkpt lat="48.43986" lon="2.13635">
        <ele>138</ele>
        <time>2011-04-15T11:43:13Z</time>
      </trkpt>
      <trkpt lat="48.43984" lon="2.13635">
        <ele>138</ele>
        <time>2011-04-15T11:43:14Z</time>
      </trkpt>
      <trkpt lat="48.43983" lon="2.13635">
        <ele>138</ele>
        <time>2011-04-15T11:43:15Z</time>
      </trkpt>
      <trkpt lat="48.43981" lon="2.13634">
        <ele>138</ele>
        <time>2011-04-15T11:43:16Z</time>
      </trkpt>
      <trkpt lat="48.43979" lon="2.13634">
        <ele>138</ele>
        <time>2011-04-15T11:43:17Z</time>
      </trkpt>
      <trkpt lat="48.43978" lon="2.13634">
        <ele>138</ele>
        <time>2011-04-15T11:43:18Z</time>
      </trkpt>
      <trkpt lat="48.43977" lon="2.13633">
        <ele>138</ele>
        <time>2011-04-15T11:43:19Z</time>
      </trkpt>
      <trkpt lat="48.43975" lon="2.13633">
        <ele>138</ele>
        <time>2011-04-15T11:43:20Z</time>
      </trkpt>
      <trkpt lat="48.43974" lon="2.13633">
        <ele>138</ele>
        <time>2011-04-15T11:43:21Z</time>
      </trkpt>
      <trkpt lat="48.43972" lon="2.13633">
        <ele>138</ele>
        <time>2011-04-15T11:43:22Z</time>
      </trkpt>
      <trkpt lat="48.43971" lon="2.13633">
        <ele>138</ele>
        <time>2011-04-15T11:43:23Z</time>
      </trkpt>
      <trkpt lat="48.43969" lon="2.13633">
        <ele>138</ele>
        <time>2011-04-15T11:43:24Z</time>
      </trkpt>
      <trkpt lat="48.43967" lon="2.13633">
        <ele>138</ele>
        <time>2011-04-15T11:43:25Z</time>
      </trkpt>
      <trkpt lat="48.43965" lon="2.13632">
        <ele>138</ele>
        <time>2011-04-15T11:43:26Z</time>
      </trkpt>
      <trkpt lat="48.43964" lon="2.13632">
        <ele>138</ele>
        <time>2011-04-15T11:43:27Z</time>
      </trkpt>
      <trkpt lat="48.43962" lon="2.13632">
        <ele>138</ele>
        <time>2011-04-15T11:43:28Z</time>
      </trkpt>
      <trkpt lat="48.4396" lon="2.13631">
        <ele>138</ele>
        <time>2011-04-15T11:43:29Z</time>
      </trkpt>
      <trkpt lat="48.43959" lon="2.1363">
        <ele>138</ele>
        <time>2011-04-15T11:43:30Z</time>
      </trkpt>
      <trkpt lat="48.43957" lon="2.1363">
        <ele>138</ele>
        <time>2011-04-15T11:43:31Z</time>
      </trkpt>
      <trkpt lat="48.43955" lon="2.1363">
        <ele>138</ele>
        <time>2011-04-15T11:43:32Z</time>
      </trkpt>
      <trkpt lat="48.43954" lon="2.13629">
        <ele>138</ele>
        <time>2011-04-15T11:43:33Z</time>
      </trkpt>
      <trkpt lat="48.43952" lon="2.13629">
        <ele>138</ele>
        <time>2011-04-15T11:43:34Z</time>
      </trkpt>
      <trkpt lat="48.43951" lon="2.13629">
        <ele>138</ele>
        <time>2011-04-15T11:43:35Z</time>
      </trkpt>
      <trkpt lat="48.43949" lon="2.13628">
        <ele>138</ele>
        <time>2011-04-15T11:43:36Z</time>
      </trkpt>
      <trkpt lat="48.43948" lon="2.13628">
        <ele>138</ele>
        <time>2011-04-15T11:43:37Z</time>
      </trkpt>
      <trkpt lat="48.43946" lon="2.13628">
        <ele>138</ele>
        <time>2011-04-15T11:43:38Z</time>
      </trkpt>
      <trkpt lat="48.43945" lon="2.13628">
        <ele>138</ele>
        <time>2011-04-15T11:43:39Z</time>
      </trkpt>
      <trkpt lat="48.43943" lon="2.13628">
        <ele>138</ele>
        <time>2011-04-15T11:43:40Z</time>
      </trkpt>
      <trkpt lat="48.43942" lon="2.13627">
        <ele>138</ele>
        <time>2011-04-15T11:43:41Z</time>
      </trkpt>
      <trkpt lat="48.4394" lon="2.13626">
        <ele>138</ele>
        <time>2011-04-15T11:43:42Z</time>
      </trkpt>
      <trkpt lat="48.43939" lon="2.13623">
        <ele>138</ele>
        <time>2011-04-15T11:43:44Z</time>
      </trkpt>
      <trkpt lat="48.43938" lon="2.1362">
        <ele>138</ele>
        <time>2011-04-15T11:43:46Z</time>
      </trkpt>
      <trkpt lat="48.43937" lon="2.13618">
        <ele>138</ele>
        <time>2011-04-15T11:43:56Z</time>
      </trkpt>
      <trkpt lat="48.43937" lon="2.13616">
        <ele>138</ele>
        <time>2011-04-15T11:43:57Z</time>
      </trkpt>
      <trkpt lat="48.43935" lon="2.13612">
        <ele>138</ele>
        <time>2011-04-15T11:43:58Z</time>
      </trkpt>
      <trkpt lat="48.43934" lon="2.13608">
        <ele>138</ele>
        <time>2011-04-15T11:43:59Z</time>
      </trkpt>
      <trkpt lat="48.43932" lon="2.13603">
        <ele>138</ele>
        <time>2011-04-15T11:44:00Z</time>
      </trkpt>
      <trkpt lat="48.43931" lon="2.13599">
        <ele>138</ele>
        <time>2011-04-15T11:44:01Z</time>
      </trkpt>
      <trkpt lat="48.4393" lon="2.13596">
        <ele>138</ele>
        <time>2011-04-15T11:44:02Z</time>
      </trkpt>
      <trkpt lat="48.43929" lon="2.13592">
        <ele>138</ele>
        <time>2011-04-15T11:44:03Z</time>
      </trkpt>
      <trkpt lat="48.43928" lon="2.1359">
        <ele>138</ele>
        <time>2011-04-15T11:44:04Z</time>
      </trkpt>
      <trkpt lat="48.43928" lon="2.13588">
        <ele>138</ele>
        <time>2011-04-15T11:44:05Z</time>
      </trkpt>
      <trkpt lat="48.43927" lon="2.13585">
        <ele>138</ele>
        <time>2011-04-15T11:44:06Z</time>
      </trkpt>
      <trkpt lat="48.43926" lon="2.13583">
        <ele>138</ele>
        <time>2011-04-15T11:44:07Z</time>
      </trkpt>
      <trkpt lat="48.43925" lon="2.13581">
        <ele>138</ele>
        <time>2011-04-15T11:44:08Z</time>
      </trkpt>
      <trkpt lat="48.43924" lon="2.13579">
        <ele>138</ele>
        <time>2011-04-15T11:44:09Z</time>
      </trkpt>
      <trkpt lat="48.43924" lon="2.13577">
        <ele>138</ele>
        <time>2011-04-15T11:44:10Z</time>
      </trkpt>
      <trkpt lat="48.43923" lon="2.13575">
        <ele>138</ele>
        <time>2011-04-15T11:44:11Z</time>
      </trkpt>
      <trkpt lat="48.43923" lon="2.13573">
        <ele>138</ele>
        <time>2011-04-15T11:44:12Z</time>
      </trkpt>
      <trkpt lat="48.43922" lon="2.13571">
        <ele>138</ele>
        <time>2011-04-15T11:44:13Z</time>
      </trkpt>
      <trkpt lat="48.43921" lon="2.13569">
        <ele>138</ele>
        <time>2011-04-15T11:44:14Z</time>
      </trkpt>
      <trkpt lat="48.43921" lon="2.13566">
        <ele>138</ele>
        <time>2011-04-15T11:44:15Z</time>
      </trkpt>
      <trkpt lat="48.4392" lon="2.13564">
        <ele>138</ele>
        <time>2011-04-15T11:44:16Z</time>
      </trkpt>
      <trkpt lat="48.43919" lon="2.13562">
        <ele>138</ele>
        <time>2011-04-15T11:44:17Z</time>
      </trkpt>
      <trkpt lat="48.43918" lon="2.1356">
        <ele>138</ele>
        <time>2011-04-15T11:44:18Z</time>
      </trkpt>
      <trkpt lat="48.43918" lon="2.13558">
        <ele>138</ele>
        <time>2011-04-15T11:44:19Z</time>
      </trkpt>
      <trkpt lat="48.43917" lon="2.13555">
        <ele>138</ele>
        <time>2011-04-15T11:44:20Z</time>
      </trkpt>
      <trkpt lat="48.43917" lon="2.13553">
        <ele>138</ele>
        <time>2011-04-15T11:44:21Z</time>
      </trkpt>
      <trkpt lat="48.43916" lon="2.13551">
        <ele>138</ele>
        <time>2011-04-15T11:44:22Z</time>
      </trkpt>
      <trkpt lat="48.43916" lon="2.13548">
        <ele>138</ele>
        <time>2011-04-15T11:44:23Z</time>
      </trkpt>
      <trkpt lat="48.43915" lon="2.13546">
        <ele>138</ele>
        <time>2011-04-15T11:44:24Z</time>
      </trkpt>
      <trkpt lat="48.43914" lon="2.13544">
        <ele>138</ele>
        <time>2011-04-15T11:44:25Z</time>
      </trkpt>
      <trkpt lat="48.43913" lon="2.13542">
        <ele>138</ele>
        <time>2011-04-15T11:44:26Z</time>
      </trkpt>
      <trkpt lat="48.43912" lon="2.1354">
        <ele>138</ele>
        <time>2011-04-15T11:44:27Z</time>
      </trkpt>
      <trkpt lat="48.43912" lon="2.13537">
        <ele>138</ele>
        <time>2011-04-15T11:44:28Z</time>
      </trkpt>
      <trkpt lat="48.43911" lon="2.13535">
        <ele>138</ele>
        <time>2011-04-15T11:44:29Z</time>
      </trkpt>
      <trkpt lat="48.4391" lon="2.13532">
        <ele>138</ele>
        <time>2011-04-15T11:44:30Z</time>
      </trkpt>
      <trkpt lat="48.4391" lon="2.1353">
        <ele>138</ele>
        <time>2011-04-15T11:44:31Z</time>
      </trkpt>
      <trkpt lat="48.43909" lon="2.13528">
        <ele>138</ele>
        <time>2011-04-15T11:44:32Z</time>
      </trkpt>
      <trkpt lat="48.43908" lon="2.13525">
        <ele>138</ele>
        <time>2011-04-15T11:44:33Z</time>
      </trkpt>
      <trkpt lat="48.43908" lon="2.13523">
        <ele>138</ele>
        <time>2011-04-15T11:44:34Z</time>
      </trkpt>
      <trkpt lat="48.43907" lon="2.13521">
        <ele>138</ele>
        <time>2011-04-15T11:44:35Z</time>
      </trkpt>
      <trkpt lat="48.43907" lon="2.13519">
        <ele>138</ele>
        <time>2011-04-15T11:44:36Z</time>
      </trkpt>
      <trkpt lat="48.43906" lon="2.13517">
        <ele>138</ele>
        <time>2011-04-15T11:44:37Z</time>
      </trkpt>
      <trkpt lat="48.43906" lon="2.13515">
        <ele>138</ele>
        <time>2011-04-15T11:44:38Z</time>
      </trkpt>
      <trkpt lat="48.43905" lon="2.13512">
        <ele>138</ele>
        <time>2011-04-15T11:44:39Z</time>
      </trkpt>
      <trkpt lat="48.43905" lon="2.1351">
        <ele>138</ele>
        <time>2011-04-15T11:44:40Z</time>
      </trkpt>
      <trkpt lat="48.43905" lon="2.13508">
        <ele>138</ele>
        <time>2011-04-15T11:44:41Z</time>
      </trkpt>
      <trkpt lat="48.43904" lon="2.13506">
        <ele>138</ele>
        <time>2011-04-15T11:44:42Z</time>
      </trkpt>
      <trkpt lat="48.43903" lon="2.13503">
        <ele>138</ele>
        <time>2011-04-15T11:44:43Z</time>
      </trkpt>
      <trkpt lat="48.43902" lon="2.135">
        <ele>138</ele>
        <time>2011-04-15T11:44:44Z</time>
      </trkpt>
      <trkpt lat="48.43902" lon="2.13498">
        <ele>138</ele>
        <time>2011-04-15T11:44:45Z</time>
      </trkpt>
      <trkpt lat="48.43901" lon="2.13495">
        <ele>138</ele>
        <time>2011-04-15T11:44:46Z</time>
      </trkpt>
      <trkpt lat="48.439" lon="2.13493">
        <ele>138</ele>
        <time>2011-04-15T11:44:47Z</time>
      </trkpt>
      <trkpt lat="48.439" lon="2.1349">
        <ele>138</ele>
        <time>2011-04-15T11:44:48Z</time>
      </trkpt>
      <trkpt lat="48.43899" lon="2.13488">
        <ele>138</ele>
        <time>2011-04-15T11:44:49Z</time>
      </trkpt>
      <trkpt lat="48.43898" lon="2.13485">
        <ele>138</ele>
        <time>2011-04-15T11:44:50Z</time>
      </trkpt>
      <trkpt lat="48.43898" lon="2.13483">
        <ele>138</ele>
        <time>2011-04-15T11:44:51Z</time>
      </trkpt>
      <trkpt lat="48.43897" lon="2.13481">
        <ele>138</ele>
        <time>2011-04-15T11:44:52Z</time>
      </trkpt>
      <trkpt lat="48.43896" lon="2.13479">
        <ele>138</ele>
        <time>2011-04-15T11:44:53Z</time>
      </trkpt>
      <trkpt lat="48.43896" lon="2.13477">
        <ele>138</ele>
        <time>2011-04-15T11:44:54Z</time>
      </trkpt>
      <trkpt lat="48.43895" lon="2.13475">
        <ele>138</ele>
        <time>2011-04-15T11:44:55Z</time>
      </trkpt>
      <trkpt lat="48.43894" lon="2.13472">
        <ele>138</ele>
        <time>2011-04-15T11:44:56Z</time>
      </trkpt>
      <trkpt lat="48.43894" lon="2.1347">
        <ele>138</ele>
        <time>2011-04-15T11:44:57Z</time>
      </trkpt>
      <trkpt lat="48.43894" lon="2.13468">
        <ele>138</ele>
        <time>2011-04-15T11:44:58Z</time>
      </trkpt>
      <trkpt lat="48.43893" lon="2.13465">
        <ele>138</ele>
        <time>2011-04-15T11:44:59Z</time>
      </trkpt>
      <trkpt lat="48.43892" lon="2.13463">
        <ele>138</ele>
        <time>2011-04-15T11:45:00Z</time>
      </trkpt>
      <trkpt lat="48.43892" lon="2.13461">
        <ele>138</ele>
        <time>2011-04-15T11:45:01Z</time>
      </trkpt>
      <trkpt lat="48.43891" lon="2.13458">
        <ele>138</ele>
        <time>2011-04-15T11:45:02Z</time>
      </trkpt>
      <trkpt lat="48.4389" lon="2.13456">
        <ele>138</ele>
        <time>2011-04-15T11:45:03Z</time>
      </trkpt>
      <trkpt lat="48.43889" lon="2.13454">
        <ele>138</ele>
        <time>2011-04-15T11:45:04Z</time>
      </trkpt>
      <trkpt lat="48.43888" lon="2.13452">
        <ele>139</ele>
        <time>2011-04-15T11:45:05Z</time>
      </trkpt>
      <trkpt lat="48.43887" lon="2.13449">
        <ele>139</ele>
        <time>2011-04-15T11:45:06Z</time>
      </trkpt>
      <trkpt lat="48.43886" lon="2.13447">
        <ele>139</ele>
        <time>2011-04-15T11:45:07Z</time>
      </trkpt>
      <trkpt lat="48.43886" lon="2.13445">
        <ele>139</ele>
        <time>2011-04-15T11:45:08Z</time>
      </trkpt>
      <trkpt lat="48.43885" lon="2.13442">
        <ele>139</ele>
        <time>2011-04-15T11:45:09Z</time>
      </trkpt>
      <trkpt lat="48.43884" lon="2.1344">
        <ele>139</ele>
        <time>2011-04-15T11:45:10Z</time>
      </trkpt>
      <trkpt lat="48.43883" lon="2.13437">
        <ele>139</ele>
        <time>2011-04-15T11:45:11Z</time>
      </trkpt>
      <trkpt lat="48.43883" lon="2.13435">
        <ele>139</ele>
        <time>2011-04-15T11:45:12Z</time>
      </trkpt>
      <trkpt lat="48.43882" lon="2.13433">
        <ele>139</ele>
        <time>2011-04-15T11:45:13Z</time>
      </trkpt>
      <trkpt lat="48.43881" lon="2.13431">
        <ele>139</ele>
        <time>2011-04-15T11:45:14Z</time>
      </trkpt>
      <trkpt lat="48.43881" lon="2.13429">
        <ele>139</ele>
        <time>2011-04-15T11:45:15Z</time>
      </trkpt>
      <trkpt lat="48.4388" lon="2.13427">
        <ele>139</ele>
        <time>2011-04-15T11:45:16Z</time>
      </trkpt>
      <trkpt lat="48.4388" lon="2.13424">
        <ele>139</ele>
        <time>2011-04-15T11:45:17Z</time>
      </trkpt>
      <trkpt lat="48.43879" lon="2.13422">
        <ele>139</ele>
        <time>2011-04-15T11:45:18Z</time>
      </trkpt>
      <trkpt lat="48.43879" lon="2.1342">
        <ele>139</ele>
        <time>2011-04-15T11:45:19Z</time>
      </trkpt>
      <trkpt lat="48.43878" lon="2.13418">
        <ele>139</ele>
        <time>2011-04-15T11:45:20Z</time>
      </trkpt>
      <trkpt lat="48.43877" lon="2.13416">
        <ele>139</ele>
        <time>2011-04-15T11:45:21Z</time>
      </trkpt>
      <trkpt lat="48.43877" lon="2.13414">
        <ele>139</ele>
        <time>2011-04-15T11:45:22Z</time>
      </trkpt>
      <trkpt lat="48.43876" lon="2.13412">
        <ele>139</ele>
        <time>2011-04-15T11:45:23Z</time>
      </trkpt>
      <trkpt lat="48.43876" lon="2.1341">
        <ele>139</ele>
        <time>2011-04-15T11:45:24Z</time>
      </trkpt>
      <trkpt lat="48.43875" lon="2.13408">
        <ele>139</ele>
        <time>2011-04-15T11:45:25Z</time>
      </trkpt>
      <trkpt lat="48.43875" lon="2.13406">
        <ele>139</ele>
        <time>2011-04-15T11:45:26Z</time>
      </trkpt>
      <trkpt lat="48.43874" lon="2.13403">
        <ele>139</ele>
        <time>2011-04-15T11:45:27Z</time>
      </trkpt>
      <trkpt lat="48.43873" lon="2.13401">
        <ele>139</ele>
        <time>2011-04-15T11:45:28Z</time>
      </trkpt>
      <trkpt lat="48.43873" lon="2.134">
        <ele>139</ele>
        <time>2011-04-15T11:45:29Z</time>
      </trkpt>
      <trkpt lat="48.43872" lon="2.13398">
        <ele>139</ele>
        <time>2011-04-15T11:45:30Z</time>
      </trkpt>
      <trkpt lat="48.43872" lon="2.13396">
        <ele>139</ele>
        <time>2011-04-15T11:45:31Z</time>
      </trkpt>
      <trkpt lat="48.43871" lon="2.13393">
        <ele>139</ele>
        <time>2011-04-15T11:45:32Z</time>
      </trkpt>
      <trkpt lat="48.43871" lon="2.13391">
        <ele>139</ele>
        <time>2011-04-15T11:45:33Z</time>
      </trkpt>
      <trkpt lat="48.4387" lon="2.13389">
        <ele>139</ele>
        <time>2011-04-15T11:45:34Z</time>
      </trkpt>
      <trkpt lat="48.43869" lon="2.13387">
        <ele>139</ele>
        <time>2011-04-15T11:45:35Z</time>
      </trkpt>
      <trkpt lat="48.43868" lon="2.13385">
        <ele>139</ele>
        <time>2011-04-15T11:45:36Z</time>
      </trkpt>
      <trkpt lat="48.43868" lon="2.13383">
        <ele>139</ele>
        <time>2011-04-15T11:45:37Z</time>
      </trkpt>
      <trkpt lat="48.43867" lon="2.13381">
        <ele>139</ele>
        <time>2011-04-15T11:45:38Z</time>
      </trkpt>
      <trkpt lat="48.43867" lon="2.13379">
        <ele>139</ele>
        <time>2011-04-15T11:45:39Z</time>
      </trkpt>
      <trkpt lat="48.43866" lon="2.13377">
        <ele>139</ele>
        <time>2011-04-15T11:45:40Z</time>
      </trkpt>
      <trkpt lat="48.43865" lon="2.13375">
        <ele>139</ele>
        <time>2011-04-15T11:45:41Z</time>
      </trkpt>
      <trkpt lat="48.43865" lon="2.13373">
        <ele>139</ele>
        <time>2011-04-15T11:45:42Z</time>
      </trkpt>
      <trkpt lat="48.43865" lon="2.13371">
        <ele>139</ele>
        <time>2011-04-15T11:45:43Z</time>
      </trkpt>
      <trkpt lat="48.43864" lon="2.13369">
        <ele>139</ele>
        <time>2011-04-15T11:45:44Z</time>
      </trkpt>
      <trkpt lat="48.43863" lon="2.13367">
        <ele>139</ele>
        <time>2011-04-15T11:45:45Z</time>
      </trkpt>
      <trkpt lat="48.43863" lon="2.13365">
        <ele>139</ele>
        <time>2011-04-15T11:45:46Z</time>
      </trkpt>
      <trkpt lat="48.43862" lon="2.13363">
        <ele>139</ele>
        <time>2011-04-15T11:45:47Z</time>
      </trkpt>
      <trkpt lat="48.43861" lon="2.1336">
        <ele>139</ele>
        <time>2011-04-15T11:45:48Z</time>
      </trkpt>
      <trkpt lat="48.43861" lon="2.13358">
        <ele>139</ele>
        <time>2011-04-15T11:45:49Z</time>
      </trkpt>
      <trkpt lat="48.4386" lon="2.13356">
        <ele>139</ele>
        <time>2011-04-15T11:45:50Z</time>
      </trkpt>
      <trkpt lat="48.4386" lon="2.13354">
        <ele>139</ele>
        <time>2011-04-15T11:45:51Z</time>
      </trkpt>
      <trkpt lat="48.43859" lon="2.13352">
        <ele>139</ele>
        <time>2011-04-15T11:45:52Z</time>
      </trkpt>
      <trkpt lat="48.43859" lon="2.1335">
        <ele>139</ele>
        <time>2011-04-15T11:45:53Z</time>
      </trkpt>
      <trkpt lat="48.43858" lon="2.13348">
        <ele>139</ele>
        <time>2011-04-15T11:45:54Z</time>
      </trkpt>
      <trkpt lat="48.43857" lon="2.13346">
        <ele>139</ele>
        <time>2011-04-15T11:45:55Z</time>
      </trkpt>
      <trkpt lat="48.43857" lon="2.13344">
        <ele>139</ele>
        <time>2011-04-15T11:45:56Z</time>
      </trkpt>
      <trkpt lat="48.43856" lon="2.13341">
        <ele>139</ele>
        <time>2011-04-15T11:45:57Z</time>
      </trkpt>
      <trkpt lat="48.43856" lon="2.13339">
        <ele>139</ele>
        <time>2011-04-15T11:45:58Z</time>
      </trkpt>
      <trkpt lat="48.43855" lon="2.13337">
        <ele>139</ele>
        <time>2011-04-15T11:45:59Z</time>
      </trkpt>
      <trkpt lat="48.43855" lon="2.13335">
        <ele>139</ele>
        <time>2011-04-15T11:46:00Z</time>
      </trkpt>
      <trkpt lat="48.43854" lon="2.13333">
        <ele>139</ele>
        <time>2011-04-15T11:46:01Z</time>
      </trkpt>
      <trkpt lat="48.43854" lon="2.13331">
        <ele>139</ele>
        <time>2011-04-15T11:46:02Z</time>
      </trkpt>
      <trkpt lat="48.43853" lon="2.13329">
        <ele>139</ele>
        <time>2011-04-15T11:46:03Z</time>
      </trkpt>
      <trkpt lat="48.43853" lon="2.13327">
        <ele>139</ele>
        <time>2011-04-15T11:46:04Z</time>
      </trkpt>
      <trkpt lat="48.43852" lon="2.13325">
        <ele>139</ele>
        <time>2011-04-15T11:46:05Z</time>
      </trkpt>
      <trkpt lat="48.43851" lon="2.13323">
        <ele>139</ele>
        <time>2011-04-15T11:46:06Z</time>
      </trkpt>
      <trkpt lat="48.43851" lon="2.13321">
        <ele>139</ele>
        <time>2011-04-15T11:46:07Z</time>
      </trkpt>
      <trkpt lat="48.4385" lon="2.13318">
        <ele>139</ele>
        <time>2011-04-15T11:46:08Z</time>
      </trkpt>
      <trkpt lat="48.4385" lon="2.13316">
        <ele>139</ele>
        <time>2011-04-15T11:46:09Z</time>
      </trkpt>
      <trkpt lat="48.43849" lon="2.13314">
        <ele>139</ele>
        <time>2011-04-15T11:46:10Z</time>
      </trkpt>
      <trkpt lat="48.43848" lon="2.13311">
        <ele>139</ele>
        <time>2011-04-15T11:46:11Z</time>
      </trkpt>
      <trkpt lat="48.43847" lon="2.13306">
        <ele>139</ele>
        <time>2011-04-15T11:46:12Z</time>
      </trkpt>
      <trkpt lat="48.43846" lon="2.13302">
        <ele>139</ele>
        <time>2011-04-15T11:46:13Z</time>
      </trkpt>
      <trkpt lat="48.43846" lon="2.13299">
        <ele>139</ele>
        <time>2011-04-15T11:46:14Z</time>
      </trkpt>
      <trkpt lat="48.43845" lon="2.13295">
        <ele>140</ele>
        <time>2011-04-15T11:46:15Z</time>
      </trkpt>
      <trkpt lat="48.43844" lon="2.13292">
        <ele>140</ele>
        <time>2011-04-15T11:46:16Z</time>
      </trkpt>
      <trkpt lat="48.43843" lon="2.13289">
        <ele>140</ele>
        <time>2011-04-15T11:46:17Z</time>
      </trkpt>
      <trkpt lat="48.43842" lon="2.13286">
        <ele>140</ele>
        <time>2011-04-15T11:46:18Z</time>
      </trkpt>
      <trkpt lat="48.43842" lon="2.13284">
        <ele>140</ele>
        <time>2011-04-15T11:46:19Z</time>
      </trkpt>
      <trkpt lat="48.43841" lon="2.13281">
        <ele>141</ele>
        <time>2011-04-15T11:46:20Z</time>
      </trkpt>
      <trkpt lat="48.43841" lon="2.13279">
        <ele>141</ele>
        <time>2011-04-15T11:46:21Z</time>
      </trkpt>
      <trkpt lat="48.4384" lon="2.13277">
        <ele>141</ele>
        <time>2011-04-15T11:46:22Z</time>
      </trkpt>
      <trkpt lat="48.43839" lon="2.13275">
        <ele>141</ele>
        <time>2011-04-15T11:46:23Z</time>
      </trkpt>
      <trkpt lat="48.43839" lon="2.13273">
        <ele>141</ele>
        <time>2011-04-15T11:46:24Z</time>
      </trkpt>
      <trkpt lat="48.43837" lon="2.13271">
        <ele>141</ele>
        <time>2011-04-15T11:46:26Z</time>
      </trkpt>
      <trkpt lat="48.43836" lon="2.1327">
        <ele>141</ele>
        <time>2011-04-15T11:46:27Z</time>
      </trkpt>
      <trkpt lat="48.43834" lon="2.1327">
        <ele>141</ele>
        <time>2011-04-15T11:46:28Z</time>
      </trkpt>
      <trkpt lat="48.43833" lon="2.13271">
        <ele>141</ele>
        <time>2011-04-15T11:46:29Z</time>
      </trkpt>
      <trkpt lat="48.43832" lon="2.13273">
        <ele>141</ele>
        <time>2011-04-15T11:46:30Z</time>
      </trkpt>
      <trkpt lat="48.4383" lon="2.13275">
        <ele>141</ele>
        <time>2011-04-15T11:46:31Z</time>
      </trkpt>
      <trkpt lat="48.43829" lon="2.13277">
        <ele>141</ele>
        <time>2011-04-15T11:46:32Z</time>
      </trkpt>
      <trkpt lat="48.43827" lon="2.13279">
        <ele>141</ele>
        <time>2011-04-15T11:46:33Z</time>
      </trkpt>
      <trkpt lat="48.43826" lon="2.13281">
        <ele>141</ele>
        <time>2011-04-15T11:46:34Z</time>
      </trkpt>
      <trkpt lat="48.43825" lon="2.13284">
        <ele>141</ele>
        <time>2011-04-15T11:46:35Z</time>
      </trkpt>
      <trkpt lat="48.43824" lon="2.13286">
        <ele>141</ele>
        <time>2011-04-15T11:46:36Z</time>
      </trkpt>
      <trkpt lat="48.43823" lon="2.13288">
        <ele>141</ele>
        <time>2011-04-15T11:46:37Z</time>
      </trkpt>
      <trkpt lat="48.43821" lon="2.1329">
        <ele>141</ele>
        <time>2011-04-15T11:46:38Z</time>
      </trkpt>
      <trkpt lat="48.4382" lon="2.13292">
        <ele>141</ele>
        <time>2011-04-15T11:46:39Z</time>
      </trkpt>
      <trkpt lat="48.43819" lon="2.13294">
        <ele>141</ele>
        <time>2011-04-15T11:46:40Z</time>
      </trkpt>
      <trkpt lat="48.43818" lon="2.13296">
        <ele>141</ele>
        <time>2011-04-15T11:46:41Z</time>
      </trkpt>
      <trkpt lat="48.43816" lon="2.13298">
        <ele>141</ele>
        <time>2011-04-15T11:46:42Z</time>
      </trkpt>
      <trkpt lat="48.43815" lon="2.133">
        <ele>141</ele>
        <time>2011-04-15T11:46:43Z</time>
      </trkpt>
      <trkpt lat="48.43814" lon="2.13302">
        <ele>141</ele>
        <time>2011-04-15T11:46:44Z</time>
      </trkpt>
      <trkpt lat="48.43813" lon="2.13303">
        <ele>141</ele>
        <time>2011-04-15T11:46:45Z</time>
      </trkpt>
      <trkpt lat="48.43811" lon="2.13305">
        <ele>141</ele>
        <time>2011-04-15T11:46:46Z</time>
      </trkpt>
      <trkpt lat="48.4381" lon="2.13306">
        <ele>141</ele>
        <time>2011-04-15T11:46:47Z</time>
      </trkpt>
      <trkpt lat="48.43808" lon="2.13308">
        <ele>141</ele>
        <time>2011-04-15T11:46:48Z</time>
      </trkpt>
      <trkpt lat="48.43807" lon="2.13309">
        <ele>141</ele>
        <time>2011-04-15T11:46:49Z</time>
      </trkpt>
      <trkpt lat="48.43805" lon="2.13311">
        <ele>141</ele>
        <time>2011-04-15T11:46:50Z</time>
      </trkpt>
      <trkpt lat="48.43804" lon="2.13313">
        <ele>141</ele>
        <time>2011-04-15T11:46:51Z</time>
      </trkpt>
      <trkpt lat="48.43803" lon="2.13315">
        <ele>141</ele>
        <time>2011-04-15T11:46:52Z</time>
      </trkpt>
      <trkpt lat="48.43801" lon="2.13316">
        <ele>141</ele>
        <time>2011-04-15T11:46:53Z</time>
      </trkpt>
      <trkpt lat="48.43799" lon="2.13318">
        <ele>141</ele>
        <time>2011-04-15T11:46:54Z</time>
      </trkpt>
      <trkpt lat="48.43798" lon="2.1332">
        <ele>141</ele>
        <time>2011-04-15T11:46:55Z</time>
      </trkpt>
      <trkpt lat="48.43796" lon="2.13322">
        <ele>141</ele>
        <time>2011-04-15T11:46:56Z</time>
      </trkpt>
      <trkpt lat="48.43795" lon="2.13323">
        <ele>141</ele>
        <time>2011-04-15T11:46:57Z</time>
      </trkpt>
      <trkpt lat="48.43793" lon="2.13325">
        <ele>141</ele>
        <time>2011-04-15T11:46:58Z</time>
      </trkpt>
      <trkpt lat="48.43791" lon="2.13326">
        <ele>141</ele>
        <time>2011-04-15T11:46:59Z</time>
      </trkpt>
      <trkpt lat="48.4379" lon="2.13328">
        <ele>141</ele>
        <time>2011-04-15T11:47:00Z</time>
      </trkpt>
      <trkpt lat="48.43788" lon="2.1333">
        <ele>141</ele>
        <time>2011-04-15T11:47:01Z</time>
      </trkpt>
      <trkpt lat="48.43786" lon="2.13332">
        <ele>141</ele>
        <time>2011-04-15T11:47:02Z</time>
      </trkpt>
      <trkpt lat="48.43785" lon="2.13334">
        <ele>141</ele>
        <time>2011-04-15T11:47:03Z</time>
      </trkpt>
      <trkpt lat="48.43784" lon="2.13335">
        <ele>141</ele>
        <time>2011-04-15T11:47:04Z</time>
      </trkpt>
      <trkpt lat="48.43783" lon="2.13336">
        <ele>141</ele>
        <time>2011-04-15T11:47:05Z</time>
      </trkpt>
      <trkpt lat="48.43781" lon="2.13337">
        <ele>141</ele>
        <time>2011-04-15T11:47:06Z</time>
      </trkpt>
      <trkpt lat="48.4378" lon="2.13338">
        <ele>141</ele>
        <time>2011-04-15T11:47:07Z</time>
      </trkpt>
      <trkpt lat="48.43779" lon="2.13339">
        <ele>141</ele>
        <time>2011-04-15T11:47:08Z</time>
      </trkpt>
      <trkpt lat="48.43777" lon="2.13342">
        <ele>141</ele>
        <time>2011-04-15T11:47:10Z</time>
      </trkpt>
      <trkpt lat="48.43775" lon="2.13343">
        <ele>141</ele>
        <time>2011-04-15T11:47:11Z</time>
      </trkpt>
      <trkpt lat="48.43773" lon="2.13346">
        <ele>141</ele>
        <time>2011-04-15T11:47:13Z</time>
      </trkpt>
      <trkpt lat="48.43772" lon="2.13347">
        <ele>141</ele>
        <time>2011-04-15T11:47:14Z</time>
      </trkpt>
      <trkpt lat="48.43771" lon="2.13348">
        <ele>141</ele>
        <time>2011-04-15T11:47:15Z</time>
      </trkpt>
      <trkpt lat="48.4377" lon="2.13349">
        <ele>141</ele>
        <time>2011-04-15T11:47:16Z</time>
      </trkpt>
      <trkpt lat="48.43768" lon="2.1335">
        <ele>141</ele>
        <time>2011-04-15T11:47:17Z</time>
      </trkpt>
      <trkpt lat="48.43767" lon="2.13351">
        <ele>141</ele>
        <time>2011-04-15T11:47:18Z</time>
      </trkpt>
      <trkpt lat="48.43766" lon="2.13352">
        <ele>141</ele>
        <time>2011-04-15T11:47:19Z</time>
      </trkpt>
      <trkpt lat="48.43764" lon="2.13353">
        <ele>141</ele>
        <time>2011-04-15T11:47:20Z</time>
      </trkpt>
      <trkpt lat="48.43763" lon="2.13354">
        <ele>141</ele>
        <time>2011-04-15T11:47:21Z</time>
      </trkpt>
      <trkpt lat="48.43762" lon="2.13355">
        <ele>141</ele>
        <time>2011-04-15T11:47:22Z</time>
      </trkpt>
      <trkpt lat="48.4376" lon="2.13356">
        <ele>141</ele>
        <time>2011-04-15T11:47:39Z</time>
      </trkpt>
      <trkpt lat="48.43759" lon="2.13357">
        <ele>141</ele>
        <time>2011-04-15T11:47:40Z</time>
      </trkpt>
      <trkpt lat="48.43758" lon="2.13358">
        <ele>141</ele>
        <time>2011-04-15T11:47:41Z</time>
      </trkpt>
      <trkpt lat="48.43756" lon="2.1336">
        <ele>141</ele>
        <time>2011-04-15T11:47:42Z</time>
      </trkpt>
      <trkpt lat="48.43755" lon="2.13362">
        <ele>141</ele>
        <time>2011-04-15T11:47:43Z</time>
      </trkpt>
      <trkpt lat="48.43753" lon="2.13364">
        <ele>141</ele>
        <time>2011-04-15T11:47:44Z</time>
      </trkpt>
      <trkpt lat="48.43751" lon="2.13366">
        <ele>141</ele>
        <time>2011-04-15T11:47:45Z</time>
      </trkpt>
      <trkpt lat="48.43749" lon="2.13368">
        <ele>141</ele>
        <time>2011-04-15T11:47:46Z</time>
      </trkpt>
      <trkpt lat="48.43747" lon="2.13369">
        <ele>141</ele>
        <time>2011-04-15T11:47:47Z</time>
      </trkpt>
      <trkpt lat="48.43746" lon="2.13371">
        <ele>141</ele>
        <time>2011-04-15T11:47:48Z</time>
      </trkpt>
      <trkpt lat="48.43745" lon="2.13372">
        <ele>141</ele>
        <time>2011-04-15T11:47:49Z</time>
      </trkpt>
      <trkpt lat="48.43743" lon="2.13374">
        <ele>141</ele>
        <time>2011-04-15T11:47:50Z</time>
      </trkpt>
      <trkpt lat="48.43742" lon="2.13376">
        <ele>141</ele>
        <time>2011-04-15T11:47:51Z</time>
      </trkpt>
      <trkpt lat="48.43741" lon="2.13377">
        <ele>141</ele>
        <time>2011-04-15T11:47:52Z</time>
      </trkpt>
      <trkpt lat="48.43739" lon="2.13379">
        <ele>141</ele>
        <time>2011-04-15T11:47:53Z</time>
      </trkpt>
      <trkpt lat="48.43737" lon="2.1338">
        <ele>141</ele>
        <time>2011-04-15T11:47:54Z</time>
      </trkpt>
      <trkpt lat="48.43736" lon="2.13382">
        <ele>141</ele>
        <time>2011-04-15T11:47:55Z</time>
      </trkpt>
      <trkpt lat="48.43735" lon="2.13383">
        <ele>141</ele>
        <time>2011-04-15T11:47:56Z</time>
      </trkpt>
      <trkpt lat="48.43734" lon="2.13385">
        <ele>141</ele>
        <time>2011-04-15T11:47:57Z</time>
      </trkpt>
      <trkpt lat="48.43732" lon="2.13387">
        <ele>141</ele>
        <time>2011-04-15T11:47:58Z</time>
      </trkpt>
      <trkpt lat="48.43731" lon="2.13388">
        <ele>141</ele>
        <time>2011-04-15T11:47:59Z</time>
      </trkpt>
      <trkpt lat="48.43729" lon="2.1339">
        <ele>141</ele>
        <time>2011-04-15T11:48:00Z</time>
      </trkpt>
      <trkpt lat="48.43728" lon="2.13392">
        <ele>141</ele>
        <time>2011-04-15T11:48:01Z</time>
      </trkpt>
      <trkpt lat="48.43726" lon="2.13393">
        <ele>141</ele>
        <time>2011-04-15T11:48:02Z</time>
      </trkpt>
      <trkpt lat="48.43725" lon="2.13394">
        <ele>141</ele>
        <time>2011-04-15T11:48:03Z</time>
      </trkpt>
      <trkpt lat="48.43724" lon="2.13396">
        <ele>141</ele>
        <time>2011-04-15T11:48:04Z</time>
      </trkpt>
      <trkpt lat="48.43722" lon="2.13398">
        <ele>141</ele>
        <time>2011-04-15T11:48:05Z</time>
      </trkpt>
      <trkpt lat="48.43721" lon="2.13399">
        <ele>141</ele>
        <time>2011-04-15T11:48:06Z</time>
      </trkpt>
      <trkpt lat="48.43719" lon="2.134">
        <ele>141</ele>
        <time>2011-04-15T11:48:07Z</time>
      </trkpt>
      <trkpt lat="48.43718" lon="2.13402">
        <ele>141</ele>
        <time>2011-04-15T11:48:08Z</time>
      </trkpt>
      <trkpt lat="48.43716" lon="2.13405">
        <ele>141</ele>
        <time>2011-04-15T11:48:10Z</time>
      </trkpt>
      <trkpt lat="48.43715" lon="2.13406">
        <ele>141</ele>
        <time>2011-04-15T11:48:11Z</time>
      </trkpt>
      <trkpt lat="48.43713" lon="2.13408">
        <ele>141</ele>
        <time>2011-04-15T11:48:12Z</time>
      </trkpt>
      <trkpt lat="48.43712" lon="2.13409">
        <ele>141</ele>
        <time>2011-04-15T11:48:13Z</time>
      </trkpt>
      <trkpt lat="48.43711" lon="2.13411">
        <ele>141</ele>
        <time>2011-04-15T11:48:14Z</time>
      </trkpt>
      <trkpt lat="48.4371" lon="2.13412">
        <ele>141</ele>
        <time>2011-04-15T11:48:15Z</time>
      </trkpt>
      <trkpt lat="48.43709" lon="2.13414">
        <ele>141</ele>
        <time>2011-04-15T11:48:16Z</time>
      </trkpt>
      <trkpt lat="48.43707" lon="2.13416">
        <ele>141</ele>
        <time>2011-04-15T11:48:17Z</time>
      </trkpt>
      <trkpt lat="48.43706" lon="2.13418">
        <ele>141</ele>
        <time>2011-04-15T11:48:18Z</time>
      </trkpt>
      <trkpt lat="48.43705" lon="2.13419">
        <ele>141</ele>
        <time>2011-04-15T11:48:19Z</time>
      </trkpt>
      <trkpt lat="48.43704" lon="2.13421">
        <ele>141</ele>
        <time>2011-04-15T11:48:20Z</time>
      </trkpt>
      <trkpt lat="48.43702" lon="2.13422">
        <ele>141</ele>
        <time>2011-04-15T11:48:21Z</time>
      </trkpt>
      <trkpt lat="48.437" lon="2.13426">
        <ele>141</ele>
        <time>2011-04-15T11:48:23Z</time>
      </trkpt>
      <trkpt lat="48.43699" lon="2.13427">
        <ele>141</ele>
        <time>2011-04-15T11:48:24Z</time>
      </trkpt>
      <trkpt lat="48.43698" lon="2.13429">
        <ele>141</ele>
        <time>2011-04-15T11:48:25Z</time>
      </trkpt>
      <trkpt lat="48.43696" lon="2.13431">
        <ele>141</ele>
        <time>2011-04-15T11:48:26Z</time>
      </trkpt>
      <trkpt lat="48.43695" lon="2.13433">
        <ele>141</ele>
        <time>2011-04-15T11:48:27Z</time>
      </trkpt>
      <trkpt lat="48.43693" lon="2.13435">
        <ele>141</ele>
        <time>2011-04-15T11:48:28Z</time>
      </trkpt>
      <trkpt lat="48.43692" lon="2.13437">
        <ele>141</ele>
        <time>2011-04-15T11:48:29Z</time>
      </trkpt>
      <trkpt lat="48.4369" lon="2.1344">
        <ele>141</ele>
        <time>2011-04-15T11:48:30Z</time>
      </trkpt>
      <trkpt lat="48.43688" lon="2.13442">
        <ele>141</ele>
        <time>2011-04-15T11:48:31Z</time>
      </trkpt>
      <trkpt lat="48.43687" lon="2.13443">
        <ele>141</ele>
        <time>2011-04-15T11:48:32Z</time>
      </trkpt>
      <trkpt lat="48.43685" lon="2.13445">
        <ele>141</ele>
        <time>2011-04-15T11:48:33Z</time>
      </trkpt>
      <trkpt lat="48.43684" lon="2.13447">
        <ele>141</ele>
        <time>2011-04-15T11:48:34Z</time>
      </trkpt>
      <trkpt lat="48.43683" lon="2.13449">
        <ele>141</ele>
        <time>2011-04-15T11:48:35Z</time>
      </trkpt>
      <trkpt lat="48.43682" lon="2.13451">
        <ele>141</ele>
        <time>2011-04-15T11:48:36Z</time>
      </trkpt>
      <trkpt lat="48.4368" lon="2.13453">
        <ele>141</ele>
        <time>2011-04-15T11:48:37Z</time>
      </trkpt>
      <trkpt lat="48.43679" lon="2.13454">
        <ele>141</ele>
        <time>2011-04-15T11:48:38Z</time>
      </trkpt>
      <trkpt lat="48.43678" lon="2.13456">
        <ele>141</ele>
        <time>2011-04-15T11:48:39Z</time>
      </trkpt>
      <trkpt lat="48.43676" lon="2.13458">
        <ele>141</ele>
        <time>2011-04-15T11:48:41Z</time>
      </trkpt>
      <trkpt lat="48.43675" lon="2.1346">
        <ele>141</ele>
        <time>2011-04-15T11:48:42Z</time>
      </trkpt>
      <trkpt lat="48.43673" lon="2.13462">
        <ele>141</ele>
        <time>2011-04-15T11:48:44Z</time>
      </trkpt>
      <trkpt lat="48.43671" lon="2.13465">
        <ele>141</ele>
        <time>2011-04-15T11:48:46Z</time>
      </trkpt>
      <trkpt lat="48.4367" lon="2.13466">
        <ele>140</ele>
        <time>2011-04-15T11:48:47Z</time>
      </trkpt>
      <trkpt lat="48.43669" lon="2.13468">
        <ele>140</ele>
        <time>2011-04-15T11:48:48Z</time>
      </trkpt>
      <trkpt lat="48.43668" lon="2.1347">
        <ele>140</ele>
        <time>2011-04-15T11:48:49Z</time>
      </trkpt>
      <trkpt lat="48.43667" lon="2.13472">
        <ele>139</ele>
        <time>2011-04-15T11:48:50Z</time>
      </trkpt>
      <trkpt lat="48.43666" lon="2.13474">
        <ele>139</ele>
        <time>2011-04-15T11:48:51Z</time>
      </trkpt>
      <trkpt lat="48.43664" lon="2.13475">
        <ele>139</ele>
        <time>2011-04-15T11:48:52Z</time>
      </trkpt>
      <trkpt lat="48.43663" lon="2.13477">
        <ele>139</ele>
        <time>2011-04-15T11:48:53Z</time>
      </trkpt>
      <trkpt lat="48.43662" lon="2.13479">
        <ele>138</ele>
        <time>2011-04-15T11:48:54Z</time>
      </trkpt>
      <trkpt lat="48.43661" lon="2.13481">
        <ele>138</ele>
        <time>2011-04-15T11:48:55Z</time>
      </trkpt>
      <trkpt lat="48.4366" lon="2.13483">
        <ele>138</ele>
        <time>2011-04-15T11:48:56Z</time>
      </trkpt>
      <trkpt lat="48.43659" lon="2.13487">
        <ele>138</ele>
        <time>2011-04-15T11:48:57Z</time>
      </trkpt>
      <trkpt lat="48.43657" lon="2.1349">
        <ele>138</ele>
        <time>2011-04-15T11:48:58Z</time>
      </trkpt>
      <trkpt lat="48.43656" lon="2.13491">
        <ele>138</ele>
        <time>2011-04-15T11:48:59Z</time>
      </trkpt>
      <trkpt lat="48.43656" lon="2.13493">
        <ele>138</ele>
        <time>2011-04-15T11:49:00Z</time>
      </trkpt>
      <trkpt lat="48.43654" lon="2.13496">
        <ele>138</ele>
        <time>2011-04-15T11:49:01Z</time>
      </trkpt>
      <trkpt lat="48.43653" lon="2.13498">
        <ele>138</ele>
        <time>2011-04-15T11:49:02Z</time>
      </trkpt>
      <trkpt lat="48.43652" lon="2.13501">
        <ele>138</ele>
        <time>2011-04-15T11:49:03Z</time>
      </trkpt>
      <trkpt lat="48.43651" lon="2.13503">
        <ele>138</ele>
        <time>2011-04-15T11:49:04Z</time>
      </trkpt>
      <trkpt lat="48.4365" lon="2.13505">
        <ele>138</ele>
        <time>2011-04-15T11:49:05Z</time>
      </trkpt>
      <trkpt lat="48.43649" lon="2.13507">
        <ele>138</ele>
        <time>2011-04-15T11:49:06Z</time>
      </trkpt>
      <trkpt lat="48.43648" lon="2.13509">
        <ele>138</ele>
        <time>2011-04-15T11:49:07Z</time>
      </trkpt>
      <trkpt lat="48.43646" lon="2.13511">
        <ele>138</ele>
        <time>2011-04-15T11:49:08Z</time>
      </trkpt>
      <trkpt lat="48.43645" lon="2.13513">
        <ele>138</ele>
        <time>2011-04-15T11:49:09Z</time>
      </trkpt>
      <trkpt lat="48.43644" lon="2.13515">
        <ele>138</ele>
        <time>2011-04-15T11:49:10Z</time>
      </trkpt>
      <trkpt lat="48.43643" lon="2.13517">
        <ele>138</ele>
        <time>2011-04-15T11:49:11Z</time>
      </trkpt>
      <trkpt lat="48.43642" lon="2.13519">
        <ele>138</ele>
        <time>2011-04-15T11:49:12Z</time>
      </trkpt>
      <trkpt lat="48.43641" lon="2.13521">
        <ele>138</ele>
        <time>2011-04-15T11:49:13Z</time>
      </trkpt>
      <trkpt lat="48.4364" lon="2.13523">
        <ele>138</ele>
        <time>2011-04-15T11:49:14Z</time>
      </trkpt>
      <trkpt lat="48.43639" lon="2.13525">
        <ele>138</ele>
        <time>2011-04-15T11:49:15Z</time>
      </trkpt>
      <trkpt lat="48.43638" lon="2.13527">
        <ele>138</ele>
        <time>2011-04-15T11:49:16Z</time>
      </trkpt>
      <trkpt lat="48.43637" lon="2.13528">
        <ele>138</ele>
        <time>2011-04-15T11:49:17Z</time>
      </trkpt>
      <trkpt lat="48.43636" lon="2.1353">
        <ele>138</ele>
        <time>2011-04-15T11:49:18Z</time>
      </trkpt>
      <trkpt lat="48.43635" lon="2.13532">
        <ele>138</ele>
        <time>2011-04-15T11:49:19Z</time>
      </trkpt>
      <trkpt lat="48.43633" lon="2.13534">
        <ele>138</ele>
        <time>2011-04-15T11:49:20Z</time>
      </trkpt>
      <trkpt lat="48.43632" lon="2.13536">
        <ele>138</ele>
        <time>2011-04-15T11:49:21Z</time>
      </trkpt>
      <trkpt lat="48.43631" lon="2.13538">
        <ele>138</ele>
        <time>2011-04-15T11:49:22Z</time>
      </trkpt>
      <trkpt lat="48.4363" lon="2.1354">
        <ele>138</ele>
        <time>2011-04-15T11:49:23Z</time>
      </trkpt>
      <trkpt lat="48.43629" lon="2.13541">
        <ele>138</ele>
        <time>2011-04-15T11:49:24Z</time>
      </trkpt>
      <trkpt lat="48.43628" lon="2.13543">
        <ele>138</ele>
        <time>2011-04-15T11:49:25Z</time>
      </trkpt>
      <trkpt lat="48.43627" lon="2.13545">
        <ele>138</ele>
        <time>2011-04-15T11:49:26Z</time>
      </trkpt>
      <trkpt lat="48.43625" lon="2.13546">
        <ele>138</ele>
        <time>2011-04-15T11:49:27Z</time>
      </trkpt>
      <trkpt lat="48.43624" lon="2.13548">
        <ele>138</ele>
        <time>2011-04-15T11:49:29Z</time>
      </trkpt>
      <trkpt lat="48.43622" lon="2.13551">
        <ele>138</ele>
        <time>2011-04-15T11:49:36Z</time>
      </trkpt>
      <trkpt lat="48.4362" lon="2.13554">
        <ele>138</ele>
        <time>2011-04-15T11:49:38Z</time>
      </trkpt>
      <trkpt lat="48.43618" lon="2.13557">
        <ele>138</ele>
        <time>2011-04-15T11:49:40Z</time>
      </trkpt>
      <trkpt lat="48.43617" lon="2.13558">
        <ele>138</ele>
        <time>2011-04-15T11:49:41Z</time>
      </trkpt>
      <trkpt lat="48.43616" lon="2.13559">
        <ele>138</ele>
        <time>2011-04-15T11:49:42Z</time>
      </trkpt>
      <trkpt lat="48.43615" lon="2.13561">
        <ele>138</ele>
        <time>2011-04-15T11:49:43Z</time>
      </trkpt>
      <trkpt lat="48.43613" lon="2.13563">
        <ele>138</ele>
        <time>2011-04-15T11:49:44Z</time>
      </trkpt>
      <trkpt lat="48.43612" lon="2.13565">
        <ele>138</ele>
        <time>2011-04-15T11:49:45Z</time>
      </trkpt>
      <trkpt lat="48.43611" lon="2.13567">
        <ele>138</ele>
        <time>2011-04-15T11:49:46Z</time>
      </trkpt>
      <trkpt lat="48.4361" lon="2.13569">
        <ele>138</ele>
        <time>2011-04-15T11:49:47Z</time>
      </trkpt>
      <trkpt lat="48.43608" lon="2.13572">
        <ele>138</ele>
        <time>2011-04-15T11:49:49Z</time>
      </trkpt>
      <trkpt lat="48.43607" lon="2.13574">
        <ele>138</ele>
        <time>2011-04-15T11:49:50Z</time>
      </trkpt>
      <trkpt lat="48.43605" lon="2.13576">
        <ele>138</ele>
        <time>2011-04-15T11:49:51Z</time>
      </trkpt>
      <trkpt lat="48.43604" lon="2.13577">
        <ele>138</ele>
        <time>2011-04-15T11:49:52Z</time>
      </trkpt>
      <trkpt lat="48.43603" lon="2.13579">
        <ele>138</ele>
        <time>2011-04-15T11:49:53Z</time>
      </trkpt>
      <trkpt lat="48.43602" lon="2.13581">
        <ele>138</ele>
        <time>2011-04-15T11:49:54Z</time>
      </trkpt>
      <trkpt lat="48.436" lon="2.13583">
        <ele>138</ele>
        <time>2011-04-15T11:49:55Z</time>
      </trkpt>
      <trkpt lat="48.43599" lon="2.13584">
        <ele>138</ele>
        <time>2011-04-15T11:49:56Z</time>
      </trkpt>
      <trkpt lat="48.43598" lon="2.13585">
        <ele>138</ele>
        <time>2011-04-15T11:49:57Z</time>
      </trkpt>
      <trkpt lat="48.43596" lon="2.13587">
        <ele>138</ele>
        <time>2011-04-15T11:49:58Z</time>
      </trkpt>
      <trkpt lat="48.43595" lon="2.13588">
        <ele>138</ele>
        <time>2011-04-15T11:49:59Z</time>
      </trkpt>
      <trkpt lat="48.43594" lon="2.1359">
        <ele>138</ele>
        <time>2011-04-15T11:50:00Z</time>
      </trkpt>
      <trkpt lat="48.43592" lon="2.13593">
        <ele>138</ele>
        <time>2011-04-15T11:50:02Z</time>
      </trkpt>
      <trkpt lat="48.4359" lon="2.13595">
        <ele>138</ele>
        <time>2011-04-15T11:50:04Z</time>
      </trkpt>
      <trkpt lat="48.43589" lon="2.13597">
        <ele>138</ele>
        <time>2011-04-15T11:50:05Z</time>
      </trkpt>
      <trkpt lat="48.43587" lon="2.13599">
        <ele>138</ele>
        <time>2011-04-15T11:50:06Z</time>
      </trkpt>
      <trkpt lat="48.43586" lon="2.136">
        <ele>138</ele>
        <time>2011-04-15T11:50:07Z</time>
      </trkpt>
      <trkpt lat="48.43585" lon="2.13601">
        <ele>137</ele>
        <time>2011-04-15T11:50:08Z</time>
      </trkpt>
      <trkpt lat="48.43584" lon="2.13602">
        <ele>137</ele>
        <time>2011-04-15T11:50:09Z</time>
      </trkpt>
      <trkpt lat="48.43582" lon="2.13605">
        <ele>137</ele>
        <time>2011-04-15T11:50:11Z</time>
      </trkpt>
      <trkpt lat="48.4358" lon="2.13607">
        <ele>137</ele>
        <time>2011-04-15T11:50:12Z</time>
      </trkpt>
      <trkpt lat="48.43579" lon="2.13609">
        <ele>137</ele>
        <time>2011-04-15T11:50:13Z</time>
      </trkpt>
      <trkpt lat="48.43577" lon="2.13612">
        <ele>137</ele>
        <time>2011-04-15T11:50:14Z</time>
      </trkpt>
      <trkpt lat="48.43576" lon="2.13613">
        <ele>137</ele>
        <time>2011-04-15T11:50:15Z</time>
      </trkpt>
      <trkpt lat="48.43575" lon="2.13615">
        <ele>137</ele>
        <time>2011-04-15T11:50:16Z</time>
      </trkpt>
      <trkpt lat="48.43573" lon="2.13618">
        <ele>137</ele>
        <time>2011-04-15T11:50:18Z</time>
      </trkpt>
      <trkpt lat="48.43571" lon="2.13619">
        <ele>137</ele>
        <time>2011-04-15T11:50:19Z</time>
      </trkpt>
      <trkpt lat="48.4357" lon="2.1362">
        <ele>137</ele>
        <time>2011-04-15T11:50:20Z</time>
      </trkpt>
      <trkpt lat="48.43569" lon="2.13622">
        <ele>137</ele>
        <time>2011-04-15T11:50:21Z</time>
      </trkpt>
      <trkpt lat="48.43567" lon="2.13624">
        <ele>137</ele>
        <time>2011-04-15T11:50:22Z</time>
      </trkpt>
      <trkpt lat="48.43565" lon="2.13626">
        <ele>137</ele>
        <time>2011-04-15T11:50:24Z</time>
      </trkpt>
      <trkpt lat="48.43564" lon="2.13627">
        <ele>137</ele>
        <time>2011-04-15T11:50:25Z</time>
      </trkpt>
      <trkpt lat="48.43563" lon="2.13629">
        <ele>137</ele>
        <time>2011-04-15T11:50:26Z</time>
      </trkpt>
      <trkpt lat="48.43562" lon="2.1363">
        <ele>137</ele>
        <time>2011-04-15T11:50:27Z</time>
      </trkpt>
      <trkpt lat="48.4356" lon="2.13632">
        <ele>137</ele>
        <time>2011-04-15T11:50:28Z</time>
      </trkpt>
      <trkpt lat="48.43559" lon="2.13633">
        <ele>137</ele>
        <time>2011-04-15T11:50:29Z</time>
      </trkpt>
      <trkpt lat="48.43558" lon="2.13635">
        <ele>137</ele>
        <time>2011-04-15T11:50:30Z</time>
      </trkpt>
      <trkpt lat="48.43556" lon="2.13639">
        <ele>137</ele>
        <time>2011-04-15T11:50:32Z</time>
      </trkpt>
      <trkpt lat="48.43553" lon="2.13641">
        <ele>137</ele>
        <time>2011-04-15T11:50:34Z</time>
      </trkpt>
      <trkpt lat="48.43552" lon="2.13643">
        <ele>137</ele>
        <time>2011-04-15T11:50:35Z</time>
      </trkpt>
      <trkpt lat="48.4355" lon="2.13646">
        <ele>137</ele>
        <time>2011-04-15T11:50:37Z</time>
      </trkpt>
      <trkpt lat="48.43549" lon="2.13648">
        <ele>137</ele>
        <time>2011-04-15T11:50:38Z</time>
      </trkpt>
      <trkpt lat="48.43547" lon="2.13649">
        <ele>137</ele>
        <time>2011-04-15T11:50:39Z</time>
      </trkpt>
      <trkpt lat="48.43546" lon="2.13651">
        <ele>137</ele>
        <time>2011-04-15T11:50:40Z</time>
      </trkpt>
      <trkpt lat="48.43545" lon="2.13654">
        <ele>137</ele>
        <time>2011-04-15T11:50:42Z</time>
      </trkpt>
      <trkpt lat="48.43544" lon="2.13656">
        <ele>137</ele>
        <time>2011-04-15T11:50:45Z</time>
      </trkpt>
      <trkpt lat="48.43543" lon="2.13657">
        <ele>137</ele>
        <time>2011-04-15T11:50:48Z</time>
      </trkpt>
      <trkpt lat="48.43543" lon="2.13659">
        <ele>137</ele>
        <time>2011-04-15T11:51:01Z</time>
      </trkpt>
      <trkpt lat="48.43542" lon="2.13661">
        <ele>137</ele>
        <time>2011-04-15T11:51:10Z</time>
      </trkpt>
      <trkpt lat="48.4354" lon="2.13663">
        <ele>137</ele>
        <time>2011-04-15T11:51:23Z</time>
      </trkpt>
      <trkpt lat="48.43538" lon="2.13663">
        <ele>137</ele>
        <time>2011-04-15T11:51:25Z</time>
      </trkpt>
      <trkpt lat="48.43536" lon="2.13661">
        <ele>137</ele>
        <time>2011-04-15T11:51:27Z</time>
      </trkpt>
      <trkpt lat="48.43535" lon="2.13658">
        <ele>137</ele>
        <time>2011-04-15T11:51:29Z</time>
      </trkpt>
      <trkpt lat="48.43535" lon="2.13656">
        <ele>137</ele>
        <time>2011-04-15T11:51:30Z</time>
      </trkpt>
      <trkpt lat="48.43536" lon="2.13655">
        <ele>137</ele>
        <time>2011-04-15T11:51:31Z</time>
      </trkpt>
      <trkpt lat="48.43535" lon="2.13653">
        <ele>137</ele>
        <time>2011-04-15T11:51:32Z</time>
      </trkpt>
      <trkpt lat="48.43535" lon="2.13651">
        <ele>137</ele>
        <time>2011-04-15T11:51:33Z</time>
      </trkpt>
      <trkpt lat="48.43535" lon="2.13649">
        <ele>137</ele>
        <time>2011-04-15T11:51:34Z</time>
      </trkpt>
      <trkpt lat="48.43534" lon="2.13647">
        <ele>137</ele>
        <time>2011-04-15T11:51:35Z</time>
      </trkpt>
      <trkpt lat="48.43534" lon="2.13645">
        <ele>137</ele>
        <time>2011-04-15T11:51:36Z</time>
      </trkpt>
      <trkpt lat="48.43533" lon="2.13643">
        <ele>137</ele>
        <time>2011-04-15T11:51:37Z</time>
      </trkpt>
      <trkpt lat="48.43533" lon="2.1364">
        <ele>137</ele>
        <time>2011-04-15T11:51:38Z</time>
      </trkpt>
      <trkpt lat="48.43532" lon="2.13638">
        <ele>137</ele>
        <time>2011-04-15T11:51:39Z</time>
      </trkpt>
      <trkpt lat="48.43532" lon="2.13636">
        <ele>137</ele>
        <time>2011-04-15T11:51:40Z</time>
      </trkpt>
      <trkpt lat="48.43531" lon="2.13634">
        <ele>137</ele>
        <time>2011-04-15T11:51:41Z</time>
      </trkpt>
      <trkpt lat="48.43531" lon="2.13632">
        <ele>137</ele>
        <time>2011-04-15T11:51:42Z</time>
      </trkpt>
      <trkpt lat="48.4353" lon="2.13629">
        <ele>137</ele>
        <time>2011-04-15T11:51:43Z</time>
      </trkpt>
      <trkpt lat="48.4353" lon="2.13627">
        <ele>137</ele>
        <time>2011-04-15T11:51:44Z</time>
      </trkpt>
      <trkpt lat="48.43529" lon="2.13625">
        <ele>137</ele>
        <time>2011-04-15T11:51:45Z</time>
      </trkpt>
      <trkpt lat="48.43529" lon="2.13622">
        <ele>137</ele>
        <time>2011-04-15T11:51:46Z</time>
      </trkpt>
      <trkpt lat="48.43528" lon="2.1362">
        <ele>137</ele>
        <time>2011-04-15T11:51:47Z</time>
      </trkpt>
      <trkpt lat="48.43527" lon="2.13618">
        <ele>137</ele>
        <time>2011-04-15T11:51:48Z</time>
      </trkpt>
      <trkpt lat="48.43527" lon="2.13615">
        <ele>137</ele>
        <time>2011-04-15T11:51:49Z</time>
      </trkpt>
      <trkpt lat="48.43526" lon="2.13613">
        <ele>137</ele>
        <time>2011-04-15T11:51:50Z</time>
      </trkpt>
      <trkpt lat="48.43526" lon="2.1361">
        <ele>137</ele>
        <time>2011-04-15T11:51:51Z</time>
      </trkpt>
      <trkpt lat="48.43525" lon="2.13608">
        <ele>137</ele>
        <time>2011-04-15T11:51:52Z</time>
      </trkpt>
      <trkpt lat="48.43525" lon="2.13606">
        <ele>137</ele>
        <time>2011-04-15T11:51:53Z</time>
      </trkpt>
      <trkpt lat="48.43524" lon="2.13604">
        <ele>137</ele>
        <time>2011-04-15T11:51:54Z</time>
      </trkpt>
      <trkpt lat="48.43524" lon="2.13601">
        <ele>137</ele>
        <time>2011-04-15T11:51:55Z</time>
      </trkpt>
      <trkpt lat="48.43523" lon="2.13599">
        <ele>137</ele>
        <time>2011-04-15T11:51:56Z</time>
      </trkpt>
      <trkpt lat="48.43523" lon="2.13597">
        <ele>137</ele>
        <time>2011-04-15T11:51:57Z</time>
      </trkpt>
      <trkpt lat="48.43522" lon="2.13595">
        <ele>137</ele>
        <time>2011-04-15T11:51:58Z</time>
      </trkpt>
      <trkpt lat="48.43522" lon="2.13592">
        <ele>137</ele>
        <time>2011-04-15T11:51:59Z</time>
      </trkpt>
      <trkpt lat="48.43521" lon="2.1359">
        <ele>137</ele>
        <time>2011-04-15T11:52:00Z</time>
      </trkpt>
      <trkpt lat="48.4352" lon="2.13587">
        <ele>137</ele>
        <time>2011-04-15T11:52:01Z</time>
      </trkpt>
      <trkpt lat="48.43519" lon="2.13584">
        <ele>137</ele>
        <time>2011-04-15T11:52:02Z</time>
      </trkpt>
      <trkpt lat="48.43518" lon="2.13581">
        <ele>137</ele>
        <time>2011-04-15T11:52:03Z</time>
      </trkpt>
      <trkpt lat="48.43518" lon="2.13578">
        <ele>137</ele>
        <time>2011-04-15T11:52:04Z</time>
      </trkpt>
      <trkpt lat="48.43517" lon="2.13575">
        <ele>137</ele>
        <time>2011-04-15T11:52:05Z</time>
      </trkpt>
      <trkpt lat="48.43517" lon="2.13573">
        <ele>137</ele>
        <time>2011-04-15T11:52:06Z</time>
      </trkpt>
      <trkpt lat="48.43516" lon="2.1357">
        <ele>137</ele>
        <time>2011-04-15T11:52:07Z</time>
      </trkpt>
      <trkpt lat="48.43515" lon="2.13568">
        <ele>137</ele>
        <time>2011-04-15T11:52:08Z</time>
      </trkpt>
      <trkpt lat="48.43515" lon="2.13566">
        <ele>137</ele>
        <time>2011-04-15T11:52:09Z</time>
      </trkpt>
      <trkpt lat="48.43514" lon="2.13563">
        <ele>137</ele>
        <time>2011-04-15T11:52:10Z</time>
      </trkpt>
      <trkpt lat="48.43513" lon="2.1356">
        <ele>137</ele>
        <time>2011-04-15T11:52:11Z</time>
      </trkpt>
      <trkpt lat="48.43513" lon="2.13558">
        <ele>137</ele>
        <time>2011-04-15T11:52:12Z</time>
      </trkpt>
      <trkpt lat="48.43512" lon="2.13556">
        <ele>137</ele>
        <time>2011-04-15T11:52:13Z</time>
      </trkpt>
      <trkpt lat="48.43511" lon="2.13554">
        <ele>137</ele>
        <time>2011-04-15T11:52:14Z</time>
      </trkpt>
      <trkpt lat="48.43511" lon="2.13552">
        <ele>137</ele>
        <time>2011-04-15T11:52:15Z</time>
      </trkpt>
      <trkpt lat="48.4351" lon="2.13549">
        <ele>137</ele>
        <time>2011-04-15T11:52:16Z</time>
      </trkpt>
      <trkpt lat="48.43509" lon="2.13547">
        <ele>137</ele>
        <time>2011-04-15T11:52:17Z</time>
      </trkpt>
      <trkpt lat="48.43509" lon="2.13544">
        <ele>137</ele>
        <time>2011-04-15T11:52:18Z</time>
      </trkpt>
      <trkpt lat="48.43508" lon="2.13542">
        <ele>137</ele>
        <time>2011-04-15T11:52:19Z</time>
      </trkpt>
      <trkpt lat="48.43507" lon="2.13539">
        <ele>137</ele>
        <time>2011-04-15T11:52:20Z</time>
      </trkpt>
      <trkpt lat="48.43507" lon="2.13537">
        <ele>137</ele>
        <time>2011-04-15T11:52:21Z</time>
      </trkpt>
      <trkpt lat="48.43506" lon="2.13534">
        <ele>137</ele>
        <time>2011-04-15T11:52:22Z</time>
      </trkpt>
      <trkpt lat="48.43506" lon="2.13532">
        <ele>137</ele>
        <time>2011-04-15T11:52:23Z</time>
      </trkpt>
      <trkpt lat="48.43505" lon="2.13529">
        <ele>137</ele>
        <time>2011-04-15T11:52:24Z</time>
      </trkpt>
      <trkpt lat="48.43504" lon="2.13527">
        <ele>137</ele>
        <time>2011-04-15T11:52:25Z</time>
      </trkpt>
      <trkpt lat="48.43503" lon="2.13524">
        <ele>137</ele>
        <time>2011-04-15T11:52:26Z</time>
      </trkpt>
      <trkpt lat="48.43502" lon="2.13522">
        <ele>137</ele>
        <time>2011-04-15T11:52:27Z</time>
      </trkpt>
      <trkpt lat="48.43501" lon="2.13519">
        <ele>137</ele>
        <time>2011-04-15T11:52:28Z</time>
      </trkpt>
      <trkpt lat="48.435" lon="2.13517">
        <ele>137</ele>
        <time>2011-04-15T11:52:29Z</time>
      </trkpt>
      <trkpt lat="48.435" lon="2.13515">
        <ele>137</ele>
        <time>2011-04-15T11:52:30Z</time>
      </trkpt>
      <trkpt lat="48.43499" lon="2.13513">
        <ele>137</ele>
        <time>2011-04-15T11:52:31Z</time>
      </trkpt>
      <trkpt lat="48.43498" lon="2.1351">
        <ele>137</ele>
        <time>2011-04-15T11:52:32Z</time>
      </trkpt>
      <trkpt lat="48.43498" lon="2.13508">
        <ele>137</ele>
        <time>2011-04-15T11:52:33Z</time>
      </trkpt>
      <trkpt lat="48.43497" lon="2.13506">
        <ele>137</ele>
        <time>2011-04-15T11:52:34Z</time>
      </trkpt>
      <trkpt lat="48.43497" lon="2.13504">
        <ele>137</ele>
        <time>2011-04-15T11:52:35Z</time>
      </trkpt>
      <trkpt lat="48.43496" lon="2.13502">
        <ele>137</ele>
        <time>2011-04-15T11:52:36Z</time>
      </trkpt>
      <trkpt lat="48.43495" lon="2.135">
        <ele>137</ele>
        <time>2011-04-15T11:52:37Z</time>
      </trkpt>
      <trkpt lat="48.43495" lon="2.13498">
        <ele>137</ele>
        <time>2011-04-15T11:52:38Z</time>
      </trkpt>
      <trkpt lat="48.43494" lon="2.13496">
        <ele>137</ele>
        <time>2011-04-15T11:52:39Z</time>
      </trkpt>
      <trkpt lat="48.43493" lon="2.13494">
        <ele>137</ele>
        <time>2011-04-15T11:52:40Z</time>
      </trkpt>
      <trkpt lat="48.43493" lon="2.13492">
        <ele>137</ele>
        <time>2011-04-15T11:52:41Z</time>
      </trkpt>
      <trkpt lat="48.43492" lon="2.1349">
        <ele>137</ele>
        <time>2011-04-15T11:52:42Z</time>
      </trkpt>
      <trkpt lat="48.43491" lon="2.13487">
        <ele>137</ele>
        <time>2011-04-15T11:52:43Z</time>
      </trkpt>
      <trkpt lat="48.4349" lon="2.13485">
        <ele>137</ele>
        <time>2011-04-15T11:52:44Z</time>
      </trkpt>
      <trkpt lat="48.43489" lon="2.13482">
        <ele>137</ele>
        <time>2011-04-15T11:52:45Z</time>
      </trkpt>
      <trkpt lat="48.43488" lon="2.1348">
        <ele>137</ele>
        <time>2011-04-15T11:52:46Z</time>
      </trkpt>
      <trkpt lat="48.43487" lon="2.13478">
        <ele>137</ele>
        <time>2011-04-15T11:52:47Z</time>
      </trkpt>
      <trkpt lat="48.43486" lon="2.13476">
        <ele>137</ele>
        <time>2011-04-15T11:52:48Z</time>
      </trkpt>
      <trkpt lat="48.43486" lon="2.13474">
        <ele>137</ele>
        <time>2011-04-15T11:52:49Z</time>
      </trkpt>
      <trkpt lat="48.43485" lon="2.13472">
        <ele>137</ele>
        <time>2011-04-15T11:52:50Z</time>
      </trkpt>
      <trkpt lat="48.43484" lon="2.1347">
        <ele>137</ele>
        <time>2011-04-15T11:52:51Z</time>
      </trkpt>
      <trkpt lat="48.43483" lon="2.13468">
        <ele>137</ele>
        <time>2011-04-15T11:52:52Z</time>
      </trkpt>
      <trkpt lat="48.43483" lon="2.13466">
        <ele>137</ele>
        <time>2011-04-15T11:52:53Z</time>
      </trkpt>
      <trkpt lat="48.43482" lon="2.13464">
        <ele>137</ele>
        <time>2011-04-15T11:52:54Z</time>
      </trkpt>
      <trkpt lat="48.43481" lon="2.13462">
        <ele>137</ele>
        <time>2011-04-15T11:52:55Z</time>
      </trkpt>
      <trkpt lat="48.43481" lon="2.1346">
        <ele>137</ele>
        <time>2011-04-15T11:52:56Z</time>
      </trkpt>
      <trkpt lat="48.4348" lon="2.13458">
        <ele>137</ele>
        <time>2011-04-15T11:52:57Z</time>
      </trkpt>
      <trkpt lat="48.43479" lon="2.13456">
        <ele>137</ele>
        <time>2011-04-15T11:52:58Z</time>
      </trkpt>
      <trkpt lat="48.43478" lon="2.13454">
        <ele>137</ele>
        <time>2011-04-15T11:52:59Z</time>
      </trkpt>
      <trkpt lat="48.43477" lon="2.13453">
        <ele>137</ele>
        <time>2011-04-15T11:53:00Z</time>
      </trkpt>
      <trkpt lat="48.43476" lon="2.13451">
        <ele>137</ele>
        <time>2011-04-15T11:53:01Z</time>
      </trkpt>
      <trkpt lat="48.43475" lon="2.13449">
        <ele>137</ele>
        <time>2011-04-15T11:53:02Z</time>
      </trkpt>
      <trkpt lat="48.43474" lon="2.13447">
        <ele>137</ele>
        <time>2011-04-15T11:53:03Z</time>
      </trkpt>
      <trkpt lat="48.43474" lon="2.13445">
        <ele>137</ele>
        <time>2011-04-15T11:53:04Z</time>
      </trkpt>
      <trkpt lat="48.43473" lon="2.13443">
        <ele>137</ele>
        <time>2011-04-15T11:53:05Z</time>
      </trkpt>
      <trkpt lat="48.43472" lon="2.13441">
        <ele>137</ele>
        <time>2011-04-15T11:53:06Z</time>
      </trkpt>
      <trkpt lat="48.43471" lon="2.13439">
        <ele>137</ele>
        <time>2011-04-15T11:53:07Z</time>
      </trkpt>
      <trkpt lat="48.4347" lon="2.13437">
        <ele>137</ele>
        <time>2011-04-15T11:53:08Z</time>
      </trkpt>
      <trkpt lat="48.4347" lon="2.13435">
        <ele>137</ele>
        <time>2011-04-15T11:53:09Z</time>
      </trkpt>
      <trkpt lat="48.43469" lon="2.13434">
        <ele>137</ele>
        <time>2011-04-15T11:53:10Z</time>
      </trkpt>
      <trkpt lat="48.43468" lon="2.13432">
        <ele>137</ele>
        <time>2011-04-15T11:53:11Z</time>
      </trkpt>
      <trkpt lat="48.43466" lon="2.13429">
        <ele>137</ele>
        <time>2011-04-15T11:53:13Z</time>
      </trkpt>
      <trkpt lat="48.43465" lon="2.13427">
        <ele>137</ele>
        <time>2011-04-15T11:53:14Z</time>
      </trkpt>
      <trkpt lat="48.43465" lon="2.13425">
        <ele>137</ele>
        <time>2011-04-15T11:53:15Z</time>
      </trkpt>
      <trkpt lat="48.43464" lon="2.13423">
        <ele>137</ele>
        <time>2011-04-15T11:53:16Z</time>
      </trkpt>
      <trkpt lat="48.43463" lon="2.13421">
        <ele>137</ele>
        <time>2011-04-15T11:53:17Z</time>
      </trkpt>
      <trkpt lat="48.43462" lon="2.13419">
        <ele>137</ele>
        <time>2011-04-15T11:53:18Z</time>
      </trkpt>
      <trkpt lat="48.43462" lon="2.13417">
        <ele>137</ele>
        <time>2011-04-15T11:53:19Z</time>
      </trkpt>
      <trkpt lat="48.43461" lon="2.13415">
        <ele>137</ele>
        <time>2011-04-15T11:53:20Z</time>
      </trkpt>
      <trkpt lat="48.4346" lon="2.13413">
        <ele>137</ele>
        <time>2011-04-15T11:53:21Z</time>
      </trkpt>
      <trkpt lat="48.43459" lon="2.13411">
        <ele>137</ele>
        <time>2011-04-15T11:53:22Z</time>
      </trkpt>
      <trkpt lat="48.43459" lon="2.13409">
        <ele>137</ele>
        <time>2011-04-15T11:53:23Z</time>
      </trkpt>
      <trkpt lat="48.43458" lon="2.13406">
        <ele>137</ele>
        <time>2011-04-15T11:53:24Z</time>
      </trkpt>
      <trkpt lat="48.43457" lon="2.13404">
        <ele>137</ele>
        <time>2011-04-15T11:53:25Z</time>
      </trkpt>
      <trkpt lat="48.43456" lon="2.13402">
        <ele>137</ele>
        <time>2011-04-15T11:53:26Z</time>
      </trkpt>
      <trkpt lat="48.43455" lon="2.134">
        <ele>137</ele>
        <time>2011-04-15T11:53:27Z</time>
      </trkpt>
      <trkpt lat="48.43455" lon="2.13398">
        <ele>137</ele>
        <time>2011-04-15T11:53:28Z</time>
      </trkpt>
      <trkpt lat="48.43454" lon="2.13396">
        <ele>137</ele>
        <time>2011-04-15T11:53:29Z</time>
      </trkpt>
      <trkpt lat="48.43453" lon="2.13394">
        <ele>137</ele>
        <time>2011-04-15T11:53:30Z</time>
      </trkpt>
      <trkpt lat="48.43452" lon="2.13392">
        <ele>137</ele>
        <time>2011-04-15T11:53:31Z</time>
      </trkpt>
      <trkpt lat="48.43451" lon="2.13389">
        <ele>137</ele>
        <time>2011-04-15T11:53:32Z</time>
      </trkpt>
      <trkpt lat="48.4345" lon="2.13386">
        <ele>137</ele>
        <time>2011-04-15T11:53:33Z</time>
      </trkpt>
      <trkpt lat="48.43449" lon="2.13383">
        <ele>137</ele>
        <time>2011-04-15T11:53:34Z</time>
      </trkpt>
      <trkpt lat="48.43448" lon="2.1338">
        <ele>137</ele>
        <time>2011-04-15T11:53:35Z</time>
      </trkpt>
      <trkpt lat="48.43447" lon="2.13377">
        <ele>137</ele>
        <time>2011-04-15T11:53:36Z</time>
      </trkpt>
      <trkpt lat="48.43446" lon="2.13375">
        <ele>137</ele>
        <time>2011-04-15T11:53:37Z</time>
      </trkpt>
      <trkpt lat="48.43445" lon="2.13372">
        <ele>137</ele>
        <time>2011-04-15T11:53:38Z</time>
      </trkpt>
      <trkpt lat="48.43444" lon="2.1337">
        <ele>137</ele>
        <time>2011-04-15T11:53:39Z</time>
      </trkpt>
      <trkpt lat="48.43443" lon="2.13367">
        <ele>137</ele>
        <time>2011-04-15T11:53:40Z</time>
      </trkpt>
      <trkpt lat="48.43442" lon="2.13365">
        <ele>137</ele>
        <time>2011-04-15T11:53:41Z</time>
      </trkpt>
      <trkpt lat="48.43441" lon="2.13363">
        <ele>137</ele>
        <time>2011-04-15T11:53:42Z</time>
      </trkpt>
      <trkpt lat="48.43441" lon="2.1336">
        <ele>137</ele>
        <time>2011-04-15T11:53:43Z</time>
      </trkpt>
      <trkpt lat="48.4344" lon="2.13359">
        <ele>137</ele>
        <time>2011-04-15T11:53:44Z</time>
      </trkpt>
      <trkpt lat="48.43439" lon="2.13357">
        <ele>137</ele>
        <time>2011-04-15T11:53:45Z</time>
      </trkpt>
      <trkpt lat="48.43439" lon="2.13355">
        <ele>137</ele>
        <time>2011-04-15T11:53:46Z</time>
      </trkpt>
      <trkpt lat="48.43438" lon="2.13353">
        <ele>137</ele>
        <time>2011-04-15T11:53:47Z</time>
      </trkpt>
      <trkpt lat="48.43438" lon="2.13351">
        <ele>137</ele>
        <time>2011-04-15T11:53:48Z</time>
      </trkpt>
      <trkpt lat="48.43437" lon="2.13349">
        <ele>137</ele>
        <time>2011-04-15T11:53:49Z</time>
      </trkpt>
      <trkpt lat="48.43437" lon="2.13347">
        <ele>137</ele>
        <time>2011-04-15T11:53:50Z</time>
      </trkpt>
      <trkpt lat="48.43436" lon="2.13345">
        <ele>137</ele>
        <time>2011-04-15T11:53:51Z</time>
      </trkpt>
      <trkpt lat="48.43435" lon="2.13343">
        <ele>137</ele>
        <time>2011-04-15T11:53:52Z</time>
      </trkpt>
      <trkpt lat="48.43435" lon="2.13341">
        <ele>137</ele>
        <time>2011-04-15T11:53:53Z</time>
      </trkpt>
      <trkpt lat="48.43434" lon="2.13339">
        <ele>137</ele>
        <time>2011-04-15T11:53:54Z</time>
      </trkpt>
      <trkpt lat="48.43434" lon="2.13337">
        <ele>137</ele>
        <time>2011-04-15T11:53:55Z</time>
      </trkpt>
      <trkpt lat="48.43433" lon="2.13335">
        <ele>137</ele>
        <time>2011-04-15T11:53:56Z</time>
      </trkpt>
      <trkpt lat="48.43432" lon="2.13332">
        <ele>137</ele>
        <time>2011-04-15T11:53:57Z</time>
      </trkpt>
      <trkpt lat="48.43431" lon="2.13329">
        <ele>137</ele>
        <time>2011-04-15T11:53:58Z</time>
      </trkpt>
      <trkpt lat="48.43431" lon="2.13327">
        <ele>137</ele>
        <time>2011-04-15T11:53:59Z</time>
      </trkpt>
      <trkpt lat="48.4343" lon="2.13324">
        <ele>137</ele>
        <time>2011-04-15T11:54:00Z</time>
      </trkpt>
      <trkpt lat="48.43429" lon="2.13322">
        <ele>137</ele>
        <time>2011-04-15T11:54:01Z</time>
      </trkpt>
      <trkpt lat="48.43429" lon="2.13321">
        <ele>137</ele>
        <time>2011-04-15T11:54:02Z</time>
      </trkpt>
      <trkpt lat="48.43428" lon="2.13317">
        <ele>137</ele>
        <time>2011-04-15T11:54:04Z</time>
      </trkpt>
      <trkpt lat="48.43427" lon="2.13316">
        <ele>137</ele>
        <time>2011-04-15T11:54:05Z</time>
      </trkpt>
      <trkpt lat="48.43426" lon="2.13314">
        <ele>137</ele>
        <time>2011-04-15T11:54:06Z</time>
      </trkpt>
      <trkpt lat="48.43426" lon="2.13312">
        <ele>137</ele>
        <time>2011-04-15T11:54:07Z</time>
      </trkpt>
      <trkpt lat="48.43425" lon="2.1331">
        <ele>137</ele>
        <time>2011-04-15T11:54:08Z</time>
      </trkpt>
      <trkpt lat="48.43425" lon="2.13307">
        <ele>137</ele>
        <time>2011-04-15T11:54:09Z</time>
      </trkpt>
      <trkpt lat="48.43424" lon="2.13305">
        <ele>137</ele>
        <time>2011-04-15T11:54:10Z</time>
      </trkpt>
      <trkpt lat="48.43423" lon="2.13302">
        <ele>137</ele>
        <time>2011-04-15T11:54:11Z</time>
      </trkpt>
      <trkpt lat="48.43422" lon="2.13299">
        <ele>137</ele>
        <time>2011-04-15T11:54:12Z</time>
      </trkpt>
      <trkpt lat="48.43421" lon="2.13297">
        <ele>137</ele>
        <time>2011-04-15T11:54:13Z</time>
      </trkpt>
      <trkpt lat="48.43421" lon="2.13295">
        <ele>137</ele>
        <time>2011-04-15T11:54:14Z</time>
      </trkpt>
      <trkpt lat="48.4342" lon="2.13291">
        <ele>137</ele>
        <time>2011-04-15T11:54:16Z</time>
      </trkpt>
      <trkpt lat="48.43419" lon="2.13289">
        <ele>137</ele>
        <time>2011-04-15T11:54:17Z</time>
      </trkpt>
      <trkpt lat="48.43419" lon="2.13288">
        <ele>137</ele>
        <time>2011-04-15T11:54:18Z</time>
      </trkpt>
      <trkpt lat="48.43418" lon="2.13284">
        <ele>137</ele>
        <time>2011-04-15T11:54:20Z</time>
      </trkpt>
      <trkpt lat="48.43418" lon="2.13283">
        <ele>137</ele>
        <time>2011-04-15T11:54:21Z</time>
      </trkpt>
      <trkpt lat="48.43417" lon="2.13281">
        <ele>137</ele>
        <time>2011-04-15T11:54:22Z</time>
      </trkpt>
      <trkpt lat="48.43416" lon="2.13278">
        <ele>137</ele>
        <time>2011-04-15T11:54:24Z</time>
      </trkpt>
      <trkpt lat="48.43416" lon="2.13276">
        <ele>137</ele>
        <time>2011-04-15T11:54:25Z</time>
      </trkpt>
      <trkpt lat="48.43415" lon="2.13274">
        <ele>137</ele>
        <time>2011-04-15T11:54:26Z</time>
      </trkpt>
      <trkpt lat="48.43415" lon="2.13272">
        <ele>137</ele>
        <time>2011-04-15T11:54:27Z</time>
      </trkpt>
      <trkpt lat="48.43414" lon="2.1327">
        <ele>137</ele>
        <time>2011-04-15T11:54:28Z</time>
      </trkpt>
      <trkpt lat="48.43414" lon="2.13268">
        <ele>137</ele>
        <time>2011-04-15T11:54:29Z</time>
      </trkpt>
      <trkpt lat="48.43413" lon="2.13266">
        <ele>137</ele>
        <time>2011-04-15T11:54:30Z</time>
      </trkpt>
      <trkpt lat="48.43412" lon="2.13264">
        <ele>137</ele>
        <time>2011-04-15T11:54:31Z</time>
      </trkpt>
      <trkpt lat="48.43411" lon="2.13262">
        <ele>137</ele>
        <time>2011-04-15T11:54:32Z</time>
      </trkpt>
      <trkpt lat="48.43411" lon="2.1326">
        <ele>137</ele>
        <time>2011-04-15T11:54:33Z</time>
      </trkpt>
      <trkpt lat="48.4341" lon="2.13258">
        <ele>137</ele>
        <time>2011-04-15T11:54:34Z</time>
      </trkpt>
      <trkpt lat="48.43409" lon="2.13256">
        <ele>137</ele>
        <time>2011-04-15T11:54:35Z</time>
      </trkpt>
      <trkpt lat="48.43408" lon="2.13254">
        <ele>137</ele>
        <time>2011-04-15T11:54:36Z</time>
      </trkpt>
      <trkpt lat="48.43408" lon="2.13252">
        <ele>137</ele>
        <time>2011-04-15T11:54:37Z</time>
      </trkpt>
      <trkpt lat="48.43407" lon="2.1325">
        <ele>137</ele>
        <time>2011-04-15T11:54:38Z</time>
      </trkpt>
      <trkpt lat="48.43406" lon="2.13248">
        <ele>137</ele>
        <time>2011-04-15T11:54:39Z</time>
      </trkpt>
      <trkpt lat="48.43406" lon="2.13246">
        <ele>137</ele>
        <time>2011-04-15T11:54:40Z</time>
      </trkpt>
      <trkpt lat="48.43405" lon="2.13244">
        <ele>137</ele>
        <time>2011-04-15T11:54:41Z</time>
      </trkpt>
      <trkpt lat="48.43405" lon="2.13242">
        <ele>137</ele>
        <time>2011-04-15T11:54:42Z</time>
      </trkpt>
      <trkpt lat="48.43404" lon="2.1324">
        <ele>137</ele>
        <time>2011-04-15T11:54:43Z</time>
      </trkpt>
      <trkpt lat="48.43403" lon="2.13237">
        <ele>137</ele>
        <time>2011-04-15T11:54:44Z</time>
      </trkpt>
      <trkpt lat="48.43402" lon="2.13234">
        <ele>137</ele>
        <time>2011-04-15T11:54:45Z</time>
      </trkpt>
      <trkpt lat="48.43401" lon="2.13231">
        <ele>137</ele>
        <time>2011-04-15T11:54:46Z</time>
      </trkpt>
      <trkpt lat="48.434" lon="2.13228">
        <ele>137</ele>
        <time>2011-04-15T11:54:47Z</time>
      </trkpt>
      <trkpt lat="48.43398" lon="2.13224">
        <ele>137</ele>
        <time>2011-04-15T11:54:48Z</time>
      </trkpt>
      <trkpt lat="48.43397" lon="2.13221">
        <ele>137</ele>
        <time>2011-04-15T11:54:49Z</time>
      </trkpt>
      <trkpt lat="48.43396" lon="2.13219">
        <ele>137</ele>
        <time>2011-04-15T11:54:50Z</time>
      </trkpt>
      <trkpt lat="48.43395" lon="2.13216">
        <ele>137</ele>
        <time>2011-04-15T11:54:51Z</time>
      </trkpt>
      <trkpt lat="48.43394" lon="2.13214">
        <ele>137</ele>
        <time>2011-04-15T11:54:52Z</time>
      </trkpt>
      <trkpt lat="48.43394" lon="2.13212">
        <ele>137</ele>
        <time>2011-04-15T11:54:53Z</time>
      </trkpt>
      <trkpt lat="48.43393" lon="2.1321">
        <ele>137</ele>
        <time>2011-04-15T11:54:54Z</time>
      </trkpt>
      <trkpt lat="48.43392" lon="2.13207">
        <ele>137</ele>
        <time>2011-04-15T11:54:55Z</time>
      </trkpt>
      <trkpt lat="48.43392" lon="2.13206">
        <ele>137</ele>
        <time>2011-04-15T11:54:56Z</time>
      </trkpt>
      <trkpt lat="48.43391" lon="2.13204">
        <ele>137</ele>
        <time>2011-04-15T11:54:57Z</time>
      </trkpt>
      <trkpt lat="48.43391" lon="2.13202">
        <ele>137</ele>
        <time>2011-04-15T11:54:58Z</time>
      </trkpt>
      <trkpt lat="48.4339" lon="2.132">
        <ele>137</ele>
        <time>2011-04-15T11:54:59Z</time>
      </trkpt>
      <trkpt lat="48.43389" lon="2.13198">
        <ele>137</ele>
        <time>2011-04-15T11:55:00Z</time>
      </trkpt>
      <trkpt lat="48.43389" lon="2.13196">
        <ele>137</ele>
        <time>2011-04-15T11:55:01Z</time>
      </trkpt>
      <trkpt lat="48.43388" lon="2.13194">
        <ele>137</ele>
        <time>2011-04-15T11:55:02Z</time>
      </trkpt>
      <trkpt lat="48.43388" lon="2.13192">
        <ele>137</ele>
        <time>2011-04-15T11:55:03Z</time>
      </trkpt>
      <trkpt lat="48.43387" lon="2.1319">
        <ele>137</ele>
        <time>2011-04-15T11:55:04Z</time>
      </trkpt>
      <trkpt lat="48.43386" lon="2.13187">
        <ele>137</ele>
        <time>2011-04-15T11:55:05Z</time>
      </trkpt>
      <trkpt lat="48.43386" lon="2.13183">
        <ele>137</ele>
        <time>2011-04-15T11:55:06Z</time>
      </trkpt>
      <trkpt lat="48.43385" lon="2.1318">
        <ele>137</ele>
        <time>2011-04-15T11:55:07Z</time>
      </trkpt>
      <trkpt lat="48.43384" lon="2.13177">
        <ele>137</ele>
        <time>2011-04-15T11:55:08Z</time>
      </trkpt>
      <trkpt lat="48.43383" lon="2.13174">
        <ele>137</ele>
        <time>2011-04-15T11:55:09Z</time>
      </trkpt>
      <trkpt lat="48.43383" lon="2.13172">
        <ele>137</ele>
        <time>2011-04-15T11:55:10Z</time>
      </trkpt>
      <trkpt lat="48.43382" lon="2.13169">
        <ele>137</ele>
        <time>2011-04-15T11:55:11Z</time>
      </trkpt>
      <trkpt lat="48.43381" lon="2.13167">
        <ele>137</ele>
        <time>2011-04-15T11:55:12Z</time>
      </trkpt>
      <trkpt lat="48.43381" lon="2.13165">
        <ele>137</ele>
        <time>2011-04-15T11:55:13Z</time>
      </trkpt>
      <trkpt lat="48.4338" lon="2.13162">
        <ele>137</ele>
        <time>2011-04-15T11:55:14Z</time>
      </trkpt>
      <trkpt lat="48.4338" lon="2.1316">
        <ele>137</ele>
        <time>2011-04-15T11:55:15Z</time>
      </trkpt>
      <trkpt lat="48.43379" lon="2.13158">
        <ele>137</ele>
        <time>2011-04-15T11:55:16Z</time>
      </trkpt>
      <trkpt lat="48.43379" lon="2.13156">
        <ele>137</ele>
        <time>2011-04-15T11:55:17Z</time>
      </trkpt>
      <trkpt lat="48.43379" lon="2.13155">
        <ele>137</ele>
        <time>2011-04-15T11:55:18Z</time>
      </trkpt>
      <trkpt lat="48.43378" lon="2.13153">
        <ele>137</ele>
        <time>2011-04-15T11:55:19Z</time>
      </trkpt>
      <trkpt lat="48.43377" lon="2.1315">
        <ele>137</ele>
        <time>2011-04-15T11:55:20Z</time>
      </trkpt>
      <trkpt lat="48.43377" lon="2.13147">
        <ele>137</ele>
        <time>2011-04-15T11:55:21Z</time>
      </trkpt>
      <trkpt lat="48.43376" lon="2.13144">
        <ele>137</ele>
        <time>2011-04-15T11:55:22Z</time>
      </trkpt>
      <trkpt lat="48.43375" lon="2.13142">
        <ele>137</ele>
        <time>2011-04-15T11:55:23Z</time>
      </trkpt>
      <trkpt lat="48.43374" lon="2.1314">
        <ele>137</ele>
        <time>2011-04-15T11:55:24Z</time>
      </trkpt>
      <trkpt lat="48.43374" lon="2.13138">
        <ele>137</ele>
        <time>2011-04-15T11:55:25Z</time>
      </trkpt>
      <trkpt lat="48.43373" lon="2.13136">
        <ele>137</ele>
        <time>2011-04-15T11:55:26Z</time>
      </trkpt>
      <trkpt lat="48.43373" lon="2.13134">
        <ele>137</ele>
        <time>2011-04-15T11:55:27Z</time>
      </trkpt>
      <trkpt lat="48.43372" lon="2.13132">
        <ele>137</ele>
        <time>2011-04-15T11:55:28Z</time>
      </trkpt>
      <trkpt lat="48.43371" lon="2.1313">
        <ele>138</ele>
        <time>2011-04-15T11:55:29Z</time>
      </trkpt>
      <trkpt lat="48.43371" lon="2.13127">
        <ele>138</ele>
        <time>2011-04-15T11:55:30Z</time>
      </trkpt>
      <trkpt lat="48.4337" lon="2.13124">
        <ele>138</ele>
        <time>2011-04-15T11:55:31Z</time>
      </trkpt>
      <trkpt lat="48.43369" lon="2.1312">
        <ele>138</ele>
        <time>2011-04-15T11:55:32Z</time>
      </trkpt>
      <trkpt lat="48.43369" lon="2.13117">
        <ele>139</ele>
        <time>2011-04-15T11:55:33Z</time>
      </trkpt>
      <trkpt lat="48.43368" lon="2.13115">
        <ele>139</ele>
        <time>2011-04-15T11:55:34Z</time>
      </trkpt>
      <trkpt lat="48.43368" lon="2.13113">
        <ele>139</ele>
        <time>2011-04-15T11:55:35Z</time>
      </trkpt>
      <trkpt lat="48.43367" lon="2.1311">
        <ele>139</ele>
        <time>2011-04-15T11:55:36Z</time>
      </trkpt>
      <trkpt lat="48.43367" lon="2.13108">
        <ele>139</ele>
        <time>2011-04-15T11:55:37Z</time>
      </trkpt>
      <trkpt lat="48.43366" lon="2.13106">
        <ele>139</ele>
        <time>2011-04-15T11:55:38Z</time>
      </trkpt>
      <trkpt lat="48.43366" lon="2.13104">
        <ele>139</ele>
        <time>2011-04-15T11:55:39Z</time>
      </trkpt>
      <trkpt lat="48.43365" lon="2.13102">
        <ele>139</ele>
        <time>2011-04-15T11:55:40Z</time>
      </trkpt>
      <trkpt lat="48.43365" lon="2.131">
        <ele>139</ele>
        <time>2011-04-15T11:55:41Z</time>
      </trkpt>
      <trkpt lat="48.43364" lon="2.13098">
        <ele>139</ele>
        <time>2011-04-15T11:55:42Z</time>
      </trkpt>
      <trkpt lat="48.43364" lon="2.13096">
        <ele>139</ele>
        <time>2011-04-15T11:55:43Z</time>
      </trkpt>
      <trkpt lat="48.43363" lon="2.13094">
        <ele>139</ele>
        <time>2011-04-15T11:55:44Z</time>
      </trkpt>
      <trkpt lat="48.43363" lon="2.13091">
        <ele>139</ele>
        <time>2011-04-15T11:55:45Z</time>
      </trkpt>
      <trkpt lat="48.43362" lon="2.13089">
        <ele>139</ele>
        <time>2011-04-15T11:55:46Z</time>
      </trkpt>
      <trkpt lat="48.43361" lon="2.13087">
        <ele>139</ele>
        <time>2011-04-15T11:55:47Z</time>
      </trkpt>
      <trkpt lat="48.43361" lon="2.13085">
        <ele>139</ele>
        <time>2011-04-15T11:55:48Z</time>
      </trkpt>
      <trkpt lat="48.4336" lon="2.13083">
        <ele>139</ele>
        <time>2011-04-15T11:55:49Z</time>
      </trkpt>
      <trkpt lat="48.4336" lon="2.1308">
        <ele>139</ele>
        <time>2011-04-15T11:55:50Z</time>
      </trkpt>
      <trkpt lat="48.43359" lon="2.13078">
        <ele>139</ele>
        <time>2011-04-15T11:55:51Z</time>
      </trkpt>
      <trkpt lat="48.43358" lon="2.13076">
        <ele>139</ele>
        <time>2011-04-15T11:55:52Z</time>
      </trkpt>
      <trkpt lat="48.43358" lon="2.13074">
        <ele>139</ele>
        <time>2011-04-15T11:55:53Z</time>
      </trkpt>
      <trkpt lat="48.43357" lon="2.13072">
        <ele>139</ele>
        <time>2011-04-15T11:55:54Z</time>
      </trkpt>
      <trkpt lat="48.43356" lon="2.1307">
        <ele>139</ele>
        <time>2011-04-15T11:55:55Z</time>
      </trkpt>
      <trkpt lat="48.43356" lon="2.13068">
        <ele>139</ele>
        <time>2011-04-15T11:55:56Z</time>
      </trkpt>
      <trkpt lat="48.43355" lon="2.13066">
        <ele>139</ele>
        <time>2011-04-15T11:55:57Z</time>
      </trkpt>
      <trkpt lat="48.43355" lon="2.13063">
        <ele>139</ele>
        <time>2011-04-15T11:55:58Z</time>
      </trkpt>
      <trkpt lat="48.43354" lon="2.13061">
        <ele>139</ele>
        <time>2011-04-15T11:55:59Z</time>
      </trkpt>
      <trkpt lat="48.43354" lon="2.13059">
        <ele>139</ele>
        <time>2011-04-15T11:56:00Z</time>
      </trkpt>
      <trkpt lat="48.43353" lon="2.13057">
        <ele>140</ele>
        <time>2011-04-15T11:56:01Z</time>
      </trkpt>
      <trkpt lat="48.43353" lon="2.13055">
        <ele>140</ele>
        <time>2011-04-15T11:56:02Z</time>
      </trkpt>
      <trkpt lat="48.43352" lon="2.13052">
        <ele>140</ele>
        <time>2011-04-15T11:56:03Z</time>
      </trkpt>
      <trkpt lat="48.43351" lon="2.1305">
        <ele>140</ele>
        <time>2011-04-15T11:56:04Z</time>
      </trkpt>
      <trkpt lat="48.43351" lon="2.13048">
        <ele>140</ele>
        <time>2011-04-15T11:56:05Z</time>
      </trkpt>
      <trkpt lat="48.4335" lon="2.13046">
        <ele>140</ele>
        <time>2011-04-15T11:56:06Z</time>
      </trkpt>
      <trkpt lat="48.4335" lon="2.13044">
        <ele>140</ele>
        <time>2011-04-15T11:56:07Z</time>
      </trkpt>
      <trkpt lat="48.43349" lon="2.13042">
        <ele>140</ele>
        <time>2011-04-15T11:56:08Z</time>
      </trkpt>
      <trkpt lat="48.43349" lon="2.1304">
        <ele>140</ele>
        <time>2011-04-15T11:56:09Z</time>
      </trkpt>
      <trkpt lat="48.43348" lon="2.13038">
        <ele>140</ele>
        <time>2011-04-15T11:56:10Z</time>
      </trkpt>
      <trkpt lat="48.43348" lon="2.13036">
        <ele>140</ele>
        <time>2011-04-15T11:56:11Z</time>
      </trkpt>
      <trkpt lat="48.43347" lon="2.13034">
        <ele>140</ele>
        <time>2011-04-15T11:56:12Z</time>
      </trkpt>
      <trkpt lat="48.43346" lon="2.13032">
        <ele>140</ele>
        <time>2011-04-15T11:56:13Z</time>
      </trkpt>
      <trkpt lat="48.43346" lon="2.13029">
        <ele>140</ele>
        <time>2011-04-15T11:56:14Z</time>
      </trkpt>
      <trkpt lat="48.43345" lon="2.13027">
        <ele>140</ele>
        <time>2011-04-15T11:56:15Z</time>
      </trkpt>
      <trkpt lat="48.43345" lon="2.13025">
        <ele>140</ele>
        <time>2011-04-15T11:56:16Z</time>
      </trkpt>
      <trkpt lat="48.43345" lon="2.13023">
        <ele>140</ele>
        <time>2011-04-15T11:56:17Z</time>
      </trkpt>
      <trkpt lat="48.43344" lon="2.13021">
        <ele>140</ele>
        <time>2011-04-15T11:56:18Z</time>
      </trkpt>
      <trkpt lat="48.43344" lon="2.13019">
        <ele>140</ele>
        <time>2011-04-15T11:56:19Z</time>
      </trkpt>
      <trkpt lat="48.43343" lon="2.13016">
        <ele>140</ele>
        <time>2011-04-15T11:56:20Z</time>
      </trkpt>
      <trkpt lat="48.43343" lon="2.13014">
        <ele>140</ele>
        <time>2011-04-15T11:56:21Z</time>
      </trkpt>
      <trkpt lat="48.43342" lon="2.13012">
        <ele>140</ele>
        <time>2011-04-15T11:56:22Z</time>
      </trkpt>
      <trkpt lat="48.43341" lon="2.1301">
        <ele>140</ele>
        <time>2011-04-15T11:56:23Z</time>
      </trkpt>
      <trkpt lat="48.43341" lon="2.13008">
        <ele>140</ele>
        <time>2011-04-15T11:56:24Z</time>
      </trkpt>
      <trkpt lat="48.4334" lon="2.13004">
        <ele>140</ele>
        <time>2011-04-15T11:56:25Z</time>
      </trkpt>
      <trkpt lat="48.43339" lon="2.13">
        <ele>140</ele>
        <time>2011-04-15T11:56:26Z</time>
      </trkpt>
      <trkpt lat="48.43338" lon="2.12997">
        <ele>140</ele>
        <time>2011-04-15T11:56:27Z</time>
      </trkpt>
      <trkpt lat="48.43337" lon="2.12993">
        <ele>140</ele>
        <time>2011-04-15T11:56:28Z</time>
      </trkpt>
      <trkpt lat="48.43336" lon="2.1299">
        <ele>140</ele>
        <time>2011-04-15T11:56:29Z</time>
      </trkpt>
      <trkpt lat="48.43336" lon="2.12987">
        <ele>140</ele>
        <time>2011-04-15T11:56:30Z</time>
      </trkpt>
      <trkpt lat="48.43335" lon="2.12984">
        <ele>140</ele>
        <time>2011-04-15T11:56:31Z</time>
      </trkpt>
      <trkpt lat="48.43334" lon="2.12982">
        <ele>140</ele>
        <time>2011-04-15T11:56:32Z</time>
      </trkpt>
      <trkpt lat="48.43334" lon="2.1298">
        <ele>140</ele>
        <time>2011-04-15T11:56:33Z</time>
      </trkpt>
      <trkpt lat="48.43333" lon="2.12977">
        <ele>140</ele>
        <time>2011-04-15T11:56:34Z</time>
      </trkpt>
      <trkpt lat="48.43332" lon="2.12976">
        <ele>140</ele>
        <time>2011-04-15T11:56:35Z</time>
      </trkpt>
      <trkpt lat="48.43331" lon="2.12974">
        <ele>140</ele>
        <time>2011-04-15T11:56:36Z</time>
      </trkpt>
      <trkpt lat="48.43331" lon="2.12971">
        <ele>140</ele>
        <time>2011-04-15T11:56:37Z</time>
      </trkpt>
      <trkpt lat="48.4333" lon="2.1297">
        <ele>140</ele>
        <time>2011-04-15T11:56:38Z</time>
      </trkpt>
      <trkpt lat="48.43329" lon="2.12968">
        <ele>140</ele>
        <time>2011-04-15T11:56:39Z</time>
      </trkpt>
      <trkpt lat="48.43329" lon="2.12966">
        <ele>140</ele>
        <time>2011-04-15T11:56:40Z</time>
      </trkpt>
      <trkpt lat="48.43328" lon="2.12964">
        <ele>140</ele>
        <time>2011-04-15T11:56:41Z</time>
      </trkpt>
      <trkpt lat="48.43327" lon="2.12961">
        <ele>140</ele>
        <time>2011-04-15T11:56:42Z</time>
      </trkpt>
      <trkpt lat="48.43326" lon="2.12959">
        <ele>140</ele>
        <time>2011-04-15T11:56:43Z</time>
      </trkpt>
      <trkpt lat="48.43325" lon="2.12957">
        <ele>140</ele>
        <time>2011-04-15T11:56:44Z</time>
      </trkpt>
      <trkpt lat="48.43324" lon="2.12955">
        <ele>140</ele>
        <time>2011-04-15T11:56:45Z</time>
      </trkpt>
      <trkpt lat="48.43324" lon="2.12953">
        <ele>140</ele>
        <time>2011-04-15T11:56:46Z</time>
      </trkpt>
      <trkpt lat="48.43323" lon="2.12951">
        <ele>140</ele>
        <time>2011-04-15T11:56:47Z</time>
      </trkpt>
      <trkpt lat="48.43322" lon="2.12949">
        <ele>140</ele>
        <time>2011-04-15T11:56:48Z</time>
      </trkpt>
      <trkpt lat="48.43321" lon="2.12947">
        <ele>140</ele>
        <time>2011-04-15T11:56:49Z</time>
      </trkpt>
      <trkpt lat="48.4332" lon="2.12946">
        <ele>140</ele>
        <time>2011-04-15T11:56:50Z</time>
      </trkpt>
      <trkpt lat="48.43319" lon="2.12944">
        <ele>140</ele>
        <time>2011-04-15T11:56:51Z</time>
      </trkpt>
      <trkpt lat="48.43318" lon="2.12941">
        <ele>140</ele>
        <time>2011-04-15T11:56:52Z</time>
      </trkpt>
      <trkpt lat="48.43317" lon="2.1294">
        <ele>140</ele>
        <time>2011-04-15T11:56:53Z</time>
      </trkpt>
      <trkpt lat="48.43316" lon="2.12938">
        <ele>140</ele>
        <time>2011-04-15T11:56:54Z</time>
      </trkpt>
      <trkpt lat="48.43316" lon="2.12936">
        <ele>140</ele>
        <time>2011-04-15T11:56:55Z</time>
      </trkpt>
      <trkpt lat="48.43315" lon="2.12934">
        <ele>140</ele>
        <time>2011-04-15T11:56:56Z</time>
      </trkpt>
      <trkpt lat="48.43314" lon="2.12932">
        <ele>140</ele>
        <time>2011-04-15T11:56:57Z</time>
      </trkpt>
      <trkpt lat="48.43313" lon="2.1293">
        <ele>140</ele>
        <time>2011-04-15T11:56:58Z</time>
      </trkpt>
      <trkpt lat="48.43312" lon="2.12928">
        <ele>140</ele>
        <time>2011-04-15T11:56:59Z</time>
      </trkpt>
      <trkpt lat="48.43311" lon="2.12927">
        <ele>140</ele>
        <time>2011-04-15T11:57:00Z</time>
      </trkpt>
      <trkpt lat="48.4331" lon="2.12925">
        <ele>140</ele>
        <time>2011-04-15T11:57:01Z</time>
      </trkpt>
      <trkpt lat="48.43309" lon="2.12923">
        <ele>140</ele>
        <time>2011-04-15T11:57:02Z</time>
      </trkpt>
      <trkpt lat="48.43308" lon="2.12922">
        <ele>140</ele>
        <time>2011-04-15T11:57:03Z</time>
      </trkpt>
      <trkpt lat="48.43306" lon="2.1292">
        <ele>140</ele>
        <time>2011-04-15T11:57:04Z</time>
      </trkpt>
      <trkpt lat="48.43305" lon="2.12918">
        <ele>140</ele>
        <time>2011-04-15T11:57:05Z</time>
      </trkpt>
      <trkpt lat="48.43304" lon="2.12917">
        <ele>140</ele>
        <time>2011-04-15T11:57:06Z</time>
      </trkpt>
      <trkpt lat="48.43303" lon="2.12915">
        <ele>140</ele>
        <time>2011-04-15T11:57:07Z</time>
      </trkpt>
      <trkpt lat="48.43302" lon="2.12914">
        <ele>140</ele>
        <time>2011-04-15T11:57:08Z</time>
      </trkpt>
      <trkpt lat="48.43301" lon="2.12912">
        <ele>140</ele>
        <time>2011-04-15T11:57:09Z</time>
      </trkpt>
      <trkpt lat="48.43299" lon="2.12911">
        <ele>140</ele>
        <time>2011-04-15T11:57:10Z</time>
      </trkpt>
      <trkpt lat="48.43298" lon="2.12909">
        <ele>140</ele>
        <time>2011-04-15T11:57:11Z</time>
      </trkpt>
      <trkpt lat="48.43297" lon="2.12907">
        <ele>140</ele>
        <time>2011-04-15T11:57:12Z</time>
      </trkpt>
      <trkpt lat="48.43295" lon="2.12905">
        <ele>140</ele>
        <time>2011-04-15T11:57:13Z</time>
      </trkpt>
      <trkpt lat="48.43293" lon="2.12903">
        <ele>140</ele>
        <time>2011-04-15T11:57:14Z</time>
      </trkpt>
      <trkpt lat="48.43291" lon="2.129">
        <ele>140</ele>
        <time>2011-04-15T11:57:15Z</time>
      </trkpt>
      <trkpt lat="48.43289" lon="2.12897">
        <ele>140</ele>
        <time>2011-04-15T11:57:16Z</time>
      </trkpt>
      <trkpt lat="48.43287" lon="2.12895">
        <ele>140</ele>
        <time>2011-04-15T11:57:17Z</time>
      </trkpt>
      <trkpt lat="48.43285" lon="2.12892">
        <ele>140</ele>
        <time>2011-04-15T11:57:18Z</time>
      </trkpt>
      <trkpt lat="48.43283" lon="2.1289">
        <ele>140</ele>
        <time>2011-04-15T11:57:19Z</time>
      </trkpt>
      <trkpt lat="48.43282" lon="2.12887">
        <ele>140</ele>
        <time>2011-04-15T11:57:20Z</time>
      </trkpt>
      <trkpt lat="48.4328" lon="2.12884">
        <ele>140</ele>
        <time>2011-04-15T11:57:21Z</time>
      </trkpt>
      <trkpt lat="48.43278" lon="2.12882">
        <ele>140</ele>
        <time>2011-04-15T11:57:22Z</time>
      </trkpt>
      <trkpt lat="48.43277" lon="2.1288">
        <ele>140</ele>
        <time>2011-04-15T11:57:23Z</time>
      </trkpt>
      <trkpt lat="48.43275" lon="2.12878">
        <ele>140</ele>
        <time>2011-04-15T11:57:24Z</time>
      </trkpt>
      <trkpt lat="48.43274" lon="2.12876">
        <ele>140</ele>
        <time>2011-04-15T11:57:25Z</time>
      </trkpt>
      <trkpt lat="48.43273" lon="2.12874">
        <ele>140</ele>
        <time>2011-04-15T11:57:26Z</time>
      </trkpt>
      <trkpt lat="48.43272" lon="2.12872">
        <ele>140</ele>
        <time>2011-04-15T11:57:27Z</time>
      </trkpt>
      <trkpt lat="48.43271" lon="2.1287">
        <ele>140</ele>
        <time>2011-04-15T11:57:28Z</time>
      </trkpt>
      <trkpt lat="48.4327" lon="2.12868">
        <ele>140</ele>
        <time>2011-04-15T11:57:29Z</time>
      </trkpt>
      <trkpt lat="48.43268" lon="2.12866">
        <ele>140</ele>
        <time>2011-04-15T11:57:30Z</time>
      </trkpt>
      <trkpt lat="48.43267" lon="2.12864">
        <ele>140</ele>
        <time>2011-04-15T11:57:31Z</time>
      </trkpt>
      <trkpt lat="48.43266" lon="2.12862">
        <ele>140</ele>
        <time>2011-04-15T11:57:32Z</time>
      </trkpt>
      <trkpt lat="48.43265" lon="2.1286">
        <ele>140</ele>
        <time>2011-04-15T11:57:33Z</time>
      </trkpt>
      <trkpt lat="48.43264" lon="2.12858">
        <ele>140</ele>
        <time>2011-04-15T11:57:34Z</time>
      </trkpt>
      <trkpt lat="48.43263" lon="2.12856">
        <ele>140</ele>
        <time>2011-04-15T11:57:35Z</time>
      </trkpt>
      <trkpt lat="48.43263" lon="2.12855">
        <ele>140</ele>
        <time>2011-04-15T11:57:36Z</time>
      </trkpt>
      <trkpt lat="48.43262" lon="2.12853">
        <ele>140</ele>
        <time>2011-04-15T11:57:37Z</time>
      </trkpt>
      <trkpt lat="48.43261" lon="2.12851">
        <ele>140</ele>
        <time>2011-04-15T11:57:38Z</time>
      </trkpt>
      <trkpt lat="48.4326" lon="2.12849">
        <ele>140</ele>
        <time>2011-04-15T11:57:39Z</time>
      </trkpt>
      <trkpt lat="48.43259" lon="2.12847">
        <ele>140</ele>
        <time>2011-04-15T11:57:40Z</time>
      </trkpt>
      <trkpt lat="48.43258" lon="2.12846">
        <ele>140</ele>
        <time>2011-04-15T11:57:41Z</time>
      </trkpt>
      <trkpt lat="48.43257" lon="2.12844">
        <ele>140</ele>
        <time>2011-04-15T11:57:42Z</time>
      </trkpt>
      <trkpt lat="48.43257" lon="2.12842">
        <ele>140</ele>
        <time>2011-04-15T11:57:43Z</time>
      </trkpt>
      <trkpt lat="48.43256" lon="2.1284">
        <ele>140</ele>
        <time>2011-04-15T11:57:44Z</time>
      </trkpt>
      <trkpt lat="48.43255" lon="2.12838">
        <ele>140</ele>
        <time>2011-04-15T11:57:45Z</time>
      </trkpt>
      <trkpt lat="48.43254" lon="2.12836">
        <ele>140</ele>
        <time>2011-04-15T11:57:46Z</time>
      </trkpt>
      <trkpt lat="48.43253" lon="2.12834">
        <ele>140</ele>
        <time>2011-04-15T11:57:47Z</time>
      </trkpt>
      <trkpt lat="48.43253" lon="2.12832">
        <ele>140</ele>
        <time>2011-04-15T11:57:48Z</time>
      </trkpt>
      <trkpt lat="48.43252" lon="2.1283">
        <ele>140</ele>
        <time>2011-04-15T11:57:49Z</time>
      </trkpt>
      <trkpt lat="48.43251" lon="2.12828">
        <ele>140</ele>
        <time>2011-04-15T11:57:50Z</time>
      </trkpt>
      <trkpt lat="48.4325" lon="2.12826">
        <ele>140</ele>
        <time>2011-04-15T11:57:51Z</time>
      </trkpt>
      <trkpt lat="48.43249" lon="2.12824">
        <ele>140</ele>
        <time>2011-04-15T11:57:52Z</time>
      </trkpt>
      <trkpt lat="48.43249" lon="2.12822">
        <ele>140</ele>
        <time>2011-04-15T11:57:53Z</time>
      </trkpt>
      <trkpt lat="48.43248" lon="2.1282">
        <ele>140</ele>
        <time>2011-04-15T11:57:54Z</time>
      </trkpt>
      <trkpt lat="48.43247" lon="2.12818">
        <ele>140</ele>
        <time>2011-04-15T11:57:55Z</time>
      </trkpt>
      <trkpt lat="48.43247" lon="2.12816">
        <ele>140</ele>
        <time>2011-04-15T11:57:56Z</time>
      </trkpt>
      <trkpt lat="48.43246" lon="2.12814">
        <ele>140</ele>
        <time>2011-04-15T11:57:57Z</time>
      </trkpt>
      <trkpt lat="48.43245" lon="2.12812">
        <ele>140</ele>
        <time>2011-04-15T11:57:58Z</time>
      </trkpt>
      <trkpt lat="48.43245" lon="2.1281">
        <ele>140</ele>
        <time>2011-04-15T11:57:59Z</time>
      </trkpt>
      <trkpt lat="48.43244" lon="2.12808">
        <ele>140</ele>
        <time>2011-04-15T11:58:00Z</time>
      </trkpt>
      <trkpt lat="48.43243" lon="2.12806">
        <ele>140</ele>
        <time>2011-04-15T11:58:01Z</time>
      </trkpt>
      <trkpt lat="48.43242" lon="2.12804">
        <ele>140</ele>
        <time>2011-04-15T11:58:02Z</time>
      </trkpt>
      <trkpt lat="48.43241" lon="2.12801">
        <ele>140</ele>
        <time>2011-04-15T11:58:04Z</time>
      </trkpt>
      <trkpt lat="48.4324" lon="2.12799">
        <ele>140</ele>
        <time>2011-04-15T11:58:05Z</time>
      </trkpt>
      <trkpt lat="48.4324" lon="2.12797">
        <ele>140</ele>
        <time>2011-04-15T11:58:06Z</time>
      </trkpt>
      <trkpt lat="48.43239" lon="2.12795">
        <ele>140</ele>
        <time>2011-04-15T11:58:07Z</time>
      </trkpt>
      <trkpt lat="48.43238" lon="2.12793">
        <ele>140</ele>
        <time>2011-04-15T11:58:08Z</time>
      </trkpt>
      <trkpt lat="48.43238" lon="2.12791">
        <ele>140</ele>
        <time>2011-04-15T11:58:09Z</time>
      </trkpt>
      <trkpt lat="48.43237" lon="2.1279">
        <ele>140</ele>
        <time>2011-04-15T11:58:10Z</time>
      </trkpt>
      <trkpt lat="48.43236" lon="2.12788">
        <ele>140</ele>
        <time>2011-04-15T11:58:11Z</time>
      </trkpt>
      <trkpt lat="48.43235" lon="2.12786">
        <ele>140</ele>
        <time>2011-04-15T11:58:12Z</time>
      </trkpt>
      <trkpt lat="48.43235" lon="2.12784">
        <ele>140</ele>
        <time>2011-04-15T11:58:13Z</time>
      </trkpt>
      <trkpt lat="48.43234" lon="2.12782">
        <ele>140</ele>
        <time>2011-04-15T11:58:14Z</time>
      </trkpt>
      <trkpt lat="48.43232" lon="2.12779">
        <ele>140</ele>
        <time>2011-04-15T11:58:16Z</time>
      </trkpt>
      <trkpt lat="48.4323" lon="2.12779">
        <ele>140</ele>
        <time>2011-04-15T11:58:17Z</time>
      </trkpt>
      <trkpt lat="48.43229" lon="2.12778">
        <ele>140</ele>
        <time>2011-04-15T11:58:18Z</time>
      </trkpt>
      <trkpt lat="48.43228" lon="2.12778">
        <ele>140</ele>
        <time>2011-04-15T11:58:19Z</time>
      </trkpt>
      <trkpt lat="48.43227" lon="2.12778">
        <ele>140</ele>
        <time>2011-04-15T11:58:20Z</time>
      </trkpt>
      <trkpt lat="48.43225" lon="2.12779">
        <ele>140</ele>
        <time>2011-04-15T11:58:21Z</time>
      </trkpt>
      <trkpt lat="48.43224" lon="2.1278">
        <ele>140</ele>
        <time>2011-04-15T11:58:22Z</time>
      </trkpt>
      <trkpt lat="48.43223" lon="2.12781">
        <ele>140</ele>
        <time>2011-04-15T11:58:23Z</time>
      </trkpt>
      <trkpt lat="48.43222" lon="2.12782">
        <ele>140</ele>
        <time>2011-04-15T11:58:24Z</time>
      </trkpt>
      <trkpt lat="48.4322" lon="2.12783">
        <ele>139</ele>
        <time>2011-04-15T11:58:25Z</time>
      </trkpt>
      <trkpt lat="48.43219" lon="2.12785">
        <ele>139</ele>
        <time>2011-04-15T11:58:26Z</time>
      </trkpt>
      <trkpt lat="48.43218" lon="2.12786">
        <ele>139</ele>
        <time>2011-04-15T11:58:27Z</time>
      </trkpt>
      <trkpt lat="48.43217" lon="2.12788">
        <ele>139</ele>
        <time>2011-04-15T11:58:28Z</time>
      </trkpt>
      <trkpt lat="48.43215" lon="2.12789">
        <ele>139</ele>
        <time>2011-04-15T11:58:29Z</time>
      </trkpt>
      <trkpt lat="48.43214" lon="2.1279">
        <ele>139</ele>
        <time>2011-04-15T11:58:30Z</time>
      </trkpt>
      <trkpt lat="48.43213" lon="2.12791">
        <ele>139</ele>
        <time>2011-04-15T11:58:31Z</time>
      </trkpt>
      <trkpt lat="48.43212" lon="2.12793">
        <ele>139</ele>
        <time>2011-04-15T11:58:32Z</time>
      </trkpt>
      <trkpt lat="48.4321" lon="2.12794">
        <ele>139</ele>
        <time>2011-04-15T11:58:33Z</time>
      </trkpt>
      <trkpt lat="48.43209" lon="2.12796">
        <ele>139</ele>
        <time>2011-04-15T11:58:34Z</time>
      </trkpt>
      <trkpt lat="48.43208" lon="2.12797">
        <ele>139</ele>
        <time>2011-04-15T11:58:35Z</time>
      </trkpt>
      <trkpt lat="48.43206" lon="2.12799">
        <ele>138</ele>
        <time>2011-04-15T11:58:36Z</time>
      </trkpt>
      <trkpt lat="48.43205" lon="2.128">
        <ele>138</ele>
        <time>2011-04-15T11:58:37Z</time>
      </trkpt>
      <trkpt lat="48.43203" lon="2.12802">
        <ele>138</ele>
        <time>2011-04-15T11:58:38Z</time>
      </trkpt>
      <trkpt lat="48.43202" lon="2.12804">
        <ele>138</ele>
        <time>2011-04-15T11:58:39Z</time>
      </trkpt>
      <trkpt lat="48.43201" lon="2.12805">
        <ele>138</ele>
        <time>2011-04-15T11:58:40Z</time>
      </trkpt>
      <trkpt lat="48.43199" lon="2.12807">
        <ele>138</ele>
        <time>2011-04-15T11:58:42Z</time>
      </trkpt>
      <trkpt lat="48.43198" lon="2.12809">
        <ele>138</ele>
        <time>2011-04-15T11:58:43Z</time>
      </trkpt>
      <trkpt lat="48.43196" lon="2.1281">
        <ele>138</ele>
        <time>2011-04-15T11:58:44Z</time>
      </trkpt>
      <trkpt lat="48.43195" lon="2.12812">
        <ele>138</ele>
        <time>2011-04-15T11:58:45Z</time>
      </trkpt>
      <trkpt lat="48.43194" lon="2.12814">
        <ele>138</ele>
        <time>2011-04-15T11:58:46Z</time>
      </trkpt>
      <trkpt lat="48.43193" lon="2.12815">
        <ele>138</ele>
        <time>2011-04-15T11:58:47Z</time>
      </trkpt>
      <trkpt lat="48.43192" lon="2.12817">
        <ele>138</ele>
        <time>2011-04-15T11:58:48Z</time>
      </trkpt>
      <trkpt lat="48.4319" lon="2.12818">
        <ele>138</ele>
        <time>2011-04-15T11:58:49Z</time>
      </trkpt>
      <trkpt lat="48.43188" lon="2.1282">
        <ele>138</ele>
        <time>2011-04-15T11:58:51Z</time>
      </trkpt>
      <trkpt lat="48.43187" lon="2.12822">
        <ele>138</ele>
        <time>2011-04-15T11:58:52Z</time>
      </trkpt>
      <trkpt lat="48.43185" lon="2.12824">
        <ele>137</ele>
        <time>2011-04-15T11:58:54Z</time>
      </trkpt>
      <trkpt lat="48.43184" lon="2.12826">
        <ele>137</ele>
        <time>2011-04-15T11:58:55Z</time>
      </trkpt>
      <trkpt lat="48.43182" lon="2.12829">
        <ele>137</ele>
        <time>2011-04-15T11:58:57Z</time>
      </trkpt>
      <trkpt lat="48.4318" lon="2.12832">
        <ele>136</ele>
        <time>2011-04-15T11:58:59Z</time>
      </trkpt>
      <trkpt lat="48.43178" lon="2.12834">
        <ele>136</ele>
        <time>2011-04-15T11:59:01Z</time>
      </trkpt>
      <trkpt lat="48.43177" lon="2.12836">
        <ele>136</ele>
        <time>2011-04-15T11:59:02Z</time>
      </trkpt>
      <trkpt lat="48.43176" lon="2.12839">
        <ele>136</ele>
        <time>2011-04-15T11:59:03Z</time>
      </trkpt>
      <trkpt lat="48.43175" lon="2.1284">
        <ele>136</ele>
        <time>2011-04-15T11:59:04Z</time>
      </trkpt>
      <trkpt lat="48.43174" lon="2.12842">
        <ele>136</ele>
        <time>2011-04-15T11:59:05Z</time>
      </trkpt>
      <trkpt lat="48.43172" lon="2.12845">
        <ele>136</ele>
        <time>2011-04-15T11:59:07Z</time>
      </trkpt>
      <trkpt lat="48.4317" lon="2.12846">
        <ele>136</ele>
        <time>2011-04-15T11:59:08Z</time>
      </trkpt>
      <trkpt lat="48.43169" lon="2.12848">
        <ele>136</ele>
        <time>2011-04-15T11:59:09Z</time>
      </trkpt>
      <trkpt lat="48.43168" lon="2.12849">
        <ele>136</ele>
        <time>2011-04-15T11:59:10Z</time>
      </trkpt>
      <trkpt lat="48.43167" lon="2.12851">
        <ele>136</ele>
        <time>2011-04-15T11:59:11Z</time>
      </trkpt>
      <trkpt lat="48.43166" lon="2.12853">
        <ele>136</ele>
        <time>2011-04-15T11:59:12Z</time>
      </trkpt>
      <trkpt lat="48.43165" lon="2.12854">
        <ele>135</ele>
        <time>2011-04-15T11:59:13Z</time>
      </trkpt>
      <trkpt lat="48.43163" lon="2.12857">
        <ele>135</ele>
        <time>2011-04-15T11:59:15Z</time>
      </trkpt>
      <trkpt lat="48.43162" lon="2.12859">
        <ele>135</ele>
        <time>2011-04-15T11:59:16Z</time>
      </trkpt>
      <trkpt lat="48.43161" lon="2.12861">
        <ele>135</ele>
        <time>2011-04-15T11:59:17Z</time>
      </trkpt>
      <trkpt lat="48.4316" lon="2.12863">
        <ele>135</ele>
        <time>2011-04-15T11:59:18Z</time>
      </trkpt>
      <trkpt lat="48.43159" lon="2.12864">
        <ele>135</ele>
        <time>2011-04-15T11:59:19Z</time>
      </trkpt>
      <trkpt lat="48.43158" lon="2.12866">
        <ele>135</ele>
        <time>2011-04-15T11:59:20Z</time>
      </trkpt>
      <trkpt lat="48.43157" lon="2.12868">
        <ele>135</ele>
        <time>2011-04-15T11:59:21Z</time>
      </trkpt>
      <trkpt lat="48.43156" lon="2.12869">
        <ele>135</ele>
        <time>2011-04-15T11:59:22Z</time>
      </trkpt>
      <trkpt lat="48.43155" lon="2.12871">
        <ele>135</ele>
        <time>2011-04-15T11:59:23Z</time>
      </trkpt>
      <trkpt lat="48.43153" lon="2.12874">
        <ele>135</ele>
        <time>2011-04-15T11:59:24Z</time>
      </trkpt>
      <trkpt lat="48.43152" lon="2.12875">
        <ele>135</ele>
        <time>2011-04-15T11:59:25Z</time>
      </trkpt>
      <trkpt lat="48.43151" lon="2.12878">
        <ele>135</ele>
        <time>2011-04-15T11:59:26Z</time>
      </trkpt>
      <trkpt lat="48.43149" lon="2.1288">
        <ele>135</ele>
        <time>2011-04-15T11:59:27Z</time>
      </trkpt>
      <trkpt lat="48.43148" lon="2.12883">
        <ele>135</ele>
        <time>2011-04-15T11:59:28Z</time>
      </trkpt>
      <trkpt lat="48.43146" lon="2.12886">
        <ele>135</ele>
        <time>2011-04-15T11:59:29Z</time>
      </trkpt>
      <trkpt lat="48.43144" lon="2.12889">
        <ele>135</ele>
        <time>2011-04-15T11:59:30Z</time>
      </trkpt>
      <trkpt lat="48.43142" lon="2.12892">
        <ele>135</ele>
        <time>2011-04-15T11:59:31Z</time>
      </trkpt>
      <trkpt lat="48.43141" lon="2.12894">
        <ele>134</ele>
        <time>2011-04-15T11:59:32Z</time>
      </trkpt>
      <trkpt lat="48.4314" lon="2.12896">
        <ele>134</ele>
        <time>2011-04-15T11:59:33Z</time>
      </trkpt>
      <trkpt lat="48.43139" lon="2.12898">
        <ele>134</ele>
        <time>2011-04-15T11:59:34Z</time>
      </trkpt>
      <trkpt lat="48.43138" lon="2.129">
        <ele>134</ele>
        <time>2011-04-15T11:59:35Z</time>
      </trkpt>
      <trkpt lat="48.43137" lon="2.12902">
        <ele>134</ele>
        <time>2011-04-15T11:59:36Z</time>
      </trkpt>
      <trkpt lat="48.43136" lon="2.12903">
        <ele>134</ele>
        <time>2011-04-15T11:59:37Z</time>
      </trkpt>
      <trkpt lat="48.43135" lon="2.12905">
        <ele>134</ele>
        <time>2011-04-15T11:59:38Z</time>
      </trkpt>
      <trkpt lat="48.43134" lon="2.12907">
        <ele>134</ele>
        <time>2011-04-15T11:59:39Z</time>
      </trkpt>
      <trkpt lat="48.43132" lon="2.1291">
        <ele>134</ele>
        <time>2011-04-15T11:59:41Z</time>
      </trkpt>
      <trkpt lat="48.4313" lon="2.12913">
        <ele>133</ele>
        <time>2011-04-15T11:59:43Z</time>
      </trkpt>
      <trkpt lat="48.43128" lon="2.12916">
        <ele>133</ele>
        <time>2011-04-15T11:59:45Z</time>
      </trkpt>
      <trkpt lat="48.43127" lon="2.12917">
        <ele>133</ele>
        <time>2011-04-15T11:59:46Z</time>
      </trkpt>
      <trkpt lat="48.43126" lon="2.12919">
        <ele>133</ele>
        <time>2011-04-15T11:59:47Z</time>
      </trkpt>
      <trkpt lat="48.43125" lon="2.12921">
        <ele>133</ele>
        <time>2011-04-15T11:59:48Z</time>
      </trkpt>
      <trkpt lat="48.43124" lon="2.12924">
        <ele>132</ele>
        <time>2011-04-15T11:59:50Z</time>
      </trkpt>
      <trkpt lat="48.43123" lon="2.12925">
        <ele>132</ele>
        <time>2011-04-15T11:59:51Z</time>
      </trkpt>
      <trkpt lat="48.43122" lon="2.12927">
        <ele>132</ele>
        <time>2011-04-15T11:59:52Z</time>
      </trkpt>
      <trkpt lat="48.43122" lon="2.12929">
        <ele>132</ele>
        <time>2011-04-15T11:59:53Z</time>
      </trkpt>
      <trkpt lat="48.43121" lon="2.12931">
        <ele>132</ele>
        <time>2011-04-15T11:59:54Z</time>
      </trkpt>
      <trkpt lat="48.43121" lon="2.12933">
        <ele>132</ele>
        <time>2011-04-15T11:59:55Z</time>
      </trkpt>
      <trkpt lat="48.4312" lon="2.12936">
        <ele>132</ele>
        <time>2011-04-15T11:59:56Z</time>
      </trkpt>
      <trkpt lat="48.4312" lon="2.12938">
        <ele>132</ele>
        <time>2011-04-15T11:59:57Z</time>
      </trkpt>
      <trkpt lat="48.43119" lon="2.1294">
        <ele>131</ele>
        <time>2011-04-15T11:59:58Z</time>
      </trkpt>
      <trkpt lat="48.43119" lon="2.12942">
        <ele>131</ele>
        <time>2011-04-15T11:59:59Z</time>
      </trkpt>
      <trkpt lat="48.43118" lon="2.12945">
        <ele>131</ele>
        <time>2011-04-15T12:00:00Z</time>
      </trkpt>
      <trkpt lat="48.43117" lon="2.12947">
        <ele>131</ele>
        <time>2011-04-15T12:00:01Z</time>
      </trkpt>
      <trkpt lat="48.43117" lon="2.12949">
        <ele>131</ele>
        <time>2011-04-15T12:00:02Z</time>
      </trkpt>
      <trkpt lat="48.43116" lon="2.12951">
        <ele>131</ele>
        <time>2011-04-15T12:00:03Z</time>
      </trkpt>
      <trkpt lat="48.43115" lon="2.12953">
        <ele>131</ele>
        <time>2011-04-15T12:00:04Z</time>
      </trkpt>
      <trkpt lat="48.43115" lon="2.12955">
        <ele>131</ele>
        <time>2011-04-15T12:00:05Z</time>
      </trkpt>
      <trkpt lat="48.43114" lon="2.12957">
        <ele>131</ele>
        <time>2011-04-15T12:00:06Z</time>
      </trkpt>
      <trkpt lat="48.43114" lon="2.12959">
        <ele>131</ele>
        <time>2011-04-15T12:00:07Z</time>
      </trkpt>
      <trkpt lat="48.43114" lon="2.12961">
        <ele>131</ele>
        <time>2011-04-15T12:00:08Z</time>
      </trkpt>
      <trkpt lat="48.43114" lon="2.12963">
        <ele>130</ele>
        <time>2011-04-15T12:00:09Z</time>
      </trkpt>
      <trkpt lat="48.43113" lon="2.12965">
        <ele>130</ele>
        <time>2011-04-15T12:00:10Z</time>
      </trkpt>
      <trkpt lat="48.43113" lon="2.12967">
        <ele>130</ele>
        <time>2011-04-15T12:00:11Z</time>
      </trkpt>
      <trkpt lat="48.43112" lon="2.12969">
        <ele>130</ele>
        <time>2011-04-15T12:00:12Z</time>
      </trkpt>
      <trkpt lat="48.43112" lon="2.12971">
        <ele>130</ele>
        <time>2011-04-15T12:00:13Z</time>
      </trkpt>
      <trkpt lat="48.43111" lon="2.12973">
        <ele>130</ele>
        <time>2011-04-15T12:00:14Z</time>
      </trkpt>
      <trkpt lat="48.4311" lon="2.12975">
        <ele>130</ele>
        <time>2011-04-15T12:00:15Z</time>
      </trkpt>
      <trkpt lat="48.4311" lon="2.12977">
        <ele>130</ele>
        <time>2011-04-15T12:00:16Z</time>
      </trkpt>
      <trkpt lat="48.43109" lon="2.12979">
        <ele>130</ele>
        <time>2011-04-15T12:00:17Z</time>
      </trkpt>
      <trkpt lat="48.43109" lon="2.12981">
        <ele>129</ele>
        <time>2011-04-15T12:00:18Z</time>
      </trkpt>
      <trkpt lat="48.43108" lon="2.12983">
        <ele>129</ele>
        <time>2011-04-15T12:00:19Z</time>
      </trkpt>
      <trkpt lat="48.43108" lon="2.12985">
        <ele>129</ele>
        <time>2011-04-15T12:00:20Z</time>
      </trkpt>
      <trkpt lat="48.43107" lon="2.12988">
        <ele>129</ele>
        <time>2011-04-15T12:00:21Z</time>
      </trkpt>
      <trkpt lat="48.43107" lon="2.12989">
        <ele>129</ele>
        <time>2011-04-15T12:00:22Z</time>
      </trkpt>
      <trkpt lat="48.43106" lon="2.12991">
        <ele>128</ele>
        <time>2011-04-15T12:00:23Z</time>
      </trkpt>
      <trkpt lat="48.43106" lon="2.12993">
        <ele>128</ele>
        <time>2011-04-15T12:00:24Z</time>
      </trkpt>
      <trkpt lat="48.43105" lon="2.12997">
        <ele>128</ele>
        <time>2011-04-15T12:00:26Z</time>
      </trkpt>
      <trkpt lat="48.43104" lon="2.12999">
        <ele>127</ele>
        <time>2011-04-15T12:00:27Z</time>
      </trkpt>
      <trkpt lat="48.43104" lon="2.13001">
        <ele>127</ele>
        <time>2011-04-15T12:00:28Z</time>
      </trkpt>
      <trkpt lat="48.43104" lon="2.13003">
        <ele>127</ele>
        <time>2011-04-15T12:00:29Z</time>
      </trkpt>
      <trkpt lat="48.43103" lon="2.13005">
        <ele>127</ele>
        <time>2011-04-15T12:00:30Z</time>
      </trkpt>
      <trkpt lat="48.43102" lon="2.13007">
        <ele>126</ele>
        <time>2011-04-15T12:00:31Z</time>
      </trkpt>
      <trkpt lat="48.43102" lon="2.13009">
        <ele>126</ele>
        <time>2011-04-15T12:00:32Z</time>
      </trkpt>
      <trkpt lat="48.43101" lon="2.13011">
        <ele>126</ele>
        <time>2011-04-15T12:00:33Z</time>
      </trkpt>
      <trkpt lat="48.431" lon="2.13013">
        <ele>126</ele>
        <time>2011-04-15T12:00:34Z</time>
      </trkpt>
      <trkpt lat="48.43099" lon="2.13014">
        <ele>126</ele>
        <time>2011-04-15T12:00:35Z</time>
      </trkpt>
      <trkpt lat="48.43098" lon="2.13017">
        <ele>126</ele>
        <time>2011-04-15T12:00:36Z</time>
      </trkpt>
      <trkpt lat="48.43097" lon="2.13019">
        <ele>126</ele>
        <time>2011-04-15T12:00:37Z</time>
      </trkpt>
      <trkpt lat="48.43096" lon="2.13022">
        <ele>126</ele>
        <time>2011-04-15T12:00:39Z</time>
      </trkpt>
      <trkpt lat="48.43095" lon="2.13025">
        <ele>126</ele>
        <time>2011-04-15T12:00:41Z</time>
      </trkpt>
      <trkpt lat="48.43094" lon="2.13029">
        <ele>126</ele>
        <time>2011-04-15T12:00:43Z</time>
      </trkpt>
      <trkpt lat="48.43093" lon="2.13031">
        <ele>126</ele>
        <time>2011-04-15T12:00:44Z</time>
      </trkpt>
      <trkpt lat="48.43093" lon="2.13032">
        <ele>126</ele>
        <time>2011-04-15T12:00:45Z</time>
      </trkpt>
      <trkpt lat="48.43092" lon="2.13035">
        <ele>126</ele>
        <time>2011-04-15T12:00:46Z</time>
      </trkpt>
      <trkpt lat="48.43092" lon="2.13037">
        <ele>126</ele>
        <time>2011-04-15T12:00:47Z</time>
      </trkpt>
      <trkpt lat="48.43092" lon="2.13039">
        <ele>126</ele>
        <time>2011-04-15T12:00:48Z</time>
      </trkpt>
      <trkpt lat="48.43092" lon="2.13041">
        <ele>126</ele>
        <time>2011-04-15T12:00:49Z</time>
      </trkpt>
      <trkpt lat="48.43092" lon="2.13044">
        <ele>126</ele>
        <time>2011-04-15T12:00:50Z</time>
      </trkpt>
      <trkpt lat="48.43093" lon="2.13046">
        <ele>126</ele>
        <time>2011-04-15T12:00:51Z</time>
      </trkpt>
      <trkpt lat="48.43093" lon="2.13049">
        <ele>126</ele>
        <time>2011-04-15T12:00:52Z</time>
      </trkpt>
      <trkpt lat="48.43093" lon="2.13051">
        <ele>126</ele>
        <time>2011-04-15T12:00:53Z</time>
      </trkpt>
      <trkpt lat="48.43094" lon="2.13054">
        <ele>126</ele>
        <time>2011-04-15T12:00:54Z</time>
      </trkpt>
      <trkpt lat="48.43094" lon="2.13056">
        <ele>125</ele>
        <time>2011-04-15T12:00:55Z</time>
      </trkpt>
      <trkpt lat="48.43095" lon="2.13058">
        <ele>125</ele>
        <time>2011-04-15T12:00:56Z</time>
      </trkpt>
      <trkpt lat="48.43095" lon="2.1306">
        <ele>125</ele>
        <time>2011-04-15T12:00:57Z</time>
      </trkpt>
      <trkpt lat="48.43096" lon="2.13062">
        <ele>125</ele>
        <time>2011-04-15T12:00:58Z</time>
      </trkpt>
      <trkpt lat="48.43096" lon="2.13065">
        <ele>124</ele>
        <time>2011-04-15T12:00:59Z</time>
      </trkpt>
      <trkpt lat="48.43096" lon="2.13067">
        <ele>124</ele>
        <time>2011-04-15T12:01:00Z</time>
      </trkpt>
      <trkpt lat="48.43096" lon="2.1307">
        <ele>124</ele>
        <time>2011-04-15T12:01:01Z</time>
      </trkpt>
      <trkpt lat="48.43095" lon="2.13073">
        <ele>124</ele>
        <time>2011-04-15T12:01:02Z</time>
      </trkpt>
      <trkpt lat="48.43095" lon="2.13075">
        <ele>124</ele>
        <time>2011-04-15T12:01:03Z</time>
      </trkpt>
      <trkpt lat="48.43095" lon="2.13078">
        <ele>124</ele>
        <time>2011-04-15T12:01:04Z</time>
      </trkpt>
      <trkpt lat="48.43095" lon="2.1308">
        <ele>124</ele>
        <time>2011-04-15T12:01:05Z</time>
      </trkpt>
      <trkpt lat="48.43095" lon="2.13083">
        <ele>123</ele>
        <time>2011-04-15T12:01:06Z</time>
      </trkpt>
      <trkpt lat="48.43095" lon="2.13085">
        <ele>123</ele>
        <time>2011-04-15T12:01:07Z</time>
      </trkpt>
      <trkpt lat="48.43094" lon="2.13088">
        <ele>123</ele>
        <time>2011-04-15T12:01:08Z</time>
      </trkpt>
      <trkpt lat="48.43094" lon="2.1309">
        <ele>123</ele>
        <time>2011-04-15T12:01:09Z</time>
      </trkpt>
      <trkpt lat="48.43094" lon="2.13092">
        <ele>123</ele>
        <time>2011-04-15T12:01:10Z</time>
      </trkpt>
      <trkpt lat="48.43094" lon="2.13095">
        <ele>123</ele>
        <time>2011-04-15T12:01:11Z</time>
      </trkpt>
      <trkpt lat="48.43094" lon="2.13097">
        <ele>123</ele>
        <time>2011-04-15T12:01:12Z</time>
      </trkpt>
      <trkpt lat="48.43094" lon="2.13099">
        <ele>123</ele>
        <time>2011-04-15T12:01:13Z</time>
      </trkpt>
      <trkpt lat="48.43094" lon="2.13101">
        <ele>123</ele>
        <time>2011-04-15T12:01:14Z</time>
      </trkpt>
      <trkpt lat="48.43094" lon="2.13103">
        <ele>123</ele>
        <time>2011-04-15T12:01:15Z</time>
      </trkpt>
      <trkpt lat="48.43093" lon="2.13105">
        <ele>123</ele>
        <time>2011-04-15T12:01:16Z</time>
      </trkpt>
      <trkpt lat="48.43093" lon="2.13107">
        <ele>123</ele>
        <time>2011-04-15T12:01:17Z</time>
      </trkpt>
      <trkpt lat="48.43093" lon="2.1311">
        <ele>123</ele>
        <time>2011-04-15T12:01:18Z</time>
      </trkpt>
      <trkpt lat="48.43093" lon="2.13112">
        <ele>123</ele>
        <time>2011-04-15T12:01:19Z</time>
      </trkpt>
      <trkpt lat="48.43092" lon="2.13115">
        <ele>122</ele>
        <time>2011-04-15T12:01:20Z</time>
      </trkpt>
      <trkpt lat="48.43092" lon="2.13117">
        <ele>122</ele>
        <time>2011-04-15T12:01:21Z</time>
      </trkpt>
      <trkpt lat="48.43092" lon="2.13119">
        <ele>121</ele>
        <time>2011-04-15T12:01:22Z</time>
      </trkpt>
      <trkpt lat="48.43091" lon="2.13121">
        <ele>121</ele>
        <time>2011-04-15T12:01:23Z</time>
      </trkpt>
      <trkpt lat="48.43091" lon="2.13123">
        <ele>120</ele>
        <time>2011-04-15T12:01:24Z</time>
      </trkpt>
      <trkpt lat="48.4309" lon="2.13125">
        <ele>120</ele>
        <time>2011-04-15T12:01:25Z</time>
      </trkpt>
      <trkpt lat="48.4309" lon="2.13127">
        <ele>120</ele>
        <time>2011-04-15T12:01:26Z</time>
      </trkpt>
      <trkpt lat="48.43089" lon="2.13129">
        <ele>120</ele>
        <time>2011-04-15T12:01:27Z</time>
      </trkpt>
      <trkpt lat="48.43089" lon="2.13132">
        <ele>119</ele>
        <time>2011-04-15T12:01:28Z</time>
      </trkpt>
      <trkpt lat="48.43088" lon="2.13134">
        <ele>119</ele>
        <time>2011-04-15T12:01:29Z</time>
      </trkpt>
      <trkpt lat="48.43088" lon="2.13136">
        <ele>119</ele>
        <time>2011-04-15T12:01:30Z</time>
      </trkpt>
      <trkpt lat="48.43087" lon="2.13138">
        <ele>119</ele>
        <time>2011-04-15T12:01:31Z</time>
      </trkpt>
      <trkpt lat="48.43086" lon="2.1314">
        <ele>118</ele>
        <time>2011-04-15T12:01:32Z</time>
      </trkpt>
      <trkpt lat="48.43086" lon="2.13143">
        <ele>118</ele>
        <time>2011-04-15T12:01:33Z</time>
      </trkpt>
      <trkpt lat="48.43085" lon="2.13145">
        <ele>118</ele>
        <time>2011-04-15T12:01:34Z</time>
      </trkpt>
      <trkpt lat="48.43084" lon="2.13148">
        <ele>118</ele>
        <time>2011-04-15T12:01:35Z</time>
      </trkpt>
      <trkpt lat="48.43083" lon="2.13151">
        <ele>118</ele>
        <time>2011-04-15T12:01:36Z</time>
      </trkpt>
      <trkpt lat="48.43082" lon="2.13154">
        <ele>118</ele>
        <time>2011-04-15T12:01:37Z</time>
      </trkpt>
      <trkpt lat="48.43082" lon="2.13156">
        <ele>118</ele>
        <time>2011-04-15T12:01:38Z</time>
      </trkpt>
      <trkpt lat="48.43081" lon="2.13159">
        <ele>118</ele>
        <time>2011-04-15T12:01:40Z</time>
      </trkpt>
      <trkpt lat="48.4308" lon="2.13161">
        <ele>118</ele>
        <time>2011-04-15T12:01:41Z</time>
      </trkpt>
      <trkpt lat="48.4308" lon="2.13164">
        <ele>118</ele>
        <time>2011-04-15T12:01:42Z</time>
      </trkpt>
      <trkpt lat="48.43079" lon="2.13166">
        <ele>118</ele>
        <time>2011-04-15T12:01:43Z</time>
      </trkpt>
      <trkpt lat="48.43079" lon="2.13169">
        <ele>118</ele>
        <time>2011-04-15T12:01:44Z</time>
      </trkpt>
      <trkpt lat="48.43078" lon="2.13171">
        <ele>118</ele>
        <time>2011-04-15T12:01:45Z</time>
      </trkpt>
      <trkpt lat="48.43078" lon="2.13173">
        <ele>117</ele>
        <time>2011-04-15T12:01:46Z</time>
      </trkpt>
      <trkpt lat="48.43077" lon="2.13175">
        <ele>117</ele>
        <time>2011-04-15T12:01:47Z</time>
      </trkpt>
      <trkpt lat="48.43076" lon="2.13177">
        <ele>116</ele>
        <time>2011-04-15T12:01:48Z</time>
      </trkpt>
      <trkpt lat="48.43075" lon="2.13178">
        <ele>116</ele>
        <time>2011-04-15T12:01:49Z</time>
      </trkpt>
      <trkpt lat="48.43074" lon="2.1318">
        <ele>115</ele>
        <time>2011-04-15T12:01:50Z</time>
      </trkpt>
      <trkpt lat="48.43073" lon="2.13182">
        <ele>115</ele>
        <time>2011-04-15T12:01:51Z</time>
      </trkpt>
      <trkpt lat="48.43072" lon="2.13184">
        <ele>115</ele>
        <time>2011-04-15T12:01:52Z</time>
      </trkpt>
      <trkpt lat="48.43071" lon="2.13185">
        <ele>115</ele>
        <time>2011-04-15T12:01:53Z</time>
      </trkpt>
      <trkpt lat="48.43069" lon="2.13186">
        <ele>114</ele>
        <time>2011-04-15T12:01:54Z</time>
      </trkpt>
      <trkpt lat="48.43068" lon="2.13187">
        <ele>114</ele>
        <time>2011-04-15T12:01:55Z</time>
      </trkpt>
      <trkpt lat="48.43066" lon="2.13188">
        <ele>114</ele>
        <time>2011-04-15T12:01:56Z</time>
      </trkpt>
      <trkpt lat="48.43065" lon="2.1319">
        <ele>114</ele>
        <time>2011-04-15T12:01:57Z</time>
      </trkpt>
      <trkpt lat="48.43063" lon="2.1319">
        <ele>114</ele>
        <time>2011-04-15T12:01:58Z</time>
      </trkpt>
      <trkpt lat="48.43062" lon="2.1319">
        <ele>113</ele>
        <time>2011-04-15T12:01:59Z</time>
      </trkpt>
      <trkpt lat="48.4306" lon="2.1319">
        <ele>113</ele>
        <time>2011-04-15T12:02:00Z</time>
      </trkpt>
      <trkpt lat="48.43059" lon="2.1319">
        <ele>113</ele>
        <time>2011-04-15T12:02:01Z</time>
      </trkpt>
      <trkpt lat="48.43057" lon="2.13189">
        <ele>112</ele>
        <time>2011-04-15T12:02:02Z</time>
      </trkpt>
      <trkpt lat="48.43056" lon="2.13189">
        <ele>111</ele>
        <time>2011-04-15T12:02:03Z</time>
      </trkpt>
      <trkpt lat="48.43054" lon="2.13189">
        <ele>111</ele>
        <time>2011-04-15T12:02:04Z</time>
      </trkpt>
      <trkpt lat="48.43052" lon="2.13189">
        <ele>111</ele>
        <time>2011-04-15T12:02:05Z</time>
      </trkpt>
      <trkpt lat="48.43051" lon="2.13189">
        <ele>110</ele>
        <time>2011-04-15T12:02:06Z</time>
      </trkpt>
      <trkpt lat="48.43049" lon="2.13189">
        <ele>110</ele>
        <time>2011-04-15T12:02:07Z</time>
      </trkpt>
      <trkpt lat="48.43048" lon="2.13189">
        <ele>110</ele>
        <time>2011-04-15T12:02:08Z</time>
      </trkpt>
      <trkpt lat="48.43046" lon="2.13189">
        <ele>109</ele>
        <time>2011-04-15T12:02:09Z</time>
      </trkpt>
      <trkpt lat="48.43045" lon="2.13189">
        <ele>109</ele>
        <time>2011-04-15T12:02:10Z</time>
      </trkpt>
      <trkpt lat="48.43043" lon="2.13189">
        <ele>108</ele>
        <time>2011-04-15T12:02:11Z</time>
      </trkpt>
      <trkpt lat="48.43042" lon="2.13189">
        <ele>108</ele>
        <time>2011-04-15T12:02:12Z</time>
      </trkpt>
      <trkpt lat="48.43041" lon="2.13189">
        <ele>107</ele>
        <time>2011-04-15T12:02:13Z</time>
      </trkpt>
      <trkpt lat="48.43039" lon="2.1319">
        <ele>107</ele>
        <time>2011-04-15T12:02:14Z</time>
      </trkpt>
      <trkpt lat="48.43037" lon="2.1319">
        <ele>107</ele>
        <time>2011-04-15T12:02:15Z</time>
      </trkpt>
      <trkpt lat="48.43036" lon="2.1319">
        <ele>106</ele>
        <time>2011-04-15T12:02:16Z</time>
      </trkpt>
      <trkpt lat="48.43034" lon="2.1319">
        <ele>106</ele>
        <time>2011-04-15T12:02:17Z</time>
      </trkpt>
      <trkpt lat="48.43033" lon="2.13191">
        <ele>106</ele>
        <time>2011-04-15T12:02:18Z</time>
      </trkpt>
      <trkpt lat="48.43032" lon="2.13191">
        <ele>105</ele>
        <time>2011-04-15T12:02:19Z</time>
      </trkpt>
      <trkpt lat="48.4303" lon="2.13192">
        <ele>105</ele>
        <time>2011-04-15T12:02:20Z</time>
      </trkpt>
      <trkpt lat="48.43029" lon="2.13193">
        <ele>105</ele>
        <time>2011-04-15T12:02:21Z</time>
      </trkpt>
      <trkpt lat="48.43028" lon="2.13196">
        <ele>104</ele>
        <time>2011-04-15T12:02:23Z</time>
      </trkpt>
      <trkpt lat="48.43026" lon="2.13198">
        <ele>103</ele>
        <time>2011-04-15T12:02:25Z</time>
      </trkpt>
      <trkpt lat="48.43025" lon="2.13201">
        <ele>102</ele>
        <time>2011-04-15T12:02:27Z</time>
      </trkpt>
      <trkpt lat="48.43025" lon="2.13203">
        <ele>101</ele>
        <time>2011-04-15T12:02:28Z</time>
      </trkpt>
      <trkpt lat="48.43025" lon="2.13205">
        <ele>100</ele>
        <time>2011-04-15T12:02:29Z</time>
      </trkpt>
      <trkpt lat="48.43025" lon="2.13207">
        <ele>100</ele>
        <time>2011-04-15T12:02:30Z</time>
      </trkpt>
      <trkpt lat="48.43026" lon="2.13209">
        <ele>99</ele>
        <time>2011-04-15T12:02:31Z</time>
      </trkpt>
      <trkpt lat="48.43026" lon="2.13212">
        <ele>99</ele>
        <time>2011-04-15T12:02:32Z</time>
      </trkpt>
      <trkpt lat="48.43026" lon="2.13214">
        <ele>99</ele>
        <time>2011-04-15T12:02:33Z</time>
      </trkpt>
      <trkpt lat="48.43026" lon="2.13217">
        <ele>99</ele>
        <time>2011-04-15T12:02:34Z</time>
      </trkpt>
      <trkpt lat="48.43027" lon="2.13219">
        <ele>99</ele>
        <time>2011-04-15T12:02:35Z</time>
      </trkpt>
      <trkpt lat="48.43028" lon="2.13221">
        <ele>99</ele>
        <time>2011-04-15T12:02:36Z</time>
      </trkpt>
      <trkpt lat="48.43029" lon="2.13223">
        <ele>99</ele>
        <time>2011-04-15T12:02:37Z</time>
      </trkpt>
      <trkpt lat="48.4303" lon="2.13225">
        <ele>99</ele>
        <time>2011-04-15T12:02:38Z</time>
      </trkpt>
      <trkpt lat="48.43032" lon="2.13227">
        <ele>99</ele>
        <time>2011-04-15T12:02:39Z</time>
      </trkpt>
      <trkpt lat="48.43033" lon="2.13228">
        <ele>99</ele>
        <time>2011-04-15T12:02:40Z</time>
      </trkpt>
      <trkpt lat="48.43035" lon="2.13229">
        <ele>99</ele>
        <time>2011-04-15T12:02:41Z</time>
      </trkpt>
      <trkpt lat="48.43036" lon="2.13231">
        <ele>99</ele>
        <time>2011-04-15T12:02:42Z</time>
      </trkpt>
      <trkpt lat="48.43037" lon="2.13233">
        <ele>98</ele>
        <time>2011-04-15T12:02:43Z</time>
      </trkpt>
      <trkpt lat="48.43039" lon="2.13235">
        <ele>98</ele>
        <time>2011-04-15T12:02:44Z</time>
      </trkpt>
      <trkpt lat="48.43041" lon="2.13236">
        <ele>98</ele>
        <time>2011-04-15T12:02:45Z</time>
      </trkpt>
      <trkpt lat="48.43042" lon="2.13238">
        <ele>98</ele>
        <time>2011-04-15T12:02:46Z</time>
      </trkpt>
      <trkpt lat="48.43043" lon="2.1324">
        <ele>98</ele>
        <time>2011-04-15T12:02:47Z</time>
      </trkpt>
      <trkpt lat="48.43044" lon="2.13241">
        <ele>98</ele>
        <time>2011-04-15T12:02:48Z</time>
      </trkpt>
      <trkpt lat="48.43045" lon="2.13243">
        <ele>97</ele>
        <time>2011-04-15T12:02:49Z</time>
      </trkpt>
      <trkpt lat="48.43046" lon="2.13245">
        <ele>97</ele>
        <time>2011-04-15T12:02:50Z</time>
      </trkpt>
      <trkpt lat="48.43047" lon="2.13247">
        <ele>97</ele>
        <time>2011-04-15T12:02:51Z</time>
      </trkpt>
      <trkpt lat="48.43049" lon="2.13249">
        <ele>97</ele>
        <time>2011-04-15T12:02:52Z</time>
      </trkpt>
      <trkpt lat="48.4305" lon="2.1325">
        <ele>97</ele>
        <time>2011-04-15T12:02:53Z</time>
      </trkpt>
      <trkpt lat="48.43051" lon="2.13253">
        <ele>97</ele>
        <time>2011-04-15T12:02:54Z</time>
      </trkpt>
      <trkpt lat="48.43052" lon="2.13255">
        <ele>97</ele>
        <time>2011-04-15T12:02:55Z</time>
      </trkpt>
      <trkpt lat="48.43053" lon="2.13257">
        <ele>97</ele>
        <time>2011-04-15T12:02:56Z</time>
      </trkpt>
      <trkpt lat="48.43054" lon="2.13259">
        <ele>97</ele>
        <time>2011-04-15T12:02:57Z</time>
      </trkpt>
      <trkpt lat="48.43054" lon="2.13261">
        <ele>97</ele>
        <time>2011-04-15T12:02:58Z</time>
      </trkpt>
      <trkpt lat="48.43055" lon="2.13263">
        <ele>97</ele>
        <time>2011-04-15T12:02:59Z</time>
      </trkpt>
      <trkpt lat="48.43055" lon="2.13266">
        <ele>97</ele>
        <time>2011-04-15T12:03:00Z</time>
      </trkpt>
      <trkpt lat="48.43056" lon="2.13268">
        <ele>97</ele>
        <time>2011-04-15T12:03:01Z</time>
      </trkpt>
      <trkpt lat="48.43056" lon="2.1327">
        <ele>97</ele>
        <time>2011-04-15T12:03:02Z</time>
      </trkpt>
      <trkpt lat="48.43057" lon="2.13272">
        <ele>97</ele>
        <time>2011-04-15T12:03:03Z</time>
      </trkpt>
      <trkpt lat="48.43058" lon="2.13274">
        <ele>97</ele>
        <time>2011-04-15T12:03:04Z</time>
      </trkpt>
      <trkpt lat="48.43058" lon="2.13276">
        <ele>97</ele>
        <time>2011-04-15T12:03:05Z</time>
      </trkpt>
      <trkpt lat="48.43058" lon="2.13279">
        <ele>97</ele>
        <time>2011-04-15T12:03:06Z</time>
      </trkpt>
      <trkpt lat="48.43058" lon="2.13282">
        <ele>97</ele>
        <time>2011-04-15T12:03:07Z</time>
      </trkpt>
      <trkpt lat="48.43059" lon="2.13284">
        <ele>97</ele>
        <time>2011-04-15T12:03:08Z</time>
      </trkpt>
      <trkpt lat="48.43059" lon="2.13287">
        <ele>97</ele>
        <time>2011-04-15T12:03:09Z</time>
      </trkpt>
      <trkpt lat="48.4306" lon="2.1329">
        <ele>97</ele>
        <time>2011-04-15T12:03:10Z</time>
      </trkpt>
      <trkpt lat="48.4306" lon="2.13292">
        <ele>96</ele>
        <time>2011-04-15T12:03:11Z</time>
      </trkpt>
      <trkpt lat="48.43061" lon="2.13294">
        <ele>96</ele>
        <time>2011-04-15T12:03:12Z</time>
      </trkpt>
      <trkpt lat="48.43061" lon="2.13297">
        <ele>96</ele>
        <time>2011-04-15T12:03:13Z</time>
      </trkpt>
      <trkpt lat="48.43061" lon="2.13299">
        <ele>96</ele>
        <time>2011-04-15T12:03:14Z</time>
      </trkpt>
      <trkpt lat="48.43061" lon="2.13302">
        <ele>96</ele>
        <time>2011-04-15T12:03:15Z</time>
      </trkpt>
      <trkpt lat="48.43061" lon="2.13305">
        <ele>96</ele>
        <time>2011-04-15T12:03:16Z</time>
      </trkpt>
      <trkpt lat="48.43061" lon="2.13308">
        <ele>96</ele>
        <time>2011-04-15T12:03:17Z</time>
      </trkpt>
      <trkpt lat="48.43061" lon="2.13311">
        <ele>96</ele>
        <time>2011-04-15T12:03:18Z</time>
      </trkpt>
      <trkpt lat="48.43061" lon="2.13314">
        <ele>96</ele>
        <time>2011-04-15T12:03:19Z</time>
      </trkpt>
      <trkpt lat="48.4306" lon="2.13317">
        <ele>96</ele>
        <time>2011-04-15T12:03:20Z</time>
      </trkpt>
      <trkpt lat="48.4306" lon="2.1332">
        <ele>96</ele>
        <time>2011-04-15T12:03:21Z</time>
      </trkpt>
      <trkpt lat="48.43059" lon="2.13322">
        <ele>96</ele>
        <time>2011-04-15T12:03:22Z</time>
      </trkpt>
      <trkpt lat="48.43058" lon="2.13325">
        <ele>96</ele>
        <time>2011-04-15T12:03:23Z</time>
      </trkpt>
      <trkpt lat="48.43058" lon="2.13328">
        <ele>96</ele>
        <time>2011-04-15T12:03:24Z</time>
      </trkpt>
      <trkpt lat="48.43057" lon="2.1333">
        <ele>96</ele>
        <time>2011-04-15T12:03:25Z</time>
      </trkpt>
      <trkpt lat="48.43056" lon="2.13333">
        <ele>96</ele>
        <time>2011-04-15T12:03:26Z</time>
      </trkpt>
      <trkpt lat="48.43056" lon="2.13335">
        <ele>96</ele>
        <time>2011-04-15T12:03:27Z</time>
      </trkpt>
      <trkpt lat="48.43055" lon="2.13337">
        <ele>96</ele>
        <time>2011-04-15T12:03:28Z</time>
      </trkpt>
      <trkpt lat="48.43054" lon="2.1334">
        <ele>96</ele>
        <time>2011-04-15T12:03:29Z</time>
      </trkpt>
      <trkpt lat="48.43054" lon="2.13342">
        <ele>96</ele>
        <time>2011-04-15T12:03:30Z</time>
      </trkpt>
      <trkpt lat="48.43053" lon="2.13344">
        <ele>96</ele>
        <time>2011-04-15T12:03:31Z</time>
      </trkpt>
      <trkpt lat="48.43052" lon="2.13346">
        <ele>96</ele>
        <time>2011-04-15T12:03:32Z</time>
      </trkpt>
      <trkpt lat="48.43052" lon="2.13348">
        <ele>96</ele>
        <time>2011-04-15T12:03:33Z</time>
      </trkpt>
      <trkpt lat="48.43051" lon="2.13351">
        <ele>96</ele>
        <time>2011-04-15T12:03:34Z</time>
      </trkpt>
      <trkpt lat="48.4305" lon="2.13353">
        <ele>96</ele>
        <time>2011-04-15T12:03:35Z</time>
      </trkpt>
      <trkpt lat="48.43049" lon="2.13356">
        <ele>96</ele>
        <time>2011-04-15T12:03:36Z</time>
      </trkpt>
      <trkpt lat="48.43048" lon="2.13358">
        <ele>96</ele>
        <time>2011-04-15T12:03:37Z</time>
      </trkpt>
      <trkpt lat="48.43047" lon="2.1336">
        <ele>96</ele>
        <time>2011-04-15T12:03:38Z</time>
      </trkpt>
      <trkpt lat="48.43046" lon="2.13362">
        <ele>96</ele>
        <time>2011-04-15T12:03:39Z</time>
      </trkpt>
      <trkpt lat="48.43045" lon="2.13364">
        <ele>96</ele>
        <time>2011-04-15T12:03:40Z</time>
      </trkpt>
      <trkpt lat="48.43044" lon="2.13366">
        <ele>96</ele>
        <time>2011-04-15T12:03:41Z</time>
      </trkpt>
      <trkpt lat="48.43044" lon="2.13368">
        <ele>96</ele>
        <time>2011-04-15T12:03:42Z</time>
      </trkpt>
      <trkpt lat="48.43043" lon="2.1337">
        <ele>96</ele>
        <time>2011-04-15T12:03:43Z</time>
      </trkpt>
      <trkpt lat="48.43042" lon="2.13372">
        <ele>96</ele>
        <time>2011-04-15T12:03:44Z</time>
      </trkpt>
      <trkpt lat="48.43041" lon="2.13374">
        <ele>96</ele>
        <time>2011-04-15T12:03:45Z</time>
      </trkpt>
      <trkpt lat="48.4304" lon="2.13376">
        <ele>96</ele>
        <time>2011-04-15T12:03:46Z</time>
      </trkpt>
      <trkpt lat="48.43039" lon="2.13378">
        <ele>96</ele>
        <time>2011-04-15T12:03:47Z</time>
      </trkpt>
      <trkpt lat="48.43038" lon="2.1338">
        <ele>96</ele>
        <time>2011-04-15T12:03:48Z</time>
      </trkpt>
      <trkpt lat="48.43038" lon="2.13382">
        <ele>96</ele>
        <time>2011-04-15T12:03:49Z</time>
      </trkpt>
      <trkpt lat="48.43037" lon="2.13384">
        <ele>96</ele>
        <time>2011-04-15T12:03:50Z</time>
      </trkpt>
      <trkpt lat="48.43036" lon="2.13386">
        <ele>96</ele>
        <time>2011-04-15T12:03:51Z</time>
      </trkpt>
      <trkpt lat="48.43035" lon="2.13388">
        <ele>96</ele>
        <time>2011-04-15T12:03:52Z</time>
      </trkpt>
      <trkpt lat="48.43034" lon="2.1339">
        <ele>96</ele>
        <time>2011-04-15T12:03:53Z</time>
      </trkpt>
      <trkpt lat="48.43033" lon="2.13391">
        <ele>96</ele>
        <time>2011-04-15T12:03:54Z</time>
      </trkpt>
      <trkpt lat="48.43031" lon="2.13395">
        <ele>96</ele>
        <time>2011-04-15T12:03:56Z</time>
      </trkpt>
      <trkpt lat="48.4303" lon="2.13396">
        <ele>96</ele>
        <time>2011-04-15T12:03:57Z</time>
      </trkpt>
      <trkpt lat="48.43028" lon="2.13399">
        <ele>96</ele>
        <time>2011-04-15T12:03:59Z</time>
      </trkpt>
      <trkpt lat="48.43027" lon="2.13402">
        <ele>96</ele>
        <time>2011-04-15T12:04:00Z</time>
      </trkpt>
      <trkpt lat="48.43027" lon="2.13404">
        <ele>96</ele>
        <time>2011-04-15T12:04:01Z</time>
      </trkpt>
      <trkpt lat="48.43026" lon="2.13406">
        <ele>96</ele>
        <time>2011-04-15T12:04:02Z</time>
      </trkpt>
      <trkpt lat="48.43026" lon="2.13409">
        <ele>96</ele>
        <time>2011-04-15T12:04:03Z</time>
      </trkpt>
      <trkpt lat="48.43025" lon="2.13411">
        <ele>96</ele>
        <time>2011-04-15T12:04:04Z</time>
      </trkpt>
      <trkpt lat="48.43025" lon="2.13413">
        <ele>96</ele>
        <time>2011-04-15T12:04:05Z</time>
      </trkpt>
      <trkpt lat="48.43025" lon="2.13415">
        <ele>96</ele>
        <time>2011-04-15T12:04:06Z</time>
      </trkpt>
      <trkpt lat="48.43024" lon="2.13418">
        <ele>96</ele>
        <time>2011-04-15T12:04:07Z</time>
      </trkpt>
      <trkpt lat="48.43024" lon="2.1342">
        <ele>96</ele>
        <time>2011-04-15T12:04:08Z</time>
      </trkpt>
      <trkpt lat="48.43024" lon="2.13423">
        <ele>96</ele>
        <time>2011-04-15T12:04:09Z</time>
      </trkpt>
      <trkpt lat="48.43024" lon="2.13425">
        <ele>96</ele>
        <time>2011-04-15T12:04:10Z</time>
      </trkpt>
      <trkpt lat="48.43024" lon="2.13428">
        <ele>96</ele>
        <time>2011-04-15T12:04:11Z</time>
      </trkpt>
      <trkpt lat="48.43024" lon="2.13431">
        <ele>96</ele>
        <time>2011-04-15T12:04:12Z</time>
      </trkpt>
      <trkpt lat="48.43024" lon="2.13434">
        <ele>96</ele>
        <time>2011-04-15T12:04:13Z</time>
      </trkpt>
      <trkpt lat="48.43024" lon="2.13436">
        <ele>96</ele>
        <time>2011-04-15T12:04:14Z</time>
      </trkpt>
      <trkpt lat="48.43023" lon="2.13439">
        <ele>96</ele>
        <time>2011-04-15T12:04:15Z</time>
      </trkpt>
      <trkpt lat="48.43023" lon="2.13441">
        <ele>96</ele>
        <time>2011-04-15T12:04:16Z</time>
      </trkpt>
      <trkpt lat="48.43023" lon="2.13443">
        <ele>96</ele>
        <time>2011-04-15T12:04:17Z</time>
      </trkpt>
      <trkpt lat="48.43023" lon="2.13445">
        <ele>96</ele>
        <time>2011-04-15T12:04:18Z</time>
      </trkpt>
      <trkpt lat="48.43023" lon="2.13447">
        <ele>96</ele>
        <time>2011-04-15T12:04:19Z</time>
      </trkpt>
      <trkpt lat="48.43023" lon="2.1345">
        <ele>96</ele>
        <time>2011-04-15T12:04:21Z</time>
      </trkpt>
      <trkpt lat="48.43022" lon="2.13453">
        <ele>96</ele>
        <time>2011-04-15T12:04:22Z</time>
      </trkpt>
      <trkpt lat="48.43022" lon="2.13455">
        <ele>96</ele>
        <time>2011-04-15T12:04:23Z</time>
      </trkpt>
      <trkpt lat="48.43022" lon="2.13457">
        <ele>96</ele>
        <time>2011-04-15T12:04:24Z</time>
      </trkpt>
      <trkpt lat="48.43022" lon="2.13459">
        <ele>96</ele>
        <time>2011-04-15T12:04:25Z</time>
      </trkpt>
      <trkpt lat="48.43022" lon="2.13462">
        <ele>95</ele>
        <time>2011-04-15T12:04:26Z</time>
      </trkpt>
      <trkpt lat="48.43022" lon="2.13464">
        <ele>95</ele>
        <time>2011-04-15T12:04:27Z</time>
      </trkpt>
      <trkpt lat="48.43021" lon="2.13467">
        <ele>95</ele>
        <time>2011-04-15T12:04:28Z</time>
      </trkpt>
      <trkpt lat="48.43021" lon="2.1347">
        <ele>95</ele>
        <time>2011-04-15T12:04:29Z</time>
      </trkpt>
      <trkpt lat="48.43021" lon="2.13473">
        <ele>94</ele>
        <time>2011-04-15T12:04:30Z</time>
      </trkpt>
      <trkpt lat="48.43021" lon="2.13476">
        <ele>94</ele>
        <time>2011-04-15T12:04:31Z</time>
      </trkpt>
      <trkpt lat="48.43021" lon="2.13479">
        <ele>94</ele>
        <time>2011-04-15T12:04:32Z</time>
      </trkpt>
      <trkpt lat="48.43021" lon="2.13481">
        <ele>94</ele>
        <time>2011-04-15T12:04:33Z</time>
      </trkpt>
      <trkpt lat="48.43021" lon="2.13483">
        <ele>94</ele>
        <time>2011-04-15T12:04:34Z</time>
      </trkpt>
      <trkpt lat="48.43021" lon="2.13486">
        <ele>94</ele>
        <time>2011-04-15T12:04:35Z</time>
      </trkpt>
      <trkpt lat="48.43021" lon="2.13488">
        <ele>94</ele>
        <time>2011-04-15T12:04:36Z</time>
      </trkpt>
      <trkpt lat="48.43021" lon="2.13491">
        <ele>94</ele>
        <time>2011-04-15T12:04:37Z</time>
      </trkpt>
      <trkpt lat="48.43021" lon="2.13493">
        <ele>94</ele>
        <time>2011-04-15T12:04:38Z</time>
      </trkpt>
      <trkpt lat="48.43021" lon="2.13495">
        <ele>94</ele>
        <time>2011-04-15T12:04:39Z</time>
      </trkpt>
      <trkpt lat="48.43021" lon="2.13498">
        <ele>94</ele>
        <time>2011-04-15T12:04:40Z</time>
      </trkpt>
      <trkpt lat="48.43021" lon="2.13501">
        <ele>94</ele>
        <time>2011-04-15T12:04:41Z</time>
      </trkpt>
      <trkpt lat="48.43021" lon="2.13503">
        <ele>94</ele>
        <time>2011-04-15T12:04:42Z</time>
      </trkpt>
      <trkpt lat="48.43021" lon="2.13506">
        <ele>94</ele>
        <time>2011-04-15T12:04:43Z</time>
      </trkpt>
      <trkpt lat="48.43021" lon="2.13508">
        <ele>94</ele>
        <time>2011-04-15T12:04:44Z</time>
      </trkpt>
      <trkpt lat="48.43021" lon="2.13511">
        <ele>94</ele>
        <time>2011-04-15T12:04:45Z</time>
      </trkpt>
      <trkpt lat="48.43021" lon="2.13514">
        <ele>94</ele>
        <time>2011-04-15T12:04:46Z</time>
      </trkpt>
      <trkpt lat="48.43021" lon="2.13516">
        <ele>94</ele>
        <time>2011-04-15T12:04:47Z</time>
      </trkpt>
      <trkpt lat="48.43021" lon="2.13519">
        <ele>93</ele>
        <time>2011-04-15T12:04:48Z</time>
      </trkpt>
      <trkpt lat="48.43021" lon="2.13521">
        <ele>93</ele>
        <time>2011-04-15T12:04:49Z</time>
      </trkpt>
      <trkpt lat="48.43021" lon="2.13524">
        <ele>93</ele>
        <time>2011-04-15T12:04:50Z</time>
      </trkpt>
      <trkpt lat="48.43021" lon="2.13526">
        <ele>93</ele>
        <time>2011-04-15T12:04:51Z</time>
      </trkpt>
      <trkpt lat="48.43021" lon="2.13528">
        <ele>93</ele>
        <time>2011-04-15T12:04:52Z</time>
      </trkpt>
      <trkpt lat="48.43021" lon="2.13531">
        <ele>93</ele>
        <time>2011-04-15T12:04:53Z</time>
      </trkpt>
      <trkpt lat="48.43021" lon="2.13533">
        <ele>93</ele>
        <time>2011-04-15T12:04:54Z</time>
      </trkpt>
      <trkpt lat="48.43021" lon="2.13535">
        <ele>93</ele>
        <time>2011-04-15T12:04:55Z</time>
      </trkpt>
      <trkpt lat="48.43021" lon="2.13538">
        <ele>93</ele>
        <time>2011-04-15T12:04:56Z</time>
      </trkpt>
      <trkpt lat="48.4302" lon="2.1354">
        <ele>93</ele>
        <time>2011-04-15T12:04:57Z</time>
      </trkpt>
      <trkpt lat="48.4302" lon="2.13542">
        <ele>93</ele>
        <time>2011-04-15T12:04:58Z</time>
      </trkpt>
      <trkpt lat="48.4302" lon="2.13545">
        <ele>93</ele>
        <time>2011-04-15T12:05:00Z</time>
      </trkpt>
      <trkpt lat="48.43021" lon="2.13542">
        <ele>93</ele>
        <time>2011-04-15T12:05:07Z</time>
      </trkpt>
      <trkpt lat="48.4302" lon="2.1354">
        <ele>93</ele>
        <time>2011-04-15T12:05:09Z</time>
      </trkpt>
      <trkpt lat="48.4302" lon="2.13537">
        <ele>93</ele>
        <time>2011-04-15T12:05:11Z</time>
      </trkpt>
      <trkpt lat="48.43019" lon="2.13536">
        <ele>93</ele>
        <time>2011-04-15T12:05:15Z</time>
      </trkpt>
      <trkpt lat="48.43019" lon="2.13534">
        <ele>93</ele>
        <time>2011-04-15T12:05:22Z</time>
      </trkpt>
      <trkpt lat="48.43017" lon="2.13533">
        <ele>93</ele>
        <time>2011-04-15T12:05:39Z</time>
      </trkpt>
      <trkpt lat="48.43017" lon="2.13535">
        <ele>93</ele>
        <time>2011-04-15T12:06:21Z</time>
      </trkpt>
      <trkpt lat="48.43017" lon="2.13533">
        <ele>93</ele>
        <time>2011-04-15T12:08:09Z</time>
      </trkpt>
      <trkpt lat="48.43018" lon="2.13533">
        <ele>93</ele>
        <time>2011-04-15T12:08:30Z</time>
      </trkpt>
      <trkpt lat="48.43019" lon="2.13534">
        <ele>93</ele>
        <time>2011-04-15T12:09:00Z</time>
      </trkpt>
      <trkpt lat="48.43019" lon="2.13536">
        <ele>93</ele>
        <time>2011-04-15T12:09:15Z</time>
      </trkpt>
      <trkpt lat="48.43019" lon="2.13538">
        <ele>93</ele>
        <time>2011-04-15T12:09:31Z</time>
      </trkpt>
      <trkpt lat="48.4302" lon="2.13539">
        <ele>93</ele>
        <time>2011-04-15T12:09:47Z</time>
      </trkpt>
      <trkpt lat="48.43019" lon="2.13541">
        <ele>93</ele>
        <time>2011-04-15T12:10:00Z</time>
      </trkpt>
      <trkpt lat="48.4302" lon="2.13542">
        <ele>93</ele>
        <time>2011-04-15T12:10:40Z</time>
      </trkpt>
      <trkpt lat="48.4302" lon="2.13545">
        <ele>93</ele>
        <time>2011-04-15T12:10:42Z</time>
      </trkpt>
      <trkpt lat="48.4302" lon="2.13548">
        <ele>93</ele>
        <time>2011-04-15T12:10:44Z</time>
      </trkpt>
      <trkpt lat="48.43019" lon="2.13551">
        <ele>93</ele>
        <time>2011-04-15T12:10:46Z</time>
      </trkpt>
      <trkpt lat="48.43018" lon="2.13554">
        <ele>93</ele>
        <time>2011-04-15T12:10:48Z</time>
      </trkpt>
      <trkpt lat="48.43018" lon="2.13557">
        <ele>93</ele>
        <time>2011-04-15T12:10:50Z</time>
      </trkpt>
      <trkpt lat="48.43017" lon="2.13559">
        <ele>93</ele>
        <time>2011-04-15T12:10:52Z</time>
      </trkpt>
      <trkpt lat="48.43016" lon="2.13561">
        <ele>93</ele>
        <time>2011-04-15T12:10:54Z</time>
      </trkpt>
      <trkpt lat="48.43015" lon="2.13563">
        <ele>93</ele>
        <time>2011-04-15T12:10:56Z</time>
      </trkpt>
      <trkpt lat="48.43014" lon="2.13566">
        <ele>93</ele>
        <time>2011-04-15T12:10:59Z</time>
      </trkpt>
      <trkpt lat="48.43014" lon="2.13568">
        <ele>93</ele>
        <time>2011-04-15T12:11:01Z</time>
      </trkpt>
      <trkpt lat="48.43014" lon="2.13571">
        <ele>93</ele>
        <time>2011-04-15T12:11:03Z</time>
      </trkpt>
      <trkpt lat="48.43013" lon="2.13572">
        <ele>93</ele>
        <time>2011-04-15T12:11:06Z</time>
      </trkpt>
      <trkpt lat="48.43013" lon="2.13574">
        <ele>93</ele>
        <time>2011-04-15T12:11:16Z</time>
      </trkpt>
      <trkpt lat="48.43013" lon="2.13577">
        <ele>93</ele>
        <time>2011-04-15T12:11:35Z</time>
      </trkpt>
      <trkpt lat="48.43013" lon="2.13579">
        <ele>93</ele>
        <time>2011-04-15T12:11:36Z</time>
      </trkpt>
      <trkpt lat="48.43012" lon="2.13581">
        <ele>93</ele>
        <time>2011-04-15T12:11:37Z</time>
      </trkpt>
      <trkpt lat="48.43012" lon="2.13583">
        <ele>93</ele>
        <time>2011-04-15T12:11:38Z</time>
      </trkpt>
      <trkpt lat="48.43011" lon="2.13585">
        <ele>93</ele>
        <time>2011-04-15T12:11:39Z</time>
      </trkpt>
      <trkpt lat="48.43011" lon="2.13587">
        <ele>93</ele>
        <time>2011-04-15T12:11:40Z</time>
      </trkpt>
      <trkpt lat="48.4301" lon="2.13589">
        <ele>93</ele>
        <time>2011-04-15T12:11:41Z</time>
      </trkpt>
      <trkpt lat="48.4301" lon="2.13591">
        <ele>93</ele>
        <time>2011-04-15T12:11:42Z</time>
      </trkpt>
      <trkpt lat="48.43009" lon="2.13593">
        <ele>93</ele>
        <time>2011-04-15T12:11:43Z</time>
      </trkpt>
      <trkpt lat="48.43009" lon="2.13595">
        <ele>93</ele>
        <time>2011-04-15T12:11:44Z</time>
      </trkpt>
      <trkpt lat="48.43008" lon="2.13597">
        <ele>93</ele>
        <time>2011-04-15T12:11:45Z</time>
      </trkpt>
      <trkpt lat="48.43008" lon="2.13599">
        <ele>93</ele>
        <time>2011-04-15T12:11:46Z</time>
      </trkpt>
      <trkpt lat="48.43007" lon="2.13601">
        <ele>93</ele>
        <time>2011-04-15T12:11:47Z</time>
      </trkpt>
      <trkpt lat="48.43007" lon="2.13603">
        <ele>93</ele>
        <time>2011-04-15T12:11:48Z</time>
      </trkpt>
      <trkpt lat="48.43006" lon="2.13605">
        <ele>93</ele>
        <time>2011-04-15T12:11:49Z</time>
      </trkpt>
      <trkpt lat="48.43006" lon="2.13607">
        <ele>93</ele>
        <time>2011-04-15T12:11:50Z</time>
      </trkpt>
      <trkpt lat="48.43005" lon="2.13609">
        <ele>93</ele>
        <time>2011-04-15T12:11:51Z</time>
      </trkpt>
      <trkpt lat="48.43005" lon="2.13611">
        <ele>93</ele>
        <time>2011-04-15T12:11:52Z</time>
      </trkpt>
      <trkpt lat="48.43004" lon="2.13613">
        <ele>93</ele>
        <time>2011-04-15T12:11:53Z</time>
      </trkpt>
      <trkpt lat="48.43004" lon="2.13615">
        <ele>93</ele>
        <time>2011-04-15T12:11:54Z</time>
      </trkpt>
      <trkpt lat="48.43003" lon="2.13617">
        <ele>92</ele>
        <time>2011-04-15T12:11:55Z</time>
      </trkpt>
      <trkpt lat="48.43003" lon="2.13619">
        <ele>92</ele>
        <time>2011-04-15T12:11:56Z</time>
      </trkpt>
      <trkpt lat="48.43002" lon="2.13621">
        <ele>92</ele>
        <time>2011-04-15T12:11:57Z</time>
      </trkpt>
      <trkpt lat="48.43001" lon="2.13623">
        <ele>92</ele>
        <time>2011-04-15T12:11:58Z</time>
      </trkpt>
      <trkpt lat="48.43001" lon="2.13625">
        <ele>92</ele>
        <time>2011-04-15T12:11:59Z</time>
      </trkpt>
      <trkpt lat="48.43" lon="2.13627">
        <ele>92</ele>
        <time>2011-04-15T12:12:00Z</time>
      </trkpt>
      <trkpt lat="48.43" lon="2.1363">
        <ele>92</ele>
        <time>2011-04-15T12:12:01Z</time>
      </trkpt>
      <trkpt lat="48.42999" lon="2.13632">
        <ele>92</ele>
        <time>2011-04-15T12:12:02Z</time>
      </trkpt>
      <trkpt lat="48.42998" lon="2.13633">
        <ele>91</ele>
        <time>2011-04-15T12:12:03Z</time>
      </trkpt>
      <trkpt lat="48.42998" lon="2.13635">
        <ele>91</ele>
        <time>2011-04-15T12:12:04Z</time>
      </trkpt>
      <trkpt lat="48.42997" lon="2.13637">
        <ele>91</ele>
        <time>2011-04-15T12:12:05Z</time>
      </trkpt>
      <trkpt lat="48.42996" lon="2.13639">
        <ele>91</ele>
        <time>2011-04-15T12:12:06Z</time>
      </trkpt>
      <trkpt lat="48.42996" lon="2.13641">
        <ele>90</ele>
        <time>2011-04-15T12:12:07Z</time>
      </trkpt>
      <trkpt lat="48.42995" lon="2.13643">
        <ele>90</ele>
        <time>2011-04-15T12:12:08Z</time>
      </trkpt>
      <trkpt lat="48.42994" lon="2.13645">
        <ele>90</ele>
        <time>2011-04-15T12:12:09Z</time>
      </trkpt>
      <trkpt lat="48.42994" lon="2.13647">
        <ele>90</ele>
        <time>2011-04-15T12:12:10Z</time>
      </trkpt>
      <trkpt lat="48.42993" lon="2.13649">
        <ele>90</ele>
        <time>2011-04-15T12:12:11Z</time>
      </trkpt>
      <trkpt lat="48.42992" lon="2.13651">
        <ele>90</ele>
        <time>2011-04-15T12:12:12Z</time>
      </trkpt>
      <trkpt lat="48.42991" lon="2.13653">
        <ele>90</ele>
        <time>2011-04-15T12:12:13Z</time>
      </trkpt>
      <trkpt lat="48.42991" lon="2.13654">
        <ele>90</ele>
        <time>2011-04-15T12:12:14Z</time>
      </trkpt>
      <trkpt lat="48.4299" lon="2.13656">
        <ele>90</ele>
        <time>2011-04-15T12:12:15Z</time>
      </trkpt>
      <trkpt lat="48.42989" lon="2.1366">
        <ele>90</ele>
        <time>2011-04-15T12:12:17Z</time>
      </trkpt>
      <trkpt lat="48.42988" lon="2.13662">
        <ele>90</ele>
        <time>2011-04-15T12:12:18Z</time>
      </trkpt>
      <trkpt lat="48.42987" lon="2.13664">
        <ele>90</ele>
        <time>2011-04-15T12:12:19Z</time>
      </trkpt>
      <trkpt lat="48.42986" lon="2.13666">
        <ele>90</ele>
        <time>2011-04-15T12:12:20Z</time>
      </trkpt>
      <trkpt lat="48.42986" lon="2.13667">
        <ele>90</ele>
        <time>2011-04-15T12:12:21Z</time>
      </trkpt>
      <trkpt lat="48.42985" lon="2.13669">
        <ele>90</ele>
        <time>2011-04-15T12:12:22Z</time>
      </trkpt>
      <trkpt lat="48.42984" lon="2.13671">
        <ele>90</ele>
        <time>2011-04-15T12:12:23Z</time>
      </trkpt>
      <trkpt lat="48.42983" lon="2.13673">
        <ele>90</ele>
        <time>2011-04-15T12:12:24Z</time>
      </trkpt>
      <trkpt lat="48.42982" lon="2.13675">
        <ele>90</ele>
        <time>2011-04-15T12:12:25Z</time>
      </trkpt>
      <trkpt lat="48.42981" lon="2.13677">
        <ele>90</ele>
        <time>2011-04-15T12:12:26Z</time>
      </trkpt>
      <trkpt lat="48.4298" lon="2.13678">
        <ele>90</ele>
        <time>2011-04-15T12:12:27Z</time>
      </trkpt>
      <trkpt lat="48.42979" lon="2.1368">
        <ele>90</ele>
        <time>2011-04-15T12:12:28Z</time>
      </trkpt>
      <trkpt lat="48.42978" lon="2.13682">
        <ele>90</ele>
        <time>2011-04-15T12:12:29Z</time>
      </trkpt>
      <trkpt lat="48.42977" lon="2.13684">
        <ele>90</ele>
        <time>2011-04-15T12:12:30Z</time>
      </trkpt>
      <trkpt lat="48.42976" lon="2.13685">
        <ele>90</ele>
        <time>2011-04-15T12:12:31Z</time>
      </trkpt>
      <trkpt lat="48.42975" lon="2.13687">
        <ele>90</ele>
        <time>2011-04-15T12:12:32Z</time>
      </trkpt>
      <trkpt lat="48.42973" lon="2.13688">
        <ele>90</ele>
        <time>2011-04-15T12:12:33Z</time>
      </trkpt>
      <trkpt lat="48.42972" lon="2.1369">
        <ele>90</ele>
        <time>2011-04-15T12:12:34Z</time>
      </trkpt>
      <trkpt lat="48.42971" lon="2.13691">
        <ele>90</ele>
        <time>2011-04-15T12:12:35Z</time>
      </trkpt>
      <trkpt lat="48.4297" lon="2.13692">
        <ele>90</ele>
        <time>2011-04-15T12:12:36Z</time>
      </trkpt>
      <trkpt lat="48.42968" lon="2.13693">
        <ele>90</ele>
        <time>2011-04-15T12:12:37Z</time>
      </trkpt>
      <trkpt lat="48.42966" lon="2.13695">
        <ele>90</ele>
        <time>2011-04-15T12:12:39Z</time>
      </trkpt>
      <trkpt lat="48.42965" lon="2.13696">
        <ele>90</ele>
        <time>2011-04-15T12:12:40Z</time>
      </trkpt>
      <trkpt lat="48.42964" lon="2.13697">
        <ele>90</ele>
        <time>2011-04-15T12:12:41Z</time>
      </trkpt>
      <trkpt lat="48.42962" lon="2.13698">
        <ele>90</ele>
        <time>2011-04-15T12:12:42Z</time>
      </trkpt>
      <trkpt lat="48.42961" lon="2.13699">
        <ele>89</ele>
        <time>2011-04-15T12:12:43Z</time>
      </trkpt>
      <trkpt lat="48.4296" lon="2.13701">
        <ele>89</ele>
        <time>2011-04-15T12:12:44Z</time>
      </trkpt>
      <trkpt lat="48.42958" lon="2.13703">
        <ele>89</ele>
        <time>2011-04-15T12:12:46Z</time>
      </trkpt>
      <trkpt lat="48.42956" lon="2.13706">
        <ele>89</ele>
        <time>2011-04-15T12:12:48Z</time>
      </trkpt>
      <trkpt lat="48.42954" lon="2.13708">
        <ele>88</ele>
        <time>2011-04-15T12:12:50Z</time>
      </trkpt>
      <trkpt lat="48.42953" lon="2.1371">
        <ele>88</ele>
        <time>2011-04-15T12:12:51Z</time>
      </trkpt>
      <trkpt lat="48.42952" lon="2.13712">
        <ele>88</ele>
        <time>2011-04-15T12:12:52Z</time>
      </trkpt>
      <trkpt lat="48.4295" lon="2.13714">
        <ele>87</ele>
        <time>2011-04-15T12:12:54Z</time>
      </trkpt>
      <trkpt lat="48.42948" lon="2.13717">
        <ele>87</ele>
        <time>2011-04-15T12:12:56Z</time>
      </trkpt>
      <trkpt lat="48.42946" lon="2.1372">
        <ele>87</ele>
        <time>2011-04-15T12:12:58Z</time>
      </trkpt>
      <trkpt lat="48.42944" lon="2.13723">
        <ele>86</ele>
        <time>2011-04-15T12:13:00Z</time>
      </trkpt>
      <trkpt lat="48.42943" lon="2.13725">
        <ele>86</ele>
        <time>2011-04-15T12:13:01Z</time>
      </trkpt>
      <trkpt lat="48.42942" lon="2.13727">
        <ele>86</ele>
        <time>2011-04-15T12:13:02Z</time>
      </trkpt>
      <trkpt lat="48.42941" lon="2.13728">
        <ele>86</ele>
        <time>2011-04-15T12:13:03Z</time>
      </trkpt>
      <trkpt lat="48.42939" lon="2.13732">
        <ele>86</ele>
        <time>2011-04-15T12:13:05Z</time>
      </trkpt>
      <trkpt lat="48.42938" lon="2.13733">
        <ele>86</ele>
        <time>2011-04-15T12:13:06Z</time>
      </trkpt>
      <trkpt lat="48.42937" lon="2.13735">
        <ele>86</ele>
        <time>2011-04-15T12:13:07Z</time>
      </trkpt>
      <trkpt lat="48.42936" lon="2.13737">
        <ele>86</ele>
        <time>2011-04-15T12:13:08Z</time>
      </trkpt>
      <trkpt lat="48.42935" lon="2.1374">
        <ele>86</ele>
        <time>2011-04-15T12:13:09Z</time>
      </trkpt>
      <trkpt lat="48.42934" lon="2.13741">
        <ele>86</ele>
        <time>2011-04-15T12:13:10Z</time>
      </trkpt>
      <trkpt lat="48.42934" lon="2.13743">
        <ele>86</ele>
        <time>2011-04-15T12:13:11Z</time>
      </trkpt>
      <trkpt lat="48.42933" lon="2.13745">
        <ele>86</ele>
        <time>2011-04-15T12:13:12Z</time>
      </trkpt>
      <trkpt lat="48.42932" lon="2.13746">
        <ele>86</ele>
        <time>2011-04-15T12:13:13Z</time>
      </trkpt>
      <trkpt lat="48.42931" lon="2.13748">
        <ele>86</ele>
        <time>2011-04-15T12:13:14Z</time>
      </trkpt>
      <trkpt lat="48.42931" lon="2.1375">
        <ele>86</ele>
        <time>2011-04-15T12:13:15Z</time>
      </trkpt>
      <trkpt lat="48.4293" lon="2.13751">
        <ele>86</ele>
        <time>2011-04-15T12:13:16Z</time>
      </trkpt>
      <trkpt lat="48.42929" lon="2.13753">
        <ele>86</ele>
        <time>2011-04-15T12:13:17Z</time>
      </trkpt>
      <trkpt lat="48.42928" lon="2.13755">
        <ele>86</ele>
        <time>2011-04-15T12:13:18Z</time>
      </trkpt>
      <trkpt lat="48.42927" lon="2.13757">
        <ele>86</ele>
        <time>2011-04-15T12:13:20Z</time>
      </trkpt>
      <trkpt lat="48.42926" lon="2.1376">
        <ele>86</ele>
        <time>2011-04-15T12:13:21Z</time>
      </trkpt>
      <trkpt lat="48.42925" lon="2.13762">
        <ele>86</ele>
        <time>2011-04-15T12:13:22Z</time>
      </trkpt>
      <trkpt lat="48.42924" lon="2.13764">
        <ele>86</ele>
        <time>2011-04-15T12:13:23Z</time>
      </trkpt>
      <trkpt lat="48.42924" lon="2.13766">
        <ele>86</ele>
        <time>2011-04-15T12:13:24Z</time>
      </trkpt>
      <trkpt lat="48.42923" lon="2.13768">
        <ele>86</ele>
        <time>2011-04-15T12:13:25Z</time>
      </trkpt>
      <trkpt lat="48.42922" lon="2.13769">
        <ele>86</ele>
        <time>2011-04-15T12:13:26Z</time>
      </trkpt>
      <trkpt lat="48.42921" lon="2.13772">
        <ele>86</ele>
        <time>2011-04-15T12:13:27Z</time>
      </trkpt>
      <trkpt lat="48.42921" lon="2.13773">
        <ele>86</ele>
        <time>2011-04-15T12:13:28Z</time>
      </trkpt>
      <trkpt lat="48.4292" lon="2.13775">
        <ele>86</ele>
        <time>2011-04-15T12:13:29Z</time>
      </trkpt>
      <trkpt lat="48.42919" lon="2.13778">
        <ele>86</ele>
        <time>2011-04-15T12:13:30Z</time>
      </trkpt>
      <trkpt lat="48.42918" lon="2.1378">
        <ele>86</ele>
        <time>2011-04-15T12:13:31Z</time>
      </trkpt>
      <trkpt lat="48.42917" lon="2.13782">
        <ele>86</ele>
        <time>2011-04-15T12:13:32Z</time>
      </trkpt>
      <trkpt lat="48.42917" lon="2.13784">
        <ele>86</ele>
        <time>2011-04-15T12:13:33Z</time>
      </trkpt>
      <trkpt lat="48.42917" lon="2.13786">
        <ele>86</ele>
        <time>2011-04-15T12:13:34Z</time>
      </trkpt>
      <trkpt lat="48.42916" lon="2.13788">
        <ele>86</ele>
        <time>2011-04-15T12:13:35Z</time>
      </trkpt>
      <trkpt lat="48.42916" lon="2.1379">
        <ele>86</ele>
        <time>2011-04-15T12:13:36Z</time>
      </trkpt>
      <trkpt lat="48.42915" lon="2.13792">
        <ele>86</ele>
        <time>2011-04-15T12:13:37Z</time>
      </trkpt>
      <trkpt lat="48.42915" lon="2.13795">
        <ele>86</ele>
        <time>2011-04-15T12:13:38Z</time>
      </trkpt>
      <trkpt lat="48.42914" lon="2.13797">
        <ele>86</ele>
        <time>2011-04-15T12:13:39Z</time>
      </trkpt>
      <trkpt lat="48.42914" lon="2.13799">
        <ele>86</ele>
        <time>2011-04-15T12:13:40Z</time>
      </trkpt>
      <trkpt lat="48.42914" lon="2.138">
        <ele>85</ele>
        <time>2011-04-15T12:13:41Z</time>
      </trkpt>
      <trkpt lat="48.42913" lon="2.13802">
        <ele>85</ele>
        <time>2011-04-15T12:13:42Z</time>
      </trkpt>
      <trkpt lat="48.42913" lon="2.13805">
        <ele>85</ele>
        <time>2011-04-15T12:13:43Z</time>
      </trkpt>
      <trkpt lat="48.42913" lon="2.13806">
        <ele>85</ele>
        <time>2011-04-15T12:13:44Z</time>
      </trkpt>
      <trkpt lat="48.42912" lon="2.13808">
        <ele>85</ele>
        <time>2011-04-15T12:13:45Z</time>
      </trkpt>
      <trkpt lat="48.42912" lon="2.13811">
        <ele>85</ele>
        <time>2011-04-15T12:13:46Z</time>
      </trkpt>
      <trkpt lat="48.42911" lon="2.13813">
        <ele>85</ele>
        <time>2011-04-15T12:13:47Z</time>
      </trkpt>
      <trkpt lat="48.42911" lon="2.13814">
        <ele>85</ele>
        <time>2011-04-15T12:13:48Z</time>
      </trkpt>
      <trkpt lat="48.4291" lon="2.13817">
        <ele>85</ele>
        <time>2011-04-15T12:13:49Z</time>
      </trkpt>
      <trkpt lat="48.42909" lon="2.13819">
        <ele>85</ele>
        <time>2011-04-15T12:13:50Z</time>
      </trkpt>
      <trkpt lat="48.42908" lon="2.13821">
        <ele>85</ele>
        <time>2011-04-15T12:13:51Z</time>
      </trkpt>
      <trkpt lat="48.42908" lon="2.13823">
        <ele>85</ele>
        <time>2011-04-15T12:13:52Z</time>
      </trkpt>
      <trkpt lat="48.42907" lon="2.13825">
        <ele>85</ele>
        <time>2011-04-15T12:13:53Z</time>
      </trkpt>
      <trkpt lat="48.42906" lon="2.13827">
        <ele>85</ele>
        <time>2011-04-15T12:13:54Z</time>
      </trkpt>
      <trkpt lat="48.42905" lon="2.13829">
        <ele>85</ele>
        <time>2011-04-15T12:13:55Z</time>
      </trkpt>
      <trkpt lat="48.42905" lon="2.13831">
        <ele>85</ele>
        <time>2011-04-15T12:13:56Z</time>
      </trkpt>
      <trkpt lat="48.42904" lon="2.13833">
        <ele>85</ele>
        <time>2011-04-15T12:13:57Z</time>
      </trkpt>
      <trkpt lat="48.42902" lon="2.13836">
        <ele>85</ele>
        <time>2011-04-15T12:13:59Z</time>
      </trkpt>
      <trkpt lat="48.42901" lon="2.13838">
        <ele>85</ele>
        <time>2011-04-15T12:14:00Z</time>
      </trkpt>
      <trkpt lat="48.42901" lon="2.1384">
        <ele>85</ele>
        <time>2011-04-15T12:14:01Z</time>
      </trkpt>
      <trkpt lat="48.429" lon="2.13843">
        <ele>85</ele>
        <time>2011-04-15T12:14:02Z</time>
      </trkpt>
      <trkpt lat="48.42899" lon="2.13845">
        <ele>85</ele>
        <time>2011-04-15T12:14:03Z</time>
      </trkpt>
      <trkpt lat="48.42898" lon="2.13847">
        <ele>85</ele>
        <time>2011-04-15T12:14:04Z</time>
      </trkpt>
      <trkpt lat="48.42898" lon="2.1385">
        <ele>85</ele>
        <time>2011-04-15T12:14:05Z</time>
      </trkpt>
      <trkpt lat="48.42897" lon="2.13852">
        <ele>85</ele>
        <time>2011-04-15T12:14:06Z</time>
      </trkpt>
      <trkpt lat="48.42896" lon="2.13854">
        <ele>85</ele>
        <time>2011-04-15T12:14:07Z</time>
      </trkpt>
      <trkpt lat="48.42895" lon="2.13856">
        <ele>85</ele>
        <time>2011-04-15T12:14:08Z</time>
      </trkpt>
      <trkpt lat="48.42894" lon="2.13858">
        <ele>85</ele>
        <time>2011-04-15T12:14:09Z</time>
      </trkpt>
      <trkpt lat="48.42893" lon="2.1386">
        <ele>85</ele>
        <time>2011-04-15T12:14:10Z</time>
      </trkpt>
      <trkpt lat="48.42892" lon="2.13862">
        <ele>85</ele>
        <time>2011-04-15T12:14:11Z</time>
      </trkpt>
      <trkpt lat="48.42891" lon="2.13864">
        <ele>85</ele>
        <time>2011-04-15T12:14:12Z</time>
      </trkpt>
      <trkpt lat="48.4289" lon="2.13866">
        <ele>85</ele>
        <time>2011-04-15T12:14:13Z</time>
      </trkpt>
      <trkpt lat="48.42889" lon="2.13867">
        <ele>85</ele>
        <time>2011-04-15T12:14:14Z</time>
      </trkpt>
      <trkpt lat="48.42889" lon="2.13869">
        <ele>85</ele>
        <time>2011-04-15T12:14:15Z</time>
      </trkpt>
      <trkpt lat="48.42887" lon="2.13872">
        <ele>85</ele>
        <time>2011-04-15T12:14:17Z</time>
      </trkpt>
      <trkpt lat="48.42886" lon="2.13874">
        <ele>85</ele>
        <time>2011-04-15T12:14:18Z</time>
      </trkpt>
      <trkpt lat="48.42885" lon="2.13876">
        <ele>85</ele>
        <time>2011-04-15T12:14:19Z</time>
      </trkpt>
      <trkpt lat="48.42884" lon="2.13878">
        <ele>85</ele>
        <time>2011-04-15T12:14:20Z</time>
      </trkpt>
      <trkpt lat="48.42884" lon="2.1388">
        <ele>85</ele>
        <time>2011-04-15T12:14:21Z</time>
      </trkpt>
      <trkpt lat="48.42883" lon="2.13882">
        <ele>85</ele>
        <time>2011-04-15T12:14:22Z</time>
      </trkpt>
      <trkpt lat="48.42882" lon="2.13884">
        <ele>85</ele>
        <time>2011-04-15T12:14:23Z</time>
      </trkpt>
      <trkpt lat="48.42882" lon="2.13886">
        <ele>85</ele>
        <time>2011-04-15T12:14:24Z</time>
      </trkpt>
      <trkpt lat="48.42881" lon="2.13889">
        <ele>85</ele>
        <time>2011-04-15T12:14:25Z</time>
      </trkpt>
      <trkpt lat="48.4288" lon="2.1389">
        <ele>85</ele>
        <time>2011-04-15T12:14:26Z</time>
      </trkpt>
      <trkpt lat="48.42879" lon="2.13892">
        <ele>85</ele>
        <time>2011-04-15T12:14:27Z</time>
      </trkpt>
      <trkpt lat="48.42876" lon="2.13895">
        <ele>85</ele>
        <time>2011-04-15T12:14:29Z</time>
      </trkpt>
      <trkpt lat="48.42875" lon="2.13897">
        <ele>85</ele>
        <time>2011-04-15T12:14:30Z</time>
      </trkpt>
      <trkpt lat="48.42874" lon="2.13898">
        <ele>85</ele>
        <time>2011-04-15T12:14:31Z</time>
      </trkpt>
      <trkpt lat="48.42873" lon="2.13899">
        <ele>85</ele>
        <time>2011-04-15T12:14:32Z</time>
      </trkpt>
      <trkpt lat="48.4287" lon="2.13902">
        <ele>85</ele>
        <time>2011-04-15T12:14:34Z</time>
      </trkpt>
      <trkpt lat="48.42869" lon="2.13904">
        <ele>85</ele>
        <time>2011-04-15T12:14:35Z</time>
      </trkpt>
      <trkpt lat="48.42867" lon="2.13906">
        <ele>85</ele>
        <time>2011-04-15T12:14:36Z</time>
      </trkpt>
      <trkpt lat="48.42866" lon="2.13908">
        <ele>85</ele>
        <time>2011-04-15T12:14:37Z</time>
      </trkpt>
      <trkpt lat="48.42865" lon="2.1391">
        <ele>85</ele>
        <time>2011-04-15T12:14:38Z</time>
      </trkpt>
      <trkpt lat="48.42863" lon="2.13911">
        <ele>85</ele>
        <time>2011-04-15T12:14:39Z</time>
      </trkpt>
      <trkpt lat="48.42862" lon="2.13912">
        <ele>85</ele>
        <time>2011-04-15T12:14:40Z</time>
      </trkpt>
      <trkpt lat="48.4286" lon="2.13913">
        <ele>85</ele>
        <time>2011-04-15T12:14:41Z</time>
      </trkpt>
      <trkpt lat="48.42859" lon="2.13914">
        <ele>85</ele>
        <time>2011-04-15T12:14:42Z</time>
      </trkpt>
      <trkpt lat="48.42857" lon="2.13916">
        <ele>85</ele>
        <time>2011-04-15T12:14:43Z</time>
      </trkpt>
      <trkpt lat="48.42855" lon="2.13917">
        <ele>85</ele>
        <time>2011-04-15T12:14:44Z</time>
      </trkpt>
      <trkpt lat="48.42854" lon="2.13919">
        <ele>85</ele>
        <time>2011-04-15T12:14:45Z</time>
      </trkpt>
      <trkpt lat="48.42853" lon="2.13919">
        <ele>85</ele>
        <time>2011-04-15T12:14:46Z</time>
      </trkpt>
      <trkpt lat="48.42851" lon="2.13919">
        <ele>85</ele>
        <time>2011-04-15T12:14:47Z</time>
      </trkpt>
      <trkpt lat="48.42849" lon="2.13919">
        <ele>84</ele>
        <time>2011-04-15T12:14:49Z</time>
      </trkpt>
      <trkpt lat="48.42848" lon="2.1392">
        <ele>83</ele>
        <time>2011-04-15T12:14:50Z</time>
      </trkpt>
      <trkpt lat="48.42846" lon="2.1392">
        <ele>83</ele>
        <time>2011-04-15T12:14:51Z</time>
      </trkpt>
      <trkpt lat="48.42845" lon="2.13922">
        <ele>82</ele>
        <time>2011-04-15T12:14:52Z</time>
      </trkpt>
      <trkpt lat="48.42843" lon="2.13922">
        <ele>81</ele>
        <time>2011-04-15T12:14:53Z</time>
      </trkpt>
      <trkpt lat="48.42842" lon="2.13923">
        <ele>81</ele>
        <time>2011-04-15T12:14:54Z</time>
      </trkpt>
      <trkpt lat="48.42841" lon="2.13923">
        <ele>80</ele>
        <time>2011-04-15T12:14:55Z</time>
      </trkpt>
      <trkpt lat="48.42839" lon="2.13924">
        <ele>80</ele>
        <time>2011-04-15T12:14:56Z</time>
      </trkpt>
      <trkpt lat="48.42838" lon="2.13926">
        <ele>79</ele>
        <time>2011-04-15T12:14:57Z</time>
      </trkpt>
      <trkpt lat="48.42837" lon="2.13926">
        <ele>79</ele>
        <time>2011-04-15T12:14:58Z</time>
      </trkpt>
      <trkpt lat="48.42835" lon="2.13927">
        <ele>79</ele>
        <time>2011-04-15T12:14:59Z</time>
      </trkpt>
      <trkpt lat="48.42834" lon="2.13927">
        <ele>79</ele>
        <time>2011-04-15T12:15:00Z</time>
      </trkpt>
      <trkpt lat="48.42832" lon="2.13927">
        <ele>79</ele>
        <time>2011-04-15T12:15:01Z</time>
      </trkpt>
      <trkpt lat="48.42831" lon="2.13926">
        <ele>79</ele>
        <time>2011-04-15T12:15:02Z</time>
      </trkpt>
      <trkpt lat="48.42829" lon="2.13925">
        <ele>79</ele>
        <time>2011-04-15T12:15:03Z</time>
      </trkpt>
      <trkpt lat="48.42828" lon="2.13924">
        <ele>79</ele>
        <time>2011-04-15T12:15:04Z</time>
      </trkpt>
      <trkpt lat="48.42827" lon="2.13923">
        <ele>79</ele>
        <time>2011-04-15T12:15:05Z</time>
      </trkpt>
      <trkpt lat="48.42825" lon="2.13922">
        <ele>79</ele>
        <time>2011-04-15T12:15:06Z</time>
      </trkpt>
      <trkpt lat="48.42824" lon="2.1392">
        <ele>79</ele>
        <time>2011-04-15T12:15:07Z</time>
      </trkpt>
      <trkpt lat="48.42823" lon="2.13918">
        <ele>79</ele>
        <time>2011-04-15T12:15:08Z</time>
      </trkpt>
      <trkpt lat="48.42821" lon="2.13917">
        <ele>79</ele>
        <time>2011-04-15T12:15:09Z</time>
      </trkpt>
      <trkpt lat="48.4282" lon="2.13915">
        <ele>79</ele>
        <time>2011-04-15T12:15:10Z</time>
      </trkpt>
      <trkpt lat="48.42819" lon="2.13913">
        <ele>78</ele>
        <time>2011-04-15T12:15:11Z</time>
      </trkpt>
      <trkpt lat="48.42818" lon="2.13912">
        <ele>78</ele>
        <time>2011-04-15T12:15:12Z</time>
      </trkpt>
      <trkpt lat="48.42817" lon="2.13908">
        <ele>78</ele>
        <time>2011-04-15T12:15:14Z</time>
      </trkpt>
      <trkpt lat="48.42816" lon="2.13907">
        <ele>77</ele>
        <time>2011-04-15T12:15:15Z</time>
      </trkpt>
      <trkpt lat="48.42815" lon="2.13905">
        <ele>77</ele>
        <time>2011-04-15T12:15:16Z</time>
      </trkpt>
      <trkpt lat="48.42814" lon="2.13903">
        <ele>77</ele>
        <time>2011-04-15T12:15:17Z</time>
      </trkpt>
      <trkpt lat="48.42813" lon="2.13901">
        <ele>77</ele>
        <time>2011-04-15T12:15:18Z</time>
      </trkpt>
      <trkpt lat="48.42812" lon="2.139">
        <ele>77</ele>
        <time>2011-04-15T12:15:26Z</time>
      </trkpt>
      <trkpt lat="48.42811" lon="2.13899">
        <ele>77</ele>
        <time>2011-04-15T12:15:34Z</time>
      </trkpt>
      <trkpt lat="48.4281" lon="2.139">
        <ele>78</ele>
        <time>2011-04-15T12:15:52Z</time>
      </trkpt>
      <trkpt lat="48.42809" lon="2.13898">
        <ele>78</ele>
        <time>2011-04-15T12:16:06Z</time>
      </trkpt>
      <trkpt lat="48.42808" lon="2.13895">
        <ele>78</ele>
        <time>2011-04-15T12:16:08Z</time>
      </trkpt>
      <trkpt lat="48.42807" lon="2.13893">
        <ele>78</ele>
        <time>2011-04-15T12:16:10Z</time>
      </trkpt>
      <trkpt lat="48.42806" lon="2.13891">
        <ele>79</ele>
        <time>2011-04-15T12:16:22Z</time>
      </trkpt>
      <trkpt lat="48.42805" lon="2.13889">
        <ele>84</ele>
        <time>2011-04-15T12:16:39Z</time>
      </trkpt>
      <trkpt lat="48.42805" lon="2.13888">
        <ele>85</ele>
        <time>2011-04-15T12:16:41Z</time>
      </trkpt>
      <trkpt lat="48.42804" lon="2.13886">
        <ele>85</ele>
        <time>2011-04-15T12:16:43Z</time>
      </trkpt>
      <trkpt lat="48.42803" lon="2.13887">
        <ele>87</ele>
        <time>2011-04-15T12:17:12Z</time>
      </trkpt>
      <trkpt lat="48.42802" lon="2.13888">
        <ele>87</ele>
        <time>2011-04-15T12:17:13Z</time>
      </trkpt>
      <trkpt lat="48.428" lon="2.13888">
        <ele>87</ele>
        <time>2011-04-15T12:17:14Z</time>
      </trkpt>
      <trkpt lat="48.42798" lon="2.13889">
        <ele>87</ele>
        <time>2011-04-15T12:17:15Z</time>
      </trkpt>
      <trkpt lat="48.42796" lon="2.1389">
        <ele>87</ele>
        <time>2011-04-15T12:17:16Z</time>
      </trkpt>
      <trkpt lat="48.42795" lon="2.1389">
        <ele>87</ele>
        <time>2011-04-15T12:17:17Z</time>
      </trkpt>
      <trkpt lat="48.42793" lon="2.13891">
        <ele>87</ele>
        <time>2011-04-15T12:17:18Z</time>
      </trkpt>
      <trkpt lat="48.42791" lon="2.13891">
        <ele>87</ele>
        <time>2011-04-15T12:17:19Z</time>
      </trkpt>
      <trkpt lat="48.4279" lon="2.13891">
        <ele>87</ele>
        <time>2011-04-15T12:17:20Z</time>
      </trkpt>
      <trkpt lat="48.42788" lon="2.13892">
        <ele>87</ele>
        <time>2011-04-15T12:17:21Z</time>
      </trkpt>
      <trkpt lat="48.42786" lon="2.13892">
        <ele>87</ele>
        <time>2011-04-15T12:17:23Z</time>
      </trkpt>
      <trkpt lat="48.42785" lon="2.13893">
        <ele>87</ele>
        <time>2011-04-15T12:17:24Z</time>
      </trkpt>
      <trkpt lat="48.42784" lon="2.13894">
        <ele>87</ele>
        <time>2011-04-15T12:17:25Z</time>
      </trkpt>
      <trkpt lat="48.42783" lon="2.13894">
        <ele>87</ele>
        <time>2011-04-15T12:17:26Z</time>
      </trkpt>
      <trkpt lat="48.42782" lon="2.13894">
        <ele>87</ele>
        <time>2011-04-15T12:17:27Z</time>
      </trkpt>
      <trkpt lat="48.42779" lon="2.13895">
        <ele>87</ele>
        <time>2011-04-15T12:17:29Z</time>
      </trkpt>
      <trkpt lat="48.42778" lon="2.13895">
        <ele>87</ele>
        <time>2011-04-15T12:17:30Z</time>
      </trkpt>
      <trkpt lat="48.42777" lon="2.13895">
        <ele>87</ele>
        <time>2011-04-15T12:17:31Z</time>
      </trkpt>
      <trkpt lat="48.42776" lon="2.13894">
        <ele>87</ele>
        <time>2011-04-15T12:17:32Z</time>
      </trkpt>
      <trkpt lat="48.42774" lon="2.13893">
        <ele>87</ele>
        <time>2011-04-15T12:17:33Z</time>
      </trkpt>
      <trkpt lat="48.42773" lon="2.13893">
        <ele>87</ele>
        <time>2011-04-15T12:17:34Z</time>
      </trkpt>
      <trkpt lat="48.42772" lon="2.13892">
        <ele>87</ele>
        <time>2011-04-15T12:17:35Z</time>
      </trkpt>
      <trkpt lat="48.4277" lon="2.13892">
        <ele>87</ele>
        <time>2011-04-15T12:17:36Z</time>
      </trkpt>
      <trkpt lat="48.42769" lon="2.13892">
        <ele>87</ele>
        <time>2011-04-15T12:17:37Z</time>
      </trkpt>
      <trkpt lat="48.42767" lon="2.13892">
        <ele>87</ele>
        <time>2011-04-15T12:17:38Z</time>
      </trkpt>
      <trkpt lat="48.42766" lon="2.13892">
        <ele>87</ele>
        <time>2011-04-15T12:17:39Z</time>
      </trkpt>
      <trkpt lat="48.42765" lon="2.13893">
        <ele>87</ele>
        <time>2011-04-15T12:17:40Z</time>
      </trkpt>
      <trkpt lat="48.42763" lon="2.13893">
        <ele>87</ele>
        <time>2011-04-15T12:17:41Z</time>
      </trkpt>
      <trkpt lat="48.42762" lon="2.13893">
        <ele>87</ele>
        <time>2011-04-15T12:17:42Z</time>
      </trkpt>
      <trkpt lat="48.4276" lon="2.13893">
        <ele>87</ele>
        <time>2011-04-15T12:17:43Z</time>
      </trkpt>
      <trkpt lat="48.42759" lon="2.13892">
        <ele>87</ele>
        <time>2011-04-15T12:17:44Z</time>
      </trkpt>
      <trkpt lat="48.42758" lon="2.13892">
        <ele>87</ele>
        <time>2011-04-15T12:17:45Z</time>
      </trkpt>
      <trkpt lat="48.42756" lon="2.13892">
        <ele>87</ele>
        <time>2011-04-15T12:17:46Z</time>
      </trkpt>
      <trkpt lat="48.42755" lon="2.13892">
        <ele>87</ele>
        <time>2011-04-15T12:17:47Z</time>
      </trkpt>
      <trkpt lat="48.42753" lon="2.13892">
        <ele>87</ele>
        <time>2011-04-15T12:17:48Z</time>
      </trkpt>
      <trkpt lat="48.42752" lon="2.13892">
        <ele>87</ele>
        <time>2011-04-15T12:17:49Z</time>
      </trkpt>
      <trkpt lat="48.4275" lon="2.13892">
        <ele>87</ele>
        <time>2011-04-15T12:17:50Z</time>
      </trkpt>
      <trkpt lat="48.42749" lon="2.13892">
        <ele>87</ele>
        <time>2011-04-15T12:17:51Z</time>
      </trkpt>
      <trkpt lat="48.42748" lon="2.13891">
        <ele>87</ele>
        <time>2011-04-15T12:17:52Z</time>
      </trkpt>
      <trkpt lat="48.42746" lon="2.13891">
        <ele>87</ele>
        <time>2011-04-15T12:17:53Z</time>
      </trkpt>
      <trkpt lat="48.42745" lon="2.13889">
        <ele>87</ele>
        <time>2011-04-15T12:17:54Z</time>
      </trkpt>
      <trkpt lat="48.42744" lon="2.13888">
        <ele>86</ele>
        <time>2011-04-15T12:17:55Z</time>
      </trkpt>
      <trkpt lat="48.42742" lon="2.13886">
        <ele>86</ele>
        <time>2011-04-15T12:17:57Z</time>
      </trkpt>
      <trkpt lat="48.4274" lon="2.13883">
        <ele>86</ele>
        <time>2011-04-15T12:17:59Z</time>
      </trkpt>
      <trkpt lat="48.4274" lon="2.13881">
        <ele>86</ele>
        <time>2011-04-15T12:18:00Z</time>
      </trkpt>
      <trkpt lat="48.42739" lon="2.13879">
        <ele>85</ele>
        <time>2011-04-15T12:18:01Z</time>
      </trkpt>
      <trkpt lat="48.42738" lon="2.13877">
        <ele>85</ele>
        <time>2011-04-15T12:18:02Z</time>
      </trkpt>
      <trkpt lat="48.42738" lon="2.13875">
        <ele>85</ele>
        <time>2011-04-15T12:18:03Z</time>
      </trkpt>
      <trkpt lat="48.42737" lon="2.13873">
        <ele>85</ele>
        <time>2011-04-15T12:18:04Z</time>
      </trkpt>
      <trkpt lat="48.42736" lon="2.13871">
        <ele>85</ele>
        <time>2011-04-15T12:18:05Z</time>
      </trkpt>
      <trkpt lat="48.42735" lon="2.13869">
        <ele>85</ele>
        <time>2011-04-15T12:18:06Z</time>
      </trkpt>
      <trkpt lat="48.42733" lon="2.13867">
        <ele>85</ele>
        <time>2011-04-15T12:18:07Z</time>
      </trkpt>
      <trkpt lat="48.42732" lon="2.13866">
        <ele>85</ele>
        <time>2011-04-15T12:18:08Z</time>
      </trkpt>
      <trkpt lat="48.42731" lon="2.13864">
        <ele>85</ele>
        <time>2011-04-15T12:18:09Z</time>
      </trkpt>
      <trkpt lat="48.42729" lon="2.13863">
        <ele>85</ele>
        <time>2011-04-15T12:18:10Z</time>
      </trkpt>
      <trkpt lat="48.42728" lon="2.13862">
        <ele>85</ele>
        <time>2011-04-15T12:18:11Z</time>
      </trkpt>
      <trkpt lat="48.42727" lon="2.13861">
        <ele>85</ele>
        <time>2011-04-15T12:18:12Z</time>
      </trkpt>
      <trkpt lat="48.42725" lon="2.1386">
        <ele>85</ele>
        <time>2011-04-15T12:18:13Z</time>
      </trkpt>
      <trkpt lat="48.42724" lon="2.13859">
        <ele>85</ele>
        <time>2011-04-15T12:18:14Z</time>
      </trkpt>
      <trkpt lat="48.42722" lon="2.13858">
        <ele>85</ele>
        <time>2011-04-15T12:18:15Z</time>
      </trkpt>
      <trkpt lat="48.42721" lon="2.13857">
        <ele>85</ele>
        <time>2011-04-15T12:18:16Z</time>
      </trkpt>
      <trkpt lat="48.4272" lon="2.13856">
        <ele>85</ele>
        <time>2011-04-15T12:18:17Z</time>
      </trkpt>
      <trkpt lat="48.42718" lon="2.13855">
        <ele>85</ele>
        <time>2011-04-15T12:18:19Z</time>
      </trkpt>
      <trkpt lat="48.42716" lon="2.13854">
        <ele>85</ele>
        <time>2011-04-15T12:18:20Z</time>
      </trkpt>
      <trkpt lat="48.42715" lon="2.13853">
        <ele>85</ele>
        <time>2011-04-15T12:18:21Z</time>
      </trkpt>
      <trkpt lat="48.42714" lon="2.13853">
        <ele>85</ele>
        <time>2011-04-15T12:18:22Z</time>
      </trkpt>
      <trkpt lat="48.42712" lon="2.13852">
        <ele>85</ele>
        <time>2011-04-15T12:18:23Z</time>
      </trkpt>
      <trkpt lat="48.42711" lon="2.13852">
        <ele>85</ele>
        <time>2011-04-15T12:18:24Z</time>
      </trkpt>
      <trkpt lat="48.4271" lon="2.13851">
        <ele>84</ele>
        <time>2011-04-15T12:18:25Z</time>
      </trkpt>
      <trkpt lat="48.42709" lon="2.1385">
        <ele>84</ele>
        <time>2011-04-15T12:18:26Z</time>
      </trkpt>
      <trkpt lat="48.42708" lon="2.13849">
        <ele>84</ele>
        <time>2011-04-15T12:18:27Z</time>
      </trkpt>
      <trkpt lat="48.42706" lon="2.13849">
        <ele>84</ele>
        <time>2011-04-15T12:18:28Z</time>
      </trkpt>
      <trkpt lat="48.42705" lon="2.13848">
        <ele>84</ele>
        <time>2011-04-15T12:18:29Z</time>
      </trkpt>
      <trkpt lat="48.42703" lon="2.13846">
        <ele>84</ele>
        <time>2011-04-15T12:18:31Z</time>
      </trkpt>
      <trkpt lat="48.42702" lon="2.13845">
        <ele>84</ele>
        <time>2011-04-15T12:18:32Z</time>
      </trkpt>
      <trkpt lat="48.42701" lon="2.13845">
        <ele>84</ele>
        <time>2011-04-15T12:18:33Z</time>
      </trkpt>
      <trkpt lat="48.42699" lon="2.13845">
        <ele>84</ele>
        <time>2011-04-15T12:18:34Z</time>
      </trkpt>
      <trkpt lat="48.42698" lon="2.13845">
        <ele>84</ele>
        <time>2011-04-15T12:18:35Z</time>
      </trkpt>
      <trkpt lat="48.42697" lon="2.13845">
        <ele>84</ele>
        <time>2011-04-15T12:18:36Z</time>
      </trkpt>
      <trkpt lat="48.42695" lon="2.13845">
        <ele>84</ele>
        <time>2011-04-15T12:18:37Z</time>
      </trkpt>
      <trkpt lat="48.42694" lon="2.13846">
        <ele>84</ele>
        <time>2011-04-15T12:18:38Z</time>
      </trkpt>
      <trkpt lat="48.42692" lon="2.13847">
        <ele>83</ele>
        <time>2011-04-15T12:18:40Z</time>
      </trkpt>
      <trkpt lat="48.4269" lon="2.1385">
        <ele>83</ele>
        <time>2011-04-15T12:18:42Z</time>
      </trkpt>
      <trkpt lat="48.42689" lon="2.13852">
        <ele>82</ele>
        <time>2011-04-15T12:18:43Z</time>
      </trkpt>
      <trkpt lat="48.42687" lon="2.13854">
        <ele>82</ele>
        <time>2011-04-15T12:18:44Z</time>
      </trkpt>
      <trkpt lat="48.42686" lon="2.13856">
        <ele>82</ele>
        <time>2011-04-15T12:18:45Z</time>
      </trkpt>
      <trkpt lat="48.42685" lon="2.13858">
        <ele>82</ele>
        <time>2011-04-15T12:18:46Z</time>
      </trkpt>
      <trkpt lat="48.42685" lon="2.13859">
        <ele>82</ele>
        <time>2011-04-15T12:18:47Z</time>
      </trkpt>
      <trkpt lat="48.42684" lon="2.13861">
        <ele>82</ele>
        <time>2011-04-15T12:18:48Z</time>
      </trkpt>
      <trkpt lat="48.42683" lon="2.13863">
        <ele>82</ele>
        <time>2011-04-15T12:18:49Z</time>
      </trkpt>
      <trkpt lat="48.42682" lon="2.13865">
        <ele>82</ele>
        <time>2011-04-15T12:18:50Z</time>
      </trkpt>
      <trkpt lat="48.42682" lon="2.13867">
        <ele>82</ele>
        <time>2011-04-15T12:18:51Z</time>
      </trkpt>
      <trkpt lat="48.42681" lon="2.13868">
        <ele>82</ele>
        <time>2011-04-15T12:18:52Z</time>
      </trkpt>
      <trkpt lat="48.4268" lon="2.1387">
        <ele>82</ele>
        <time>2011-04-15T12:18:53Z</time>
      </trkpt>
      <trkpt lat="48.42679" lon="2.13874">
        <ele>82</ele>
        <time>2011-04-15T12:18:55Z</time>
      </trkpt>
      <trkpt lat="48.42678" lon="2.13875">
        <ele>82</ele>
        <time>2011-04-15T12:18:56Z</time>
      </trkpt>
      <trkpt lat="48.42677" lon="2.13877">
        <ele>82</ele>
        <time>2011-04-15T12:18:57Z</time>
      </trkpt>
      <trkpt lat="48.42676" lon="2.13879">
        <ele>82</ele>
        <time>2011-04-15T12:18:58Z</time>
      </trkpt>
      <trkpt lat="48.42674" lon="2.13882">
        <ele>82</ele>
        <time>2011-04-15T12:19:00Z</time>
      </trkpt>
      <trkpt lat="48.42673" lon="2.13884">
        <ele>82</ele>
        <time>2011-04-15T12:19:01Z</time>
      </trkpt>
      <trkpt lat="48.42673" lon="2.13886">
        <ele>82</ele>
        <time>2011-04-15T12:19:02Z</time>
      </trkpt>
      <trkpt lat="48.42671" lon="2.13887">
        <ele>82</ele>
        <time>2011-04-15T12:19:03Z</time>
      </trkpt>
      <trkpt lat="48.4267" lon="2.1389">
        <ele>82</ele>
        <time>2011-04-15T12:19:05Z</time>
      </trkpt>
      <trkpt lat="48.42669" lon="2.13891">
        <ele>82</ele>
        <time>2011-04-15T12:19:08Z</time>
      </trkpt>
      <trkpt lat="48.4267" lon="2.13891">
        <ele>82</ele>
        <time>2011-04-15T12:19:18Z</time>
      </trkpt>
      <trkpt lat="48.42669" lon="2.13894">
        <ele>82</ele>
        <time>2011-04-15T12:19:24Z</time>
      </trkpt>
      <trkpt lat="48.42667" lon="2.13896">
        <ele>82</ele>
        <time>2011-04-15T12:19:26Z</time>
      </trkpt>
      <trkpt lat="48.42666" lon="2.13896">
        <ele>82</ele>
        <time>2011-04-15T12:19:27Z</time>
      </trkpt>
      <trkpt lat="48.42664" lon="2.13896">
        <ele>82</ele>
        <time>2011-04-15T12:19:28Z</time>
      </trkpt>
      <trkpt lat="48.42663" lon="2.13895">
        <ele>82</ele>
        <time>2011-04-15T12:19:29Z</time>
      </trkpt>
      <trkpt lat="48.42662" lon="2.13894">
        <ele>82</ele>
        <time>2011-04-15T12:19:30Z</time>
      </trkpt>
      <trkpt lat="48.42661" lon="2.13892">
        <ele>82</ele>
        <time>2011-04-15T12:19:31Z</time>
      </trkpt>
      <trkpt lat="48.4266" lon="2.1389">
        <ele>81</ele>
        <time>2011-04-15T12:19:32Z</time>
      </trkpt>
      <trkpt lat="48.42659" lon="2.13888">
        <ele>81</ele>
        <time>2011-04-15T12:19:33Z</time>
      </trkpt>
      <trkpt lat="48.42659" lon="2.13886">
        <ele>81</ele>
        <time>2011-04-15T12:19:34Z</time>
      </trkpt>
      <trkpt lat="48.42658" lon="2.13884">
        <ele>81</ele>
        <time>2011-04-15T12:19:35Z</time>
      </trkpt>
      <trkpt lat="48.42657" lon="2.13882">
        <ele>81</ele>
        <time>2011-04-15T12:19:36Z</time>
      </trkpt>
      <trkpt lat="48.42656" lon="2.1388">
        <ele>81</ele>
        <time>2011-04-15T12:19:37Z</time>
      </trkpt>
      <trkpt lat="48.42655" lon="2.13878">
        <ele>81</ele>
        <time>2011-04-15T12:19:38Z</time>
      </trkpt>
      <trkpt lat="48.42654" lon="2.13876">
        <ele>81</ele>
        <time>2011-04-15T12:19:39Z</time>
      </trkpt>
      <trkpt lat="48.42654" lon="2.13874">
        <ele>81</ele>
        <time>2011-04-15T12:19:40Z</time>
      </trkpt>
      <trkpt lat="48.42653" lon="2.13873">
        <ele>81</ele>
        <time>2011-04-15T12:19:41Z</time>
      </trkpt>
      <trkpt lat="48.42652" lon="2.1387">
        <ele>81</ele>
        <time>2011-04-15T12:19:42Z</time>
      </trkpt>
      <trkpt lat="48.42651" lon="2.13868">
        <ele>81</ele>
        <time>2011-04-15T12:19:43Z</time>
      </trkpt>
      <trkpt lat="48.4265" lon="2.13866">
        <ele>81</ele>
        <time>2011-04-15T12:19:44Z</time>
      </trkpt>
      <trkpt lat="48.4265" lon="2.13864">
        <ele>81</ele>
        <time>2011-04-15T12:19:45Z</time>
      </trkpt>
      <trkpt lat="48.42649" lon="2.13863">
        <ele>81</ele>
        <time>2011-04-15T12:19:46Z</time>
      </trkpt>
      <trkpt lat="48.42648" lon="2.13861">
        <ele>81</ele>
        <time>2011-04-15T12:19:47Z</time>
      </trkpt>
      <trkpt lat="48.42647" lon="2.13859">
        <ele>81</ele>
        <time>2011-04-15T12:19:48Z</time>
      </trkpt>
      <trkpt lat="48.42646" lon="2.13857">
        <ele>81</ele>
        <time>2011-04-15T12:19:49Z</time>
      </trkpt>
      <trkpt lat="48.42645" lon="2.13855">
        <ele>81</ele>
        <time>2011-04-15T12:19:50Z</time>
      </trkpt>
      <trkpt lat="48.42644" lon="2.13853">
        <ele>81</ele>
        <time>2011-04-15T12:19:51Z</time>
      </trkpt>
      <trkpt lat="48.42643" lon="2.13852">
        <ele>81</ele>
        <time>2011-04-15T12:19:52Z</time>
      </trkpt>
      <trkpt lat="48.42642" lon="2.1385">
        <ele>81</ele>
        <time>2011-04-15T12:19:53Z</time>
      </trkpt>
      <trkpt lat="48.42641" lon="2.13847">
        <ele>81</ele>
        <time>2011-04-15T12:19:55Z</time>
      </trkpt>
      <trkpt lat="48.4264" lon="2.13845">
        <ele>81</ele>
        <time>2011-04-15T12:19:56Z</time>
      </trkpt>
      <trkpt lat="48.42639" lon="2.13844">
        <ele>81</ele>
        <time>2011-04-15T12:19:57Z</time>
      </trkpt>
      <trkpt lat="48.42636" lon="2.13841">
        <ele>81</ele>
        <time>2011-04-15T12:19:59Z</time>
      </trkpt>
      <trkpt lat="48.42635" lon="2.1384">
        <ele>81</ele>
        <time>2011-04-15T12:20:00Z</time>
      </trkpt>
      <trkpt lat="48.42634" lon="2.13838">
        <ele>81</ele>
        <time>2011-04-15T12:20:01Z</time>
      </trkpt>
      <trkpt lat="48.42633" lon="2.13838">
        <ele>81</ele>
        <time>2011-04-15T12:20:02Z</time>
      </trkpt>
      <trkpt lat="48.42631" lon="2.13837">
        <ele>81</ele>
        <time>2011-04-15T12:20:03Z</time>
      </trkpt>
      <trkpt lat="48.4263" lon="2.13836">
        <ele>81</ele>
        <time>2011-04-15T12:20:04Z</time>
      </trkpt>
      <trkpt lat="48.42628" lon="2.13835">
        <ele>81</ele>
        <time>2011-04-15T12:20:05Z</time>
      </trkpt>
      <trkpt lat="48.42627" lon="2.13834">
        <ele>81</ele>
        <time>2011-04-15T12:20:06Z</time>
      </trkpt>
      <trkpt lat="48.42625" lon="2.13834">
        <ele>81</ele>
        <time>2011-04-15T12:20:07Z</time>
      </trkpt>
      <trkpt lat="48.42624" lon="2.13833">
        <ele>81</ele>
        <time>2011-04-15T12:20:08Z</time>
      </trkpt>
      <trkpt lat="48.42622" lon="2.13832">
        <ele>81</ele>
        <time>2011-04-15T12:20:09Z</time>
      </trkpt>
      <trkpt lat="48.42621" lon="2.13832">
        <ele>81</ele>
        <time>2011-04-15T12:20:10Z</time>
      </trkpt>
      <trkpt lat="48.42619" lon="2.13831">
        <ele>81</ele>
        <time>2011-04-15T12:20:11Z</time>
      </trkpt>
      <trkpt lat="48.42618" lon="2.13831">
        <ele>81</ele>
        <time>2011-04-15T12:20:12Z</time>
      </trkpt>
      <trkpt lat="48.42616" lon="2.13831">
        <ele>81</ele>
        <time>2011-04-15T12:20:13Z</time>
      </trkpt>
      <trkpt lat="48.42615" lon="2.1383">
        <ele>81</ele>
        <time>2011-04-15T12:20:14Z</time>
      </trkpt>
      <trkpt lat="48.42613" lon="2.1383">
        <ele>81</ele>
        <time>2011-04-15T12:20:15Z</time>
      </trkpt>
      <trkpt lat="48.42612" lon="2.1383">
        <ele>81</ele>
        <time>2011-04-15T12:20:16Z</time>
      </trkpt>
      <trkpt lat="48.4261" lon="2.13829">
        <ele>81</ele>
        <time>2011-04-15T12:20:17Z</time>
      </trkpt>
      <trkpt lat="48.42609" lon="2.13829">
        <ele>81</ele>
        <time>2011-04-15T12:20:18Z</time>
      </trkpt>
      <trkpt lat="48.42608" lon="2.13828">
        <ele>81</ele>
        <time>2011-04-15T12:20:19Z</time>
      </trkpt>
      <trkpt lat="48.42606" lon="2.13827">
        <ele>81</ele>
        <time>2011-04-15T12:20:20Z</time>
      </trkpt>
      <trkpt lat="48.42605" lon="2.13827">
        <ele>81</ele>
        <time>2011-04-15T12:20:21Z</time>
      </trkpt>
      <trkpt lat="48.42603" lon="2.13826">
        <ele>81</ele>
        <time>2011-04-15T12:20:22Z</time>
      </trkpt>
      <trkpt lat="48.42602" lon="2.13826">
        <ele>81</ele>
        <time>2011-04-15T12:20:23Z</time>
      </trkpt>
      <trkpt lat="48.426" lon="2.13825">
        <ele>81</ele>
        <time>2011-04-15T12:20:24Z</time>
      </trkpt>
      <trkpt lat="48.42599" lon="2.13824">
        <ele>81</ele>
        <time>2011-04-15T12:20:25Z</time>
      </trkpt>
      <trkpt lat="48.42598" lon="2.13824">
        <ele>81</ele>
        <time>2011-04-15T12:20:26Z</time>
      </trkpt>
      <trkpt lat="48.42596" lon="2.13823">
        <ele>81</ele>
        <time>2011-04-15T12:20:27Z</time>
      </trkpt>
      <trkpt lat="48.42595" lon="2.13822">
        <ele>81</ele>
        <time>2011-04-15T12:20:28Z</time>
      </trkpt>
      <trkpt lat="48.42593" lon="2.13821">
        <ele>81</ele>
        <time>2011-04-15T12:20:29Z</time>
      </trkpt>
      <trkpt lat="48.42592" lon="2.13821">
        <ele>81</ele>
        <time>2011-04-15T12:20:30Z</time>
      </trkpt>
      <trkpt lat="48.42591" lon="2.1382">
        <ele>81</ele>
        <time>2011-04-15T12:20:31Z</time>
      </trkpt>
      <trkpt lat="48.42589" lon="2.1382">
        <ele>81</ele>
        <time>2011-04-15T12:20:32Z</time>
      </trkpt>
      <trkpt lat="48.42588" lon="2.13819">
        <ele>81</ele>
        <time>2011-04-15T12:20:33Z</time>
      </trkpt>
      <trkpt lat="48.42587" lon="2.13818">
        <ele>81</ele>
        <time>2011-04-15T12:20:34Z</time>
      </trkpt>
      <trkpt lat="48.42585" lon="2.13817">
        <ele>81</ele>
        <time>2011-04-15T12:20:35Z</time>
      </trkpt>
      <trkpt lat="48.42584" lon="2.13816">
        <ele>81</ele>
        <time>2011-04-15T12:20:36Z</time>
      </trkpt>
      <trkpt lat="48.42583" lon="2.13815">
        <ele>81</ele>
        <time>2011-04-15T12:20:37Z</time>
      </trkpt>
      <trkpt lat="48.42581" lon="2.13814">
        <ele>81</ele>
        <time>2011-04-15T12:20:38Z</time>
      </trkpt>
      <trkpt lat="48.4258" lon="2.13813">
        <ele>81</ele>
        <time>2011-04-15T12:20:39Z</time>
      </trkpt>
      <trkpt lat="48.42579" lon="2.13812">
        <ele>81</ele>
        <time>2011-04-15T12:20:40Z</time>
      </trkpt>
      <trkpt lat="48.42577" lon="2.13809">
        <ele>81</ele>
        <time>2011-04-15T12:20:42Z</time>
      </trkpt>
      <trkpt lat="48.42575" lon="2.13807">
        <ele>81</ele>
        <time>2011-04-15T12:20:44Z</time>
      </trkpt>
      <trkpt lat="48.42573" lon="2.13804">
        <ele>81</ele>
        <time>2011-04-15T12:20:46Z</time>
      </trkpt>
      <trkpt lat="48.42571" lon="2.13801">
        <ele>81</ele>
        <time>2011-04-15T12:20:48Z</time>
      </trkpt>
      <trkpt lat="48.4257" lon="2.13799">
        <ele>81</ele>
        <time>2011-04-15T12:20:49Z</time>
      </trkpt>
      <trkpt lat="48.4257" lon="2.13797">
        <ele>81</ele>
        <time>2011-04-15T12:20:50Z</time>
      </trkpt>
      <trkpt lat="48.42569" lon="2.13795">
        <ele>81</ele>
        <time>2011-04-15T12:20:51Z</time>
      </trkpt>
      <trkpt lat="48.42567" lon="2.13792">
        <ele>81</ele>
        <time>2011-04-15T12:20:52Z</time>
      </trkpt>
      <trkpt lat="48.42566" lon="2.1379">
        <ele>81</ele>
        <time>2011-04-15T12:20:53Z</time>
      </trkpt>
      <trkpt lat="48.42565" lon="2.13787">
        <ele>81</ele>
        <time>2011-04-15T12:20:54Z</time>
      </trkpt>
      <trkpt lat="48.42564" lon="2.13784">
        <ele>81</ele>
        <time>2011-04-15T12:20:55Z</time>
      </trkpt>
      <trkpt lat="48.42562" lon="2.13782">
        <ele>81</ele>
        <time>2011-04-15T12:20:56Z</time>
      </trkpt>
      <trkpt lat="48.42561" lon="2.13779">
        <ele>81</ele>
        <time>2011-04-15T12:20:57Z</time>
      </trkpt>
      <trkpt lat="48.4256" lon="2.13778">
        <ele>81</ele>
        <time>2011-04-15T12:20:58Z</time>
      </trkpt>
      <trkpt lat="48.42559" lon="2.13776">
        <ele>81</ele>
        <time>2011-04-15T12:20:59Z</time>
      </trkpt>
      <trkpt lat="48.42557" lon="2.13774">
        <ele>81</ele>
        <time>2011-04-15T12:21:00Z</time>
      </trkpt>
      <trkpt lat="48.42556" lon="2.13773">
        <ele>81</ele>
        <time>2011-04-15T12:21:01Z</time>
      </trkpt>
      <trkpt lat="48.42554" lon="2.13772">
        <ele>81</ele>
        <time>2011-04-15T12:21:02Z</time>
      </trkpt>
      <trkpt lat="48.42553" lon="2.1377">
        <ele>81</ele>
        <time>2011-04-15T12:21:03Z</time>
      </trkpt>
      <trkpt lat="48.42551" lon="2.13768">
        <ele>81</ele>
        <time>2011-04-15T12:21:05Z</time>
      </trkpt>
      <trkpt lat="48.4255" lon="2.13768">
        <ele>81</ele>
        <time>2011-04-15T12:21:06Z</time>
      </trkpt>
      <trkpt lat="48.42548" lon="2.13767">
        <ele>81</ele>
        <time>2011-04-15T12:21:07Z</time>
      </trkpt>
      <trkpt lat="48.42547" lon="2.13765">
        <ele>81</ele>
        <time>2011-04-15T12:21:08Z</time>
      </trkpt>
      <trkpt lat="48.42545" lon="2.13764">
        <ele>81</ele>
        <time>2011-04-15T12:21:09Z</time>
      </trkpt>
      <trkpt lat="48.42544" lon="2.13764">
        <ele>81</ele>
        <time>2011-04-15T12:21:10Z</time>
      </trkpt>
      <trkpt lat="48.42543" lon="2.13762">
        <ele>81</ele>
        <time>2011-04-15T12:21:11Z</time>
      </trkpt>
      <trkpt lat="48.42542" lon="2.13762">
        <ele>81</ele>
        <time>2011-04-15T12:21:12Z</time>
      </trkpt>
      <trkpt lat="48.4254" lon="2.13761">
        <ele>81</ele>
        <time>2011-04-15T12:21:13Z</time>
      </trkpt>
      <trkpt lat="48.42539" lon="2.1376">
        <ele>81</ele>
        <time>2011-04-15T12:21:14Z</time>
      </trkpt>
      <trkpt lat="48.42537" lon="2.1376">
        <ele>81</ele>
        <time>2011-04-15T12:21:15Z</time>
      </trkpt>
      <trkpt lat="48.42536" lon="2.13759">
        <ele>81</ele>
        <time>2011-04-15T12:21:16Z</time>
      </trkpt>
      <trkpt lat="48.42535" lon="2.13758">
        <ele>81</ele>
        <time>2011-04-15T12:21:17Z</time>
      </trkpt>
      <trkpt lat="48.42533" lon="2.13758">
        <ele>81</ele>
        <time>2011-04-15T12:21:18Z</time>
      </trkpt>
      <trkpt lat="48.42532" lon="2.13757">
        <ele>81</ele>
        <time>2011-04-15T12:21:19Z</time>
      </trkpt>
      <trkpt lat="48.42531" lon="2.13756">
        <ele>81</ele>
        <time>2011-04-15T12:21:20Z</time>
      </trkpt>
      <trkpt lat="48.42529" lon="2.13755">
        <ele>81</ele>
        <time>2011-04-15T12:21:21Z</time>
      </trkpt>
      <trkpt lat="48.42528" lon="2.13755">
        <ele>81</ele>
        <time>2011-04-15T12:21:22Z</time>
      </trkpt>
      <trkpt lat="48.42527" lon="2.13754">
        <ele>81</ele>
        <time>2011-04-15T12:21:23Z</time>
      </trkpt>
      <trkpt lat="48.42525" lon="2.13753">
        <ele>81</ele>
        <time>2011-04-15T12:21:24Z</time>
      </trkpt>
      <trkpt lat="48.42524" lon="2.13752">
        <ele>81</ele>
        <time>2011-04-15T12:21:25Z</time>
      </trkpt>
      <trkpt lat="48.42523" lon="2.13752">
        <ele>81</ele>
        <time>2011-04-15T12:21:26Z</time>
      </trkpt>
      <trkpt lat="48.42521" lon="2.13751">
        <ele>81</ele>
        <time>2011-04-15T12:21:27Z</time>
      </trkpt>
      <trkpt lat="48.4252" lon="2.1375">
        <ele>81</ele>
        <time>2011-04-15T12:21:28Z</time>
      </trkpt>
      <trkpt lat="48.42519" lon="2.1375">
        <ele>81</ele>
        <time>2011-04-15T12:21:29Z</time>
      </trkpt>
      <trkpt lat="48.42517" lon="2.13749">
        <ele>81</ele>
        <time>2011-04-15T12:21:30Z</time>
      </trkpt>
      <trkpt lat="48.42515" lon="2.1375">
        <ele>81</ele>
        <time>2011-04-15T12:21:31Z</time>
      </trkpt>
      <trkpt lat="48.42514" lon="2.1375">
        <ele>81</ele>
        <time>2011-04-15T12:21:32Z</time>
      </trkpt>
      <trkpt lat="48.42513" lon="2.13749">
        <ele>81</ele>
        <time>2011-04-15T12:21:33Z</time>
      </trkpt>
      <trkpt lat="48.42511" lon="2.13749">
        <ele>81</ele>
        <time>2011-04-15T12:21:34Z</time>
      </trkpt>
      <trkpt lat="48.4251" lon="2.13749">
        <ele>81</ele>
        <time>2011-04-15T12:21:35Z</time>
      </trkpt>
      <trkpt lat="48.42509" lon="2.13748">
        <ele>81</ele>
        <time>2011-04-15T12:21:36Z</time>
      </trkpt>
      <trkpt lat="48.42507" lon="2.13748">
        <ele>81</ele>
        <time>2011-04-15T12:21:37Z</time>
      </trkpt>
      <trkpt lat="48.42506" lon="2.13748">
        <ele>81</ele>
        <time>2011-04-15T12:21:38Z</time>
      </trkpt>
      <trkpt lat="48.42504" lon="2.13748">
        <ele>81</ele>
        <time>2011-04-15T12:21:39Z</time>
      </trkpt>
      <trkpt lat="48.42503" lon="2.13748">
        <ele>81</ele>
        <time>2011-04-15T12:21:40Z</time>
      </trkpt>
      <trkpt lat="48.42501" lon="2.13748">
        <ele>81</ele>
        <time>2011-04-15T12:21:41Z</time>
      </trkpt>
      <trkpt lat="48.42499" lon="2.13748">
        <ele>81</ele>
        <time>2011-04-15T12:21:42Z</time>
      </trkpt>
      <trkpt lat="48.42498" lon="2.13749">
        <ele>81</ele>
        <time>2011-04-15T12:21:43Z</time>
      </trkpt>
      <trkpt lat="48.42496" lon="2.13749">
        <ele>81</ele>
        <time>2011-04-15T12:21:44Z</time>
      </trkpt>
      <trkpt lat="48.42495" lon="2.13749">
        <ele>81</ele>
        <time>2011-04-15T12:21:45Z</time>
      </trkpt>
      <trkpt lat="48.42493" lon="2.13749">
        <ele>81</ele>
        <time>2011-04-15T12:21:46Z</time>
      </trkpt>
      <trkpt lat="48.42492" lon="2.13749">
        <ele>81</ele>
        <time>2011-04-15T12:21:47Z</time>
      </trkpt>
      <trkpt lat="48.4249" lon="2.1375">
        <ele>81</ele>
        <time>2011-04-15T12:21:48Z</time>
      </trkpt>
      <trkpt lat="48.42488" lon="2.1375">
        <ele>81</ele>
        <time>2011-04-15T12:21:49Z</time>
      </trkpt>
      <trkpt lat="48.42487" lon="2.13751">
        <ele>81</ele>
        <time>2011-04-15T12:21:50Z</time>
      </trkpt>
      <trkpt lat="48.42485" lon="2.1375">
        <ele>81</ele>
        <time>2011-04-15T12:21:51Z</time>
      </trkpt>
      <trkpt lat="48.42484" lon="2.1375">
        <ele>81</ele>
        <time>2011-04-15T12:21:52Z</time>
      </trkpt>
      <trkpt lat="48.42482" lon="2.1375">
        <ele>81</ele>
        <time>2011-04-15T12:21:53Z</time>
      </trkpt>
      <trkpt lat="48.4248" lon="2.13749">
        <ele>81</ele>
        <time>2011-04-15T12:21:54Z</time>
      </trkpt>
      <trkpt lat="48.42478" lon="2.13749">
        <ele>81</ele>
        <time>2011-04-15T12:21:55Z</time>
      </trkpt>
      <trkpt lat="48.42476" lon="2.13749">
        <ele>81</ele>
        <time>2011-04-15T12:21:56Z</time>
      </trkpt>
      <trkpt lat="48.42475" lon="2.13749">
        <ele>81</ele>
        <time>2011-04-15T12:21:57Z</time>
      </trkpt>
      <trkpt lat="48.42473" lon="2.13749">
        <ele>81</ele>
        <time>2011-04-15T12:21:58Z</time>
      </trkpt>
      <trkpt lat="48.42472" lon="2.13749">
        <ele>81</ele>
        <time>2011-04-15T12:21:59Z</time>
      </trkpt>
      <trkpt lat="48.4247" lon="2.13749">
        <ele>81</ele>
        <time>2011-04-15T12:22:00Z</time>
      </trkpt>
      <trkpt lat="48.42469" lon="2.13749">
        <ele>81</ele>
        <time>2011-04-15T12:22:01Z</time>
      </trkpt>
      <trkpt lat="48.42468" lon="2.13749">
        <ele>81</ele>
        <time>2011-04-15T12:22:02Z</time>
      </trkpt>
      <trkpt lat="48.42466" lon="2.13749">
        <ele>81</ele>
        <time>2011-04-15T12:22:03Z</time>
      </trkpt>
      <trkpt lat="48.42465" lon="2.1375">
        <ele>81</ele>
        <time>2011-04-15T12:22:04Z</time>
      </trkpt>
      <trkpt lat="48.42463" lon="2.1375">
        <ele>81</ele>
        <time>2011-04-15T12:22:05Z</time>
      </trkpt>
      <trkpt lat="48.42462" lon="2.1375">
        <ele>81</ele>
        <time>2011-04-15T12:22:06Z</time>
      </trkpt>
      <trkpt lat="48.42461" lon="2.1375">
        <ele>81</ele>
        <time>2011-04-15T12:22:07Z</time>
      </trkpt>
      <trkpt lat="48.42459" lon="2.13749">
        <ele>81</ele>
        <time>2011-04-15T12:22:08Z</time>
      </trkpt>
      <trkpt lat="48.42458" lon="2.13749">
        <ele>81</ele>
        <time>2011-04-15T12:22:09Z</time>
      </trkpt>
      <trkpt lat="48.42457" lon="2.13748">
        <ele>81</ele>
        <time>2011-04-15T12:22:10Z</time>
      </trkpt>
      <trkpt lat="48.42455" lon="2.13748">
        <ele>81</ele>
        <time>2011-04-15T12:22:11Z</time>
      </trkpt>
      <trkpt lat="48.42454" lon="2.13748">
        <ele>81</ele>
        <time>2011-04-15T12:22:12Z</time>
      </trkpt>
      <trkpt lat="48.42453" lon="2.13747">
        <ele>81</ele>
        <time>2011-04-15T12:22:13Z</time>
      </trkpt>
      <trkpt lat="48.42451" lon="2.13747">
        <ele>81</ele>
        <time>2011-04-15T12:22:14Z</time>
      </trkpt>
      <trkpt lat="48.4245" lon="2.13747">
        <ele>81</ele>
        <time>2011-04-15T12:22:15Z</time>
      </trkpt>
      <trkpt lat="48.42448" lon="2.13746">
        <ele>81</ele>
        <time>2011-04-15T12:22:16Z</time>
      </trkpt>
      <trkpt lat="48.42447" lon="2.13745">
        <ele>81</ele>
        <time>2011-04-15T12:22:17Z</time>
      </trkpt>
      <trkpt lat="48.42446" lon="2.13745">
        <ele>81</ele>
        <time>2011-04-15T12:22:18Z</time>
      </trkpt>
      <trkpt lat="48.42444" lon="2.13745">
        <ele>81</ele>
        <time>2011-04-15T12:22:19Z</time>
      </trkpt>
      <trkpt lat="48.42443" lon="2.13744">
        <ele>81</ele>
        <time>2011-04-15T12:22:20Z</time>
      </trkpt>
      <trkpt lat="48.42441" lon="2.13743">
        <ele>81</ele>
        <time>2011-04-15T12:22:21Z</time>
      </trkpt>
      <trkpt lat="48.4244" lon="2.13742">
        <ele>81</ele>
        <time>2011-04-15T12:22:22Z</time>
      </trkpt>
      <trkpt lat="48.42439" lon="2.13742">
        <ele>81</ele>
        <time>2011-04-15T12:22:23Z</time>
      </trkpt>
      <trkpt lat="48.42438" lon="2.13741">
        <ele>81</ele>
        <time>2011-04-15T12:22:24Z</time>
      </trkpt>
      <trkpt lat="48.42436" lon="2.1374">
        <ele>81</ele>
        <time>2011-04-15T12:22:25Z</time>
      </trkpt>
      <trkpt lat="48.42435" lon="2.13738">
        <ele>81</ele>
        <time>2011-04-15T12:22:26Z</time>
      </trkpt>
      <trkpt lat="48.42434" lon="2.13737">
        <ele>81</ele>
        <time>2011-04-15T12:22:27Z</time>
      </trkpt>
      <trkpt lat="48.42432" lon="2.13735">
        <ele>81</ele>
        <time>2011-04-15T12:22:28Z</time>
      </trkpt>
      <trkpt lat="48.4243" lon="2.13733">
        <ele>81</ele>
        <time>2011-04-15T12:22:29Z</time>
      </trkpt>
      <trkpt lat="48.42428" lon="2.13731">
        <ele>81</ele>
        <time>2011-04-15T12:22:30Z</time>
      </trkpt>
      <trkpt lat="48.42427" lon="2.13729">
        <ele>81</ele>
        <time>2011-04-15T12:22:31Z</time>
      </trkpt>
      <trkpt lat="48.42425" lon="2.13726">
        <ele>81</ele>
        <time>2011-04-15T12:22:32Z</time>
      </trkpt>
      <trkpt lat="48.42424" lon="2.13724">
        <ele>81</ele>
        <time>2011-04-15T12:22:33Z</time>
      </trkpt>
      <trkpt lat="48.42422" lon="2.13722">
        <ele>81</ele>
        <time>2011-04-15T12:22:34Z</time>
      </trkpt>
      <trkpt lat="48.42421" lon="2.13721">
        <ele>81</ele>
        <time>2011-04-15T12:22:35Z</time>
      </trkpt>
      <trkpt lat="48.42419" lon="2.1372">
        <ele>81</ele>
        <time>2011-04-15T12:22:36Z</time>
      </trkpt>
      <trkpt lat="48.42418" lon="2.13719">
        <ele>81</ele>
        <time>2011-04-15T12:22:37Z</time>
      </trkpt>
      <trkpt lat="48.42416" lon="2.13718">
        <ele>81</ele>
        <time>2011-04-15T12:22:38Z</time>
      </trkpt>
      <trkpt lat="48.42415" lon="2.13716">
        <ele>81</ele>
        <time>2011-04-15T12:22:39Z</time>
      </trkpt>
      <trkpt lat="48.42414" lon="2.13715">
        <ele>81</ele>
        <time>2011-04-15T12:22:40Z</time>
      </trkpt>
      <trkpt lat="48.42413" lon="2.13714">
        <ele>81</ele>
        <time>2011-04-15T12:22:41Z</time>
      </trkpt>
      <trkpt lat="48.42411" lon="2.13713">
        <ele>81</ele>
        <time>2011-04-15T12:22:42Z</time>
      </trkpt>
      <trkpt lat="48.4241" lon="2.13711">
        <ele>81</ele>
        <time>2011-04-15T12:22:43Z</time>
      </trkpt>
      <trkpt lat="48.42409" lon="2.1371">
        <ele>81</ele>
        <time>2011-04-15T12:22:44Z</time>
      </trkpt>
      <trkpt lat="48.42407" lon="2.13709">
        <ele>81</ele>
        <time>2011-04-15T12:22:45Z</time>
      </trkpt>
      <trkpt lat="48.42406" lon="2.13708">
        <ele>81</ele>
        <time>2011-04-15T12:22:46Z</time>
      </trkpt>
      <trkpt lat="48.42405" lon="2.13706">
        <ele>81</ele>
        <time>2011-04-15T12:22:47Z</time>
      </trkpt>
      <trkpt lat="48.42404" lon="2.13704">
        <ele>81</ele>
        <time>2011-04-15T12:22:48Z</time>
      </trkpt>
      <trkpt lat="48.42403" lon="2.13703">
        <ele>81</ele>
        <time>2011-04-15T12:22:49Z</time>
      </trkpt>
      <trkpt lat="48.42401" lon="2.13701">
        <ele>81</ele>
        <time>2011-04-15T12:22:51Z</time>
      </trkpt>
      <trkpt lat="48.42399" lon="2.13697">
        <ele>81</ele>
        <time>2011-04-15T12:22:53Z</time>
      </trkpt>
      <trkpt lat="48.42397" lon="2.13696">
        <ele>81</ele>
        <time>2011-04-15T12:22:54Z</time>
      </trkpt>
      <trkpt lat="48.42397" lon="2.13694">
        <ele>81</ele>
        <time>2011-04-15T12:22:55Z</time>
      </trkpt>
      <trkpt lat="48.42396" lon="2.13692">
        <ele>81</ele>
        <time>2011-04-15T12:22:56Z</time>
      </trkpt>
      <trkpt lat="48.42395" lon="2.1369">
        <ele>81</ele>
        <time>2011-04-15T12:22:57Z</time>
      </trkpt>
      <trkpt lat="48.42394" lon="2.13688">
        <ele>81</ele>
        <time>2011-04-15T12:22:58Z</time>
      </trkpt>
      <trkpt lat="48.42394" lon="2.13686">
        <ele>81</ele>
        <time>2011-04-15T12:22:59Z</time>
      </trkpt>
      <trkpt lat="48.42393" lon="2.13684">
        <ele>81</ele>
        <time>2011-04-15T12:23:00Z</time>
      </trkpt>
      <trkpt lat="48.42393" lon="2.13682">
        <ele>81</ele>
        <time>2011-04-15T12:23:01Z</time>
      </trkpt>
      <trkpt lat="48.42392" lon="2.1368">
        <ele>81</ele>
        <time>2011-04-15T12:23:02Z</time>
      </trkpt>
      <trkpt lat="48.42392" lon="2.13678">
        <ele>81</ele>
        <time>2011-04-15T12:23:03Z</time>
      </trkpt>
      <trkpt lat="48.42392" lon="2.13676">
        <ele>81</ele>
        <time>2011-04-15T12:23:04Z</time>
      </trkpt>
      <trkpt lat="48.42392" lon="2.13674">
        <ele>81</ele>
        <time>2011-04-15T12:23:05Z</time>
      </trkpt>
      <trkpt lat="48.42392" lon="2.13671">
        <ele>81</ele>
        <time>2011-04-15T12:23:06Z</time>
      </trkpt>
      <trkpt lat="48.42392" lon="2.13669">
        <ele>81</ele>
        <time>2011-04-15T12:23:07Z</time>
      </trkpt>
      <trkpt lat="48.42391" lon="2.13667">
        <ele>81</ele>
        <time>2011-04-15T12:23:08Z</time>
      </trkpt>
      <trkpt lat="48.42391" lon="2.13664">
        <ele>81</ele>
        <time>2011-04-15T12:23:09Z</time>
      </trkpt>
      <trkpt lat="48.42392" lon="2.13662">
        <ele>81</ele>
        <time>2011-04-15T12:23:10Z</time>
      </trkpt>
      <trkpt lat="48.42391" lon="2.1366">
        <ele>81</ele>
        <time>2011-04-15T12:23:11Z</time>
      </trkpt>
      <trkpt lat="48.42391" lon="2.13657">
        <ele>82</ele>
        <time>2011-04-15T12:23:12Z</time>
      </trkpt>
      <trkpt lat="48.42391" lon="2.13655">
        <ele>82</ele>
        <time>2011-04-15T12:23:13Z</time>
      </trkpt>
      <trkpt lat="48.42391" lon="2.13653">
        <ele>82</ele>
        <time>2011-04-15T12:23:14Z</time>
      </trkpt>
      <trkpt lat="48.42391" lon="2.13651">
        <ele>82</ele>
        <time>2011-04-15T12:23:15Z</time>
      </trkpt>
      <trkpt lat="48.42391" lon="2.13648">
        <ele>82</ele>
        <time>2011-04-15T12:23:16Z</time>
      </trkpt>
      <trkpt lat="48.42391" lon="2.13647">
        <ele>82</ele>
        <time>2011-04-15T12:23:17Z</time>
      </trkpt>
      <trkpt lat="48.42391" lon="2.13645">
        <ele>82</ele>
        <time>2011-04-15T12:23:18Z</time>
      </trkpt>
      <trkpt lat="48.42392" lon="2.13643">
        <ele>82</ele>
        <time>2011-04-15T12:23:19Z</time>
      </trkpt>
      <trkpt lat="48.42391" lon="2.1364">
        <ele>82</ele>
        <time>2011-04-15T12:23:20Z</time>
      </trkpt>
      <trkpt lat="48.42391" lon="2.13638">
        <ele>82</ele>
        <time>2011-04-15T12:23:21Z</time>
      </trkpt>
      <trkpt lat="48.42391" lon="2.13636">
        <ele>82</ele>
        <time>2011-04-15T12:23:22Z</time>
      </trkpt>
      <trkpt lat="48.42391" lon="2.13634">
        <ele>82</ele>
        <time>2011-04-15T12:23:23Z</time>
      </trkpt>
      <trkpt lat="48.42392" lon="2.13632">
        <ele>82</ele>
        <time>2011-04-15T12:23:24Z</time>
      </trkpt>
      <trkpt lat="48.42392" lon="2.1363">
        <ele>82</ele>
        <time>2011-04-15T12:23:25Z</time>
      </trkpt>
      <trkpt lat="48.42392" lon="2.13628">
        <ele>82</ele>
        <time>2011-04-15T12:23:26Z</time>
      </trkpt>
      <trkpt lat="48.42392" lon="2.13627">
        <ele>82</ele>
        <time>2011-04-15T12:23:27Z</time>
      </trkpt>
      <trkpt lat="48.42392" lon="2.13625">
        <ele>83</ele>
        <time>2011-04-15T12:23:28Z</time>
      </trkpt>
      <trkpt lat="48.42392" lon="2.13622">
        <ele>83</ele>
        <time>2011-04-15T12:23:29Z</time>
      </trkpt>
      <trkpt lat="48.42392" lon="2.1362">
        <ele>83</ele>
        <time>2011-04-15T12:23:30Z</time>
      </trkpt>
      <trkpt lat="48.42392" lon="2.13618">
        <ele>83</ele>
        <time>2011-04-15T12:23:31Z</time>
      </trkpt>
      <trkpt lat="48.42392" lon="2.13616">
        <ele>83</ele>
        <time>2011-04-15T12:23:32Z</time>
      </trkpt>
      <trkpt lat="48.42392" lon="2.13614">
        <ele>83</ele>
        <time>2011-04-15T12:23:33Z</time>
      </trkpt>
      <trkpt lat="48.42391" lon="2.13611">
        <ele>83</ele>
        <time>2011-04-15T12:23:34Z</time>
      </trkpt>
      <trkpt lat="48.42391" lon="2.13608">
        <ele>83</ele>
        <time>2011-04-15T12:23:35Z</time>
      </trkpt>
      <trkpt lat="48.42391" lon="2.13605">
        <ele>83</ele>
        <time>2011-04-15T12:23:36Z</time>
      </trkpt>
      <trkpt lat="48.42391" lon="2.13602">
        <ele>83</ele>
        <time>2011-04-15T12:23:37Z</time>
      </trkpt>
      <trkpt lat="48.42391" lon="2.136">
        <ele>83</ele>
        <time>2011-04-15T12:23:38Z</time>
      </trkpt>
      <trkpt lat="48.4239" lon="2.13598">
        <ele>83</ele>
        <time>2011-04-15T12:23:39Z</time>
      </trkpt>
      <trkpt lat="48.4239" lon="2.13595">
        <ele>83</ele>
        <time>2011-04-15T12:23:40Z</time>
      </trkpt>
      <trkpt lat="48.4239" lon="2.13593">
        <ele>83</ele>
        <time>2011-04-15T12:23:41Z</time>
      </trkpt>
      <trkpt lat="48.4239" lon="2.13591">
        <ele>83</ele>
        <time>2011-04-15T12:23:42Z</time>
      </trkpt>
      <trkpt lat="48.4239" lon="2.13589">
        <ele>83</ele>
        <time>2011-04-15T12:23:43Z</time>
      </trkpt>
      <trkpt lat="48.4239" lon="2.13587">
        <ele>83</ele>
        <time>2011-04-15T12:23:44Z</time>
      </trkpt>
      <trkpt lat="48.4239" lon="2.13585">
        <ele>83</ele>
        <time>2011-04-15T12:23:45Z</time>
      </trkpt>
      <trkpt lat="48.4239" lon="2.13583">
        <ele>83</ele>
        <time>2011-04-15T12:23:46Z</time>
      </trkpt>
      <trkpt lat="48.4239" lon="2.13581">
        <ele>83</ele>
        <time>2011-04-15T12:23:47Z</time>
      </trkpt>
      <trkpt lat="48.4239" lon="2.13579">
        <ele>83</ele>
        <time>2011-04-15T12:23:48Z</time>
      </trkpt>
      <trkpt lat="48.4239" lon="2.13577">
        <ele>83</ele>
        <time>2011-04-15T12:23:49Z</time>
      </trkpt>
      <trkpt lat="48.4239" lon="2.13575">
        <ele>83</ele>
        <time>2011-04-15T12:23:50Z</time>
      </trkpt>
      <trkpt lat="48.4239" lon="2.13572">
        <ele>83</ele>
        <time>2011-04-15T12:23:51Z</time>
      </trkpt>
      <trkpt lat="48.4239" lon="2.1357">
        <ele>83</ele>
        <time>2011-04-15T12:23:52Z</time>
      </trkpt>
      <trkpt lat="48.42389" lon="2.13568">
        <ele>83</ele>
        <time>2011-04-15T12:23:53Z</time>
      </trkpt>
      <trkpt lat="48.42389" lon="2.13565">
        <ele>83</ele>
        <time>2011-04-15T12:23:54Z</time>
      </trkpt>
      <trkpt lat="48.42389" lon="2.13563">
        <ele>83</ele>
        <time>2011-04-15T12:23:55Z</time>
      </trkpt>
      <trkpt lat="48.42388" lon="2.13561">
        <ele>83</ele>
        <time>2011-04-15T12:23:56Z</time>
      </trkpt>
      <trkpt lat="48.42388" lon="2.13558">
        <ele>83</ele>
        <time>2011-04-15T12:23:57Z</time>
      </trkpt>
      <trkpt lat="48.42387" lon="2.13556">
        <ele>84</ele>
        <time>2011-04-15T12:23:58Z</time>
      </trkpt>
      <trkpt lat="48.42386" lon="2.13553">
        <ele>84</ele>
        <time>2011-04-15T12:23:59Z</time>
      </trkpt>
      <trkpt lat="48.42386" lon="2.13551">
        <ele>85</ele>
        <time>2011-04-15T12:24:00Z</time>
      </trkpt>
      <trkpt lat="48.42386" lon="2.13549">
        <ele>85</ele>
        <time>2011-04-15T12:24:01Z</time>
      </trkpt>
      <trkpt lat="48.42387" lon="2.13546">
        <ele>86</ele>
        <time>2011-04-15T12:24:03Z</time>
      </trkpt>
      <trkpt lat="48.42387" lon="2.13544">
        <ele>86</ele>
        <time>2011-04-15T12:24:04Z</time>
      </trkpt>
      <trkpt lat="48.42387" lon="2.13542">
        <ele>86</ele>
        <time>2011-04-15T12:24:05Z</time>
      </trkpt>
      <trkpt lat="48.42387" lon="2.1354">
        <ele>86</ele>
        <time>2011-04-15T12:24:06Z</time>
      </trkpt>
      <trkpt lat="48.42387" lon="2.13538">
        <ele>86</ele>
        <time>2011-04-15T12:24:07Z</time>
      </trkpt>
      <trkpt lat="48.42387" lon="2.13536">
        <ele>86</ele>
        <time>2011-04-15T12:24:08Z</time>
      </trkpt>
      <trkpt lat="48.42386" lon="2.13534">
        <ele>86</ele>
        <time>2011-04-15T12:24:09Z</time>
      </trkpt>
      <trkpt lat="48.42386" lon="2.13532">
        <ele>86</ele>
        <time>2011-04-15T12:24:10Z</time>
      </trkpt>
      <trkpt lat="48.42386" lon="2.1353">
        <ele>86</ele>
        <time>2011-04-15T12:24:11Z</time>
      </trkpt>
      <trkpt lat="48.42386" lon="2.13528">
        <ele>86</ele>
        <time>2011-04-15T12:24:12Z</time>
      </trkpt>
      <trkpt lat="48.42386" lon="2.13526">
        <ele>86</ele>
        <time>2011-04-15T12:24:13Z</time>
      </trkpt>
      <trkpt lat="48.42386" lon="2.13524">
        <ele>86</ele>
        <time>2011-04-15T12:24:14Z</time>
      </trkpt>
      <trkpt lat="48.42386" lon="2.13522">
        <ele>86</ele>
        <time>2011-04-15T12:24:15Z</time>
      </trkpt>
      <trkpt lat="48.42385" lon="2.1352">
        <ele>86</ele>
        <time>2011-04-15T12:24:16Z</time>
      </trkpt>
      <trkpt lat="48.42385" lon="2.13517">
        <ele>86</ele>
        <time>2011-04-15T12:24:17Z</time>
      </trkpt>
      <trkpt lat="48.42384" lon="2.13515">
        <ele>86</ele>
        <time>2011-04-15T12:24:18Z</time>
      </trkpt>
      <trkpt lat="48.42384" lon="2.13512">
        <ele>86</ele>
        <time>2011-04-15T12:24:19Z</time>
      </trkpt>
      <trkpt lat="48.42384" lon="2.13509">
        <ele>87</ele>
        <time>2011-04-15T12:24:20Z</time>
      </trkpt>
      <trkpt lat="48.42384" lon="2.13506">
        <ele>87</ele>
        <time>2011-04-15T12:24:21Z</time>
      </trkpt>
      <trkpt lat="48.42383" lon="2.13503">
        <ele>87</ele>
        <time>2011-04-15T12:24:22Z</time>
      </trkpt>
      <trkpt lat="48.42383" lon="2.13501">
        <ele>87</ele>
        <time>2011-04-15T12:24:23Z</time>
      </trkpt>
      <trkpt lat="48.42382" lon="2.13499">
        <ele>87</ele>
        <time>2011-04-15T12:24:24Z</time>
      </trkpt>
      <trkpt lat="48.42382" lon="2.13497">
        <ele>87</ele>
        <time>2011-04-15T12:24:25Z</time>
      </trkpt>
      <trkpt lat="48.42382" lon="2.13495">
        <ele>87</ele>
        <time>2011-04-15T12:24:26Z</time>
      </trkpt>
      <trkpt lat="48.42382" lon="2.13493">
        <ele>87</ele>
        <time>2011-04-15T12:24:27Z</time>
      </trkpt>
      <trkpt lat="48.42382" lon="2.1349">
        <ele>87</ele>
        <time>2011-04-15T12:24:28Z</time>
      </trkpt>
      <trkpt lat="48.42381" lon="2.13488">
        <ele>87</ele>
        <time>2011-04-15T12:24:29Z</time>
      </trkpt>
      <trkpt lat="48.42381" lon="2.13486">
        <ele>87</ele>
        <time>2011-04-15T12:24:30Z</time>
      </trkpt>
      <trkpt lat="48.42381" lon="2.13484">
        <ele>87</ele>
        <time>2011-04-15T12:24:31Z</time>
      </trkpt>
      <trkpt lat="48.42381" lon="2.13481">
        <ele>87</ele>
        <time>2011-04-15T12:24:32Z</time>
      </trkpt>
      <trkpt lat="48.42381" lon="2.13479">
        <ele>87</ele>
        <time>2011-04-15T12:24:33Z</time>
      </trkpt>
      <trkpt lat="48.42381" lon="2.13477">
        <ele>87</ele>
        <time>2011-04-15T12:24:34Z</time>
      </trkpt>
      <trkpt lat="48.42381" lon="2.13475">
        <ele>87</ele>
        <time>2011-04-15T12:24:35Z</time>
      </trkpt>
      <trkpt lat="48.42381" lon="2.13473">
        <ele>87</ele>
        <time>2011-04-15T12:24:36Z</time>
      </trkpt>
      <trkpt lat="48.42381" lon="2.13471">
        <ele>87</ele>
        <time>2011-04-15T12:24:37Z</time>
      </trkpt>
      <trkpt lat="48.42381" lon="2.13469">
        <ele>87</ele>
        <time>2011-04-15T12:24:38Z</time>
      </trkpt>
      <trkpt lat="48.42381" lon="2.13466">
        <ele>87</ele>
        <time>2011-04-15T12:24:39Z</time>
      </trkpt>
      <trkpt lat="48.42381" lon="2.13464">
        <ele>87</ele>
        <time>2011-04-15T12:24:40Z</time>
      </trkpt>
      <trkpt lat="48.42381" lon="2.13461">
        <ele>87</ele>
        <time>2011-04-15T12:24:41Z</time>
      </trkpt>
      <trkpt lat="48.42381" lon="2.13458">
        <ele>87</ele>
        <time>2011-04-15T12:24:42Z</time>
      </trkpt>
      <trkpt lat="48.42381" lon="2.13455">
        <ele>87</ele>
        <time>2011-04-15T12:24:43Z</time>
      </trkpt>
      <trkpt lat="48.42381" lon="2.13453">
        <ele>87</ele>
        <time>2011-04-15T12:24:44Z</time>
      </trkpt>
      <trkpt lat="48.4238" lon="2.1345">
        <ele>87</ele>
        <time>2011-04-15T12:24:45Z</time>
      </trkpt>
      <trkpt lat="48.4238" lon="2.13447">
        <ele>87</ele>
        <time>2011-04-15T12:24:46Z</time>
      </trkpt>
      <trkpt lat="48.42379" lon="2.13444">
        <ele>87</ele>
        <time>2011-04-15T12:24:47Z</time>
      </trkpt>
      <trkpt lat="48.42378" lon="2.13442">
        <ele>87</ele>
        <time>2011-04-15T12:24:48Z</time>
      </trkpt>
      <trkpt lat="48.42376" lon="2.1344">
        <ele>87</ele>
        <time>2011-04-15T12:24:49Z</time>
      </trkpt>
      <trkpt lat="48.42375" lon="2.13438">
        <ele>87</ele>
        <time>2011-04-15T12:24:50Z</time>
      </trkpt>
      <trkpt lat="48.42374" lon="2.13436">
        <ele>87</ele>
        <time>2011-04-15T12:24:51Z</time>
      </trkpt>
      <trkpt lat="48.42373" lon="2.13433">
        <ele>87</ele>
        <time>2011-04-15T12:24:53Z</time>
      </trkpt>
      <trkpt lat="48.42371" lon="2.13431">
        <ele>87</ele>
        <time>2011-04-15T12:24:55Z</time>
      </trkpt>
      <trkpt lat="48.4237" lon="2.13428">
        <ele>88</ele>
        <time>2011-04-15T12:24:57Z</time>
      </trkpt>
      <trkpt lat="48.42369" lon="2.13426">
        <ele>88</ele>
        <time>2011-04-15T12:24:58Z</time>
      </trkpt>
      <trkpt lat="48.42369" lon="2.13424">
        <ele>88</ele>
        <time>2011-04-15T12:24:59Z</time>
      </trkpt>
      <trkpt lat="48.42368" lon="2.13421">
        <ele>88</ele>
        <time>2011-04-15T12:25:01Z</time>
      </trkpt>
      <trkpt lat="48.42367" lon="2.1342">
        <ele>89</ele>
        <time>2011-04-15T12:25:02Z</time>
      </trkpt>
      <trkpt lat="48.42367" lon="2.13418">
        <ele>89</ele>
        <time>2011-04-15T12:25:03Z</time>
      </trkpt>
      <trkpt lat="48.42366" lon="2.13416">
        <ele>89</ele>
        <time>2011-04-15T12:25:04Z</time>
      </trkpt>
      <trkpt lat="48.42366" lon="2.13414">
        <ele>89</ele>
        <time>2011-04-15T12:25:05Z</time>
      </trkpt>
      <trkpt lat="48.42365" lon="2.13413">
        <ele>89</ele>
        <time>2011-04-15T12:25:06Z</time>
      </trkpt>
      <trkpt lat="48.42364" lon="2.13411">
        <ele>89</ele>
        <time>2011-04-15T12:25:07Z</time>
      </trkpt>
      <trkpt lat="48.42364" lon="2.13409">
        <ele>89</ele>
        <time>2011-04-15T12:25:08Z</time>
      </trkpt>
      <trkpt lat="48.42363" lon="2.13407">
        <ele>89</ele>
        <time>2011-04-15T12:25:09Z</time>
      </trkpt>
      <trkpt lat="48.42362" lon="2.13405">
        <ele>89</ele>
        <time>2011-04-15T12:25:10Z</time>
      </trkpt>
      <trkpt lat="48.42362" lon="2.13404">
        <ele>89</ele>
        <time>2011-04-15T12:25:11Z</time>
      </trkpt>
      <trkpt lat="48.42361" lon="2.13402">
        <ele>89</ele>
        <time>2011-04-15T12:25:12Z</time>
      </trkpt>
      <trkpt lat="48.4236" lon="2.134">
        <ele>89</ele>
        <time>2011-04-15T12:25:13Z</time>
      </trkpt>
      <trkpt lat="48.4236" lon="2.13398">
        <ele>90</ele>
        <time>2011-04-15T12:25:14Z</time>
      </trkpt>
      <trkpt lat="48.42359" lon="2.13397">
        <ele>90</ele>
        <time>2011-04-15T12:25:15Z</time>
      </trkpt>
      <trkpt lat="48.42359" lon="2.13395">
        <ele>90</ele>
        <time>2011-04-15T12:25:16Z</time>
      </trkpt>
      <trkpt lat="48.42358" lon="2.13393">
        <ele>90</ele>
        <time>2011-04-15T12:25:17Z</time>
      </trkpt>
      <trkpt lat="48.42357" lon="2.13391">
        <ele>90</ele>
        <time>2011-04-15T12:25:18Z</time>
      </trkpt>
      <trkpt lat="48.42356" lon="2.1339">
        <ele>90</ele>
        <time>2011-04-15T12:25:19Z</time>
      </trkpt>
      <trkpt lat="48.42356" lon="2.13388">
        <ele>90</ele>
        <time>2011-04-15T12:25:20Z</time>
      </trkpt>
      <trkpt lat="48.42354" lon="2.13385">
        <ele>90</ele>
        <time>2011-04-15T12:25:22Z</time>
      </trkpt>
      <trkpt lat="48.42353" lon="2.13383">
        <ele>91</ele>
        <time>2011-04-15T12:25:23Z</time>
      </trkpt>
      <trkpt lat="48.42353" lon="2.13382">
        <ele>91</ele>
        <time>2011-04-15T12:25:24Z</time>
      </trkpt>
      <trkpt lat="48.42352" lon="2.1338">
        <ele>91</ele>
        <time>2011-04-15T12:25:25Z</time>
      </trkpt>
      <trkpt lat="48.42351" lon="2.13378">
        <ele>91</ele>
        <time>2011-04-15T12:25:26Z</time>
      </trkpt>
      <trkpt lat="48.42351" lon="2.13376">
        <ele>91</ele>
        <time>2011-04-15T12:25:27Z</time>
      </trkpt>
      <trkpt lat="48.42351" lon="2.13374">
        <ele>91</ele>
        <time>2011-04-15T12:25:28Z</time>
      </trkpt>
      <trkpt lat="48.4235" lon="2.13372">
        <ele>91</ele>
        <time>2011-04-15T12:25:29Z</time>
      </trkpt>
      <trkpt lat="48.4235" lon="2.1337">
        <ele>91</ele>
        <time>2011-04-15T12:25:30Z</time>
      </trkpt>
      <trkpt lat="48.42349" lon="2.13368">
        <ele>91</ele>
        <time>2011-04-15T12:25:31Z</time>
      </trkpt>
      <trkpt lat="48.42348" lon="2.13366">
        <ele>91</ele>
        <time>2011-04-15T12:25:32Z</time>
      </trkpt>
      <trkpt lat="48.42348" lon="2.13364">
        <ele>91</ele>
        <time>2011-04-15T12:25:33Z</time>
      </trkpt>
      <trkpt lat="48.42347" lon="2.13363">
        <ele>91</ele>
        <time>2011-04-15T12:25:34Z</time>
      </trkpt>
      <trkpt lat="48.42347" lon="2.13361">
        <ele>91</ele>
        <time>2011-04-15T12:25:35Z</time>
      </trkpt>
      <trkpt lat="48.42346" lon="2.13359">
        <ele>91</ele>
        <time>2011-04-15T12:25:36Z</time>
      </trkpt>
      <trkpt lat="48.42346" lon="2.13356">
        <ele>91</ele>
        <time>2011-04-15T12:25:37Z</time>
      </trkpt>
      <trkpt lat="48.42345" lon="2.13353">
        <ele>91</ele>
        <time>2011-04-15T12:25:38Z</time>
      </trkpt>
      <trkpt lat="48.42344" lon="2.13351">
        <ele>91</ele>
        <time>2011-04-15T12:25:39Z</time>
      </trkpt>
      <trkpt lat="48.42343" lon="2.13349">
        <ele>91</ele>
        <time>2011-04-15T12:25:40Z</time>
      </trkpt>
      <trkpt lat="48.42341" lon="2.13347">
        <ele>91</ele>
        <time>2011-04-15T12:25:42Z</time>
      </trkpt>
      <trkpt lat="48.4234" lon="2.13345">
        <ele>91</ele>
        <time>2011-04-15T12:25:44Z</time>
      </trkpt>
      <trkpt lat="48.4234" lon="2.13343">
        <ele>92</ele>
        <time>2011-04-15T12:25:54Z</time>
      </trkpt>
      <trkpt lat="48.42339" lon="2.13342">
        <ele>92</ele>
        <time>2011-04-15T12:26:00Z</time>
      </trkpt>
      <trkpt lat="48.42337" lon="2.13341">
        <ele>92</ele>
        <time>2011-04-15T12:27:03Z</time>
      </trkpt>
      <trkpt lat="48.42337" lon="2.13339">
        <ele>92</ele>
        <time>2011-04-15T12:27:14Z</time>
      </trkpt>
      <trkpt lat="48.42336" lon="2.13336">
        <ele>92</ele>
        <time>2011-04-15T12:27:16Z</time>
      </trkpt>
      <trkpt lat="48.42335" lon="2.13334">
        <ele>92</ele>
        <time>2011-04-15T12:27:17Z</time>
      </trkpt>
      <trkpt lat="48.42333" lon="2.13332">
        <ele>92</ele>
        <time>2011-04-15T12:27:19Z</time>
      </trkpt>
      <trkpt lat="48.4233" lon="2.13329">
        <ele>92</ele>
        <time>2011-04-15T12:27:21Z</time>
      </trkpt>
      <trkpt lat="48.42329" lon="2.13328">
        <ele>92</ele>
        <time>2011-04-15T12:27:22Z</time>
      </trkpt>
      <trkpt lat="48.42328" lon="2.13326">
        <ele>92</ele>
        <time>2011-04-15T12:27:23Z</time>
      </trkpt>
      <trkpt lat="48.42327" lon="2.13325">
        <ele>92</ele>
        <time>2011-04-15T12:27:24Z</time>
      </trkpt>
      <trkpt lat="48.42325" lon="2.13324">
        <ele>92</ele>
        <time>2011-04-15T12:27:25Z</time>
      </trkpt>
      <trkpt lat="48.42324" lon="2.13322">
        <ele>92</ele>
        <time>2011-04-15T12:27:26Z</time>
      </trkpt>
      <trkpt lat="48.42323" lon="2.13321">
        <ele>92</ele>
        <time>2011-04-15T12:27:27Z</time>
      </trkpt>
      <trkpt lat="48.42321" lon="2.13319">
        <ele>92</ele>
        <time>2011-04-15T12:27:29Z</time>
      </trkpt>
      <trkpt lat="48.42319" lon="2.13316">
        <ele>92</ele>
        <time>2011-04-15T12:27:31Z</time>
      </trkpt>
      <trkpt lat="48.42317" lon="2.13314">
        <ele>92</ele>
        <time>2011-04-15T12:27:33Z</time>
      </trkpt>
      <trkpt lat="48.42315" lon="2.13311">
        <ele>92</ele>
        <time>2011-04-15T12:27:35Z</time>
      </trkpt>
      <trkpt lat="48.42314" lon="2.13309">
        <ele>92</ele>
        <time>2011-04-15T12:27:36Z</time>
      </trkpt>
      <trkpt lat="48.42313" lon="2.13308">
        <ele>92</ele>
        <time>2011-04-15T12:27:37Z</time>
      </trkpt>
      <trkpt lat="48.4231" lon="2.13305">
        <ele>92</ele>
        <time>2011-04-15T12:27:39Z</time>
      </trkpt>
      <trkpt lat="48.42309" lon="2.13304">
        <ele>92</ele>
        <time>2011-04-15T12:27:40Z</time>
      </trkpt>
      <trkpt lat="48.42308" lon="2.13302">
        <ele>92</ele>
        <time>2011-04-15T12:27:41Z</time>
      </trkpt>
      <trkpt lat="48.42306" lon="2.133">
        <ele>92</ele>
        <time>2011-04-15T12:27:43Z</time>
      </trkpt>
      <trkpt lat="48.42305" lon="2.13299">
        <ele>92</ele>
        <time>2011-04-15T12:27:44Z</time>
      </trkpt>
      <trkpt lat="48.42303" lon="2.13296">
        <ele>92</ele>
        <time>2011-04-15T12:27:46Z</time>
      </trkpt>
      <trkpt lat="48.42301" lon="2.13295">
        <ele>92</ele>
        <time>2011-04-15T12:27:47Z</time>
      </trkpt>
      <trkpt lat="48.423" lon="2.13294">
        <ele>93</ele>
        <time>2011-04-15T12:27:48Z</time>
      </trkpt>
      <trkpt lat="48.42299" lon="2.13293">
        <ele>93</ele>
        <time>2011-04-15T12:27:49Z</time>
      </trkpt>
      <trkpt lat="48.42298" lon="2.13291">
        <ele>93</ele>
        <time>2011-04-15T12:27:50Z</time>
      </trkpt>
      <trkpt lat="48.42297" lon="2.1329">
        <ele>93</ele>
        <time>2011-04-15T12:27:51Z</time>
      </trkpt>
      <trkpt lat="48.42295" lon="2.13289">
        <ele>93</ele>
        <time>2011-04-15T12:27:52Z</time>
      </trkpt>
      <trkpt lat="48.42294" lon="2.13288">
        <ele>93</ele>
        <time>2011-04-15T12:27:53Z</time>
      </trkpt>
      <trkpt lat="48.42293" lon="2.13287">
        <ele>93</ele>
        <time>2011-04-15T12:27:54Z</time>
      </trkpt>
      <trkpt lat="48.42292" lon="2.13285">
        <ele>93</ele>
        <time>2011-04-15T12:27:55Z</time>
      </trkpt>
      <trkpt lat="48.42291" lon="2.13284">
        <ele>93</ele>
        <time>2011-04-15T12:27:56Z</time>
      </trkpt>
      <trkpt lat="48.42289" lon="2.13283">
        <ele>93</ele>
        <time>2011-04-15T12:27:57Z</time>
      </trkpt>
      <trkpt lat="48.42288" lon="2.13282">
        <ele>93</ele>
        <time>2011-04-15T12:27:58Z</time>
      </trkpt>
      <trkpt lat="48.42287" lon="2.13281">
        <ele>93</ele>
        <time>2011-04-15T12:27:59Z</time>
      </trkpt>
      <trkpt lat="48.42286" lon="2.1328">
        <ele>93</ele>
        <time>2011-04-15T12:28:00Z</time>
      </trkpt>
      <trkpt lat="48.42284" lon="2.13279">
        <ele>93</ele>
        <time>2011-04-15T12:28:01Z</time>
      </trkpt>
      <trkpt lat="48.42283" lon="2.13277">
        <ele>93</ele>
        <time>2011-04-15T12:28:02Z</time>
      </trkpt>
      <trkpt lat="48.42281" lon="2.13276">
        <ele>93</ele>
        <time>2011-04-15T12:28:03Z</time>
      </trkpt>
      <trkpt lat="48.4228" lon="2.13275">
        <ele>93</ele>
        <time>2011-04-15T12:28:04Z</time>
      </trkpt>
      <trkpt lat="48.42278" lon="2.13274">
        <ele>93</ele>
        <time>2011-04-15T12:28:05Z</time>
      </trkpt>
      <trkpt lat="48.42277" lon="2.13273">
        <ele>93</ele>
        <time>2011-04-15T12:28:06Z</time>
      </trkpt>
      <trkpt lat="48.42275" lon="2.13271">
        <ele>94</ele>
        <time>2011-04-15T12:28:07Z</time>
      </trkpt>
      <trkpt lat="48.42274" lon="2.1327">
        <ele>94</ele>
        <time>2011-04-15T12:28:08Z</time>
      </trkpt>
      <trkpt lat="48.42272" lon="2.13269">
        <ele>94</ele>
        <time>2011-04-15T12:28:09Z</time>
      </trkpt>
      <trkpt lat="48.42271" lon="2.13268">
        <ele>94</ele>
        <time>2011-04-15T12:28:10Z</time>
      </trkpt>
      <trkpt lat="48.42269" lon="2.13266">
        <ele>94</ele>
        <time>2011-04-15T12:28:11Z</time>
      </trkpt>
      <trkpt lat="48.42267" lon="2.13265">
        <ele>94</ele>
        <time>2011-04-15T12:28:12Z</time>
      </trkpt>
      <trkpt lat="48.42266" lon="2.13264">
        <ele>94</ele>
        <time>2011-04-15T12:28:13Z</time>
      </trkpt>
      <trkpt lat="48.42264" lon="2.13263">
        <ele>94</ele>
        <time>2011-04-15T12:28:14Z</time>
      </trkpt>
      <trkpt lat="48.42263" lon="2.13262">
        <ele>95</ele>
        <time>2011-04-15T12:28:15Z</time>
      </trkpt>
      <trkpt lat="48.42261" lon="2.13261">
        <ele>95</ele>
        <time>2011-04-15T12:28:17Z</time>
      </trkpt>
      <trkpt lat="48.4226" lon="2.1326">
        <ele>95</ele>
        <time>2011-04-15T12:28:18Z</time>
      </trkpt>
      <trkpt lat="48.42259" lon="2.13259">
        <ele>95</ele>
        <time>2011-04-15T12:28:19Z</time>
      </trkpt>
      <trkpt lat="48.42258" lon="2.13259">
        <ele>95</ele>
        <time>2011-04-15T12:28:20Z</time>
      </trkpt>
      <trkpt lat="48.42256" lon="2.13258">
        <ele>95</ele>
        <time>2011-04-15T12:28:21Z</time>
      </trkpt>
      <trkpt lat="48.42255" lon="2.13257">
        <ele>95</ele>
        <time>2011-04-15T12:28:22Z</time>
      </trkpt>
      <trkpt lat="48.42254" lon="2.13257">
        <ele>95</ele>
        <time>2011-04-15T12:28:23Z</time>
      </trkpt>
      <trkpt lat="48.42253" lon="2.13257">
        <ele>95</ele>
        <time>2011-04-15T12:28:24Z</time>
      </trkpt>
      <trkpt lat="48.42251" lon="2.13256">
        <ele>95</ele>
        <time>2011-04-15T12:28:25Z</time>
      </trkpt>
      <trkpt lat="48.4225" lon="2.13256">
        <ele>95</ele>
        <time>2011-04-15T12:28:26Z</time>
      </trkpt>
      <trkpt lat="48.42249" lon="2.13255">
        <ele>96</ele>
        <time>2011-04-15T12:28:27Z</time>
      </trkpt>
      <trkpt lat="48.42248" lon="2.13254">
        <ele>96</ele>
        <time>2011-04-15T12:28:28Z</time>
      </trkpt>
      <trkpt lat="48.42246" lon="2.13253">
        <ele>96</ele>
        <time>2011-04-15T12:28:30Z</time>
      </trkpt>
      <trkpt lat="48.42244" lon="2.1325">
        <ele>96</ele>
        <time>2011-04-15T12:28:32Z</time>
      </trkpt>
      <trkpt lat="48.42243" lon="2.13249">
        <ele>96</ele>
        <time>2011-04-15T12:28:33Z</time>
      </trkpt>
      <trkpt lat="48.42241" lon="2.13247">
        <ele>96</ele>
        <time>2011-04-15T12:28:35Z</time>
      </trkpt>
      <trkpt lat="48.42239" lon="2.13246">
        <ele>97</ele>
        <time>2011-04-15T12:28:36Z</time>
      </trkpt>
      <trkpt lat="48.42238" lon="2.13245">
        <ele>97</ele>
        <time>2011-04-15T12:28:37Z</time>
      </trkpt>
      <trkpt lat="48.42236" lon="2.13245">
        <ele>97</ele>
        <time>2011-04-15T12:28:38Z</time>
      </trkpt>
      <trkpt lat="48.42235" lon="2.13245">
        <ele>97</ele>
        <time>2011-04-15T12:28:39Z</time>
      </trkpt>
      <trkpt lat="48.42233" lon="2.13244">
        <ele>98</ele>
        <time>2011-04-15T12:28:40Z</time>
      </trkpt>
      <trkpt lat="48.42232" lon="2.13244">
        <ele>98</ele>
        <time>2011-04-15T12:28:41Z</time>
      </trkpt>
      <trkpt lat="48.4223" lon="2.13243">
        <ele>98</ele>
        <time>2011-04-15T12:28:42Z</time>
      </trkpt>
      <trkpt lat="48.42229" lon="2.13243">
        <ele>98</ele>
        <time>2011-04-15T12:28:43Z</time>
      </trkpt>
      <trkpt lat="48.42227" lon="2.13243">
        <ele>99</ele>
        <time>2011-04-15T12:28:44Z</time>
      </trkpt>
      <trkpt lat="48.42226" lon="2.13244">
        <ele>99</ele>
        <time>2011-04-15T12:28:45Z</time>
      </trkpt>
      <trkpt lat="48.42225" lon="2.13244">
        <ele>99</ele>
        <time>2011-04-15T12:28:46Z</time>
      </trkpt>
      <trkpt lat="48.42223" lon="2.13244">
        <ele>99</ele>
        <time>2011-04-15T12:28:47Z</time>
      </trkpt>
      <trkpt lat="48.42222" lon="2.13244">
        <ele>99</ele>
        <time>2011-04-15T12:28:48Z</time>
      </trkpt>
      <trkpt lat="48.42221" lon="2.13244">
        <ele>99</ele>
        <time>2011-04-15T12:28:49Z</time>
      </trkpt>
      <trkpt lat="48.4222" lon="2.13244">
        <ele>99</ele>
        <time>2011-04-15T12:28:50Z</time>
      </trkpt>
      <trkpt lat="48.42218" lon="2.13244">
        <ele>100</ele>
        <time>2011-04-15T12:28:51Z</time>
      </trkpt>
      <trkpt lat="48.42217" lon="2.13244">
        <ele>100</ele>
        <time>2011-04-15T12:28:52Z</time>
      </trkpt>
      <trkpt lat="48.42215" lon="2.13243">
        <ele>100</ele>
        <time>2011-04-15T12:28:53Z</time>
      </trkpt>
      <trkpt lat="48.42214" lon="2.13243">
        <ele>100</ele>
        <time>2011-04-15T12:28:54Z</time>
      </trkpt>
      <trkpt lat="48.42212" lon="2.13243">
        <ele>100</ele>
        <time>2011-04-15T12:28:55Z</time>
      </trkpt>
      <trkpt lat="48.42211" lon="2.13242">
        <ele>100</ele>
        <time>2011-04-15T12:28:56Z</time>
      </trkpt>
      <trkpt lat="48.4221" lon="2.13242">
        <ele>100</ele>
        <time>2011-04-15T12:28:57Z</time>
      </trkpt>
      <trkpt lat="48.42208" lon="2.13242">
        <ele>100</ele>
        <time>2011-04-15T12:28:58Z</time>
      </trkpt>
      <trkpt lat="48.42207" lon="2.13242">
        <ele>100</ele>
        <time>2011-04-15T12:28:59Z</time>
      </trkpt>
      <trkpt lat="48.42205" lon="2.13242">
        <ele>100</ele>
        <time>2011-04-15T12:29:00Z</time>
      </trkpt>
      <trkpt lat="48.42204" lon="2.13241">
        <ele>100</ele>
        <time>2011-04-15T12:29:01Z</time>
      </trkpt>
      <trkpt lat="48.42203" lon="2.1324">
        <ele>100</ele>
        <time>2011-04-15T12:29:02Z</time>
      </trkpt>
      <trkpt lat="48.42201" lon="2.1324">
        <ele>100</ele>
        <time>2011-04-15T12:29:03Z</time>
      </trkpt>
      <trkpt lat="48.422" lon="2.13239">
        <ele>100</ele>
        <time>2011-04-15T12:29:04Z</time>
      </trkpt>
      <trkpt lat="48.42199" lon="2.13239">
        <ele>101</ele>
        <time>2011-04-15T12:29:05Z</time>
      </trkpt>
      <trkpt lat="48.42197" lon="2.13238">
        <ele>101</ele>
        <time>2011-04-15T12:29:06Z</time>
      </trkpt>
      <trkpt lat="48.42196" lon="2.13238">
        <ele>101</ele>
        <time>2011-04-15T12:29:07Z</time>
      </trkpt>
      <trkpt lat="48.42195" lon="2.13237">
        <ele>101</ele>
        <time>2011-04-15T12:29:08Z</time>
      </trkpt>
      <trkpt lat="48.42193" lon="2.13237">
        <ele>101</ele>
        <time>2011-04-15T12:29:09Z</time>
      </trkpt>
      <trkpt lat="48.42192" lon="2.13236">
        <ele>101</ele>
        <time>2011-04-15T12:29:10Z</time>
      </trkpt>
      <trkpt lat="48.4219" lon="2.13236">
        <ele>101</ele>
        <time>2011-04-15T12:29:11Z</time>
      </trkpt>
      <trkpt lat="48.42189" lon="2.13236">
        <ele>101</ele>
        <time>2011-04-15T12:29:12Z</time>
      </trkpt>
      <trkpt lat="48.42187" lon="2.13235">
        <ele>101</ele>
        <time>2011-04-15T12:29:13Z</time>
      </trkpt>
      <trkpt lat="48.42185" lon="2.13235">
        <ele>102</ele>
        <time>2011-04-15T12:29:14Z</time>
      </trkpt>
      <trkpt lat="48.42183" lon="2.13235">
        <ele>102</ele>
        <time>2011-04-15T12:29:15Z</time>
      </trkpt>
      <trkpt lat="48.42181" lon="2.13235">
        <ele>102</ele>
        <time>2011-04-15T12:29:16Z</time>
      </trkpt>
      <trkpt lat="48.42179" lon="2.13235">
        <ele>102</ele>
        <time>2011-04-15T12:29:17Z</time>
      </trkpt>
      <trkpt lat="48.42177" lon="2.13235">
        <ele>102</ele>
        <time>2011-04-15T12:29:18Z</time>
      </trkpt>
      <trkpt lat="48.42176" lon="2.13235">
        <ele>102</ele>
        <time>2011-04-15T12:29:19Z</time>
      </trkpt>
      <trkpt lat="48.42174" lon="2.13235">
        <ele>102</ele>
        <time>2011-04-15T12:29:20Z</time>
      </trkpt>
      <trkpt lat="48.42172" lon="2.13234">
        <ele>102</ele>
        <time>2011-04-15T12:29:21Z</time>
      </trkpt>
      <trkpt lat="48.4217" lon="2.13234">
        <ele>102</ele>
        <time>2011-04-15T12:29:22Z</time>
      </trkpt>
      <trkpt lat="48.42169" lon="2.13233">
        <ele>103</ele>
        <time>2011-04-15T12:29:23Z</time>
      </trkpt>
      <trkpt lat="48.42167" lon="2.13233">
        <ele>103</ele>
        <time>2011-04-15T12:29:24Z</time>
      </trkpt>
      <trkpt lat="48.42165" lon="2.13232">
        <ele>103</ele>
        <time>2011-04-15T12:29:25Z</time>
      </trkpt>
      <trkpt lat="48.42164" lon="2.13231">
        <ele>103</ele>
        <time>2011-04-15T12:29:26Z</time>
      </trkpt>
      <trkpt lat="48.42162" lon="2.13231">
        <ele>103</ele>
        <time>2011-04-15T12:29:27Z</time>
      </trkpt>
      <trkpt lat="48.4216" lon="2.13231">
        <ele>103</ele>
        <time>2011-04-15T12:29:28Z</time>
      </trkpt>
      <trkpt lat="48.42159" lon="2.1323">
        <ele>103</ele>
        <time>2011-04-15T12:29:29Z</time>
      </trkpt>
      <trkpt lat="48.42157" lon="2.13229">
        <ele>103</ele>
        <time>2011-04-15T12:29:30Z</time>
      </trkpt>
      <trkpt lat="48.42156" lon="2.13228">
        <ele>104</ele>
        <time>2011-04-15T12:29:31Z</time>
      </trkpt>
      <trkpt lat="48.42154" lon="2.13227">
        <ele>104</ele>
        <time>2011-04-15T12:29:32Z</time>
      </trkpt>
      <trkpt lat="48.42153" lon="2.13226">
        <ele>104</ele>
        <time>2011-04-15T12:29:33Z</time>
      </trkpt>
      <trkpt lat="48.42152" lon="2.13225">
        <ele>104</ele>
        <time>2011-04-15T12:29:34Z</time>
      </trkpt>
      <trkpt lat="48.4215" lon="2.13225">
        <ele>104</ele>
        <time>2011-04-15T12:29:35Z</time>
      </trkpt>
      <trkpt lat="48.42149" lon="2.13224">
        <ele>104</ele>
        <time>2011-04-15T12:29:36Z</time>
      </trkpt>
      <trkpt lat="48.42147" lon="2.13224">
        <ele>104</ele>
        <time>2011-04-15T12:29:37Z</time>
      </trkpt>
      <trkpt lat="48.42145" lon="2.13223">
        <ele>104</ele>
        <time>2011-04-15T12:29:38Z</time>
      </trkpt>
      <trkpt lat="48.42143" lon="2.13223">
        <ele>104</ele>
        <time>2011-04-15T12:29:39Z</time>
      </trkpt>
      <trkpt lat="48.42141" lon="2.13223">
        <ele>104</ele>
        <time>2011-04-15T12:29:40Z</time>
      </trkpt>
      <trkpt lat="48.4214" lon="2.13223">
        <ele>104</ele>
        <time>2011-04-15T12:29:41Z</time>
      </trkpt>
      <trkpt lat="48.42138" lon="2.13223">
        <ele>104</ele>
        <time>2011-04-15T12:29:42Z</time>
      </trkpt>
      <trkpt lat="48.42137" lon="2.13223">
        <ele>104</ele>
        <time>2011-04-15T12:29:43Z</time>
      </trkpt>
      <trkpt lat="48.42135" lon="2.13222">
        <ele>104</ele>
        <time>2011-04-15T12:29:44Z</time>
      </trkpt>
      <trkpt lat="48.42134" lon="2.13222">
        <ele>104</ele>
        <time>2011-04-15T12:29:45Z</time>
      </trkpt>
      <trkpt lat="48.42133" lon="2.13222">
        <ele>104</ele>
        <time>2011-04-15T12:29:46Z</time>
      </trkpt>
      <trkpt lat="48.42131" lon="2.13221">
        <ele>104</ele>
        <time>2011-04-15T12:29:47Z</time>
      </trkpt>
      <trkpt lat="48.42129" lon="2.13221">
        <ele>104</ele>
        <time>2011-04-15T12:29:48Z</time>
      </trkpt>
      <trkpt lat="48.42127" lon="2.13221">
        <ele>104</ele>
        <time>2011-04-15T12:29:49Z</time>
      </trkpt>
      <trkpt lat="48.42125" lon="2.1322">
        <ele>105</ele>
        <time>2011-04-15T12:29:50Z</time>
      </trkpt>
      <trkpt lat="48.42123" lon="2.1322">
        <ele>105</ele>
        <time>2011-04-15T12:29:51Z</time>
      </trkpt>
      <trkpt lat="48.42122" lon="2.13219">
        <ele>105</ele>
        <time>2011-04-15T12:29:52Z</time>
      </trkpt>
      <trkpt lat="48.4212" lon="2.13218">
        <ele>105</ele>
        <time>2011-04-15T12:29:53Z</time>
      </trkpt>
      <trkpt lat="48.42118" lon="2.13218">
        <ele>105</ele>
        <time>2011-04-15T12:29:54Z</time>
      </trkpt>
      <trkpt lat="48.42116" lon="2.13217">
        <ele>105</ele>
        <time>2011-04-15T12:29:55Z</time>
      </trkpt>
      <trkpt lat="48.42114" lon="2.13216">
        <ele>105</ele>
        <time>2011-04-15T12:29:56Z</time>
      </trkpt>
      <trkpt lat="48.42112" lon="2.13216">
        <ele>105</ele>
        <time>2011-04-15T12:29:57Z</time>
      </trkpt>
      <trkpt lat="48.4211" lon="2.13215">
        <ele>105</ele>
        <time>2011-04-15T12:29:58Z</time>
      </trkpt>
      <trkpt lat="48.42109" lon="2.13215">
        <ele>105</ele>
        <time>2011-04-15T12:29:59Z</time>
      </trkpt>
      <trkpt lat="48.42107" lon="2.13214">
        <ele>105</ele>
        <time>2011-04-15T12:30:00Z</time>
      </trkpt>
      <trkpt lat="48.42105" lon="2.13213">
        <ele>105</ele>
        <time>2011-04-15T12:30:01Z</time>
      </trkpt>
      <trkpt lat="48.42104" lon="2.13213">
        <ele>105</ele>
        <time>2011-04-15T12:30:02Z</time>
      </trkpt>
      <trkpt lat="48.42102" lon="2.13212">
        <ele>106</ele>
        <time>2011-04-15T12:30:03Z</time>
      </trkpt>
      <trkpt lat="48.42101" lon="2.13212">
        <ele>106</ele>
        <time>2011-04-15T12:30:04Z</time>
      </trkpt>
      <trkpt lat="48.42099" lon="2.13211">
        <ele>106</ele>
        <time>2011-04-15T12:30:05Z</time>
      </trkpt>
      <trkpt lat="48.42098" lon="2.13211">
        <ele>106</ele>
        <time>2011-04-15T12:30:06Z</time>
      </trkpt>
      <trkpt lat="48.42096" lon="2.1321">
        <ele>106</ele>
        <time>2011-04-15T12:30:07Z</time>
      </trkpt>
      <trkpt lat="48.42095" lon="2.1321">
        <ele>106</ele>
        <time>2011-04-15T12:30:08Z</time>
      </trkpt>
      <trkpt lat="48.42094" lon="2.13209">
        <ele>106</ele>
        <time>2011-04-15T12:30:09Z</time>
      </trkpt>
      <trkpt lat="48.42092" lon="2.13209">
        <ele>106</ele>
        <time>2011-04-15T12:30:10Z</time>
      </trkpt>
      <trkpt lat="48.42091" lon="2.13208">
        <ele>107</ele>
        <time>2011-04-15T12:30:11Z</time>
      </trkpt>
      <trkpt lat="48.4209" lon="2.13208">
        <ele>107</ele>
        <time>2011-04-15T12:30:12Z</time>
      </trkpt>
      <trkpt lat="48.42088" lon="2.13208">
        <ele>107</ele>
        <time>2011-04-15T12:30:14Z</time>
      </trkpt>
      <trkpt lat="48.42089" lon="2.13207">
        <ele>107</ele>
        <time>2011-04-15T12:30:29Z</time>
      </trkpt>
      <trkpt lat="48.42091" lon="2.13206">
        <ele>107</ele>
        <time>2011-04-15T12:30:45Z</time>
      </trkpt>
      <trkpt lat="48.42092" lon="2.13205">
        <ele>107</ele>
        <time>2011-04-15T12:30:58Z</time>
      </trkpt>
      <trkpt lat="48.42093" lon="2.13206">
        <ele>107</ele>
        <time>2011-04-15T12:31:01Z</time>
      </trkpt>
      <trkpt lat="48.42094" lon="2.13206">
        <ele>107</ele>
        <time>2011-04-15T12:31:02Z</time>
      </trkpt>
      <trkpt lat="48.42096" lon="2.13207">
        <ele>107</ele>
        <time>2011-04-15T12:31:03Z</time>
      </trkpt>
      <trkpt lat="48.42097" lon="2.13208">
        <ele>107</ele>
        <time>2011-04-15T12:31:04Z</time>
      </trkpt>
      <trkpt lat="48.42098" lon="2.13209">
        <ele>107</ele>
        <time>2011-04-15T12:31:05Z</time>
      </trkpt>
      <trkpt lat="48.421" lon="2.1321">
        <ele>107</ele>
        <time>2011-04-15T12:31:06Z</time>
      </trkpt>
      <trkpt lat="48.42102" lon="2.1321">
        <ele>107</ele>
        <time>2011-04-15T12:31:07Z</time>
      </trkpt>
      <trkpt lat="48.42103" lon="2.1321">
        <ele>107</ele>
        <time>2011-04-15T12:31:08Z</time>
      </trkpt>
      <trkpt lat="48.42105" lon="2.13211">
        <ele>107</ele>
        <time>2011-04-15T12:31:09Z</time>
      </trkpt>
      <trkpt lat="48.42106" lon="2.13211">
        <ele>107</ele>
        <time>2011-04-15T12:31:10Z</time>
      </trkpt>
      <trkpt lat="48.42108" lon="2.13211">
        <ele>107</ele>
        <time>2011-04-15T12:31:11Z</time>
      </trkpt>
      <trkpt lat="48.42109" lon="2.13211">
        <ele>107</ele>
        <time>2011-04-15T12:31:12Z</time>
      </trkpt>
      <trkpt lat="48.42111" lon="2.13212">
        <ele>107</ele>
        <time>2011-04-15T12:31:13Z</time>
      </trkpt>
      <trkpt lat="48.42113" lon="2.13212">
        <ele>107</ele>
        <time>2011-04-15T12:31:14Z</time>
      </trkpt>
      <trkpt lat="48.42114" lon="2.13213">
        <ele>107</ele>
        <time>2011-04-15T12:31:15Z</time>
      </trkpt>
      <trkpt lat="48.42116" lon="2.13214">
        <ele>107</ele>
        <time>2011-04-15T12:31:16Z</time>
      </trkpt>
      <trkpt lat="48.42117" lon="2.13214">
        <ele>107</ele>
        <time>2011-04-15T12:31:17Z</time>
      </trkpt>
      <trkpt lat="48.42118" lon="2.13214">
        <ele>107</ele>
        <time>2011-04-15T12:31:18Z</time>
      </trkpt>
      <trkpt lat="48.4212" lon="2.13215">
        <ele>106</ele>
        <time>2011-04-15T12:31:19Z</time>
      </trkpt>
      <trkpt lat="48.42121" lon="2.13216">
        <ele>106</ele>
        <time>2011-04-15T12:31:20Z</time>
      </trkpt>
      <trkpt lat="48.42122" lon="2.13217">
        <ele>106</ele>
        <time>2011-04-15T12:31:21Z</time>
      </trkpt>
      <trkpt lat="48.42124" lon="2.13217">
        <ele>106</ele>
        <time>2011-04-15T12:31:22Z</time>
      </trkpt>
      <trkpt lat="48.42125" lon="2.13218">
        <ele>105</ele>
        <time>2011-04-15T12:31:23Z</time>
      </trkpt>
      <trkpt lat="48.42127" lon="2.13218">
        <ele>105</ele>
        <time>2011-04-15T12:31:24Z</time>
      </trkpt>
      <trkpt lat="48.42128" lon="2.13218">
        <ele>105</ele>
        <time>2011-04-15T12:31:25Z</time>
      </trkpt>
      <trkpt lat="48.4213" lon="2.13219">
        <ele>105</ele>
        <time>2011-04-15T12:31:26Z</time>
      </trkpt>
      <trkpt lat="48.42132" lon="2.13219">
        <ele>104</ele>
        <time>2011-04-15T12:31:27Z</time>
      </trkpt>
      <trkpt lat="48.42134" lon="2.13219">
        <ele>104</ele>
        <time>2011-04-15T12:31:28Z</time>
      </trkpt>
      <trkpt lat="48.42136" lon="2.1322">
        <ele>104</ele>
        <time>2011-04-15T12:31:29Z</time>
      </trkpt>
      <trkpt lat="48.42137" lon="2.1322">
        <ele>104</ele>
        <time>2011-04-15T12:31:30Z</time>
      </trkpt>
      <trkpt lat="48.42139" lon="2.13221">
        <ele>104</ele>
        <time>2011-04-15T12:31:31Z</time>
      </trkpt>
      <trkpt lat="48.4214" lon="2.13222">
        <ele>104</ele>
        <time>2011-04-15T12:31:32Z</time>
      </trkpt>
      <trkpt lat="48.42142" lon="2.13222">
        <ele>103</ele>
        <time>2011-04-15T12:31:33Z</time>
      </trkpt>
      <trkpt lat="48.42143" lon="2.13222">
        <ele>103</ele>
        <time>2011-04-15T12:31:34Z</time>
      </trkpt>
      <trkpt lat="48.42146" lon="2.13223">
        <ele>102</ele>
        <time>2011-04-15T12:31:36Z</time>
      </trkpt>
      <trkpt lat="48.42147" lon="2.13223">
        <ele>102</ele>
        <time>2011-04-15T12:31:37Z</time>
      </trkpt>
      <trkpt lat="48.42149" lon="2.13223">
        <ele>102</ele>
        <time>2011-04-15T12:31:38Z</time>
      </trkpt>
      <trkpt lat="48.42151" lon="2.13223">
        <ele>102</ele>
        <time>2011-04-15T12:31:39Z</time>
      </trkpt>
      <trkpt lat="48.42152" lon="2.13224">
        <ele>101</ele>
        <time>2011-04-15T12:31:40Z</time>
      </trkpt>
      <trkpt lat="48.42153" lon="2.13225">
        <ele>101</ele>
        <time>2011-04-15T12:31:41Z</time>
      </trkpt>
      <trkpt lat="48.42155" lon="2.13226">
        <ele>101</ele>
        <time>2011-04-15T12:31:42Z</time>
      </trkpt>
      <trkpt lat="48.42156" lon="2.13227">
        <ele>101</ele>
        <time>2011-04-15T12:31:43Z</time>
      </trkpt>
      <trkpt lat="48.42157" lon="2.13227">
        <ele>100</ele>
        <time>2011-04-15T12:31:44Z</time>
      </trkpt>
      <trkpt lat="48.42159" lon="2.13228">
        <ele>100</ele>
        <time>2011-04-15T12:31:45Z</time>
      </trkpt>
      <trkpt lat="48.42161" lon="2.13228">
        <ele>100</ele>
        <time>2011-04-15T12:31:46Z</time>
      </trkpt>
      <trkpt lat="48.42162" lon="2.13229">
        <ele>99</ele>
        <time>2011-04-15T12:31:47Z</time>
      </trkpt>
      <trkpt lat="48.42163" lon="2.13229">
        <ele>99</ele>
        <time>2011-04-15T12:31:48Z</time>
      </trkpt>
      <trkpt lat="48.42165" lon="2.13229">
        <ele>99</ele>
        <time>2011-04-15T12:31:49Z</time>
      </trkpt>
      <trkpt lat="48.42166" lon="2.13229">
        <ele>99</ele>
        <time>2011-04-15T12:31:50Z</time>
      </trkpt>
      <trkpt lat="48.42168" lon="2.1323">
        <ele>99</ele>
        <time>2011-04-15T12:31:51Z</time>
      </trkpt>
      <trkpt lat="48.42169" lon="2.13231">
        <ele>98</ele>
        <time>2011-04-15T12:31:52Z</time>
      </trkpt>
      <trkpt lat="48.42171" lon="2.13231">
        <ele>98</ele>
        <time>2011-04-15T12:31:53Z</time>
      </trkpt>
      <trkpt lat="48.42172" lon="2.13232">
        <ele>98</ele>
        <time>2011-04-15T12:31:54Z</time>
      </trkpt>
      <trkpt lat="48.42174" lon="2.13232">
        <ele>98</ele>
        <time>2011-04-15T12:31:55Z</time>
      </trkpt>
      <trkpt lat="48.42176" lon="2.13232">
        <ele>98</ele>
        <time>2011-04-15T12:31:56Z</time>
      </trkpt>
      <trkpt lat="48.42177" lon="2.13233">
        <ele>98</ele>
        <time>2011-04-15T12:31:57Z</time>
      </trkpt>
      <trkpt lat="48.42179" lon="2.13234">
        <ele>98</ele>
        <time>2011-04-15T12:31:58Z</time>
      </trkpt>
      <trkpt lat="48.4218" lon="2.13234">
        <ele>98</ele>
        <time>2011-04-15T12:31:59Z</time>
      </trkpt>
      <trkpt lat="48.42182" lon="2.13235">
        <ele>98</ele>
        <time>2011-04-15T12:32:00Z</time>
      </trkpt>
      <trkpt lat="48.42183" lon="2.13235">
        <ele>97</ele>
        <time>2011-04-15T12:32:01Z</time>
      </trkpt>
      <trkpt lat="48.42185" lon="2.13235">
        <ele>97</ele>
        <time>2011-04-15T12:32:02Z</time>
      </trkpt>
      <trkpt lat="48.42186" lon="2.13235">
        <ele>97</ele>
        <time>2011-04-15T12:32:03Z</time>
      </trkpt>
      <trkpt lat="48.42188" lon="2.13235">
        <ele>97</ele>
        <time>2011-04-15T12:32:04Z</time>
      </trkpt>
      <trkpt lat="48.42189" lon="2.13236">
        <ele>97</ele>
        <time>2011-04-15T12:32:05Z</time>
      </trkpt>
      <trkpt lat="48.42191" lon="2.13236">
        <ele>97</ele>
        <time>2011-04-15T12:32:06Z</time>
      </trkpt>
      <trkpt lat="48.42192" lon="2.13237">
        <ele>97</ele>
        <time>2011-04-15T12:32:07Z</time>
      </trkpt>
      <trkpt lat="48.42194" lon="2.13238">
        <ele>97</ele>
        <time>2011-04-15T12:32:08Z</time>
      </trkpt>
      <trkpt lat="48.42195" lon="2.13239">
        <ele>97</ele>
        <time>2011-04-15T12:32:09Z</time>
      </trkpt>
      <trkpt lat="48.42197" lon="2.1324">
        <ele>97</ele>
        <time>2011-04-15T12:32:10Z</time>
      </trkpt>
      <trkpt lat="48.42198" lon="2.13241">
        <ele>97</ele>
        <time>2011-04-15T12:32:11Z</time>
      </trkpt>
      <trkpt lat="48.42199" lon="2.13243">
        <ele>97</ele>
        <time>2011-04-15T12:32:12Z</time>
      </trkpt>
      <trkpt lat="48.422" lon="2.13245">
        <ele>97</ele>
        <time>2011-04-15T12:32:13Z</time>
      </trkpt>
      <trkpt lat="48.42201" lon="2.13247">
        <ele>97</ele>
        <time>2011-04-15T12:32:14Z</time>
      </trkpt>
      <trkpt lat="48.42201" lon="2.13249">
        <ele>97</ele>
        <time>2011-04-15T12:32:15Z</time>
      </trkpt>
      <trkpt lat="48.42202" lon="2.13252">
        <ele>97</ele>
        <time>2011-04-15T12:32:16Z</time>
      </trkpt>
      <trkpt lat="48.42202" lon="2.13254">
        <ele>97</ele>
        <time>2011-04-15T12:32:17Z</time>
      </trkpt>
      <trkpt lat="48.42203" lon="2.13256">
        <ele>97</ele>
        <time>2011-04-15T12:32:18Z</time>
      </trkpt>
      <trkpt lat="48.42203" lon="2.13258">
        <ele>97</ele>
        <time>2011-04-15T12:32:19Z</time>
      </trkpt>
      <trkpt lat="48.42204" lon="2.1326">
        <ele>97</ele>
        <time>2011-04-15T12:32:20Z</time>
      </trkpt>
      <trkpt lat="48.42205" lon="2.13262">
        <ele>97</ele>
        <time>2011-04-15T12:32:21Z</time>
      </trkpt>
      <trkpt lat="48.42206" lon="2.13263">
        <ele>97</ele>
        <time>2011-04-15T12:32:22Z</time>
      </trkpt>
      <trkpt lat="48.42208" lon="2.13265">
        <ele>97</ele>
        <time>2011-04-15T12:32:23Z</time>
      </trkpt>
      <trkpt lat="48.42209" lon="2.13266">
        <ele>97</ele>
        <time>2011-04-15T12:32:24Z</time>
      </trkpt>
      <trkpt lat="48.4221" lon="2.13267">
        <ele>97</ele>
        <time>2011-04-15T12:32:25Z</time>
      </trkpt>
      <trkpt lat="48.42212" lon="2.13267">
        <ele>97</ele>
        <time>2011-04-15T12:32:26Z</time>
      </trkpt>
      <trkpt lat="48.42213" lon="2.13268">
        <ele>97</ele>
        <time>2011-04-15T12:32:27Z</time>
      </trkpt>
      <trkpt lat="48.42215" lon="2.13269">
        <ele>97</ele>
        <time>2011-04-15T12:32:28Z</time>
      </trkpt>
      <trkpt lat="48.42216" lon="2.13269">
        <ele>97</ele>
        <time>2011-04-15T12:32:29Z</time>
      </trkpt>
      <trkpt lat="48.42218" lon="2.1327">
        <ele>97</ele>
        <time>2011-04-15T12:32:30Z</time>
      </trkpt>
      <trkpt lat="48.42219" lon="2.1327">
        <ele>97</ele>
        <time>2011-04-15T12:32:31Z</time>
      </trkpt>
      <trkpt lat="48.4222" lon="2.1327">
        <ele>97</ele>
        <time>2011-04-15T12:32:32Z</time>
      </trkpt>
      <trkpt lat="48.42222" lon="2.13271">
        <ele>97</ele>
        <time>2011-04-15T12:32:33Z</time>
      </trkpt>
      <trkpt lat="48.42224" lon="2.13271">
        <ele>97</ele>
        <time>2011-04-15T12:32:34Z</time>
      </trkpt>
      <trkpt lat="48.42226" lon="2.13272">
        <ele>97</ele>
        <time>2011-04-15T12:32:35Z</time>
      </trkpt>
      <trkpt lat="48.42227" lon="2.13272">
        <ele>97</ele>
        <time>2011-04-15T12:32:36Z</time>
      </trkpt>
      <trkpt lat="48.42229" lon="2.13273">
        <ele>97</ele>
        <time>2011-04-15T12:32:37Z</time>
      </trkpt>
      <trkpt lat="48.4223" lon="2.13273">
        <ele>97</ele>
        <time>2011-04-15T12:32:38Z</time>
      </trkpt>
      <trkpt lat="48.42232" lon="2.13274">
        <ele>97</ele>
        <time>2011-04-15T12:32:39Z</time>
      </trkpt>
      <trkpt lat="48.42233" lon="2.13274">
        <ele>97</ele>
        <time>2011-04-15T12:32:40Z</time>
      </trkpt>
      <trkpt lat="48.42234" lon="2.13275">
        <ele>97</ele>
        <time>2011-04-15T12:32:41Z</time>
      </trkpt>
      <trkpt lat="48.42236" lon="2.13275">
        <ele>97</ele>
        <time>2011-04-15T12:32:42Z</time>
      </trkpt>
      <trkpt lat="48.42237" lon="2.13275">
        <ele>97</ele>
        <time>2011-04-15T12:32:43Z</time>
      </trkpt>
      <trkpt lat="48.42239" lon="2.13275">
        <ele>97</ele>
        <time>2011-04-15T12:32:44Z</time>
      </trkpt>
      <trkpt lat="48.4224" lon="2.13274">
        <ele>97</ele>
        <time>2011-04-15T12:32:45Z</time>
      </trkpt>
      <trkpt lat="48.42242" lon="2.13275">
        <ele>97</ele>
        <time>2011-04-15T12:32:46Z</time>
      </trkpt>
      <trkpt lat="48.42243" lon="2.13275">
        <ele>96</ele>
        <time>2011-04-15T12:32:47Z</time>
      </trkpt>
      <trkpt lat="48.42245" lon="2.13275">
        <ele>96</ele>
        <time>2011-04-15T12:32:48Z</time>
      </trkpt>
      <trkpt lat="48.42247" lon="2.13275">
        <ele>96</ele>
        <time>2011-04-15T12:32:49Z</time>
      </trkpt>
      <trkpt lat="48.42249" lon="2.13275">
        <ele>96</ele>
        <time>2011-04-15T12:32:50Z</time>
      </trkpt>
      <trkpt lat="48.4225" lon="2.13276">
        <ele>96</ele>
        <time>2011-04-15T12:32:51Z</time>
      </trkpt>
      <trkpt lat="48.42252" lon="2.13277">
        <ele>96</ele>
        <time>2011-04-15T12:32:52Z</time>
      </trkpt>
      <trkpt lat="48.42253" lon="2.13278">
        <ele>96</ele>
        <time>2011-04-15T12:32:53Z</time>
      </trkpt>
      <trkpt lat="48.42255" lon="2.13279">
        <ele>96</ele>
        <time>2011-04-15T12:32:54Z</time>
      </trkpt>
      <trkpt lat="48.42257" lon="2.13279">
        <ele>96</ele>
        <time>2011-04-15T12:32:55Z</time>
      </trkpt>
      <trkpt lat="48.42259" lon="2.1328">
        <ele>96</ele>
        <time>2011-04-15T12:32:56Z</time>
      </trkpt>
      <trkpt lat="48.4226" lon="2.1328">
        <ele>96</ele>
        <time>2011-04-15T12:32:57Z</time>
      </trkpt>
      <trkpt lat="48.42262" lon="2.13281">
        <ele>96</ele>
        <time>2011-04-15T12:32:58Z</time>
      </trkpt>
      <trkpt lat="48.42264" lon="2.13281">
        <ele>96</ele>
        <time>2011-04-15T12:32:59Z</time>
      </trkpt>
      <trkpt lat="48.42266" lon="2.13282">
        <ele>96</ele>
        <time>2011-04-15T12:33:00Z</time>
      </trkpt>
      <trkpt lat="48.42268" lon="2.13282">
        <ele>96</ele>
        <time>2011-04-15T12:33:01Z</time>
      </trkpt>
      <trkpt lat="48.42269" lon="2.13283">
        <ele>96</ele>
        <time>2011-04-15T12:33:02Z</time>
      </trkpt>
      <trkpt lat="48.42271" lon="2.13284">
        <ele>96</ele>
        <time>2011-04-15T12:33:03Z</time>
      </trkpt>
      <trkpt lat="48.42273" lon="2.13285">
        <ele>96</ele>
        <time>2011-04-15T12:33:04Z</time>
      </trkpt>
      <trkpt lat="48.42274" lon="2.13286">
        <ele>96</ele>
        <time>2011-04-15T12:33:05Z</time>
      </trkpt>
      <trkpt lat="48.42276" lon="2.13287">
        <ele>96</ele>
        <time>2011-04-15T12:33:06Z</time>
      </trkpt>
      <trkpt lat="48.42277" lon="2.13289">
        <ele>96</ele>
        <time>2011-04-15T12:33:07Z</time>
      </trkpt>
      <trkpt lat="48.42279" lon="2.1329">
        <ele>96</ele>
        <time>2011-04-15T12:33:08Z</time>
      </trkpt>
      <trkpt lat="48.4228" lon="2.13291">
        <ele>96</ele>
        <time>2011-04-15T12:33:09Z</time>
      </trkpt>
      <trkpt lat="48.42282" lon="2.13292">
        <ele>96</ele>
        <time>2011-04-15T12:33:10Z</time>
      </trkpt>
      <trkpt lat="48.42283" lon="2.13293">
        <ele>96</ele>
        <time>2011-04-15T12:33:11Z</time>
      </trkpt>
      <trkpt lat="48.42285" lon="2.13294">
        <ele>96</ele>
        <time>2011-04-15T12:33:12Z</time>
      </trkpt>
      <trkpt lat="48.42287" lon="2.13296">
        <ele>96</ele>
        <time>2011-04-15T12:33:13Z</time>
      </trkpt>
      <trkpt lat="48.42288" lon="2.13297">
        <ele>96</ele>
        <time>2011-04-15T12:33:14Z</time>
      </trkpt>
      <trkpt lat="48.4229" lon="2.13298">
        <ele>96</ele>
        <time>2011-04-15T12:33:15Z</time>
      </trkpt>
      <trkpt lat="48.42291" lon="2.13299">
        <ele>96</ele>
        <time>2011-04-15T12:33:16Z</time>
      </trkpt>
      <trkpt lat="48.42292" lon="2.13301">
        <ele>96</ele>
        <time>2011-04-15T12:33:17Z</time>
      </trkpt>
      <trkpt lat="48.42293" lon="2.13302">
        <ele>96</ele>
        <time>2011-04-15T12:33:18Z</time>
      </trkpt>
      <trkpt lat="48.42296" lon="2.13305">
        <ele>96</ele>
        <time>2011-04-15T12:33:20Z</time>
      </trkpt>
      <trkpt lat="48.42297" lon="2.13307">
        <ele>96</ele>
        <time>2011-04-15T12:33:21Z</time>
      </trkpt>
      <trkpt lat="48.42299" lon="2.13308">
        <ele>96</ele>
        <time>2011-04-15T12:33:22Z</time>
      </trkpt>
      <trkpt lat="48.423" lon="2.1331">
        <ele>96</ele>
        <time>2011-04-15T12:33:23Z</time>
      </trkpt>
      <trkpt lat="48.42302" lon="2.13312">
        <ele>96</ele>
        <time>2011-04-15T12:33:24Z</time>
      </trkpt>
      <trkpt lat="48.42303" lon="2.13313">
        <ele>96</ele>
        <time>2011-04-15T12:33:25Z</time>
      </trkpt>
      <trkpt lat="48.42305" lon="2.13314">
        <ele>96</ele>
        <time>2011-04-15T12:33:26Z</time>
      </trkpt>
      <trkpt lat="48.42306" lon="2.13316">
        <ele>96</ele>
        <time>2011-04-15T12:33:27Z</time>
      </trkpt>
      <trkpt lat="48.42307" lon="2.13317">
        <ele>96</ele>
        <time>2011-04-15T12:33:28Z</time>
      </trkpt>
      <trkpt lat="48.42308" lon="2.13319">
        <ele>96</ele>
        <time>2011-04-15T12:33:29Z</time>
      </trkpt>
      <trkpt lat="48.4231" lon="2.1332">
        <ele>96</ele>
        <time>2011-04-15T12:33:30Z</time>
      </trkpt>
      <trkpt lat="48.42311" lon="2.13322">
        <ele>96</ele>
        <time>2011-04-15T12:33:31Z</time>
      </trkpt>
      <trkpt lat="48.42312" lon="2.13323">
        <ele>96</ele>
        <time>2011-04-15T12:33:32Z</time>
      </trkpt>
      <trkpt lat="48.42314" lon="2.13325">
        <ele>96</ele>
        <time>2011-04-15T12:33:33Z</time>
      </trkpt>
      <trkpt lat="48.42315" lon="2.13326">
        <ele>96</ele>
        <time>2011-04-15T12:33:34Z</time>
      </trkpt>
      <trkpt lat="48.42316" lon="2.13328">
        <ele>96</ele>
        <time>2011-04-15T12:33:35Z</time>
      </trkpt>
      <trkpt lat="48.42317" lon="2.1333">
        <ele>96</ele>
        <time>2011-04-15T12:33:36Z</time>
      </trkpt>
      <trkpt lat="48.42318" lon="2.13331">
        <ele>96</ele>
        <time>2011-04-15T12:33:37Z</time>
      </trkpt>
      <trkpt lat="48.42319" lon="2.13333">
        <ele>96</ele>
        <time>2011-04-15T12:33:38Z</time>
      </trkpt>
      <trkpt lat="48.4232" lon="2.13335">
        <ele>96</ele>
        <time>2011-04-15T12:33:39Z</time>
      </trkpt>
      <trkpt lat="48.42321" lon="2.13336">
        <ele>95</ele>
        <time>2011-04-15T12:33:40Z</time>
      </trkpt>
      <trkpt lat="48.42323" lon="2.13337">
        <ele>95</ele>
        <time>2011-04-15T12:33:41Z</time>
      </trkpt>
      <trkpt lat="48.42324" lon="2.13339">
        <ele>95</ele>
        <time>2011-04-15T12:33:42Z</time>
      </trkpt>
      <trkpt lat="48.42326" lon="2.13341">
        <ele>95</ele>
        <time>2011-04-15T12:33:43Z</time>
      </trkpt>
      <trkpt lat="48.42327" lon="2.13342">
        <ele>95</ele>
        <time>2011-04-15T12:33:44Z</time>
      </trkpt>
      <trkpt lat="48.42328" lon="2.13344">
        <ele>95</ele>
        <time>2011-04-15T12:33:45Z</time>
      </trkpt>
      <trkpt lat="48.42329" lon="2.13345">
        <ele>95</ele>
        <time>2011-04-15T12:33:46Z</time>
      </trkpt>
      <trkpt lat="48.42331" lon="2.13347">
        <ele>95</ele>
        <time>2011-04-15T12:33:47Z</time>
      </trkpt>
      <trkpt lat="48.42332" lon="2.13348">
        <ele>95</ele>
        <time>2011-04-15T12:33:48Z</time>
      </trkpt>
      <trkpt lat="48.42333" lon="2.1335">
        <ele>95</ele>
        <time>2011-04-15T12:33:49Z</time>
      </trkpt>
      <trkpt lat="48.42334" lon="2.13352">
        <ele>95</ele>
        <time>2011-04-15T12:33:50Z</time>
      </trkpt>
      <trkpt lat="48.42335" lon="2.13354">
        <ele>95</ele>
        <time>2011-04-15T12:33:51Z</time>
      </trkpt>
      <trkpt lat="48.42336" lon="2.13356">
        <ele>95</ele>
        <time>2011-04-15T12:33:52Z</time>
      </trkpt>
      <trkpt lat="48.42337" lon="2.13358">
        <ele>95</ele>
        <time>2011-04-15T12:33:53Z</time>
      </trkpt>
      <trkpt lat="48.42338" lon="2.1336">
        <ele>95</ele>
        <time>2011-04-15T12:33:54Z</time>
      </trkpt>
      <trkpt lat="48.42339" lon="2.13362">
        <ele>95</ele>
        <time>2011-04-15T12:33:55Z</time>
      </trkpt>
      <trkpt lat="48.42339" lon="2.13364">
        <ele>95</ele>
        <time>2011-04-15T12:33:56Z</time>
      </trkpt>
      <trkpt lat="48.4234" lon="2.13366">
        <ele>95</ele>
        <time>2011-04-15T12:33:57Z</time>
      </trkpt>
      <trkpt lat="48.42341" lon="2.13368">
        <ele>95</ele>
        <time>2011-04-15T12:33:58Z</time>
      </trkpt>
      <trkpt lat="48.42343" lon="2.1337">
        <ele>94</ele>
        <time>2011-04-15T12:33:59Z</time>
      </trkpt>
      <trkpt lat="48.42344" lon="2.13372">
        <ele>94</ele>
        <time>2011-04-15T12:34:00Z</time>
      </trkpt>
      <trkpt lat="48.42345" lon="2.13374">
        <ele>94</ele>
        <time>2011-04-15T12:34:01Z</time>
      </trkpt>
      <trkpt lat="48.42346" lon="2.13376">
        <ele>94</ele>
        <time>2011-04-15T12:34:02Z</time>
      </trkpt>
      <trkpt lat="48.42347" lon="2.13378">
        <ele>94</ele>
        <time>2011-04-15T12:34:03Z</time>
      </trkpt>
      <trkpt lat="48.42348" lon="2.1338">
        <ele>94</ele>
        <time>2011-04-15T12:34:04Z</time>
      </trkpt>
      <trkpt lat="48.42349" lon="2.13383">
        <ele>94</ele>
        <time>2011-04-15T12:34:05Z</time>
      </trkpt>
      <trkpt lat="48.42349" lon="2.13386">
        <ele>94</ele>
        <time>2011-04-15T12:34:06Z</time>
      </trkpt>
      <trkpt lat="48.4235" lon="2.13388">
        <ele>94</ele>
        <time>2011-04-15T12:34:07Z</time>
      </trkpt>
      <trkpt lat="48.42351" lon="2.13391">
        <ele>94</ele>
        <time>2011-04-15T12:34:08Z</time>
      </trkpt>
      <trkpt lat="48.42352" lon="2.13394">
        <ele>94</ele>
        <time>2011-04-15T12:34:09Z</time>
      </trkpt>
      <trkpt lat="48.42352" lon="2.13396">
        <ele>94</ele>
        <time>2011-04-15T12:34:10Z</time>
      </trkpt>
      <trkpt lat="48.42353" lon="2.13398">
        <ele>94</ele>
        <time>2011-04-15T12:34:11Z</time>
      </trkpt>
      <trkpt lat="48.42354" lon="2.13401">
        <ele>94</ele>
        <time>2011-04-15T12:34:12Z</time>
      </trkpt>
      <trkpt lat="48.42355" lon="2.13403">
        <ele>94</ele>
        <time>2011-04-15T12:34:13Z</time>
      </trkpt>
      <trkpt lat="48.42356" lon="2.13405">
        <ele>94</ele>
        <time>2011-04-15T12:34:14Z</time>
      </trkpt>
      <trkpt lat="48.42357" lon="2.13407">
        <ele>94</ele>
        <time>2011-04-15T12:34:15Z</time>
      </trkpt>
      <trkpt lat="48.42358" lon="2.13409">
        <ele>93</ele>
        <time>2011-04-15T12:34:16Z</time>
      </trkpt>
      <trkpt lat="48.42359" lon="2.13411">
        <ele>93</ele>
        <time>2011-04-15T12:34:17Z</time>
      </trkpt>
      <trkpt lat="48.42359" lon="2.13413">
        <ele>93</ele>
        <time>2011-04-15T12:34:18Z</time>
      </trkpt>
      <trkpt lat="48.4236" lon="2.13415">
        <ele>93</ele>
        <time>2011-04-15T12:34:19Z</time>
      </trkpt>
      <trkpt lat="48.42361" lon="2.13418">
        <ele>93</ele>
        <time>2011-04-15T12:34:20Z</time>
      </trkpt>
      <trkpt lat="48.42362" lon="2.1342">
        <ele>93</ele>
        <time>2011-04-15T12:34:21Z</time>
      </trkpt>
      <trkpt lat="48.42362" lon="2.13422">
        <ele>93</ele>
        <time>2011-04-15T12:34:22Z</time>
      </trkpt>
      <trkpt lat="48.42363" lon="2.13425">
        <ele>93</ele>
        <time>2011-04-15T12:34:23Z</time>
      </trkpt>
      <trkpt lat="48.42363" lon="2.13427">
        <ele>92</ele>
        <time>2011-04-15T12:34:24Z</time>
      </trkpt>
      <trkpt lat="48.42364" lon="2.13429">
        <ele>92</ele>
        <time>2011-04-15T12:34:25Z</time>
      </trkpt>
      <trkpt lat="48.42365" lon="2.13431">
        <ele>92</ele>
        <time>2011-04-15T12:34:26Z</time>
      </trkpt>
      <trkpt lat="48.42365" lon="2.13434">
        <ele>92</ele>
        <time>2011-04-15T12:34:27Z</time>
      </trkpt>
      <trkpt lat="48.42366" lon="2.13436">
        <ele>92</ele>
        <time>2011-04-15T12:34:28Z</time>
      </trkpt>
      <trkpt lat="48.42367" lon="2.13438">
        <ele>92</ele>
        <time>2011-04-15T12:34:29Z</time>
      </trkpt>
      <trkpt lat="48.42368" lon="2.1344">
        <ele>92</ele>
        <time>2011-04-15T12:34:30Z</time>
      </trkpt>
      <trkpt lat="48.42369" lon="2.13442">
        <ele>92</ele>
        <time>2011-04-15T12:34:31Z</time>
      </trkpt>
      <trkpt lat="48.42369" lon="2.13444">
        <ele>92</ele>
        <time>2011-04-15T12:34:32Z</time>
      </trkpt>
      <trkpt lat="48.42369" lon="2.13447">
        <ele>92</ele>
        <time>2011-04-15T12:34:33Z</time>
      </trkpt>
      <trkpt lat="48.42369" lon="2.13449">
        <ele>92</ele>
        <time>2011-04-15T12:34:34Z</time>
      </trkpt>
      <trkpt lat="48.42369" lon="2.13452">
        <ele>92</ele>
        <time>2011-04-15T12:34:35Z</time>
      </trkpt>
      <trkpt lat="48.42369" lon="2.13455">
        <ele>92</ele>
        <time>2011-04-15T12:34:36Z</time>
      </trkpt>
      <trkpt lat="48.42369" lon="2.13457">
        <ele>92</ele>
        <time>2011-04-15T12:34:37Z</time>
      </trkpt>
      <trkpt lat="48.42369" lon="2.13459">
        <ele>92</ele>
        <time>2011-04-15T12:34:38Z</time>
      </trkpt>
      <trkpt lat="48.42369" lon="2.13462">
        <ele>92</ele>
        <time>2011-04-15T12:34:39Z</time>
      </trkpt>
      <trkpt lat="48.42369" lon="2.13464">
        <ele>92</ele>
        <time>2011-04-15T12:34:40Z</time>
      </trkpt>
      <trkpt lat="48.42369" lon="2.13466">
        <ele>92</ele>
        <time>2011-04-15T12:34:41Z</time>
      </trkpt>
      <trkpt lat="48.42369" lon="2.13468">
        <ele>92</ele>
        <time>2011-04-15T12:34:42Z</time>
      </trkpt>
      <trkpt lat="48.42369" lon="2.1347">
        <ele>92</ele>
        <time>2011-04-15T12:34:43Z</time>
      </trkpt>
      <trkpt lat="48.42369" lon="2.13473">
        <ele>92</ele>
        <time>2011-04-15T12:34:44Z</time>
      </trkpt>
      <trkpt lat="48.4237" lon="2.13475">
        <ele>92</ele>
        <time>2011-04-15T12:34:45Z</time>
      </trkpt>
      <trkpt lat="48.4237" lon="2.13478">
        <ele>92</ele>
        <time>2011-04-15T12:34:46Z</time>
      </trkpt>
      <trkpt lat="48.4237" lon="2.1348">
        <ele>92</ele>
        <time>2011-04-15T12:34:47Z</time>
      </trkpt>
      <trkpt lat="48.42371" lon="2.13482">
        <ele>92</ele>
        <time>2011-04-15T12:34:48Z</time>
      </trkpt>
      <trkpt lat="48.42371" lon="2.13485">
        <ele>92</ele>
        <time>2011-04-15T12:34:49Z</time>
      </trkpt>
      <trkpt lat="48.42371" lon="2.13487">
        <ele>92</ele>
        <time>2011-04-15T12:34:50Z</time>
      </trkpt>
      <trkpt lat="48.42371" lon="2.1349">
        <ele>92</ele>
        <time>2011-04-15T12:34:51Z</time>
      </trkpt>
      <trkpt lat="48.42372" lon="2.13492">
        <ele>91</ele>
        <time>2011-04-15T12:34:52Z</time>
      </trkpt>
      <trkpt lat="48.42372" lon="2.13494">
        <ele>91</ele>
        <time>2011-04-15T12:34:53Z</time>
      </trkpt>
      <trkpt lat="48.42373" lon="2.13497">
        <ele>91</ele>
        <time>2011-04-15T12:34:54Z</time>
      </trkpt>
      <trkpt lat="48.42374" lon="2.13499">
        <ele>91</ele>
        <time>2011-04-15T12:34:55Z</time>
      </trkpt>
      <trkpt lat="48.42375" lon="2.135">
        <ele>91</ele>
        <time>2011-04-15T12:34:56Z</time>
      </trkpt>
      <trkpt lat="48.42376" lon="2.13502">
        <ele>90</ele>
        <time>2011-04-15T12:34:57Z</time>
      </trkpt>
      <trkpt lat="48.42377" lon="2.13504">
        <ele>90</ele>
        <time>2011-04-15T12:34:58Z</time>
      </trkpt>
      <trkpt lat="48.42378" lon="2.13506">
        <ele>90</ele>
        <time>2011-04-15T12:34:59Z</time>
      </trkpt>
      <trkpt lat="48.42379" lon="2.13509">
        <ele>90</ele>
        <time>2011-04-15T12:35:00Z</time>
      </trkpt>
      <trkpt lat="48.4238" lon="2.13511">
        <ele>90</ele>
        <time>2011-04-15T12:35:01Z</time>
      </trkpt>
      <trkpt lat="48.4238" lon="2.13514">
        <ele>90</ele>
        <time>2011-04-15T12:35:02Z</time>
      </trkpt>
      <trkpt lat="48.42381" lon="2.13516">
        <ele>89</ele>
        <time>2011-04-15T12:35:03Z</time>
      </trkpt>
      <trkpt lat="48.42381" lon="2.13518">
        <ele>89</ele>
        <time>2011-04-15T12:35:04Z</time>
      </trkpt>
      <trkpt lat="48.42382" lon="2.13521">
        <ele>89</ele>
        <time>2011-04-15T12:35:05Z</time>
      </trkpt>
      <trkpt lat="48.42382" lon="2.13523">
        <ele>89</ele>
        <time>2011-04-15T12:35:06Z</time>
      </trkpt>
      <trkpt lat="48.42383" lon="2.13526">
        <ele>89</ele>
        <time>2011-04-15T12:35:07Z</time>
      </trkpt>
      <trkpt lat="48.42383" lon="2.13528">
        <ele>89</ele>
        <time>2011-04-15T12:35:08Z</time>
      </trkpt>
      <trkpt lat="48.42383" lon="2.1353">
        <ele>89</ele>
        <time>2011-04-15T12:35:09Z</time>
      </trkpt>
      <trkpt lat="48.42383" lon="2.13533">
        <ele>89</ele>
        <time>2011-04-15T12:35:10Z</time>
      </trkpt>
      <trkpt lat="48.42383" lon="2.13535">
        <ele>89</ele>
        <time>2011-04-15T12:35:11Z</time>
      </trkpt>
      <trkpt lat="48.42384" lon="2.13538">
        <ele>88</ele>
        <time>2011-04-15T12:35:12Z</time>
      </trkpt>
      <trkpt lat="48.42384" lon="2.1354">
        <ele>88</ele>
        <time>2011-04-15T12:35:13Z</time>
      </trkpt>
      <trkpt lat="48.42384" lon="2.13543">
        <ele>88</ele>
        <time>2011-04-15T12:35:14Z</time>
      </trkpt>
      <trkpt lat="48.42384" lon="2.13545">
        <ele>88</ele>
        <time>2011-04-15T12:35:15Z</time>
      </trkpt>
      <trkpt lat="48.42384" lon="2.13548">
        <ele>88</ele>
        <time>2011-04-15T12:35:16Z</time>
      </trkpt>
      <trkpt lat="48.42385" lon="2.1355">
        <ele>88</ele>
        <time>2011-04-15T12:35:17Z</time>
      </trkpt>
      <trkpt lat="48.42385" lon="2.13552">
        <ele>88</ele>
        <time>2011-04-15T12:35:18Z</time>
      </trkpt>
      <trkpt lat="48.42385" lon="2.13555">
        <ele>88</ele>
        <time>2011-04-15T12:35:19Z</time>
      </trkpt>
      <trkpt lat="48.42385" lon="2.13557">
        <ele>88</ele>
        <time>2011-04-15T12:35:20Z</time>
      </trkpt>
      <trkpt lat="48.42385" lon="2.13559">
        <ele>88</ele>
        <time>2011-04-15T12:35:21Z</time>
      </trkpt>
      <trkpt lat="48.42385" lon="2.13562">
        <ele>88</ele>
        <time>2011-04-15T12:35:22Z</time>
      </trkpt>
      <trkpt lat="48.42386" lon="2.13564">
        <ele>88</ele>
        <time>2011-04-15T12:35:23Z</time>
      </trkpt>
      <trkpt lat="48.42386" lon="2.13567">
        <ele>88</ele>
        <time>2011-04-15T12:35:24Z</time>
      </trkpt>
      <trkpt lat="48.42386" lon="2.13569">
        <ele>88</ele>
        <time>2011-04-15T12:35:25Z</time>
      </trkpt>
      <trkpt lat="48.42387" lon="2.13571">
        <ele>87</ele>
        <time>2011-04-15T12:35:26Z</time>
      </trkpt>
      <trkpt lat="48.42387" lon="2.13574">
        <ele>87</ele>
        <time>2011-04-15T12:35:27Z</time>
      </trkpt>
      <trkpt lat="48.42387" lon="2.13576">
        <ele>87</ele>
        <time>2011-04-15T12:35:28Z</time>
      </trkpt>
      <trkpt lat="48.42387" lon="2.13579">
        <ele>87</ele>
        <time>2011-04-15T12:35:29Z</time>
      </trkpt>
      <trkpt lat="48.42388" lon="2.13581">
        <ele>87</ele>
        <time>2011-04-15T12:35:30Z</time>
      </trkpt>
      <trkpt lat="48.42388" lon="2.13584">
        <ele>87</ele>
        <time>2011-04-15T12:35:31Z</time>
      </trkpt>
      <trkpt lat="48.42388" lon="2.13586">
        <ele>87</ele>
        <time>2011-04-15T12:35:32Z</time>
      </trkpt>
      <trkpt lat="48.42388" lon="2.13589">
        <ele>87</ele>
        <time>2011-04-15T12:35:33Z</time>
      </trkpt>
      <trkpt lat="48.42388" lon="2.13591">
        <ele>87</ele>
        <time>2011-04-15T12:35:34Z</time>
      </trkpt>
      <trkpt lat="48.42388" lon="2.13593">
        <ele>87</ele>
        <time>2011-04-15T12:35:35Z</time>
      </trkpt>
      <trkpt lat="48.42388" lon="2.13595">
        <ele>87</ele>
        <time>2011-04-15T12:35:36Z</time>
      </trkpt>
      <trkpt lat="48.42389" lon="2.13597">
        <ele>87</ele>
        <time>2011-04-15T12:35:37Z</time>
      </trkpt>
      <trkpt lat="48.42389" lon="2.136">
        <ele>87</ele>
        <time>2011-04-15T12:35:38Z</time>
      </trkpt>
      <trkpt lat="48.42389" lon="2.13602">
        <ele>87</ele>
        <time>2011-04-15T12:35:39Z</time>
      </trkpt>
      <trkpt lat="48.4239" lon="2.13604">
        <ele>87</ele>
        <time>2011-04-15T12:35:40Z</time>
      </trkpt>
      <trkpt lat="48.4239" lon="2.13607">
        <ele>87</ele>
        <time>2011-04-15T12:35:41Z</time>
      </trkpt>
      <trkpt lat="48.4239" lon="2.13609">
        <ele>86</ele>
        <time>2011-04-15T12:35:42Z</time>
      </trkpt>
      <trkpt lat="48.4239" lon="2.13611">
        <ele>86</ele>
        <time>2011-04-15T12:35:43Z</time>
      </trkpt>
      <trkpt lat="48.4239" lon="2.13614">
        <ele>86</ele>
        <time>2011-04-15T12:35:44Z</time>
      </trkpt>
      <trkpt lat="48.4239" lon="2.13616">
        <ele>86</ele>
        <time>2011-04-15T12:35:45Z</time>
      </trkpt>
      <trkpt lat="48.4239" lon="2.13618">
        <ele>86</ele>
        <time>2011-04-15T12:35:46Z</time>
      </trkpt>
      <trkpt lat="48.42391" lon="2.13621">
        <ele>86</ele>
        <time>2011-04-15T12:35:47Z</time>
      </trkpt>
      <trkpt lat="48.4239" lon="2.13623">
        <ele>86</ele>
        <time>2011-04-15T12:35:48Z</time>
      </trkpt>
      <trkpt lat="48.4239" lon="2.13626">
        <ele>85</ele>
        <time>2011-04-15T12:35:49Z</time>
      </trkpt>
      <trkpt lat="48.4239" lon="2.13628">
        <ele>85</ele>
        <time>2011-04-15T12:35:50Z</time>
      </trkpt>
      <trkpt lat="48.4239" lon="2.13631">
        <ele>85</ele>
        <time>2011-04-15T12:35:51Z</time>
      </trkpt>
      <trkpt lat="48.4239" lon="2.13633">
        <ele>85</ele>
        <time>2011-04-15T12:35:52Z</time>
      </trkpt>
      <trkpt lat="48.42391" lon="2.13635">
        <ele>85</ele>
        <time>2011-04-15T12:35:53Z</time>
      </trkpt>
      <trkpt lat="48.42392" lon="2.13637">
        <ele>85</ele>
        <time>2011-04-15T12:35:54Z</time>
      </trkpt>
      <trkpt lat="48.42393" lon="2.13639">
        <ele>85</ele>
        <time>2011-04-15T12:35:55Z</time>
      </trkpt>
      <trkpt lat="48.42393" lon="2.13642">
        <ele>85</ele>
        <time>2011-04-15T12:35:56Z</time>
      </trkpt>
      <trkpt lat="48.42392" lon="2.13644">
        <ele>85</ele>
        <time>2011-04-15T12:35:57Z</time>
      </trkpt>
      <trkpt lat="48.42392" lon="2.13647">
        <ele>85</ele>
        <time>2011-04-15T12:35:58Z</time>
      </trkpt>
      <trkpt lat="48.42392" lon="2.1365">
        <ele>85</ele>
        <time>2011-04-15T12:35:59Z</time>
      </trkpt>
      <trkpt lat="48.42391" lon="2.13652">
        <ele>85</ele>
        <time>2011-04-15T12:36:00Z</time>
      </trkpt>
      <trkpt lat="48.42391" lon="2.13654">
        <ele>85</ele>
        <time>2011-04-15T12:36:01Z</time>
      </trkpt>
      <trkpt lat="48.42391" lon="2.13657">
        <ele>85</ele>
        <time>2011-04-15T12:36:02Z</time>
      </trkpt>
      <trkpt lat="48.42391" lon="2.13659">
        <ele>85</ele>
        <time>2011-04-15T12:36:03Z</time>
      </trkpt>
      <trkpt lat="48.42391" lon="2.13661">
        <ele>85</ele>
        <time>2011-04-15T12:36:04Z</time>
      </trkpt>
      <trkpt lat="48.42391" lon="2.13664">
        <ele>85</ele>
        <time>2011-04-15T12:36:05Z</time>
      </trkpt>
      <trkpt lat="48.42391" lon="2.13666">
        <ele>85</ele>
        <time>2011-04-15T12:36:06Z</time>
      </trkpt>
      <trkpt lat="48.42391" lon="2.13668">
        <ele>85</ele>
        <time>2011-04-15T12:36:07Z</time>
      </trkpt>
      <trkpt lat="48.42391" lon="2.1367">
        <ele>85</ele>
        <time>2011-04-15T12:36:08Z</time>
      </trkpt>
      <trkpt lat="48.42391" lon="2.13673">
        <ele>85</ele>
        <time>2011-04-15T12:36:09Z</time>
      </trkpt>
      <trkpt lat="48.42392" lon="2.13675">
        <ele>85</ele>
        <time>2011-04-15T12:36:10Z</time>
      </trkpt>
      <trkpt lat="48.42392" lon="2.13677">
        <ele>85</ele>
        <time>2011-04-15T12:36:11Z</time>
      </trkpt>
      <trkpt lat="48.42392" lon="2.1368">
        <ele>85</ele>
        <time>2011-04-15T12:36:12Z</time>
      </trkpt>
      <trkpt lat="48.42392" lon="2.13682">
        <ele>85</ele>
        <time>2011-04-15T12:36:13Z</time>
      </trkpt>
      <trkpt lat="48.42392" lon="2.13684">
        <ele>85</ele>
        <time>2011-04-15T12:36:14Z</time>
      </trkpt>
      <trkpt lat="48.42393" lon="2.13686">
        <ele>85</ele>
        <time>2011-04-15T12:36:15Z</time>
      </trkpt>
      <trkpt lat="48.42393" lon="2.13689">
        <ele>85</ele>
        <time>2011-04-15T12:36:16Z</time>
      </trkpt>
      <trkpt lat="48.42393" lon="2.13691">
        <ele>85</ele>
        <time>2011-04-15T12:36:17Z</time>
      </trkpt>
      <trkpt lat="48.42394" lon="2.13693">
        <ele>85</ele>
        <time>2011-04-15T12:36:18Z</time>
      </trkpt>
      <trkpt lat="48.42394" lon="2.13695">
        <ele>85</ele>
        <time>2011-04-15T12:36:19Z</time>
      </trkpt>
      <trkpt lat="48.42395" lon="2.13697">
        <ele>85</ele>
        <time>2011-04-15T12:36:20Z</time>
      </trkpt>
      <trkpt lat="48.42396" lon="2.13699">
        <ele>85</ele>
        <time>2011-04-15T12:36:21Z</time>
      </trkpt>
      <trkpt lat="48.42396" lon="2.13701">
        <ele>85</ele>
        <time>2011-04-15T12:36:22Z</time>
      </trkpt>
      <trkpt lat="48.42397" lon="2.13703">
        <ele>84</ele>
        <time>2011-04-15T12:36:23Z</time>
      </trkpt>
      <trkpt lat="48.42398" lon="2.13704">
        <ele>84</ele>
        <time>2011-04-15T12:36:24Z</time>
      </trkpt>
      <trkpt lat="48.42399" lon="2.13706">
        <ele>84</ele>
        <time>2011-04-15T12:36:25Z</time>
      </trkpt>
      <trkpt lat="48.424" lon="2.13708">
        <ele>84</ele>
        <time>2011-04-15T12:36:26Z</time>
      </trkpt>
      <trkpt lat="48.42402" lon="2.13709">
        <ele>84</ele>
        <time>2011-04-15T12:36:27Z</time>
      </trkpt>
      <trkpt lat="48.42403" lon="2.13711">
        <ele>84</ele>
        <time>2011-04-15T12:36:28Z</time>
      </trkpt>
      <trkpt lat="48.42404" lon="2.13712">
        <ele>84</ele>
        <time>2011-04-15T12:36:29Z</time>
      </trkpt>
      <trkpt lat="48.42406" lon="2.13713">
        <ele>84</ele>
        <time>2011-04-15T12:36:30Z</time>
      </trkpt>
      <trkpt lat="48.42407" lon="2.13715">
        <ele>84</ele>
        <time>2011-04-15T12:36:31Z</time>
      </trkpt>
      <trkpt lat="48.42409" lon="2.13718">
        <ele>84</ele>
        <time>2011-04-15T12:36:33Z</time>
      </trkpt>
      <trkpt lat="48.42411" lon="2.13719">
        <ele>84</ele>
        <time>2011-04-15T12:36:34Z</time>
      </trkpt>
      <trkpt lat="48.42412" lon="2.13721">
        <ele>84</ele>
        <time>2011-04-15T12:36:35Z</time>
      </trkpt>
      <trkpt lat="48.42414" lon="2.13722">
        <ele>84</ele>
        <time>2011-04-15T12:36:36Z</time>
      </trkpt>
      <trkpt lat="48.42416" lon="2.13724">
        <ele>84</ele>
        <time>2011-04-15T12:36:37Z</time>
      </trkpt>
      <trkpt lat="48.42417" lon="2.13725">
        <ele>84</ele>
        <time>2011-04-15T12:36:38Z</time>
      </trkpt>
      <trkpt lat="48.42419" lon="2.13728">
        <ele>84</ele>
        <time>2011-04-15T12:36:40Z</time>
      </trkpt>
      <trkpt lat="48.4242" lon="2.13729">
        <ele>84</ele>
        <time>2011-04-15T12:36:41Z</time>
      </trkpt>
      <trkpt lat="48.42422" lon="2.1373">
        <ele>84</ele>
        <time>2011-04-15T12:36:42Z</time>
      </trkpt>
      <trkpt lat="48.42423" lon="2.13731">
        <ele>84</ele>
        <time>2011-04-15T12:36:43Z</time>
      </trkpt>
      <trkpt lat="48.42425" lon="2.13732">
        <ele>84</ele>
        <time>2011-04-15T12:36:44Z</time>
      </trkpt>
      <trkpt lat="48.42426" lon="2.13734">
        <ele>84</ele>
        <time>2011-04-15T12:36:45Z</time>
      </trkpt>
      <trkpt lat="48.42427" lon="2.13735">
        <ele>84</ele>
        <time>2011-04-15T12:36:46Z</time>
      </trkpt>
      <trkpt lat="48.42429" lon="2.13738">
        <ele>84</ele>
        <time>2011-04-15T12:36:48Z</time>
      </trkpt>
      <trkpt lat="48.42431" lon="2.13738">
        <ele>84</ele>
        <time>2011-04-15T12:36:49Z</time>
      </trkpt>
      <trkpt lat="48.42433" lon="2.1374">
        <ele>84</ele>
        <time>2011-04-15T12:36:50Z</time>
      </trkpt>
      <trkpt lat="48.42435" lon="2.13741">
        <ele>84</ele>
        <time>2011-04-15T12:36:51Z</time>
      </trkpt>
      <trkpt lat="48.42437" lon="2.13742">
        <ele>84</ele>
        <time>2011-04-15T12:36:52Z</time>
      </trkpt>
      <trkpt lat="48.42438" lon="2.13745">
        <ele>84</ele>
        <time>2011-04-15T12:36:53Z</time>
      </trkpt>
      <trkpt lat="48.42438" lon="2.13747">
        <ele>84</ele>
        <time>2011-04-15T12:36:54Z</time>
      </trkpt>
      <trkpt lat="48.42437" lon="2.1375">
        <ele>84</ele>
        <time>2011-04-15T12:36:55Z</time>
      </trkpt>
      <trkpt lat="48.42437" lon="2.13752">
        <ele>84</ele>
        <time>2011-04-15T12:36:56Z</time>
      </trkpt>
      <trkpt lat="48.42437" lon="2.13754">
        <ele>84</ele>
        <time>2011-04-15T12:36:57Z</time>
      </trkpt>
      <trkpt lat="48.42436" lon="2.13757">
        <ele>84</ele>
        <time>2011-04-15T12:36:58Z</time>
      </trkpt>
      <trkpt lat="48.42436" lon="2.13759">
        <ele>84</ele>
        <time>2011-04-15T12:36:59Z</time>
      </trkpt>
      <trkpt lat="48.42435" lon="2.13761">
        <ele>84</ele>
        <time>2011-04-15T12:37:00Z</time>
      </trkpt>
      <trkpt lat="48.42435" lon="2.13763">
        <ele>84</ele>
        <time>2011-04-15T12:37:01Z</time>
      </trkpt>
      <trkpt lat="48.42435" lon="2.13765">
        <ele>84</ele>
        <time>2011-04-15T12:37:02Z</time>
      </trkpt>
      <trkpt lat="48.42434" lon="2.13768">
        <ele>84</ele>
        <time>2011-04-15T12:37:03Z</time>
      </trkpt>
      <trkpt lat="48.42434" lon="2.1377">
        <ele>84</ele>
        <time>2011-04-15T12:37:04Z</time>
      </trkpt>
      <trkpt lat="48.42433" lon="2.13772">
        <ele>84</ele>
        <time>2011-04-15T12:37:05Z</time>
      </trkpt>
      <trkpt lat="48.42433" lon="2.13774">
        <ele>84</ele>
        <time>2011-04-15T12:37:06Z</time>
      </trkpt>
      <trkpt lat="48.42432" lon="2.13776">
        <ele>84</ele>
        <time>2011-04-15T12:37:07Z</time>
      </trkpt>
      <trkpt lat="48.42432" lon="2.13778">
        <ele>84</ele>
        <time>2011-04-15T12:37:08Z</time>
      </trkpt>
      <trkpt lat="48.42431" lon="2.13781">
        <ele>84</ele>
        <time>2011-04-15T12:37:09Z</time>
      </trkpt>
      <trkpt lat="48.42431" lon="2.13783">
        <ele>84</ele>
        <time>2011-04-15T12:37:10Z</time>
      </trkpt>
      <trkpt lat="48.4243" lon="2.13785">
        <ele>84</ele>
        <time>2011-04-15T12:37:11Z</time>
      </trkpt>
      <trkpt lat="48.42429" lon="2.13787">
        <ele>83</ele>
        <time>2011-04-15T12:37:12Z</time>
      </trkpt>
      <trkpt lat="48.42429" lon="2.13789">
        <ele>83</ele>
        <time>2011-04-15T12:37:13Z</time>
      </trkpt>
      <trkpt lat="48.42428" lon="2.13791">
        <ele>83</ele>
        <time>2011-04-15T12:37:14Z</time>
      </trkpt>
      <trkpt lat="48.42427" lon="2.13793">
        <ele>83</ele>
        <time>2011-04-15T12:37:15Z</time>
      </trkpt>
      <trkpt lat="48.42426" lon="2.13795">
        <ele>83</ele>
        <time>2011-04-15T12:37:16Z</time>
      </trkpt>
      <trkpt lat="48.42426" lon="2.13797">
        <ele>83</ele>
        <time>2011-04-15T12:37:17Z</time>
      </trkpt>
      <trkpt lat="48.42425" lon="2.13799">
        <ele>83</ele>
        <time>2011-04-15T12:37:18Z</time>
      </trkpt>
      <trkpt lat="48.42424" lon="2.13801">
        <ele>83</ele>
        <time>2011-04-15T12:37:19Z</time>
      </trkpt>
      <trkpt lat="48.42424" lon="2.13804">
        <ele>83</ele>
        <time>2011-04-15T12:37:20Z</time>
      </trkpt>
      <trkpt lat="48.42423" lon="2.13806">
        <ele>83</ele>
        <time>2011-04-15T12:37:21Z</time>
      </trkpt>
      <trkpt lat="48.42423" lon="2.13808">
        <ele>83</ele>
        <time>2011-04-15T12:37:22Z</time>
      </trkpt>
      <trkpt lat="48.42422" lon="2.1381">
        <ele>83</ele>
        <time>2011-04-15T12:37:23Z</time>
      </trkpt>
      <trkpt lat="48.42422" lon="2.13812">
        <ele>83</ele>
        <time>2011-04-15T12:37:24Z</time>
      </trkpt>
      <trkpt lat="48.42421" lon="2.13814">
        <ele>83</ele>
        <time>2011-04-15T12:37:25Z</time>
      </trkpt>
      <trkpt lat="48.42421" lon="2.13816">
        <ele>83</ele>
        <time>2011-04-15T12:37:26Z</time>
      </trkpt>
      <trkpt lat="48.4242" lon="2.13818">
        <ele>83</ele>
        <time>2011-04-15T12:37:27Z</time>
      </trkpt>
      <trkpt lat="48.4242" lon="2.13821">
        <ele>83</ele>
        <time>2011-04-15T12:37:28Z</time>
      </trkpt>
      <trkpt lat="48.42419" lon="2.13823">
        <ele>83</ele>
        <time>2011-04-15T12:37:29Z</time>
      </trkpt>
      <trkpt lat="48.42419" lon="2.13825">
        <ele>83</ele>
        <time>2011-04-15T12:37:30Z</time>
      </trkpt>
      <trkpt lat="48.42419" lon="2.13827">
        <ele>83</ele>
        <time>2011-04-15T12:37:31Z</time>
      </trkpt>
      <trkpt lat="48.42419" lon="2.13829">
        <ele>83</ele>
        <time>2011-04-15T12:37:32Z</time>
      </trkpt>
      <trkpt lat="48.42419" lon="2.13831">
        <ele>83</ele>
        <time>2011-04-15T12:37:33Z</time>
      </trkpt>
      <trkpt lat="48.42419" lon="2.13833">
        <ele>83</ele>
        <time>2011-04-15T12:37:34Z</time>
      </trkpt>
      <trkpt lat="48.42418" lon="2.13836">
        <ele>82</ele>
        <time>2011-04-15T12:37:35Z</time>
      </trkpt>
      <trkpt lat="48.42418" lon="2.13838">
        <ele>82</ele>
        <time>2011-04-15T12:37:36Z</time>
      </trkpt>
      <trkpt lat="48.42418" lon="2.1384">
        <ele>82</ele>
        <time>2011-04-15T12:37:37Z</time>
      </trkpt>
      <trkpt lat="48.42418" lon="2.13842">
        <ele>82</ele>
        <time>2011-04-15T12:37:38Z</time>
      </trkpt>
      <trkpt lat="48.42418" lon="2.13845">
        <ele>82</ele>
        <time>2011-04-15T12:37:39Z</time>
      </trkpt>
      <trkpt lat="48.42419" lon="2.13847">
        <ele>82</ele>
        <time>2011-04-15T12:37:40Z</time>
      </trkpt>
      <trkpt lat="48.42419" lon="2.13849">
        <ele>82</ele>
        <time>2011-04-15T12:37:41Z</time>
      </trkpt>
      <trkpt lat="48.42419" lon="2.13851">
        <ele>81</ele>
        <time>2011-04-15T12:37:42Z</time>
      </trkpt>
      <trkpt lat="48.42419" lon="2.13854">
        <ele>81</ele>
        <time>2011-04-15T12:37:43Z</time>
      </trkpt>
      <trkpt lat="48.4242" lon="2.13856">
        <ele>81</ele>
        <time>2011-04-15T12:37:44Z</time>
      </trkpt>
      <trkpt lat="48.4242" lon="2.13858">
        <ele>81</ele>
        <time>2011-04-15T12:37:45Z</time>
      </trkpt>
      <trkpt lat="48.4242" lon="2.1386">
        <ele>81</ele>
        <time>2011-04-15T12:37:46Z</time>
      </trkpt>
      <trkpt lat="48.4242" lon="2.13862">
        <ele>81</ele>
        <time>2011-04-15T12:37:47Z</time>
      </trkpt>
      <trkpt lat="48.4242" lon="2.13864">
        <ele>81</ele>
        <time>2011-04-15T12:37:48Z</time>
      </trkpt>
      <trkpt lat="48.42421" lon="2.13866">
        <ele>81</ele>
        <time>2011-04-15T12:37:49Z</time>
      </trkpt>
      <trkpt lat="48.42421" lon="2.13869">
        <ele>81</ele>
        <time>2011-04-15T12:37:50Z</time>
      </trkpt>
      <trkpt lat="48.42422" lon="2.13871">
        <ele>80</ele>
        <time>2011-04-15T12:37:51Z</time>
      </trkpt>
      <trkpt lat="48.42422" lon="2.13873">
        <ele>80</ele>
        <time>2011-04-15T12:37:52Z</time>
      </trkpt>
      <trkpt lat="48.42422" lon="2.13875">
        <ele>80</ele>
        <time>2011-04-15T12:37:53Z</time>
      </trkpt>
      <trkpt lat="48.42422" lon="2.13878">
        <ele>80</ele>
        <time>2011-04-15T12:37:54Z</time>
      </trkpt>
      <trkpt lat="48.42423" lon="2.1388">
        <ele>80</ele>
        <time>2011-04-15T12:37:55Z</time>
      </trkpt>
      <trkpt lat="48.42423" lon="2.13882">
        <ele>80</ele>
        <time>2011-04-15T12:37:56Z</time>
      </trkpt>
      <trkpt lat="48.42423" lon="2.13884">
        <ele>80</ele>
        <time>2011-04-15T12:37:57Z</time>
      </trkpt>
      <trkpt lat="48.42423" lon="2.13887">
        <ele>80</ele>
        <time>2011-04-15T12:37:58Z</time>
      </trkpt>
      <trkpt lat="48.42423" lon="2.13889">
        <ele>80</ele>
        <time>2011-04-15T12:37:59Z</time>
      </trkpt>
      <trkpt lat="48.42423" lon="2.13892">
        <ele>80</ele>
        <time>2011-04-15T12:38:00Z</time>
      </trkpt>
      <trkpt lat="48.42423" lon="2.13894">
        <ele>80</ele>
        <time>2011-04-15T12:38:01Z</time>
      </trkpt>
      <trkpt lat="48.42423" lon="2.13897">
        <ele>80</ele>
        <time>2011-04-15T12:38:02Z</time>
      </trkpt>
      <trkpt lat="48.42423" lon="2.13899">
        <ele>80</ele>
        <time>2011-04-15T12:38:03Z</time>
      </trkpt>
      <trkpt lat="48.42423" lon="2.13901">
        <ele>80</ele>
        <time>2011-04-15T12:38:04Z</time>
      </trkpt>
      <trkpt lat="48.42423" lon="2.13903">
        <ele>80</ele>
        <time>2011-04-15T12:38:05Z</time>
      </trkpt>
      <trkpt lat="48.42423" lon="2.13906">
        <ele>80</ele>
        <time>2011-04-15T12:38:06Z</time>
      </trkpt>
      <trkpt lat="48.42423" lon="2.13908">
        <ele>80</ele>
        <time>2011-04-15T12:38:07Z</time>
      </trkpt>
      <trkpt lat="48.42423" lon="2.1391">
        <ele>80</ele>
        <time>2011-04-15T12:38:08Z</time>
      </trkpt>
      <trkpt lat="48.42424" lon="2.13913">
        <ele>80</ele>
        <time>2011-04-15T12:38:09Z</time>
      </trkpt>
      <trkpt lat="48.42424" lon="2.13915">
        <ele>80</ele>
        <time>2011-04-15T12:38:10Z</time>
      </trkpt>
      <trkpt lat="48.42425" lon="2.13917">
        <ele>80</ele>
        <time>2011-04-15T12:38:11Z</time>
      </trkpt>
      <trkpt lat="48.42426" lon="2.13919">
        <ele>80</ele>
        <time>2011-04-15T12:38:12Z</time>
      </trkpt>
      <trkpt lat="48.42426" lon="2.13921">
        <ele>80</ele>
        <time>2011-04-15T12:38:13Z</time>
      </trkpt>
      <trkpt lat="48.42427" lon="2.13924">
        <ele>80</ele>
        <time>2011-04-15T12:38:14Z</time>
      </trkpt>
      <trkpt lat="48.42427" lon="2.13926">
        <ele>80</ele>
        <time>2011-04-15T12:38:15Z</time>
      </trkpt>
      <trkpt lat="48.42427" lon="2.13929">
        <ele>80</ele>
        <time>2011-04-15T12:38:16Z</time>
      </trkpt>
      <trkpt lat="48.42427" lon="2.13931">
        <ele>80</ele>
        <time>2011-04-15T12:38:17Z</time>
      </trkpt>
      <trkpt lat="48.42427" lon="2.13933">
        <ele>80</ele>
        <time>2011-04-15T12:38:18Z</time>
      </trkpt>
      <trkpt lat="48.42427" lon="2.13936">
        <ele>80</ele>
        <time>2011-04-15T12:38:19Z</time>
      </trkpt>
      <trkpt lat="48.42427" lon="2.13938">
        <ele>80</ele>
        <time>2011-04-15T12:38:20Z</time>
      </trkpt>
      <trkpt lat="48.42428" lon="2.1394">
        <ele>80</ele>
        <time>2011-04-15T12:38:21Z</time>
      </trkpt>
      <trkpt lat="48.42428" lon="2.13942">
        <ele>80</ele>
        <time>2011-04-15T12:38:22Z</time>
      </trkpt>
      <trkpt lat="48.42429" lon="2.13945">
        <ele>80</ele>
        <time>2011-04-15T12:38:23Z</time>
      </trkpt>
      <trkpt lat="48.42429" lon="2.13947">
        <ele>80</ele>
        <time>2011-04-15T12:38:24Z</time>
      </trkpt>
      <trkpt lat="48.42429" lon="2.13949">
        <ele>80</ele>
        <time>2011-04-15T12:38:25Z</time>
      </trkpt>
      <trkpt lat="48.42429" lon="2.13951">
        <ele>80</ele>
        <time>2011-04-15T12:38:26Z</time>
      </trkpt>
      <trkpt lat="48.4243" lon="2.13953">
        <ele>80</ele>
        <time>2011-04-15T12:38:27Z</time>
      </trkpt>
      <trkpt lat="48.4243" lon="2.13955">
        <ele>80</ele>
        <time>2011-04-15T12:38:28Z</time>
      </trkpt>
      <trkpt lat="48.4243" lon="2.13958">
        <ele>80</ele>
        <time>2011-04-15T12:38:29Z</time>
      </trkpt>
      <trkpt lat="48.42431" lon="2.1396">
        <ele>80</ele>
        <time>2011-04-15T12:38:30Z</time>
      </trkpt>
      <trkpt lat="48.42431" lon="2.13962">
        <ele>80</ele>
        <time>2011-04-15T12:38:31Z</time>
      </trkpt>
      <trkpt lat="48.42431" lon="2.13965">
        <ele>80</ele>
        <time>2011-04-15T12:38:32Z</time>
      </trkpt>
      <trkpt lat="48.42432" lon="2.13967">
        <ele>80</ele>
        <time>2011-04-15T12:38:33Z</time>
      </trkpt>
      <trkpt lat="48.42432" lon="2.13969">
        <ele>80</ele>
        <time>2011-04-15T12:38:34Z</time>
      </trkpt>
      <trkpt lat="48.42432" lon="2.13971">
        <ele>80</ele>
        <time>2011-04-15T12:38:35Z</time>
      </trkpt>
      <trkpt lat="48.42432" lon="2.13973">
        <ele>80</ele>
        <time>2011-04-15T12:38:36Z</time>
      </trkpt>
      <trkpt lat="48.42432" lon="2.13976">
        <ele>80</ele>
        <time>2011-04-15T12:38:37Z</time>
      </trkpt>
      <trkpt lat="48.42433" lon="2.13978">
        <ele>80</ele>
        <time>2011-04-15T12:38:38Z</time>
      </trkpt>
      <trkpt lat="48.42433" lon="2.13981">
        <ele>80</ele>
        <time>2011-04-15T12:38:39Z</time>
      </trkpt>
      <trkpt lat="48.42433" lon="2.13983">
        <ele>80</ele>
        <time>2011-04-15T12:38:40Z</time>
      </trkpt>
      <trkpt lat="48.42433" lon="2.13985">
        <ele>80</ele>
        <time>2011-04-15T12:38:41Z</time>
      </trkpt>
      <trkpt lat="48.42433" lon="2.13988">
        <ele>80</ele>
        <time>2011-04-15T12:38:42Z</time>
      </trkpt>
      <trkpt lat="48.42433" lon="2.1399">
        <ele>80</ele>
        <time>2011-04-15T12:38:43Z</time>
      </trkpt>
      <trkpt lat="48.42433" lon="2.13992">
        <ele>80</ele>
        <time>2011-04-15T12:38:44Z</time>
      </trkpt>
      <trkpt lat="48.42434" lon="2.13994">
        <ele>80</ele>
        <time>2011-04-15T12:38:45Z</time>
      </trkpt>
      <trkpt lat="48.42434" lon="2.13997">
        <ele>80</ele>
        <time>2011-04-15T12:38:46Z</time>
      </trkpt>
      <trkpt lat="48.42434" lon="2.13999">
        <ele>80</ele>
        <time>2011-04-15T12:38:47Z</time>
      </trkpt>
      <trkpt lat="48.42434" lon="2.14002">
        <ele>80</ele>
        <time>2011-04-15T12:38:48Z</time>
      </trkpt>
      <trkpt lat="48.42435" lon="2.14004">
        <ele>80</ele>
        <time>2011-04-15T12:38:49Z</time>
      </trkpt>
      <trkpt lat="48.42435" lon="2.14006">
        <ele>80</ele>
        <time>2011-04-15T12:38:50Z</time>
      </trkpt>
      <trkpt lat="48.42434" lon="2.14008">
        <ele>80</ele>
        <time>2011-04-15T12:38:51Z</time>
      </trkpt>
      <trkpt lat="48.42434" lon="2.14011">
        <ele>80</ele>
        <time>2011-04-15T12:38:52Z</time>
      </trkpt>
      <trkpt lat="48.42434" lon="2.14013">
        <ele>80</ele>
        <time>2011-04-15T12:38:53Z</time>
      </trkpt>
      <trkpt lat="48.42434" lon="2.14016">
        <ele>80</ele>
        <time>2011-04-15T12:38:54Z</time>
      </trkpt>
      <trkpt lat="48.42434" lon="2.14018">
        <ele>80</ele>
        <time>2011-04-15T12:38:55Z</time>
      </trkpt>
      <trkpt lat="48.42433" lon="2.1402">
        <ele>79</ele>
        <time>2011-04-15T12:38:56Z</time>
      </trkpt>
      <trkpt lat="48.42433" lon="2.14023">
        <ele>79</ele>
        <time>2011-04-15T12:38:57Z</time>
      </trkpt>
      <trkpt lat="48.42433" lon="2.14025">
        <ele>79</ele>
        <time>2011-04-15T12:38:58Z</time>
      </trkpt>
      <trkpt lat="48.42433" lon="2.14028">
        <ele>79</ele>
        <time>2011-04-15T12:38:59Z</time>
      </trkpt>
      <trkpt lat="48.42432" lon="2.1403">
        <ele>79</ele>
        <time>2011-04-15T12:39:00Z</time>
      </trkpt>
      <trkpt lat="48.42432" lon="2.14032">
        <ele>79</ele>
        <time>2011-04-15T12:39:01Z</time>
      </trkpt>
      <trkpt lat="48.42432" lon="2.14035">
        <ele>79</ele>
        <time>2011-04-15T12:39:02Z</time>
      </trkpt>
      <trkpt lat="48.42431" lon="2.14037">
        <ele>79</ele>
        <time>2011-04-15T12:39:03Z</time>
      </trkpt>
      <trkpt lat="48.42431" lon="2.14039">
        <ele>79</ele>
        <time>2011-04-15T12:39:04Z</time>
      </trkpt>
      <trkpt lat="48.42431" lon="2.14042">
        <ele>79</ele>
        <time>2011-04-15T12:39:05Z</time>
      </trkpt>
      <trkpt lat="48.4243" lon="2.14044">
        <ele>79</ele>
        <time>2011-04-15T12:39:06Z</time>
      </trkpt>
      <trkpt lat="48.4243" lon="2.14046">
        <ele>79</ele>
        <time>2011-04-15T12:39:07Z</time>
      </trkpt>
      <trkpt lat="48.42429" lon="2.14049">
        <ele>79</ele>
        <time>2011-04-15T12:39:08Z</time>
      </trkpt>
      <trkpt lat="48.42429" lon="2.14051">
        <ele>79</ele>
        <time>2011-04-15T12:39:09Z</time>
      </trkpt>
      <trkpt lat="48.42428" lon="2.14053">
        <ele>79</ele>
        <time>2011-04-15T12:39:10Z</time>
      </trkpt>
      <trkpt lat="48.42428" lon="2.14055">
        <ele>79</ele>
        <time>2011-04-15T12:39:11Z</time>
      </trkpt>
      <trkpt lat="48.42428" lon="2.14058">
        <ele>79</ele>
        <time>2011-04-15T12:39:12Z</time>
      </trkpt>
      <trkpt lat="48.42428" lon="2.1406">
        <ele>79</ele>
        <time>2011-04-15T12:39:13Z</time>
      </trkpt>
      <trkpt lat="48.42428" lon="2.14062">
        <ele>79</ele>
        <time>2011-04-15T12:39:14Z</time>
      </trkpt>
      <trkpt lat="48.42428" lon="2.14064">
        <ele>79</ele>
        <time>2011-04-15T12:39:15Z</time>
      </trkpt>
      <trkpt lat="48.42427" lon="2.14067">
        <ele>79</ele>
        <time>2011-04-15T12:39:16Z</time>
      </trkpt>
      <trkpt lat="48.42427" lon="2.14069">
        <ele>79</ele>
        <time>2011-04-15T12:39:17Z</time>
      </trkpt>
      <trkpt lat="48.42426" lon="2.14071">
        <ele>79</ele>
        <time>2011-04-15T12:39:18Z</time>
      </trkpt>
      <trkpt lat="48.42426" lon="2.14074">
        <ele>79</ele>
        <time>2011-04-15T12:39:19Z</time>
      </trkpt>
      <trkpt lat="48.42425" lon="2.14076">
        <ele>79</ele>
        <time>2011-04-15T12:39:20Z</time>
      </trkpt>
      <trkpt lat="48.42425" lon="2.14078">
        <ele>79</ele>
        <time>2011-04-15T12:39:21Z</time>
      </trkpt>
      <trkpt lat="48.42425" lon="2.14081">
        <ele>79</ele>
        <time>2011-04-15T12:39:22Z</time>
      </trkpt>
      <trkpt lat="48.42424" lon="2.14083">
        <ele>78</ele>
        <time>2011-04-15T12:39:23Z</time>
      </trkpt>
      <trkpt lat="48.42424" lon="2.14086">
        <ele>78</ele>
        <time>2011-04-15T12:39:24Z</time>
      </trkpt>
      <trkpt lat="48.42424" lon="2.14088">
        <ele>78</ele>
        <time>2011-04-15T12:39:25Z</time>
      </trkpt>
      <trkpt lat="48.42423" lon="2.1409">
        <ele>78</ele>
        <time>2011-04-15T12:39:26Z</time>
      </trkpt>
      <trkpt lat="48.42422" lon="2.14093">
        <ele>78</ele>
        <time>2011-04-15T12:39:27Z</time>
      </trkpt>
      <trkpt lat="48.42422" lon="2.14095">
        <ele>78</ele>
        <time>2011-04-15T12:39:28Z</time>
      </trkpt>
      <trkpt lat="48.42421" lon="2.14098">
        <ele>78</ele>
        <time>2011-04-15T12:39:29Z</time>
      </trkpt>
      <trkpt lat="48.42421" lon="2.141">
        <ele>78</ele>
        <time>2011-04-15T12:39:30Z</time>
      </trkpt>
      <trkpt lat="48.42421" lon="2.14102">
        <ele>78</ele>
        <time>2011-04-15T12:39:31Z</time>
      </trkpt>
      <trkpt lat="48.4242" lon="2.14105">
        <ele>78</ele>
        <time>2011-04-15T12:39:32Z</time>
      </trkpt>
      <trkpt lat="48.4242" lon="2.14107">
        <ele>78</ele>
        <time>2011-04-15T12:39:33Z</time>
      </trkpt>
      <trkpt lat="48.4242" lon="2.14109">
        <ele>78</ele>
        <time>2011-04-15T12:39:34Z</time>
      </trkpt>
      <trkpt lat="48.42419" lon="2.14112">
        <ele>78</ele>
        <time>2011-04-15T12:39:35Z</time>
      </trkpt>
      <trkpt lat="48.42419" lon="2.14114">
        <ele>78</ele>
        <time>2011-04-15T12:39:36Z</time>
      </trkpt>
      <trkpt lat="48.42418" lon="2.14117">
        <ele>78</ele>
        <time>2011-04-15T12:39:37Z</time>
      </trkpt>
      <trkpt lat="48.42418" lon="2.14119">
        <ele>78</ele>
        <time>2011-04-15T12:39:38Z</time>
      </trkpt>
      <trkpt lat="48.42417" lon="2.14121">
        <ele>78</ele>
        <time>2011-04-15T12:39:39Z</time>
      </trkpt>
      <trkpt lat="48.42417" lon="2.14123">
        <ele>78</ele>
        <time>2011-04-15T12:39:40Z</time>
      </trkpt>
      <trkpt lat="48.42416" lon="2.14126">
        <ele>78</ele>
        <time>2011-04-15T12:39:41Z</time>
      </trkpt>
      <trkpt lat="48.42416" lon="2.14128">
        <ele>78</ele>
        <time>2011-04-15T12:39:42Z</time>
      </trkpt>
      <trkpt lat="48.42416" lon="2.1413">
        <ele>78</ele>
        <time>2011-04-15T12:39:43Z</time>
      </trkpt>
      <trkpt lat="48.42415" lon="2.14132">
        <ele>77</ele>
        <time>2011-04-15T12:39:44Z</time>
      </trkpt>
      <trkpt lat="48.42415" lon="2.14135">
        <ele>77</ele>
        <time>2011-04-15T12:39:46Z</time>
      </trkpt>
      <trkpt lat="48.42415" lon="2.14137">
        <ele>76</ele>
        <time>2011-04-15T12:39:47Z</time>
      </trkpt>
      <trkpt lat="48.42414" lon="2.14139">
        <ele>76</ele>
        <time>2011-04-15T12:39:48Z</time>
      </trkpt>
      <trkpt lat="48.42413" lon="2.14141">
        <ele>75</ele>
        <time>2011-04-15T12:39:50Z</time>
      </trkpt>
      <trkpt lat="48.42412" lon="2.14143">
        <ele>75</ele>
        <time>2011-04-15T12:39:51Z</time>
      </trkpt>
      <trkpt lat="48.42412" lon="2.14145">
        <ele>74</ele>
        <time>2011-04-15T12:39:52Z</time>
      </trkpt>
      <trkpt lat="48.42411" lon="2.14148">
        <ele>74</ele>
        <time>2011-04-15T12:39:53Z</time>
      </trkpt>
      <trkpt lat="48.42409" lon="2.1415">
        <ele>73</ele>
        <time>2011-04-15T12:39:54Z</time>
      </trkpt>
      <trkpt lat="48.42409" lon="2.14153">
        <ele>73</ele>
        <time>2011-04-15T12:39:55Z</time>
      </trkpt>
      <trkpt lat="48.42408" lon="2.14156">
        <ele>71</ele>
        <time>2011-04-15T12:39:57Z</time>
      </trkpt>
      <trkpt lat="48.42408" lon="2.14158">
        <ele>71</ele>
        <time>2011-04-15T12:39:58Z</time>
      </trkpt>
      <trkpt lat="48.42407" lon="2.14161">
        <ele>70</ele>
        <time>2011-04-15T12:39:59Z</time>
      </trkpt>
      <trkpt lat="48.42406" lon="2.14164">
        <ele>70</ele>
        <time>2011-04-15T12:40:00Z</time>
      </trkpt>
      <trkpt lat="48.42406" lon="2.14166">
        <ele>70</ele>
        <time>2011-04-15T12:40:01Z</time>
      </trkpt>
      <trkpt lat="48.42405" lon="2.14167">
        <ele>70</ele>
        <time>2011-04-15T12:40:02Z</time>
      </trkpt>
      <trkpt lat="48.42403" lon="2.14169">
        <ele>70</ele>
        <time>2011-04-15T12:40:03Z</time>
      </trkpt>
      <trkpt lat="48.42402" lon="2.1417">
        <ele>70</ele>
        <time>2011-04-15T12:40:04Z</time>
      </trkpt>
      <trkpt lat="48.42401" lon="2.1417">
        <ele>70</ele>
        <time>2011-04-15T12:40:05Z</time>
      </trkpt>
      <trkpt lat="48.42399" lon="2.14169">
        <ele>70</ele>
        <time>2011-04-15T12:40:06Z</time>
      </trkpt>
      <trkpt lat="48.42398" lon="2.14168">
        <ele>70</ele>
        <time>2011-04-15T12:40:07Z</time>
      </trkpt>
      <trkpt lat="48.42397" lon="2.14167">
        <ele>70</ele>
        <time>2011-04-15T12:40:08Z</time>
      </trkpt>
      <trkpt lat="48.42396" lon="2.14165">
        <ele>70</ele>
        <time>2011-04-15T12:40:09Z</time>
      </trkpt>
      <trkpt lat="48.42395" lon="2.14163">
        <ele>70</ele>
        <time>2011-04-15T12:40:10Z</time>
      </trkpt>
      <trkpt lat="48.42393" lon="2.14161">
        <ele>70</ele>
        <time>2011-04-15T12:40:11Z</time>
      </trkpt>
      <trkpt lat="48.42392" lon="2.1416">
        <ele>70</ele>
        <time>2011-04-15T12:40:12Z</time>
      </trkpt>
      <trkpt lat="48.42391" lon="2.14158">
        <ele>70</ele>
        <time>2011-04-15T12:40:13Z</time>
      </trkpt>
      <trkpt lat="48.42389" lon="2.14155">
        <ele>70</ele>
        <time>2011-04-15T12:40:15Z</time>
      </trkpt>
      <trkpt lat="48.42388" lon="2.14152">
        <ele>70</ele>
        <time>2011-04-15T12:40:16Z</time>
      </trkpt>
      <trkpt lat="48.42387" lon="2.1415">
        <ele>70</ele>
        <time>2011-04-15T12:40:17Z</time>
      </trkpt>
      <trkpt lat="48.42386" lon="2.14148">
        <ele>70</ele>
        <time>2011-04-15T12:40:18Z</time>
      </trkpt>
      <trkpt lat="48.42385" lon="2.14144">
        <ele>70</ele>
        <time>2011-04-15T12:40:19Z</time>
      </trkpt>
      <trkpt lat="48.42384" lon="2.1414">
        <ele>70</ele>
        <time>2011-04-15T12:40:20Z</time>
      </trkpt>
      <trkpt lat="48.42382" lon="2.14137">
        <ele>70</ele>
        <time>2011-04-15T12:40:21Z</time>
      </trkpt>
      <trkpt lat="48.42381" lon="2.14133">
        <ele>70</ele>
        <time>2011-04-15T12:40:22Z</time>
      </trkpt>
      <trkpt lat="48.42379" lon="2.1413">
        <ele>70</ele>
        <time>2011-04-15T12:40:23Z</time>
      </trkpt>
      <trkpt lat="48.42378" lon="2.14126">
        <ele>70</ele>
        <time>2011-04-15T12:40:24Z</time>
      </trkpt>
      <trkpt lat="48.42377" lon="2.14123">
        <ele>70</ele>
        <time>2011-04-15T12:40:25Z</time>
      </trkpt>
      <trkpt lat="48.42375" lon="2.14122">
        <ele>70</ele>
        <time>2011-04-15T12:40:26Z</time>
      </trkpt>
      <trkpt lat="48.42374" lon="2.1412">
        <ele>70</ele>
        <time>2011-04-15T12:40:27Z</time>
      </trkpt>
      <trkpt lat="48.42373" lon="2.14118">
        <ele>70</ele>
        <time>2011-04-15T12:40:29Z</time>
      </trkpt>
      <trkpt lat="48.42372" lon="2.14116">
        <ele>70</ele>
        <time>2011-04-15T12:40:31Z</time>
      </trkpt>
      <trkpt lat="48.42371" lon="2.14114">
        <ele>70</ele>
        <time>2011-04-15T12:40:32Z</time>
      </trkpt>
      <trkpt lat="48.4237" lon="2.14112">
        <ele>70</ele>
        <time>2011-04-15T12:40:33Z</time>
      </trkpt>
      <trkpt lat="48.42369" lon="2.1411">
        <ele>70</ele>
        <time>2011-04-15T12:40:34Z</time>
      </trkpt>
      <trkpt lat="48.42369" lon="2.14109">
        <ele>71</ele>
        <time>2011-04-15T12:40:35Z</time>
      </trkpt>
      <trkpt lat="48.42368" lon="2.14107">
        <ele>71</ele>
        <time>2011-04-15T12:40:36Z</time>
      </trkpt>
      <trkpt lat="48.42368" lon="2.14105">
        <ele>71</ele>
        <time>2011-04-15T12:40:37Z</time>
      </trkpt>
      <trkpt lat="48.42367" lon="2.14103">
        <ele>71</ele>
        <time>2011-04-15T12:40:38Z</time>
      </trkpt>
      <trkpt lat="48.42367" lon="2.141">
        <ele>71</ele>
        <time>2011-04-15T12:40:39Z</time>
      </trkpt>
      <trkpt lat="48.42366" lon="2.14098">
        <ele>71</ele>
        <time>2011-04-15T12:40:40Z</time>
      </trkpt>
      <trkpt lat="48.42365" lon="2.14096">
        <ele>71</ele>
        <time>2011-04-15T12:40:41Z</time>
      </trkpt>
      <trkpt lat="48.42364" lon="2.14095">
        <ele>71</ele>
        <time>2011-04-15T12:40:42Z</time>
      </trkpt>
      <trkpt lat="48.42363" lon="2.14093">
        <ele>71</ele>
        <time>2011-04-15T12:40:43Z</time>
      </trkpt>
      <trkpt lat="48.42362" lon="2.14091">
        <ele>72</ele>
        <time>2011-04-15T12:40:44Z</time>
      </trkpt>
      <trkpt lat="48.42362" lon="2.14089">
        <ele>72</ele>
        <time>2011-04-15T12:40:45Z</time>
      </trkpt>
      <trkpt lat="48.42361" lon="2.14087">
        <ele>72</ele>
        <time>2011-04-15T12:40:46Z</time>
      </trkpt>
      <trkpt lat="48.42361" lon="2.14086">
        <ele>72</ele>
        <time>2011-04-15T12:40:47Z</time>
      </trkpt>
      <trkpt lat="48.4236" lon="2.14084">
        <ele>72</ele>
        <time>2011-04-15T12:40:48Z</time>
      </trkpt>
      <trkpt lat="48.4236" lon="2.14082">
        <ele>72</ele>
        <time>2011-04-15T12:40:49Z</time>
      </trkpt>
      <trkpt lat="48.42359" lon="2.1408">
        <ele>72</ele>
        <time>2011-04-15T12:40:50Z</time>
      </trkpt>
      <trkpt lat="48.42358" lon="2.14078">
        <ele>72</ele>
        <time>2011-04-15T12:40:51Z</time>
      </trkpt>
      <trkpt lat="48.42357" lon="2.14076">
        <ele>73</ele>
        <time>2011-04-15T12:40:52Z</time>
      </trkpt>
      <trkpt lat="48.42357" lon="2.14074">
        <ele>73</ele>
        <time>2011-04-15T12:40:53Z</time>
      </trkpt>
      <trkpt lat="48.42356" lon="2.14072">
        <ele>73</ele>
        <time>2011-04-15T12:40:54Z</time>
      </trkpt>
      <trkpt lat="48.42355" lon="2.1407">
        <ele>73</ele>
        <time>2011-04-15T12:40:55Z</time>
      </trkpt>
      <trkpt lat="48.42354" lon="2.14068">
        <ele>73</ele>
        <time>2011-04-15T12:40:56Z</time>
      </trkpt>
      <trkpt lat="48.42354" lon="2.14067">
        <ele>74</ele>
        <time>2011-04-15T12:40:57Z</time>
      </trkpt>
      <trkpt lat="48.42353" lon="2.14065">
        <ele>74</ele>
        <time>2011-04-15T12:40:58Z</time>
      </trkpt>
      <trkpt lat="48.42353" lon="2.14063">
        <ele>74</ele>
        <time>2011-04-15T12:40:59Z</time>
      </trkpt>
      <trkpt lat="48.42352" lon="2.14061">
        <ele>74</ele>
        <time>2011-04-15T12:41:00Z</time>
      </trkpt>
      <trkpt lat="48.42351" lon="2.14058">
        <ele>74</ele>
        <time>2011-04-15T12:41:02Z</time>
      </trkpt>
      <trkpt lat="48.4235" lon="2.14056">
        <ele>74</ele>
        <time>2011-04-15T12:41:03Z</time>
      </trkpt>
      <trkpt lat="48.42349" lon="2.14055">
        <ele>74</ele>
        <time>2011-04-15T12:41:04Z</time>
      </trkpt>
      <trkpt lat="48.42349" lon="2.14053">
        <ele>74</ele>
        <time>2011-04-15T12:41:05Z</time>
      </trkpt>
      <trkpt lat="48.42348" lon="2.1405">
        <ele>74</ele>
        <time>2011-04-15T12:41:06Z</time>
      </trkpt>
      <trkpt lat="48.42348" lon="2.14048">
        <ele>74</ele>
        <time>2011-04-15T12:41:07Z</time>
      </trkpt>
      <trkpt lat="48.42347" lon="2.14046">
        <ele>74</ele>
        <time>2011-04-15T12:41:08Z</time>
      </trkpt>
      <trkpt lat="48.42346" lon="2.14044">
        <ele>75</ele>
        <time>2011-04-15T12:41:09Z</time>
      </trkpt>
      <trkpt lat="48.42346" lon="2.14042">
        <ele>75</ele>
        <time>2011-04-15T12:41:10Z</time>
      </trkpt>
      <trkpt lat="48.42345" lon="2.1404">
        <ele>75</ele>
        <time>2011-04-15T12:41:11Z</time>
      </trkpt>
      <trkpt lat="48.42344" lon="2.14038">
        <ele>75</ele>
        <time>2011-04-15T12:41:12Z</time>
      </trkpt>
      <trkpt lat="48.42344" lon="2.14036">
        <ele>75</ele>
        <time>2011-04-15T12:41:13Z</time>
      </trkpt>
      <trkpt lat="48.42343" lon="2.14035">
        <ele>75</ele>
        <time>2011-04-15T12:41:14Z</time>
      </trkpt>
      <trkpt lat="48.42342" lon="2.14033">
        <ele>75</ele>
        <time>2011-04-15T12:41:15Z</time>
      </trkpt>
      <trkpt lat="48.42341" lon="2.14031">
        <ele>76</ele>
        <time>2011-04-15T12:41:16Z</time>
      </trkpt>
      <trkpt lat="48.42341" lon="2.14029">
        <ele>76</ele>
        <time>2011-04-15T12:41:17Z</time>
      </trkpt>
      <trkpt lat="48.4234" lon="2.14027">
        <ele>76</ele>
        <time>2011-04-15T12:41:18Z</time>
      </trkpt>
      <trkpt lat="48.42339" lon="2.14025">
        <ele>76</ele>
        <time>2011-04-15T12:41:19Z</time>
      </trkpt>
      <trkpt lat="48.42338" lon="2.14022">
        <ele>77</ele>
        <time>2011-04-15T12:41:21Z</time>
      </trkpt>
      <trkpt lat="48.42337" lon="2.1402">
        <ele>77</ele>
        <time>2011-04-15T12:41:22Z</time>
      </trkpt>
      <trkpt lat="48.42337" lon="2.14018">
        <ele>78</ele>
        <time>2011-04-15T12:41:23Z</time>
      </trkpt>
      <trkpt lat="48.42336" lon="2.14016">
        <ele>78</ele>
        <time>2011-04-15T12:41:24Z</time>
      </trkpt>
      <trkpt lat="48.42336" lon="2.14014">
        <ele>78</ele>
        <time>2011-04-15T12:41:25Z</time>
      </trkpt>
      <trkpt lat="48.42335" lon="2.14013">
        <ele>78</ele>
        <time>2011-04-15T12:41:26Z</time>
      </trkpt>
      <trkpt lat="48.42335" lon="2.1401">
        <ele>78</ele>
        <time>2011-04-15T12:41:27Z</time>
      </trkpt>
      <trkpt lat="48.42334" lon="2.14008">
        <ele>78</ele>
        <time>2011-04-15T12:41:28Z</time>
      </trkpt>
      <trkpt lat="48.42334" lon="2.14006">
        <ele>78</ele>
        <time>2011-04-15T12:41:29Z</time>
      </trkpt>
      <trkpt lat="48.42332" lon="2.14003">
        <ele>78</ele>
        <time>2011-04-15T12:41:30Z</time>
      </trkpt>
      <trkpt lat="48.42332" lon="2.14001">
        <ele>78</ele>
        <time>2011-04-15T12:41:31Z</time>
      </trkpt>
      <trkpt lat="48.42331" lon="2.13999">
        <ele>78</ele>
        <time>2011-04-15T12:41:32Z</time>
      </trkpt>
      <trkpt lat="48.4233" lon="2.13997">
        <ele>79</ele>
        <time>2011-04-15T12:41:34Z</time>
      </trkpt>
      <trkpt lat="48.4233" lon="2.13994">
        <ele>79</ele>
        <time>2011-04-15T12:41:36Z</time>
      </trkpt>
      <trkpt lat="48.42329" lon="2.13992">
        <ele>79</ele>
        <time>2011-04-15T12:41:37Z</time>
      </trkpt>
      <trkpt lat="48.42328" lon="2.1399">
        <ele>79</ele>
        <time>2011-04-15T12:41:39Z</time>
      </trkpt>
      <trkpt lat="48.42328" lon="2.13987">
        <ele>79</ele>
        <time>2011-04-15T12:41:41Z</time>
      </trkpt>
      <trkpt lat="48.42327" lon="2.13984">
        <ele>80</ele>
        <time>2011-04-15T12:41:43Z</time>
      </trkpt>
      <trkpt lat="48.42325" lon="2.13981">
        <ele>80</ele>
        <time>2011-04-15T12:41:45Z</time>
      </trkpt>
      <trkpt lat="48.42324" lon="2.13979">
        <ele>81</ele>
        <time>2011-04-15T12:41:46Z</time>
      </trkpt>
      <trkpt lat="48.42323" lon="2.13976">
        <ele>81</ele>
        <time>2011-04-15T12:41:48Z</time>
      </trkpt>
      <trkpt lat="48.42322" lon="2.13974">
        <ele>81</ele>
        <time>2011-04-15T12:41:49Z</time>
      </trkpt>
      <trkpt lat="48.42321" lon="2.13973">
        <ele>81</ele>
        <time>2011-04-15T12:41:50Z</time>
      </trkpt>
      <trkpt lat="48.42319" lon="2.13969">
        <ele>81</ele>
        <time>2011-04-15T12:41:52Z</time>
      </trkpt>
      <trkpt lat="48.42319" lon="2.13967">
        <ele>81</ele>
        <time>2011-04-15T12:41:53Z</time>
      </trkpt>
      <trkpt lat="48.42318" lon="2.13965">
        <ele>81</ele>
        <time>2011-04-15T12:41:54Z</time>
      </trkpt>
      <trkpt lat="48.42317" lon="2.13964">
        <ele>81</ele>
        <time>2011-04-15T12:41:55Z</time>
      </trkpt>
      <trkpt lat="48.42315" lon="2.13961">
        <ele>81</ele>
        <time>2011-04-15T12:41:57Z</time>
      </trkpt>
      <trkpt lat="48.42314" lon="2.13958">
        <ele>81</ele>
        <time>2011-04-15T12:41:59Z</time>
      </trkpt>
      <trkpt lat="48.42312" lon="2.13955">
        <ele>81</ele>
        <time>2011-04-15T12:42:01Z</time>
      </trkpt>
      <trkpt lat="48.42311" lon="2.13953">
        <ele>81</ele>
        <time>2011-04-15T12:42:03Z</time>
      </trkpt>
      <trkpt lat="48.42309" lon="2.1395">
        <ele>82</ele>
        <time>2011-04-15T12:42:05Z</time>
      </trkpt>
      <trkpt lat="48.42308" lon="2.13948">
        <ele>82</ele>
        <time>2011-04-15T12:42:06Z</time>
      </trkpt>
      <trkpt lat="48.42306" lon="2.13945">
        <ele>82</ele>
        <time>2011-04-15T12:42:08Z</time>
      </trkpt>
      <trkpt lat="48.42305" lon="2.13942">
        <ele>82</ele>
        <time>2011-04-15T12:42:09Z</time>
      </trkpt>
      <trkpt lat="48.42304" lon="2.13939">
        <ele>82</ele>
        <time>2011-04-15T12:42:10Z</time>
      </trkpt>
      <trkpt lat="48.42303" lon="2.13937">
        <ele>82</ele>
        <time>2011-04-15T12:42:11Z</time>
      </trkpt>
      <trkpt lat="48.42302" lon="2.13935">
        <ele>82</ele>
        <time>2011-04-15T12:42:12Z</time>
      </trkpt>
      <trkpt lat="48.42301" lon="2.13932">
        <ele>83</ele>
        <time>2011-04-15T12:42:14Z</time>
      </trkpt>
      <trkpt lat="48.423" lon="2.13929">
        <ele>83</ele>
        <time>2011-04-15T12:42:16Z</time>
      </trkpt>
      <trkpt lat="48.42299" lon="2.13926">
        <ele>83</ele>
        <time>2011-04-15T12:42:17Z</time>
      </trkpt>
      <trkpt lat="48.42298" lon="2.13924">
        <ele>84</ele>
        <time>2011-04-15T12:42:19Z</time>
      </trkpt>
      <trkpt lat="48.42297" lon="2.13922">
        <ele>85</ele>
        <time>2011-04-15T12:42:21Z</time>
      </trkpt>
      <trkpt lat="48.42295" lon="2.13918">
        <ele>85</ele>
        <time>2011-04-15T12:42:23Z</time>
      </trkpt>
      <trkpt lat="48.42294" lon="2.13916">
        <ele>86</ele>
        <time>2011-04-15T12:42:24Z</time>
      </trkpt>
      <trkpt lat="48.42293" lon="2.13914">
        <ele>86</ele>
        <time>2011-04-15T12:42:26Z</time>
      </trkpt>
      <trkpt lat="48.42292" lon="2.13912">
        <ele>87</ele>
        <time>2011-04-15T12:42:28Z</time>
      </trkpt>
      <trkpt lat="48.42291" lon="2.1391">
        <ele>87</ele>
        <time>2011-04-15T12:42:29Z</time>
      </trkpt>
      <trkpt lat="48.42289" lon="2.13907">
        <ele>87</ele>
        <time>2011-04-15T12:42:31Z</time>
      </trkpt>
      <trkpt lat="48.42288" lon="2.13905">
        <ele>87</ele>
        <time>2011-04-15T12:42:32Z</time>
      </trkpt>
      <trkpt lat="48.42287" lon="2.13902">
        <ele>87</ele>
        <time>2011-04-15T12:42:34Z</time>
      </trkpt>
      <trkpt lat="48.42285" lon="2.13898">
        <ele>87</ele>
        <time>2011-04-15T12:42:36Z</time>
      </trkpt>
      <trkpt lat="48.42284" lon="2.13897">
        <ele>88</ele>
        <time>2011-04-15T12:42:37Z</time>
      </trkpt>
      <trkpt lat="48.42284" lon="2.13894">
        <ele>88</ele>
        <time>2011-04-15T12:42:39Z</time>
      </trkpt>
      <trkpt lat="48.42283" lon="2.13892">
        <ele>88</ele>
        <time>2011-04-15T12:42:40Z</time>
      </trkpt>
      <trkpt lat="48.42282" lon="2.1389">
        <ele>88</ele>
        <time>2011-04-15T12:42:41Z</time>
      </trkpt>
      <trkpt lat="48.42282" lon="2.13889">
        <ele>89</ele>
        <time>2011-04-15T12:42:42Z</time>
      </trkpt>
      <trkpt lat="48.42281" lon="2.13887">
        <ele>89</ele>
        <time>2011-04-15T12:42:43Z</time>
      </trkpt>
      <trkpt lat="48.42279" lon="2.13884">
        <ele>90</ele>
        <time>2011-04-15T12:42:44Z</time>
      </trkpt>
      <trkpt lat="48.42278" lon="2.13882">
        <ele>90</ele>
        <time>2011-04-15T12:42:45Z</time>
      </trkpt>
      <trkpt lat="48.42278" lon="2.1388">
        <ele>90</ele>
        <time>2011-04-15T12:42:46Z</time>
      </trkpt>
      <trkpt lat="48.42277" lon="2.13878">
        <ele>91</ele>
        <time>2011-04-15T12:42:47Z</time>
      </trkpt>
      <trkpt lat="48.42276" lon="2.13875">
        <ele>92</ele>
        <time>2011-04-15T12:42:48Z</time>
      </trkpt>
      <trkpt lat="48.42274" lon="2.13872">
        <ele>92</ele>
        <time>2011-04-15T12:42:49Z</time>
      </trkpt>
      <trkpt lat="48.42274" lon="2.1387">
        <ele>93</ele>
        <time>2011-04-15T12:42:50Z</time>
      </trkpt>
      <trkpt lat="48.42273" lon="2.13868">
        <ele>93</ele>
        <time>2011-04-15T12:42:51Z</time>
      </trkpt>
      <trkpt lat="48.42272" lon="2.13866">
        <ele>94</ele>
        <time>2011-04-15T12:42:52Z</time>
      </trkpt>
      <trkpt lat="48.42273" lon="2.13864">
        <ele>94</ele>
        <time>2011-04-15T12:42:53Z</time>
      </trkpt>
      <trkpt lat="48.42272" lon="2.13862">
        <ele>95</ele>
        <time>2011-04-15T12:42:54Z</time>
      </trkpt>
      <trkpt lat="48.42272" lon="2.13859">
        <ele>97</ele>
        <time>2011-04-15T12:42:56Z</time>
      </trkpt>
      <trkpt lat="48.42272" lon="2.13858">
        <ele>97</ele>
        <time>2011-04-15T12:42:57Z</time>
      </trkpt>
      <trkpt lat="48.42271" lon="2.13855">
        <ele>98</ele>
        <time>2011-04-15T12:42:59Z</time>
      </trkpt>
      <trkpt lat="48.42269" lon="2.13854">
        <ele>98</ele>
        <time>2011-04-15T12:43:01Z</time>
      </trkpt>
      <trkpt lat="48.42267" lon="2.13853">
        <ele>99</ele>
        <time>2011-04-15T12:43:03Z</time>
      </trkpt>
      <trkpt lat="48.42266" lon="2.13853">
        <ele>100</ele>
        <time>2011-04-15T12:43:04Z</time>
      </trkpt>
      <trkpt lat="48.42265" lon="2.13854">
        <ele>101</ele>
        <time>2011-04-15T12:43:06Z</time>
      </trkpt>
      <trkpt lat="48.42265" lon="2.13856">
        <ele>101</ele>
        <time>2011-04-15T12:43:08Z</time>
      </trkpt>
      <trkpt lat="48.42264" lon="2.13859">
        <ele>101</ele>
        <time>2011-04-15T12:43:10Z</time>
      </trkpt>
      <trkpt lat="48.42264" lon="2.13861">
        <ele>101</ele>
        <time>2011-04-15T12:43:11Z</time>
      </trkpt>
      <trkpt lat="48.42264" lon="2.13863">
        <ele>101</ele>
        <time>2011-04-15T12:43:12Z</time>
      </trkpt>
      <trkpt lat="48.42264" lon="2.13866">
        <ele>101</ele>
        <time>2011-04-15T12:43:13Z</time>
      </trkpt>
      <trkpt lat="48.42263" lon="2.13868">
        <ele>101</ele>
        <time>2011-04-15T12:43:14Z</time>
      </trkpt>
      <trkpt lat="48.42263" lon="2.1387">
        <ele>101</ele>
        <time>2011-04-15T12:43:15Z</time>
      </trkpt>
      <trkpt lat="48.42262" lon="2.13872">
        <ele>101</ele>
        <time>2011-04-15T12:43:16Z</time>
      </trkpt>
      <trkpt lat="48.42262" lon="2.13874">
        <ele>101</ele>
        <time>2011-04-15T12:43:17Z</time>
      </trkpt>
      <trkpt lat="48.42261" lon="2.13875">
        <ele>101</ele>
        <time>2011-04-15T12:43:18Z</time>
      </trkpt>
      <trkpt lat="48.4226" lon="2.13878">
        <ele>101</ele>
        <time>2011-04-15T12:43:20Z</time>
      </trkpt>
      <trkpt lat="48.4226" lon="2.1388">
        <ele>101</ele>
        <time>2011-04-15T12:43:21Z</time>
      </trkpt>
      <trkpt lat="48.42259" lon="2.13882">
        <ele>101</ele>
        <time>2011-04-15T12:43:22Z</time>
      </trkpt>
      <trkpt lat="48.42258" lon="2.13884">
        <ele>101</ele>
        <time>2011-04-15T12:43:23Z</time>
      </trkpt>
      <trkpt lat="48.42258" lon="2.13886">
        <ele>101</ele>
        <time>2011-04-15T12:43:24Z</time>
      </trkpt>
      <trkpt lat="48.42257" lon="2.13888">
        <ele>101</ele>
        <time>2011-04-15T12:43:25Z</time>
      </trkpt>
      <trkpt lat="48.42256" lon="2.13889">
        <ele>101</ele>
        <time>2011-04-15T12:43:26Z</time>
      </trkpt>
      <trkpt lat="48.42256" lon="2.13891">
        <ele>101</ele>
        <time>2011-04-15T12:43:27Z</time>
      </trkpt>
      <trkpt lat="48.42256" lon="2.13893">
        <ele>101</ele>
        <time>2011-04-15T12:43:28Z</time>
      </trkpt>
      <trkpt lat="48.42256" lon="2.13896">
        <ele>101</ele>
        <time>2011-04-15T12:43:29Z</time>
      </trkpt>
      <trkpt lat="48.42256" lon="2.13898">
        <ele>101</ele>
        <time>2011-04-15T12:43:30Z</time>
      </trkpt>
      <trkpt lat="48.42255" lon="2.13899">
        <ele>101</ele>
        <time>2011-04-15T12:43:31Z</time>
      </trkpt>
      <trkpt lat="48.42254" lon="2.13903">
        <ele>101</ele>
        <time>2011-04-15T12:43:33Z</time>
      </trkpt>
      <trkpt lat="48.42253" lon="2.13905">
        <ele>101</ele>
        <time>2011-04-15T12:43:34Z</time>
      </trkpt>
      <trkpt lat="48.42253" lon="2.13907">
        <ele>101</ele>
        <time>2011-04-15T12:43:35Z</time>
      </trkpt>
      <trkpt lat="48.42252" lon="2.13908">
        <ele>101</ele>
        <time>2011-04-15T12:43:36Z</time>
      </trkpt>
      <trkpt lat="48.4225" lon="2.1391">
        <ele>101</ele>
        <time>2011-04-15T12:43:38Z</time>
      </trkpt>
      <trkpt lat="48.42248" lon="2.1391">
        <ele>101</ele>
        <time>2011-04-15T12:43:39Z</time>
      </trkpt>
      <trkpt lat="48.42246" lon="2.13909">
        <ele>101</ele>
        <time>2011-04-15T12:43:40Z</time>
      </trkpt>
      <trkpt lat="48.42244" lon="2.13907">
        <ele>101</ele>
        <time>2011-04-15T12:43:41Z</time>
      </trkpt>
      <trkpt lat="48.42242" lon="2.13905">
        <ele>101</ele>
        <time>2011-04-15T12:43:42Z</time>
      </trkpt>
      <trkpt lat="48.42241" lon="2.13903">
        <ele>101</ele>
        <time>2011-04-15T12:43:43Z</time>
      </trkpt>
      <trkpt lat="48.4224" lon="2.13901">
        <ele>101</ele>
        <time>2011-04-15T12:43:44Z</time>
      </trkpt>
      <trkpt lat="48.4224" lon="2.139">
        <ele>101</ele>
        <time>2011-04-15T12:43:45Z</time>
      </trkpt>
      <trkpt lat="48.42239" lon="2.13897">
        <ele>101</ele>
        <time>2011-04-15T12:43:47Z</time>
      </trkpt>
      <trkpt lat="48.42238" lon="2.13895">
        <ele>101</ele>
        <time>2011-04-15T12:43:49Z</time>
      </trkpt>
      <trkpt lat="48.42236" lon="2.13892">
        <ele>102</ele>
        <time>2011-04-15T12:43:51Z</time>
      </trkpt>
      <trkpt lat="48.42236" lon="2.13889">
        <ele>103</ele>
        <time>2011-04-15T12:43:53Z</time>
      </trkpt>
      <trkpt lat="48.42235" lon="2.13887">
        <ele>104</ele>
        <time>2011-04-15T12:43:54Z</time>
      </trkpt>
      <trkpt lat="48.42235" lon="2.13885">
        <ele>105</ele>
        <time>2011-04-15T12:43:55Z</time>
      </trkpt>
      <trkpt lat="48.42235" lon="2.13883">
        <ele>106</ele>
        <time>2011-04-15T12:43:57Z</time>
      </trkpt>
      <trkpt lat="48.42234" lon="2.1388">
        <ele>107</ele>
        <time>2011-04-15T12:43:59Z</time>
      </trkpt>
      <trkpt lat="48.42235" lon="2.13877">
        <ele>109</ele>
        <time>2011-04-15T12:44:01Z</time>
      </trkpt>
      <trkpt lat="48.42234" lon="2.13874">
        <ele>109</ele>
        <time>2011-04-15T12:44:03Z</time>
      </trkpt>
      <trkpt lat="48.42234" lon="2.13871">
        <ele>110</ele>
        <time>2011-04-15T12:44:05Z</time>
      </trkpt>
      <trkpt lat="48.42234" lon="2.13868">
        <ele>110</ele>
        <time>2011-04-15T12:44:07Z</time>
      </trkpt>
      <trkpt lat="48.42234" lon="2.13867">
        <ele>111</ele>
        <time>2011-04-15T12:44:08Z</time>
      </trkpt>
      <trkpt lat="48.42234" lon="2.13864">
        <ele>111</ele>
        <time>2011-04-15T12:44:10Z</time>
      </trkpt>
      <trkpt lat="48.42233" lon="2.13861">
        <ele>112</ele>
        <time>2011-04-15T12:44:12Z</time>
      </trkpt>
      <trkpt lat="48.42232" lon="2.1386">
        <ele>113</ele>
        <time>2011-04-15T12:44:14Z</time>
      </trkpt>
      <trkpt lat="48.42231" lon="2.13861">
        <ele>114</ele>
        <time>2011-04-15T12:44:16Z</time>
      </trkpt>
      <trkpt lat="48.4223" lon="2.13863">
        <ele>114</ele>
        <time>2011-04-15T12:44:18Z</time>
      </trkpt>
      <trkpt lat="48.4223" lon="2.13865">
        <ele>114</ele>
        <time>2011-04-15T12:44:19Z</time>
      </trkpt>
      <trkpt lat="48.42229" lon="2.13867">
        <ele>114</ele>
        <time>2011-04-15T12:44:20Z</time>
      </trkpt>
      <trkpt lat="48.42228" lon="2.1387">
        <ele>115</ele>
        <time>2011-04-15T12:44:22Z</time>
      </trkpt>
      <trkpt lat="48.42227" lon="2.13872">
        <ele>116</ele>
        <time>2011-04-15T12:44:24Z</time>
      </trkpt>
      <trkpt lat="48.42225" lon="2.13874">
        <ele>116</ele>
        <time>2011-04-15T12:44:26Z</time>
      </trkpt>
      <trkpt lat="48.42224" lon="2.13875">
        <ele>116</ele>
        <time>2011-04-15T12:44:27Z</time>
      </trkpt>
      <trkpt lat="48.42223" lon="2.13876">
        <ele>116</ele>
        <time>2011-04-15T12:44:28Z</time>
      </trkpt>
      <trkpt lat="48.42221" lon="2.13877">
        <ele>116</ele>
        <time>2011-04-15T12:44:29Z</time>
      </trkpt>
      <trkpt lat="48.4222" lon="2.13877">
        <ele>116</ele>
        <time>2011-04-15T12:44:30Z</time>
      </trkpt>
      <trkpt lat="48.42219" lon="2.13876">
        <ele>116</ele>
        <time>2011-04-15T12:44:31Z</time>
      </trkpt>
      <trkpt lat="48.42218" lon="2.13875">
        <ele>117</ele>
        <time>2011-04-15T12:44:32Z</time>
      </trkpt>
      <trkpt lat="48.42216" lon="2.13873">
        <ele>117</ele>
        <time>2011-04-15T12:44:34Z</time>
      </trkpt>
      <trkpt lat="48.42215" lon="2.13872">
        <ele>117</ele>
        <time>2011-04-15T12:44:35Z</time>
      </trkpt>
      <trkpt lat="48.42212" lon="2.13871">
        <ele>118</ele>
        <time>2011-04-15T12:44:37Z</time>
      </trkpt>
      <trkpt lat="48.42211" lon="2.1387">
        <ele>118</ele>
        <time>2011-04-15T12:44:38Z</time>
      </trkpt>
      <trkpt lat="48.42209" lon="2.13868">
        <ele>119</ele>
        <time>2011-04-15T12:44:40Z</time>
      </trkpt>
      <trkpt lat="48.42208" lon="2.13866">
        <ele>120</ele>
        <time>2011-04-15T12:44:42Z</time>
      </trkpt>
      <trkpt lat="48.42208" lon="2.13864">
        <ele>120</ele>
        <time>2011-04-15T12:44:43Z</time>
      </trkpt>
      <trkpt lat="48.42208" lon="2.13862">
        <ele>120</ele>
        <time>2011-04-15T12:44:44Z</time>
      </trkpt>
      <trkpt lat="48.42208" lon="2.1386">
        <ele>120</ele>
        <time>2011-04-15T12:44:45Z</time>
      </trkpt>
      <trkpt lat="48.42209" lon="2.13858">
        <ele>120</ele>
        <time>2011-04-15T12:44:46Z</time>
      </trkpt>
      <trkpt lat="48.42209" lon="2.13856">
        <ele>121</ele>
        <time>2011-04-15T12:44:47Z</time>
      </trkpt>
      <trkpt lat="48.42208" lon="2.13854">
        <ele>121</ele>
        <time>2011-04-15T12:44:48Z</time>
      </trkpt>
      <trkpt lat="48.42207" lon="2.13852">
        <ele>122</ele>
        <time>2011-04-15T12:44:50Z</time>
      </trkpt>
      <trkpt lat="48.42205" lon="2.13849">
        <ele>122</ele>
        <time>2011-04-15T12:44:52Z</time>
      </trkpt>
      <trkpt lat="48.42203" lon="2.13848">
        <ele>123</ele>
        <time>2011-04-15T12:44:53Z</time>
      </trkpt>
      <trkpt lat="48.42202" lon="2.13847">
        <ele>123</ele>
        <time>2011-04-15T12:44:54Z</time>
      </trkpt>
      <trkpt lat="48.42201" lon="2.13846">
        <ele>123</ele>
        <time>2011-04-15T12:44:55Z</time>
      </trkpt>
      <trkpt lat="48.42199" lon="2.13846">
        <ele>123</ele>
        <time>2011-04-15T12:44:56Z</time>
      </trkpt>
      <trkpt lat="48.42198" lon="2.13845">
        <ele>124</ele>
        <time>2011-04-15T12:44:57Z</time>
      </trkpt>
      <trkpt lat="48.42197" lon="2.13844">
        <ele>124</ele>
        <time>2011-04-15T12:44:58Z</time>
      </trkpt>
      <trkpt lat="48.42196" lon="2.13844">
        <ele>124</ele>
        <time>2011-04-15T12:44:59Z</time>
      </trkpt>
      <trkpt lat="48.42194" lon="2.13843">
        <ele>124</ele>
        <time>2011-04-15T12:45:00Z</time>
      </trkpt>
      <trkpt lat="48.42193" lon="2.13843">
        <ele>124</ele>
        <time>2011-04-15T12:45:01Z</time>
      </trkpt>
      <trkpt lat="48.42192" lon="2.13842">
        <ele>124</ele>
        <time>2011-04-15T12:45:02Z</time>
      </trkpt>
      <trkpt lat="48.42191" lon="2.13842">
        <ele>125</ele>
        <time>2011-04-15T12:45:03Z</time>
      </trkpt>
      <trkpt lat="48.42189" lon="2.13841">
        <ele>125</ele>
        <time>2011-04-15T12:45:04Z</time>
      </trkpt>
      <trkpt lat="48.42188" lon="2.13841">
        <ele>125</ele>
        <time>2011-04-15T12:45:05Z</time>
      </trkpt>
      <trkpt lat="48.42187" lon="2.1384">
        <ele>125</ele>
        <time>2011-04-15T12:45:06Z</time>
      </trkpt>
      <trkpt lat="48.42186" lon="2.13839">
        <ele>125</ele>
        <time>2011-04-15T12:45:07Z</time>
      </trkpt>
      <trkpt lat="48.42184" lon="2.13839">
        <ele>125</ele>
        <time>2011-04-15T12:45:08Z</time>
      </trkpt>
      <trkpt lat="48.42183" lon="2.13838">
        <ele>125</ele>
        <time>2011-04-15T12:45:09Z</time>
      </trkpt>
      <trkpt lat="48.42182" lon="2.13838">
        <ele>125</ele>
        <time>2011-04-15T12:45:10Z</time>
      </trkpt>
      <trkpt lat="48.42181" lon="2.13837">
        <ele>125</ele>
        <time>2011-04-15T12:45:11Z</time>
      </trkpt>
      <trkpt lat="48.42179" lon="2.13837">
        <ele>125</ele>
        <time>2011-04-15T12:45:12Z</time>
      </trkpt>
      <trkpt lat="48.42178" lon="2.13837">
        <ele>125</ele>
        <time>2011-04-15T12:45:13Z</time>
      </trkpt>
      <trkpt lat="48.42177" lon="2.13836">
        <ele>125</ele>
        <time>2011-04-15T12:45:14Z</time>
      </trkpt>
      <trkpt lat="48.42175" lon="2.13836">
        <ele>125</ele>
        <time>2011-04-15T12:45:15Z</time>
      </trkpt>
      <trkpt lat="48.42174" lon="2.13835">
        <ele>126</ele>
        <time>2011-04-15T12:45:16Z</time>
      </trkpt>
      <trkpt lat="48.42173" lon="2.13835">
        <ele>126</ele>
        <time>2011-04-15T12:45:17Z</time>
      </trkpt>
      <trkpt lat="48.42171" lon="2.13834">
        <ele>126</ele>
        <time>2011-04-15T12:45:18Z</time>
      </trkpt>
      <trkpt lat="48.4217" lon="2.13834">
        <ele>126</ele>
        <time>2011-04-15T12:45:19Z</time>
      </trkpt>
      <trkpt lat="48.42169" lon="2.13833">
        <ele>126</ele>
        <time>2011-04-15T12:45:20Z</time>
      </trkpt>
      <trkpt lat="48.42168" lon="2.13832">
        <ele>126</ele>
        <time>2011-04-15T12:45:21Z</time>
      </trkpt>
      <trkpt lat="48.42166" lon="2.13832">
        <ele>126</ele>
        <time>2011-04-15T12:45:22Z</time>
      </trkpt>
      <trkpt lat="48.42165" lon="2.13831">
        <ele>126</ele>
        <time>2011-04-15T12:45:23Z</time>
      </trkpt>
      <trkpt lat="48.42164" lon="2.1383">
        <ele>126</ele>
        <time>2011-04-15T12:45:24Z</time>
      </trkpt>
      <trkpt lat="48.42162" lon="2.1383">
        <ele>126</ele>
        <time>2011-04-15T12:45:25Z</time>
      </trkpt>
      <trkpt lat="48.42161" lon="2.1383">
        <ele>126</ele>
        <time>2011-04-15T12:45:26Z</time>
      </trkpt>
      <trkpt lat="48.42159" lon="2.13829">
        <ele>126</ele>
        <time>2011-04-15T12:45:28Z</time>
      </trkpt>
      <trkpt lat="48.42157" lon="2.13829">
        <ele>126</ele>
        <time>2011-04-15T12:45:29Z</time>
      </trkpt>
      <trkpt lat="48.42156" lon="2.13828">
        <ele>126</ele>
        <time>2011-04-15T12:45:30Z</time>
      </trkpt>
      <trkpt lat="48.42155" lon="2.13828">
        <ele>126</ele>
        <time>2011-04-15T12:45:31Z</time>
      </trkpt>
      <trkpt lat="48.42153" lon="2.13828">
        <ele>126</ele>
        <time>2011-04-15T12:45:32Z</time>
      </trkpt>
      <trkpt lat="48.42152" lon="2.13827">
        <ele>126</ele>
        <time>2011-04-15T12:45:33Z</time>
      </trkpt>
      <trkpt lat="48.42151" lon="2.13827">
        <ele>126</ele>
        <time>2011-04-15T12:45:34Z</time>
      </trkpt>
      <trkpt lat="48.42149" lon="2.13826">
        <ele>126</ele>
        <time>2011-04-15T12:45:35Z</time>
      </trkpt>
      <trkpt lat="48.42148" lon="2.13826">
        <ele>126</ele>
        <time>2011-04-15T12:45:36Z</time>
      </trkpt>
      <trkpt lat="48.42147" lon="2.13825">
        <ele>126</ele>
        <time>2011-04-15T12:45:37Z</time>
      </trkpt>
      <trkpt lat="48.42145" lon="2.13824">
        <ele>126</ele>
        <time>2011-04-15T12:45:38Z</time>
      </trkpt>
      <trkpt lat="48.42144" lon="2.13823">
        <ele>126</ele>
        <time>2011-04-15T12:45:39Z</time>
      </trkpt>
      <trkpt lat="48.42143" lon="2.13822">
        <ele>126</ele>
        <time>2011-04-15T12:45:40Z</time>
      </trkpt>
      <trkpt lat="48.42141" lon="2.13819">
        <ele>126</ele>
        <time>2011-04-15T12:45:42Z</time>
      </trkpt>
      <trkpt lat="48.42139" lon="2.13819">
        <ele>126</ele>
        <time>2011-04-15T12:45:44Z</time>
      </trkpt>
      <trkpt lat="48.42138" lon="2.13819">
        <ele>126</ele>
        <time>2011-04-15T12:45:45Z</time>
      </trkpt>
      <trkpt lat="48.42136" lon="2.13822">
        <ele>126</ele>
        <time>2011-04-15T12:45:47Z</time>
      </trkpt>
      <trkpt lat="48.42135" lon="2.13824">
        <ele>127</ele>
        <time>2011-04-15T12:45:48Z</time>
      </trkpt>
      <trkpt lat="48.42133" lon="2.13827">
        <ele>127</ele>
        <time>2011-04-15T12:45:50Z</time>
      </trkpt>
      <trkpt lat="48.42131" lon="2.13828">
        <ele>127</ele>
        <time>2011-04-15T12:45:51Z</time>
      </trkpt>
      <trkpt lat="48.4213" lon="2.13831">
        <ele>127</ele>
        <time>2011-04-15T12:45:53Z</time>
      </trkpt>
      <trkpt lat="48.42129" lon="2.13833">
        <ele>127</ele>
        <time>2011-04-15T12:45:54Z</time>
      </trkpt>
      <trkpt lat="48.42128" lon="2.13834">
        <ele>127</ele>
        <time>2011-04-15T12:45:55Z</time>
      </trkpt>
      <trkpt lat="48.42128" lon="2.13836">
        <ele>127</ele>
        <time>2011-04-15T12:45:56Z</time>
      </trkpt>
      <trkpt lat="48.42127" lon="2.13838">
        <ele>127</ele>
        <time>2011-04-15T12:45:57Z</time>
      </trkpt>
      <trkpt lat="48.42126" lon="2.1384">
        <ele>127</ele>
        <time>2011-04-15T12:45:58Z</time>
      </trkpt>
      <trkpt lat="48.42126" lon="2.13842">
        <ele>127</ele>
        <time>2011-04-15T12:45:59Z</time>
      </trkpt>
      <trkpt lat="48.42126" lon="2.13845">
        <ele>127</ele>
        <time>2011-04-15T12:46:00Z</time>
      </trkpt>
      <trkpt lat="48.42126" lon="2.13847">
        <ele>127</ele>
        <time>2011-04-15T12:46:01Z</time>
      </trkpt>
      <trkpt lat="48.42126" lon="2.13849">
        <ele>127</ele>
        <time>2011-04-15T12:46:02Z</time>
      </trkpt>
      <trkpt lat="48.42126" lon="2.13852">
        <ele>127</ele>
        <time>2011-04-15T12:46:03Z</time>
      </trkpt>
      <trkpt lat="48.42126" lon="2.13854">
        <ele>127</ele>
        <time>2011-04-15T12:46:04Z</time>
      </trkpt>
      <trkpt lat="48.42126" lon="2.13857">
        <ele>127</ele>
        <time>2011-04-15T12:46:05Z</time>
      </trkpt>
      <trkpt lat="48.42126" lon="2.13859">
        <ele>127</ele>
        <time>2011-04-15T12:46:06Z</time>
      </trkpt>
      <trkpt lat="48.42126" lon="2.13861">
        <ele>127</ele>
        <time>2011-04-15T12:46:07Z</time>
      </trkpt>
      <trkpt lat="48.42126" lon="2.13863">
        <ele>127</ele>
        <time>2011-04-15T12:46:08Z</time>
      </trkpt>
      <trkpt lat="48.42127" lon="2.13866">
        <ele>127</ele>
        <time>2011-04-15T12:46:09Z</time>
      </trkpt>
      <trkpt lat="48.42127" lon="2.13868">
        <ele>127</ele>
        <time>2011-04-15T12:46:10Z</time>
      </trkpt>
      <trkpt lat="48.42127" lon="2.1387">
        <ele>127</ele>
        <time>2011-04-15T12:46:11Z</time>
      </trkpt>
      <trkpt lat="48.42128" lon="2.13872">
        <ele>127</ele>
        <time>2011-04-15T12:46:12Z</time>
      </trkpt>
      <trkpt lat="48.42128" lon="2.13875">
        <ele>127</ele>
        <time>2011-04-15T12:46:13Z</time>
      </trkpt>
      <trkpt lat="48.42129" lon="2.13878">
        <ele>127</ele>
        <time>2011-04-15T12:46:14Z</time>
      </trkpt>
      <trkpt lat="48.42129" lon="2.13881">
        <ele>127</ele>
        <time>2011-04-15T12:46:15Z</time>
      </trkpt>
      <trkpt lat="48.42129" lon="2.13885">
        <ele>127</ele>
        <time>2011-04-15T12:46:16Z</time>
      </trkpt>
      <trkpt lat="48.4213" lon="2.13889">
        <ele>127</ele>
        <time>2011-04-15T12:46:17Z</time>
      </trkpt>
      <trkpt lat="48.4213" lon="2.13894">
        <ele>127</ele>
        <time>2011-04-15T12:46:18Z</time>
      </trkpt>
      <trkpt lat="48.4213" lon="2.13898">
        <ele>127</ele>
        <time>2011-04-15T12:46:19Z</time>
      </trkpt>
      <trkpt lat="48.42131" lon="2.13901">
        <ele>127</ele>
        <time>2011-04-15T12:46:20Z</time>
      </trkpt>
      <trkpt lat="48.42131" lon="2.13905">
        <ele>127</ele>
        <time>2011-04-15T12:46:21Z</time>
      </trkpt>
      <trkpt lat="48.42131" lon="2.13908">
        <ele>127</ele>
        <time>2011-04-15T12:46:22Z</time>
      </trkpt>
      <trkpt lat="48.42131" lon="2.13912">
        <ele>127</ele>
        <time>2011-04-15T12:46:23Z</time>
      </trkpt>
      <trkpt lat="48.42131" lon="2.13914">
        <ele>127</ele>
        <time>2011-04-15T12:46:24Z</time>
      </trkpt>
      <trkpt lat="48.42131" lon="2.13917">
        <ele>127</ele>
        <time>2011-04-15T12:46:25Z</time>
      </trkpt>
      <trkpt lat="48.42131" lon="2.13919">
        <ele>127</ele>
        <time>2011-04-15T12:46:26Z</time>
      </trkpt>
      <trkpt lat="48.42131" lon="2.13921">
        <ele>127</ele>
        <time>2011-04-15T12:46:27Z</time>
      </trkpt>
      <trkpt lat="48.42131" lon="2.13923">
        <ele>127</ele>
        <time>2011-04-15T12:46:28Z</time>
      </trkpt>
      <trkpt lat="48.42131" lon="2.13925">
        <ele>127</ele>
        <time>2011-04-15T12:46:29Z</time>
      </trkpt>
      <trkpt lat="48.42131" lon="2.13927">
        <ele>127</ele>
        <time>2011-04-15T12:46:30Z</time>
      </trkpt>
      <trkpt lat="48.42131" lon="2.13929">
        <ele>127</ele>
        <time>2011-04-15T12:46:31Z</time>
      </trkpt>
      <trkpt lat="48.4213" lon="2.13931">
        <ele>127</ele>
        <time>2011-04-15T12:46:32Z</time>
      </trkpt>
      <trkpt lat="48.4213" lon="2.13933">
        <ele>127</ele>
        <time>2011-04-15T12:46:33Z</time>
      </trkpt>
      <trkpt lat="48.4213" lon="2.13936">
        <ele>127</ele>
        <time>2011-04-15T12:46:34Z</time>
      </trkpt>
      <trkpt lat="48.42129" lon="2.13938">
        <ele>127</ele>
        <time>2011-04-15T12:46:35Z</time>
      </trkpt>
      <trkpt lat="48.42129" lon="2.1394">
        <ele>127</ele>
        <time>2011-04-15T12:46:36Z</time>
      </trkpt>
      <trkpt lat="48.42129" lon="2.13942">
        <ele>127</ele>
        <time>2011-04-15T12:46:37Z</time>
      </trkpt>
      <trkpt lat="48.42129" lon="2.13945">
        <ele>127</ele>
        <time>2011-04-15T12:46:38Z</time>
      </trkpt>
      <trkpt lat="48.42128" lon="2.13947">
        <ele>127</ele>
        <time>2011-04-15T12:46:39Z</time>
      </trkpt>
      <trkpt lat="48.42128" lon="2.13949">
        <ele>127</ele>
        <time>2011-04-15T12:46:40Z</time>
      </trkpt>
      <trkpt lat="48.42128" lon="2.13951">
        <ele>127</ele>
        <time>2011-04-15T12:46:41Z</time>
      </trkpt>
      <trkpt lat="48.42128" lon="2.13953">
        <ele>127</ele>
        <time>2011-04-15T12:46:42Z</time>
      </trkpt>
      <trkpt lat="48.42127" lon="2.13955">
        <ele>127</ele>
        <time>2011-04-15T12:46:43Z</time>
      </trkpt>
      <trkpt lat="48.42127" lon="2.13957">
        <ele>127</ele>
        <time>2011-04-15T12:46:44Z</time>
      </trkpt>
      <trkpt lat="48.42127" lon="2.13959">
        <ele>127</ele>
        <time>2011-04-15T12:46:45Z</time>
      </trkpt>
      <trkpt lat="48.42127" lon="2.13961">
        <ele>127</ele>
        <time>2011-04-15T12:46:46Z</time>
      </trkpt>
      <trkpt lat="48.42127" lon="2.13963">
        <ele>127</ele>
        <time>2011-04-15T12:46:47Z</time>
      </trkpt>
      <trkpt lat="48.42126" lon="2.13966">
        <ele>127</ele>
        <time>2011-04-15T12:46:48Z</time>
      </trkpt>
      <trkpt lat="48.42126" lon="2.13969">
        <ele>127</ele>
        <time>2011-04-15T12:46:49Z</time>
      </trkpt>
      <trkpt lat="48.42125" lon="2.13972">
        <ele>127</ele>
        <time>2011-04-15T12:46:50Z</time>
      </trkpt>
      <trkpt lat="48.42125" lon="2.13975">
        <ele>127</ele>
        <time>2011-04-15T12:46:51Z</time>
      </trkpt>
      <trkpt lat="48.42125" lon="2.13977">
        <ele>127</ele>
        <time>2011-04-15T12:46:52Z</time>
      </trkpt>
      <trkpt lat="48.42125" lon="2.1398">
        <ele>127</ele>
        <time>2011-04-15T12:46:53Z</time>
      </trkpt>
      <trkpt lat="48.42125" lon="2.13982">
        <ele>127</ele>
        <time>2011-04-15T12:46:54Z</time>
      </trkpt>
      <trkpt lat="48.42124" lon="2.13984">
        <ele>127</ele>
        <time>2011-04-15T12:46:55Z</time>
      </trkpt>
      <trkpt lat="48.42124" lon="2.13986">
        <ele>127</ele>
        <time>2011-04-15T12:46:56Z</time>
      </trkpt>
      <trkpt lat="48.42125" lon="2.13988">
        <ele>127</ele>
        <time>2011-04-15T12:46:57Z</time>
      </trkpt>
      <trkpt lat="48.42125" lon="2.1399">
        <ele>127</ele>
        <time>2011-04-15T12:46:58Z</time>
      </trkpt>
      <trkpt lat="48.42124" lon="2.13992">
        <ele>127</ele>
        <time>2011-04-15T12:46:59Z</time>
      </trkpt>
      <trkpt lat="48.42124" lon="2.13994">
        <ele>127</ele>
        <time>2011-04-15T12:47:00Z</time>
      </trkpt>
      <trkpt lat="48.42124" lon="2.13996">
        <ele>127</ele>
        <time>2011-04-15T12:47:01Z</time>
      </trkpt>
      <trkpt lat="48.42124" lon="2.13999">
        <ele>127</ele>
        <time>2011-04-15T12:47:02Z</time>
      </trkpt>
      <trkpt lat="48.42123" lon="2.14001">
        <ele>127</ele>
        <time>2011-04-15T12:47:03Z</time>
      </trkpt>
      <trkpt lat="48.42123" lon="2.14004">
        <ele>127</ele>
        <time>2011-04-15T12:47:04Z</time>
      </trkpt>
      <trkpt lat="48.42122" lon="2.14007">
        <ele>128</ele>
        <time>2011-04-15T12:47:05Z</time>
      </trkpt>
      <trkpt lat="48.42122" lon="2.1401">
        <ele>128</ele>
        <time>2011-04-15T12:47:06Z</time>
      </trkpt>
      <trkpt lat="48.42121" lon="2.14014">
        <ele>128</ele>
        <time>2011-04-15T12:47:07Z</time>
      </trkpt>
      <trkpt lat="48.42121" lon="2.14017">
        <ele>128</ele>
        <time>2011-04-15T12:47:08Z</time>
      </trkpt>
      <trkpt lat="48.42121" lon="2.14019">
        <ele>128</ele>
        <time>2011-04-15T12:47:09Z</time>
      </trkpt>
      <trkpt lat="48.4212" lon="2.14022">
        <ele>128</ele>
        <time>2011-04-15T12:47:10Z</time>
      </trkpt>
      <trkpt lat="48.4212" lon="2.14024">
        <ele>128</ele>
        <time>2011-04-15T12:47:11Z</time>
      </trkpt>
      <trkpt lat="48.4212" lon="2.14026">
        <ele>128</ele>
        <time>2011-04-15T12:47:12Z</time>
      </trkpt>
      <trkpt lat="48.42119" lon="2.14028">
        <ele>128</ele>
        <time>2011-04-15T12:47:13Z</time>
      </trkpt>
      <trkpt lat="48.42119" lon="2.1403">
        <ele>128</ele>
        <time>2011-04-15T12:47:14Z</time>
      </trkpt>
      <trkpt lat="48.42119" lon="2.14033">
        <ele>128</ele>
        <time>2011-04-15T12:47:15Z</time>
      </trkpt>
      <trkpt lat="48.42119" lon="2.14035">
        <ele>128</ele>
        <time>2011-04-15T12:47:16Z</time>
      </trkpt>
      <trkpt lat="48.42118" lon="2.14037">
        <ele>128</ele>
        <time>2011-04-15T12:47:17Z</time>
      </trkpt>
      <trkpt lat="48.42118" lon="2.14039">
        <ele>128</ele>
        <time>2011-04-15T12:47:18Z</time>
      </trkpt>
      <trkpt lat="48.42118" lon="2.14042">
        <ele>128</ele>
        <time>2011-04-15T12:47:19Z</time>
      </trkpt>
      <trkpt lat="48.42118" lon="2.14044">
        <ele>128</ele>
        <time>2011-04-15T12:47:20Z</time>
      </trkpt>
      <trkpt lat="48.42118" lon="2.14046">
        <ele>128</ele>
        <time>2011-04-15T12:47:21Z</time>
      </trkpt>
      <trkpt lat="48.42118" lon="2.14048">
        <ele>128</ele>
        <time>2011-04-15T12:47:22Z</time>
      </trkpt>
      <trkpt lat="48.42118" lon="2.1405">
        <ele>128</ele>
        <time>2011-04-15T12:47:23Z</time>
      </trkpt>
      <trkpt lat="48.42118" lon="2.14053">
        <ele>128</ele>
        <time>2011-04-15T12:47:24Z</time>
      </trkpt>
      <trkpt lat="48.42117" lon="2.14055">
        <ele>128</ele>
        <time>2011-04-15T12:47:25Z</time>
      </trkpt>
      <trkpt lat="48.42117" lon="2.14057">
        <ele>128</ele>
        <time>2011-04-15T12:47:26Z</time>
      </trkpt>
      <trkpt lat="48.42117" lon="2.1406">
        <ele>128</ele>
        <time>2011-04-15T12:47:27Z</time>
      </trkpt>
      <trkpt lat="48.42117" lon="2.14062">
        <ele>128</ele>
        <time>2011-04-15T12:47:28Z</time>
      </trkpt>
      <trkpt lat="48.42117" lon="2.14065">
        <ele>128</ele>
        <time>2011-04-15T12:47:29Z</time>
      </trkpt>
      <trkpt lat="48.42117" lon="2.14068">
        <ele>128</ele>
        <time>2011-04-15T12:47:30Z</time>
      </trkpt>
      <trkpt lat="48.42117" lon="2.1407">
        <ele>128</ele>
        <time>2011-04-15T12:47:31Z</time>
      </trkpt>
      <trkpt lat="48.42117" lon="2.14073">
        <ele>128</ele>
        <time>2011-04-15T12:47:32Z</time>
      </trkpt>
      <trkpt lat="48.42117" lon="2.14075">
        <ele>128</ele>
        <time>2011-04-15T12:47:33Z</time>
      </trkpt>
      <trkpt lat="48.42117" lon="2.14078">
        <ele>128</ele>
        <time>2011-04-15T12:47:34Z</time>
      </trkpt>
      <trkpt lat="48.42117" lon="2.1408">
        <ele>128</ele>
        <time>2011-04-15T12:47:35Z</time>
      </trkpt>
      <trkpt lat="48.42117" lon="2.14083">
        <ele>128</ele>
        <time>2011-04-15T12:47:36Z</time>
      </trkpt>
      <trkpt lat="48.42118" lon="2.14085">
        <ele>128</ele>
        <time>2011-04-15T12:47:37Z</time>
      </trkpt>
      <trkpt lat="48.42118" lon="2.14088">
        <ele>128</ele>
        <time>2011-04-15T12:47:38Z</time>
      </trkpt>
      <trkpt lat="48.42118" lon="2.14092">
        <ele>128</ele>
        <time>2011-04-15T12:47:39Z</time>
      </trkpt>
      <trkpt lat="48.42118" lon="2.14095">
        <ele>128</ele>
        <time>2011-04-15T12:47:40Z</time>
      </trkpt>
      <trkpt lat="48.42117" lon="2.14098">
        <ele>128</ele>
        <time>2011-04-15T12:47:41Z</time>
      </trkpt>
      <trkpt lat="48.42117" lon="2.14101">
        <ele>128</ele>
        <time>2011-04-15T12:47:42Z</time>
      </trkpt>
      <trkpt lat="48.42117" lon="2.14103">
        <ele>128</ele>
        <time>2011-04-15T12:47:43Z</time>
      </trkpt>
      <trkpt lat="48.42116" lon="2.14105">
        <ele>128</ele>
        <time>2011-04-15T12:47:44Z</time>
      </trkpt>
      <trkpt lat="48.42116" lon="2.14107">
        <ele>128</ele>
        <time>2011-04-15T12:47:45Z</time>
      </trkpt>
      <trkpt lat="48.42114" lon="2.14109">
        <ele>128</ele>
        <time>2011-04-15T12:47:47Z</time>
      </trkpt>
      <trkpt lat="48.42112" lon="2.14111">
        <ele>128</ele>
        <time>2011-04-15T12:47:49Z</time>
      </trkpt>
      <trkpt lat="48.4211" lon="2.14112">
        <ele>128</ele>
        <time>2011-04-15T12:47:50Z</time>
      </trkpt>
      <trkpt lat="48.42109" lon="2.14112">
        <ele>128</ele>
        <time>2011-04-15T12:47:51Z</time>
      </trkpt>
      <trkpt lat="48.42107" lon="2.14111">
        <ele>128</ele>
        <time>2011-04-15T12:47:52Z</time>
      </trkpt>
      <trkpt lat="48.42106" lon="2.1411">
        <ele>128</ele>
        <time>2011-04-15T12:47:53Z</time>
      </trkpt>
      <trkpt lat="48.42104" lon="2.1411">
        <ele>128</ele>
        <time>2011-04-15T12:47:54Z</time>
      </trkpt>
      <trkpt lat="48.42103" lon="2.14109">
        <ele>128</ele>
        <time>2011-04-15T12:47:55Z</time>
      </trkpt>
      <trkpt lat="48.42101" lon="2.14108">
        <ele>128</ele>
        <time>2011-04-15T12:47:56Z</time>
      </trkpt>
      <trkpt lat="48.421" lon="2.14108">
        <ele>128</ele>
        <time>2011-04-15T12:47:57Z</time>
      </trkpt>
      <trkpt lat="48.42099" lon="2.14108">
        <ele>128</ele>
        <time>2011-04-15T12:47:58Z</time>
      </trkpt>
      <trkpt lat="48.42097" lon="2.14108">
        <ele>128</ele>
        <time>2011-04-15T12:47:59Z</time>
      </trkpt>
      <trkpt lat="48.42095" lon="2.14107">
        <ele>128</ele>
        <time>2011-04-15T12:48:00Z</time>
      </trkpt>
      <trkpt lat="48.42094" lon="2.14107">
        <ele>128</ele>
        <time>2011-04-15T12:48:01Z</time>
      </trkpt>
      <trkpt lat="48.42092" lon="2.14106">
        <ele>128</ele>
        <time>2011-04-15T12:48:02Z</time>
      </trkpt>
      <trkpt lat="48.42091" lon="2.14105">
        <ele>128</ele>
        <time>2011-04-15T12:48:03Z</time>
      </trkpt>
      <trkpt lat="48.4209" lon="2.14104">
        <ele>128</ele>
        <time>2011-04-15T12:48:04Z</time>
      </trkpt>
      <trkpt lat="48.42089" lon="2.14103">
        <ele>128</ele>
        <time>2011-04-15T12:48:05Z</time>
      </trkpt>
      <trkpt lat="48.42087" lon="2.14102">
        <ele>128</ele>
        <time>2011-04-15T12:48:06Z</time>
      </trkpt>
      <trkpt lat="48.42086" lon="2.141">
        <ele>128</ele>
        <time>2011-04-15T12:48:07Z</time>
      </trkpt>
      <trkpt lat="48.42085" lon="2.14099">
        <ele>128</ele>
        <time>2011-04-15T12:48:08Z</time>
      </trkpt>
      <trkpt lat="48.42083" lon="2.14098">
        <ele>128</ele>
        <time>2011-04-15T12:48:09Z</time>
      </trkpt>
      <trkpt lat="48.42082" lon="2.14097">
        <ele>128</ele>
        <time>2011-04-15T12:48:10Z</time>
      </trkpt>
      <trkpt lat="48.42081" lon="2.14096">
        <ele>128</ele>
        <time>2011-04-15T12:48:11Z</time>
      </trkpt>
      <trkpt lat="48.42079" lon="2.14095">
        <ele>128</ele>
        <time>2011-04-15T12:48:12Z</time>
      </trkpt>
      <trkpt lat="48.42077" lon="2.14094">
        <ele>128</ele>
        <time>2011-04-15T12:48:13Z</time>
      </trkpt>
      <trkpt lat="48.42075" lon="2.14092">
        <ele>128</ele>
        <time>2011-04-15T12:48:14Z</time>
      </trkpt>
      <trkpt lat="48.42072" lon="2.14091">
        <ele>128</ele>
        <time>2011-04-15T12:48:15Z</time>
      </trkpt>
      <trkpt lat="48.42069" lon="2.14089">
        <ele>128</ele>
        <time>2011-04-15T12:48:16Z</time>
      </trkpt>
      <trkpt lat="48.42066" lon="2.14088">
        <ele>128</ele>
        <time>2011-04-15T12:48:17Z</time>
      </trkpt>
      <trkpt lat="48.42064" lon="2.14087">
        <ele>128</ele>
        <time>2011-04-15T12:48:18Z</time>
      </trkpt>
      <trkpt lat="48.42061" lon="2.14085">
        <ele>128</ele>
        <time>2011-04-15T12:48:19Z</time>
      </trkpt>
      <trkpt lat="48.42059" lon="2.14083">
        <ele>128</ele>
        <time>2011-04-15T12:48:20Z</time>
      </trkpt>
      <trkpt lat="48.42057" lon="2.14082">
        <ele>128</ele>
        <time>2011-04-15T12:48:21Z</time>
      </trkpt>
      <trkpt lat="48.42055" lon="2.14081">
        <ele>128</ele>
        <time>2011-04-15T12:48:22Z</time>
      </trkpt>
      <trkpt lat="48.42054" lon="2.1408">
        <ele>128</ele>
        <time>2011-04-15T12:48:23Z</time>
      </trkpt>
      <trkpt lat="48.42052" lon="2.14079">
        <ele>128</ele>
        <time>2011-04-15T12:48:24Z</time>
      </trkpt>
      <trkpt lat="48.42051" lon="2.14078">
        <ele>128</ele>
        <time>2011-04-15T12:48:25Z</time>
      </trkpt>
      <trkpt lat="48.4205" lon="2.14078">
        <ele>128</ele>
        <time>2011-04-15T12:48:26Z</time>
      </trkpt>
      <trkpt lat="48.42048" lon="2.14077">
        <ele>128</ele>
        <time>2011-04-15T12:48:27Z</time>
      </trkpt>
      <trkpt lat="48.42047" lon="2.14076">
        <ele>128</ele>
        <time>2011-04-15T12:48:28Z</time>
      </trkpt>
      <trkpt lat="48.42046" lon="2.14075">
        <ele>128</ele>
        <time>2011-04-15T12:48:29Z</time>
      </trkpt>
      <trkpt lat="48.42044" lon="2.14074">
        <ele>128</ele>
        <time>2011-04-15T12:48:30Z</time>
      </trkpt>
      <trkpt lat="48.42042" lon="2.14073">
        <ele>128</ele>
        <time>2011-04-15T12:48:31Z</time>
      </trkpt>
      <trkpt lat="48.42041" lon="2.14072">
        <ele>128</ele>
        <time>2011-04-15T12:48:32Z</time>
      </trkpt>
      <trkpt lat="48.42039" lon="2.14072">
        <ele>128</ele>
        <time>2011-04-15T12:48:33Z</time>
      </trkpt>
      <trkpt lat="48.42038" lon="2.14071">
        <ele>128</ele>
        <time>2011-04-15T12:48:34Z</time>
      </trkpt>
      <trkpt lat="48.42037" lon="2.1407">
        <ele>128</ele>
        <time>2011-04-15T12:48:35Z</time>
      </trkpt>
      <trkpt lat="48.42035" lon="2.14069">
        <ele>128</ele>
        <time>2011-04-15T12:48:36Z</time>
      </trkpt>
      <trkpt lat="48.42034" lon="2.14068">
        <ele>128</ele>
        <time>2011-04-15T12:48:37Z</time>
      </trkpt>
      <trkpt lat="48.42033" lon="2.14068">
        <ele>128</ele>
        <time>2011-04-15T12:48:38Z</time>
      </trkpt>
      <trkpt lat="48.42031" lon="2.14067">
        <ele>128</ele>
        <time>2011-04-15T12:48:39Z</time>
      </trkpt>
      <trkpt lat="48.4203" lon="2.14066">
        <ele>128</ele>
        <time>2011-04-15T12:48:40Z</time>
      </trkpt>
      <trkpt lat="48.42029" lon="2.14065">
        <ele>128</ele>
        <time>2011-04-15T12:48:41Z</time>
      </trkpt>
      <trkpt lat="48.42028" lon="2.14065">
        <ele>128</ele>
        <time>2011-04-15T12:48:42Z</time>
      </trkpt>
      <trkpt lat="48.42026" lon="2.14065">
        <ele>128</ele>
        <time>2011-04-15T12:48:43Z</time>
      </trkpt>
      <trkpt lat="48.42025" lon="2.14064">
        <ele>128</ele>
        <time>2011-04-15T12:48:44Z</time>
      </trkpt>
      <trkpt lat="48.42024" lon="2.14064">
        <ele>128</ele>
        <time>2011-04-15T12:48:45Z</time>
      </trkpt>
      <trkpt lat="48.42022" lon="2.14063">
        <ele>128</ele>
        <time>2011-04-15T12:48:46Z</time>
      </trkpt>
      <trkpt lat="48.42021" lon="2.14062">
        <ele>128</ele>
        <time>2011-04-15T12:48:47Z</time>
      </trkpt>
      <trkpt lat="48.4202" lon="2.14062">
        <ele>128</ele>
        <time>2011-04-15T12:48:48Z</time>
      </trkpt>
      <trkpt lat="48.42018" lon="2.14061">
        <ele>128</ele>
        <time>2011-04-15T12:48:49Z</time>
      </trkpt>
      <trkpt lat="48.42017" lon="2.1406">
        <ele>128</ele>
        <time>2011-04-15T12:48:50Z</time>
      </trkpt>
      <trkpt lat="48.42016" lon="2.14059">
        <ele>128</ele>
        <time>2011-04-15T12:48:51Z</time>
      </trkpt>
      <trkpt lat="48.42014" lon="2.14058">
        <ele>129</ele>
        <time>2011-04-15T12:48:52Z</time>
      </trkpt>
      <trkpt lat="48.42013" lon="2.14057">
        <ele>129</ele>
        <time>2011-04-15T12:48:53Z</time>
      </trkpt>
      <trkpt lat="48.42012" lon="2.14056">
        <ele>129</ele>
        <time>2011-04-15T12:48:54Z</time>
      </trkpt>
      <trkpt lat="48.4201" lon="2.14056">
        <ele>129</ele>
        <time>2011-04-15T12:48:55Z</time>
      </trkpt>
      <trkpt lat="48.42009" lon="2.14055">
        <ele>129</ele>
        <time>2011-04-15T12:48:56Z</time>
      </trkpt>
      <trkpt lat="48.42008" lon="2.14054">
        <ele>129</ele>
        <time>2011-04-15T12:48:57Z</time>
      </trkpt>
      <trkpt lat="48.42007" lon="2.14053">
        <ele>129</ele>
        <time>2011-04-15T12:48:58Z</time>
      </trkpt>
      <trkpt lat="48.42005" lon="2.14052">
        <ele>129</ele>
        <time>2011-04-15T12:48:59Z</time>
      </trkpt>
      <trkpt lat="48.42004" lon="2.14051">
        <ele>129</ele>
        <time>2011-04-15T12:49:00Z</time>
      </trkpt>
      <trkpt lat="48.42003" lon="2.14051">
        <ele>129</ele>
        <time>2011-04-15T12:49:01Z</time>
      </trkpt>
      <trkpt lat="48.42001" lon="2.1405">
        <ele>129</ele>
        <time>2011-04-15T12:49:02Z</time>
      </trkpt>
      <trkpt lat="48.42" lon="2.14049">
        <ele>130</ele>
        <time>2011-04-15T12:49:03Z</time>
      </trkpt>
      <trkpt lat="48.41999" lon="2.14048">
        <ele>130</ele>
        <time>2011-04-15T12:49:04Z</time>
      </trkpt>
      <trkpt lat="48.41997" lon="2.14047">
        <ele>130</ele>
        <time>2011-04-15T12:49:05Z</time>
      </trkpt>
      <trkpt lat="48.41996" lon="2.14047">
        <ele>130</ele>
        <time>2011-04-15T12:49:06Z</time>
      </trkpt>
      <trkpt lat="48.41995" lon="2.14046">
        <ele>130</ele>
        <time>2011-04-15T12:49:07Z</time>
      </trkpt>
      <trkpt lat="48.41994" lon="2.14045">
        <ele>130</ele>
        <time>2011-04-15T12:49:08Z</time>
      </trkpt>
      <trkpt lat="48.41992" lon="2.14044">
        <ele>130</ele>
        <time>2011-04-15T12:49:09Z</time>
      </trkpt>
      <trkpt lat="48.41991" lon="2.14044">
        <ele>130</ele>
        <time>2011-04-15T12:49:10Z</time>
      </trkpt>
      <trkpt lat="48.4199" lon="2.14043">
        <ele>130</ele>
        <time>2011-04-15T12:49:11Z</time>
      </trkpt>
      <trkpt lat="48.41988" lon="2.14041">
        <ele>130</ele>
        <time>2011-04-15T12:49:12Z</time>
      </trkpt>
      <trkpt lat="48.41986" lon="2.1404">
        <ele>130</ele>
        <time>2011-04-15T12:49:13Z</time>
      </trkpt>
      <trkpt lat="48.41984" lon="2.14039">
        <ele>130</ele>
        <time>2011-04-15T12:49:14Z</time>
      </trkpt>
      <trkpt lat="48.41983" lon="2.14038">
        <ele>130</ele>
        <time>2011-04-15T12:49:15Z</time>
      </trkpt>
      <trkpt lat="48.41981" lon="2.14037">
        <ele>131</ele>
        <time>2011-04-15T12:49:16Z</time>
      </trkpt>
      <trkpt lat="48.4198" lon="2.14036">
        <ele>131</ele>
        <time>2011-04-15T12:49:17Z</time>
      </trkpt>
      <trkpt lat="48.41979" lon="2.14035">
        <ele>131</ele>
        <time>2011-04-15T12:49:18Z</time>
      </trkpt>
      <trkpt lat="48.41977" lon="2.14035">
        <ele>131</ele>
        <time>2011-04-15T12:49:19Z</time>
      </trkpt>
      <trkpt lat="48.41976" lon="2.14033">
        <ele>131</ele>
        <time>2011-04-15T12:49:20Z</time>
      </trkpt>
      <trkpt lat="48.41974" lon="2.14032">
        <ele>131</ele>
        <time>2011-04-15T12:49:21Z</time>
      </trkpt>
      <trkpt lat="48.41973" lon="2.14031">
        <ele>131</ele>
        <time>2011-04-15T12:49:22Z</time>
      </trkpt>
      <trkpt lat="48.41971" lon="2.14031">
        <ele>131</ele>
        <time>2011-04-15T12:49:23Z</time>
      </trkpt>
      <trkpt lat="48.4197" lon="2.14031">
        <ele>131</ele>
        <time>2011-04-15T12:49:24Z</time>
      </trkpt>
      <trkpt lat="48.41968" lon="2.1403">
        <ele>131</ele>
        <time>2011-04-15T12:49:25Z</time>
      </trkpt>
      <trkpt lat="48.41967" lon="2.14029">
        <ele>131</ele>
        <time>2011-04-15T12:49:26Z</time>
      </trkpt>
      <trkpt lat="48.41966" lon="2.14028">
        <ele>131</ele>
        <time>2011-04-15T12:49:27Z</time>
      </trkpt>
      <trkpt lat="48.41964" lon="2.14027">
        <ele>132</ele>
        <time>2011-04-15T12:49:28Z</time>
      </trkpt>
      <trkpt lat="48.41962" lon="2.14026">
        <ele>132</ele>
        <time>2011-04-15T12:49:29Z</time>
      </trkpt>
      <trkpt lat="48.41961" lon="2.14024">
        <ele>132</ele>
        <time>2011-04-15T12:49:30Z</time>
      </trkpt>
      <trkpt lat="48.4196" lon="2.14024">
        <ele>132</ele>
        <time>2011-04-15T12:49:31Z</time>
      </trkpt>
      <trkpt lat="48.41958" lon="2.14023">
        <ele>132</ele>
        <time>2011-04-15T12:49:32Z</time>
      </trkpt>
      <trkpt lat="48.41957" lon="2.14023">
        <ele>133</ele>
        <time>2011-04-15T12:49:33Z</time>
      </trkpt>
      <trkpt lat="48.41955" lon="2.14022">
        <ele>133</ele>
        <time>2011-04-15T12:49:34Z</time>
      </trkpt>
      <trkpt lat="48.41954" lon="2.14021">
        <ele>133</ele>
        <time>2011-04-15T12:49:35Z</time>
      </trkpt>
      <trkpt lat="48.41953" lon="2.1402">
        <ele>133</ele>
        <time>2011-04-15T12:49:36Z</time>
      </trkpt>
      <trkpt lat="48.41951" lon="2.14019">
        <ele>133</ele>
        <time>2011-04-15T12:49:37Z</time>
      </trkpt>
      <trkpt lat="48.4195" lon="2.14018">
        <ele>133</ele>
        <time>2011-04-15T12:49:38Z</time>
      </trkpt>
      <trkpt lat="48.41949" lon="2.14017">
        <ele>133</ele>
        <time>2011-04-15T12:49:39Z</time>
      </trkpt>
      <trkpt lat="48.41947" lon="2.14017">
        <ele>133</ele>
        <time>2011-04-15T12:49:40Z</time>
      </trkpt>
      <trkpt lat="48.41946" lon="2.14016">
        <ele>133</ele>
        <time>2011-04-15T12:49:41Z</time>
      </trkpt>
      <trkpt lat="48.41945" lon="2.14014">
        <ele>133</ele>
        <time>2011-04-15T12:49:42Z</time>
      </trkpt>
      <trkpt lat="48.41944" lon="2.14013">
        <ele>133</ele>
        <time>2011-04-15T12:49:43Z</time>
      </trkpt>
      <trkpt lat="48.41943" lon="2.14013">
        <ele>133</ele>
        <time>2011-04-15T12:49:44Z</time>
      </trkpt>
      <trkpt lat="48.41941" lon="2.14012">
        <ele>133</ele>
        <time>2011-04-15T12:49:45Z</time>
      </trkpt>
      <trkpt lat="48.4194" lon="2.14011">
        <ele>134</ele>
        <time>2011-04-15T12:49:46Z</time>
      </trkpt>
      <trkpt lat="48.41939" lon="2.1401">
        <ele>134</ele>
        <time>2011-04-15T12:49:47Z</time>
      </trkpt>
      <trkpt lat="48.41937" lon="2.1401">
        <ele>134</ele>
        <time>2011-04-15T12:49:48Z</time>
      </trkpt>
      <trkpt lat="48.41936" lon="2.14009">
        <ele>134</ele>
        <time>2011-04-15T12:49:49Z</time>
      </trkpt>
      <trkpt lat="48.41935" lon="2.14008">
        <ele>134</ele>
        <time>2011-04-15T12:49:50Z</time>
      </trkpt>
      <trkpt lat="48.41933" lon="2.14006">
        <ele>134</ele>
        <time>2011-04-15T12:49:52Z</time>
      </trkpt>
      <trkpt lat="48.41931" lon="2.14006">
        <ele>134</ele>
        <time>2011-04-15T12:49:53Z</time>
      </trkpt>
      <trkpt lat="48.4193" lon="2.14005">
        <ele>134</ele>
        <time>2011-04-15T12:49:54Z</time>
      </trkpt>
      <trkpt lat="48.41929" lon="2.14005">
        <ele>134</ele>
        <time>2011-04-15T12:49:55Z</time>
      </trkpt>
      <trkpt lat="48.41927" lon="2.14005">
        <ele>134</ele>
        <time>2011-04-15T12:49:56Z</time>
      </trkpt>
      <trkpt lat="48.41926" lon="2.14004">
        <ele>134</ele>
        <time>2011-04-15T12:49:57Z</time>
      </trkpt>
      <trkpt lat="48.41925" lon="2.14003">
        <ele>134</ele>
        <time>2011-04-15T12:49:58Z</time>
      </trkpt>
      <trkpt lat="48.41924" lon="2.14003">
        <ele>134</ele>
        <time>2011-04-15T12:49:59Z</time>
      </trkpt>
      <trkpt lat="48.41922" lon="2.14003">
        <ele>134</ele>
        <time>2011-04-15T12:50:00Z</time>
      </trkpt>
      <trkpt lat="48.41921" lon="2.14003">
        <ele>134</ele>
        <time>2011-04-15T12:50:01Z</time>
      </trkpt>
      <trkpt lat="48.4192" lon="2.14003">
        <ele>134</ele>
        <time>2011-04-15T12:50:02Z</time>
      </trkpt>
      <trkpt lat="48.41919" lon="2.14002">
        <ele>134</ele>
        <time>2011-04-15T12:50:03Z</time>
      </trkpt>
      <trkpt lat="48.41917" lon="2.14002">
        <ele>134</ele>
        <time>2011-04-15T12:50:04Z</time>
      </trkpt>
      <trkpt lat="48.41916" lon="2.14002">
        <ele>134</ele>
        <time>2011-04-15T12:50:05Z</time>
      </trkpt>
      <trkpt lat="48.41915" lon="2.14001">
        <ele>134</ele>
        <time>2011-04-15T12:50:06Z</time>
      </trkpt>
      <trkpt lat="48.41913" lon="2.14001">
        <ele>134</ele>
        <time>2011-04-15T12:50:07Z</time>
      </trkpt>
      <trkpt lat="48.41912" lon="2.14001">
        <ele>134</ele>
        <time>2011-04-15T12:50:08Z</time>
      </trkpt>
      <trkpt lat="48.41911" lon="2.14001">
        <ele>134</ele>
        <time>2011-04-15T12:50:09Z</time>
      </trkpt>
      <trkpt lat="48.41909" lon="2.14001">
        <ele>134</ele>
        <time>2011-04-15T12:50:10Z</time>
      </trkpt>
      <trkpt lat="48.41908" lon="2.14001">
        <ele>134</ele>
        <time>2011-04-15T12:50:11Z</time>
      </trkpt>
      <trkpt lat="48.41906" lon="2.14001">
        <ele>134</ele>
        <time>2011-04-15T12:50:12Z</time>
      </trkpt>
      <trkpt lat="48.41905" lon="2.14001">
        <ele>134</ele>
        <time>2011-04-15T12:50:13Z</time>
      </trkpt>
      <trkpt lat="48.41903" lon="2.14">
        <ele>134</ele>
        <time>2011-04-15T12:50:14Z</time>
      </trkpt>
      <trkpt lat="48.41901" lon="2.13999">
        <ele>134</ele>
        <time>2011-04-15T12:50:15Z</time>
      </trkpt>
      <trkpt lat="48.419" lon="2.13999">
        <ele>134</ele>
        <time>2011-04-15T12:50:16Z</time>
      </trkpt>
      <trkpt lat="48.41898" lon="2.13999">
        <ele>134</ele>
        <time>2011-04-15T12:50:17Z</time>
      </trkpt>
      <trkpt lat="48.41897" lon="2.13998">
        <ele>134</ele>
        <time>2011-04-15T12:50:18Z</time>
      </trkpt>
      <trkpt lat="48.41895" lon="2.13998">
        <ele>134</ele>
        <time>2011-04-15T12:50:19Z</time>
      </trkpt>
      <trkpt lat="48.41893" lon="2.13997">
        <ele>134</ele>
        <time>2011-04-15T12:50:20Z</time>
      </trkpt>
      <trkpt lat="48.41892" lon="2.13997">
        <ele>134</ele>
        <time>2011-04-15T12:50:21Z</time>
      </trkpt>
      <trkpt lat="48.4189" lon="2.13996">
        <ele>134</ele>
        <time>2011-04-15T12:50:22Z</time>
      </trkpt>
      <trkpt lat="48.41888" lon="2.13995">
        <ele>133</ele>
        <time>2011-04-15T12:50:23Z</time>
      </trkpt>
      <trkpt lat="48.41886" lon="2.13994">
        <ele>133</ele>
        <time>2011-04-15T12:50:24Z</time>
      </trkpt>
      <trkpt lat="48.41883" lon="2.13992">
        <ele>133</ele>
        <time>2011-04-15T12:50:25Z</time>
      </trkpt>
      <trkpt lat="48.4188" lon="2.1399">
        <ele>133</ele>
        <time>2011-04-15T12:50:26Z</time>
      </trkpt>
      <trkpt lat="48.41877" lon="2.13988">
        <ele>133</ele>
        <time>2011-04-15T12:50:27Z</time>
      </trkpt>
      <trkpt lat="48.41873" lon="2.13986">
        <ele>133</ele>
        <time>2011-04-15T12:50:28Z</time>
      </trkpt>
      <trkpt lat="48.4187" lon="2.13985">
        <ele>133</ele>
        <time>2011-04-15T12:50:29Z</time>
      </trkpt>
      <trkpt lat="48.41867" lon="2.13983">
        <ele>133</ele>
        <time>2011-04-15T12:50:30Z</time>
      </trkpt>
      <trkpt lat="48.41864" lon="2.13981">
        <ele>133</ele>
        <time>2011-04-15T12:50:31Z</time>
      </trkpt>
      <trkpt lat="48.41861" lon="2.13979">
        <ele>133</ele>
        <time>2011-04-15T12:50:32Z</time>
      </trkpt>
      <trkpt lat="48.41859" lon="2.13978">
        <ele>133</ele>
        <time>2011-04-15T12:50:33Z</time>
      </trkpt>
      <trkpt lat="48.41857" lon="2.13977">
        <ele>133</ele>
        <time>2011-04-15T12:50:34Z</time>
      </trkpt>
      <trkpt lat="48.41854" lon="2.13975">
        <ele>133</ele>
        <time>2011-04-15T12:50:35Z</time>
      </trkpt>
      <trkpt lat="48.41852" lon="2.13974">
        <ele>133</ele>
        <time>2011-04-15T12:50:36Z</time>
      </trkpt>
      <trkpt lat="48.41849" lon="2.13972">
        <ele>133</ele>
        <time>2011-04-15T12:50:37Z</time>
      </trkpt>
      <trkpt lat="48.41847" lon="2.1397">
        <ele>133</ele>
        <time>2011-04-15T12:50:38Z</time>
      </trkpt>
      <trkpt lat="48.41845" lon="2.13969">
        <ele>133</ele>
        <time>2011-04-15T12:50:39Z</time>
      </trkpt>
      <trkpt lat="48.41842" lon="2.13967">
        <ele>133</ele>
        <time>2011-04-15T12:50:40Z</time>
      </trkpt>
      <trkpt lat="48.41839" lon="2.13966">
        <ele>133</ele>
        <time>2011-04-15T12:50:41Z</time>
      </trkpt>
      <trkpt lat="48.41837" lon="2.13965">
        <ele>133</ele>
        <time>2011-04-15T12:50:42Z</time>
      </trkpt>
      <trkpt lat="48.41834" lon="2.13963">
        <ele>133</ele>
        <time>2011-04-15T12:50:43Z</time>
      </trkpt>
      <trkpt lat="48.41832" lon="2.13962">
        <ele>133</ele>
        <time>2011-04-15T12:50:44Z</time>
      </trkpt>
      <trkpt lat="48.4183" lon="2.1396">
        <ele>133</ele>
        <time>2011-04-15T12:50:45Z</time>
      </trkpt>
      <trkpt lat="48.41828" lon="2.13959">
        <ele>133</ele>
        <time>2011-04-15T12:50:46Z</time>
      </trkpt>
      <trkpt lat="48.41826" lon="2.13958">
        <ele>133</ele>
        <time>2011-04-15T12:50:47Z</time>
      </trkpt>
      <trkpt lat="48.41824" lon="2.13957">
        <ele>133</ele>
        <time>2011-04-15T12:50:48Z</time>
      </trkpt>
      <trkpt lat="48.41823" lon="2.13956">
        <ele>133</ele>
        <time>2011-04-15T12:50:49Z</time>
      </trkpt>
      <trkpt lat="48.41822" lon="2.13956">
        <ele>133</ele>
        <time>2011-04-15T12:50:50Z</time>
      </trkpt>
      <trkpt lat="48.4182" lon="2.13955">
        <ele>133</ele>
        <time>2011-04-15T12:50:51Z</time>
      </trkpt>
      <trkpt lat="48.41819" lon="2.13953">
        <ele>133</ele>
        <time>2011-04-15T12:50:52Z</time>
      </trkpt>
      <trkpt lat="48.41817" lon="2.13952">
        <ele>133</ele>
        <time>2011-04-15T12:50:53Z</time>
      </trkpt>
      <trkpt lat="48.41816" lon="2.13951">
        <ele>133</ele>
        <time>2011-04-15T12:50:54Z</time>
      </trkpt>
      <trkpt lat="48.41815" lon="2.1395">
        <ele>133</ele>
        <time>2011-04-15T12:50:55Z</time>
      </trkpt>
      <trkpt lat="48.41813" lon="2.13949">
        <ele>133</ele>
        <time>2011-04-15T12:50:56Z</time>
      </trkpt>
      <trkpt lat="48.41812" lon="2.13949">
        <ele>133</ele>
        <time>2011-04-15T12:50:57Z</time>
      </trkpt>
      <trkpt lat="48.4181" lon="2.13948">
        <ele>133</ele>
        <time>2011-04-15T12:50:58Z</time>
      </trkpt>
      <trkpt lat="48.41809" lon="2.13947">
        <ele>133</ele>
        <time>2011-04-15T12:50:59Z</time>
      </trkpt>
      <trkpt lat="48.41808" lon="2.13946">
        <ele>133</ele>
        <time>2011-04-15T12:51:00Z</time>
      </trkpt>
      <trkpt lat="48.41806" lon="2.13946">
        <ele>133</ele>
        <time>2011-04-15T12:51:01Z</time>
      </trkpt>
      <trkpt lat="48.41805" lon="2.13945">
        <ele>133</ele>
        <time>2011-04-15T12:51:02Z</time>
      </trkpt>
      <trkpt lat="48.41804" lon="2.13945">
        <ele>133</ele>
        <time>2011-04-15T12:51:03Z</time>
      </trkpt>
      <trkpt lat="48.41802" lon="2.13944">
        <ele>133</ele>
        <time>2011-04-15T12:51:04Z</time>
      </trkpt>
      <trkpt lat="48.41801" lon="2.13943">
        <ele>133</ele>
        <time>2011-04-15T12:51:05Z</time>
      </trkpt>
      <trkpt lat="48.418" lon="2.13942">
        <ele>133</ele>
        <time>2011-04-15T12:51:06Z</time>
      </trkpt>
      <trkpt lat="48.41798" lon="2.13941">
        <ele>133</ele>
        <time>2011-04-15T12:51:07Z</time>
      </trkpt>
      <trkpt lat="48.41797" lon="2.1394">
        <ele>133</ele>
        <time>2011-04-15T12:51:08Z</time>
      </trkpt>
      <trkpt lat="48.41795" lon="2.13939">
        <ele>133</ele>
        <time>2011-04-15T12:51:09Z</time>
      </trkpt>
      <trkpt lat="48.41794" lon="2.13938">
        <ele>133</ele>
        <time>2011-04-15T12:51:10Z</time>
      </trkpt>
      <trkpt lat="48.41793" lon="2.13937">
        <ele>133</ele>
        <time>2011-04-15T12:51:11Z</time>
      </trkpt>
      <trkpt lat="48.41791" lon="2.13937">
        <ele>133</ele>
        <time>2011-04-15T12:51:12Z</time>
      </trkpt>
      <trkpt lat="48.4179" lon="2.13936">
        <ele>133</ele>
        <time>2011-04-15T12:51:13Z</time>
      </trkpt>
      <trkpt lat="48.41789" lon="2.13935">
        <ele>133</ele>
        <time>2011-04-15T12:51:14Z</time>
      </trkpt>
      <trkpt lat="48.41787" lon="2.13934">
        <ele>133</ele>
        <time>2011-04-15T12:51:15Z</time>
      </trkpt>
      <trkpt lat="48.41786" lon="2.13933">
        <ele>133</ele>
        <time>2011-04-15T12:51:16Z</time>
      </trkpt>
      <trkpt lat="48.41784" lon="2.13933">
        <ele>133</ele>
        <time>2011-04-15T12:51:17Z</time>
      </trkpt>
      <trkpt lat="48.41783" lon="2.13932">
        <ele>133</ele>
        <time>2011-04-15T12:51:18Z</time>
      </trkpt>
      <trkpt lat="48.41782" lon="2.13931">
        <ele>133</ele>
        <time>2011-04-15T12:51:19Z</time>
      </trkpt>
      <trkpt lat="48.4178" lon="2.1393">
        <ele>133</ele>
        <time>2011-04-15T12:51:20Z</time>
      </trkpt>
      <trkpt lat="48.41779" lon="2.1393">
        <ele>133</ele>
        <time>2011-04-15T12:51:21Z</time>
      </trkpt>
      <trkpt lat="48.41778" lon="2.13929">
        <ele>133</ele>
        <time>2011-04-15T12:51:22Z</time>
      </trkpt>
      <trkpt lat="48.41776" lon="2.13928">
        <ele>133</ele>
        <time>2011-04-15T12:51:23Z</time>
      </trkpt>
      <trkpt lat="48.41775" lon="2.13927">
        <ele>133</ele>
        <time>2011-04-15T12:51:24Z</time>
      </trkpt>
      <trkpt lat="48.41774" lon="2.13926">
        <ele>133</ele>
        <time>2011-04-15T12:51:25Z</time>
      </trkpt>
      <trkpt lat="48.41773" lon="2.13925">
        <ele>133</ele>
        <time>2011-04-15T12:51:26Z</time>
      </trkpt>
      <trkpt lat="48.41771" lon="2.13924">
        <ele>134</ele>
        <time>2011-04-15T12:51:27Z</time>
      </trkpt>
      <trkpt lat="48.4177" lon="2.13923">
        <ele>134</ele>
        <time>2011-04-15T12:51:28Z</time>
      </trkpt>
      <trkpt lat="48.41769" lon="2.13922">
        <ele>134</ele>
        <time>2011-04-15T12:51:29Z</time>
      </trkpt>
      <trkpt lat="48.41768" lon="2.13921">
        <ele>134</ele>
        <time>2011-04-15T12:51:30Z</time>
      </trkpt>
      <trkpt lat="48.41767" lon="2.1392">
        <ele>134</ele>
        <time>2011-04-15T12:51:31Z</time>
      </trkpt>
      <trkpt lat="48.41765" lon="2.1392">
        <ele>134</ele>
        <time>2011-04-15T12:51:32Z</time>
      </trkpt>
      <trkpt lat="48.41764" lon="2.13919">
        <ele>134</ele>
        <time>2011-04-15T12:51:33Z</time>
      </trkpt>
      <trkpt lat="48.41763" lon="2.13918">
        <ele>134</ele>
        <time>2011-04-15T12:51:34Z</time>
      </trkpt>
      <trkpt lat="48.41761" lon="2.13917">
        <ele>134</ele>
        <time>2011-04-15T12:51:35Z</time>
      </trkpt>
      <trkpt lat="48.4176" lon="2.13916">
        <ele>134</ele>
        <time>2011-04-15T12:51:36Z</time>
      </trkpt>
      <trkpt lat="48.41759" lon="2.13915">
        <ele>134</ele>
        <time>2011-04-15T12:51:37Z</time>
      </trkpt>
      <trkpt lat="48.41758" lon="2.13914">
        <ele>135</ele>
        <time>2011-04-15T12:51:38Z</time>
      </trkpt>
      <trkpt lat="48.41756" lon="2.13914">
        <ele>135</ele>
        <time>2011-04-15T12:51:39Z</time>
      </trkpt>
      <trkpt lat="48.41755" lon="2.13913">
        <ele>135</ele>
        <time>2011-04-15T12:51:40Z</time>
      </trkpt>
      <trkpt lat="48.41754" lon="2.13912">
        <ele>135</ele>
        <time>2011-04-15T12:51:41Z</time>
      </trkpt>
      <trkpt lat="48.41752" lon="2.13911">
        <ele>135</ele>
        <time>2011-04-15T12:51:42Z</time>
      </trkpt>
      <trkpt lat="48.41751" lon="2.1391">
        <ele>135</ele>
        <time>2011-04-15T12:51:43Z</time>
      </trkpt>
      <trkpt lat="48.4175" lon="2.1391">
        <ele>135</ele>
        <time>2011-04-15T12:51:44Z</time>
      </trkpt>
      <trkpt lat="48.41749" lon="2.13909">
        <ele>135</ele>
        <time>2011-04-15T12:51:45Z</time>
      </trkpt>
      <trkpt lat="48.41747" lon="2.13908">
        <ele>135</ele>
        <time>2011-04-15T12:51:46Z</time>
      </trkpt>
      <trkpt lat="48.41746" lon="2.13908">
        <ele>135</ele>
        <time>2011-04-15T12:51:47Z</time>
      </trkpt>
      <trkpt lat="48.41745" lon="2.13907">
        <ele>135</ele>
        <time>2011-04-15T12:51:48Z</time>
      </trkpt>
      <trkpt lat="48.41744" lon="2.13906">
        <ele>135</ele>
        <time>2011-04-15T12:51:49Z</time>
      </trkpt>
      <trkpt lat="48.41743" lon="2.13905">
        <ele>135</ele>
        <time>2011-04-15T12:51:50Z</time>
      </trkpt>
      <trkpt lat="48.41741" lon="2.13904">
        <ele>135</ele>
        <time>2011-04-15T12:51:51Z</time>
      </trkpt>
      <trkpt lat="48.41739" lon="2.13903">
        <ele>135</ele>
        <time>2011-04-15T12:51:53Z</time>
      </trkpt>
      <trkpt lat="48.41738" lon="2.13902">
        <ele>135</ele>
        <time>2011-04-15T12:51:54Z</time>
      </trkpt>
      <trkpt lat="48.41737" lon="2.13901">
        <ele>135</ele>
        <time>2011-04-15T12:51:55Z</time>
      </trkpt>
      <trkpt lat="48.41735" lon="2.139">
        <ele>135</ele>
        <time>2011-04-15T12:51:56Z</time>
      </trkpt>
      <trkpt lat="48.41733" lon="2.13899">
        <ele>135</ele>
        <time>2011-04-15T12:51:57Z</time>
      </trkpt>
      <trkpt lat="48.4173" lon="2.13897">
        <ele>135</ele>
        <time>2011-04-15T12:51:58Z</time>
      </trkpt>
      <trkpt lat="48.41728" lon="2.13896">
        <ele>135</ele>
        <time>2011-04-15T12:51:59Z</time>
      </trkpt>
      <trkpt lat="48.41725" lon="2.13894">
        <ele>135</ele>
        <time>2011-04-15T12:52:00Z</time>
      </trkpt>
      <trkpt lat="48.41723" lon="2.13892">
        <ele>135</ele>
        <time>2011-04-15T12:52:01Z</time>
      </trkpt>
      <trkpt lat="48.4172" lon="2.13891">
        <ele>135</ele>
        <time>2011-04-15T12:52:02Z</time>
      </trkpt>
      <trkpt lat="48.41717" lon="2.1389">
        <ele>135</ele>
        <time>2011-04-15T12:52:03Z</time>
      </trkpt>
      <trkpt lat="48.41715" lon="2.13888">
        <ele>135</ele>
        <time>2011-04-15T12:52:04Z</time>
      </trkpt>
      <trkpt lat="48.41713" lon="2.13887">
        <ele>135</ele>
        <time>2011-04-15T12:52:05Z</time>
      </trkpt>
      <trkpt lat="48.4171" lon="2.13886">
        <ele>135</ele>
        <time>2011-04-15T12:52:06Z</time>
      </trkpt>
      <trkpt lat="48.41708" lon="2.13885">
        <ele>135</ele>
        <time>2011-04-15T12:52:07Z</time>
      </trkpt>
      <trkpt lat="48.41707" lon="2.13883">
        <ele>135</ele>
        <time>2011-04-15T12:52:08Z</time>
      </trkpt>
      <trkpt lat="48.41705" lon="2.13882">
        <ele>135</ele>
        <time>2011-04-15T12:52:09Z</time>
      </trkpt>
      <trkpt lat="48.41703" lon="2.13882">
        <ele>135</ele>
        <time>2011-04-15T12:52:10Z</time>
      </trkpt>
      <trkpt lat="48.41702" lon="2.13881">
        <ele>135</ele>
        <time>2011-04-15T12:52:11Z</time>
      </trkpt>
      <trkpt lat="48.417" lon="2.1388">
        <ele>135</ele>
        <time>2011-04-15T12:52:12Z</time>
      </trkpt>
      <trkpt lat="48.41699" lon="2.1388">
        <ele>135</ele>
        <time>2011-04-15T12:52:13Z</time>
      </trkpt>
      <trkpt lat="48.41698" lon="2.13879">
        <ele>135</ele>
        <time>2011-04-15T12:52:14Z</time>
      </trkpt>
      <trkpt lat="48.41696" lon="2.13878">
        <ele>135</ele>
        <time>2011-04-15T12:52:15Z</time>
      </trkpt>
      <trkpt lat="48.41695" lon="2.13877">
        <ele>135</ele>
        <time>2011-04-15T12:52:16Z</time>
      </trkpt>
      <trkpt lat="48.41694" lon="2.13877">
        <ele>135</ele>
        <time>2011-04-15T12:52:17Z</time>
      </trkpt>
      <trkpt lat="48.41692" lon="2.13876">
        <ele>135</ele>
        <time>2011-04-15T12:52:18Z</time>
      </trkpt>
      <trkpt lat="48.41691" lon="2.13875">
        <ele>135</ele>
        <time>2011-04-15T12:52:19Z</time>
      </trkpt>
      <trkpt lat="48.41689" lon="2.13874">
        <ele>135</ele>
        <time>2011-04-15T12:52:20Z</time>
      </trkpt>
      <trkpt lat="48.41688" lon="2.13874">
        <ele>135</ele>
        <time>2011-04-15T12:52:21Z</time>
      </trkpt>
      <trkpt lat="48.41687" lon="2.13873">
        <ele>135</ele>
        <time>2011-04-15T12:52:22Z</time>
      </trkpt>
      <trkpt lat="48.41686" lon="2.13872">
        <ele>135</ele>
        <time>2011-04-15T12:52:23Z</time>
      </trkpt>
      <trkpt lat="48.41684" lon="2.13871">
        <ele>135</ele>
        <time>2011-04-15T12:52:24Z</time>
      </trkpt>
      <trkpt lat="48.41683" lon="2.13871">
        <ele>135</ele>
        <time>2011-04-15T12:52:25Z</time>
      </trkpt>
      <trkpt lat="48.41681" lon="2.1387">
        <ele>135</ele>
        <time>2011-04-15T12:52:26Z</time>
      </trkpt>
      <trkpt lat="48.4168" lon="2.13869">
        <ele>135</ele>
        <time>2011-04-15T12:52:27Z</time>
      </trkpt>
      <trkpt lat="48.41679" lon="2.13869">
        <ele>135</ele>
        <time>2011-04-15T12:52:28Z</time>
      </trkpt>
      <trkpt lat="48.41677" lon="2.1387">
        <ele>135</ele>
        <time>2011-04-15T12:52:29Z</time>
      </trkpt>
      <trkpt lat="48.41676" lon="2.1387">
        <ele>135</ele>
        <time>2011-04-15T12:52:30Z</time>
      </trkpt>
      <trkpt lat="48.41674" lon="2.13873">
        <ele>135</ele>
        <time>2011-04-15T12:52:32Z</time>
      </trkpt>
      <trkpt lat="48.41673" lon="2.13874">
        <ele>135</ele>
        <time>2011-04-15T12:52:33Z</time>
      </trkpt>
      <trkpt lat="48.41672" lon="2.13877">
        <ele>135</ele>
        <time>2011-04-15T12:52:35Z</time>
      </trkpt>
      <trkpt lat="48.41671" lon="2.13879">
        <ele>135</ele>
        <time>2011-04-15T12:52:36Z</time>
      </trkpt>
      <trkpt lat="48.4167" lon="2.13882">
        <ele>135</ele>
        <time>2011-04-15T12:52:37Z</time>
      </trkpt>
      <trkpt lat="48.4167" lon="2.13884">
        <ele>135</ele>
        <time>2011-04-15T12:52:38Z</time>
      </trkpt>
      <trkpt lat="48.41669" lon="2.13886">
        <ele>135</ele>
        <time>2011-04-15T12:52:39Z</time>
      </trkpt>
      <trkpt lat="48.41668" lon="2.13888">
        <ele>135</ele>
        <time>2011-04-15T12:52:40Z</time>
      </trkpt>
      <trkpt lat="48.41668" lon="2.1389">
        <ele>135</ele>
        <time>2011-04-15T12:52:41Z</time>
      </trkpt>
      <trkpt lat="48.41667" lon="2.13893">
        <ele>135</ele>
        <time>2011-04-15T12:52:42Z</time>
      </trkpt>
      <trkpt lat="48.41666" lon="2.13895">
        <ele>135</ele>
        <time>2011-04-15T12:52:43Z</time>
      </trkpt>
      <trkpt lat="48.41666" lon="2.13897">
        <ele>135</ele>
        <time>2011-04-15T12:52:44Z</time>
      </trkpt>
      <trkpt lat="48.41665" lon="2.13899">
        <ele>135</ele>
        <time>2011-04-15T12:52:45Z</time>
      </trkpt>
      <trkpt lat="48.41664" lon="2.13901">
        <ele>135</ele>
        <time>2011-04-15T12:52:46Z</time>
      </trkpt>
      <trkpt lat="48.41664" lon="2.13903">
        <ele>135</ele>
        <time>2011-04-15T12:52:47Z</time>
      </trkpt>
      <trkpt lat="48.41663" lon="2.13905">
        <ele>135</ele>
        <time>2011-04-15T12:52:48Z</time>
      </trkpt>
      <trkpt lat="48.41663" lon="2.13908">
        <ele>135</ele>
        <time>2011-04-15T12:52:49Z</time>
      </trkpt>
      <trkpt lat="48.41662" lon="2.1391">
        <ele>135</ele>
        <time>2011-04-15T12:52:50Z</time>
      </trkpt>
      <trkpt lat="48.41661" lon="2.13912">
        <ele>135</ele>
        <time>2011-04-15T12:52:51Z</time>
      </trkpt>
      <trkpt lat="48.41661" lon="2.13914">
        <ele>135</ele>
        <time>2011-04-15T12:52:52Z</time>
      </trkpt>
      <trkpt lat="48.4166" lon="2.13916">
        <ele>135</ele>
        <time>2011-04-15T12:52:53Z</time>
      </trkpt>
      <trkpt lat="48.41659" lon="2.13918">
        <ele>135</ele>
        <time>2011-04-15T12:52:54Z</time>
      </trkpt>
      <trkpt lat="48.41658" lon="2.13921">
        <ele>135</ele>
        <time>2011-04-15T12:52:55Z</time>
      </trkpt>
      <trkpt lat="48.41658" lon="2.13923">
        <ele>135</ele>
        <time>2011-04-15T12:52:56Z</time>
      </trkpt>
      <trkpt lat="48.41657" lon="2.13925">
        <ele>135</ele>
        <time>2011-04-15T12:52:57Z</time>
      </trkpt>
      <trkpt lat="48.41656" lon="2.13927">
        <ele>135</ele>
        <time>2011-04-15T12:52:58Z</time>
      </trkpt>
      <trkpt lat="48.41656" lon="2.13929">
        <ele>135</ele>
        <time>2011-04-15T12:52:59Z</time>
      </trkpt>
      <trkpt lat="48.41655" lon="2.13931">
        <ele>135</ele>
        <time>2011-04-15T12:53:00Z</time>
      </trkpt>
      <trkpt lat="48.41654" lon="2.13933">
        <ele>135</ele>
        <time>2011-04-15T12:53:01Z</time>
      </trkpt>
      <trkpt lat="48.41654" lon="2.13935">
        <ele>135</ele>
        <time>2011-04-15T12:53:02Z</time>
      </trkpt>
      <trkpt lat="48.41653" lon="2.13937">
        <ele>135</ele>
        <time>2011-04-15T12:53:03Z</time>
      </trkpt>
      <trkpt lat="48.41653" lon="2.13939">
        <ele>135</ele>
        <time>2011-04-15T12:53:04Z</time>
      </trkpt>
      <trkpt lat="48.41652" lon="2.13942">
        <ele>135</ele>
        <time>2011-04-15T12:53:05Z</time>
      </trkpt>
      <trkpt lat="48.41651" lon="2.13944">
        <ele>135</ele>
        <time>2011-04-15T12:53:06Z</time>
      </trkpt>
      <trkpt lat="48.41651" lon="2.13946">
        <ele>135</ele>
        <time>2011-04-15T12:53:07Z</time>
      </trkpt>
      <trkpt lat="48.4165" lon="2.13948">
        <ele>135</ele>
        <time>2011-04-15T12:53:08Z</time>
      </trkpt>
      <trkpt lat="48.41649" lon="2.1395">
        <ele>135</ele>
        <time>2011-04-15T12:53:09Z</time>
      </trkpt>
      <trkpt lat="48.41649" lon="2.13952">
        <ele>135</ele>
        <time>2011-04-15T12:53:10Z</time>
      </trkpt>
      <trkpt lat="48.41648" lon="2.13954">
        <ele>135</ele>
        <time>2011-04-15T12:53:11Z</time>
      </trkpt>
      <trkpt lat="48.41647" lon="2.13956">
        <ele>135</ele>
        <time>2011-04-15T12:53:12Z</time>
      </trkpt>
      <trkpt lat="48.41647" lon="2.13958">
        <ele>135</ele>
        <time>2011-04-15T12:53:13Z</time>
      </trkpt>
      <trkpt lat="48.41646" lon="2.1396">
        <ele>135</ele>
        <time>2011-04-15T12:53:14Z</time>
      </trkpt>
      <trkpt lat="48.41646" lon="2.13962">
        <ele>135</ele>
        <time>2011-04-15T12:53:15Z</time>
      </trkpt>
      <trkpt lat="48.41645" lon="2.13965">
        <ele>135</ele>
        <time>2011-04-15T12:53:16Z</time>
      </trkpt>
      <trkpt lat="48.41644" lon="2.13967">
        <ele>135</ele>
        <time>2011-04-15T12:53:17Z</time>
      </trkpt>
      <trkpt lat="48.41644" lon="2.13969">
        <ele>135</ele>
        <time>2011-04-15T12:53:18Z</time>
      </trkpt>
      <trkpt lat="48.41643" lon="2.13971">
        <ele>135</ele>
        <time>2011-04-15T12:53:19Z</time>
      </trkpt>
      <trkpt lat="48.41642" lon="2.13973">
        <ele>135</ele>
        <time>2011-04-15T12:53:20Z</time>
      </trkpt>
      <trkpt lat="48.41642" lon="2.13975">
        <ele>135</ele>
        <time>2011-04-15T12:53:21Z</time>
      </trkpt>
      <trkpt lat="48.41641" lon="2.13977">
        <ele>135</ele>
        <time>2011-04-15T12:53:22Z</time>
      </trkpt>
      <trkpt lat="48.4164" lon="2.13979">
        <ele>135</ele>
        <time>2011-04-15T12:53:23Z</time>
      </trkpt>
      <trkpt lat="48.4164" lon="2.13981">
        <ele>135</ele>
        <time>2011-04-15T12:53:24Z</time>
      </trkpt>
      <trkpt lat="48.41639" lon="2.13983">
        <ele>135</ele>
        <time>2011-04-15T12:53:25Z</time>
      </trkpt>
      <trkpt lat="48.41638" lon="2.13985">
        <ele>135</ele>
        <time>2011-04-15T12:53:26Z</time>
      </trkpt>
      <trkpt lat="48.41638" lon="2.13987">
        <ele>135</ele>
        <time>2011-04-15T12:53:27Z</time>
      </trkpt>
      <trkpt lat="48.41637" lon="2.13988">
        <ele>135</ele>
        <time>2011-04-15T12:53:28Z</time>
      </trkpt>
      <trkpt lat="48.41636" lon="2.1399">
        <ele>135</ele>
        <time>2011-04-15T12:53:29Z</time>
      </trkpt>
      <trkpt lat="48.41636" lon="2.13992">
        <ele>135</ele>
        <time>2011-04-15T12:53:30Z</time>
      </trkpt>
      <trkpt lat="48.41635" lon="2.13994">
        <ele>135</ele>
        <time>2011-04-15T12:53:31Z</time>
      </trkpt>
      <trkpt lat="48.41634" lon="2.13998">
        <ele>135</ele>
        <time>2011-04-15T12:53:33Z</time>
      </trkpt>
      <trkpt lat="48.41633" lon="2.14">
        <ele>135</ele>
        <time>2011-04-15T12:53:34Z</time>
      </trkpt>
      <trkpt lat="48.41633" lon="2.14002">
        <ele>135</ele>
        <time>2011-04-15T12:53:35Z</time>
      </trkpt>
      <trkpt lat="48.41632" lon="2.14004">
        <ele>135</ele>
        <time>2011-04-15T12:53:36Z</time>
      </trkpt>
      <trkpt lat="48.41631" lon="2.14006">
        <ele>135</ele>
        <time>2011-04-15T12:53:37Z</time>
      </trkpt>
      <trkpt lat="48.4163" lon="2.14007">
        <ele>135</ele>
        <time>2011-04-15T12:53:38Z</time>
      </trkpt>
      <trkpt lat="48.41628" lon="2.14011">
        <ele>135</ele>
        <time>2011-04-15T12:53:40Z</time>
      </trkpt>
      <trkpt lat="48.41626" lon="2.14012">
        <ele>135</ele>
        <time>2011-04-15T12:53:41Z</time>
      </trkpt>
      <trkpt lat="48.41625" lon="2.14013">
        <ele>135</ele>
        <time>2011-04-15T12:53:42Z</time>
      </trkpt>
      <trkpt lat="48.41624" lon="2.14014">
        <ele>135</ele>
        <time>2011-04-15T12:53:43Z</time>
      </trkpt>
      <trkpt lat="48.41622" lon="2.14014">
        <ele>135</ele>
        <time>2011-04-15T12:53:44Z</time>
      </trkpt>
      <trkpt lat="48.41621" lon="2.14014">
        <ele>135</ele>
        <time>2011-04-15T12:53:45Z</time>
      </trkpt>
      <trkpt lat="48.41619" lon="2.14013">
        <ele>135</ele>
        <time>2011-04-15T12:53:46Z</time>
      </trkpt>
      <trkpt lat="48.41618" lon="2.14012">
        <ele>135</ele>
        <time>2011-04-15T12:53:47Z</time>
      </trkpt>
      <trkpt lat="48.41617" lon="2.14011">
        <ele>135</ele>
        <time>2011-04-15T12:53:48Z</time>
      </trkpt>
      <trkpt lat="48.41616" lon="2.1401">
        <ele>135</ele>
        <time>2011-04-15T12:53:49Z</time>
      </trkpt>
      <trkpt lat="48.41614" lon="2.14009">
        <ele>135</ele>
        <time>2011-04-15T12:53:50Z</time>
      </trkpt>
      <trkpt lat="48.41613" lon="2.14007">
        <ele>135</ele>
        <time>2011-04-15T12:53:51Z</time>
      </trkpt>
      <trkpt lat="48.41612" lon="2.14006">
        <ele>135</ele>
        <time>2011-04-15T12:53:52Z</time>
      </trkpt>
      <trkpt lat="48.41611" lon="2.14004">
        <ele>135</ele>
        <time>2011-04-15T12:53:53Z</time>
      </trkpt>
      <trkpt lat="48.4161" lon="2.14003">
        <ele>135</ele>
        <time>2011-04-15T12:53:54Z</time>
      </trkpt>
      <trkpt lat="48.41609" lon="2.14001">
        <ele>135</ele>
        <time>2011-04-15T12:53:55Z</time>
      </trkpt>
      <trkpt lat="48.41608" lon="2.13999">
        <ele>135</ele>
        <time>2011-04-15T12:53:56Z</time>
      </trkpt>
      <trkpt lat="48.41607" lon="2.13997">
        <ele>135</ele>
        <time>2011-04-15T12:53:57Z</time>
      </trkpt>
      <trkpt lat="48.41606" lon="2.13996">
        <ele>135</ele>
        <time>2011-04-15T12:53:58Z</time>
      </trkpt>
      <trkpt lat="48.41604" lon="2.13993">
        <ele>135</ele>
        <time>2011-04-15T12:54:00Z</time>
      </trkpt>
      <trkpt lat="48.41601" lon="2.1399">
        <ele>135</ele>
        <time>2011-04-15T12:54:02Z</time>
      </trkpt>
      <trkpt lat="48.416" lon="2.13989">
        <ele>135</ele>
        <time>2011-04-15T12:54:03Z</time>
      </trkpt>
      <trkpt lat="48.41599" lon="2.13988">
        <ele>135</ele>
        <time>2011-04-15T12:54:04Z</time>
      </trkpt>
      <trkpt lat="48.41598" lon="2.13987">
        <ele>135</ele>
        <time>2011-04-15T12:54:05Z</time>
      </trkpt>
      <trkpt lat="48.41596" lon="2.13986">
        <ele>135</ele>
        <time>2011-04-15T12:54:06Z</time>
      </trkpt>
      <trkpt lat="48.41595" lon="2.13984">
        <ele>135</ele>
        <time>2011-04-15T12:54:07Z</time>
      </trkpt>
      <trkpt lat="48.41594" lon="2.13983">
        <ele>135</ele>
        <time>2011-04-15T12:54:08Z</time>
      </trkpt>
      <trkpt lat="48.41593" lon="2.13982">
        <ele>135</ele>
        <time>2011-04-15T12:54:09Z</time>
      </trkpt>
      <trkpt lat="48.41591" lon="2.13981">
        <ele>135</ele>
        <time>2011-04-15T12:54:10Z</time>
      </trkpt>
      <trkpt lat="48.4159" lon="2.1398">
        <ele>135</ele>
        <time>2011-04-15T12:54:11Z</time>
      </trkpt>
      <trkpt lat="48.41589" lon="2.13978">
        <ele>135</ele>
        <time>2011-04-15T12:54:12Z</time>
      </trkpt>
      <trkpt lat="48.41587" lon="2.13975">
        <ele>135</ele>
        <time>2011-04-15T12:54:14Z</time>
      </trkpt>
      <trkpt lat="48.41585" lon="2.13972">
        <ele>135</ele>
        <time>2011-04-15T12:54:16Z</time>
      </trkpt>
      <trkpt lat="48.41584" lon="2.13971">
        <ele>135</ele>
        <time>2011-04-15T12:54:17Z</time>
      </trkpt>
      <trkpt lat="48.41582" lon="2.13968">
        <ele>135</ele>
        <time>2011-04-15T12:54:19Z</time>
      </trkpt>
      <trkpt lat="48.4158" lon="2.13965">
        <ele>135</ele>
        <time>2011-04-15T12:54:21Z</time>
      </trkpt>
      <trkpt lat="48.41578" lon="2.13962">
        <ele>135</ele>
        <time>2011-04-15T12:54:23Z</time>
      </trkpt>
      <trkpt lat="48.41576" lon="2.1396">
        <ele>135</ele>
        <time>2011-04-15T12:54:25Z</time>
      </trkpt>
      <trkpt lat="48.41575" lon="2.13958">
        <ele>135</ele>
        <time>2011-04-15T12:54:26Z</time>
      </trkpt>
      <trkpt lat="48.41572" lon="2.13956">
        <ele>135</ele>
        <time>2011-04-15T12:54:28Z</time>
      </trkpt>
      <trkpt lat="48.4157" lon="2.13953">
        <ele>135</ele>
        <time>2011-04-15T12:54:30Z</time>
      </trkpt>
      <trkpt lat="48.41568" lon="2.1395">
        <ele>135</ele>
        <time>2011-04-15T12:54:32Z</time>
      </trkpt>
      <trkpt lat="48.41567" lon="2.13949">
        <ele>135</ele>
        <time>2011-04-15T12:54:33Z</time>
      </trkpt>
      <trkpt lat="48.41565" lon="2.13946">
        <ele>135</ele>
        <time>2011-04-15T12:54:35Z</time>
      </trkpt>
      <trkpt lat="48.41564" lon="2.13944">
        <ele>135</ele>
        <time>2011-04-15T12:54:36Z</time>
      </trkpt>
      <trkpt lat="48.41563" lon="2.13943">
        <ele>135</ele>
        <time>2011-04-15T12:54:37Z</time>
      </trkpt>
      <trkpt lat="48.41562" lon="2.13942">
        <ele>135</ele>
        <time>2011-04-15T12:54:38Z</time>
      </trkpt>
      <trkpt lat="48.41559" lon="2.1394">
        <ele>135</ele>
        <time>2011-04-15T12:54:40Z</time>
      </trkpt>
      <trkpt lat="48.41557" lon="2.13937">
        <ele>135</ele>
        <time>2011-04-15T12:54:42Z</time>
      </trkpt>
      <trkpt lat="48.41556" lon="2.13935">
        <ele>135</ele>
        <time>2011-04-15T12:54:43Z</time>
      </trkpt>
      <trkpt lat="48.41554" lon="2.13932">
        <ele>135</ele>
        <time>2011-04-15T12:54:45Z</time>
      </trkpt>
      <trkpt lat="48.41553" lon="2.13931">
        <ele>135</ele>
        <time>2011-04-15T12:54:46Z</time>
      </trkpt>
      <trkpt lat="48.41552" lon="2.1393">
        <ele>135</ele>
        <time>2011-04-15T12:54:47Z</time>
      </trkpt>
      <trkpt lat="48.4155" lon="2.13927">
        <ele>135</ele>
        <time>2011-04-15T12:54:49Z</time>
      </trkpt>
      <trkpt lat="48.41549" lon="2.13926">
        <ele>135</ele>
        <time>2011-04-15T12:54:50Z</time>
      </trkpt>
      <trkpt lat="48.41547" lon="2.13923">
        <ele>135</ele>
        <time>2011-04-15T12:54:52Z</time>
      </trkpt>
      <trkpt lat="48.41544" lon="2.1392">
        <ele>135</ele>
        <time>2011-04-15T12:54:54Z</time>
      </trkpt>
      <trkpt lat="48.41542" lon="2.13918">
        <ele>135</ele>
        <time>2011-04-15T12:54:56Z</time>
      </trkpt>
      <trkpt lat="48.41541" lon="2.13916">
        <ele>135</ele>
        <time>2011-04-15T12:54:57Z</time>
      </trkpt>
      <trkpt lat="48.41539" lon="2.13913">
        <ele>135</ele>
        <time>2011-04-15T12:54:59Z</time>
      </trkpt>
      <trkpt lat="48.41537" lon="2.1391">
        <ele>135</ele>
        <time>2011-04-15T12:55:01Z</time>
      </trkpt>
      <trkpt lat="48.41535" lon="2.13907">
        <ele>135</ele>
        <time>2011-04-15T12:55:03Z</time>
      </trkpt>
      <trkpt lat="48.41534" lon="2.13905">
        <ele>135</ele>
        <time>2011-04-15T12:55:04Z</time>
      </trkpt>
      <trkpt lat="48.41532" lon="2.13903">
        <ele>135</ele>
        <time>2011-04-15T12:55:06Z</time>
      </trkpt>
      <trkpt lat="48.41531" lon="2.13901">
        <ele>135</ele>
        <time>2011-04-15T12:55:07Z</time>
      </trkpt>
      <trkpt lat="48.4153" lon="2.13899">
        <ele>135</ele>
        <time>2011-04-15T12:55:08Z</time>
      </trkpt>
      <trkpt lat="48.41528" lon="2.13897">
        <ele>135</ele>
        <time>2011-04-15T12:55:09Z</time>
      </trkpt>
      <trkpt lat="48.41526" lon="2.13894">
        <ele>135</ele>
        <time>2011-04-15T12:55:10Z</time>
      </trkpt>
      <trkpt lat="48.41524" lon="2.13891">
        <ele>135</ele>
        <time>2011-04-15T12:55:11Z</time>
      </trkpt>
      <trkpt lat="48.41521" lon="2.13887">
        <ele>135</ele>
        <time>2011-04-15T12:55:12Z</time>
      </trkpt>
      <trkpt lat="48.41519" lon="2.13884">
        <ele>135</ele>
        <time>2011-04-15T12:55:13Z</time>
      </trkpt>
      <trkpt lat="48.41517" lon="2.1388">
        <ele>135</ele>
        <time>2011-04-15T12:55:14Z</time>
      </trkpt>
      <trkpt lat="48.41514" lon="2.13877">
        <ele>135</ele>
        <time>2011-04-15T12:55:15Z</time>
      </trkpt>
      <trkpt lat="48.41512" lon="2.13874">
        <ele>135</ele>
        <time>2011-04-15T12:55:16Z</time>
      </trkpt>
      <trkpt lat="48.41509" lon="2.13871">
        <ele>135</ele>
        <time>2011-04-15T12:55:17Z</time>
      </trkpt>
      <trkpt lat="48.41507" lon="2.13868">
        <ele>135</ele>
        <time>2011-04-15T12:55:18Z</time>
      </trkpt>
      <trkpt lat="48.41505" lon="2.13864">
        <ele>135</ele>
        <time>2011-04-15T12:55:19Z</time>
      </trkpt>
      <trkpt lat="48.41503" lon="2.13861">
        <ele>135</ele>
        <time>2011-04-15T12:55:20Z</time>
      </trkpt>
      <trkpt lat="48.41501" lon="2.13858">
        <ele>135</ele>
        <time>2011-04-15T12:55:21Z</time>
      </trkpt>
      <trkpt lat="48.415" lon="2.13856">
        <ele>135</ele>
        <time>2011-04-15T12:55:22Z</time>
      </trkpt>
      <trkpt lat="48.41498" lon="2.13855">
        <ele>135</ele>
        <time>2011-04-15T12:55:23Z</time>
      </trkpt>
      <trkpt lat="48.41497" lon="2.13853">
        <ele>135</ele>
        <time>2011-04-15T12:55:24Z</time>
      </trkpt>
      <trkpt lat="48.41495" lon="2.13851">
        <ele>135</ele>
        <time>2011-04-15T12:55:25Z</time>
      </trkpt>
      <trkpt lat="48.41494" lon="2.13849">
        <ele>135</ele>
        <time>2011-04-15T12:55:26Z</time>
      </trkpt>
      <trkpt lat="48.41493" lon="2.13848">
        <ele>135</ele>
        <time>2011-04-15T12:55:27Z</time>
      </trkpt>
      <trkpt lat="48.41491" lon="2.13845">
        <ele>135</ele>
        <time>2011-04-15T12:55:29Z</time>
      </trkpt>
      <trkpt lat="48.4149" lon="2.13844">
        <ele>135</ele>
        <time>2011-04-15T12:55:30Z</time>
      </trkpt>
      <trkpt lat="48.41488" lon="2.13842">
        <ele>135</ele>
        <time>2011-04-15T12:55:31Z</time>
      </trkpt>
      <trkpt lat="48.41486" lon="2.1384">
        <ele>135</ele>
        <time>2011-04-15T12:55:33Z</time>
      </trkpt>
      <trkpt lat="48.41485" lon="2.13838">
        <ele>135</ele>
        <time>2011-04-15T12:55:34Z</time>
      </trkpt>
      <trkpt lat="48.41483" lon="2.13835">
        <ele>135</ele>
        <time>2011-04-15T12:55:36Z</time>
      </trkpt>
      <trkpt lat="48.41481" lon="2.13832">
        <ele>135</ele>
        <time>2011-04-15T12:55:38Z</time>
      </trkpt>
      <trkpt lat="48.4148" lon="2.13831">
        <ele>135</ele>
        <time>2011-04-15T12:55:39Z</time>
      </trkpt>
      <trkpt lat="48.41479" lon="2.13829">
        <ele>135</ele>
        <time>2011-04-15T12:55:40Z</time>
      </trkpt>
      <trkpt lat="48.41477" lon="2.13828">
        <ele>135</ele>
        <time>2011-04-15T12:55:41Z</time>
      </trkpt>
      <trkpt lat="48.41476" lon="2.13826">
        <ele>135</ele>
        <time>2011-04-15T12:55:43Z</time>
      </trkpt>
      <trkpt lat="48.41475" lon="2.13824">
        <ele>135</ele>
        <time>2011-04-15T12:55:44Z</time>
      </trkpt>
      <trkpt lat="48.41474" lon="2.13822">
        <ele>135</ele>
        <time>2011-04-15T12:55:45Z</time>
      </trkpt>
      <trkpt lat="48.41473" lon="2.13821">
        <ele>135</ele>
        <time>2011-04-15T12:55:46Z</time>
      </trkpt>
      <trkpt lat="48.41471" lon="2.13818">
        <ele>135</ele>
        <time>2011-04-15T12:55:48Z</time>
      </trkpt>
      <trkpt lat="48.41469" lon="2.13815">
        <ele>135</ele>
        <time>2011-04-15T12:55:50Z</time>
      </trkpt>
      <trkpt lat="48.41467" lon="2.13812">
        <ele>135</ele>
        <time>2011-04-15T12:55:52Z</time>
      </trkpt>
      <trkpt lat="48.41465" lon="2.13809">
        <ele>135</ele>
        <time>2011-04-15T12:55:54Z</time>
      </trkpt>
      <trkpt lat="48.41463" lon="2.13806">
        <ele>135</ele>
        <time>2011-04-15T12:55:56Z</time>
      </trkpt>
      <trkpt lat="48.41461" lon="2.13804">
        <ele>135</ele>
        <time>2011-04-15T12:55:58Z</time>
      </trkpt>
      <trkpt lat="48.4146" lon="2.13803">
        <ele>135</ele>
        <time>2011-04-15T12:55:59Z</time>
      </trkpt>
      <trkpt lat="48.41458" lon="2.138">
        <ele>135</ele>
        <time>2011-04-15T12:56:01Z</time>
      </trkpt>
      <trkpt lat="48.41456" lon="2.13797">
        <ele>135</ele>
        <time>2011-04-15T12:56:03Z</time>
      </trkpt>
      <trkpt lat="48.41454" lon="2.13796">
        <ele>135</ele>
        <time>2011-04-15T12:56:04Z</time>
      </trkpt>
      <trkpt lat="48.41453" lon="2.13794">
        <ele>135</ele>
        <time>2011-04-15T12:56:05Z</time>
      </trkpt>
      <trkpt lat="48.41452" lon="2.13793">
        <ele>135</ele>
        <time>2011-04-15T12:56:06Z</time>
      </trkpt>
      <trkpt lat="48.41451" lon="2.13792">
        <ele>135</ele>
        <time>2011-04-15T12:56:07Z</time>
      </trkpt>
      <trkpt lat="48.41449" lon="2.13789">
        <ele>135</ele>
        <time>2011-04-15T12:56:09Z</time>
      </trkpt>
      <trkpt lat="48.41447" lon="2.13787">
        <ele>135</ele>
        <time>2011-04-15T12:56:11Z</time>
      </trkpt>
      <trkpt lat="48.41445" lon="2.13784">
        <ele>135</ele>
        <time>2011-04-15T12:56:13Z</time>
      </trkpt>
      <trkpt lat="48.41443" lon="2.13782">
        <ele>135</ele>
        <time>2011-04-15T12:56:15Z</time>
      </trkpt>
      <trkpt lat="48.41442" lon="2.1378">
        <ele>135</ele>
        <time>2011-04-15T12:56:16Z</time>
      </trkpt>
      <trkpt lat="48.4144" lon="2.13778">
        <ele>135</ele>
        <time>2011-04-15T12:56:17Z</time>
      </trkpt>
      <trkpt lat="48.41438" lon="2.13776">
        <ele>135</ele>
        <time>2011-04-15T12:56:18Z</time>
      </trkpt>
      <trkpt lat="48.41436" lon="2.13773">
        <ele>135</ele>
        <time>2011-04-15T12:56:19Z</time>
      </trkpt>
      <trkpt lat="48.41434" lon="2.13771">
        <ele>135</ele>
        <time>2011-04-15T12:56:20Z</time>
      </trkpt>
      <trkpt lat="48.41432" lon="2.13768">
        <ele>135</ele>
        <time>2011-04-15T12:56:21Z</time>
      </trkpt>
      <trkpt lat="48.4143" lon="2.13766">
        <ele>135</ele>
        <time>2011-04-15T12:56:22Z</time>
      </trkpt>
      <trkpt lat="48.41428" lon="2.13764">
        <ele>135</ele>
        <time>2011-04-15T12:56:23Z</time>
      </trkpt>
      <trkpt lat="48.41426" lon="2.13762">
        <ele>135</ele>
        <time>2011-04-15T12:56:24Z</time>
      </trkpt>
      <trkpt lat="48.41425" lon="2.13761">
        <ele>135</ele>
        <time>2011-04-15T12:56:25Z</time>
      </trkpt>
      <trkpt lat="48.41423" lon="2.13759">
        <ele>135</ele>
        <time>2011-04-15T12:56:26Z</time>
      </trkpt>
      <trkpt lat="48.41422" lon="2.13758">
        <ele>135</ele>
        <time>2011-04-15T12:56:27Z</time>
      </trkpt>
      <trkpt lat="48.4142" lon="2.13756">
        <ele>135</ele>
        <time>2011-04-15T12:56:28Z</time>
      </trkpt>
      <trkpt lat="48.41419" lon="2.13755">
        <ele>135</ele>
        <time>2011-04-15T12:56:29Z</time>
      </trkpt>
      <trkpt lat="48.41418" lon="2.13753">
        <ele>135</ele>
        <time>2011-04-15T12:56:30Z</time>
      </trkpt>
      <trkpt lat="48.41417" lon="2.13752">
        <ele>135</ele>
        <time>2011-04-15T12:56:31Z</time>
      </trkpt>
      <trkpt lat="48.41416" lon="2.13751">
        <ele>135</ele>
        <time>2011-04-15T12:56:32Z</time>
      </trkpt>
      <trkpt lat="48.41414" lon="2.13748">
        <ele>135</ele>
        <time>2011-04-15T12:56:34Z</time>
      </trkpt>
      <trkpt lat="48.41412" lon="2.13747">
        <ele>135</ele>
        <time>2011-04-15T12:56:35Z</time>
      </trkpt>
      <trkpt lat="48.41411" lon="2.13744">
        <ele>135</ele>
        <time>2011-04-15T12:56:37Z</time>
      </trkpt>
      <trkpt lat="48.41409" lon="2.13741">
        <ele>135</ele>
        <time>2011-04-15T12:56:39Z</time>
      </trkpt>
      <trkpt lat="48.41407" lon="2.13739">
        <ele>135</ele>
        <time>2011-04-15T12:56:41Z</time>
      </trkpt>
      <trkpt lat="48.41406" lon="2.13737">
        <ele>135</ele>
        <time>2011-04-15T12:56:42Z</time>
      </trkpt>
      <trkpt lat="48.41404" lon="2.13736">
        <ele>135</ele>
        <time>2011-04-15T12:56:43Z</time>
      </trkpt>
      <trkpt lat="48.41403" lon="2.13735">
        <ele>135</ele>
        <time>2011-04-15T12:56:44Z</time>
      </trkpt>
      <trkpt lat="48.41402" lon="2.13734">
        <ele>135</ele>
        <time>2011-04-15T12:56:45Z</time>
      </trkpt>
      <trkpt lat="48.414" lon="2.13732">
        <ele>135</ele>
        <time>2011-04-15T12:56:47Z</time>
      </trkpt>
      <trkpt lat="48.41399" lon="2.1373">
        <ele>135</ele>
        <time>2011-04-15T12:56:48Z</time>
      </trkpt>
      <trkpt lat="48.41398" lon="2.13729">
        <ele>135</ele>
        <time>2011-04-15T12:56:49Z</time>
      </trkpt>
      <trkpt lat="48.41396" lon="2.13727">
        <ele>135</ele>
        <time>2011-04-15T12:56:51Z</time>
      </trkpt>
      <trkpt lat="48.41395" lon="2.13726">
        <ele>135</ele>
        <time>2011-04-15T12:56:52Z</time>
      </trkpt>
      <trkpt lat="48.41393" lon="2.13724">
        <ele>135</ele>
        <time>2011-04-15T12:56:53Z</time>
      </trkpt>
      <trkpt lat="48.41392" lon="2.13722">
        <ele>135</ele>
        <time>2011-04-15T12:56:55Z</time>
      </trkpt>
      <trkpt lat="48.4139" lon="2.13719">
        <ele>135</ele>
        <time>2011-04-15T12:56:57Z</time>
      </trkpt>
      <trkpt lat="48.41388" lon="2.13717">
        <ele>135</ele>
        <time>2011-04-15T12:56:59Z</time>
      </trkpt>
      <trkpt lat="48.41387" lon="2.13716">
        <ele>135</ele>
        <time>2011-04-15T12:57:00Z</time>
      </trkpt>
      <trkpt lat="48.41385" lon="2.13713">
        <ele>135</ele>
        <time>2011-04-15T12:57:02Z</time>
      </trkpt>
      <trkpt lat="48.41384" lon="2.13712">
        <ele>135</ele>
        <time>2011-04-15T12:57:03Z</time>
      </trkpt>
      <trkpt lat="48.41382" lon="2.13711">
        <ele>135</ele>
        <time>2011-04-15T12:57:04Z</time>
      </trkpt>
      <trkpt lat="48.4138" lon="2.13708">
        <ele>135</ele>
        <time>2011-04-15T12:57:06Z</time>
      </trkpt>
      <trkpt lat="48.41379" lon="2.13707">
        <ele>135</ele>
        <time>2011-04-15T12:57:07Z</time>
      </trkpt>
      <trkpt lat="48.41378" lon="2.13706">
        <ele>135</ele>
        <time>2011-04-15T12:57:08Z</time>
      </trkpt>
      <trkpt lat="48.41376" lon="2.13703">
        <ele>135</ele>
        <time>2011-04-15T12:57:10Z</time>
      </trkpt>
      <trkpt lat="48.41375" lon="2.13701">
        <ele>135</ele>
        <time>2011-04-15T12:57:11Z</time>
      </trkpt>
      <trkpt lat="48.41374" lon="2.137">
        <ele>135</ele>
        <time>2011-04-15T12:57:12Z</time>
      </trkpt>
      <trkpt lat="48.41373" lon="2.13699">
        <ele>135</ele>
        <time>2011-04-15T12:57:13Z</time>
      </trkpt>
      <trkpt lat="48.4137" lon="2.13696">
        <ele>135</ele>
        <time>2011-04-15T12:57:15Z</time>
      </trkpt>
      <trkpt lat="48.41369" lon="2.13695">
        <ele>135</ele>
        <time>2011-04-15T12:57:16Z</time>
      </trkpt>
      <trkpt lat="48.41368" lon="2.13694">
        <ele>135</ele>
        <time>2011-04-15T12:57:17Z</time>
      </trkpt>
      <trkpt lat="48.41367" lon="2.13692">
        <ele>135</ele>
        <time>2011-04-15T12:57:18Z</time>
      </trkpt>
      <trkpt lat="48.41365" lon="2.13689">
        <ele>135</ele>
        <time>2011-04-15T12:57:20Z</time>
      </trkpt>
      <trkpt lat="48.41363" lon="2.13688">
        <ele>135</ele>
        <time>2011-04-15T12:57:21Z</time>
      </trkpt>
      <trkpt lat="48.41362" lon="2.13687">
        <ele>135</ele>
        <time>2011-04-15T12:57:22Z</time>
      </trkpt>
      <trkpt lat="48.4136" lon="2.13685">
        <ele>135</ele>
        <time>2011-04-15T12:57:24Z</time>
      </trkpt>
      <trkpt lat="48.41359" lon="2.13684">
        <ele>135</ele>
        <time>2011-04-15T12:57:25Z</time>
      </trkpt>
      <trkpt lat="48.41358" lon="2.13683">
        <ele>135</ele>
        <time>2011-04-15T12:57:26Z</time>
      </trkpt>
      <trkpt lat="48.41356" lon="2.1368">
        <ele>135</ele>
        <time>2011-04-15T12:57:28Z</time>
      </trkpt>
      <trkpt lat="48.41354" lon="2.13678">
        <ele>135</ele>
        <time>2011-04-15T12:57:30Z</time>
      </trkpt>
      <trkpt lat="48.41352" lon="2.13675">
        <ele>135</ele>
        <time>2011-04-15T12:57:32Z</time>
      </trkpt>
      <trkpt lat="48.4135" lon="2.13673">
        <ele>135</ele>
        <time>2011-04-15T12:57:34Z</time>
      </trkpt>
      <trkpt lat="48.41348" lon="2.13671">
        <ele>135</ele>
        <time>2011-04-15T12:57:36Z</time>
      </trkpt>
      <trkpt lat="48.41346" lon="2.13668">
        <ele>135</ele>
        <time>2011-04-15T12:57:38Z</time>
      </trkpt>
      <trkpt lat="48.41343" lon="2.13665">
        <ele>135</ele>
        <time>2011-04-15T12:57:40Z</time>
      </trkpt>
      <trkpt lat="48.41341" lon="2.13663">
        <ele>135</ele>
        <time>2011-04-15T12:57:42Z</time>
      </trkpt>
      <trkpt lat="48.41339" lon="2.1366">
        <ele>135</ele>
        <time>2011-04-15T12:57:44Z</time>
      </trkpt>
      <trkpt lat="48.41337" lon="2.13658">
        <ele>135</ele>
        <time>2011-04-15T12:57:46Z</time>
      </trkpt>
      <trkpt lat="48.41335" lon="2.13655">
        <ele>135</ele>
        <time>2011-04-15T12:57:48Z</time>
      </trkpt>
      <trkpt lat="48.41334" lon="2.13654">
        <ele>135</ele>
        <time>2011-04-15T12:57:49Z</time>
      </trkpt>
      <trkpt lat="48.41333" lon="2.13653">
        <ele>135</ele>
        <time>2011-04-15T12:57:50Z</time>
      </trkpt>
      <trkpt lat="48.41331" lon="2.1365">
        <ele>135</ele>
        <time>2011-04-15T12:57:52Z</time>
      </trkpt>
      <trkpt lat="48.4133" lon="2.13649">
        <ele>135</ele>
        <time>2011-04-15T12:57:53Z</time>
      </trkpt>
      <trkpt lat="48.41328" lon="2.13648">
        <ele>135</ele>
        <time>2011-04-15T12:57:54Z</time>
      </trkpt>
      <trkpt lat="48.41327" lon="2.13647">
        <ele>135</ele>
        <time>2011-04-15T12:57:55Z</time>
      </trkpt>
      <trkpt lat="48.41326" lon="2.13645">
        <ele>135</ele>
        <time>2011-04-15T12:57:56Z</time>
      </trkpt>
      <trkpt lat="48.41324" lon="2.13643">
        <ele>135</ele>
        <time>2011-04-15T12:57:58Z</time>
      </trkpt>
      <trkpt lat="48.41323" lon="2.13641">
        <ele>135</ele>
        <time>2011-04-15T12:57:59Z</time>
      </trkpt>
      <trkpt lat="48.41321" lon="2.13639">
        <ele>135</ele>
        <time>2011-04-15T12:58:01Z</time>
      </trkpt>
      <trkpt lat="48.41319" lon="2.13637">
        <ele>135</ele>
        <time>2011-04-15T12:58:03Z</time>
      </trkpt>
      <trkpt lat="48.41317" lon="2.13634">
        <ele>135</ele>
        <time>2011-04-15T12:58:05Z</time>
      </trkpt>
      <trkpt lat="48.41314" lon="2.13632">
        <ele>135</ele>
        <time>2011-04-15T12:58:07Z</time>
      </trkpt>
      <trkpt lat="48.41313" lon="2.1363">
        <ele>135</ele>
        <time>2011-04-15T12:58:09Z</time>
      </trkpt>
      <trkpt lat="48.41311" lon="2.13627">
        <ele>135</ele>
        <time>2011-04-15T12:58:11Z</time>
      </trkpt>
      <trkpt lat="48.41309" lon="2.13624">
        <ele>135</ele>
        <time>2011-04-15T12:58:13Z</time>
      </trkpt>
      <trkpt lat="48.41307" lon="2.13621">
        <ele>135</ele>
        <time>2011-04-15T12:58:15Z</time>
      </trkpt>
      <trkpt lat="48.41305" lon="2.13619">
        <ele>135</ele>
        <time>2011-04-15T12:58:17Z</time>
      </trkpt>
      <trkpt lat="48.41303" lon="2.13616">
        <ele>135</ele>
        <time>2011-04-15T12:58:19Z</time>
      </trkpt>
      <trkpt lat="48.41301" lon="2.13613">
        <ele>135</ele>
        <time>2011-04-15T12:58:21Z</time>
      </trkpt>
      <trkpt lat="48.41298" lon="2.13611">
        <ele>135</ele>
        <time>2011-04-15T12:58:23Z</time>
      </trkpt>
      <trkpt lat="48.41297" lon="2.13609">
        <ele>135</ele>
        <time>2011-04-15T12:58:24Z</time>
      </trkpt>
      <trkpt lat="48.41296" lon="2.13608">
        <ele>135</ele>
        <time>2011-04-15T12:58:25Z</time>
      </trkpt>
      <trkpt lat="48.41295" lon="2.13606">
        <ele>135</ele>
        <time>2011-04-15T12:58:26Z</time>
      </trkpt>
      <trkpt lat="48.41294" lon="2.13605">
        <ele>135</ele>
        <time>2011-04-15T12:58:27Z</time>
      </trkpt>
      <trkpt lat="48.41293" lon="2.13603">
        <ele>135</ele>
        <time>2011-04-15T12:58:28Z</time>
      </trkpt>
      <trkpt lat="48.41291" lon="2.13602">
        <ele>135</ele>
        <time>2011-04-15T12:58:29Z</time>
      </trkpt>
      <trkpt lat="48.41289" lon="2.13599">
        <ele>135</ele>
        <time>2011-04-15T12:58:30Z</time>
      </trkpt>
      <trkpt lat="48.41287" lon="2.13597">
        <ele>135</ele>
        <time>2011-04-15T12:58:31Z</time>
      </trkpt>
      <trkpt lat="48.41285" lon="2.13595">
        <ele>135</ele>
        <time>2011-04-15T12:58:32Z</time>
      </trkpt>
      <trkpt lat="48.41283" lon="2.13592">
        <ele>135</ele>
        <time>2011-04-15T12:58:33Z</time>
      </trkpt>
      <trkpt lat="48.4128" lon="2.13589">
        <ele>135</ele>
        <time>2011-04-15T12:58:34Z</time>
      </trkpt>
      <trkpt lat="48.41278" lon="2.13587">
        <ele>135</ele>
        <time>2011-04-15T12:58:35Z</time>
      </trkpt>
      <trkpt lat="48.41275" lon="2.13584">
        <ele>135</ele>
        <time>2011-04-15T12:58:36Z</time>
      </trkpt>
      <trkpt lat="48.41272" lon="2.13581">
        <ele>135</ele>
        <time>2011-04-15T12:58:37Z</time>
      </trkpt>
      <trkpt lat="48.4127" lon="2.13578">
        <ele>135</ele>
        <time>2011-04-15T12:58:38Z</time>
      </trkpt>
      <trkpt lat="48.41268" lon="2.13575">
        <ele>135</ele>
        <time>2011-04-15T12:58:39Z</time>
      </trkpt>
      <trkpt lat="48.41265" lon="2.13572">
        <ele>135</ele>
        <time>2011-04-15T12:58:40Z</time>
      </trkpt>
      <trkpt lat="48.41263" lon="2.1357">
        <ele>135</ele>
        <time>2011-04-15T12:58:41Z</time>
      </trkpt>
      <trkpt lat="48.4126" lon="2.13567">
        <ele>135</ele>
        <time>2011-04-15T12:58:42Z</time>
      </trkpt>
      <trkpt lat="48.41258" lon="2.13564">
        <ele>135</ele>
        <time>2011-04-15T12:58:43Z</time>
      </trkpt>
      <trkpt lat="48.41256" lon="2.13562">
        <ele>135</ele>
        <time>2011-04-15T12:58:44Z</time>
      </trkpt>
      <trkpt lat="48.41254" lon="2.1356">
        <ele>135</ele>
        <time>2011-04-15T12:58:45Z</time>
      </trkpt>
      <trkpt lat="48.41252" lon="2.13558">
        <ele>135</ele>
        <time>2011-04-15T12:58:46Z</time>
      </trkpt>
      <trkpt lat="48.4125" lon="2.13556">
        <ele>135</ele>
        <time>2011-04-15T12:58:47Z</time>
      </trkpt>
      <trkpt lat="48.41249" lon="2.13554">
        <ele>135</ele>
        <time>2011-04-15T12:58:48Z</time>
      </trkpt>
      <trkpt lat="48.41247" lon="2.13553">
        <ele>135</ele>
        <time>2011-04-15T12:58:49Z</time>
      </trkpt>
      <trkpt lat="48.41246" lon="2.13552">
        <ele>135</ele>
        <time>2011-04-15T12:58:50Z</time>
      </trkpt>
      <trkpt lat="48.41244" lon="2.1355">
        <ele>135</ele>
        <time>2011-04-15T12:58:52Z</time>
      </trkpt>
      <trkpt lat="48.41242" lon="2.13547">
        <ele>135</ele>
        <time>2011-04-15T12:58:54Z</time>
      </trkpt>
      <trkpt lat="48.4124" lon="2.13544">
        <ele>135</ele>
        <time>2011-04-15T12:58:56Z</time>
      </trkpt>
      <trkpt lat="48.41238" lon="2.13542">
        <ele>135</ele>
        <time>2011-04-15T12:58:58Z</time>
      </trkpt>
      <trkpt lat="48.41236" lon="2.13539">
        <ele>135</ele>
        <time>2011-04-15T12:59:00Z</time>
      </trkpt>
      <trkpt lat="48.41235" lon="2.13538">
        <ele>135</ele>
        <time>2011-04-15T12:59:01Z</time>
      </trkpt>
      <trkpt lat="48.41233" lon="2.13537">
        <ele>135</ele>
        <time>2011-04-15T12:59:02Z</time>
      </trkpt>
      <trkpt lat="48.41232" lon="2.13536">
        <ele>135</ele>
        <time>2011-04-15T12:59:03Z</time>
      </trkpt>
      <trkpt lat="48.4123" lon="2.13533">
        <ele>135</ele>
        <time>2011-04-15T12:59:05Z</time>
      </trkpt>
      <trkpt lat="48.41228" lon="2.13531">
        <ele>135</ele>
        <time>2011-04-15T12:59:07Z</time>
      </trkpt>
      <trkpt lat="48.41226" lon="2.13529">
        <ele>135</ele>
        <time>2011-04-15T12:59:09Z</time>
      </trkpt>
      <trkpt lat="48.41225" lon="2.13527">
        <ele>135</ele>
        <time>2011-04-15T12:59:10Z</time>
      </trkpt>
      <trkpt lat="48.41223" lon="2.13525">
        <ele>135</ele>
        <time>2011-04-15T12:59:12Z</time>
      </trkpt>
      <trkpt lat="48.41221" lon="2.13523">
        <ele>135</ele>
        <time>2011-04-15T12:59:13Z</time>
      </trkpt>
      <trkpt lat="48.41219" lon="2.13521">
        <ele>135</ele>
        <time>2011-04-15T12:59:15Z</time>
      </trkpt>
      <trkpt lat="48.41218" lon="2.13519">
        <ele>135</ele>
        <time>2011-04-15T12:59:16Z</time>
      </trkpt>
      <trkpt lat="48.41216" lon="2.13517">
        <ele>135</ele>
        <time>2011-04-15T12:59:18Z</time>
      </trkpt>
      <trkpt lat="48.41214" lon="2.13515">
        <ele>135</ele>
        <time>2011-04-15T12:59:20Z</time>
      </trkpt>
      <trkpt lat="48.41212" lon="2.13512">
        <ele>135</ele>
        <time>2011-04-15T12:59:22Z</time>
      </trkpt>
      <trkpt lat="48.4121" lon="2.1351">
        <ele>135</ele>
        <time>2011-04-15T12:59:24Z</time>
      </trkpt>
      <trkpt lat="48.41208" lon="2.13508">
        <ele>135</ele>
        <time>2011-04-15T12:59:26Z</time>
      </trkpt>
      <trkpt lat="48.41206" lon="2.13506">
        <ele>135</ele>
        <time>2011-04-15T12:59:28Z</time>
      </trkpt>
      <trkpt lat="48.41205" lon="2.13505">
        <ele>135</ele>
        <time>2011-04-15T12:59:29Z</time>
      </trkpt>
      <trkpt lat="48.41203" lon="2.13504">
        <ele>135</ele>
        <time>2011-04-15T12:59:30Z</time>
      </trkpt>
      <trkpt lat="48.41202" lon="2.13503">
        <ele>135</ele>
        <time>2011-04-15T12:59:31Z</time>
      </trkpt>
      <trkpt lat="48.41201" lon="2.13502">
        <ele>135</ele>
        <time>2011-04-15T12:59:32Z</time>
      </trkpt>
      <trkpt lat="48.412" lon="2.13501">
        <ele>135</ele>
        <time>2011-04-15T12:59:33Z</time>
      </trkpt>
      <trkpt lat="48.41199" lon="2.135">
        <ele>135</ele>
        <time>2011-04-15T12:59:34Z</time>
      </trkpt>
      <trkpt lat="48.41197" lon="2.135">
        <ele>135</ele>
        <time>2011-04-15T12:59:35Z</time>
      </trkpt>
      <trkpt lat="48.41196" lon="2.13499">
        <ele>135</ele>
        <time>2011-04-15T12:59:36Z</time>
      </trkpt>
      <trkpt lat="48.41195" lon="2.13499">
        <ele>135</ele>
        <time>2011-04-15T12:59:37Z</time>
      </trkpt>
      <trkpt lat="48.41193" lon="2.13499">
        <ele>135</ele>
        <time>2011-04-15T12:59:38Z</time>
      </trkpt>
      <trkpt lat="48.41192" lon="2.135">
        <ele>135</ele>
        <time>2011-04-15T12:59:39Z</time>
      </trkpt>
      <trkpt lat="48.41191" lon="2.13501">
        <ele>135</ele>
        <time>2011-04-15T12:59:40Z</time>
      </trkpt>
      <trkpt lat="48.4119" lon="2.13503">
        <ele>135</ele>
        <time>2011-04-15T12:59:41Z</time>
      </trkpt>
      <trkpt lat="48.41189" lon="2.13504">
        <ele>135</ele>
        <time>2011-04-15T12:59:42Z</time>
      </trkpt>
      <trkpt lat="48.41188" lon="2.13506">
        <ele>135</ele>
        <time>2011-04-15T12:59:43Z</time>
      </trkpt>
      <trkpt lat="48.41187" lon="2.13508">
        <ele>135</ele>
        <time>2011-04-15T12:59:44Z</time>
      </trkpt>
      <trkpt lat="48.41186" lon="2.1351">
        <ele>135</ele>
        <time>2011-04-15T12:59:45Z</time>
      </trkpt>
      <trkpt lat="48.41185" lon="2.13512">
        <ele>135</ele>
        <time>2011-04-15T12:59:46Z</time>
      </trkpt>
      <trkpt lat="48.41185" lon="2.13513">
        <ele>135</ele>
        <time>2011-04-15T12:59:47Z</time>
      </trkpt>
      <trkpt lat="48.41184" lon="2.13515">
        <ele>135</ele>
        <time>2011-04-15T12:59:48Z</time>
      </trkpt>
      <trkpt lat="48.41183" lon="2.13517">
        <ele>135</ele>
        <time>2011-04-15T12:59:49Z</time>
      </trkpt>
      <trkpt lat="48.41182" lon="2.13519">
        <ele>135</ele>
        <time>2011-04-15T12:59:50Z</time>
      </trkpt>
      <trkpt lat="48.41182" lon="2.13521">
        <ele>135</ele>
        <time>2011-04-15T12:59:51Z</time>
      </trkpt>
      <trkpt lat="48.41181" lon="2.13523">
        <ele>135</ele>
        <time>2011-04-15T12:59:52Z</time>
      </trkpt>
      <trkpt lat="48.4118" lon="2.13525">
        <ele>135</ele>
        <time>2011-04-15T12:59:53Z</time>
      </trkpt>
      <trkpt lat="48.4118" lon="2.13526">
        <ele>135</ele>
        <time>2011-04-15T12:59:54Z</time>
      </trkpt>
      <trkpt lat="48.41179" lon="2.13528">
        <ele>135</ele>
        <time>2011-04-15T12:59:55Z</time>
      </trkpt>
      <trkpt lat="48.41178" lon="2.13531">
        <ele>134</ele>
        <time>2011-04-15T12:59:56Z</time>
      </trkpt>
      <trkpt lat="48.41176" lon="2.13535">
        <ele>134</ele>
        <time>2011-04-15T12:59:57Z</time>
      </trkpt>
      <trkpt lat="48.41174" lon="2.1354">
        <ele>134</ele>
        <time>2011-04-15T12:59:58Z</time>
      </trkpt>
      <trkpt lat="48.41171" lon="2.13545">
        <ele>133</ele>
        <time>2011-04-15T12:59:59Z</time>
      </trkpt>
      <trkpt lat="48.41169" lon="2.1355">
        <ele>133</ele>
        <time>2011-04-15T13:00:00Z</time>
      </trkpt>
      <trkpt lat="48.41167" lon="2.13555">
        <ele>133</ele>
        <time>2011-04-15T13:00:01Z</time>
      </trkpt>
      <trkpt lat="48.41165" lon="2.13559">
        <ele>133</ele>
        <time>2011-04-15T13:00:02Z</time>
      </trkpt>
      <trkpt lat="48.41163" lon="2.13563">
        <ele>132</ele>
        <time>2011-04-15T13:00:03Z</time>
      </trkpt>
      <trkpt lat="48.41162" lon="2.13566">
        <ele>132</ele>
        <time>2011-04-15T13:00:04Z</time>
      </trkpt>
      <trkpt lat="48.41161" lon="2.13569">
        <ele>132</ele>
        <time>2011-04-15T13:00:05Z</time>
      </trkpt>
      <trkpt lat="48.41159" lon="2.13572">
        <ele>132</ele>
        <time>2011-04-15T13:00:06Z</time>
      </trkpt>
      <trkpt lat="48.41158" lon="2.13574">
        <ele>132</ele>
        <time>2011-04-15T13:00:07Z</time>
      </trkpt>
      <trkpt lat="48.41157" lon="2.13576">
        <ele>132</ele>
        <time>2011-04-15T13:00:08Z</time>
      </trkpt>
      <trkpt lat="48.41156" lon="2.13579">
        <ele>132</ele>
        <time>2011-04-15T13:00:09Z</time>
      </trkpt>
      <trkpt lat="48.41155" lon="2.13581">
        <ele>132</ele>
        <time>2011-04-15T13:00:10Z</time>
      </trkpt>
      <trkpt lat="48.41155" lon="2.13583">
        <ele>132</ele>
        <time>2011-04-15T13:00:11Z</time>
      </trkpt>
      <trkpt lat="48.41154" lon="2.13585">
        <ele>132</ele>
        <time>2011-04-15T13:00:12Z</time>
      </trkpt>
      <trkpt lat="48.41153" lon="2.13587">
        <ele>132</ele>
        <time>2011-04-15T13:00:13Z</time>
      </trkpt>
      <trkpt lat="48.41152" lon="2.13588">
        <ele>132</ele>
        <time>2011-04-15T13:00:14Z</time>
      </trkpt>
      <trkpt lat="48.41151" lon="2.1359">
        <ele>132</ele>
        <time>2011-04-15T13:00:15Z</time>
      </trkpt>
      <trkpt lat="48.4115" lon="2.13592">
        <ele>132</ele>
        <time>2011-04-15T13:00:16Z</time>
      </trkpt>
      <trkpt lat="48.41149" lon="2.13594">
        <ele>132</ele>
        <time>2011-04-15T13:00:17Z</time>
      </trkpt>
      <trkpt lat="48.41149" lon="2.13596">
        <ele>132</ele>
        <time>2011-04-15T13:00:18Z</time>
      </trkpt>
      <trkpt lat="48.41147" lon="2.13598">
        <ele>132</ele>
        <time>2011-04-15T13:00:19Z</time>
      </trkpt>
      <trkpt lat="48.41147" lon="2.13599">
        <ele>132</ele>
        <time>2011-04-15T13:00:20Z</time>
      </trkpt>
      <trkpt lat="48.41146" lon="2.13601">
        <ele>132</ele>
        <time>2011-04-15T13:00:21Z</time>
      </trkpt>
      <trkpt lat="48.41144" lon="2.13604">
        <ele>132</ele>
        <time>2011-04-15T13:00:23Z</time>
      </trkpt>
      <trkpt lat="48.41142" lon="2.13606">
        <ele>132</ele>
        <time>2011-04-15T13:00:25Z</time>
      </trkpt>
      <trkpt lat="48.41141" lon="2.13608">
        <ele>132</ele>
        <time>2011-04-15T13:00:26Z</time>
      </trkpt>
      <trkpt lat="48.4114" lon="2.13609">
        <ele>132</ele>
        <time>2011-04-15T13:00:27Z</time>
      </trkpt>
      <trkpt lat="48.41138" lon="2.1361">
        <ele>132</ele>
        <time>2011-04-15T13:00:28Z</time>
      </trkpt>
      <trkpt lat="48.41137" lon="2.1361">
        <ele>132</ele>
        <time>2011-04-15T13:00:29Z</time>
      </trkpt>
      <trkpt lat="48.41135" lon="2.13611">
        <ele>132</ele>
        <time>2011-04-15T13:00:30Z</time>
      </trkpt>
      <trkpt lat="48.41134" lon="2.13611">
        <ele>132</ele>
        <time>2011-04-15T13:00:31Z</time>
      </trkpt>
      <trkpt lat="48.41132" lon="2.13611">
        <ele>132</ele>
        <time>2011-04-15T13:00:32Z</time>
      </trkpt>
      <trkpt lat="48.41131" lon="2.1361">
        <ele>132</ele>
        <time>2011-04-15T13:00:33Z</time>
      </trkpt>
      <trkpt lat="48.4113" lon="2.1361">
        <ele>132</ele>
        <time>2011-04-15T13:00:34Z</time>
      </trkpt>
      <trkpt lat="48.41128" lon="2.13609">
        <ele>132</ele>
        <time>2011-04-15T13:00:35Z</time>
      </trkpt>
      <trkpt lat="48.41127" lon="2.13608">
        <ele>132</ele>
        <time>2011-04-15T13:00:36Z</time>
      </trkpt>
      <trkpt lat="48.41125" lon="2.13608">
        <ele>132</ele>
        <time>2011-04-15T13:00:37Z</time>
      </trkpt>
      <trkpt lat="48.41124" lon="2.13607">
        <ele>132</ele>
        <time>2011-04-15T13:00:38Z</time>
      </trkpt>
      <trkpt lat="48.41123" lon="2.13606">
        <ele>132</ele>
        <time>2011-04-15T13:00:39Z</time>
      </trkpt>
      <trkpt lat="48.41121" lon="2.13605">
        <ele>132</ele>
        <time>2011-04-15T13:00:40Z</time>
      </trkpt>
      <trkpt lat="48.4112" lon="2.13604">
        <ele>132</ele>
        <time>2011-04-15T13:00:41Z</time>
      </trkpt>
      <trkpt lat="48.41119" lon="2.13603">
        <ele>132</ele>
        <time>2011-04-15T13:00:42Z</time>
      </trkpt>
      <trkpt lat="48.41117" lon="2.13602">
        <ele>132</ele>
        <time>2011-04-15T13:00:43Z</time>
      </trkpt>
      <trkpt lat="48.41116" lon="2.13601">
        <ele>132</ele>
        <time>2011-04-15T13:00:44Z</time>
      </trkpt>
      <trkpt lat="48.41115" lon="2.13599">
        <ele>132</ele>
        <time>2011-04-15T13:00:45Z</time>
      </trkpt>
      <trkpt lat="48.41114" lon="2.13598">
        <ele>132</ele>
        <time>2011-04-15T13:00:46Z</time>
      </trkpt>
      <trkpt lat="48.41113" lon="2.13597">
        <ele>132</ele>
        <time>2011-04-15T13:00:47Z</time>
      </trkpt>
      <trkpt lat="48.41111" lon="2.13596">
        <ele>132</ele>
        <time>2011-04-15T13:00:48Z</time>
      </trkpt>
      <trkpt lat="48.4111" lon="2.13594">
        <ele>132</ele>
        <time>2011-04-15T13:00:49Z</time>
      </trkpt>
      <trkpt lat="48.41109" lon="2.13593">
        <ele>132</ele>
        <time>2011-04-15T13:00:50Z</time>
      </trkpt>
      <trkpt lat="48.41108" lon="2.13592">
        <ele>132</ele>
        <time>2011-04-15T13:00:51Z</time>
      </trkpt>
      <trkpt lat="48.41107" lon="2.1359">
        <ele>132</ele>
        <time>2011-04-15T13:00:52Z</time>
      </trkpt>
      <trkpt lat="48.41105" lon="2.13589">
        <ele>132</ele>
        <time>2011-04-15T13:00:53Z</time>
      </trkpt>
      <trkpt lat="48.41104" lon="2.13588">
        <ele>132</ele>
        <time>2011-04-15T13:00:54Z</time>
      </trkpt>
      <trkpt lat="48.41102" lon="2.13585">
        <ele>132</ele>
        <time>2011-04-15T13:00:56Z</time>
      </trkpt>
      <trkpt lat="48.41101" lon="2.13584">
        <ele>132</ele>
        <time>2011-04-15T13:00:57Z</time>
      </trkpt>
      <trkpt lat="48.411" lon="2.13583">
        <ele>132</ele>
        <time>2011-04-15T13:00:58Z</time>
      </trkpt>
      <trkpt lat="48.41098" lon="2.13582">
        <ele>132</ele>
        <time>2011-04-15T13:00:59Z</time>
      </trkpt>
      <trkpt lat="48.41096" lon="2.13579">
        <ele>132</ele>
        <time>2011-04-15T13:01:01Z</time>
      </trkpt>
      <trkpt lat="48.41095" lon="2.13578">
        <ele>132</ele>
        <time>2011-04-15T13:01:02Z</time>
      </trkpt>
      <trkpt lat="48.41094" lon="2.13577">
        <ele>132</ele>
        <time>2011-04-15T13:01:03Z</time>
      </trkpt>
      <trkpt lat="48.41093" lon="2.13575">
        <ele>132</ele>
        <time>2011-04-15T13:01:04Z</time>
      </trkpt>
      <trkpt lat="48.41091" lon="2.13573">
        <ele>132</ele>
        <time>2011-04-15T13:01:06Z</time>
      </trkpt>
      <trkpt lat="48.41089" lon="2.13572">
        <ele>132</ele>
        <time>2011-04-15T13:01:07Z</time>
      </trkpt>
      <trkpt lat="48.41088" lon="2.13571">
        <ele>131</ele>
        <time>2011-04-15T13:01:08Z</time>
      </trkpt>
      <trkpt lat="48.41087" lon="2.1357">
        <ele>131</ele>
        <time>2011-04-15T13:01:09Z</time>
      </trkpt>
      <trkpt lat="48.41086" lon="2.13568">
        <ele>131</ele>
        <time>2011-04-15T13:01:10Z</time>
      </trkpt>
      <trkpt lat="48.41084" lon="2.13567">
        <ele>131</ele>
        <time>2011-04-15T13:01:11Z</time>
      </trkpt>
      <trkpt lat="48.41083" lon="2.13566">
        <ele>131</ele>
        <time>2011-04-15T13:01:12Z</time>
      </trkpt>
      <trkpt lat="48.41081" lon="2.13566">
        <ele>131</ele>
        <time>2011-04-15T13:01:13Z</time>
      </trkpt>
      <trkpt lat="48.4108" lon="2.13566">
        <ele>131</ele>
        <time>2011-04-15T13:01:14Z</time>
      </trkpt>
      <trkpt lat="48.41078" lon="2.13566">
        <ele>131</ele>
        <time>2011-04-15T13:01:15Z</time>
      </trkpt>
      <trkpt lat="48.41077" lon="2.13566">
        <ele>131</ele>
        <time>2011-04-15T13:01:16Z</time>
      </trkpt>
      <trkpt lat="48.41075" lon="2.13567">
        <ele>131</ele>
        <time>2011-04-15T13:01:17Z</time>
      </trkpt>
      <trkpt lat="48.41074" lon="2.13569">
        <ele>131</ele>
        <time>2011-04-15T13:01:18Z</time>
      </trkpt>
      <trkpt lat="48.41073" lon="2.1357">
        <ele>130</ele>
        <time>2011-04-15T13:01:19Z</time>
      </trkpt>
      <trkpt lat="48.41071" lon="2.13572">
        <ele>130</ele>
        <time>2011-04-15T13:01:20Z</time>
      </trkpt>
      <trkpt lat="48.4107" lon="2.13574">
        <ele>130</ele>
        <time>2011-04-15T13:01:21Z</time>
      </trkpt>
      <trkpt lat="48.41069" lon="2.13577">
        <ele>130</ele>
        <time>2011-04-15T13:01:22Z</time>
      </trkpt>
      <trkpt lat="48.41069" lon="2.13579">
        <ele>130</ele>
        <time>2011-04-15T13:01:23Z</time>
      </trkpt>
      <trkpt lat="48.41068" lon="2.13581">
        <ele>130</ele>
        <time>2011-04-15T13:01:24Z</time>
      </trkpt>
      <trkpt lat="48.41067" lon="2.13583">
        <ele>130</ele>
        <time>2011-04-15T13:01:25Z</time>
      </trkpt>
      <trkpt lat="48.41066" lon="2.13585">
        <ele>130</ele>
        <time>2011-04-15T13:01:26Z</time>
      </trkpt>
      <trkpt lat="48.41065" lon="2.13587">
        <ele>129</ele>
        <time>2011-04-15T13:01:27Z</time>
      </trkpt>
      <trkpt lat="48.41064" lon="2.13589">
        <ele>129</ele>
        <time>2011-04-15T13:01:28Z</time>
      </trkpt>
      <trkpt lat="48.41063" lon="2.13591">
        <ele>129</ele>
        <time>2011-04-15T13:01:29Z</time>
      </trkpt>
      <trkpt lat="48.41063" lon="2.13594">
        <ele>129</ele>
        <time>2011-04-15T13:01:30Z</time>
      </trkpt>
      <trkpt lat="48.41062" lon="2.13596">
        <ele>129</ele>
        <time>2011-04-15T13:01:31Z</time>
      </trkpt>
      <trkpt lat="48.41061" lon="2.13598">
        <ele>129</ele>
        <time>2011-04-15T13:01:32Z</time>
      </trkpt>
      <trkpt lat="48.4106" lon="2.136">
        <ele>129</ele>
        <time>2011-04-15T13:01:33Z</time>
      </trkpt>
      <trkpt lat="48.4106" lon="2.13602">
        <ele>129</ele>
        <time>2011-04-15T13:01:34Z</time>
      </trkpt>
      <trkpt lat="48.41059" lon="2.13604">
        <ele>128</ele>
        <time>2011-04-15T13:01:35Z</time>
      </trkpt>
      <trkpt lat="48.41058" lon="2.13606">
        <ele>128</ele>
        <time>2011-04-15T13:01:36Z</time>
      </trkpt>
      <trkpt lat="48.41058" lon="2.13609">
        <ele>128</ele>
        <time>2011-04-15T13:01:37Z</time>
      </trkpt>
      <trkpt lat="48.41057" lon="2.13611">
        <ele>128</ele>
        <time>2011-04-15T13:01:38Z</time>
      </trkpt>
      <trkpt lat="48.41056" lon="2.13613">
        <ele>128</ele>
        <time>2011-04-15T13:01:39Z</time>
      </trkpt>
      <trkpt lat="48.41055" lon="2.13615">
        <ele>128</ele>
        <time>2011-04-15T13:01:40Z</time>
      </trkpt>
      <trkpt lat="48.41054" lon="2.13617">
        <ele>128</ele>
        <time>2011-04-15T13:01:41Z</time>
      </trkpt>
      <trkpt lat="48.41053" lon="2.1362">
        <ele>128</ele>
        <time>2011-04-15T13:01:42Z</time>
      </trkpt>
      <trkpt lat="48.41052" lon="2.13622">
        <ele>128</ele>
        <time>2011-04-15T13:01:43Z</time>
      </trkpt>
      <trkpt lat="48.41051" lon="2.13625">
        <ele>128</ele>
        <time>2011-04-15T13:01:44Z</time>
      </trkpt>
      <trkpt lat="48.41049" lon="2.13629">
        <ele>127</ele>
        <time>2011-04-15T13:01:45Z</time>
      </trkpt>
      <trkpt lat="48.41048" lon="2.13633">
        <ele>127</ele>
        <time>2011-04-15T13:01:46Z</time>
      </trkpt>
      <trkpt lat="48.41045" lon="2.13639">
        <ele>127</ele>
        <time>2011-04-15T13:01:47Z</time>
      </trkpt>
      <trkpt lat="48.41043" lon="2.13644">
        <ele>127</ele>
        <time>2011-04-15T13:01:48Z</time>
      </trkpt>
      <trkpt lat="48.41041" lon="2.13649">
        <ele>126</ele>
        <time>2011-04-15T13:01:49Z</time>
      </trkpt>
      <trkpt lat="48.41039" lon="2.13653">
        <ele>126</ele>
        <time>2011-04-15T13:01:50Z</time>
      </trkpt>
      <trkpt lat="48.41038" lon="2.13657">
        <ele>125</ele>
        <time>2011-04-15T13:01:51Z</time>
      </trkpt>
      <trkpt lat="48.41036" lon="2.13661">
        <ele>125</ele>
        <time>2011-04-15T13:01:52Z</time>
      </trkpt>
      <trkpt lat="48.41034" lon="2.13665">
        <ele>124</ele>
        <time>2011-04-15T13:01:53Z</time>
      </trkpt>
      <trkpt lat="48.41032" lon="2.13668">
        <ele>124</ele>
        <time>2011-04-15T13:01:54Z</time>
      </trkpt>
      <trkpt lat="48.41031" lon="2.13671">
        <ele>124</ele>
        <time>2011-04-15T13:01:55Z</time>
      </trkpt>
      <trkpt lat="48.41029" lon="2.13674">
        <ele>123</ele>
        <time>2011-04-15T13:01:56Z</time>
      </trkpt>
      <trkpt lat="48.41027" lon="2.13677">
        <ele>123</ele>
        <time>2011-04-15T13:01:57Z</time>
      </trkpt>
      <trkpt lat="48.41025" lon="2.13679">
        <ele>123</ele>
        <time>2011-04-15T13:01:58Z</time>
      </trkpt>
      <trkpt lat="48.41024" lon="2.13681">
        <ele>122</ele>
        <time>2011-04-15T13:01:59Z</time>
      </trkpt>
      <trkpt lat="48.41022" lon="2.13683">
        <ele>122</ele>
        <time>2011-04-15T13:02:00Z</time>
      </trkpt>
      <trkpt lat="48.41021" lon="2.13686">
        <ele>121</ele>
        <time>2011-04-15T13:02:01Z</time>
      </trkpt>
      <trkpt lat="48.41018" lon="2.13688">
        <ele>121</ele>
        <time>2011-04-15T13:02:02Z</time>
      </trkpt>
      <trkpt lat="48.41016" lon="2.1369">
        <ele>121</ele>
        <time>2011-04-15T13:02:03Z</time>
      </trkpt>
      <trkpt lat="48.41014" lon="2.13692">
        <ele>121</ele>
        <time>2011-04-15T13:02:04Z</time>
      </trkpt>
      <trkpt lat="48.41012" lon="2.13694">
        <ele>121</ele>
        <time>2011-04-15T13:02:05Z</time>
      </trkpt>
      <trkpt lat="48.4101" lon="2.13696">
        <ele>121</ele>
        <time>2011-04-15T13:02:06Z</time>
      </trkpt>
      <trkpt lat="48.41008" lon="2.13699">
        <ele>120</ele>
        <time>2011-04-15T13:02:07Z</time>
      </trkpt>
      <trkpt lat="48.41006" lon="2.137">
        <ele>120</ele>
        <time>2011-04-15T13:02:08Z</time>
      </trkpt>
      <trkpt lat="48.41003" lon="2.13702">
        <ele>120</ele>
        <time>2011-04-15T13:02:09Z</time>
      </trkpt>
      <trkpt lat="48.41001" lon="2.13704">
        <ele>120</ele>
        <time>2011-04-15T13:02:10Z</time>
      </trkpt>
      <trkpt lat="48.40998" lon="2.13707">
        <ele>120</ele>
        <time>2011-04-15T13:02:11Z</time>
      </trkpt>
      <trkpt lat="48.40996" lon="2.13709">
        <ele>120</ele>
        <time>2011-04-15T13:02:12Z</time>
      </trkpt>
      <trkpt lat="48.40994" lon="2.13712">
        <ele>120</ele>
        <time>2011-04-15T13:02:13Z</time>
      </trkpt>
      <trkpt lat="48.40993" lon="2.13714">
        <ele>119</ele>
        <time>2011-04-15T13:02:14Z</time>
      </trkpt>
      <trkpt lat="48.40991" lon="2.13716">
        <ele>119</ele>
        <time>2011-04-15T13:02:15Z</time>
      </trkpt>
      <trkpt lat="48.40989" lon="2.13719">
        <ele>119</ele>
        <time>2011-04-15T13:02:16Z</time>
      </trkpt>
      <trkpt lat="48.40987" lon="2.13722">
        <ele>119</ele>
        <time>2011-04-15T13:02:17Z</time>
      </trkpt>
      <trkpt lat="48.40985" lon="2.13725">
        <ele>119</ele>
        <time>2011-04-15T13:02:18Z</time>
      </trkpt>
      <trkpt lat="48.40983" lon="2.13728">
        <ele>119</ele>
        <time>2011-04-15T13:02:19Z</time>
      </trkpt>
      <trkpt lat="48.40982" lon="2.13732">
        <ele>119</ele>
        <time>2011-04-15T13:02:20Z</time>
      </trkpt>
      <trkpt lat="48.40981" lon="2.13735">
        <ele>119</ele>
        <time>2011-04-15T13:02:21Z</time>
      </trkpt>
      <trkpt lat="48.4098" lon="2.13739">
        <ele>119</ele>
        <time>2011-04-15T13:02:22Z</time>
      </trkpt>
      <trkpt lat="48.40978" lon="2.13743">
        <ele>119</ele>
        <time>2011-04-15T13:02:23Z</time>
      </trkpt>
      <trkpt lat="48.40977" lon="2.13747">
        <ele>119</ele>
        <time>2011-04-15T13:02:24Z</time>
      </trkpt>
      <trkpt lat="48.40975" lon="2.1375">
        <ele>119</ele>
        <time>2011-04-15T13:02:25Z</time>
      </trkpt>
      <trkpt lat="48.40974" lon="2.13754">
        <ele>119</ele>
        <time>2011-04-15T13:02:26Z</time>
      </trkpt>
      <trkpt lat="48.40972" lon="2.13759">
        <ele>119</ele>
        <time>2011-04-15T13:02:27Z</time>
      </trkpt>
      <trkpt lat="48.40971" lon="2.13763">
        <ele>119</ele>
        <time>2011-04-15T13:02:28Z</time>
      </trkpt>
      <trkpt lat="48.40969" lon="2.13767">
        <ele>119</ele>
        <time>2011-04-15T13:02:29Z</time>
      </trkpt>
      <trkpt lat="48.40967" lon="2.13771">
        <ele>119</ele>
        <time>2011-04-15T13:02:30Z</time>
      </trkpt>
      <trkpt lat="48.40965" lon="2.13774">
        <ele>119</ele>
        <time>2011-04-15T13:02:31Z</time>
      </trkpt>
      <trkpt lat="48.40963" lon="2.13777">
        <ele>119</ele>
        <time>2011-04-15T13:02:32Z</time>
      </trkpt>
      <trkpt lat="48.40961" lon="2.13781">
        <ele>119</ele>
        <time>2011-04-15T13:02:33Z</time>
      </trkpt>
      <trkpt lat="48.40959" lon="2.13784">
        <ele>119</ele>
        <time>2011-04-15T13:02:34Z</time>
      </trkpt>
      <trkpt lat="48.40957" lon="2.13787">
        <ele>119</ele>
        <time>2011-04-15T13:02:35Z</time>
      </trkpt>
      <trkpt lat="48.40954" lon="2.1379">
        <ele>119</ele>
        <time>2011-04-15T13:02:36Z</time>
      </trkpt>
      <trkpt lat="48.40952" lon="2.13793">
        <ele>119</ele>
        <time>2011-04-15T13:02:37Z</time>
      </trkpt>
      <trkpt lat="48.4095" lon="2.13795">
        <ele>119</ele>
        <time>2011-04-15T13:02:38Z</time>
      </trkpt>
      <trkpt lat="48.40948" lon="2.13796">
        <ele>119</ele>
        <time>2011-04-15T13:02:39Z</time>
      </trkpt>
      <trkpt lat="48.40946" lon="2.13797">
        <ele>119</ele>
        <time>2011-04-15T13:02:40Z</time>
      </trkpt>
      <trkpt lat="48.40944" lon="2.13798">
        <ele>119</ele>
        <time>2011-04-15T13:02:41Z</time>
      </trkpt>
      <trkpt lat="48.40943" lon="2.13799">
        <ele>120</ele>
        <time>2011-04-15T13:02:42Z</time>
      </trkpt>
      <trkpt lat="48.40941" lon="2.13799">
        <ele>120</ele>
        <time>2011-04-15T13:02:43Z</time>
      </trkpt>
      <trkpt lat="48.40939" lon="2.138">
        <ele>120</ele>
        <time>2011-04-15T13:02:44Z</time>
      </trkpt>
      <trkpt lat="48.40937" lon="2.138">
        <ele>120</ele>
        <time>2011-04-15T13:02:45Z</time>
      </trkpt>
      <trkpt lat="48.40934" lon="2.138">
        <ele>120</ele>
        <time>2011-04-15T13:02:46Z</time>
      </trkpt>
      <trkpt lat="48.40931" lon="2.138">
        <ele>121</ele>
        <time>2011-04-15T13:02:47Z</time>
      </trkpt>
      <trkpt lat="48.40928" lon="2.138">
        <ele>121</ele>
        <time>2011-04-15T13:02:48Z</time>
      </trkpt>
      <trkpt lat="48.40925" lon="2.138">
        <ele>121</ele>
        <time>2011-04-15T13:02:49Z</time>
      </trkpt>
      <trkpt lat="48.40921" lon="2.13799">
        <ele>121</ele>
        <time>2011-04-15T13:02:50Z</time>
      </trkpt>
      <trkpt lat="48.40917" lon="2.13798">
        <ele>121</ele>
        <time>2011-04-15T13:02:51Z</time>
      </trkpt>
      <trkpt lat="48.40913" lon="2.13798">
        <ele>122</ele>
        <time>2011-04-15T13:02:52Z</time>
      </trkpt>
      <trkpt lat="48.40909" lon="2.13798">
        <ele>122</ele>
        <time>2011-04-15T13:02:53Z</time>
      </trkpt>
      <trkpt lat="48.40906" lon="2.13798">
        <ele>122</ele>
        <time>2011-04-15T13:02:54Z</time>
      </trkpt>
      <trkpt lat="48.40902" lon="2.13798">
        <ele>122</ele>
        <time>2011-04-15T13:02:55Z</time>
      </trkpt>
      <trkpt lat="48.40898" lon="2.13797">
        <ele>123</ele>
        <time>2011-04-15T13:02:56Z</time>
      </trkpt>
      <trkpt lat="48.40894" lon="2.13796">
        <ele>123</ele>
        <time>2011-04-15T13:02:57Z</time>
      </trkpt>
      <trkpt lat="48.4089" lon="2.13796">
        <ele>123</ele>
        <time>2011-04-15T13:02:58Z</time>
      </trkpt>
      <trkpt lat="48.40886" lon="2.13795">
        <ele>123</ele>
        <time>2011-04-15T13:02:59Z</time>
      </trkpt>
      <trkpt lat="48.40882" lon="2.13794">
        <ele>123</ele>
        <time>2011-04-15T13:03:00Z</time>
      </trkpt>
      <trkpt lat="48.40877" lon="2.13794">
        <ele>123</ele>
        <time>2011-04-15T13:03:01Z</time>
      </trkpt>
      <trkpt lat="48.40874" lon="2.13793">
        <ele>123</ele>
        <time>2011-04-15T13:03:02Z</time>
      </trkpt>
      <trkpt lat="48.40869" lon="2.13792">
        <ele>123</ele>
        <time>2011-04-15T13:03:03Z</time>
      </trkpt>
      <trkpt lat="48.40865" lon="2.13792">
        <ele>123</ele>
        <time>2011-04-15T13:03:04Z</time>
      </trkpt>
      <trkpt lat="48.40861" lon="2.13791">
        <ele>123</ele>
        <time>2011-04-15T13:03:05Z</time>
      </trkpt>
      <trkpt lat="48.40857" lon="2.13791">
        <ele>123</ele>
        <time>2011-04-15T13:03:06Z</time>
      </trkpt>
      <trkpt lat="48.40852" lon="2.1379">
        <ele>123</ele>
        <time>2011-04-15T13:03:07Z</time>
      </trkpt>
      <trkpt lat="48.40848" lon="2.13789">
        <ele>123</ele>
        <time>2011-04-15T13:03:08Z</time>
      </trkpt>
      <trkpt lat="48.40844" lon="2.13788">
        <ele>124</ele>
        <time>2011-04-15T13:03:09Z</time>
      </trkpt>
      <trkpt lat="48.4084" lon="2.13788">
        <ele>124</ele>
        <time>2011-04-15T13:03:10Z</time>
      </trkpt>
      <trkpt lat="48.40836" lon="2.13787">
        <ele>124</ele>
        <time>2011-04-15T13:03:11Z</time>
      </trkpt>
      <trkpt lat="48.40831" lon="2.13786">
        <ele>124</ele>
        <time>2011-04-15T13:03:12Z</time>
      </trkpt>
      <trkpt lat="48.40827" lon="2.13785">
        <ele>124</ele>
        <time>2011-04-15T13:03:13Z</time>
      </trkpt>
      <trkpt lat="48.40823" lon="2.13784">
        <ele>124</ele>
        <time>2011-04-15T13:03:14Z</time>
      </trkpt>
      <trkpt lat="48.40819" lon="2.13784">
        <ele>124</ele>
        <time>2011-04-15T13:03:15Z</time>
      </trkpt>
      <trkpt lat="48.40815" lon="2.13782">
        <ele>124</ele>
        <time>2011-04-15T13:03:16Z</time>
      </trkpt>
      <trkpt lat="48.40811" lon="2.13781">
        <ele>124</ele>
        <time>2011-04-15T13:03:17Z</time>
      </trkpt>
      <trkpt lat="48.40807" lon="2.1378">
        <ele>124</ele>
        <time>2011-04-15T13:03:18Z</time>
      </trkpt>
      <trkpt lat="48.40803" lon="2.13778">
        <ele>124</ele>
        <time>2011-04-15T13:03:19Z</time>
      </trkpt>
      <trkpt lat="48.40799" lon="2.13777">
        <ele>124</ele>
        <time>2011-04-15T13:03:20Z</time>
      </trkpt>
      <trkpt lat="48.40795" lon="2.13775">
        <ele>124</ele>
        <time>2011-04-15T13:03:21Z</time>
      </trkpt>
      <trkpt lat="48.40791" lon="2.13773">
        <ele>124</ele>
        <time>2011-04-15T13:03:22Z</time>
      </trkpt>
      <trkpt lat="48.40787" lon="2.13771">
        <ele>124</ele>
        <time>2011-04-15T13:03:23Z</time>
      </trkpt>
      <trkpt lat="48.40783" lon="2.13769">
        <ele>124</ele>
        <time>2011-04-15T13:03:24Z</time>
      </trkpt>
      <trkpt lat="48.40779" lon="2.13768">
        <ele>124</ele>
        <time>2011-04-15T13:03:25Z</time>
      </trkpt>
      <trkpt lat="48.40775" lon="2.13767">
        <ele>124</ele>
        <time>2011-04-15T13:03:26Z</time>
      </trkpt>
      <trkpt lat="48.40771" lon="2.13765">
        <ele>124</ele>
        <time>2011-04-15T13:03:27Z</time>
      </trkpt>
      <trkpt lat="48.40767" lon="2.13764">
        <ele>124</ele>
        <time>2011-04-15T13:03:28Z</time>
      </trkpt>
      <trkpt lat="48.40763" lon="2.13763">
        <ele>125</ele>
        <time>2011-04-15T13:03:29Z</time>
      </trkpt>
      <trkpt lat="48.40758" lon="2.13761">
        <ele>125</ele>
        <time>2011-04-15T13:03:30Z</time>
      </trkpt>
      <trkpt lat="48.40754" lon="2.13759">
        <ele>125</ele>
        <time>2011-04-15T13:03:31Z</time>
      </trkpt>
      <trkpt lat="48.4075" lon="2.13758">
        <ele>125</ele>
        <time>2011-04-15T13:03:32Z</time>
      </trkpt>
      <trkpt lat="48.40746" lon="2.13756">
        <ele>125</ele>
        <time>2011-04-15T13:03:33Z</time>
      </trkpt>
      <trkpt lat="48.40742" lon="2.13754">
        <ele>125</ele>
        <time>2011-04-15T13:03:34Z</time>
      </trkpt>
      <trkpt lat="48.40738" lon="2.13752">
        <ele>125</ele>
        <time>2011-04-15T13:03:35Z</time>
      </trkpt>
      <trkpt lat="48.40733" lon="2.13751">
        <ele>125</ele>
        <time>2011-04-15T13:03:36Z</time>
      </trkpt>
      <trkpt lat="48.40729" lon="2.13749">
        <ele>125</ele>
        <time>2011-04-15T13:03:37Z</time>
      </trkpt>
      <trkpt lat="48.40724" lon="2.13748">
        <ele>125</ele>
        <time>2011-04-15T13:03:38Z</time>
      </trkpt>
      <trkpt lat="48.40719" lon="2.13746">
        <ele>125</ele>
        <time>2011-04-15T13:03:39Z</time>
      </trkpt>
      <trkpt lat="48.40715" lon="2.13744">
        <ele>125</ele>
        <time>2011-04-15T13:03:40Z</time>
      </trkpt>
      <trkpt lat="48.40711" lon="2.13742">
        <ele>125</ele>
        <time>2011-04-15T13:03:41Z</time>
      </trkpt>
      <trkpt lat="48.40707" lon="2.13741">
        <ele>125</ele>
        <time>2011-04-15T13:03:42Z</time>
      </trkpt>
      <trkpt lat="48.40703" lon="2.13739">
        <ele>125</ele>
        <time>2011-04-15T13:03:43Z</time>
      </trkpt>
      <trkpt lat="48.40699" lon="2.13738">
        <ele>125</ele>
        <time>2011-04-15T13:03:44Z</time>
      </trkpt>
      <trkpt lat="48.40695" lon="2.13737">
        <ele>125</ele>
        <time>2011-04-15T13:03:45Z</time>
      </trkpt>
      <trkpt lat="48.40691" lon="2.13735">
        <ele>125</ele>
        <time>2011-04-15T13:03:46Z</time>
      </trkpt>
      <trkpt lat="48.40686" lon="2.13734">
        <ele>125</ele>
        <time>2011-04-15T13:03:47Z</time>
      </trkpt>
      <trkpt lat="48.40682" lon="2.13732">
        <ele>125</ele>
        <time>2011-04-15T13:03:48Z</time>
      </trkpt>
      <trkpt lat="48.40677" lon="2.13731">
        <ele>125</ele>
        <time>2011-04-15T13:03:49Z</time>
      </trkpt>
      <trkpt lat="48.40673" lon="2.13729">
        <ele>125</ele>
        <time>2011-04-15T13:03:50Z</time>
      </trkpt>
      <trkpt lat="48.40669" lon="2.13727">
        <ele>125</ele>
        <time>2011-04-15T13:03:51Z</time>
      </trkpt>
      <trkpt lat="48.40665" lon="2.13725">
        <ele>125</ele>
        <time>2011-04-15T13:03:52Z</time>
      </trkpt>
      <trkpt lat="48.4066" lon="2.13723">
        <ele>125</ele>
        <time>2011-04-15T13:03:53Z</time>
      </trkpt>
      <trkpt lat="48.40656" lon="2.13721">
        <ele>125</ele>
        <time>2011-04-15T13:03:54Z</time>
      </trkpt>
      <trkpt lat="48.40651" lon="2.13719">
        <ele>125</ele>
        <time>2011-04-15T13:03:55Z</time>
      </trkpt>
      <trkpt lat="48.40647" lon="2.13717">
        <ele>125</ele>
        <time>2011-04-15T13:03:56Z</time>
      </trkpt>
      <trkpt lat="48.40643" lon="2.13715">
        <ele>125</ele>
        <time>2011-04-15T13:03:57Z</time>
      </trkpt>
      <trkpt lat="48.4064" lon="2.13713">
        <ele>125</ele>
        <time>2011-04-15T13:03:58Z</time>
      </trkpt>
      <trkpt lat="48.40636" lon="2.13712">
        <ele>126</ele>
        <time>2011-04-15T13:03:59Z</time>
      </trkpt>
      <trkpt lat="48.40633" lon="2.13709">
        <ele>126</ele>
        <time>2011-04-15T13:04:00Z</time>
      </trkpt>
      <trkpt lat="48.40629" lon="2.13707">
        <ele>126</ele>
        <time>2011-04-15T13:04:01Z</time>
      </trkpt>
      <trkpt lat="48.40625" lon="2.13704">
        <ele>126</ele>
        <time>2011-04-15T13:04:02Z</time>
      </trkpt>
      <trkpt lat="48.40622" lon="2.13702">
        <ele>126</ele>
        <time>2011-04-15T13:04:03Z</time>
      </trkpt>
      <trkpt lat="48.40618" lon="2.13699">
        <ele>126</ele>
        <time>2011-04-15T13:04:04Z</time>
      </trkpt>
      <trkpt lat="48.40614" lon="2.13696">
        <ele>126</ele>
        <time>2011-04-15T13:04:05Z</time>
      </trkpt>
      <trkpt lat="48.40611" lon="2.13693">
        <ele>126</ele>
        <time>2011-04-15T13:04:06Z</time>
      </trkpt>
      <trkpt lat="48.40607" lon="2.13691">
        <ele>126</ele>
        <time>2011-04-15T13:04:07Z</time>
      </trkpt>
      <trkpt lat="48.40603" lon="2.13688">
        <ele>126</ele>
        <time>2011-04-15T13:04:08Z</time>
      </trkpt>
      <trkpt lat="48.40599" lon="2.13685">
        <ele>126</ele>
        <time>2011-04-15T13:04:09Z</time>
      </trkpt>
      <trkpt lat="48.40596" lon="2.13683">
        <ele>126</ele>
        <time>2011-04-15T13:04:10Z</time>
      </trkpt>
      <trkpt lat="48.40592" lon="2.1368">
        <ele>126</ele>
        <time>2011-04-15T13:04:11Z</time>
      </trkpt>
      <trkpt lat="48.40588" lon="2.13678">
        <ele>126</ele>
        <time>2011-04-15T13:04:12Z</time>
      </trkpt>
      <trkpt lat="48.40584" lon="2.13675">
        <ele>126</ele>
        <time>2011-04-15T13:04:13Z</time>
      </trkpt>
      <trkpt lat="48.4058" lon="2.13673">
        <ele>126</ele>
        <time>2011-04-15T13:04:14Z</time>
      </trkpt>
      <trkpt lat="48.40577" lon="2.1367">
        <ele>126</ele>
        <time>2011-04-15T13:04:15Z</time>
      </trkpt>
      <trkpt lat="48.40573" lon="2.13668">
        <ele>126</ele>
        <time>2011-04-15T13:04:16Z</time>
      </trkpt>
      <trkpt lat="48.40569" lon="2.13666">
        <ele>126</ele>
        <time>2011-04-15T13:04:17Z</time>
      </trkpt>
      <trkpt lat="48.40566" lon="2.13663">
        <ele>126</ele>
        <time>2011-04-15T13:04:18Z</time>
      </trkpt>
      <trkpt lat="48.40562" lon="2.13661">
        <ele>126</ele>
        <time>2011-04-15T13:04:19Z</time>
      </trkpt>
      <trkpt lat="48.40559" lon="2.13658">
        <ele>126</ele>
        <time>2011-04-15T13:04:20Z</time>
      </trkpt>
      <trkpt lat="48.40555" lon="2.13655">
        <ele>126</ele>
        <time>2011-04-15T13:04:21Z</time>
      </trkpt>
      <trkpt lat="48.40551" lon="2.13652">
        <ele>126</ele>
        <time>2011-04-15T13:04:22Z</time>
      </trkpt>
      <trkpt lat="48.40548" lon="2.13649">
        <ele>126</ele>
        <time>2011-04-15T13:04:23Z</time>
      </trkpt>
      <trkpt lat="48.40544" lon="2.13646">
        <ele>126</ele>
        <time>2011-04-15T13:04:24Z</time>
      </trkpt>
      <trkpt lat="48.40541" lon="2.13643">
        <ele>126</ele>
        <time>2011-04-15T13:04:25Z</time>
      </trkpt>
      <trkpt lat="48.40538" lon="2.1364">
        <ele>126</ele>
        <time>2011-04-15T13:04:26Z</time>
      </trkpt>
      <trkpt lat="48.40534" lon="2.13637">
        <ele>126</ele>
        <time>2011-04-15T13:04:27Z</time>
      </trkpt>
      <trkpt lat="48.40531" lon="2.13633">
        <ele>126</ele>
        <time>2011-04-15T13:04:28Z</time>
      </trkpt>
      <trkpt lat="48.40528" lon="2.13629">
        <ele>126</ele>
        <time>2011-04-15T13:04:29Z</time>
      </trkpt>
      <trkpt lat="48.40525" lon="2.13624">
        <ele>126</ele>
        <time>2011-04-15T13:04:30Z</time>
      </trkpt>
      <trkpt lat="48.40522" lon="2.1362">
        <ele>126</ele>
        <time>2011-04-15T13:04:31Z</time>
      </trkpt>
      <trkpt lat="48.40521" lon="2.13615">
        <ele>126</ele>
        <time>2011-04-15T13:04:32Z</time>
      </trkpt>
      <trkpt lat="48.40519" lon="2.13609">
        <ele>126</ele>
        <time>2011-04-15T13:04:33Z</time>
      </trkpt>
      <trkpt lat="48.40518" lon="2.13604">
        <ele>126</ele>
        <time>2011-04-15T13:04:34Z</time>
      </trkpt>
      <trkpt lat="48.40517" lon="2.13599">
        <ele>126</ele>
        <time>2011-04-15T13:04:35Z</time>
      </trkpt>
      <trkpt lat="48.40515" lon="2.13594">
        <ele>126</ele>
        <time>2011-04-15T13:04:36Z</time>
      </trkpt>
      <trkpt lat="48.40513" lon="2.1359">
        <ele>126</ele>
        <time>2011-04-15T13:04:37Z</time>
      </trkpt>
      <trkpt lat="48.4051" lon="2.13586">
        <ele>126</ele>
        <time>2011-04-15T13:04:38Z</time>
      </trkpt>
      <trkpt lat="48.40507" lon="2.13584">
        <ele>126</ele>
        <time>2011-04-15T13:04:39Z</time>
      </trkpt>
      <trkpt lat="48.40503" lon="2.13582">
        <ele>126</ele>
        <time>2011-04-15T13:04:40Z</time>
      </trkpt>
      <trkpt lat="48.405" lon="2.13581">
        <ele>126</ele>
        <time>2011-04-15T13:04:41Z</time>
      </trkpt>
      <trkpt lat="48.40496" lon="2.1358">
        <ele>126</ele>
        <time>2011-04-15T13:04:42Z</time>
      </trkpt>
      <trkpt lat="48.40492" lon="2.13578">
        <ele>126</ele>
        <time>2011-04-15T13:04:43Z</time>
      </trkpt>
      <trkpt lat="48.40488" lon="2.13577">
        <ele>126</ele>
        <time>2011-04-15T13:04:44Z</time>
      </trkpt>
      <trkpt lat="48.40484" lon="2.13576">
        <ele>126</ele>
        <time>2011-04-15T13:04:45Z</time>
      </trkpt>
      <trkpt lat="48.40479" lon="2.13574">
        <ele>126</ele>
        <time>2011-04-15T13:04:46Z</time>
      </trkpt>
      <trkpt lat="48.40475" lon="2.13573">
        <ele>126</ele>
        <time>2011-04-15T13:04:47Z</time>
      </trkpt>
      <trkpt lat="48.40471" lon="2.13572">
        <ele>126</ele>
        <time>2011-04-15T13:04:48Z</time>
      </trkpt>
      <trkpt lat="48.40468" lon="2.13571">
        <ele>126</ele>
        <time>2011-04-15T13:04:49Z</time>
      </trkpt>
      <trkpt lat="48.40465" lon="2.13571">
        <ele>126</ele>
        <time>2011-04-15T13:04:50Z</time>
      </trkpt>
      <trkpt lat="48.40462" lon="2.1357">
        <ele>126</ele>
        <time>2011-04-15T13:04:51Z</time>
      </trkpt>
      <trkpt lat="48.4046" lon="2.1357">
        <ele>126</ele>
        <time>2011-04-15T13:04:52Z</time>
      </trkpt>
      <trkpt lat="48.40459" lon="2.1357">
        <ele>126</ele>
        <time>2011-04-15T13:04:53Z</time>
      </trkpt>
      <trkpt lat="48.40457" lon="2.1357">
        <ele>126</ele>
        <time>2011-04-15T13:04:54Z</time>
      </trkpt>
      <trkpt lat="48.40456" lon="2.1357">
        <ele>126</ele>
        <time>2011-04-15T13:04:55Z</time>
      </trkpt>
      <trkpt lat="48.40455" lon="2.1357">
        <ele>126</ele>
        <time>2011-04-15T13:04:56Z</time>
      </trkpt>
      <trkpt lat="48.40453" lon="2.1357">
        <ele>126</ele>
        <time>2011-04-15T13:04:57Z</time>
      </trkpt>
      <trkpt lat="48.40452" lon="2.1357">
        <ele>126</ele>
        <time>2011-04-15T13:04:58Z</time>
      </trkpt>
      <trkpt lat="48.40451" lon="2.13571">
        <ele>126</ele>
        <time>2011-04-15T13:04:59Z</time>
      </trkpt>
      <trkpt lat="48.40448" lon="2.13573">
        <ele>126</ele>
        <time>2011-04-15T13:05:01Z</time>
      </trkpt>
      <trkpt lat="48.40447" lon="2.13575">
        <ele>126</ele>
        <time>2011-04-15T13:05:02Z</time>
      </trkpt>
      <trkpt lat="48.40447" lon="2.13577">
        <ele>126</ele>
        <time>2011-04-15T13:05:03Z</time>
      </trkpt>
      <trkpt lat="48.40446" lon="2.13579">
        <ele>126</ele>
        <time>2011-04-15T13:05:06Z</time>
      </trkpt>
      <trkpt lat="48.40446" lon="2.13582">
        <ele>126</ele>
        <time>2011-04-15T13:05:09Z</time>
      </trkpt>
      <trkpt lat="48.40446" lon="2.13584">
        <ele>126</ele>
        <time>2011-04-15T13:05:10Z</time>
      </trkpt>
      <trkpt lat="48.40446" lon="2.13586">
        <ele>126</ele>
        <time>2011-04-15T13:05:11Z</time>
      </trkpt>
      <trkpt lat="48.40445" lon="2.13588">
        <ele>126</ele>
        <time>2011-04-15T13:05:12Z</time>
      </trkpt>
      <trkpt lat="48.40445" lon="2.1359">
        <ele>126</ele>
        <time>2011-04-15T13:05:13Z</time>
      </trkpt>
      <trkpt lat="48.40445" lon="2.13592">
        <ele>126</ele>
        <time>2011-04-15T13:05:14Z</time>
      </trkpt>
      <trkpt lat="48.40445" lon="2.13594">
        <ele>126</ele>
        <time>2011-04-15T13:05:15Z</time>
      </trkpt>
      <trkpt lat="48.40445" lon="2.13596">
        <ele>126</ele>
        <time>2011-04-15T13:05:16Z</time>
      </trkpt>
      <trkpt lat="48.40445" lon="2.13598">
        <ele>126</ele>
        <time>2011-04-15T13:05:17Z</time>
      </trkpt>
      <trkpt lat="48.40445" lon="2.13601">
        <ele>126</ele>
        <time>2011-04-15T13:05:18Z</time>
      </trkpt>
      <trkpt lat="48.40445" lon="2.13603">
        <ele>126</ele>
        <time>2011-04-15T13:05:19Z</time>
      </trkpt>
      <trkpt lat="48.40444" lon="2.13605">
        <ele>126</ele>
        <time>2011-04-15T13:05:20Z</time>
      </trkpt>
      <trkpt lat="48.40444" lon="2.13608">
        <ele>126</ele>
        <time>2011-04-15T13:05:21Z</time>
      </trkpt>
      <trkpt lat="48.40444" lon="2.1361">
        <ele>126</ele>
        <time>2011-04-15T13:05:22Z</time>
      </trkpt>
      <trkpt lat="48.40444" lon="2.13612">
        <ele>126</ele>
        <time>2011-04-15T13:05:23Z</time>
      </trkpt>
      <trkpt lat="48.40444" lon="2.13615">
        <ele>126</ele>
        <time>2011-04-15T13:05:24Z</time>
      </trkpt>
      <trkpt lat="48.40444" lon="2.13617">
        <ele>126</ele>
        <time>2011-04-15T13:05:25Z</time>
      </trkpt>
      <trkpt lat="48.40444" lon="2.13619">
        <ele>126</ele>
        <time>2011-04-15T13:05:26Z</time>
      </trkpt>
      <trkpt lat="48.40444" lon="2.13621">
        <ele>126</ele>
        <time>2011-04-15T13:05:27Z</time>
      </trkpt>
      <trkpt lat="48.40444" lon="2.13623">
        <ele>125</ele>
        <time>2011-04-15T13:05:28Z</time>
      </trkpt>
      <trkpt lat="48.40444" lon="2.13626">
        <ele>125</ele>
        <time>2011-04-15T13:05:29Z</time>
      </trkpt>
      <trkpt lat="48.40444" lon="2.13628">
        <ele>124</ele>
        <time>2011-04-15T13:05:30Z</time>
      </trkpt>
      <trkpt lat="48.40443" lon="2.1363">
        <ele>124</ele>
        <time>2011-04-15T13:05:31Z</time>
      </trkpt>
      <trkpt lat="48.40443" lon="2.13632">
        <ele>123</ele>
        <time>2011-04-15T13:05:32Z</time>
      </trkpt>
      <trkpt lat="48.40443" lon="2.13635">
        <ele>123</ele>
        <time>2011-04-15T13:05:33Z</time>
      </trkpt>
      <trkpt lat="48.40443" lon="2.13637">
        <ele>123</ele>
        <time>2011-04-15T13:05:34Z</time>
      </trkpt>
      <trkpt lat="48.40444" lon="2.13639">
        <ele>122</ele>
        <time>2011-04-15T13:05:35Z</time>
      </trkpt>
      <trkpt lat="48.40444" lon="2.13641">
        <ele>122</ele>
        <time>2011-04-15T13:05:36Z</time>
      </trkpt>
      <trkpt lat="48.40444" lon="2.13643">
        <ele>122</ele>
        <time>2011-04-15T13:05:37Z</time>
      </trkpt>
      <trkpt lat="48.40444" lon="2.13645">
        <ele>122</ele>
        <time>2011-04-15T13:05:38Z</time>
      </trkpt>
      <trkpt lat="48.40444" lon="2.13647">
        <ele>122</ele>
        <time>2011-04-15T13:05:39Z</time>
      </trkpt>
      <trkpt lat="48.40444" lon="2.13649">
        <ele>121</ele>
        <time>2011-04-15T13:05:40Z</time>
      </trkpt>
      <trkpt lat="48.40444" lon="2.13651">
        <ele>121</ele>
        <time>2011-04-15T13:05:41Z</time>
      </trkpt>
      <trkpt lat="48.40444" lon="2.13653">
        <ele>121</ele>
        <time>2011-04-15T13:05:42Z</time>
      </trkpt>
      <trkpt lat="48.40444" lon="2.13656">
        <ele>120</ele>
        <time>2011-04-15T13:05:43Z</time>
      </trkpt>
      <trkpt lat="48.40444" lon="2.13658">
        <ele>120</ele>
        <time>2011-04-15T13:05:44Z</time>
      </trkpt>
      <trkpt lat="48.40444" lon="2.1366">
        <ele>120</ele>
        <time>2011-04-15T13:05:45Z</time>
      </trkpt>
      <trkpt lat="48.40444" lon="2.13662">
        <ele>119</ele>
        <time>2011-04-15T13:05:46Z</time>
      </trkpt>
      <trkpt lat="48.40445" lon="2.13664">
        <ele>119</ele>
        <time>2011-04-15T13:05:47Z</time>
      </trkpt>
      <trkpt lat="48.40445" lon="2.13666">
        <ele>118</ele>
        <time>2011-04-15T13:05:48Z</time>
      </trkpt>
      <trkpt lat="48.40445" lon="2.13669">
        <ele>118</ele>
        <time>2011-04-15T13:05:49Z</time>
      </trkpt>
      <trkpt lat="48.40445" lon="2.13671">
        <ele>117</ele>
        <time>2011-04-15T13:05:50Z</time>
      </trkpt>
      <trkpt lat="48.40444" lon="2.13674">
        <ele>117</ele>
        <time>2011-04-15T13:05:51Z</time>
      </trkpt>
      <trkpt lat="48.40442" lon="2.13677">
        <ele>117</ele>
        <time>2011-04-15T13:05:52Z</time>
      </trkpt>
      <trkpt lat="48.40441" lon="2.1368">
        <ele>117</ele>
        <time>2011-04-15T13:05:53Z</time>
      </trkpt>
      <trkpt lat="48.40439" lon="2.13682">
        <ele>117</ele>
        <time>2011-04-15T13:05:54Z</time>
      </trkpt>
      <trkpt lat="48.40437" lon="2.13683">
        <ele>117</ele>
        <time>2011-04-15T13:05:55Z</time>
      </trkpt>
      <trkpt lat="48.40435" lon="2.13685">
        <ele>117</ele>
        <time>2011-04-15T13:05:56Z</time>
      </trkpt>
      <trkpt lat="48.40434" lon="2.13686">
        <ele>117</ele>
        <time>2011-04-15T13:05:57Z</time>
      </trkpt>
      <trkpt lat="48.40433" lon="2.13687">
        <ele>117</ele>
        <time>2011-04-15T13:05:58Z</time>
      </trkpt>
      <trkpt lat="48.40431" lon="2.13688">
        <ele>117</ele>
        <time>2011-04-15T13:05:59Z</time>
      </trkpt>
      <trkpt lat="48.4043" lon="2.13689">
        <ele>117</ele>
        <time>2011-04-15T13:06:00Z</time>
      </trkpt>
      <trkpt lat="48.40428" lon="2.13692">
        <ele>116</ele>
        <time>2011-04-15T13:06:02Z</time>
      </trkpt>
      <trkpt lat="48.40426" lon="2.13694">
        <ele>116</ele>
        <time>2011-04-15T13:06:03Z</time>
      </trkpt>
      <trkpt lat="48.40425" lon="2.13695">
        <ele>116</ele>
        <time>2011-04-15T13:06:04Z</time>
      </trkpt>
      <trkpt lat="48.40423" lon="2.13697">
        <ele>116</ele>
        <time>2011-04-15T13:06:05Z</time>
      </trkpt>
      <trkpt lat="48.40422" lon="2.13699">
        <ele>116</ele>
        <time>2011-04-15T13:06:06Z</time>
      </trkpt>
      <trkpt lat="48.40421" lon="2.137">
        <ele>116</ele>
        <time>2011-04-15T13:06:07Z</time>
      </trkpt>
      <trkpt lat="48.40419" lon="2.13702">
        <ele>116</ele>
        <time>2011-04-15T13:06:08Z</time>
      </trkpt>
      <trkpt lat="48.40418" lon="2.13704">
        <ele>116</ele>
        <time>2011-04-15T13:06:09Z</time>
      </trkpt>
      <trkpt lat="48.40416" lon="2.13707">
        <ele>116</ele>
        <time>2011-04-15T13:06:11Z</time>
      </trkpt>
      <trkpt lat="48.40414" lon="2.13708">
        <ele>116</ele>
        <time>2011-04-15T13:06:12Z</time>
      </trkpt>
      <trkpt lat="48.40413" lon="2.13709">
        <ele>116</ele>
        <time>2011-04-15T13:06:13Z</time>
      </trkpt>
      <trkpt lat="48.40412" lon="2.13711">
        <ele>116</ele>
        <time>2011-04-15T13:06:14Z</time>
      </trkpt>
      <trkpt lat="48.4041" lon="2.13712">
        <ele>116</ele>
        <time>2011-04-15T13:06:15Z</time>
      </trkpt>
      <trkpt lat="48.40409" lon="2.13712">
        <ele>116</ele>
        <time>2011-04-15T13:06:16Z</time>
      </trkpt>
      <trkpt lat="48.40407" lon="2.13712">
        <ele>116</ele>
        <time>2011-04-15T13:06:17Z</time>
      </trkpt>
      <trkpt lat="48.40406" lon="2.13712">
        <ele>116</ele>
        <time>2011-04-15T13:06:18Z</time>
      </trkpt>
      <trkpt lat="48.40405" lon="2.13712">
        <ele>116</ele>
        <time>2011-04-15T13:06:19Z</time>
      </trkpt>
      <trkpt lat="48.40403" lon="2.13712">
        <ele>116</ele>
        <time>2011-04-15T13:06:20Z</time>
      </trkpt>
      <trkpt lat="48.40402" lon="2.13711">
        <ele>116</ele>
        <time>2011-04-15T13:06:21Z</time>
      </trkpt>
      <trkpt lat="48.40401" lon="2.1371">
        <ele>116</ele>
        <time>2011-04-15T13:06:22Z</time>
      </trkpt>
      <trkpt lat="48.40399" lon="2.13708">
        <ele>116</ele>
        <time>2011-04-15T13:06:24Z</time>
      </trkpt>
      <trkpt lat="48.40397" lon="2.13705">
        <ele>116</ele>
        <time>2011-04-15T13:06:26Z</time>
      </trkpt>
      <trkpt lat="48.40395" lon="2.13702">
        <ele>116</ele>
        <time>2011-04-15T13:06:28Z</time>
      </trkpt>
      <trkpt lat="48.40394" lon="2.137">
        <ele>116</ele>
        <time>2011-04-15T13:06:29Z</time>
      </trkpt>
      <trkpt lat="48.40392" lon="2.13697">
        <ele>117</ele>
        <time>2011-04-15T13:06:31Z</time>
      </trkpt>
      <trkpt lat="48.4039" lon="2.13694">
        <ele>117</ele>
        <time>2011-04-15T13:06:33Z</time>
      </trkpt>
      <trkpt lat="48.40388" lon="2.13691">
        <ele>117</ele>
        <time>2011-04-15T13:06:35Z</time>
      </trkpt>
      <trkpt lat="48.40386" lon="2.13688">
        <ele>118</ele>
        <time>2011-04-15T13:06:37Z</time>
      </trkpt>
      <trkpt lat="48.40385" lon="2.13687">
        <ele>118</ele>
        <time>2011-04-15T13:06:38Z</time>
      </trkpt>
      <trkpt lat="48.40383" lon="2.13685">
        <ele>119</ele>
        <time>2011-04-15T13:06:40Z</time>
      </trkpt>
      <trkpt lat="48.40382" lon="2.13683">
        <ele>119</ele>
        <time>2011-04-15T13:06:41Z</time>
      </trkpt>
      <trkpt lat="48.4038" lon="2.1368">
        <ele>120</ele>
        <time>2011-04-15T13:06:42Z</time>
      </trkpt>
      <trkpt lat="48.40378" lon="2.13678">
        <ele>120</ele>
        <time>2011-04-15T13:06:43Z</time>
      </trkpt>
      <trkpt lat="48.40377" lon="2.13676">
        <ele>121</ele>
        <time>2011-04-15T13:06:45Z</time>
      </trkpt>
      <trkpt lat="48.40375" lon="2.13675">
        <ele>121</ele>
        <time>2011-04-15T13:06:46Z</time>
      </trkpt>
      <trkpt lat="48.40374" lon="2.13672">
        <ele>121</ele>
        <time>2011-04-15T13:06:47Z</time>
      </trkpt>
      <trkpt lat="48.40372" lon="2.1367">
        <ele>121</ele>
        <time>2011-04-15T13:06:48Z</time>
      </trkpt>
      <trkpt lat="48.40371" lon="2.13668">
        <ele>121</ele>
        <time>2011-04-15T13:06:49Z</time>
      </trkpt>
      <trkpt lat="48.4037" lon="2.13667">
        <ele>121</ele>
        <time>2011-04-15T13:06:50Z</time>
      </trkpt>
      <trkpt lat="48.40368" lon="2.13665">
        <ele>121</ele>
        <time>2011-04-15T13:06:51Z</time>
      </trkpt>
      <trkpt lat="48.40367" lon="2.13663">
        <ele>121</ele>
        <time>2011-04-15T13:06:52Z</time>
      </trkpt>
      <trkpt lat="48.40365" lon="2.13662">
        <ele>121</ele>
        <time>2011-04-15T13:06:53Z</time>
      </trkpt>
      <trkpt lat="48.40364" lon="2.13661">
        <ele>121</ele>
        <time>2011-04-15T13:06:54Z</time>
      </trkpt>
      <trkpt lat="48.40362" lon="2.13658">
        <ele>121</ele>
        <time>2011-04-15T13:06:56Z</time>
      </trkpt>
      <trkpt lat="48.4036" lon="2.13658">
        <ele>121</ele>
        <time>2011-04-15T13:06:57Z</time>
      </trkpt>
      <trkpt lat="48.40358" lon="2.13657">
        <ele>121</ele>
        <time>2011-04-15T13:06:58Z</time>
      </trkpt>
      <trkpt lat="48.40356" lon="2.13657">
        <ele>121</ele>
        <time>2011-04-15T13:06:59Z</time>
      </trkpt>
      <trkpt lat="48.40354" lon="2.13657">
        <ele>121</ele>
        <time>2011-04-15T13:07:00Z</time>
      </trkpt>
      <trkpt lat="48.40351" lon="2.13657">
        <ele>122</ele>
        <time>2011-04-15T13:07:01Z</time>
      </trkpt>
      <trkpt lat="48.40349" lon="2.13658">
        <ele>122</ele>
        <time>2011-04-15T13:07:02Z</time>
      </trkpt>
      <trkpt lat="48.40346" lon="2.1366">
        <ele>122</ele>
        <time>2011-04-15T13:07:03Z</time>
      </trkpt>
      <trkpt lat="48.40344" lon="2.13661">
        <ele>122</ele>
        <time>2011-04-15T13:07:04Z</time>
      </trkpt>
      <trkpt lat="48.40343" lon="2.13663">
        <ele>123</ele>
        <time>2011-04-15T13:07:05Z</time>
      </trkpt>
      <trkpt lat="48.40341" lon="2.13664">
        <ele>123</ele>
        <time>2011-04-15T13:07:06Z</time>
      </trkpt>
      <trkpt lat="48.40339" lon="2.13666">
        <ele>123</ele>
        <time>2011-04-15T13:07:07Z</time>
      </trkpt>
      <trkpt lat="48.40338" lon="2.13667">
        <ele>123</ele>
        <time>2011-04-15T13:07:08Z</time>
      </trkpt>
      <trkpt lat="48.40336" lon="2.13669">
        <ele>124</ele>
        <time>2011-04-15T13:07:09Z</time>
      </trkpt>
      <trkpt lat="48.40335" lon="2.13671">
        <ele>124</ele>
        <time>2011-04-15T13:07:10Z</time>
      </trkpt>
      <trkpt lat="48.40333" lon="2.13672">
        <ele>124</ele>
        <time>2011-04-15T13:07:11Z</time>
      </trkpt>
      <trkpt lat="48.40332" lon="2.13674">
        <ele>124</ele>
        <time>2011-04-15T13:07:12Z</time>
      </trkpt>
      <trkpt lat="48.40331" lon="2.13675">
        <ele>124</ele>
        <time>2011-04-15T13:07:13Z</time>
      </trkpt>
      <trkpt lat="48.40329" lon="2.13676">
        <ele>124</ele>
        <time>2011-04-15T13:07:14Z</time>
      </trkpt>
      <trkpt lat="48.40328" lon="2.13677">
        <ele>124</ele>
        <time>2011-04-15T13:07:15Z</time>
      </trkpt>
      <trkpt lat="48.40327" lon="2.13679">
        <ele>124</ele>
        <time>2011-04-15T13:07:16Z</time>
      </trkpt>
      <trkpt lat="48.40326" lon="2.1368">
        <ele>124</ele>
        <time>2011-04-15T13:07:17Z</time>
      </trkpt>
      <trkpt lat="48.40324" lon="2.13681">
        <ele>124</ele>
        <time>2011-04-15T13:07:18Z</time>
      </trkpt>
      <trkpt lat="48.40323" lon="2.13683">
        <ele>124</ele>
        <time>2011-04-15T13:07:19Z</time>
      </trkpt>
      <trkpt lat="48.40322" lon="2.13684">
        <ele>124</ele>
        <time>2011-04-15T13:07:20Z</time>
      </trkpt>
      <trkpt lat="48.4032" lon="2.13685">
        <ele>124</ele>
        <time>2011-04-15T13:07:21Z</time>
      </trkpt>
      <trkpt lat="48.40319" lon="2.13686">
        <ele>124</ele>
        <time>2011-04-15T13:07:22Z</time>
      </trkpt>
      <trkpt lat="48.40318" lon="2.13687">
        <ele>124</ele>
        <time>2011-04-15T13:07:23Z</time>
      </trkpt>
      <trkpt lat="48.40316" lon="2.13688">
        <ele>124</ele>
        <time>2011-04-15T13:07:24Z</time>
      </trkpt>
      <trkpt lat="48.40315" lon="2.13689">
        <ele>124</ele>
        <time>2011-04-15T13:07:25Z</time>
      </trkpt>
      <trkpt lat="48.40313" lon="2.13691">
        <ele>124</ele>
        <time>2011-04-15T13:07:26Z</time>
      </trkpt>
      <trkpt lat="48.40312" lon="2.13692">
        <ele>124</ele>
        <time>2011-04-15T13:07:27Z</time>
      </trkpt>
      <trkpt lat="48.40311" lon="2.13693">
        <ele>124</ele>
        <time>2011-04-15T13:07:28Z</time>
      </trkpt>
      <trkpt lat="48.40309" lon="2.13694">
        <ele>124</ele>
        <time>2011-04-15T13:07:29Z</time>
      </trkpt>
      <trkpt lat="48.40308" lon="2.13695">
        <ele>124</ele>
        <time>2011-04-15T13:07:30Z</time>
      </trkpt>
      <trkpt lat="48.40307" lon="2.13696">
        <ele>124</ele>
        <time>2011-04-15T13:07:31Z</time>
      </trkpt>
      <trkpt lat="48.40305" lon="2.13697">
        <ele>124</ele>
        <time>2011-04-15T13:07:32Z</time>
      </trkpt>
      <trkpt lat="48.40304" lon="2.13697">
        <ele>124</ele>
        <time>2011-04-15T13:07:33Z</time>
      </trkpt>
      <trkpt lat="48.40302" lon="2.13698">
        <ele>124</ele>
        <time>2011-04-15T13:07:34Z</time>
      </trkpt>
      <trkpt lat="48.40301" lon="2.13698">
        <ele>124</ele>
        <time>2011-04-15T13:07:35Z</time>
      </trkpt>
      <trkpt lat="48.403" lon="2.13699">
        <ele>124</ele>
        <time>2011-04-15T13:07:36Z</time>
      </trkpt>
      <trkpt lat="48.40298" lon="2.13699">
        <ele>124</ele>
        <time>2011-04-15T13:07:37Z</time>
      </trkpt>
      <trkpt lat="48.40297" lon="2.137">
        <ele>124</ele>
        <time>2011-04-15T13:07:38Z</time>
      </trkpt>
      <trkpt lat="48.40295" lon="2.137">
        <ele>124</ele>
        <time>2011-04-15T13:07:39Z</time>
      </trkpt>
      <trkpt lat="48.40294" lon="2.137">
        <ele>124</ele>
        <time>2011-04-15T13:07:40Z</time>
      </trkpt>
      <trkpt lat="48.40293" lon="2.13701">
        <ele>125</ele>
        <time>2011-04-15T13:07:41Z</time>
      </trkpt>
      <trkpt lat="48.40291" lon="2.13701">
        <ele>125</ele>
        <time>2011-04-15T13:07:42Z</time>
      </trkpt>
      <trkpt lat="48.4029" lon="2.13702">
        <ele>125</ele>
        <time>2011-04-15T13:07:43Z</time>
      </trkpt>
      <trkpt lat="48.40288" lon="2.13702">
        <ele>125</ele>
        <time>2011-04-15T13:07:44Z</time>
      </trkpt>
      <trkpt lat="48.40287" lon="2.13703">
        <ele>125</ele>
        <time>2011-04-15T13:07:45Z</time>
      </trkpt>
      <trkpt lat="48.40285" lon="2.13704">
        <ele>125</ele>
        <time>2011-04-15T13:07:46Z</time>
      </trkpt>
      <trkpt lat="48.40284" lon="2.13704">
        <ele>125</ele>
        <time>2011-04-15T13:07:47Z</time>
      </trkpt>
      <trkpt lat="48.40282" lon="2.13704">
        <ele>125</ele>
        <time>2011-04-15T13:07:48Z</time>
      </trkpt>
      <trkpt lat="48.40281" lon="2.13705">
        <ele>125</ele>
        <time>2011-04-15T13:07:49Z</time>
      </trkpt>
      <trkpt lat="48.40279" lon="2.13705">
        <ele>125</ele>
        <time>2011-04-15T13:07:50Z</time>
      </trkpt>
      <trkpt lat="48.40278" lon="2.13705">
        <ele>125</ele>
        <time>2011-04-15T13:07:51Z</time>
      </trkpt>
      <trkpt lat="48.40277" lon="2.13705">
        <ele>125</ele>
        <time>2011-04-15T13:07:52Z</time>
      </trkpt>
      <trkpt lat="48.40275" lon="2.13706">
        <ele>125</ele>
        <time>2011-04-15T13:07:53Z</time>
      </trkpt>
      <trkpt lat="48.40274" lon="2.13706">
        <ele>125</ele>
        <time>2011-04-15T13:07:54Z</time>
      </trkpt>
      <trkpt lat="48.40272" lon="2.13706">
        <ele>125</ele>
        <time>2011-04-15T13:07:55Z</time>
      </trkpt>
      <trkpt lat="48.40271" lon="2.13706">
        <ele>125</ele>
        <time>2011-04-15T13:07:56Z</time>
      </trkpt>
      <trkpt lat="48.4027" lon="2.13707">
        <ele>125</ele>
        <time>2011-04-15T13:07:57Z</time>
      </trkpt>
      <trkpt lat="48.40268" lon="2.13707">
        <ele>125</ele>
        <time>2011-04-15T13:07:58Z</time>
      </trkpt>
      <trkpt lat="48.40267" lon="2.13707">
        <ele>125</ele>
        <time>2011-04-15T13:07:59Z</time>
      </trkpt>
      <trkpt lat="48.40265" lon="2.13707">
        <ele>125</ele>
        <time>2011-04-15T13:08:00Z</time>
      </trkpt>
      <trkpt lat="48.40264" lon="2.13707">
        <ele>125</ele>
        <time>2011-04-15T13:08:01Z</time>
      </trkpt>
      <trkpt lat="48.40262" lon="2.13708">
        <ele>125</ele>
        <time>2011-04-15T13:08:02Z</time>
      </trkpt>
      <trkpt lat="48.40261" lon="2.13708">
        <ele>125</ele>
        <time>2011-04-15T13:08:03Z</time>
      </trkpt>
      <trkpt lat="48.4026" lon="2.13708">
        <ele>125</ele>
        <time>2011-04-15T13:08:04Z</time>
      </trkpt>
      <trkpt lat="48.40258" lon="2.13708">
        <ele>125</ele>
        <time>2011-04-15T13:08:05Z</time>
      </trkpt>
      <trkpt lat="48.40257" lon="2.13708">
        <ele>125</ele>
        <time>2011-04-15T13:08:06Z</time>
      </trkpt>
      <trkpt lat="48.40255" lon="2.13708">
        <ele>125</ele>
        <time>2011-04-15T13:08:07Z</time>
      </trkpt>
      <trkpt lat="48.40254" lon="2.13709">
        <ele>125</ele>
        <time>2011-04-15T13:08:08Z</time>
      </trkpt>
      <trkpt lat="48.40252" lon="2.13708">
        <ele>125</ele>
        <time>2011-04-15T13:08:09Z</time>
      </trkpt>
      <trkpt lat="48.40251" lon="2.13708">
        <ele>125</ele>
        <time>2011-04-15T13:08:10Z</time>
      </trkpt>
      <trkpt lat="48.40249" lon="2.13708">
        <ele>125</ele>
        <time>2011-04-15T13:08:11Z</time>
      </trkpt>
      <trkpt lat="48.40247" lon="2.13708">
        <ele>125</ele>
        <time>2011-04-15T13:08:12Z</time>
      </trkpt>
      <trkpt lat="48.40244" lon="2.13709">
        <ele>125</ele>
        <time>2011-04-15T13:08:13Z</time>
      </trkpt>
      <trkpt lat="48.40242" lon="2.13709">
        <ele>125</ele>
        <time>2011-04-15T13:08:14Z</time>
      </trkpt>
      <trkpt lat="48.4024" lon="2.13709">
        <ele>125</ele>
        <time>2011-04-15T13:08:15Z</time>
      </trkpt>
      <trkpt lat="48.40238" lon="2.13709">
        <ele>125</ele>
        <time>2011-04-15T13:08:16Z</time>
      </trkpt>
      <trkpt lat="48.40236" lon="2.13709">
        <ele>125</ele>
        <time>2011-04-15T13:08:17Z</time>
      </trkpt>
      <trkpt lat="48.40235" lon="2.13709">
        <ele>125</ele>
        <time>2011-04-15T13:08:18Z</time>
      </trkpt>
      <trkpt lat="48.40233" lon="2.13709">
        <ele>125</ele>
        <time>2011-04-15T13:08:19Z</time>
      </trkpt>
      <trkpt lat="48.40232" lon="2.13709">
        <ele>125</ele>
        <time>2011-04-15T13:08:20Z</time>
      </trkpt>
      <trkpt lat="48.4023" lon="2.13709">
        <ele>125</ele>
        <time>2011-04-15T13:08:21Z</time>
      </trkpt>
      <trkpt lat="48.40229" lon="2.13709">
        <ele>125</ele>
        <time>2011-04-15T13:08:22Z</time>
      </trkpt>
      <trkpt lat="48.40228" lon="2.13708">
        <ele>125</ele>
        <time>2011-04-15T13:08:23Z</time>
      </trkpt>
      <trkpt lat="48.40226" lon="2.13708">
        <ele>125</ele>
        <time>2011-04-15T13:08:24Z</time>
      </trkpt>
      <trkpt lat="48.40225" lon="2.13708">
        <ele>125</ele>
        <time>2011-04-15T13:08:25Z</time>
      </trkpt>
      <trkpt lat="48.40224" lon="2.13707">
        <ele>125</ele>
        <time>2011-04-15T13:08:26Z</time>
      </trkpt>
      <trkpt lat="48.40222" lon="2.13707">
        <ele>125</ele>
        <time>2011-04-15T13:08:27Z</time>
      </trkpt>
      <trkpt lat="48.40221" lon="2.13707">
        <ele>125</ele>
        <time>2011-04-15T13:08:28Z</time>
      </trkpt>
      <trkpt lat="48.40219" lon="2.13707">
        <ele>125</ele>
        <time>2011-04-15T13:08:29Z</time>
      </trkpt>
      <trkpt lat="48.40218" lon="2.13707">
        <ele>125</ele>
        <time>2011-04-15T13:08:30Z</time>
      </trkpt>
      <trkpt lat="48.40216" lon="2.13707">
        <ele>125</ele>
        <time>2011-04-15T13:08:31Z</time>
      </trkpt>
      <trkpt lat="48.40215" lon="2.13707">
        <ele>125</ele>
        <time>2011-04-15T13:08:32Z</time>
      </trkpt>
      <trkpt lat="48.40213" lon="2.13707">
        <ele>125</ele>
        <time>2011-04-15T13:08:33Z</time>
      </trkpt>
      <trkpt lat="48.40212" lon="2.13706">
        <ele>125</ele>
        <time>2011-04-15T13:08:34Z</time>
      </trkpt>
      <trkpt lat="48.40211" lon="2.13706">
        <ele>125</ele>
        <time>2011-04-15T13:08:35Z</time>
      </trkpt>
      <trkpt lat="48.40209" lon="2.13707">
        <ele>125</ele>
        <time>2011-04-15T13:08:36Z</time>
      </trkpt>
      <trkpt lat="48.40208" lon="2.13707">
        <ele>125</ele>
        <time>2011-04-15T13:08:37Z</time>
      </trkpt>
      <trkpt lat="48.40206" lon="2.13707">
        <ele>125</ele>
        <time>2011-04-15T13:08:38Z</time>
      </trkpt>
      <trkpt lat="48.40205" lon="2.13707">
        <ele>125</ele>
        <time>2011-04-15T13:08:39Z</time>
      </trkpt>
      <trkpt lat="48.40203" lon="2.13707">
        <ele>125</ele>
        <time>2011-04-15T13:08:40Z</time>
      </trkpt>
      <trkpt lat="48.40202" lon="2.13707">
        <ele>125</ele>
        <time>2011-04-15T13:08:41Z</time>
      </trkpt>
      <trkpt lat="48.402" lon="2.13708">
        <ele>125</ele>
        <time>2011-04-15T13:08:42Z</time>
      </trkpt>
      <trkpt lat="48.40199" lon="2.13708">
        <ele>125</ele>
        <time>2011-04-15T13:08:43Z</time>
      </trkpt>
      <trkpt lat="48.40198" lon="2.13708">
        <ele>125</ele>
        <time>2011-04-15T13:08:44Z</time>
      </trkpt>
      <trkpt lat="48.40196" lon="2.13708">
        <ele>125</ele>
        <time>2011-04-15T13:08:45Z</time>
      </trkpt>
      <trkpt lat="48.40195" lon="2.13708">
        <ele>125</ele>
        <time>2011-04-15T13:08:46Z</time>
      </trkpt>
      <trkpt lat="48.40193" lon="2.13709">
        <ele>125</ele>
        <time>2011-04-15T13:08:47Z</time>
      </trkpt>
      <trkpt lat="48.40191" lon="2.1371">
        <ele>125</ele>
        <time>2011-04-15T13:08:48Z</time>
      </trkpt>
      <trkpt lat="48.40188" lon="2.13711">
        <ele>125</ele>
        <time>2011-04-15T13:08:49Z</time>
      </trkpt>
      <trkpt lat="48.40185" lon="2.13712">
        <ele>125</ele>
        <time>2011-04-15T13:08:50Z</time>
      </trkpt>
      <trkpt lat="48.40183" lon="2.13713">
        <ele>125</ele>
        <time>2011-04-15T13:08:51Z</time>
      </trkpt>
      <trkpt lat="48.40182" lon="2.13714">
        <ele>125</ele>
        <time>2011-04-15T13:08:52Z</time>
      </trkpt>
      <trkpt lat="48.4018" lon="2.13716">
        <ele>125</ele>
        <time>2011-04-15T13:08:53Z</time>
      </trkpt>
      <trkpt lat="48.40179" lon="2.13716">
        <ele>125</ele>
        <time>2011-04-15T13:08:54Z</time>
      </trkpt>
      <trkpt lat="48.40177" lon="2.13717">
        <ele>125</ele>
        <time>2011-04-15T13:08:55Z</time>
      </trkpt>
      <trkpt lat="48.40176" lon="2.13718">
        <ele>125</ele>
        <time>2011-04-15T13:08:56Z</time>
      </trkpt>
      <trkpt lat="48.40175" lon="2.13719">
        <ele>125</ele>
        <time>2011-04-15T13:08:57Z</time>
      </trkpt>
      <trkpt lat="48.40173" lon="2.1372">
        <ele>125</ele>
        <time>2011-04-15T13:08:58Z</time>
      </trkpt>
      <trkpt lat="48.40172" lon="2.13721">
        <ele>125</ele>
        <time>2011-04-15T13:08:59Z</time>
      </trkpt>
      <trkpt lat="48.40171" lon="2.13722">
        <ele>125</ele>
        <time>2011-04-15T13:09:00Z</time>
      </trkpt>
      <trkpt lat="48.40169" lon="2.13723">
        <ele>125</ele>
        <time>2011-04-15T13:09:01Z</time>
      </trkpt>
      <trkpt lat="48.40168" lon="2.13724">
        <ele>125</ele>
        <time>2011-04-15T13:09:02Z</time>
      </trkpt>
      <trkpt lat="48.40167" lon="2.13725">
        <ele>125</ele>
        <time>2011-04-15T13:09:03Z</time>
      </trkpt>
      <trkpt lat="48.40165" lon="2.13726">
        <ele>125</ele>
        <time>2011-04-15T13:09:04Z</time>
      </trkpt>
      <trkpt lat="48.40163" lon="2.13728">
        <ele>125</ele>
        <time>2011-04-15T13:09:05Z</time>
      </trkpt>
      <trkpt lat="48.40161" lon="2.13728">
        <ele>125</ele>
        <time>2011-04-15T13:09:06Z</time>
      </trkpt>
      <trkpt lat="48.40159" lon="2.13729">
        <ele>125</ele>
        <time>2011-04-15T13:09:07Z</time>
      </trkpt>
      <trkpt lat="48.40157" lon="2.1373">
        <ele>125</ele>
        <time>2011-04-15T13:09:08Z</time>
      </trkpt>
      <trkpt lat="48.40156" lon="2.13731">
        <ele>125</ele>
        <time>2011-04-15T13:09:09Z</time>
      </trkpt>
      <trkpt lat="48.40154" lon="2.13732">
        <ele>125</ele>
        <time>2011-04-15T13:09:10Z</time>
      </trkpt>
      <trkpt lat="48.40153" lon="2.13733">
        <ele>125</ele>
        <time>2011-04-15T13:09:11Z</time>
      </trkpt>
      <trkpt lat="48.40151" lon="2.13734">
        <ele>125</ele>
        <time>2011-04-15T13:09:12Z</time>
      </trkpt>
      <trkpt lat="48.4015" lon="2.13735">
        <ele>125</ele>
        <time>2011-04-15T13:09:13Z</time>
      </trkpt>
      <trkpt lat="48.40149" lon="2.13735">
        <ele>125</ele>
        <time>2011-04-15T13:09:14Z</time>
      </trkpt>
      <trkpt lat="48.40147" lon="2.13736">
        <ele>125</ele>
        <time>2011-04-15T13:09:15Z</time>
      </trkpt>
      <trkpt lat="48.40146" lon="2.13737">
        <ele>125</ele>
        <time>2011-04-15T13:09:16Z</time>
      </trkpt>
      <trkpt lat="48.40145" lon="2.13738">
        <ele>125</ele>
        <time>2011-04-15T13:09:17Z</time>
      </trkpt>
      <trkpt lat="48.40143" lon="2.13739">
        <ele>125</ele>
        <time>2011-04-15T13:09:18Z</time>
      </trkpt>
      <trkpt lat="48.40142" lon="2.13739">
        <ele>125</ele>
        <time>2011-04-15T13:09:19Z</time>
      </trkpt>
      <trkpt lat="48.40141" lon="2.1374">
        <ele>125</ele>
        <time>2011-04-15T13:09:20Z</time>
      </trkpt>
      <trkpt lat="48.40139" lon="2.13741">
        <ele>125</ele>
        <time>2011-04-15T13:09:21Z</time>
      </trkpt>
      <trkpt lat="48.40138" lon="2.13741">
        <ele>125</ele>
        <time>2011-04-15T13:09:22Z</time>
      </trkpt>
      <trkpt lat="48.40136" lon="2.13742">
        <ele>125</ele>
        <time>2011-04-15T13:09:23Z</time>
      </trkpt>
      <trkpt lat="48.40135" lon="2.13743">
        <ele>125</ele>
        <time>2011-04-15T13:09:24Z</time>
      </trkpt>
      <trkpt lat="48.40134" lon="2.13744">
        <ele>125</ele>
        <time>2011-04-15T13:09:25Z</time>
      </trkpt>
      <trkpt lat="48.40133" lon="2.13745">
        <ele>125</ele>
        <time>2011-04-15T13:09:26Z</time>
      </trkpt>
      <trkpt lat="48.40131" lon="2.13746">
        <ele>125</ele>
        <time>2011-04-15T13:09:28Z</time>
      </trkpt>
      <trkpt lat="48.40129" lon="2.13747">
        <ele>125</ele>
        <time>2011-04-15T13:09:29Z</time>
      </trkpt>
      <trkpt lat="48.40128" lon="2.13748">
        <ele>125</ele>
        <time>2011-04-15T13:09:30Z</time>
      </trkpt>
      <trkpt lat="48.40126" lon="2.13749">
        <ele>125</ele>
        <time>2011-04-15T13:09:31Z</time>
      </trkpt>
      <trkpt lat="48.40125" lon="2.13749">
        <ele>125</ele>
        <time>2011-04-15T13:09:32Z</time>
      </trkpt>
      <trkpt lat="48.40124" lon="2.1375">
        <ele>125</ele>
        <time>2011-04-15T13:09:33Z</time>
      </trkpt>
      <trkpt lat="48.40123" lon="2.13751">
        <ele>125</ele>
        <time>2011-04-15T13:09:34Z</time>
      </trkpt>
      <trkpt lat="48.40121" lon="2.13752">
        <ele>125</ele>
        <time>2011-04-15T13:09:35Z</time>
      </trkpt>
      <trkpt lat="48.4012" lon="2.13753">
        <ele>125</ele>
        <time>2011-04-15T13:09:36Z</time>
      </trkpt>
      <trkpt lat="48.40119" lon="2.13753">
        <ele>125</ele>
        <time>2011-04-15T13:09:37Z</time>
      </trkpt>
      <trkpt lat="48.40117" lon="2.13754">
        <ele>125</ele>
        <time>2011-04-15T13:09:38Z</time>
      </trkpt>
      <trkpt lat="48.40116" lon="2.13755">
        <ele>125</ele>
        <time>2011-04-15T13:09:39Z</time>
      </trkpt>
      <trkpt lat="48.40114" lon="2.13756">
        <ele>125</ele>
        <time>2011-04-15T13:09:40Z</time>
      </trkpt>
      <trkpt lat="48.40113" lon="2.13756">
        <ele>125</ele>
        <time>2011-04-15T13:09:41Z</time>
      </trkpt>
      <trkpt lat="48.40112" lon="2.13756">
        <ele>125</ele>
        <time>2011-04-15T13:09:42Z</time>
      </trkpt>
      <trkpt lat="48.4011" lon="2.13757">
        <ele>125</ele>
        <time>2011-04-15T13:09:43Z</time>
      </trkpt>
      <trkpt lat="48.40108" lon="2.13757">
        <ele>125</ele>
        <time>2011-04-15T13:09:44Z</time>
      </trkpt>
      <trkpt lat="48.40107" lon="2.13758">
        <ele>125</ele>
        <time>2011-04-15T13:09:45Z</time>
      </trkpt>
      <trkpt lat="48.40105" lon="2.13758">
        <ele>125</ele>
        <time>2011-04-15T13:09:46Z</time>
      </trkpt>
      <trkpt lat="48.40104" lon="2.13758">
        <ele>125</ele>
        <time>2011-04-15T13:09:47Z</time>
      </trkpt>
      <trkpt lat="48.40102" lon="2.13759">
        <ele>125</ele>
        <time>2011-04-15T13:09:48Z</time>
      </trkpt>
      <trkpt lat="48.40099" lon="2.13759">
        <ele>125</ele>
        <time>2011-04-15T13:09:49Z</time>
      </trkpt>
      <trkpt lat="48.40097" lon="2.13759">
        <ele>125</ele>
        <time>2011-04-15T13:09:50Z</time>
      </trkpt>
      <trkpt lat="48.40095" lon="2.1376">
        <ele>125</ele>
        <time>2011-04-15T13:09:51Z</time>
      </trkpt>
      <trkpt lat="48.40094" lon="2.1376">
        <ele>125</ele>
        <time>2011-04-15T13:09:52Z</time>
      </trkpt>
      <trkpt lat="48.40092" lon="2.13761">
        <ele>125</ele>
        <time>2011-04-15T13:09:53Z</time>
      </trkpt>
      <trkpt lat="48.40091" lon="2.13761">
        <ele>125</ele>
        <time>2011-04-15T13:09:54Z</time>
      </trkpt>
      <trkpt lat="48.40089" lon="2.13762">
        <ele>125</ele>
        <time>2011-04-15T13:09:55Z</time>
      </trkpt>
      <trkpt lat="48.40087" lon="2.13762">
        <ele>125</ele>
        <time>2011-04-15T13:09:56Z</time>
      </trkpt>
      <trkpt lat="48.40086" lon="2.13762">
        <ele>125</ele>
        <time>2011-04-15T13:09:57Z</time>
      </trkpt>
      <trkpt lat="48.40084" lon="2.13762">
        <ele>125</ele>
        <time>2011-04-15T13:09:58Z</time>
      </trkpt>
      <trkpt lat="48.40082" lon="2.13762">
        <ele>125</ele>
        <time>2011-04-15T13:09:59Z</time>
      </trkpt>
      <trkpt lat="48.40081" lon="2.13763">
        <ele>125</ele>
        <time>2011-04-15T13:10:00Z</time>
      </trkpt>
      <trkpt lat="48.40079" lon="2.13763">
        <ele>125</ele>
        <time>2011-04-15T13:10:01Z</time>
      </trkpt>
      <trkpt lat="48.40078" lon="2.13763">
        <ele>125</ele>
        <time>2011-04-15T13:10:02Z</time>
      </trkpt>
      <trkpt lat="48.40076" lon="2.13763">
        <ele>125</ele>
        <time>2011-04-15T13:10:03Z</time>
      </trkpt>
      <trkpt lat="48.40075" lon="2.13763">
        <ele>125</ele>
        <time>2011-04-15T13:10:04Z</time>
      </trkpt>
      <trkpt lat="48.40073" lon="2.13763">
        <ele>125</ele>
        <time>2011-04-15T13:10:05Z</time>
      </trkpt>
      <trkpt lat="48.40071" lon="2.13763">
        <ele>125</ele>
        <time>2011-04-15T13:10:06Z</time>
      </trkpt>
      <trkpt lat="48.40069" lon="2.13763">
        <ele>125</ele>
        <time>2011-04-15T13:10:07Z</time>
      </trkpt>
      <trkpt lat="48.40068" lon="2.13763">
        <ele>125</ele>
        <time>2011-04-15T13:10:08Z</time>
      </trkpt>
      <trkpt lat="48.40066" lon="2.13763">
        <ele>125</ele>
        <time>2011-04-15T13:10:09Z</time>
      </trkpt>
      <trkpt lat="48.40065" lon="2.13763">
        <ele>125</ele>
        <time>2011-04-15T13:10:10Z</time>
      </trkpt>
      <trkpt lat="48.40063" lon="2.13764">
        <ele>125</ele>
        <time>2011-04-15T13:10:11Z</time>
      </trkpt>
      <trkpt lat="48.40062" lon="2.13764">
        <ele>125</ele>
        <time>2011-04-15T13:10:12Z</time>
      </trkpt>
      <trkpt lat="48.40061" lon="2.13764">
        <ele>125</ele>
        <time>2011-04-15T13:10:13Z</time>
      </trkpt>
      <trkpt lat="48.40059" lon="2.13764">
        <ele>125</ele>
        <time>2011-04-15T13:10:14Z</time>
      </trkpt>
      <trkpt lat="48.40058" lon="2.13765">
        <ele>125</ele>
        <time>2011-04-15T13:10:15Z</time>
      </trkpt>
      <trkpt lat="48.40056" lon="2.13765">
        <ele>125</ele>
        <time>2011-04-15T13:10:16Z</time>
      </trkpt>
      <trkpt lat="48.40055" lon="2.13765">
        <ele>125</ele>
        <time>2011-04-15T13:10:17Z</time>
      </trkpt>
      <trkpt lat="48.40054" lon="2.13765">
        <ele>125</ele>
        <time>2011-04-15T13:10:18Z</time>
      </trkpt>
      <trkpt lat="48.40052" lon="2.13765">
        <ele>125</ele>
        <time>2011-04-15T13:10:19Z</time>
      </trkpt>
      <trkpt lat="48.40051" lon="2.13766">
        <ele>125</ele>
        <time>2011-04-15T13:10:20Z</time>
      </trkpt>
      <trkpt lat="48.40049" lon="2.13766">
        <ele>125</ele>
        <time>2011-04-15T13:10:21Z</time>
      </trkpt>
      <trkpt lat="48.40048" lon="2.13766">
        <ele>125</ele>
        <time>2011-04-15T13:10:22Z</time>
      </trkpt>
      <trkpt lat="48.40046" lon="2.13767">
        <ele>125</ele>
        <time>2011-04-15T13:10:23Z</time>
      </trkpt>
      <trkpt lat="48.40045" lon="2.13767">
        <ele>125</ele>
        <time>2011-04-15T13:10:24Z</time>
      </trkpt>
      <trkpt lat="48.40043" lon="2.13767">
        <ele>125</ele>
        <time>2011-04-15T13:10:25Z</time>
      </trkpt>
      <trkpt lat="48.40042" lon="2.13768">
        <ele>125</ele>
        <time>2011-04-15T13:10:26Z</time>
      </trkpt>
      <trkpt lat="48.4004" lon="2.13768">
        <ele>125</ele>
        <time>2011-04-15T13:10:27Z</time>
      </trkpt>
      <trkpt lat="48.40039" lon="2.13768">
        <ele>125</ele>
        <time>2011-04-15T13:10:28Z</time>
      </trkpt>
      <trkpt lat="48.40037" lon="2.13768">
        <ele>125</ele>
        <time>2011-04-15T13:10:29Z</time>
      </trkpt>
      <trkpt lat="48.40036" lon="2.13769">
        <ele>125</ele>
        <time>2011-04-15T13:10:30Z</time>
      </trkpt>
      <trkpt lat="48.40034" lon="2.13769">
        <ele>125</ele>
        <time>2011-04-15T13:10:31Z</time>
      </trkpt>
      <trkpt lat="48.40032" lon="2.13769">
        <ele>125</ele>
        <time>2011-04-15T13:10:32Z</time>
      </trkpt>
      <trkpt lat="48.40031" lon="2.1377">
        <ele>125</ele>
        <time>2011-04-15T13:10:33Z</time>
      </trkpt>
      <trkpt lat="48.40029" lon="2.1377">
        <ele>125</ele>
        <time>2011-04-15T13:10:34Z</time>
      </trkpt>
      <trkpt lat="48.40028" lon="2.1377">
        <ele>125</ele>
        <time>2011-04-15T13:10:35Z</time>
      </trkpt>
      <trkpt lat="48.40026" lon="2.13771">
        <ele>125</ele>
        <time>2011-04-15T13:10:36Z</time>
      </trkpt>
      <trkpt lat="48.40025" lon="2.13771">
        <ele>125</ele>
        <time>2011-04-15T13:10:37Z</time>
      </trkpt>
      <trkpt lat="48.40023" lon="2.13771">
        <ele>125</ele>
        <time>2011-04-15T13:10:38Z</time>
      </trkpt>
      <trkpt lat="48.40022" lon="2.13771">
        <ele>125</ele>
        <time>2011-04-15T13:10:39Z</time>
      </trkpt>
      <trkpt lat="48.4002" lon="2.13772">
        <ele>125</ele>
        <time>2011-04-15T13:10:40Z</time>
      </trkpt>
      <trkpt lat="48.40019" lon="2.13772">
        <ele>125</ele>
        <time>2011-04-15T13:10:41Z</time>
      </trkpt>
      <trkpt lat="48.40017" lon="2.13772">
        <ele>125</ele>
        <time>2011-04-15T13:10:42Z</time>
      </trkpt>
      <trkpt lat="48.40016" lon="2.13773">
        <ele>125</ele>
        <time>2011-04-15T13:10:43Z</time>
      </trkpt>
      <trkpt lat="48.40014" lon="2.13773">
        <ele>125</ele>
        <time>2011-04-15T13:10:44Z</time>
      </trkpt>
      <trkpt lat="48.40013" lon="2.13773">
        <ele>125</ele>
        <time>2011-04-15T13:10:45Z</time>
      </trkpt>
      <trkpt lat="48.40011" lon="2.13774">
        <ele>125</ele>
        <time>2011-04-15T13:10:46Z</time>
      </trkpt>
      <trkpt lat="48.4001" lon="2.13774">
        <ele>125</ele>
        <time>2011-04-15T13:10:47Z</time>
      </trkpt>
      <trkpt lat="48.40008" lon="2.13774">
        <ele>125</ele>
        <time>2011-04-15T13:10:48Z</time>
      </trkpt>
      <trkpt lat="48.40006" lon="2.13775">
        <ele>125</ele>
        <time>2011-04-15T13:10:49Z</time>
      </trkpt>
      <trkpt lat="48.40005" lon="2.13776">
        <ele>125</ele>
        <time>2011-04-15T13:10:50Z</time>
      </trkpt>
      <trkpt lat="48.40003" lon="2.13776">
        <ele>125</ele>
        <time>2011-04-15T13:10:51Z</time>
      </trkpt>
      <trkpt lat="48.40002" lon="2.13777">
        <ele>125</ele>
        <time>2011-04-15T13:10:52Z</time>
      </trkpt>
      <trkpt lat="48.40001" lon="2.13777">
        <ele>125</ele>
        <time>2011-04-15T13:10:53Z</time>
      </trkpt>
      <trkpt lat="48.39999" lon="2.13777">
        <ele>125</ele>
        <time>2011-04-15T13:10:54Z</time>
      </trkpt>
      <trkpt lat="48.39997" lon="2.13778">
        <ele>125</ele>
        <time>2011-04-15T13:10:55Z</time>
      </trkpt>
      <trkpt lat="48.39995" lon="2.13779">
        <ele>125</ele>
        <time>2011-04-15T13:10:56Z</time>
      </trkpt>
      <trkpt lat="48.39993" lon="2.13779">
        <ele>125</ele>
        <time>2011-04-15T13:10:57Z</time>
      </trkpt>
      <trkpt lat="48.3999" lon="2.13779">
        <ele>125</ele>
        <time>2011-04-15T13:10:58Z</time>
      </trkpt>
      <trkpt lat="48.39988" lon="2.1378">
        <ele>125</ele>
        <time>2011-04-15T13:10:59Z</time>
      </trkpt>
      <trkpt lat="48.39986" lon="2.1378">
        <ele>125</ele>
        <time>2011-04-15T13:11:00Z</time>
      </trkpt>
      <trkpt lat="48.39984" lon="2.1378">
        <ele>125</ele>
        <time>2011-04-15T13:11:01Z</time>
      </trkpt>
      <trkpt lat="48.39983" lon="2.13781">
        <ele>125</ele>
        <time>2011-04-15T13:11:02Z</time>
      </trkpt>
      <trkpt lat="48.39981" lon="2.13781">
        <ele>125</ele>
        <time>2011-04-15T13:11:03Z</time>
      </trkpt>
      <trkpt lat="48.3998" lon="2.13782">
        <ele>125</ele>
        <time>2011-04-15T13:11:04Z</time>
      </trkpt>
      <trkpt lat="48.39978" lon="2.13782">
        <ele>125</ele>
        <time>2011-04-15T13:11:05Z</time>
      </trkpt>
      <trkpt lat="48.39977" lon="2.13782">
        <ele>125</ele>
        <time>2011-04-15T13:11:06Z</time>
      </trkpt>
      <trkpt lat="48.39975" lon="2.13783">
        <ele>125</ele>
        <time>2011-04-15T13:11:07Z</time>
      </trkpt>
      <trkpt lat="48.39974" lon="2.13783">
        <ele>125</ele>
        <time>2011-04-15T13:11:08Z</time>
      </trkpt>
      <trkpt lat="48.39972" lon="2.13783">
        <ele>125</ele>
        <time>2011-04-15T13:11:09Z</time>
      </trkpt>
      <trkpt lat="48.39971" lon="2.13783">
        <ele>125</ele>
        <time>2011-04-15T13:11:10Z</time>
      </trkpt>
      <trkpt lat="48.39969" lon="2.13783">
        <ele>125</ele>
        <time>2011-04-15T13:11:11Z</time>
      </trkpt>
      <trkpt lat="48.39968" lon="2.13783">
        <ele>125</ele>
        <time>2011-04-15T13:11:12Z</time>
      </trkpt>
      <trkpt lat="48.39966" lon="2.13783">
        <ele>125</ele>
        <time>2011-04-15T13:11:13Z</time>
      </trkpt>
      <trkpt lat="48.39965" lon="2.13783">
        <ele>125</ele>
        <time>2011-04-15T13:11:14Z</time>
      </trkpt>
      <trkpt lat="48.39963" lon="2.13784">
        <ele>125</ele>
        <time>2011-04-15T13:11:15Z</time>
      </trkpt>
      <trkpt lat="48.39962" lon="2.13784">
        <ele>125</ele>
        <time>2011-04-15T13:11:16Z</time>
      </trkpt>
      <trkpt lat="48.39961" lon="2.13785">
        <ele>125</ele>
        <time>2011-04-15T13:11:17Z</time>
      </trkpt>
      <trkpt lat="48.39959" lon="2.13785">
        <ele>125</ele>
        <time>2011-04-15T13:11:18Z</time>
      </trkpt>
      <trkpt lat="48.39958" lon="2.13785">
        <ele>125</ele>
        <time>2011-04-15T13:11:19Z</time>
      </trkpt>
      <trkpt lat="48.39956" lon="2.13786">
        <ele>125</ele>
        <time>2011-04-15T13:11:20Z</time>
      </trkpt>
      <trkpt lat="48.39955" lon="2.13787">
        <ele>125</ele>
        <time>2011-04-15T13:11:21Z</time>
      </trkpt>
      <trkpt lat="48.39954" lon="2.13787">
        <ele>125</ele>
        <time>2011-04-15T13:11:22Z</time>
      </trkpt>
      <trkpt lat="48.39952" lon="2.13788">
        <ele>125</ele>
        <time>2011-04-15T13:11:23Z</time>
      </trkpt>
      <trkpt lat="48.39951" lon="2.13789">
        <ele>125</ele>
        <time>2011-04-15T13:11:24Z</time>
      </trkpt>
      <trkpt lat="48.39949" lon="2.1379">
        <ele>125</ele>
        <time>2011-04-15T13:11:25Z</time>
      </trkpt>
      <trkpt lat="48.39948" lon="2.13791">
        <ele>125</ele>
        <time>2011-04-15T13:11:26Z</time>
      </trkpt>
      <trkpt lat="48.39947" lon="2.13792">
        <ele>125</ele>
        <time>2011-04-15T13:11:27Z</time>
      </trkpt>
      <trkpt lat="48.39945" lon="2.13793">
        <ele>125</ele>
        <time>2011-04-15T13:11:28Z</time>
      </trkpt>
      <trkpt lat="48.39944" lon="2.13795">
        <ele>125</ele>
        <time>2011-04-15T13:11:29Z</time>
      </trkpt>
      <trkpt lat="48.39943" lon="2.13797">
        <ele>124</ele>
        <time>2011-04-15T13:11:30Z</time>
      </trkpt>
      <trkpt lat="48.39942" lon="2.13798">
        <ele>124</ele>
        <time>2011-04-15T13:11:31Z</time>
      </trkpt>
      <trkpt lat="48.39941" lon="2.138">
        <ele>124</ele>
        <time>2011-04-15T13:11:32Z</time>
      </trkpt>
      <trkpt lat="48.3994" lon="2.13802">
        <ele>124</ele>
        <time>2011-04-15T13:11:33Z</time>
      </trkpt>
      <trkpt lat="48.39938" lon="2.13804">
        <ele>124</ele>
        <time>2011-04-15T13:11:34Z</time>
      </trkpt>
      <trkpt lat="48.39938" lon="2.13805">
        <ele>124</ele>
        <time>2011-04-15T13:11:35Z</time>
      </trkpt>
      <trkpt lat="48.39937" lon="2.13807">
        <ele>124</ele>
        <time>2011-04-15T13:11:36Z</time>
      </trkpt>
      <trkpt lat="48.39936" lon="2.13809">
        <ele>123</ele>
        <time>2011-04-15T13:11:37Z</time>
      </trkpt>
      <trkpt lat="48.39935" lon="2.13811">
        <ele>123</ele>
        <time>2011-04-15T13:11:38Z</time>
      </trkpt>
      <trkpt lat="48.39933" lon="2.13813">
        <ele>123</ele>
        <time>2011-04-15T13:11:39Z</time>
      </trkpt>
      <trkpt lat="48.39932" lon="2.13815">
        <ele>123</ele>
        <time>2011-04-15T13:11:40Z</time>
      </trkpt>
      <trkpt lat="48.39931" lon="2.13817">
        <ele>123</ele>
        <time>2011-04-15T13:11:41Z</time>
      </trkpt>
      <trkpt lat="48.39931" lon="2.13819">
        <ele>123</ele>
        <time>2011-04-15T13:11:42Z</time>
      </trkpt>
      <trkpt lat="48.3993" lon="2.13821">
        <ele>123</ele>
        <time>2011-04-15T13:11:43Z</time>
      </trkpt>
      <trkpt lat="48.39929" lon="2.13823">
        <ele>123</ele>
        <time>2011-04-15T13:11:44Z</time>
      </trkpt>
      <trkpt lat="48.39928" lon="2.13825">
        <ele>123</ele>
        <time>2011-04-15T13:11:45Z</time>
      </trkpt>
      <trkpt lat="48.39926" lon="2.13828">
        <ele>123</ele>
        <time>2011-04-15T13:11:47Z</time>
      </trkpt>
      <trkpt lat="48.39926" lon="2.1383">
        <ele>123</ele>
        <time>2011-04-15T13:11:48Z</time>
      </trkpt>
      <trkpt lat="48.39925" lon="2.13832">
        <ele>123</ele>
        <time>2011-04-15T13:11:49Z</time>
      </trkpt>
      <trkpt lat="48.39924" lon="2.13835">
        <ele>123</ele>
        <time>2011-04-15T13:11:50Z</time>
      </trkpt>
      <trkpt lat="48.39923" lon="2.13837">
        <ele>123</ele>
        <time>2011-04-15T13:11:51Z</time>
      </trkpt>
      <trkpt lat="48.39922" lon="2.13839">
        <ele>123</ele>
        <time>2011-04-15T13:11:52Z</time>
      </trkpt>
      <trkpt lat="48.39922" lon="2.13841">
        <ele>123</ele>
        <time>2011-04-15T13:11:53Z</time>
      </trkpt>
      <trkpt lat="48.39921" lon="2.13843">
        <ele>123</ele>
        <time>2011-04-15T13:11:54Z</time>
      </trkpt>
      <trkpt lat="48.3992" lon="2.13845">
        <ele>122</ele>
        <time>2011-04-15T13:11:55Z</time>
      </trkpt>
      <trkpt lat="48.3992" lon="2.13847">
        <ele>122</ele>
        <time>2011-04-15T13:11:56Z</time>
      </trkpt>
      <trkpt lat="48.39919" lon="2.1385">
        <ele>122</ele>
        <time>2011-04-15T13:11:57Z</time>
      </trkpt>
      <trkpt lat="48.39918" lon="2.13854">
        <ele>122</ele>
        <time>2011-04-15T13:11:58Z</time>
      </trkpt>
      <trkpt lat="48.39917" lon="2.13858">
        <ele>122</ele>
        <time>2011-04-15T13:11:59Z</time>
      </trkpt>
      <trkpt lat="48.39916" lon="2.13862">
        <ele>122</ele>
        <time>2011-04-15T13:12:00Z</time>
      </trkpt>
      <trkpt lat="48.39915" lon="2.13865">
        <ele>122</ele>
        <time>2011-04-15T13:12:01Z</time>
      </trkpt>
      <trkpt lat="48.39914" lon="2.13869">
        <ele>122</ele>
        <time>2011-04-15T13:12:02Z</time>
      </trkpt>
      <trkpt lat="48.39914" lon="2.13873">
        <ele>122</ele>
        <time>2011-04-15T13:12:03Z</time>
      </trkpt>
      <trkpt lat="48.39913" lon="2.13876">
        <ele>122</ele>
        <time>2011-04-15T13:12:04Z</time>
      </trkpt>
      <trkpt lat="48.39913" lon="2.13879">
        <ele>122</ele>
        <time>2011-04-15T13:12:05Z</time>
      </trkpt>
      <trkpt lat="48.39913" lon="2.13882">
        <ele>122</ele>
        <time>2011-04-15T13:12:06Z</time>
      </trkpt>
      <trkpt lat="48.39912" lon="2.13884">
        <ele>122</ele>
        <time>2011-04-15T13:12:07Z</time>
      </trkpt>
      <trkpt lat="48.39912" lon="2.13886">
        <ele>122</ele>
        <time>2011-04-15T13:12:08Z</time>
      </trkpt>
      <trkpt lat="48.39912" lon="2.13889">
        <ele>122</ele>
        <time>2011-04-15T13:12:09Z</time>
      </trkpt>
      <trkpt lat="48.39912" lon="2.13891">
        <ele>122</ele>
        <time>2011-04-15T13:12:10Z</time>
      </trkpt>
      <trkpt lat="48.39912" lon="2.13893">
        <ele>122</ele>
        <time>2011-04-15T13:12:11Z</time>
      </trkpt>
      <trkpt lat="48.39911" lon="2.13895">
        <ele>122</ele>
        <time>2011-04-15T13:12:12Z</time>
      </trkpt>
      <trkpt lat="48.39911" lon="2.13897">
        <ele>122</ele>
        <time>2011-04-15T13:12:13Z</time>
      </trkpt>
      <trkpt lat="48.39911" lon="2.13899">
        <ele>122</ele>
        <time>2011-04-15T13:12:14Z</time>
      </trkpt>
      <trkpt lat="48.3991" lon="2.13901">
        <ele>121</ele>
        <time>2011-04-15T13:12:15Z</time>
      </trkpt>
      <trkpt lat="48.3991" lon="2.13904">
        <ele>121</ele>
        <time>2011-04-15T13:12:16Z</time>
      </trkpt>
      <trkpt lat="48.3991" lon="2.13906">
        <ele>121</ele>
        <time>2011-04-15T13:12:17Z</time>
      </trkpt>
      <trkpt lat="48.3991" lon="2.13908">
        <ele>121</ele>
        <time>2011-04-15T13:12:18Z</time>
      </trkpt>
      <trkpt lat="48.3991" lon="2.1391">
        <ele>120</ele>
        <time>2011-04-15T13:12:19Z</time>
      </trkpt>
      <trkpt lat="48.3991" lon="2.13912">
        <ele>120</ele>
        <time>2011-04-15T13:12:20Z</time>
      </trkpt>
      <trkpt lat="48.3991" lon="2.13915">
        <ele>120</ele>
        <time>2011-04-15T13:12:21Z</time>
      </trkpt>
      <trkpt lat="48.3991" lon="2.13917">
        <ele>120</ele>
        <time>2011-04-15T13:12:22Z</time>
      </trkpt>
      <trkpt lat="48.3991" lon="2.13919">
        <ele>119</ele>
        <time>2011-04-15T13:12:23Z</time>
      </trkpt>
      <trkpt lat="48.3991" lon="2.13922">
        <ele>119</ele>
        <time>2011-04-15T13:12:24Z</time>
      </trkpt>
      <trkpt lat="48.3991" lon="2.13924">
        <ele>119</ele>
        <time>2011-04-15T13:12:25Z</time>
      </trkpt>
      <trkpt lat="48.3991" lon="2.13927">
        <ele>119</ele>
        <time>2011-04-15T13:12:26Z</time>
      </trkpt>
      <trkpt lat="48.3991" lon="2.13929">
        <ele>119</ele>
        <time>2011-04-15T13:12:27Z</time>
      </trkpt>
      <trkpt lat="48.3991" lon="2.13931">
        <ele>119</ele>
        <time>2011-04-15T13:12:28Z</time>
      </trkpt>
      <trkpt lat="48.3991" lon="2.13933">
        <ele>119</ele>
        <time>2011-04-15T13:12:29Z</time>
      </trkpt>
      <trkpt lat="48.39911" lon="2.13936">
        <ele>118</ele>
        <time>2011-04-15T13:12:30Z</time>
      </trkpt>
      <trkpt lat="48.39911" lon="2.13938">
        <ele>118</ele>
        <time>2011-04-15T13:12:31Z</time>
      </trkpt>
      <trkpt lat="48.39911" lon="2.1394">
        <ele>118</ele>
        <time>2011-04-15T13:12:32Z</time>
      </trkpt>
      <trkpt lat="48.39911" lon="2.13942">
        <ele>118</ele>
        <time>2011-04-15T13:12:33Z</time>
      </trkpt>
      <trkpt lat="48.39912" lon="2.13945">
        <ele>118</ele>
        <time>2011-04-15T13:12:34Z</time>
      </trkpt>
      <trkpt lat="48.39912" lon="2.13947">
        <ele>118</ele>
        <time>2011-04-15T13:12:35Z</time>
      </trkpt>
      <trkpt lat="48.39912" lon="2.13949">
        <ele>117</ele>
        <time>2011-04-15T13:12:36Z</time>
      </trkpt>
      <trkpt lat="48.39912" lon="2.13951">
        <ele>117</ele>
        <time>2011-04-15T13:12:37Z</time>
      </trkpt>
      <trkpt lat="48.39912" lon="2.13953">
        <ele>117</ele>
        <time>2011-04-15T13:12:38Z</time>
      </trkpt>
      <trkpt lat="48.39912" lon="2.13956">
        <ele>117</ele>
        <time>2011-04-15T13:12:39Z</time>
      </trkpt>
      <trkpt lat="48.39913" lon="2.13958">
        <ele>116</ele>
        <time>2011-04-15T13:12:40Z</time>
      </trkpt>
      <trkpt lat="48.39913" lon="2.1396">
        <ele>116</ele>
        <time>2011-04-15T13:12:41Z</time>
      </trkpt>
      <trkpt lat="48.39914" lon="2.13963">
        <ele>116</ele>
        <time>2011-04-15T13:12:42Z</time>
      </trkpt>
      <trkpt lat="48.39914" lon="2.13965">
        <ele>116</ele>
        <time>2011-04-15T13:12:43Z</time>
      </trkpt>
      <trkpt lat="48.39915" lon="2.13967">
        <ele>116</ele>
        <time>2011-04-15T13:12:44Z</time>
      </trkpt>
      <trkpt lat="48.39915" lon="2.1397">
        <ele>115</ele>
        <time>2011-04-15T13:12:45Z</time>
      </trkpt>
      <trkpt lat="48.39915" lon="2.13972">
        <ele>115</ele>
        <time>2011-04-15T13:12:46Z</time>
      </trkpt>
      <trkpt lat="48.39915" lon="2.13974">
        <ele>115</ele>
        <time>2011-04-15T13:12:47Z</time>
      </trkpt>
      <trkpt lat="48.39915" lon="2.13976">
        <ele>115</ele>
        <time>2011-04-15T13:12:48Z</time>
      </trkpt>
      <trkpt lat="48.39916" lon="2.13979">
        <ele>114</ele>
        <time>2011-04-15T13:12:49Z</time>
      </trkpt>
      <trkpt lat="48.39915" lon="2.13981">
        <ele>114</ele>
        <time>2011-04-15T13:12:50Z</time>
      </trkpt>
      <trkpt lat="48.39915" lon="2.13983">
        <ele>114</ele>
        <time>2011-04-15T13:12:51Z</time>
      </trkpt>
      <trkpt lat="48.39915" lon="2.13986">
        <ele>114</ele>
        <time>2011-04-15T13:12:52Z</time>
      </trkpt>
      <trkpt lat="48.39915" lon="2.13988">
        <ele>114</ele>
        <time>2011-04-15T13:12:53Z</time>
      </trkpt>
      <trkpt lat="48.39915" lon="2.1399">
        <ele>113</ele>
        <time>2011-04-15T13:12:54Z</time>
      </trkpt>
      <trkpt lat="48.39915" lon="2.13992">
        <ele>113</ele>
        <time>2011-04-15T13:12:55Z</time>
      </trkpt>
      <trkpt lat="48.39916" lon="2.13995">
        <ele>113</ele>
        <time>2011-04-15T13:12:56Z</time>
      </trkpt>
      <trkpt lat="48.39916" lon="2.13997">
        <ele>113</ele>
        <time>2011-04-15T13:12:57Z</time>
      </trkpt>
      <trkpt lat="48.39916" lon="2.13999">
        <ele>112</ele>
        <time>2011-04-15T13:12:58Z</time>
      </trkpt>
      <trkpt lat="48.39916" lon="2.14001">
        <ele>112</ele>
        <time>2011-04-15T13:12:59Z</time>
      </trkpt>
      <trkpt lat="48.39917" lon="2.14004">
        <ele>112</ele>
        <time>2011-04-15T13:13:00Z</time>
      </trkpt>
      <trkpt lat="48.39917" lon="2.14006">
        <ele>111</ele>
        <time>2011-04-15T13:13:01Z</time>
      </trkpt>
      <trkpt lat="48.39917" lon="2.14008">
        <ele>111</ele>
        <time>2011-04-15T13:13:02Z</time>
      </trkpt>
      <trkpt lat="48.39918" lon="2.1401">
        <ele>111</ele>
        <time>2011-04-15T13:13:03Z</time>
      </trkpt>
      <trkpt lat="48.39918" lon="2.14012">
        <ele>111</ele>
        <time>2011-04-15T13:13:04Z</time>
      </trkpt>
      <trkpt lat="48.39919" lon="2.14013">
        <ele>110</ele>
        <time>2011-04-15T13:13:05Z</time>
      </trkpt>
      <trkpt lat="48.39919" lon="2.14015">
        <ele>110</ele>
        <time>2011-04-15T13:13:06Z</time>
      </trkpt>
      <trkpt lat="48.3992" lon="2.14017">
        <ele>110</ele>
        <time>2011-04-15T13:13:07Z</time>
      </trkpt>
      <trkpt lat="48.3992" lon="2.14019">
        <ele>110</ele>
        <time>2011-04-15T13:13:08Z</time>
      </trkpt>
      <trkpt lat="48.3992" lon="2.14022">
        <ele>110</ele>
        <time>2011-04-15T13:13:09Z</time>
      </trkpt>
      <trkpt lat="48.39921" lon="2.14024">
        <ele>110</ele>
        <time>2011-04-15T13:13:10Z</time>
      </trkpt>
      <trkpt lat="48.39921" lon="2.14026">
        <ele>110</ele>
        <time>2011-04-15T13:13:11Z</time>
      </trkpt>
      <trkpt lat="48.39921" lon="2.14028">
        <ele>110</ele>
        <time>2011-04-15T13:13:12Z</time>
      </trkpt>
      <trkpt lat="48.39921" lon="2.14031">
        <ele>110</ele>
        <time>2011-04-15T13:13:13Z</time>
      </trkpt>
      <trkpt lat="48.39921" lon="2.14032">
        <ele>110</ele>
        <time>2011-04-15T13:13:14Z</time>
      </trkpt>
      <trkpt lat="48.39921" lon="2.14034">
        <ele>110</ele>
        <time>2011-04-15T13:13:15Z</time>
      </trkpt>
      <trkpt lat="48.3992" lon="2.14037">
        <ele>110</ele>
        <time>2011-04-15T13:13:16Z</time>
      </trkpt>
      <trkpt lat="48.3992" lon="2.14039">
        <ele>109</ele>
        <time>2011-04-15T13:13:17Z</time>
      </trkpt>
      <trkpt lat="48.3992" lon="2.14042">
        <ele>109</ele>
        <time>2011-04-15T13:13:18Z</time>
      </trkpt>
      <trkpt lat="48.3992" lon="2.14044">
        <ele>109</ele>
        <time>2011-04-15T13:13:19Z</time>
      </trkpt>
      <trkpt lat="48.39919" lon="2.14046">
        <ele>108</ele>
        <time>2011-04-15T13:13:20Z</time>
      </trkpt>
      <trkpt lat="48.39919" lon="2.14048">
        <ele>108</ele>
        <time>2011-04-15T13:13:21Z</time>
      </trkpt>
      <trkpt lat="48.39919" lon="2.1405">
        <ele>107</ele>
        <time>2011-04-15T13:13:22Z</time>
      </trkpt>
      <trkpt lat="48.39919" lon="2.14052">
        <ele>106</ele>
        <time>2011-04-15T13:13:23Z</time>
      </trkpt>
      <trkpt lat="48.39919" lon="2.14055">
        <ele>106</ele>
        <time>2011-04-15T13:13:25Z</time>
      </trkpt>
      <trkpt lat="48.3992" lon="2.14057">
        <ele>105</ele>
        <time>2011-04-15T13:13:26Z</time>
      </trkpt>
      <trkpt lat="48.3992" lon="2.1406">
        <ele>105</ele>
        <time>2011-04-15T13:13:28Z</time>
      </trkpt>
      <trkpt lat="48.3992" lon="2.14062">
        <ele>104</ele>
        <time>2011-04-15T13:13:30Z</time>
      </trkpt>
      <trkpt lat="48.3992" lon="2.14066">
        <ele>104</ele>
        <time>2011-04-15T13:13:32Z</time>
      </trkpt>
      <trkpt lat="48.39919" lon="2.14067">
        <ele>103</ele>
        <time>2011-04-15T13:13:33Z</time>
      </trkpt>
      <trkpt lat="48.39916" lon="2.14069">
        <ele>103</ele>
        <time>2011-04-15T13:13:35Z</time>
      </trkpt>
      <trkpt lat="48.39914" lon="2.14069">
        <ele>103</ele>
        <time>2011-04-15T13:13:36Z</time>
      </trkpt>
      <trkpt lat="48.39912" lon="2.14069">
        <ele>102</ele>
        <time>2011-04-15T13:13:37Z</time>
      </trkpt>
      <trkpt lat="48.3991" lon="2.14067">
        <ele>102</ele>
        <time>2011-04-15T13:13:38Z</time>
      </trkpt>
      <trkpt lat="48.39908" lon="2.14066">
        <ele>102</ele>
        <time>2011-04-15T13:13:39Z</time>
      </trkpt>
      <trkpt lat="48.39907" lon="2.14064">
        <ele>102</ele>
        <time>2011-04-15T13:13:40Z</time>
      </trkpt>
      <trkpt lat="48.39906" lon="2.14062">
        <ele>102</ele>
        <time>2011-04-15T13:13:41Z</time>
      </trkpt>
      <trkpt lat="48.39904" lon="2.1406">
        <ele>102</ele>
        <time>2011-04-15T13:13:43Z</time>
      </trkpt>
      <trkpt lat="48.39902" lon="2.14057">
        <ele>102</ele>
        <time>2011-04-15T13:13:45Z</time>
      </trkpt>
      <trkpt lat="48.399" lon="2.14055">
        <ele>102</ele>
        <time>2011-04-15T13:13:47Z</time>
      </trkpt>
      <trkpt lat="48.39898" lon="2.14054">
        <ele>102</ele>
        <time>2011-04-15T13:13:49Z</time>
      </trkpt>
      <trkpt lat="48.39896" lon="2.14051">
        <ele>102</ele>
        <time>2011-04-15T13:13:51Z</time>
      </trkpt>
      <trkpt lat="48.39895" lon="2.14049">
        <ele>102</ele>
        <time>2011-04-15T13:13:53Z</time>
      </trkpt>
      <trkpt lat="48.39893" lon="2.14047">
        <ele>102</ele>
        <time>2011-04-15T13:13:55Z</time>
      </trkpt>
      <trkpt lat="48.39892" lon="2.14045">
        <ele>102</ele>
        <time>2011-04-15T13:13:57Z</time>
      </trkpt>
      <trkpt lat="48.39891" lon="2.14043">
        <ele>102</ele>
        <time>2011-04-15T13:13:59Z</time>
      </trkpt>
      <trkpt lat="48.39889" lon="2.14041">
        <ele>102</ele>
        <time>2011-04-15T13:14:01Z</time>
      </trkpt>
      <trkpt lat="48.39888" lon="2.14039">
        <ele>102</ele>
        <time>2011-04-15T13:14:02Z</time>
      </trkpt>
      <trkpt lat="48.39888" lon="2.14037">
        <ele>102</ele>
        <time>2011-04-15T13:14:03Z</time>
      </trkpt>
      <trkpt lat="48.39886" lon="2.14034">
        <ele>103</ele>
        <time>2011-04-15T13:14:05Z</time>
      </trkpt>
      <trkpt lat="48.39884" lon="2.14031">
        <ele>103</ele>
        <time>2011-04-15T13:14:07Z</time>
      </trkpt>
      <trkpt lat="48.39882" lon="2.14028">
        <ele>104</ele>
        <time>2011-04-15T13:14:09Z</time>
      </trkpt>
      <trkpt lat="48.39881" lon="2.14027">
        <ele>104</ele>
        <time>2011-04-15T13:14:11Z</time>
      </trkpt>
      <trkpt lat="48.39879" lon="2.14023">
        <ele>105</ele>
        <time>2011-04-15T13:14:13Z</time>
      </trkpt>
      <trkpt lat="48.39878" lon="2.14022">
        <ele>105</ele>
        <time>2011-04-15T13:14:14Z</time>
      </trkpt>
      <trkpt lat="48.39877" lon="2.1402">
        <ele>105</ele>
        <time>2011-04-15T13:14:15Z</time>
      </trkpt>
      <trkpt lat="48.39875" lon="2.14018">
        <ele>105</ele>
        <time>2011-04-15T13:14:17Z</time>
      </trkpt>
      <trkpt lat="48.39873" lon="2.14015">
        <ele>106</ele>
        <time>2011-04-15T13:14:19Z</time>
      </trkpt>
      <trkpt lat="48.39871" lon="2.14012">
        <ele>106</ele>
        <time>2011-04-15T13:14:21Z</time>
      </trkpt>
      <trkpt lat="48.39869" lon="2.1401">
        <ele>107</ele>
        <time>2011-04-15T13:14:23Z</time>
      </trkpt>
      <trkpt lat="48.39867" lon="2.14008">
        <ele>107</ele>
        <time>2011-04-15T13:14:25Z</time>
      </trkpt>
      <trkpt lat="48.39865" lon="2.14006">
        <ele>108</ele>
        <time>2011-04-15T13:14:27Z</time>
      </trkpt>
      <trkpt lat="48.39863" lon="2.14004">
        <ele>108</ele>
        <time>2011-04-15T13:14:29Z</time>
      </trkpt>
      <trkpt lat="48.39862" lon="2.14003">
        <ele>108</ele>
        <time>2011-04-15T13:14:30Z</time>
      </trkpt>
      <trkpt lat="48.39861" lon="2.14002">
        <ele>108</ele>
        <time>2011-04-15T13:14:31Z</time>
      </trkpt>
      <trkpt lat="48.39859" lon="2.14">
        <ele>108</ele>
        <time>2011-04-15T13:14:32Z</time>
      </trkpt>
      <trkpt lat="48.39857" lon="2.13998">
        <ele>108</ele>
        <time>2011-04-15T13:14:34Z</time>
      </trkpt>
      <trkpt lat="48.39856" lon="2.13998">
        <ele>108</ele>
        <time>2011-04-15T13:14:35Z</time>
      </trkpt>
      <trkpt lat="48.39854" lon="2.13996">
        <ele>108</ele>
        <time>2011-04-15T13:14:36Z</time>
      </trkpt>
      <trkpt lat="48.39853" lon="2.13995">
        <ele>109</ele>
        <time>2011-04-15T13:14:37Z</time>
      </trkpt>
      <trkpt lat="48.39852" lon="2.13994">
        <ele>109</ele>
        <time>2011-04-15T13:14:38Z</time>
      </trkpt>
      <trkpt lat="48.39851" lon="2.13993">
        <ele>109</ele>
        <time>2011-04-15T13:14:39Z</time>
      </trkpt>
      <trkpt lat="48.39849" lon="2.13992">
        <ele>109</ele>
        <time>2011-04-15T13:14:41Z</time>
      </trkpt>
      <trkpt lat="48.39847" lon="2.1399">
        <ele>109</ele>
        <time>2011-04-15T13:14:43Z</time>
      </trkpt>
      <trkpt lat="48.39846" lon="2.13988">
        <ele>109</ele>
        <time>2011-04-15T13:14:44Z</time>
      </trkpt>
      <trkpt lat="48.39844" lon="2.13986">
        <ele>110</ele>
        <time>2011-04-15T13:14:46Z</time>
      </trkpt>
      <trkpt lat="48.39842" lon="2.13984">
        <ele>111</ele>
        <time>2011-04-15T13:14:48Z</time>
      </trkpt>
      <trkpt lat="48.3984" lon="2.13982">
        <ele>111</ele>
        <time>2011-04-15T13:14:50Z</time>
      </trkpt>
      <trkpt lat="48.39838" lon="2.13981">
        <ele>112</ele>
        <time>2011-04-15T13:14:52Z</time>
      </trkpt>
      <trkpt lat="48.39837" lon="2.1398">
        <ele>112</ele>
        <time>2011-04-15T13:14:53Z</time>
      </trkpt>
      <trkpt lat="48.39835" lon="2.13979">
        <ele>112</ele>
        <time>2011-04-15T13:14:54Z</time>
      </trkpt>
      <trkpt lat="48.39834" lon="2.13978">
        <ele>113</ele>
        <time>2011-04-15T13:14:55Z</time>
      </trkpt>
      <trkpt lat="48.39833" lon="2.13978">
        <ele>113</ele>
        <time>2011-04-15T13:14:56Z</time>
      </trkpt>
      <trkpt lat="48.39832" lon="2.13977">
        <ele>113</ele>
        <time>2011-04-15T13:14:57Z</time>
      </trkpt>
      <trkpt lat="48.39831" lon="2.13976">
        <ele>113</ele>
        <time>2011-04-15T13:14:58Z</time>
      </trkpt>
      <trkpt lat="48.39829" lon="2.13976">
        <ele>113</ele>
        <time>2011-04-15T13:14:59Z</time>
      </trkpt>
      <trkpt lat="48.39828" lon="2.13975">
        <ele>113</ele>
        <time>2011-04-15T13:15:00Z</time>
      </trkpt>
      <trkpt lat="48.39827" lon="2.13974">
        <ele>114</ele>
        <time>2011-04-15T13:15:01Z</time>
      </trkpt>
      <trkpt lat="48.39826" lon="2.13973">
        <ele>114</ele>
        <time>2011-04-15T13:15:02Z</time>
      </trkpt>
      <trkpt lat="48.39824" lon="2.13973">
        <ele>114</ele>
        <time>2011-04-15T13:15:03Z</time>
      </trkpt>
      <trkpt lat="48.39823" lon="2.13972">
        <ele>114</ele>
        <time>2011-04-15T13:15:04Z</time>
      </trkpt>
      <trkpt lat="48.39822" lon="2.13971">
        <ele>114</ele>
        <time>2011-04-15T13:15:05Z</time>
      </trkpt>
      <trkpt lat="48.39821" lon="2.1397">
        <ele>114</ele>
        <time>2011-04-15T13:15:06Z</time>
      </trkpt>
      <trkpt lat="48.39819" lon="2.13967">
        <ele>114</ele>
        <time>2011-04-15T13:15:08Z</time>
      </trkpt>
      <trkpt lat="48.39817" lon="2.13964">
        <ele>114</ele>
        <time>2011-04-15T13:15:10Z</time>
      </trkpt>
      <trkpt lat="48.39815" lon="2.13962">
        <ele>114</ele>
        <time>2011-04-15T13:15:12Z</time>
      </trkpt>
      <trkpt lat="48.39813" lon="2.13959">
        <ele>114</ele>
        <time>2011-04-15T13:15:14Z</time>
      </trkpt>
      <trkpt lat="48.39812" lon="2.13957">
        <ele>114</ele>
        <time>2011-04-15T13:15:15Z</time>
      </trkpt>
      <trkpt lat="48.3981" lon="2.13954">
        <ele>114</ele>
        <time>2011-04-15T13:15:17Z</time>
      </trkpt>
      <trkpt lat="48.39808" lon="2.13951">
        <ele>114</ele>
        <time>2011-04-15T13:15:19Z</time>
      </trkpt>
      <trkpt lat="48.39807" lon="2.13948">
        <ele>115</ele>
        <time>2011-04-15T13:15:21Z</time>
      </trkpt>
      <trkpt lat="48.39805" lon="2.13945">
        <ele>115</ele>
        <time>2011-04-15T13:15:23Z</time>
      </trkpt>
      <trkpt lat="48.39804" lon="2.13943">
        <ele>115</ele>
        <time>2011-04-15T13:15:24Z</time>
      </trkpt>
      <trkpt lat="48.39803" lon="2.13942">
        <ele>115</ele>
        <time>2011-04-15T13:15:25Z</time>
      </trkpt>
      <trkpt lat="48.39803" lon="2.1394">
        <ele>115</ele>
        <time>2011-04-15T13:15:26Z</time>
      </trkpt>
      <trkpt lat="48.39801" lon="2.13937">
        <ele>115</ele>
        <time>2011-04-15T13:15:28Z</time>
      </trkpt>
      <trkpt lat="48.39799" lon="2.13934">
        <ele>115</ele>
        <time>2011-04-15T13:15:30Z</time>
      </trkpt>
      <trkpt lat="48.39798" lon="2.13933">
        <ele>115</ele>
        <time>2011-04-15T13:15:31Z</time>
      </trkpt>
      <trkpt lat="48.39796" lon="2.1393">
        <ele>116</ele>
        <time>2011-04-15T13:15:33Z</time>
      </trkpt>
      <trkpt lat="48.39795" lon="2.13928">
        <ele>116</ele>
        <time>2011-04-15T13:15:34Z</time>
      </trkpt>
      <trkpt lat="48.39793" lon="2.13925">
        <ele>116</ele>
        <time>2011-04-15T13:15:36Z</time>
      </trkpt>
      <trkpt lat="48.39791" lon="2.13923">
        <ele>116</ele>
        <time>2011-04-15T13:15:38Z</time>
      </trkpt>
      <trkpt lat="48.39789" lon="2.1392">
        <ele>116</ele>
        <time>2011-04-15T13:15:40Z</time>
      </trkpt>
      <trkpt lat="48.39788" lon="2.13918">
        <ele>116</ele>
        <time>2011-04-15T13:15:41Z</time>
      </trkpt>
      <trkpt lat="48.39786" lon="2.13916">
        <ele>116</ele>
        <time>2011-04-15T13:15:43Z</time>
      </trkpt>
      <trkpt lat="48.39784" lon="2.13913">
        <ele>116</ele>
        <time>2011-04-15T13:15:45Z</time>
      </trkpt>
      <trkpt lat="48.39782" lon="2.13911">
        <ele>116</ele>
        <time>2011-04-15T13:15:47Z</time>
      </trkpt>
      <trkpt lat="48.39781" lon="2.1391">
        <ele>116</ele>
        <time>2011-04-15T13:15:48Z</time>
      </trkpt>
      <trkpt lat="48.39779" lon="2.13909">
        <ele>116</ele>
        <time>2011-04-15T13:15:49Z</time>
      </trkpt>
      <trkpt lat="48.39777" lon="2.13907">
        <ele>116</ele>
        <time>2011-04-15T13:15:51Z</time>
      </trkpt>
      <trkpt lat="48.39776" lon="2.13906">
        <ele>116</ele>
        <time>2011-04-15T13:15:52Z</time>
      </trkpt>
      <trkpt lat="48.39775" lon="2.13904">
        <ele>116</ele>
        <time>2011-04-15T13:15:53Z</time>
      </trkpt>
      <trkpt lat="48.39774" lon="2.13903">
        <ele>116</ele>
        <time>2011-04-15T13:15:54Z</time>
      </trkpt>
      <trkpt lat="48.39773" lon="2.13902">
        <ele>116</ele>
        <time>2011-04-15T13:15:55Z</time>
      </trkpt>
      <trkpt lat="48.39771" lon="2.13901">
        <ele>116</ele>
        <time>2011-04-15T13:15:56Z</time>
      </trkpt>
      <trkpt lat="48.39769" lon="2.13899">
        <ele>116</ele>
        <time>2011-04-15T13:15:58Z</time>
      </trkpt>
      <trkpt lat="48.39768" lon="2.13898">
        <ele>116</ele>
        <time>2011-04-15T13:15:59Z</time>
      </trkpt>
      <trkpt lat="48.39767" lon="2.13897">
        <ele>116</ele>
        <time>2011-04-15T13:16:00Z</time>
      </trkpt>
      <trkpt lat="48.39766" lon="2.13896">
        <ele>116</ele>
        <time>2011-04-15T13:16:01Z</time>
      </trkpt>
      <trkpt lat="48.39764" lon="2.13895">
        <ele>116</ele>
        <time>2011-04-15T13:16:02Z</time>
      </trkpt>
      <trkpt lat="48.39763" lon="2.13894">
        <ele>116</ele>
        <time>2011-04-15T13:16:03Z</time>
      </trkpt>
      <trkpt lat="48.39762" lon="2.13893">
        <ele>116</ele>
        <time>2011-04-15T13:16:04Z</time>
      </trkpt>
      <trkpt lat="48.39761" lon="2.13891">
        <ele>116</ele>
        <time>2011-04-15T13:16:05Z</time>
      </trkpt>
      <trkpt lat="48.39759" lon="2.1389">
        <ele>116</ele>
        <time>2011-04-15T13:16:06Z</time>
      </trkpt>
      <trkpt lat="48.39757" lon="2.13888">
        <ele>116</ele>
        <time>2011-04-15T13:16:08Z</time>
      </trkpt>
      <trkpt lat="48.39756" lon="2.13887">
        <ele>116</ele>
        <time>2011-04-15T13:16:09Z</time>
      </trkpt>
      <trkpt lat="48.39755" lon="2.13886">
        <ele>116</ele>
        <time>2011-04-15T13:16:10Z</time>
      </trkpt>
      <trkpt lat="48.39753" lon="2.13885">
        <ele>116</ele>
        <time>2011-04-15T13:16:11Z</time>
      </trkpt>
      <trkpt lat="48.39752" lon="2.13884">
        <ele>116</ele>
        <time>2011-04-15T13:16:12Z</time>
      </trkpt>
      <trkpt lat="48.3975" lon="2.13884">
        <ele>116</ele>
        <time>2011-04-15T13:16:13Z</time>
      </trkpt>
      <trkpt lat="48.39749" lon="2.13882">
        <ele>116</ele>
        <time>2011-04-15T13:16:14Z</time>
      </trkpt>
      <trkpt lat="48.39747" lon="2.1388">
        <ele>116</ele>
        <time>2011-04-15T13:16:15Z</time>
      </trkpt>
      <trkpt lat="48.39744" lon="2.13878">
        <ele>116</ele>
        <time>2011-04-15T13:16:16Z</time>
      </trkpt>
      <trkpt lat="48.39742" lon="2.13877">
        <ele>116</ele>
        <time>2011-04-15T13:16:17Z</time>
      </trkpt>
      <trkpt lat="48.39739" lon="2.13875">
        <ele>116</ele>
        <time>2011-04-15T13:16:18Z</time>
      </trkpt>
      <trkpt lat="48.39737" lon="2.13873">
        <ele>116</ele>
        <time>2011-04-15T13:16:19Z</time>
      </trkpt>
      <trkpt lat="48.39736" lon="2.13872">
        <ele>116</ele>
        <time>2011-04-15T13:16:20Z</time>
      </trkpt>
      <trkpt lat="48.39734" lon="2.1387">
        <ele>116</ele>
        <time>2011-04-15T13:16:21Z</time>
      </trkpt>
      <trkpt lat="48.39733" lon="2.13869">
        <ele>116</ele>
        <time>2011-04-15T13:16:22Z</time>
      </trkpt>
      <trkpt lat="48.39731" lon="2.13868">
        <ele>116</ele>
        <time>2011-04-15T13:16:23Z</time>
      </trkpt>
      <trkpt lat="48.3973" lon="2.13867">
        <ele>116</ele>
        <time>2011-04-15T13:16:24Z</time>
      </trkpt>
      <trkpt lat="48.39729" lon="2.13865">
        <ele>116</ele>
        <time>2011-04-15T13:16:25Z</time>
      </trkpt>
      <trkpt lat="48.39728" lon="2.13864">
        <ele>116</ele>
        <time>2011-04-15T13:16:26Z</time>
      </trkpt>
      <trkpt lat="48.39726" lon="2.13862">
        <ele>116</ele>
        <time>2011-04-15T13:16:28Z</time>
      </trkpt>
      <trkpt lat="48.39725" lon="2.13861">
        <ele>116</ele>
        <time>2011-04-15T13:16:29Z</time>
      </trkpt>
      <trkpt lat="48.39723" lon="2.13858">
        <ele>116</ele>
        <time>2011-04-15T13:16:31Z</time>
      </trkpt>
      <trkpt lat="48.39721" lon="2.13856">
        <ele>116</ele>
        <time>2011-04-15T13:16:33Z</time>
      </trkpt>
      <trkpt lat="48.3972" lon="2.13854">
        <ele>116</ele>
        <time>2011-04-15T13:16:34Z</time>
      </trkpt>
      <trkpt lat="48.39719" lon="2.13853">
        <ele>116</ele>
        <time>2011-04-15T13:16:35Z</time>
      </trkpt>
      <trkpt lat="48.39718" lon="2.13852">
        <ele>116</ele>
        <time>2011-04-15T13:16:36Z</time>
      </trkpt>
      <trkpt lat="48.39717" lon="2.1385">
        <ele>116</ele>
        <time>2011-04-15T13:16:37Z</time>
      </trkpt>
      <trkpt lat="48.39716" lon="2.13848">
        <ele>116</ele>
        <time>2011-04-15T13:16:38Z</time>
      </trkpt>
      <trkpt lat="48.39715" lon="2.13847">
        <ele>116</ele>
        <time>2011-04-15T13:16:39Z</time>
      </trkpt>
      <trkpt lat="48.39713" lon="2.13844">
        <ele>116</ele>
        <time>2011-04-15T13:16:41Z</time>
      </trkpt>
      <trkpt lat="48.39712" lon="2.13842">
        <ele>116</ele>
        <time>2011-04-15T13:16:42Z</time>
      </trkpt>
      <trkpt lat="48.39712" lon="2.1384">
        <ele>116</ele>
        <time>2011-04-15T13:16:43Z</time>
      </trkpt>
      <trkpt lat="48.3971" lon="2.13837">
        <ele>116</ele>
        <time>2011-04-15T13:16:45Z</time>
      </trkpt>
      <trkpt lat="48.39709" lon="2.13835">
        <ele>116</ele>
        <time>2011-04-15T13:16:46Z</time>
      </trkpt>
      <trkpt lat="48.39708" lon="2.13832">
        <ele>116</ele>
        <time>2011-04-15T13:16:48Z</time>
      </trkpt>
      <trkpt lat="48.39707" lon="2.13831">
        <ele>116</ele>
        <time>2011-04-15T13:16:49Z</time>
      </trkpt>
      <trkpt lat="48.39706" lon="2.13829">
        <ele>116</ele>
        <time>2011-04-15T13:16:50Z</time>
      </trkpt>
      <trkpt lat="48.39706" lon="2.13827">
        <ele>116</ele>
        <time>2011-04-15T13:16:51Z</time>
      </trkpt>
      <trkpt lat="48.39705" lon="2.13825">
        <ele>116</ele>
        <time>2011-04-15T13:16:52Z</time>
      </trkpt>
      <trkpt lat="48.39704" lon="2.13824">
        <ele>116</ele>
        <time>2011-04-15T13:16:53Z</time>
      </trkpt>
      <trkpt lat="48.39703" lon="2.13822">
        <ele>116</ele>
        <time>2011-04-15T13:16:54Z</time>
      </trkpt>
      <trkpt lat="48.39702" lon="2.13819">
        <ele>116</ele>
        <time>2011-04-15T13:16:56Z</time>
      </trkpt>
      <trkpt lat="48.397" lon="2.13816">
        <ele>116</ele>
        <time>2011-04-15T13:16:58Z</time>
      </trkpt>
      <trkpt lat="48.39699" lon="2.13814">
        <ele>116</ele>
        <time>2011-04-15T13:16:59Z</time>
      </trkpt>
      <trkpt lat="48.39698" lon="2.13812">
        <ele>116</ele>
        <time>2011-04-15T13:17:00Z</time>
      </trkpt>
      <trkpt lat="48.39697" lon="2.13811">
        <ele>116</ele>
        <time>2011-04-15T13:17:01Z</time>
      </trkpt>
      <trkpt lat="48.39696" lon="2.13809">
        <ele>116</ele>
        <time>2011-04-15T13:17:02Z</time>
      </trkpt>
      <trkpt lat="48.39695" lon="2.13807">
        <ele>116</ele>
        <time>2011-04-15T13:17:03Z</time>
      </trkpt>
      <trkpt lat="48.39693" lon="2.13804">
        <ele>116</ele>
        <time>2011-04-15T13:17:05Z</time>
      </trkpt>
      <trkpt lat="48.39692" lon="2.13802">
        <ele>116</ele>
        <time>2011-04-15T13:17:06Z</time>
      </trkpt>
      <trkpt lat="48.39691" lon="2.13801">
        <ele>116</ele>
        <time>2011-04-15T13:17:07Z</time>
      </trkpt>
      <trkpt lat="48.3969" lon="2.13799">
        <ele>116</ele>
        <time>2011-04-15T13:17:08Z</time>
      </trkpt>
      <trkpt lat="48.39689" lon="2.13797">
        <ele>116</ele>
        <time>2011-04-15T13:17:09Z</time>
      </trkpt>
      <trkpt lat="48.39689" lon="2.13795">
        <ele>116</ele>
        <time>2011-04-15T13:17:10Z</time>
      </trkpt>
      <trkpt lat="48.39688" lon="2.13794">
        <ele>116</ele>
        <time>2011-04-15T13:17:11Z</time>
      </trkpt>
      <trkpt lat="48.39687" lon="2.13792">
        <ele>116</ele>
        <time>2011-04-15T13:17:12Z</time>
      </trkpt>
      <trkpt lat="48.39687" lon="2.1379">
        <ele>116</ele>
        <time>2011-04-15T13:17:13Z</time>
      </trkpt>
      <trkpt lat="48.39685" lon="2.13787">
        <ele>116</ele>
        <time>2011-04-15T13:17:15Z</time>
      </trkpt>
      <trkpt lat="48.39684" lon="2.13785">
        <ele>116</ele>
        <time>2011-04-15T13:17:16Z</time>
      </trkpt>
      <trkpt lat="48.39683" lon="2.13783">
        <ele>116</ele>
        <time>2011-04-15T13:17:17Z</time>
      </trkpt>
      <trkpt lat="48.39681" lon="2.1378">
        <ele>116</ele>
        <time>2011-04-15T13:17:19Z</time>
      </trkpt>
      <trkpt lat="48.39679" lon="2.13779">
        <ele>116</ele>
        <time>2011-04-15T13:17:20Z</time>
      </trkpt>
      <trkpt lat="48.39677" lon="2.13776">
        <ele>116</ele>
        <time>2011-04-15T13:17:22Z</time>
      </trkpt>
      <trkpt lat="48.39675" lon="2.13774">
        <ele>116</ele>
        <time>2011-04-15T13:17:24Z</time>
      </trkpt>
      <trkpt lat="48.39674" lon="2.13772">
        <ele>116</ele>
        <time>2011-04-15T13:17:25Z</time>
      </trkpt>
      <trkpt lat="48.39672" lon="2.1377">
        <ele>116</ele>
        <time>2011-04-15T13:17:27Z</time>
      </trkpt>
      <trkpt lat="48.39671" lon="2.13768">
        <ele>116</ele>
        <time>2011-04-15T13:17:28Z</time>
      </trkpt>
      <trkpt lat="48.39669" lon="2.13766">
        <ele>116</ele>
        <time>2011-04-15T13:17:30Z</time>
      </trkpt>
      <trkpt lat="48.39667" lon="2.13763">
        <ele>116</ele>
        <time>2011-04-15T13:17:32Z</time>
      </trkpt>
      <trkpt lat="48.39666" lon="2.13761">
        <ele>116</ele>
        <time>2011-04-15T13:17:33Z</time>
      </trkpt>
      <trkpt lat="48.39664" lon="2.13758">
        <ele>116</ele>
        <time>2011-04-15T13:17:35Z</time>
      </trkpt>
      <trkpt lat="48.39662" lon="2.13755">
        <ele>116</ele>
        <time>2011-04-15T13:17:37Z</time>
      </trkpt>
      <trkpt lat="48.39661" lon="2.13754">
        <ele>116</ele>
        <time>2011-04-15T13:17:38Z</time>
      </trkpt>
      <trkpt lat="48.3966" lon="2.13752">
        <ele>116</ele>
        <time>2011-04-15T13:17:39Z</time>
      </trkpt>
      <trkpt lat="48.39657" lon="2.1375">
        <ele>116</ele>
        <time>2011-04-15T13:17:41Z</time>
      </trkpt>
      <trkpt lat="48.39655" lon="2.13747">
        <ele>116</ele>
        <time>2011-04-15T13:17:43Z</time>
      </trkpt>
      <trkpt lat="48.39653" lon="2.13744">
        <ele>116</ele>
        <time>2011-04-15T13:17:45Z</time>
      </trkpt>
      <trkpt lat="48.39651" lon="2.13742">
        <ele>116</ele>
        <time>2011-04-15T13:17:47Z</time>
      </trkpt>
      <trkpt lat="48.39651" lon="2.1374">
        <ele>116</ele>
        <time>2011-04-15T13:17:48Z</time>
      </trkpt>
      <trkpt lat="48.39649" lon="2.13738">
        <ele>116</ele>
        <time>2011-04-15T13:17:49Z</time>
      </trkpt>
      <trkpt lat="48.39648" lon="2.13737">
        <ele>116</ele>
        <time>2011-04-15T13:17:50Z</time>
      </trkpt>
      <trkpt lat="48.39647" lon="2.13735">
        <ele>116</ele>
        <time>2011-04-15T13:17:51Z</time>
      </trkpt>
      <trkpt lat="48.39646" lon="2.13732">
        <ele>116</ele>
        <time>2011-04-15T13:17:53Z</time>
      </trkpt>
      <trkpt lat="48.39644" lon="2.1373">
        <ele>116</ele>
        <time>2011-04-15T13:17:55Z</time>
      </trkpt>
      <trkpt lat="48.39642" lon="2.13726">
        <ele>116</ele>
        <time>2011-04-15T13:17:57Z</time>
      </trkpt>
      <trkpt lat="48.39641" lon="2.13725">
        <ele>116</ele>
        <time>2011-04-15T13:17:58Z</time>
      </trkpt>
      <trkpt lat="48.3964" lon="2.13723">
        <ele>116</ele>
        <time>2011-04-15T13:17:59Z</time>
      </trkpt>
      <trkpt lat="48.39638" lon="2.1372">
        <ele>116</ele>
        <time>2011-04-15T13:18:01Z</time>
      </trkpt>
      <trkpt lat="48.39637" lon="2.13719">
        <ele>116</ele>
        <time>2011-04-15T13:18:02Z</time>
      </trkpt>
      <trkpt lat="48.39635" lon="2.13716">
        <ele>116</ele>
        <time>2011-04-15T13:18:04Z</time>
      </trkpt>
      <trkpt lat="48.39634" lon="2.13714">
        <ele>116</ele>
        <time>2011-04-15T13:18:06Z</time>
      </trkpt>
      <trkpt lat="48.39633" lon="2.13712">
        <ele>116</ele>
        <time>2011-04-15T13:18:07Z</time>
      </trkpt>
      <trkpt lat="48.39632" lon="2.1371">
        <ele>116</ele>
        <time>2011-04-15T13:18:08Z</time>
      </trkpt>
      <trkpt lat="48.39631" lon="2.13709">
        <ele>116</ele>
        <time>2011-04-15T13:18:09Z</time>
      </trkpt>
      <trkpt lat="48.3963" lon="2.13707">
        <ele>116</ele>
        <time>2011-04-15T13:18:10Z</time>
      </trkpt>
      <trkpt lat="48.39629" lon="2.13705">
        <ele>116</ele>
        <time>2011-04-15T13:18:11Z</time>
      </trkpt>
      <trkpt lat="48.39629" lon="2.13703">
        <ele>116</ele>
        <time>2011-04-15T13:18:12Z</time>
      </trkpt>
      <trkpt lat="48.39628" lon="2.13701">
        <ele>116</ele>
        <time>2011-04-15T13:18:13Z</time>
      </trkpt>
      <trkpt lat="48.39627" lon="2.137">
        <ele>116</ele>
        <time>2011-04-15T13:18:14Z</time>
      </trkpt>
      <trkpt lat="48.39626" lon="2.13698">
        <ele>116</ele>
        <time>2011-04-15T13:18:15Z</time>
      </trkpt>
      <trkpt lat="48.39624" lon="2.13695">
        <ele>116</ele>
        <time>2011-04-15T13:18:17Z</time>
      </trkpt>
      <trkpt lat="48.39623" lon="2.13693">
        <ele>116</ele>
        <time>2011-04-15T13:18:18Z</time>
      </trkpt>
      <trkpt lat="48.39622" lon="2.13692">
        <ele>116</ele>
        <time>2011-04-15T13:18:19Z</time>
      </trkpt>
      <trkpt lat="48.3962" lon="2.13688">
        <ele>116</ele>
        <time>2011-04-15T13:18:21Z</time>
      </trkpt>
      <trkpt lat="48.39619" lon="2.13687">
        <ele>116</ele>
        <time>2011-04-15T13:18:22Z</time>
      </trkpt>
      <trkpt lat="48.39618" lon="2.13684">
        <ele>116</ele>
        <time>2011-04-15T13:18:24Z</time>
      </trkpt>
      <trkpt lat="48.39616" lon="2.13681">
        <ele>116</ele>
        <time>2011-04-15T13:18:26Z</time>
      </trkpt>
      <trkpt lat="48.39614" lon="2.13678">
        <ele>116</ele>
        <time>2011-04-15T13:18:28Z</time>
      </trkpt>
      <trkpt lat="48.39612" lon="2.13677">
        <ele>116</ele>
        <time>2011-04-15T13:18:29Z</time>
      </trkpt>
      <trkpt lat="48.39611" lon="2.13676">
        <ele>116</ele>
        <time>2011-04-15T13:18:30Z</time>
      </trkpt>
      <trkpt lat="48.3961" lon="2.13675">
        <ele>116</ele>
        <time>2011-04-15T13:18:31Z</time>
      </trkpt>
      <trkpt lat="48.39607" lon="2.13673">
        <ele>115</ele>
        <time>2011-04-15T13:18:33Z</time>
      </trkpt>
      <trkpt lat="48.39606" lon="2.13671">
        <ele>115</ele>
        <time>2011-04-15T13:18:34Z</time>
      </trkpt>
      <trkpt lat="48.39605" lon="2.1367">
        <ele>115</ele>
        <time>2011-04-15T13:18:35Z</time>
      </trkpt>
      <trkpt lat="48.39604" lon="2.13669">
        <ele>115</ele>
        <time>2011-04-15T13:18:36Z</time>
      </trkpt>
      <trkpt lat="48.39602" lon="2.13667">
        <ele>115</ele>
        <time>2011-04-15T13:18:38Z</time>
      </trkpt>
      <trkpt lat="48.396" lon="2.13665">
        <ele>115</ele>
        <time>2011-04-15T13:18:39Z</time>
      </trkpt>
      <trkpt lat="48.39599" lon="2.13664">
        <ele>115</ele>
        <time>2011-04-15T13:18:40Z</time>
      </trkpt>
      <trkpt lat="48.39598" lon="2.13663">
        <ele>115</ele>
        <time>2011-04-15T13:18:41Z</time>
      </trkpt>
      <trkpt lat="48.39596" lon="2.13663">
        <ele>115</ele>
        <time>2011-04-15T13:18:42Z</time>
      </trkpt>
      <trkpt lat="48.39594" lon="2.13662">
        <ele>115</ele>
        <time>2011-04-15T13:18:43Z</time>
      </trkpt>
      <trkpt lat="48.39592" lon="2.13663">
        <ele>114</ele>
        <time>2011-04-15T13:18:44Z</time>
      </trkpt>
      <trkpt lat="48.39589" lon="2.13662">
        <ele>114</ele>
        <time>2011-04-15T13:18:45Z</time>
      </trkpt>
      <trkpt lat="48.39586" lon="2.13661">
        <ele>114</ele>
        <time>2011-04-15T13:18:46Z</time>
      </trkpt>
      <trkpt lat="48.39583" lon="2.13659">
        <ele>114</ele>
        <time>2011-04-15T13:18:47Z</time>
      </trkpt>
      <trkpt lat="48.3958" lon="2.13655">
        <ele>113</ele>
        <time>2011-04-15T13:18:48Z</time>
      </trkpt>
      <trkpt lat="48.39578" lon="2.13652">
        <ele>113</ele>
        <time>2011-04-15T13:18:49Z</time>
      </trkpt>
      <trkpt lat="48.39577" lon="2.13647">
        <ele>113</ele>
        <time>2011-04-15T13:18:50Z</time>
      </trkpt>
      <trkpt lat="48.39576" lon="2.13643">
        <ele>113</ele>
        <time>2011-04-15T13:18:51Z</time>
      </trkpt>
      <trkpt lat="48.39575" lon="2.1364">
        <ele>113</ele>
        <time>2011-04-15T13:18:52Z</time>
      </trkpt>
      <trkpt lat="48.39575" lon="2.13637">
        <ele>113</ele>
        <time>2011-04-15T13:18:53Z</time>
      </trkpt>
      <trkpt lat="48.39574" lon="2.13634">
        <ele>113</ele>
        <time>2011-04-15T13:18:54Z</time>
      </trkpt>
      <trkpt lat="48.39574" lon="2.13632">
        <ele>113</ele>
        <time>2011-04-15T13:18:55Z</time>
      </trkpt>
      <trkpt lat="48.39574" lon="2.1363">
        <ele>113</ele>
        <time>2011-04-15T13:18:56Z</time>
      </trkpt>
      <trkpt lat="48.39573" lon="2.13628">
        <ele>113</ele>
        <time>2011-04-15T13:18:57Z</time>
      </trkpt>
      <trkpt lat="48.39573" lon="2.13626">
        <ele>113</ele>
        <time>2011-04-15T13:18:58Z</time>
      </trkpt>
      <trkpt lat="48.39573" lon="2.13624">
        <ele>113</ele>
        <time>2011-04-15T13:18:59Z</time>
      </trkpt>
      <trkpt lat="48.39573" lon="2.13622">
        <ele>113</ele>
        <time>2011-04-15T13:19:00Z</time>
      </trkpt>
      <trkpt lat="48.39572" lon="2.1362">
        <ele>113</ele>
        <time>2011-04-15T13:19:01Z</time>
      </trkpt>
      <trkpt lat="48.39572" lon="2.13618">
        <ele>113</ele>
        <time>2011-04-15T13:19:02Z</time>
      </trkpt>
      <trkpt lat="48.39571" lon="2.13616">
        <ele>113</ele>
        <time>2011-04-15T13:19:03Z</time>
      </trkpt>
      <trkpt lat="48.39571" lon="2.13614">
        <ele>113</ele>
        <time>2011-04-15T13:19:04Z</time>
      </trkpt>
      <trkpt lat="48.3957" lon="2.13612">
        <ele>113</ele>
        <time>2011-04-15T13:19:05Z</time>
      </trkpt>
      <trkpt lat="48.3957" lon="2.1361">
        <ele>113</ele>
        <time>2011-04-15T13:19:06Z</time>
      </trkpt>
      <trkpt lat="48.39569" lon="2.13609">
        <ele>113</ele>
        <time>2011-04-15T13:19:07Z</time>
      </trkpt>
      <trkpt lat="48.39568" lon="2.13607">
        <ele>113</ele>
        <time>2011-04-15T13:19:08Z</time>
      </trkpt>
      <trkpt lat="48.39568" lon="2.13605">
        <ele>113</ele>
        <time>2011-04-15T13:19:09Z</time>
      </trkpt>
      <trkpt lat="48.39567" lon="2.13603">
        <ele>113</ele>
        <time>2011-04-15T13:19:10Z</time>
      </trkpt>
      <trkpt lat="48.39567" lon="2.13601">
        <ele>113</ele>
        <time>2011-04-15T13:19:11Z</time>
      </trkpt>
      <trkpt lat="48.39566" lon="2.13599">
        <ele>113</ele>
        <time>2011-04-15T13:19:12Z</time>
      </trkpt>
      <trkpt lat="48.39565" lon="2.13597">
        <ele>113</ele>
        <time>2011-04-15T13:19:13Z</time>
      </trkpt>
      <trkpt lat="48.39565" lon="2.13595">
        <ele>113</ele>
        <time>2011-04-15T13:19:14Z</time>
      </trkpt>
      <trkpt lat="48.39565" lon="2.13593">
        <ele>113</ele>
        <time>2011-04-15T13:19:15Z</time>
      </trkpt>
      <trkpt lat="48.39564" lon="2.13591">
        <ele>113</ele>
        <time>2011-04-15T13:19:16Z</time>
      </trkpt>
      <trkpt lat="48.39564" lon="2.13589">
        <ele>113</ele>
        <time>2011-04-15T13:19:17Z</time>
      </trkpt>
      <trkpt lat="48.39563" lon="2.13587">
        <ele>113</ele>
        <time>2011-04-15T13:19:18Z</time>
      </trkpt>
      <trkpt lat="48.39563" lon="2.13585">
        <ele>113</ele>
        <time>2011-04-15T13:19:19Z</time>
      </trkpt>
      <trkpt lat="48.39562" lon="2.13583">
        <ele>113</ele>
        <time>2011-04-15T13:19:20Z</time>
      </trkpt>
      <trkpt lat="48.39562" lon="2.13581">
        <ele>113</ele>
        <time>2011-04-15T13:19:21Z</time>
      </trkpt>
      <trkpt lat="48.39561" lon="2.13579">
        <ele>113</ele>
        <time>2011-04-15T13:19:22Z</time>
      </trkpt>
      <trkpt lat="48.39561" lon="2.13577">
        <ele>113</ele>
        <time>2011-04-15T13:19:23Z</time>
      </trkpt>
      <trkpt lat="48.39561" lon="2.13576">
        <ele>113</ele>
        <time>2011-04-15T13:19:24Z</time>
      </trkpt>
      <trkpt lat="48.3956" lon="2.13574">
        <ele>113</ele>
        <time>2011-04-15T13:19:25Z</time>
      </trkpt>
      <trkpt lat="48.3956" lon="2.13572">
        <ele>113</ele>
        <time>2011-04-15T13:19:26Z</time>
      </trkpt>
      <trkpt lat="48.3956" lon="2.1357">
        <ele>113</ele>
        <time>2011-04-15T13:19:27Z</time>
      </trkpt>
      <trkpt lat="48.39559" lon="2.13568">
        <ele>112</ele>
        <time>2011-04-15T13:19:28Z</time>
      </trkpt>
      <trkpt lat="48.39559" lon="2.13566">
        <ele>112</ele>
        <time>2011-04-15T13:19:29Z</time>
      </trkpt>
      <trkpt lat="48.39558" lon="2.13564">
        <ele>112</ele>
        <time>2011-04-15T13:19:30Z</time>
      </trkpt>
      <trkpt lat="48.39558" lon="2.13562">
        <ele>112</ele>
        <time>2011-04-15T13:19:31Z</time>
      </trkpt>
      <trkpt lat="48.39557" lon="2.1356">
        <ele>112</ele>
        <time>2011-04-15T13:19:32Z</time>
      </trkpt>
      <trkpt lat="48.39557" lon="2.13558">
        <ele>111</ele>
        <time>2011-04-15T13:19:33Z</time>
      </trkpt>
      <trkpt lat="48.39557" lon="2.13556">
        <ele>111</ele>
        <time>2011-04-15T13:19:34Z</time>
      </trkpt>
      <trkpt lat="48.39556" lon="2.13554">
        <ele>111</ele>
        <time>2011-04-15T13:19:35Z</time>
      </trkpt>
      <trkpt lat="48.39556" lon="2.13552">
        <ele>111</ele>
        <time>2011-04-15T13:19:36Z</time>
      </trkpt>
      <trkpt lat="48.39556" lon="2.13549">
        <ele>110</ele>
        <time>2011-04-15T13:19:38Z</time>
      </trkpt>
      <trkpt lat="48.39555" lon="2.13546">
        <ele>110</ele>
        <time>2011-04-15T13:19:40Z</time>
      </trkpt>
      <trkpt lat="48.39555" lon="2.13544">
        <ele>110</ele>
        <time>2011-04-15T13:19:41Z</time>
      </trkpt>
      <trkpt lat="48.39554" lon="2.13542">
        <ele>110</ele>
        <time>2011-04-15T13:19:42Z</time>
      </trkpt>
      <trkpt lat="48.39554" lon="2.13541">
        <ele>110</ele>
        <time>2011-04-15T13:19:43Z</time>
      </trkpt>
      <trkpt lat="48.39553" lon="2.13539">
        <ele>110</ele>
        <time>2011-04-15T13:19:44Z</time>
      </trkpt>
      <trkpt lat="48.39553" lon="2.13537">
        <ele>110</ele>
        <time>2011-04-15T13:19:45Z</time>
      </trkpt>
      <trkpt lat="48.39552" lon="2.13535">
        <ele>109</ele>
        <time>2011-04-15T13:19:46Z</time>
      </trkpt>
      <trkpt lat="48.39552" lon="2.13533">
        <ele>109</ele>
        <time>2011-04-15T13:19:47Z</time>
      </trkpt>
      <trkpt lat="48.39552" lon="2.13531">
        <ele>109</ele>
        <time>2011-04-15T13:19:48Z</time>
      </trkpt>
      <trkpt lat="48.39552" lon="2.13529">
        <ele>109</ele>
        <time>2011-04-15T13:19:49Z</time>
      </trkpt>
      <trkpt lat="48.39552" lon="2.13527">
        <ele>109</ele>
        <time>2011-04-15T13:19:50Z</time>
      </trkpt>
      <trkpt lat="48.39551" lon="2.13525">
        <ele>109</ele>
        <time>2011-04-15T13:19:51Z</time>
      </trkpt>
      <trkpt lat="48.39551" lon="2.13523">
        <ele>108</ele>
        <time>2011-04-15T13:19:52Z</time>
      </trkpt>
      <trkpt lat="48.3955" lon="2.13521">
        <ele>108</ele>
        <time>2011-04-15T13:19:53Z</time>
      </trkpt>
      <trkpt lat="48.3955" lon="2.13519">
        <ele>108</ele>
        <time>2011-04-15T13:19:54Z</time>
      </trkpt>
      <trkpt lat="48.39549" lon="2.13517">
        <ele>108</ele>
        <time>2011-04-15T13:19:55Z</time>
      </trkpt>
      <trkpt lat="48.39548" lon="2.13515">
        <ele>108</ele>
        <time>2011-04-15T13:19:56Z</time>
      </trkpt>
      <trkpt lat="48.39548" lon="2.13513">
        <ele>108</ele>
        <time>2011-04-15T13:19:57Z</time>
      </trkpt>
      <trkpt lat="48.39547" lon="2.13511">
        <ele>108</ele>
        <time>2011-04-15T13:19:58Z</time>
      </trkpt>
      <trkpt lat="48.39546" lon="2.13509">
        <ele>108</ele>
        <time>2011-04-15T13:19:59Z</time>
      </trkpt>
      <trkpt lat="48.39546" lon="2.13507">
        <ele>108</ele>
        <time>2011-04-15T13:20:00Z</time>
      </trkpt>
      <trkpt lat="48.39544" lon="2.13504">
        <ele>108</ele>
        <time>2011-04-15T13:20:02Z</time>
      </trkpt>
      <trkpt lat="48.39544" lon="2.13502">
        <ele>108</ele>
        <time>2011-04-15T13:20:03Z</time>
      </trkpt>
      <trkpt lat="48.39544" lon="2.135">
        <ele>108</ele>
        <time>2011-04-15T13:20:04Z</time>
      </trkpt>
      <trkpt lat="48.39543" lon="2.13498">
        <ele>108</ele>
        <time>2011-04-15T13:20:05Z</time>
      </trkpt>
      <trkpt lat="48.39543" lon="2.13496">
        <ele>108</ele>
        <time>2011-04-15T13:20:06Z</time>
      </trkpt>
      <trkpt lat="48.39542" lon="2.13493">
        <ele>108</ele>
        <time>2011-04-15T13:20:07Z</time>
      </trkpt>
      <trkpt lat="48.39541" lon="2.13491">
        <ele>108</ele>
        <time>2011-04-15T13:20:08Z</time>
      </trkpt>
      <trkpt lat="48.39541" lon="2.13489">
        <ele>108</ele>
        <time>2011-04-15T13:20:09Z</time>
      </trkpt>
      <trkpt lat="48.3954" lon="2.13487">
        <ele>108</ele>
        <time>2011-04-15T13:20:10Z</time>
      </trkpt>
      <trkpt lat="48.39539" lon="2.13483">
        <ele>108</ele>
        <time>2011-04-15T13:20:12Z</time>
      </trkpt>
      <trkpt lat="48.39538" lon="2.13481">
        <ele>108</ele>
        <time>2011-04-15T13:20:13Z</time>
      </trkpt>
      <trkpt lat="48.39538" lon="2.13478">
        <ele>108</ele>
        <time>2011-04-15T13:20:14Z</time>
      </trkpt>
      <trkpt lat="48.39538" lon="2.13474">
        <ele>108</ele>
        <time>2011-04-15T13:20:15Z</time>
      </trkpt>
      <trkpt lat="48.39537" lon="2.1347">
        <ele>108</ele>
        <time>2011-04-15T13:20:16Z</time>
      </trkpt>
      <trkpt lat="48.39537" lon="2.13466">
        <ele>108</ele>
        <time>2011-04-15T13:20:17Z</time>
      </trkpt>
      <trkpt lat="48.39536" lon="2.13462">
        <ele>108</ele>
        <time>2011-04-15T13:20:18Z</time>
      </trkpt>
      <trkpt lat="48.39535" lon="2.13458">
        <ele>108</ele>
        <time>2011-04-15T13:20:19Z</time>
      </trkpt>
      <trkpt lat="48.39534" lon="2.13454">
        <ele>108</ele>
        <time>2011-04-15T13:20:20Z</time>
      </trkpt>
      <trkpt lat="48.39533" lon="2.13451">
        <ele>108</ele>
        <time>2011-04-15T13:20:21Z</time>
      </trkpt>
      <trkpt lat="48.39533" lon="2.13448">
        <ele>108</ele>
        <time>2011-04-15T13:20:22Z</time>
      </trkpt>
      <trkpt lat="48.39532" lon="2.13445">
        <ele>108</ele>
        <time>2011-04-15T13:20:23Z</time>
      </trkpt>
      <trkpt lat="48.39532" lon="2.13443">
        <ele>108</ele>
        <time>2011-04-15T13:20:24Z</time>
      </trkpt>
      <trkpt lat="48.39531" lon="2.13441">
        <ele>108</ele>
        <time>2011-04-15T13:20:25Z</time>
      </trkpt>
      <trkpt lat="48.3953" lon="2.13439">
        <ele>108</ele>
        <time>2011-04-15T13:20:26Z</time>
      </trkpt>
      <trkpt lat="48.39529" lon="2.13436">
        <ele>108</ele>
        <time>2011-04-15T13:20:28Z</time>
      </trkpt>
      <trkpt lat="48.39528" lon="2.13434">
        <ele>108</ele>
        <time>2011-04-15T13:20:29Z</time>
      </trkpt>
      <trkpt lat="48.39528" lon="2.13432">
        <ele>108</ele>
        <time>2011-04-15T13:20:30Z</time>
      </trkpt>
      <trkpt lat="48.39527" lon="2.1343">
        <ele>108</ele>
        <time>2011-04-15T13:20:31Z</time>
      </trkpt>
      <trkpt lat="48.39526" lon="2.13427">
        <ele>108</ele>
        <time>2011-04-15T13:20:33Z</time>
      </trkpt>
      <trkpt lat="48.39526" lon="2.13425">
        <ele>108</ele>
        <time>2011-04-15T13:20:34Z</time>
      </trkpt>
      <trkpt lat="48.39525" lon="2.13423">
        <ele>108</ele>
        <time>2011-04-15T13:20:35Z</time>
      </trkpt>
      <trkpt lat="48.39525" lon="2.1342">
        <ele>108</ele>
        <time>2011-04-15T13:20:36Z</time>
      </trkpt>
      <trkpt lat="48.39524" lon="2.13418">
        <ele>108</ele>
        <time>2011-04-15T13:20:37Z</time>
      </trkpt>
      <trkpt lat="48.39523" lon="2.13416">
        <ele>108</ele>
        <time>2011-04-15T13:20:38Z</time>
      </trkpt>
      <trkpt lat="48.39522" lon="2.13414">
        <ele>108</ele>
        <time>2011-04-15T13:20:39Z</time>
      </trkpt>
      <trkpt lat="48.39521" lon="2.13412">
        <ele>108</ele>
        <time>2011-04-15T13:20:40Z</time>
      </trkpt>
      <trkpt lat="48.3952" lon="2.13409">
        <ele>108</ele>
        <time>2011-04-15T13:20:41Z</time>
      </trkpt>
      <trkpt lat="48.39519" lon="2.13407">
        <ele>108</ele>
        <time>2011-04-15T13:20:42Z</time>
      </trkpt>
      <trkpt lat="48.39517" lon="2.13404">
        <ele>108</ele>
        <time>2011-04-15T13:20:43Z</time>
      </trkpt>
      <trkpt lat="48.39516" lon="2.13402">
        <ele>108</ele>
        <time>2011-04-15T13:20:44Z</time>
      </trkpt>
      <trkpt lat="48.39516" lon="2.134">
        <ele>108</ele>
        <time>2011-04-15T13:20:45Z</time>
      </trkpt>
      <trkpt lat="48.39515" lon="2.13398">
        <ele>108</ele>
        <time>2011-04-15T13:20:46Z</time>
      </trkpt>
      <trkpt lat="48.39514" lon="2.13396">
        <ele>108</ele>
        <time>2011-04-15T13:20:47Z</time>
      </trkpt>
      <trkpt lat="48.39512" lon="2.13393">
        <ele>108</ele>
        <time>2011-04-15T13:20:49Z</time>
      </trkpt>
      <trkpt lat="48.3951" lon="2.13391">
        <ele>108</ele>
        <time>2011-04-15T13:20:50Z</time>
      </trkpt>
      <trkpt lat="48.39509" lon="2.1339">
        <ele>108</ele>
        <time>2011-04-15T13:20:51Z</time>
      </trkpt>
      <trkpt lat="48.39508" lon="2.13388">
        <ele>108</ele>
        <time>2011-04-15T13:20:52Z</time>
      </trkpt>
      <trkpt lat="48.39507" lon="2.13386">
        <ele>108</ele>
        <time>2011-04-15T13:20:53Z</time>
      </trkpt>
      <trkpt lat="48.39506" lon="2.13385">
        <ele>108</ele>
        <time>2011-04-15T13:20:54Z</time>
      </trkpt>
      <trkpt lat="48.39504" lon="2.13382">
        <ele>108</ele>
        <time>2011-04-15T13:20:56Z</time>
      </trkpt>
      <trkpt lat="48.39503" lon="2.13381">
        <ele>108</ele>
        <time>2011-04-15T13:20:57Z</time>
      </trkpt>
      <trkpt lat="48.39501" lon="2.1338">
        <ele>108</ele>
        <time>2011-04-15T13:20:58Z</time>
      </trkpt>
      <trkpt lat="48.395" lon="2.13378">
        <ele>108</ele>
        <time>2011-04-15T13:20:59Z</time>
      </trkpt>
      <trkpt lat="48.39499" lon="2.13377">
        <ele>108</ele>
        <time>2011-04-15T13:21:00Z</time>
      </trkpt>
      <trkpt lat="48.39497" lon="2.13376">
        <ele>108</ele>
        <time>2011-04-15T13:21:01Z</time>
      </trkpt>
      <trkpt lat="48.39496" lon="2.13374">
        <ele>108</ele>
        <time>2011-04-15T13:21:02Z</time>
      </trkpt>
      <trkpt lat="48.39495" lon="2.13372">
        <ele>108</ele>
        <time>2011-04-15T13:21:03Z</time>
      </trkpt>
      <trkpt lat="48.39494" lon="2.1337">
        <ele>108</ele>
        <time>2011-04-15T13:21:04Z</time>
      </trkpt>
      <trkpt lat="48.39492" lon="2.13367">
        <ele>108</ele>
        <time>2011-04-15T13:21:05Z</time>
      </trkpt>
      <trkpt lat="48.3949" lon="2.13364">
        <ele>108</ele>
        <time>2011-04-15T13:21:06Z</time>
      </trkpt>
      <trkpt lat="48.39488" lon="2.1336">
        <ele>108</ele>
        <time>2011-04-15T13:21:07Z</time>
      </trkpt>
      <trkpt lat="48.39486" lon="2.13357">
        <ele>108</ele>
        <time>2011-04-15T13:21:08Z</time>
      </trkpt>
      <trkpt lat="48.39485" lon="2.13355">
        <ele>108</ele>
        <time>2011-04-15T13:21:09Z</time>
      </trkpt>
      <trkpt lat="48.39483" lon="2.13352">
        <ele>108</ele>
        <time>2011-04-15T13:21:10Z</time>
      </trkpt>
      <trkpt lat="48.39482" lon="2.1335">
        <ele>108</ele>
        <time>2011-04-15T13:21:11Z</time>
      </trkpt>
      <trkpt lat="48.39481" lon="2.13348">
        <ele>108</ele>
        <time>2011-04-15T13:21:12Z</time>
      </trkpt>
      <trkpt lat="48.3948" lon="2.13347">
        <ele>108</ele>
        <time>2011-04-15T13:21:13Z</time>
      </trkpt>
      <trkpt lat="48.39478" lon="2.13346">
        <ele>108</ele>
        <time>2011-04-15T13:21:14Z</time>
      </trkpt>
      <trkpt lat="48.39476" lon="2.13343">
        <ele>108</ele>
        <time>2011-04-15T13:21:16Z</time>
      </trkpt>
      <trkpt lat="48.39474" lon="2.1334">
        <ele>108</ele>
        <time>2011-04-15T13:21:18Z</time>
      </trkpt>
      <trkpt lat="48.39473" lon="2.13339">
        <ele>108</ele>
        <time>2011-04-15T13:21:19Z</time>
      </trkpt>
      <trkpt lat="48.39471" lon="2.13336">
        <ele>108</ele>
        <time>2011-04-15T13:21:21Z</time>
      </trkpt>
      <trkpt lat="48.3947" lon="2.13335">
        <ele>108</ele>
        <time>2011-04-15T13:21:22Z</time>
      </trkpt>
      <trkpt lat="48.39469" lon="2.13334">
        <ele>108</ele>
        <time>2011-04-15T13:21:23Z</time>
      </trkpt>
      <trkpt lat="48.39468" lon="2.13333">
        <ele>108</ele>
        <time>2011-04-15T13:21:24Z</time>
      </trkpt>
      <trkpt lat="48.39465" lon="2.1333">
        <ele>108</ele>
        <time>2011-04-15T13:21:26Z</time>
      </trkpt>
      <trkpt lat="48.39463" lon="2.13327">
        <ele>108</ele>
        <time>2011-04-15T13:21:28Z</time>
      </trkpt>
      <trkpt lat="48.39461" lon="2.13324">
        <ele>109</ele>
        <time>2011-04-15T13:21:30Z</time>
      </trkpt>
      <trkpt lat="48.3946" lon="2.13322">
        <ele>109</ele>
        <time>2011-04-15T13:21:31Z</time>
      </trkpt>
      <trkpt lat="48.39458" lon="2.13319">
        <ele>109</ele>
        <time>2011-04-15T13:21:33Z</time>
      </trkpt>
      <trkpt lat="48.39456" lon="2.13316">
        <ele>109</ele>
        <time>2011-04-15T13:21:35Z</time>
      </trkpt>
      <trkpt lat="48.39455" lon="2.13313">
        <ele>109</ele>
        <time>2011-04-15T13:21:37Z</time>
      </trkpt>
      <trkpt lat="48.39453" lon="2.13311">
        <ele>109</ele>
        <time>2011-04-15T13:21:39Z</time>
      </trkpt>
      <trkpt lat="48.39452" lon="2.13308">
        <ele>109</ele>
        <time>2011-04-15T13:21:41Z</time>
      </trkpt>
      <trkpt lat="48.39451" lon="2.13305">
        <ele>109</ele>
        <time>2011-04-15T13:21:43Z</time>
      </trkpt>
      <trkpt lat="48.3945" lon="2.13303">
        <ele>109</ele>
        <time>2011-04-15T13:21:44Z</time>
      </trkpt>
      <trkpt lat="48.39449" lon="2.13301">
        <ele>109</ele>
        <time>2011-04-15T13:21:45Z</time>
      </trkpt>
      <trkpt lat="48.39448" lon="2.133">
        <ele>109</ele>
        <time>2011-04-15T13:21:46Z</time>
      </trkpt>
      <trkpt lat="48.39447" lon="2.13298">
        <ele>109</ele>
        <time>2011-04-15T13:21:47Z</time>
      </trkpt>
      <trkpt lat="48.39446" lon="2.13296">
        <ele>109</ele>
        <time>2011-04-15T13:21:48Z</time>
      </trkpt>
      <trkpt lat="48.39445" lon="2.13294">
        <ele>109</ele>
        <time>2011-04-15T13:21:49Z</time>
      </trkpt>
      <trkpt lat="48.39443" lon="2.13292">
        <ele>109</ele>
        <time>2011-04-15T13:21:51Z</time>
      </trkpt>
      <trkpt lat="48.39441" lon="2.13288">
        <ele>109</ele>
        <time>2011-04-15T13:21:53Z</time>
      </trkpt>
      <trkpt lat="48.39441" lon="2.13287">
        <ele>109</ele>
        <time>2011-04-15T13:21:54Z</time>
      </trkpt>
      <trkpt lat="48.3944" lon="2.13285">
        <ele>109</ele>
        <time>2011-04-15T13:21:55Z</time>
      </trkpt>
      <trkpt lat="48.39439" lon="2.13283">
        <ele>109</ele>
        <time>2011-04-15T13:21:56Z</time>
      </trkpt>
      <trkpt lat="48.39438" lon="2.13281">
        <ele>109</ele>
        <time>2011-04-15T13:21:57Z</time>
      </trkpt>
      <trkpt lat="48.39437" lon="2.13279">
        <ele>109</ele>
        <time>2011-04-15T13:21:58Z</time>
      </trkpt>
      <trkpt lat="48.39436" lon="2.13277">
        <ele>109</ele>
        <time>2011-04-15T13:22:00Z</time>
      </trkpt>
      <trkpt lat="48.39434" lon="2.13274">
        <ele>109</ele>
        <time>2011-04-15T13:22:01Z</time>
      </trkpt>
      <trkpt lat="48.39433" lon="2.13271">
        <ele>109</ele>
        <time>2011-04-15T13:22:02Z</time>
      </trkpt>
      <trkpt lat="48.39431" lon="2.13267">
        <ele>109</ele>
        <time>2011-04-15T13:22:03Z</time>
      </trkpt>
      <trkpt lat="48.3943" lon="2.13264">
        <ele>109</ele>
        <time>2011-04-15T13:22:04Z</time>
      </trkpt>
      <trkpt lat="48.39429" lon="2.1326">
        <ele>109</ele>
        <time>2011-04-15T13:22:05Z</time>
      </trkpt>
      <trkpt lat="48.39428" lon="2.13257">
        <ele>109</ele>
        <time>2011-04-15T13:22:06Z</time>
      </trkpt>
      <trkpt lat="48.39426" lon="2.13255">
        <ele>109</ele>
        <time>2011-04-15T13:22:07Z</time>
      </trkpt>
      <trkpt lat="48.39425" lon="2.13252">
        <ele>110</ele>
        <time>2011-04-15T13:22:08Z</time>
      </trkpt>
      <trkpt lat="48.39424" lon="2.13249">
        <ele>110</ele>
        <time>2011-04-15T13:22:09Z</time>
      </trkpt>
      <trkpt lat="48.39423" lon="2.13247">
        <ele>110</ele>
        <time>2011-04-15T13:22:10Z</time>
      </trkpt>
      <trkpt lat="48.39422" lon="2.13244">
        <ele>110</ele>
        <time>2011-04-15T13:22:11Z</time>
      </trkpt>
      <trkpt lat="48.39421" lon="2.13241">
        <ele>110</ele>
        <time>2011-04-15T13:22:12Z</time>
      </trkpt>
      <trkpt lat="48.39421" lon="2.1324">
        <ele>110</ele>
        <time>2011-04-15T13:22:13Z</time>
      </trkpt>
      <trkpt lat="48.3942" lon="2.13237">
        <ele>110</ele>
        <time>2011-04-15T13:22:14Z</time>
      </trkpt>
      <trkpt lat="48.3942" lon="2.13235">
        <ele>110</ele>
        <time>2011-04-15T13:22:15Z</time>
      </trkpt>
      <trkpt lat="48.39419" lon="2.13233">
        <ele>110</ele>
        <time>2011-04-15T13:22:16Z</time>
      </trkpt>
      <trkpt lat="48.39418" lon="2.13231">
        <ele>110</ele>
        <time>2011-04-15T13:22:17Z</time>
      </trkpt>
      <trkpt lat="48.39418" lon="2.1323">
        <ele>110</ele>
        <time>2011-04-15T13:22:18Z</time>
      </trkpt>
      <trkpt lat="48.39417" lon="2.13228">
        <ele>110</ele>
        <time>2011-04-15T13:22:19Z</time>
      </trkpt>
      <trkpt lat="48.39417" lon="2.13226">
        <ele>110</ele>
        <time>2011-04-15T13:22:20Z</time>
      </trkpt>
      <trkpt lat="48.39416" lon="2.13224">
        <ele>110</ele>
        <time>2011-04-15T13:22:21Z</time>
      </trkpt>
      <trkpt lat="48.39416" lon="2.13222">
        <ele>110</ele>
        <time>2011-04-15T13:22:22Z</time>
      </trkpt>
      <trkpt lat="48.39415" lon="2.1322">
        <ele>110</ele>
        <time>2011-04-15T13:22:23Z</time>
      </trkpt>
      <trkpt lat="48.39415" lon="2.13218">
        <ele>111</ele>
        <time>2011-04-15T13:22:24Z</time>
      </trkpt>
      <trkpt lat="48.39414" lon="2.13216">
        <ele>111</ele>
        <time>2011-04-15T13:22:25Z</time>
      </trkpt>
      <trkpt lat="48.39414" lon="2.13214">
        <ele>111</ele>
        <time>2011-04-15T13:22:26Z</time>
      </trkpt>
      <trkpt lat="48.39413" lon="2.13212">
        <ele>111</ele>
        <time>2011-04-15T13:22:27Z</time>
      </trkpt>
      <trkpt lat="48.39413" lon="2.1321">
        <ele>111</ele>
        <time>2011-04-15T13:22:28Z</time>
      </trkpt>
      <trkpt lat="48.39412" lon="2.13208">
        <ele>111</ele>
        <time>2011-04-15T13:22:29Z</time>
      </trkpt>
      <trkpt lat="48.39411" lon="2.13206">
        <ele>111</ele>
        <time>2011-04-15T13:22:30Z</time>
      </trkpt>
      <trkpt lat="48.39411" lon="2.13204">
        <ele>111</ele>
        <time>2011-04-15T13:22:31Z</time>
      </trkpt>
      <trkpt lat="48.39411" lon="2.13202">
        <ele>111</ele>
        <time>2011-04-15T13:22:32Z</time>
      </trkpt>
      <trkpt lat="48.3941" lon="2.132">
        <ele>111</ele>
        <time>2011-04-15T13:22:33Z</time>
      </trkpt>
      <trkpt lat="48.39409" lon="2.13198">
        <ele>111</ele>
        <time>2011-04-15T13:22:34Z</time>
      </trkpt>
      <trkpt lat="48.39409" lon="2.13197">
        <ele>111</ele>
        <time>2011-04-15T13:22:35Z</time>
      </trkpt>
      <trkpt lat="48.39408" lon="2.13195">
        <ele>111</ele>
        <time>2011-04-15T13:22:36Z</time>
      </trkpt>
      <trkpt lat="48.39407" lon="2.13193">
        <ele>111</ele>
        <time>2011-04-15T13:22:37Z</time>
      </trkpt>
      <trkpt lat="48.39406" lon="2.13191">
        <ele>111</ele>
        <time>2011-04-15T13:22:38Z</time>
      </trkpt>
      <trkpt lat="48.39406" lon="2.1319">
        <ele>111</ele>
        <time>2011-04-15T13:22:39Z</time>
      </trkpt>
      <trkpt lat="48.39405" lon="2.13188">
        <ele>111</ele>
        <time>2011-04-15T13:22:40Z</time>
      </trkpt>
      <trkpt lat="48.39404" lon="2.13186">
        <ele>111</ele>
        <time>2011-04-15T13:22:41Z</time>
      </trkpt>
      <trkpt lat="48.39403" lon="2.13184">
        <ele>111</ele>
        <time>2011-04-15T13:22:42Z</time>
      </trkpt>
      <trkpt lat="48.39403" lon="2.13183">
        <ele>111</ele>
        <time>2011-04-15T13:22:43Z</time>
      </trkpt>
      <trkpt lat="48.39401" lon="2.13179">
        <ele>111</ele>
        <time>2011-04-15T13:22:45Z</time>
      </trkpt>
      <trkpt lat="48.39399" lon="2.13177">
        <ele>111</ele>
        <time>2011-04-15T13:22:47Z</time>
      </trkpt>
      <trkpt lat="48.39398" lon="2.13174">
        <ele>112</ele>
        <time>2011-04-15T13:22:49Z</time>
      </trkpt>
      <trkpt lat="48.39397" lon="2.13173">
        <ele>114</ele>
        <time>2011-04-15T13:23:07Z</time>
      </trkpt>
      <trkpt lat="48.39396" lon="2.13176">
        <ele>114</ele>
        <time>2011-04-15T13:23:09Z</time>
      </trkpt>
      <trkpt lat="48.39394" lon="2.13179">
        <ele>114</ele>
        <time>2011-04-15T13:23:11Z</time>
      </trkpt>
      <trkpt lat="48.39393" lon="2.13181">
        <ele>114</ele>
        <time>2011-04-15T13:23:12Z</time>
      </trkpt>
      <trkpt lat="48.39393" lon="2.13183">
        <ele>114</ele>
        <time>2011-04-15T13:23:13Z</time>
      </trkpt>
      <trkpt lat="48.39393" lon="2.13185">
        <ele>114</ele>
        <time>2011-04-15T13:23:14Z</time>
      </trkpt>
      <trkpt lat="48.39393" lon="2.13187">
        <ele>114</ele>
        <time>2011-04-15T13:23:15Z</time>
      </trkpt>
      <trkpt lat="48.39392" lon="2.13189">
        <ele>114</ele>
        <time>2011-04-15T13:23:16Z</time>
      </trkpt>
      <trkpt lat="48.39392" lon="2.13191">
        <ele>114</ele>
        <time>2011-04-15T13:23:17Z</time>
      </trkpt>
      <trkpt lat="48.39392" lon="2.13193">
        <ele>114</ele>
        <time>2011-04-15T13:23:18Z</time>
      </trkpt>
      <trkpt lat="48.39392" lon="2.13195">
        <ele>114</ele>
        <time>2011-04-15T13:23:19Z</time>
      </trkpt>
      <trkpt lat="48.39392" lon="2.13197">
        <ele>114</ele>
        <time>2011-04-15T13:23:20Z</time>
      </trkpt>
      <trkpt lat="48.39392" lon="2.132">
        <ele>114</ele>
        <time>2011-04-15T13:23:22Z</time>
      </trkpt>
      <trkpt lat="48.39391" lon="2.13202">
        <ele>114</ele>
        <time>2011-04-15T13:23:23Z</time>
      </trkpt>
      <trkpt lat="48.3939" lon="2.13203">
        <ele>114</ele>
        <time>2011-04-15T13:23:24Z</time>
      </trkpt>
      <trkpt lat="48.39389" lon="2.13206">
        <ele>114</ele>
        <time>2011-04-15T13:23:26Z</time>
      </trkpt>
      <trkpt lat="48.39386" lon="2.13207">
        <ele>114</ele>
        <time>2011-04-15T13:23:28Z</time>
      </trkpt>
      <trkpt lat="48.39384" lon="2.13208">
        <ele>114</ele>
        <time>2011-04-15T13:23:30Z</time>
      </trkpt>
      <trkpt lat="48.39383" lon="2.13208">
        <ele>114</ele>
        <time>2011-04-15T13:23:31Z</time>
      </trkpt>
      <trkpt lat="48.39382" lon="2.13208">
        <ele>114</ele>
        <time>2011-04-15T13:23:32Z</time>
      </trkpt>
      <trkpt lat="48.3938" lon="2.13208">
        <ele>114</ele>
        <time>2011-04-15T13:23:33Z</time>
      </trkpt>
      <trkpt lat="48.39379" lon="2.13208">
        <ele>114</ele>
        <time>2011-04-15T13:23:34Z</time>
      </trkpt>
      <trkpt lat="48.39378" lon="2.13208">
        <ele>114</ele>
        <time>2011-04-15T13:23:35Z</time>
      </trkpt>
      <trkpt lat="48.39376" lon="2.13209">
        <ele>114</ele>
        <time>2011-04-15T13:23:36Z</time>
      </trkpt>
      <trkpt lat="48.39375" lon="2.13209">
        <ele>114</ele>
        <time>2011-04-15T13:23:37Z</time>
      </trkpt>
      <trkpt lat="48.39374" lon="2.13209">
        <ele>114</ele>
        <time>2011-04-15T13:23:38Z</time>
      </trkpt>
      <trkpt lat="48.39372" lon="2.13209">
        <ele>114</ele>
        <time>2011-04-15T13:23:39Z</time>
      </trkpt>
      <trkpt lat="48.39371" lon="2.13209">
        <ele>114</ele>
        <time>2011-04-15T13:23:40Z</time>
      </trkpt>
      <trkpt lat="48.39369" lon="2.1321">
        <ele>113</ele>
        <time>2011-04-15T13:23:42Z</time>
      </trkpt>
      <trkpt lat="48.39368" lon="2.1321">
        <ele>113</ele>
        <time>2011-04-15T13:23:43Z</time>
      </trkpt>
      <trkpt lat="48.39367" lon="2.13211">
        <ele>113</ele>
        <time>2011-04-15T13:23:44Z</time>
      </trkpt>
      <trkpt lat="48.39365" lon="2.13212">
        <ele>112</ele>
        <time>2011-04-15T13:23:46Z</time>
      </trkpt>
      <trkpt lat="48.39363" lon="2.13213">
        <ele>112</ele>
        <time>2011-04-15T13:23:48Z</time>
      </trkpt>
      <trkpt lat="48.39362" lon="2.13213">
        <ele>111</ele>
        <time>2011-04-15T13:23:49Z</time>
      </trkpt>
      <trkpt lat="48.39361" lon="2.13214">
        <ele>111</ele>
        <time>2011-04-15T13:23:50Z</time>
      </trkpt>
      <trkpt lat="48.39359" lon="2.13216">
        <ele>111</ele>
        <time>2011-04-15T13:23:51Z</time>
      </trkpt>
      <trkpt lat="48.39358" lon="2.13217">
        <ele>110</ele>
        <time>2011-04-15T13:23:52Z</time>
      </trkpt>
      <trkpt lat="48.39356" lon="2.13217">
        <ele>110</ele>
        <time>2011-04-15T13:23:53Z</time>
      </trkpt>
      <trkpt lat="48.39355" lon="2.13218">
        <ele>110</ele>
        <time>2011-04-15T13:23:54Z</time>
      </trkpt>
      <trkpt lat="48.39354" lon="2.13219">
        <ele>110</ele>
        <time>2011-04-15T13:23:55Z</time>
      </trkpt>
      <trkpt lat="48.39353" lon="2.13219">
        <ele>110</ele>
        <time>2011-04-15T13:23:56Z</time>
      </trkpt>
      <trkpt lat="48.39351" lon="2.1322">
        <ele>110</ele>
        <time>2011-04-15T13:23:57Z</time>
      </trkpt>
      <trkpt lat="48.3935" lon="2.13221">
        <ele>110</ele>
        <time>2011-04-15T13:23:58Z</time>
      </trkpt>
      <trkpt lat="48.39349" lon="2.13221">
        <ele>110</ele>
        <time>2011-04-15T13:23:59Z</time>
      </trkpt>
      <trkpt lat="48.39347" lon="2.13222">
        <ele>110</ele>
        <time>2011-04-15T13:24:00Z</time>
      </trkpt>
      <trkpt lat="48.39346" lon="2.13223">
        <ele>110</ele>
        <time>2011-04-15T13:24:01Z</time>
      </trkpt>
      <trkpt lat="48.39345" lon="2.13224">
        <ele>109</ele>
        <time>2011-04-15T13:24:02Z</time>
      </trkpt>
      <trkpt lat="48.39344" lon="2.13225">
        <ele>109</ele>
        <time>2011-04-15T13:24:03Z</time>
      </trkpt>
      <trkpt lat="48.39342" lon="2.13226">
        <ele>109</ele>
        <time>2011-04-15T13:24:04Z</time>
      </trkpt>
      <trkpt lat="48.39341" lon="2.13227">
        <ele>109</ele>
        <time>2011-04-15T13:24:05Z</time>
      </trkpt>
      <trkpt lat="48.39339" lon="2.13229">
        <ele>109</ele>
        <time>2011-04-15T13:24:06Z</time>
      </trkpt>
      <trkpt lat="48.39338" lon="2.1323">
        <ele>108</ele>
        <time>2011-04-15T13:24:07Z</time>
      </trkpt>
      <trkpt lat="48.39337" lon="2.13232">
        <ele>108</ele>
        <time>2011-04-15T13:24:08Z</time>
      </trkpt>
      <trkpt lat="48.39334" lon="2.13234">
        <ele>108</ele>
        <time>2011-04-15T13:24:10Z</time>
      </trkpt>
      <trkpt lat="48.39333" lon="2.13235">
        <ele>107</ele>
        <time>2011-04-15T13:24:11Z</time>
      </trkpt>
      <trkpt lat="48.39331" lon="2.13237">
        <ele>107</ele>
        <time>2011-04-15T13:24:12Z</time>
      </trkpt>
      <trkpt lat="48.3933" lon="2.13238">
        <ele>107</ele>
        <time>2011-04-15T13:24:13Z</time>
      </trkpt>
      <trkpt lat="48.39328" lon="2.13239">
        <ele>107</ele>
        <time>2011-04-15T13:24:14Z</time>
      </trkpt>
      <trkpt lat="48.39327" lon="2.1324">
        <ele>107</ele>
        <time>2011-04-15T13:24:15Z</time>
      </trkpt>
      <trkpt lat="48.39325" lon="2.13241">
        <ele>107</ele>
        <time>2011-04-15T13:24:16Z</time>
      </trkpt>
      <trkpt lat="48.39324" lon="2.13242">
        <ele>107</ele>
        <time>2011-04-15T13:24:17Z</time>
      </trkpt>
      <trkpt lat="48.39322" lon="2.13244">
        <ele>107</ele>
        <time>2011-04-15T13:24:18Z</time>
      </trkpt>
      <trkpt lat="48.39321" lon="2.13245">
        <ele>107</ele>
        <time>2011-04-15T13:24:19Z</time>
      </trkpt>
      <trkpt lat="48.39319" lon="2.13246">
        <ele>107</ele>
        <time>2011-04-15T13:24:20Z</time>
      </trkpt>
      <trkpt lat="48.39317" lon="2.13247">
        <ele>107</ele>
        <time>2011-04-15T13:24:21Z</time>
      </trkpt>
      <trkpt lat="48.39315" lon="2.13249">
        <ele>107</ele>
        <time>2011-04-15T13:24:22Z</time>
      </trkpt>
      <trkpt lat="48.39314" lon="2.1325">
        <ele>107</ele>
        <time>2011-04-15T13:24:23Z</time>
      </trkpt>
      <trkpt lat="48.39313" lon="2.13251">
        <ele>107</ele>
        <time>2011-04-15T13:24:24Z</time>
      </trkpt>
      <trkpt lat="48.39312" lon="2.13251">
        <ele>107</ele>
        <time>2011-04-15T13:24:25Z</time>
      </trkpt>
      <trkpt lat="48.39311" lon="2.13252">
        <ele>107</ele>
        <time>2011-04-15T13:24:26Z</time>
      </trkpt>
      <trkpt lat="48.39309" lon="2.13254">
        <ele>107</ele>
        <time>2011-04-15T13:24:28Z</time>
      </trkpt>
      <trkpt lat="48.39308" lon="2.13255">
        <ele>107</ele>
        <time>2011-04-15T13:24:31Z</time>
      </trkpt>
      <trkpt lat="48.39307" lon="2.13257">
        <ele>107</ele>
        <time>2011-04-15T13:25:01Z</time>
      </trkpt>
      <trkpt lat="48.39305" lon="2.13258">
        <ele>107</ele>
        <time>2011-04-15T13:25:03Z</time>
      </trkpt>
      <trkpt lat="48.39303" lon="2.13259">
        <ele>107</ele>
        <time>2011-04-15T13:25:05Z</time>
      </trkpt>
      <trkpt lat="48.39302" lon="2.13259">
        <ele>107</ele>
        <time>2011-04-15T13:25:06Z</time>
      </trkpt>
      <trkpt lat="48.393" lon="2.13259">
        <ele>107</ele>
        <time>2011-04-15T13:25:08Z</time>
      </trkpt>
      <trkpt lat="48.39298" lon="2.1326">
        <ele>107</ele>
        <time>2011-04-15T13:25:10Z</time>
      </trkpt>
      <trkpt lat="48.39297" lon="2.1326">
        <ele>107</ele>
        <time>2011-04-15T13:25:11Z</time>
      </trkpt>
      <trkpt lat="48.39295" lon="2.13261">
        <ele>107</ele>
        <time>2011-04-15T13:25:13Z</time>
      </trkpt>
      <trkpt lat="48.39294" lon="2.13262">
        <ele>107</ele>
        <time>2011-04-15T13:25:16Z</time>
      </trkpt>
      <trkpt lat="48.39293" lon="2.13264">
        <ele>107</ele>
        <time>2011-04-15T13:25:27Z</time>
      </trkpt>
      <trkpt lat="48.39292" lon="2.13264">
        <ele>107</ele>
        <time>2011-04-15T13:25:30Z</time>
      </trkpt>
      <trkpt lat="48.39291" lon="2.13266">
        <ele>107</ele>
        <time>2011-04-15T13:25:33Z</time>
      </trkpt>
      <trkpt lat="48.3929" lon="2.13268">
        <ele>107</ele>
        <time>2011-04-15T13:25:36Z</time>
      </trkpt>
      <trkpt lat="48.3929" lon="2.1327">
        <ele>107</ele>
        <time>2011-04-15T13:25:37Z</time>
      </trkpt>
      <trkpt lat="48.39291" lon="2.13272">
        <ele>107</ele>
        <time>2011-04-15T13:25:38Z</time>
      </trkpt>
      <trkpt lat="48.39291" lon="2.13274">
        <ele>107</ele>
        <time>2011-04-15T13:25:39Z</time>
      </trkpt>
      <trkpt lat="48.39291" lon="2.13276">
        <ele>107</ele>
        <time>2011-04-15T13:25:40Z</time>
      </trkpt>
      <trkpt lat="48.39291" lon="2.13278">
        <ele>107</ele>
        <time>2011-04-15T13:25:41Z</time>
      </trkpt>
      <trkpt lat="48.39292" lon="2.1328">
        <ele>107</ele>
        <time>2011-04-15T13:25:42Z</time>
      </trkpt>
      <trkpt lat="48.39292" lon="2.13282">
        <ele>107</ele>
        <time>2011-04-15T13:25:43Z</time>
      </trkpt>
      <trkpt lat="48.39293" lon="2.13284">
        <ele>107</ele>
        <time>2011-04-15T13:25:44Z</time>
      </trkpt>
      <trkpt lat="48.39293" lon="2.13286">
        <ele>107</ele>
        <time>2011-04-15T13:25:45Z</time>
      </trkpt>
      <trkpt lat="48.39294" lon="2.13288">
        <ele>107</ele>
        <time>2011-04-15T13:25:46Z</time>
      </trkpt>
      <trkpt lat="48.39295" lon="2.13291">
        <ele>107</ele>
        <time>2011-04-15T13:25:47Z</time>
      </trkpt>
      <trkpt lat="48.39295" lon="2.13293">
        <ele>107</ele>
        <time>2011-04-15T13:25:48Z</time>
      </trkpt>
      <trkpt lat="48.39296" lon="2.13294">
        <ele>107</ele>
        <time>2011-04-15T13:25:49Z</time>
      </trkpt>
      <trkpt lat="48.39296" lon="2.13297">
        <ele>107</ele>
        <time>2011-04-15T13:25:50Z</time>
      </trkpt>
      <trkpt lat="48.39296" lon="2.13299">
        <ele>107</ele>
        <time>2011-04-15T13:25:51Z</time>
      </trkpt>
      <trkpt lat="48.39297" lon="2.133">
        <ele>107</ele>
        <time>2011-04-15T13:25:52Z</time>
      </trkpt>
      <trkpt lat="48.39298" lon="2.13302">
        <ele>107</ele>
        <time>2011-04-15T13:25:53Z</time>
      </trkpt>
      <trkpt lat="48.39298" lon="2.13304">
        <ele>107</ele>
        <time>2011-04-15T13:25:54Z</time>
      </trkpt>
      <trkpt lat="48.39299" lon="2.13306">
        <ele>107</ele>
        <time>2011-04-15T13:25:55Z</time>
      </trkpt>
      <trkpt lat="48.39299" lon="2.13308">
        <ele>107</ele>
        <time>2011-04-15T13:25:56Z</time>
      </trkpt>
      <trkpt lat="48.393" lon="2.13309">
        <ele>107</ele>
        <time>2011-04-15T13:25:57Z</time>
      </trkpt>
      <trkpt lat="48.39301" lon="2.13311">
        <ele>107</ele>
        <time>2011-04-15T13:25:58Z</time>
      </trkpt>
      <trkpt lat="48.39301" lon="2.13313">
        <ele>107</ele>
        <time>2011-04-15T13:25:59Z</time>
      </trkpt>
      <trkpt lat="48.39302" lon="2.13315">
        <ele>107</ele>
        <time>2011-04-15T13:26:00Z</time>
      </trkpt>
      <trkpt lat="48.39303" lon="2.13317">
        <ele>107</ele>
        <time>2011-04-15T13:26:01Z</time>
      </trkpt>
      <trkpt lat="48.39304" lon="2.13319">
        <ele>107</ele>
        <time>2011-04-15T13:26:02Z</time>
      </trkpt>
      <trkpt lat="48.39304" lon="2.13321">
        <ele>107</ele>
        <time>2011-04-15T13:26:03Z</time>
      </trkpt>
      <trkpt lat="48.39305" lon="2.13323">
        <ele>107</ele>
        <time>2011-04-15T13:26:04Z</time>
      </trkpt>
      <trkpt lat="48.39305" lon="2.13324">
        <ele>107</ele>
        <time>2011-04-15T13:26:05Z</time>
      </trkpt>
      <trkpt lat="48.39306" lon="2.13327">
        <ele>107</ele>
        <time>2011-04-15T13:26:07Z</time>
      </trkpt>
      <trkpt lat="48.39307" lon="2.1333">
        <ele>107</ele>
        <time>2011-04-15T13:26:09Z</time>
      </trkpt>
      <trkpt lat="48.39307" lon="2.13332">
        <ele>107</ele>
        <time>2011-04-15T13:26:12Z</time>
      </trkpt>
      <trkpt lat="48.39308" lon="2.13334">
        <ele>107</ele>
        <time>2011-04-15T13:26:22Z</time>
      </trkpt>
      <trkpt lat="48.39309" lon="2.13334">
        <ele>107</ele>
        <time>2011-04-15T13:26:35Z</time>
      </trkpt>
      <trkpt lat="48.39309" lon="2.13336">
        <ele>107</ele>
        <time>2011-04-15T13:26:39Z</time>
      </trkpt>
      <trkpt lat="48.39308" lon="2.13337">
        <ele>107</ele>
        <time>2011-04-15T13:26:41Z</time>
      </trkpt>
      <trkpt lat="48.39306" lon="2.13337">
        <ele>107</ele>
        <time>2011-04-15T13:26:42Z</time>
      </trkpt>
      <trkpt lat="48.39304" lon="2.13338">
        <ele>107</ele>
        <time>2011-04-15T13:26:44Z</time>
      </trkpt>
      <trkpt lat="48.39302" lon="2.1334">
        <ele>107</ele>
        <time>2011-04-15T13:26:46Z</time>
      </trkpt>
      <trkpt lat="48.39301" lon="2.1334">
        <ele>107</ele>
        <time>2011-04-15T13:26:47Z</time>
      </trkpt>
      <trkpt lat="48.393" lon="2.13341">
        <ele>107</ele>
        <time>2011-04-15T13:26:48Z</time>
      </trkpt>
      <trkpt lat="48.39298" lon="2.13342">
        <ele>107</ele>
        <time>2011-04-15T13:26:49Z</time>
      </trkpt>
      <trkpt lat="48.39297" lon="2.13342">
        <ele>107</ele>
        <time>2011-04-15T13:26:50Z</time>
      </trkpt>
      <trkpt lat="48.39296" lon="2.13342">
        <ele>107</ele>
        <time>2011-04-15T13:26:51Z</time>
      </trkpt>
      <trkpt lat="48.39295" lon="2.13343">
        <ele>107</ele>
        <time>2011-04-15T13:26:52Z</time>
      </trkpt>
      <trkpt lat="48.39293" lon="2.13343">
        <ele>107</ele>
        <time>2011-04-15T13:26:53Z</time>
      </trkpt>
      <trkpt lat="48.39291" lon="2.13344">
        <ele>107</ele>
        <time>2011-04-15T13:26:54Z</time>
      </trkpt>
      <trkpt lat="48.39289" lon="2.13344">
        <ele>107</ele>
        <time>2011-04-15T13:26:55Z</time>
      </trkpt>
      <trkpt lat="48.39287" lon="2.13346">
        <ele>107</ele>
        <time>2011-04-15T13:26:56Z</time>
      </trkpt>
      <trkpt lat="48.39285" lon="2.13347">
        <ele>107</ele>
        <time>2011-04-15T13:26:57Z</time>
      </trkpt>
      <trkpt lat="48.39283" lon="2.13349">
        <ele>107</ele>
        <time>2011-04-15T13:26:58Z</time>
      </trkpt>
      <trkpt lat="48.39282" lon="2.1335">
        <ele>108</ele>
        <time>2011-04-15T13:26:59Z</time>
      </trkpt>
      <trkpt lat="48.39281" lon="2.1335">
        <ele>108</ele>
        <time>2011-04-15T13:27:00Z</time>
      </trkpt>
      <trkpt lat="48.39279" lon="2.13351">
        <ele>108</ele>
        <time>2011-04-15T13:27:01Z</time>
      </trkpt>
      <trkpt lat="48.39278" lon="2.13352">
        <ele>108</ele>
        <time>2011-04-15T13:27:02Z</time>
      </trkpt>
      <trkpt lat="48.39277" lon="2.13353">
        <ele>109</ele>
        <time>2011-04-15T13:27:03Z</time>
      </trkpt>
      <trkpt lat="48.39275" lon="2.13353">
        <ele>109</ele>
        <time>2011-04-15T13:27:04Z</time>
      </trkpt>
      <trkpt lat="48.39274" lon="2.13354">
        <ele>109</ele>
        <time>2011-04-15T13:27:05Z</time>
      </trkpt>
      <trkpt lat="48.39273" lon="2.13354">
        <ele>109</ele>
        <time>2011-04-15T13:27:06Z</time>
      </trkpt>
      <trkpt lat="48.39271" lon="2.13355">
        <ele>110</ele>
        <time>2011-04-15T13:27:07Z</time>
      </trkpt>
      <trkpt lat="48.3927" lon="2.13356">
        <ele>110</ele>
        <time>2011-04-15T13:27:08Z</time>
      </trkpt>
      <trkpt lat="48.39269" lon="2.13357">
        <ele>110</ele>
        <time>2011-04-15T13:27:09Z</time>
      </trkpt>
      <trkpt lat="48.39268" lon="2.13358">
        <ele>111</ele>
        <time>2011-04-15T13:27:10Z</time>
      </trkpt>
      <trkpt lat="48.39266" lon="2.13359">
        <ele>111</ele>
        <time>2011-04-15T13:27:11Z</time>
      </trkpt>
      <trkpt lat="48.39265" lon="2.1336">
        <ele>111</ele>
        <time>2011-04-15T13:27:12Z</time>
      </trkpt>
      <trkpt lat="48.39263" lon="2.13361">
        <ele>112</ele>
        <time>2011-04-15T13:27:14Z</time>
      </trkpt>
      <trkpt lat="48.39261" lon="2.13362">
        <ele>112</ele>
        <time>2011-04-15T13:27:16Z</time>
      </trkpt>
      <trkpt lat="48.39259" lon="2.13364">
        <ele>112</ele>
        <time>2011-04-15T13:27:18Z</time>
      </trkpt>
      <trkpt lat="48.39257" lon="2.13365">
        <ele>112</ele>
        <time>2011-04-15T13:27:19Z</time>
      </trkpt>
      <trkpt lat="48.39256" lon="2.13366">
        <ele>112</ele>
        <time>2011-04-15T13:27:20Z</time>
      </trkpt>
      <trkpt lat="48.39254" lon="2.13367">
        <ele>112</ele>
        <time>2011-04-15T13:27:22Z</time>
      </trkpt>
      <trkpt lat="48.39253" lon="2.13368">
        <ele>112</ele>
        <time>2011-04-15T13:27:23Z</time>
      </trkpt>
      <trkpt lat="48.39251" lon="2.13369">
        <ele>112</ele>
        <time>2011-04-15T13:27:24Z</time>
      </trkpt>
      <trkpt lat="48.3925" lon="2.1337">
        <ele>112</ele>
        <time>2011-04-15T13:27:25Z</time>
      </trkpt>
      <trkpt lat="48.39248" lon="2.13372">
        <ele>112</ele>
        <time>2011-04-15T13:27:27Z</time>
      </trkpt>
      <trkpt lat="48.39247" lon="2.13372">
        <ele>112</ele>
        <time>2011-04-15T13:27:28Z</time>
      </trkpt>
      <trkpt lat="48.39245" lon="2.13374">
        <ele>112</ele>
        <time>2011-04-15T13:27:29Z</time>
      </trkpt>
      <trkpt lat="48.39244" lon="2.13374">
        <ele>112</ele>
        <time>2011-04-15T13:27:30Z</time>
      </trkpt>
      <trkpt lat="48.39243" lon="2.13375">
        <ele>112</ele>
        <time>2011-04-15T13:27:31Z</time>
      </trkpt>
      <trkpt lat="48.39242" lon="2.13375">
        <ele>112</ele>
        <time>2011-04-15T13:27:32Z</time>
      </trkpt>
      <trkpt lat="48.3924" lon="2.13376">
        <ele>112</ele>
        <time>2011-04-15T13:27:33Z</time>
      </trkpt>
      <trkpt lat="48.39239" lon="2.13377">
        <ele>113</ele>
        <time>2011-04-15T13:27:34Z</time>
      </trkpt>
      <trkpt lat="48.39237" lon="2.13378">
        <ele>113</ele>
        <time>2011-04-15T13:27:36Z</time>
      </trkpt>
      <trkpt lat="48.39235" lon="2.13379">
        <ele>113</ele>
        <time>2011-04-15T13:27:38Z</time>
      </trkpt>
      <trkpt lat="48.39234" lon="2.1338">
        <ele>113</ele>
        <time>2011-04-15T13:27:39Z</time>
      </trkpt>
      <trkpt lat="48.39233" lon="2.13381">
        <ele>113</ele>
        <time>2011-04-15T13:27:40Z</time>
      </trkpt>
      <trkpt lat="48.39231" lon="2.13383">
        <ele>113</ele>
        <time>2011-04-15T13:27:41Z</time>
      </trkpt>
      <trkpt lat="48.3923" lon="2.13383">
        <ele>113</ele>
        <time>2011-04-15T13:27:42Z</time>
      </trkpt>
      <trkpt lat="48.39228" lon="2.13384">
        <ele>113</ele>
        <time>2011-04-15T13:27:43Z</time>
      </trkpt>
      <trkpt lat="48.39227" lon="2.13385">
        <ele>113</ele>
        <time>2011-04-15T13:27:44Z</time>
      </trkpt>
      <trkpt lat="48.39226" lon="2.13386">
        <ele>113</ele>
        <time>2011-04-15T13:27:45Z</time>
      </trkpt>
      <trkpt lat="48.39225" lon="2.13387">
        <ele>113</ele>
        <time>2011-04-15T13:27:46Z</time>
      </trkpt>
      <trkpt lat="48.39223" lon="2.13388">
        <ele>114</ele>
        <time>2011-04-15T13:27:47Z</time>
      </trkpt>
      <trkpt lat="48.39222" lon="2.13389">
        <ele>114</ele>
        <time>2011-04-15T13:27:48Z</time>
      </trkpt>
      <trkpt lat="48.39221" lon="2.1339">
        <ele>114</ele>
        <time>2011-04-15T13:27:49Z</time>
      </trkpt>
      <trkpt lat="48.39219" lon="2.13391">
        <ele>114</ele>
        <time>2011-04-15T13:27:50Z</time>
      </trkpt>
      <trkpt lat="48.39218" lon="2.13392">
        <ele>115</ele>
        <time>2011-04-15T13:27:51Z</time>
      </trkpt>
      <trkpt lat="48.39217" lon="2.13393">
        <ele>115</ele>
        <time>2011-04-15T13:27:52Z</time>
      </trkpt>
      <trkpt lat="48.39215" lon="2.13394">
        <ele>115</ele>
        <time>2011-04-15T13:27:53Z</time>
      </trkpt>
      <trkpt lat="48.39214" lon="2.13395">
        <ele>116</ele>
        <time>2011-04-15T13:27:54Z</time>
      </trkpt>
      <trkpt lat="48.39213" lon="2.13396">
        <ele>116</ele>
        <time>2011-04-15T13:27:55Z</time>
      </trkpt>
      <trkpt lat="48.39212" lon="2.13397">
        <ele>117</ele>
        <time>2011-04-15T13:27:56Z</time>
      </trkpt>
      <trkpt lat="48.3921" lon="2.13398">
        <ele>117</ele>
        <time>2011-04-15T13:27:57Z</time>
      </trkpt>
      <trkpt lat="48.39208" lon="2.13399">
        <ele>117</ele>
        <time>2011-04-15T13:27:59Z</time>
      </trkpt>
      <trkpt lat="48.39207" lon="2.134">
        <ele>118</ele>
        <time>2011-04-15T13:28:00Z</time>
      </trkpt>
      <trkpt lat="48.39205" lon="2.13401">
        <ele>118</ele>
        <time>2011-04-15T13:28:01Z</time>
      </trkpt>
      <trkpt lat="48.39204" lon="2.13402">
        <ele>118</ele>
        <time>2011-04-15T13:28:02Z</time>
      </trkpt>
      <trkpt lat="48.39203" lon="2.13403">
        <ele>118</ele>
        <time>2011-04-15T13:28:03Z</time>
      </trkpt>
      <trkpt lat="48.39201" lon="2.13404">
        <ele>118</ele>
        <time>2011-04-15T13:28:05Z</time>
      </trkpt>
      <trkpt lat="48.39199" lon="2.13405">
        <ele>118</ele>
        <time>2011-04-15T13:28:06Z</time>
      </trkpt>
      <trkpt lat="48.39197" lon="2.13408">
        <ele>118</ele>
        <time>2011-04-15T13:28:08Z</time>
      </trkpt>
      <trkpt lat="48.39196" lon="2.13409">
        <ele>118</ele>
        <time>2011-04-15T13:28:09Z</time>
      </trkpt>
      <trkpt lat="48.39194" lon="2.1341">
        <ele>119</ele>
        <time>2011-04-15T13:28:11Z</time>
      </trkpt>
      <trkpt lat="48.39192" lon="2.13412">
        <ele>119</ele>
        <time>2011-04-15T13:28:12Z</time>
      </trkpt>
      <trkpt lat="48.39191" lon="2.13413">
        <ele>119</ele>
        <time>2011-04-15T13:28:13Z</time>
      </trkpt>
      <trkpt lat="48.39189" lon="2.13414">
        <ele>119</ele>
        <time>2011-04-15T13:28:14Z</time>
      </trkpt>
      <trkpt lat="48.39188" lon="2.13415">
        <ele>119</ele>
        <time>2011-04-15T13:28:15Z</time>
      </trkpt>
      <trkpt lat="48.39187" lon="2.13416">
        <ele>119</ele>
        <time>2011-04-15T13:28:16Z</time>
      </trkpt>
      <trkpt lat="48.39186" lon="2.13417">
        <ele>119</ele>
        <time>2011-04-15T13:28:17Z</time>
      </trkpt>
      <trkpt lat="48.39184" lon="2.13417">
        <ele>119</ele>
        <time>2011-04-15T13:28:18Z</time>
      </trkpt>
      <trkpt lat="48.39183" lon="2.13419">
        <ele>119</ele>
        <time>2011-04-15T13:28:19Z</time>
      </trkpt>
      <trkpt lat="48.39182" lon="2.1342">
        <ele>119</ele>
        <time>2011-04-15T13:28:20Z</time>
      </trkpt>
      <trkpt lat="48.3918" lon="2.13421">
        <ele>119</ele>
        <time>2011-04-15T13:28:21Z</time>
      </trkpt>
      <trkpt lat="48.39179" lon="2.13422">
        <ele>119</ele>
        <time>2011-04-15T13:28:22Z</time>
      </trkpt>
      <trkpt lat="48.39178" lon="2.13422">
        <ele>119</ele>
        <time>2011-04-15T13:28:23Z</time>
      </trkpt>
      <trkpt lat="48.39176" lon="2.13423">
        <ele>119</ele>
        <time>2011-04-15T13:28:24Z</time>
      </trkpt>
      <trkpt lat="48.39175" lon="2.13423">
        <ele>119</ele>
        <time>2011-04-15T13:28:25Z</time>
      </trkpt>
      <trkpt lat="48.39174" lon="2.13424">
        <ele>119</ele>
        <time>2011-04-15T13:28:26Z</time>
      </trkpt>
      <trkpt lat="48.39172" lon="2.13425">
        <ele>119</ele>
        <time>2011-04-15T13:28:27Z</time>
      </trkpt>
      <trkpt lat="48.39171" lon="2.13426">
        <ele>119</ele>
        <time>2011-04-15T13:28:28Z</time>
      </trkpt>
      <trkpt lat="48.3917" lon="2.13427">
        <ele>119</ele>
        <time>2011-04-15T13:28:29Z</time>
      </trkpt>
      <trkpt lat="48.39168" lon="2.13429">
        <ele>119</ele>
        <time>2011-04-15T13:28:30Z</time>
      </trkpt>
      <trkpt lat="48.39167" lon="2.13429">
        <ele>119</ele>
        <time>2011-04-15T13:28:31Z</time>
      </trkpt>
      <trkpt lat="48.39166" lon="2.1343">
        <ele>119</ele>
        <time>2011-04-15T13:28:32Z</time>
      </trkpt>
      <trkpt lat="48.39164" lon="2.13431">
        <ele>119</ele>
        <time>2011-04-15T13:28:33Z</time>
      </trkpt>
      <trkpt lat="48.39163" lon="2.13432">
        <ele>120</ele>
        <time>2011-04-15T13:28:34Z</time>
      </trkpt>
      <trkpt lat="48.39162" lon="2.13432">
        <ele>120</ele>
        <time>2011-04-15T13:28:35Z</time>
      </trkpt>
      <trkpt lat="48.39161" lon="2.13433">
        <ele>120</ele>
        <time>2011-04-15T13:28:36Z</time>
      </trkpt>
      <trkpt lat="48.39159" lon="2.13434">
        <ele>120</ele>
        <time>2011-04-15T13:28:37Z</time>
      </trkpt>
      <trkpt lat="48.39158" lon="2.13437">
        <ele>120</ele>
        <time>2011-04-15T13:28:39Z</time>
      </trkpt>
      <trkpt lat="48.39156" lon="2.13439">
        <ele>120</ele>
        <time>2011-04-15T13:28:41Z</time>
      </trkpt>
      <trkpt lat="48.39155" lon="2.13442">
        <ele>120</ele>
        <time>2011-04-15T13:28:43Z</time>
      </trkpt>
      <trkpt lat="48.39154" lon="2.13444">
        <ele>120</ele>
        <time>2011-04-15T13:28:44Z</time>
      </trkpt>
      <trkpt lat="48.39154" lon="2.13447">
        <ele>120</ele>
        <time>2011-04-15T13:28:45Z</time>
      </trkpt>
      <trkpt lat="48.39154" lon="2.13449">
        <ele>120</ele>
        <time>2011-04-15T13:28:46Z</time>
      </trkpt>
      <trkpt lat="48.39154" lon="2.13451">
        <ele>121</ele>
        <time>2011-04-15T13:28:47Z</time>
      </trkpt>
      <trkpt lat="48.39153" lon="2.13454">
        <ele>121</ele>
        <time>2011-04-15T13:28:48Z</time>
      </trkpt>
      <trkpt lat="48.39153" lon="2.13456">
        <ele>121</ele>
        <time>2011-04-15T13:28:49Z</time>
      </trkpt>
      <trkpt lat="48.39154" lon="2.13458">
        <ele>121</ele>
        <time>2011-04-15T13:28:50Z</time>
      </trkpt>
      <trkpt lat="48.39154" lon="2.1346">
        <ele>121</ele>
        <time>2011-04-15T13:28:51Z</time>
      </trkpt>
      <trkpt lat="48.39154" lon="2.13463">
        <ele>122</ele>
        <time>2011-04-15T13:28:52Z</time>
      </trkpt>
      <trkpt lat="48.39154" lon="2.13466">
        <ele>122</ele>
        <time>2011-04-15T13:28:53Z</time>
      </trkpt>
      <trkpt lat="48.39154" lon="2.13469">
        <ele>122</ele>
        <time>2011-04-15T13:28:54Z</time>
      </trkpt>
      <trkpt lat="48.39154" lon="2.13472">
        <ele>122</ele>
        <time>2011-04-15T13:28:55Z</time>
      </trkpt>
      <trkpt lat="48.39154" lon="2.13475">
        <ele>123</ele>
        <time>2011-04-15T13:28:56Z</time>
      </trkpt>
      <trkpt lat="48.39154" lon="2.13478">
        <ele>123</ele>
        <time>2011-04-15T13:28:57Z</time>
      </trkpt>
      <trkpt lat="48.39154" lon="2.13481">
        <ele>123</ele>
        <time>2011-04-15T13:28:58Z</time>
      </trkpt>
      <trkpt lat="48.39154" lon="2.13484">
        <ele>123</ele>
        <time>2011-04-15T13:28:59Z</time>
      </trkpt>
      <trkpt lat="48.39155" lon="2.13487">
        <ele>123</ele>
        <time>2011-04-15T13:29:00Z</time>
      </trkpt>
      <trkpt lat="48.39155" lon="2.13489">
        <ele>123</ele>
        <time>2011-04-15T13:29:01Z</time>
      </trkpt>
      <trkpt lat="48.39155" lon="2.13492">
        <ele>123</ele>
        <time>2011-04-15T13:29:02Z</time>
      </trkpt>
      <trkpt lat="48.39155" lon="2.13494">
        <ele>123</ele>
        <time>2011-04-15T13:29:03Z</time>
      </trkpt>
      <trkpt lat="48.39156" lon="2.13496">
        <ele>123</ele>
        <time>2011-04-15T13:29:04Z</time>
      </trkpt>
      <trkpt lat="48.39156" lon="2.13499">
        <ele>123</ele>
        <time>2011-04-15T13:29:05Z</time>
      </trkpt>
      <trkpt lat="48.39156" lon="2.13501">
        <ele>123</ele>
        <time>2011-04-15T13:29:06Z</time>
      </trkpt>
      <trkpt lat="48.39156" lon="2.13503">
        <ele>123</ele>
        <time>2011-04-15T13:29:07Z</time>
      </trkpt>
      <trkpt lat="48.39156" lon="2.13505">
        <ele>123</ele>
        <time>2011-04-15T13:29:08Z</time>
      </trkpt>
      <trkpt lat="48.39156" lon="2.13508">
        <ele>123</ele>
        <time>2011-04-15T13:29:09Z</time>
      </trkpt>
      <trkpt lat="48.39156" lon="2.1351">
        <ele>123</ele>
        <time>2011-04-15T13:29:10Z</time>
      </trkpt>
      <trkpt lat="48.39156" lon="2.13512">
        <ele>123</ele>
        <time>2011-04-15T13:29:11Z</time>
      </trkpt>
      <trkpt lat="48.39156" lon="2.13514">
        <ele>123</ele>
        <time>2011-04-15T13:29:12Z</time>
      </trkpt>
      <trkpt lat="48.39156" lon="2.13516">
        <ele>123</ele>
        <time>2011-04-15T13:29:13Z</time>
      </trkpt>
      <trkpt lat="48.39156" lon="2.13518">
        <ele>123</ele>
        <time>2011-04-15T13:29:14Z</time>
      </trkpt>
      <trkpt lat="48.39156" lon="2.1352">
        <ele>123</ele>
        <time>2011-04-15T13:29:15Z</time>
      </trkpt>
      <trkpt lat="48.39156" lon="2.13523">
        <ele>123</ele>
        <time>2011-04-15T13:29:16Z</time>
      </trkpt>
      <trkpt lat="48.39156" lon="2.13525">
        <ele>123</ele>
        <time>2011-04-15T13:29:17Z</time>
      </trkpt>
      <trkpt lat="48.39156" lon="2.13527">
        <ele>123</ele>
        <time>2011-04-15T13:29:18Z</time>
      </trkpt>
      <trkpt lat="48.39156" lon="2.13529">
        <ele>123</ele>
        <time>2011-04-15T13:29:19Z</time>
      </trkpt>
      <trkpt lat="48.39156" lon="2.13532">
        <ele>123</ele>
        <time>2011-04-15T13:29:20Z</time>
      </trkpt>
      <trkpt lat="48.39156" lon="2.13534">
        <ele>123</ele>
        <time>2011-04-15T13:29:21Z</time>
      </trkpt>
      <trkpt lat="48.39156" lon="2.13536">
        <ele>123</ele>
        <time>2011-04-15T13:29:22Z</time>
      </trkpt>
      <trkpt lat="48.39156" lon="2.13538">
        <ele>123</ele>
        <time>2011-04-15T13:29:23Z</time>
      </trkpt>
      <trkpt lat="48.39156" lon="2.1354">
        <ele>123</ele>
        <time>2011-04-15T13:29:24Z</time>
      </trkpt>
      <trkpt lat="48.39157" lon="2.13542">
        <ele>123</ele>
        <time>2011-04-15T13:29:25Z</time>
      </trkpt>
      <trkpt lat="48.39157" lon="2.13544">
        <ele>123</ele>
        <time>2011-04-15T13:29:27Z</time>
      </trkpt>
      <trkpt lat="48.39156" lon="2.13542">
        <ele>123</ele>
        <time>2011-04-15T13:29:42Z</time>
      </trkpt>
      <trkpt lat="48.39155" lon="2.13539">
        <ele>124</ele>
        <time>2011-04-15T13:29:44Z</time>
      </trkpt>
      <trkpt lat="48.39155" lon="2.13537">
        <ele>124</ele>
        <time>2011-04-15T13:29:45Z</time>
      </trkpt>
      <trkpt lat="48.39155" lon="2.13535">
        <ele>124</ele>
        <time>2011-04-15T13:29:46Z</time>
      </trkpt>
      <trkpt lat="48.39155" lon="2.13533">
        <ele>124</ele>
        <time>2011-04-15T13:29:47Z</time>
      </trkpt>
      <trkpt lat="48.39155" lon="2.13532">
        <ele>124</ele>
        <time>2011-04-15T13:29:48Z</time>
      </trkpt>
      <trkpt lat="48.39155" lon="2.1353">
        <ele>124</ele>
        <time>2011-04-15T13:29:49Z</time>
      </trkpt>
      <trkpt lat="48.39155" lon="2.13528">
        <ele>124</ele>
        <time>2011-04-15T13:29:50Z</time>
      </trkpt>
      <trkpt lat="48.39155" lon="2.13526">
        <ele>124</ele>
        <time>2011-04-15T13:29:51Z</time>
      </trkpt>
      <trkpt lat="48.39155" lon="2.13524">
        <ele>125</ele>
        <time>2011-04-15T13:29:52Z</time>
      </trkpt>
      <trkpt lat="48.39154" lon="2.13522">
        <ele>125</ele>
        <time>2011-04-15T13:29:53Z</time>
      </trkpt>
      <trkpt lat="48.39154" lon="2.1352">
        <ele>125</ele>
        <time>2011-04-15T13:29:54Z</time>
      </trkpt>
      <trkpt lat="48.39154" lon="2.13518">
        <ele>125</ele>
        <time>2011-04-15T13:29:55Z</time>
      </trkpt>
      <trkpt lat="48.39154" lon="2.13516">
        <ele>125</ele>
        <time>2011-04-15T13:29:56Z</time>
      </trkpt>
      <trkpt lat="48.39154" lon="2.13514">
        <ele>125</ele>
        <time>2011-04-15T13:29:57Z</time>
      </trkpt>
      <trkpt lat="48.39153" lon="2.13512">
        <ele>125</ele>
        <time>2011-04-15T13:29:58Z</time>
      </trkpt>
      <trkpt lat="48.39153" lon="2.1351">
        <ele>125</ele>
        <time>2011-04-15T13:29:59Z</time>
      </trkpt>
      <trkpt lat="48.39153" lon="2.13508">
        <ele>125</ele>
        <time>2011-04-15T13:30:00Z</time>
      </trkpt>
      <trkpt lat="48.39153" lon="2.13506">
        <ele>125</ele>
        <time>2011-04-15T13:30:01Z</time>
      </trkpt>
      <trkpt lat="48.39153" lon="2.13504">
        <ele>125</ele>
        <time>2011-04-15T13:30:02Z</time>
      </trkpt>
      <trkpt lat="48.39153" lon="2.13503">
        <ele>126</ele>
        <time>2011-04-15T13:30:03Z</time>
      </trkpt>
      <trkpt lat="48.39153" lon="2.13501">
        <ele>126</ele>
        <time>2011-04-15T13:30:04Z</time>
      </trkpt>
      <trkpt lat="48.39153" lon="2.13499">
        <ele>126</ele>
        <time>2011-04-15T13:30:05Z</time>
      </trkpt>
      <trkpt lat="48.39153" lon="2.13497">
        <ele>126</ele>
        <time>2011-04-15T13:30:06Z</time>
      </trkpt>
      <trkpt lat="48.39153" lon="2.13495">
        <ele>126</ele>
        <time>2011-04-15T13:30:07Z</time>
      </trkpt>
      <trkpt lat="48.39153" lon="2.13493">
        <ele>126</ele>
        <time>2011-04-15T13:30:08Z</time>
      </trkpt>
      <trkpt lat="48.39153" lon="2.13491">
        <ele>126</ele>
        <time>2011-04-15T13:30:09Z</time>
      </trkpt>
      <trkpt lat="48.39153" lon="2.13489">
        <ele>126</ele>
        <time>2011-04-15T13:30:10Z</time>
      </trkpt>
      <trkpt lat="48.39153" lon="2.13488">
        <ele>126</ele>
        <time>2011-04-15T13:30:11Z</time>
      </trkpt>
      <trkpt lat="48.39152" lon="2.13486">
        <ele>126</ele>
        <time>2011-04-15T13:30:12Z</time>
      </trkpt>
      <trkpt lat="48.39152" lon="2.13484">
        <ele>126</ele>
        <time>2011-04-15T13:30:13Z</time>
      </trkpt>
      <trkpt lat="48.39152" lon="2.13482">
        <ele>126</ele>
        <time>2011-04-15T13:30:14Z</time>
      </trkpt>
      <trkpt lat="48.39152" lon="2.1348">
        <ele>126</ele>
        <time>2011-04-15T13:30:15Z</time>
      </trkpt>
      <trkpt lat="48.39152" lon="2.13479">
        <ele>126</ele>
        <time>2011-04-15T13:30:16Z</time>
      </trkpt>
      <trkpt lat="48.39152" lon="2.13477">
        <ele>126</ele>
        <time>2011-04-15T13:30:17Z</time>
      </trkpt>
      <trkpt lat="48.39152" lon="2.13475">
        <ele>126</ele>
        <time>2011-04-15T13:30:18Z</time>
      </trkpt>
      <trkpt lat="48.39152" lon="2.13473">
        <ele>127</ele>
        <time>2011-04-15T13:30:19Z</time>
      </trkpt>
      <trkpt lat="48.39152" lon="2.13472">
        <ele>127</ele>
        <time>2011-04-15T13:30:20Z</time>
      </trkpt>
      <trkpt lat="48.39152" lon="2.1347">
        <ele>127</ele>
        <time>2011-04-15T13:30:21Z</time>
      </trkpt>
      <trkpt lat="48.39152" lon="2.13468">
        <ele>127</ele>
        <time>2011-04-15T13:30:22Z</time>
      </trkpt>
      <trkpt lat="48.39151" lon="2.13466">
        <ele>127</ele>
        <time>2011-04-15T13:30:23Z</time>
      </trkpt>
      <trkpt lat="48.39151" lon="2.13464">
        <ele>127</ele>
        <time>2011-04-15T13:30:24Z</time>
      </trkpt>
      <trkpt lat="48.39151" lon="2.13463">
        <ele>127</ele>
        <time>2011-04-15T13:30:25Z</time>
      </trkpt>
      <trkpt lat="48.39151" lon="2.13461">
        <ele>127</ele>
        <time>2011-04-15T13:30:26Z</time>
      </trkpt>
      <trkpt lat="48.39151" lon="2.13459">
        <ele>127</ele>
        <time>2011-04-15T13:30:27Z</time>
      </trkpt>
      <trkpt lat="48.39151" lon="2.13457">
        <ele>127</ele>
        <time>2011-04-15T13:30:28Z</time>
      </trkpt>
      <trkpt lat="48.39151" lon="2.13454">
        <ele>127</ele>
        <time>2011-04-15T13:30:30Z</time>
      </trkpt>
      <trkpt lat="48.39152" lon="2.13451">
        <ele>127</ele>
        <time>2011-04-15T13:30:32Z</time>
      </trkpt>
      <trkpt lat="48.39152" lon="2.13449">
        <ele>127</ele>
        <time>2011-04-15T13:30:34Z</time>
      </trkpt>
      <trkpt lat="48.39153" lon="2.13448">
        <ele>127</ele>
        <time>2011-04-15T13:30:57Z</time>
      </trkpt>
      <trkpt lat="48.39153" lon="2.13447">
        <ele>127</ele>
        <time>2011-04-15T13:31:04Z</time>
      </trkpt>
      <trkpt lat="48.39153" lon="2.13444">
        <ele>127</ele>
        <time>2011-04-15T13:31:07Z</time>
      </trkpt>
      <trkpt lat="48.39153" lon="2.13441">
        <ele>127</ele>
        <time>2011-04-15T13:31:09Z</time>
      </trkpt>
      <trkpt lat="48.39153" lon="2.1344">
        <ele>127</ele>
        <time>2011-04-15T13:31:10Z</time>
      </trkpt>
      <trkpt lat="48.39152" lon="2.13437">
        <ele>127</ele>
        <time>2011-04-15T13:31:11Z</time>
      </trkpt>
      <trkpt lat="48.39151" lon="2.13436">
        <ele>127</ele>
        <time>2011-04-15T13:31:12Z</time>
      </trkpt>
      <trkpt lat="48.39151" lon="2.13434">
        <ele>127</ele>
        <time>2011-04-15T13:31:13Z</time>
      </trkpt>
      <trkpt lat="48.3915" lon="2.13432">
        <ele>127</ele>
        <time>2011-04-15T13:31:14Z</time>
      </trkpt>
      <trkpt lat="48.3915" lon="2.1343">
        <ele>127</ele>
        <time>2011-04-15T13:31:15Z</time>
      </trkpt>
      <trkpt lat="48.39149" lon="2.13429">
        <ele>127</ele>
        <time>2011-04-15T13:31:16Z</time>
      </trkpt>
      <trkpt lat="48.39148" lon="2.13425">
        <ele>127</ele>
        <time>2011-04-15T13:31:18Z</time>
      </trkpt>
      <trkpt lat="48.39147" lon="2.13424">
        <ele>127</ele>
        <time>2011-04-15T13:31:19Z</time>
      </trkpt>
      <trkpt lat="48.39147" lon="2.13422">
        <ele>127</ele>
        <time>2011-04-15T13:31:20Z</time>
      </trkpt>
      <trkpt lat="48.39146" lon="2.1342">
        <ele>127</ele>
        <time>2011-04-15T13:31:22Z</time>
      </trkpt>
      <trkpt lat="48.39145" lon="2.13418">
        <ele>127</ele>
        <time>2011-04-15T13:31:24Z</time>
      </trkpt>
      <trkpt lat="48.39145" lon="2.13416">
        <ele>127</ele>
        <time>2011-04-15T13:31:25Z</time>
      </trkpt>
      <trkpt lat="48.39144" lon="2.13413">
        <ele>127</ele>
        <time>2011-04-15T13:31:26Z</time>
      </trkpt>
      <trkpt lat="48.39143" lon="2.1341">
        <ele>127</ele>
        <time>2011-04-15T13:31:27Z</time>
      </trkpt>
      <trkpt lat="48.39142" lon="2.13406">
        <ele>127</ele>
        <time>2011-04-15T13:31:28Z</time>
      </trkpt>
      <trkpt lat="48.3914" lon="2.13403">
        <ele>127</ele>
        <time>2011-04-15T13:31:29Z</time>
      </trkpt>
      <trkpt lat="48.39139" lon="2.13399">
        <ele>127</ele>
        <time>2011-04-15T13:31:30Z</time>
      </trkpt>
      <trkpt lat="48.39138" lon="2.13396">
        <ele>127</ele>
        <time>2011-04-15T13:31:31Z</time>
      </trkpt>
      <trkpt lat="48.39137" lon="2.13394">
        <ele>127</ele>
        <time>2011-04-15T13:31:32Z</time>
      </trkpt>
      <trkpt lat="48.39137" lon="2.13391">
        <ele>127</ele>
        <time>2011-04-15T13:31:33Z</time>
      </trkpt>
      <trkpt lat="48.39136" lon="2.13389">
        <ele>127</ele>
        <time>2011-04-15T13:31:34Z</time>
      </trkpt>
      <trkpt lat="48.39135" lon="2.13388">
        <ele>127</ele>
        <time>2011-04-15T13:31:35Z</time>
      </trkpt>
      <trkpt lat="48.39135" lon="2.13386">
        <ele>127</ele>
        <time>2011-04-15T13:31:36Z</time>
      </trkpt>
      <trkpt lat="48.39134" lon="2.13384">
        <ele>127</ele>
        <time>2011-04-15T13:31:37Z</time>
      </trkpt>
      <trkpt lat="48.39134" lon="2.13382">
        <ele>127</ele>
        <time>2011-04-15T13:31:38Z</time>
      </trkpt>
      <trkpt lat="48.39133" lon="2.1338">
        <ele>127</ele>
        <time>2011-04-15T13:31:39Z</time>
      </trkpt>
      <trkpt lat="48.39132" lon="2.13379">
        <ele>127</ele>
        <time>2011-04-15T13:31:40Z</time>
      </trkpt>
      <trkpt lat="48.39132" lon="2.13377">
        <ele>127</ele>
        <time>2011-04-15T13:31:41Z</time>
      </trkpt>
      <trkpt lat="48.39131" lon="2.13375">
        <ele>127</ele>
        <time>2011-04-15T13:31:42Z</time>
      </trkpt>
      <trkpt lat="48.39131" lon="2.13373">
        <ele>127</ele>
        <time>2011-04-15T13:31:43Z</time>
      </trkpt>
      <trkpt lat="48.3913" lon="2.13372">
        <ele>127</ele>
        <time>2011-04-15T13:31:44Z</time>
      </trkpt>
      <trkpt lat="48.39129" lon="2.1337">
        <ele>127</ele>
        <time>2011-04-15T13:31:45Z</time>
      </trkpt>
      <trkpt lat="48.39129" lon="2.13368">
        <ele>127</ele>
        <time>2011-04-15T13:31:46Z</time>
      </trkpt>
      <trkpt lat="48.39128" lon="2.13366">
        <ele>127</ele>
        <time>2011-04-15T13:31:47Z</time>
      </trkpt>
      <trkpt lat="48.39127" lon="2.13365">
        <ele>127</ele>
        <time>2011-04-15T13:31:48Z</time>
      </trkpt>
      <trkpt lat="48.39127" lon="2.13363">
        <ele>127</ele>
        <time>2011-04-15T13:31:49Z</time>
      </trkpt>
      <trkpt lat="48.39126" lon="2.13361">
        <ele>127</ele>
        <time>2011-04-15T13:31:50Z</time>
      </trkpt>
      <trkpt lat="48.39126" lon="2.13359">
        <ele>127</ele>
        <time>2011-04-15T13:31:51Z</time>
      </trkpt>
      <trkpt lat="48.39125" lon="2.13357">
        <ele>127</ele>
        <time>2011-04-15T13:31:52Z</time>
      </trkpt>
      <trkpt lat="48.39124" lon="2.13355">
        <ele>127</ele>
        <time>2011-04-15T13:31:53Z</time>
      </trkpt>
      <trkpt lat="48.39124" lon="2.13353">
        <ele>127</ele>
        <time>2011-04-15T13:31:54Z</time>
      </trkpt>
      <trkpt lat="48.39123" lon="2.13351">
        <ele>127</ele>
        <time>2011-04-15T13:31:55Z</time>
      </trkpt>
      <trkpt lat="48.39122" lon="2.13349">
        <ele>127</ele>
        <time>2011-04-15T13:31:56Z</time>
      </trkpt>
      <trkpt lat="48.39122" lon="2.13347">
        <ele>127</ele>
        <time>2011-04-15T13:31:57Z</time>
      </trkpt>
      <trkpt lat="48.39121" lon="2.13346">
        <ele>127</ele>
        <time>2011-04-15T13:31:58Z</time>
      </trkpt>
      <trkpt lat="48.39121" lon="2.13344">
        <ele>127</ele>
        <time>2011-04-15T13:31:59Z</time>
      </trkpt>
      <trkpt lat="48.3912" lon="2.13342">
        <ele>127</ele>
        <time>2011-04-15T13:32:00Z</time>
      </trkpt>
      <trkpt lat="48.39119" lon="2.1334">
        <ele>127</ele>
        <time>2011-04-15T13:32:01Z</time>
      </trkpt>
      <trkpt lat="48.39119" lon="2.13338">
        <ele>127</ele>
        <time>2011-04-15T13:32:02Z</time>
      </trkpt>
      <trkpt lat="48.39118" lon="2.13336">
        <ele>127</ele>
        <time>2011-04-15T13:32:03Z</time>
      </trkpt>
      <trkpt lat="48.39118" lon="2.13335">
        <ele>127</ele>
        <time>2011-04-15T13:32:04Z</time>
      </trkpt>
      <trkpt lat="48.39117" lon="2.13333">
        <ele>127</ele>
        <time>2011-04-15T13:32:05Z</time>
      </trkpt>
      <trkpt lat="48.39116" lon="2.1333">
        <ele>127</ele>
        <time>2011-04-15T13:32:06Z</time>
      </trkpt>
      <trkpt lat="48.39115" lon="2.13327">
        <ele>127</ele>
        <time>2011-04-15T13:32:07Z</time>
      </trkpt>
      <trkpt lat="48.39114" lon="2.13323">
        <ele>127</ele>
        <time>2011-04-15T13:32:08Z</time>
      </trkpt>
      <trkpt lat="48.39112" lon="2.1332">
        <ele>127</ele>
        <time>2011-04-15T13:32:09Z</time>
      </trkpt>
      <trkpt lat="48.39111" lon="2.13316">
        <ele>127</ele>
        <time>2011-04-15T13:32:10Z</time>
      </trkpt>
      <trkpt lat="48.3911" lon="2.13313">
        <ele>127</ele>
        <time>2011-04-15T13:32:11Z</time>
      </trkpt>
      <trkpt lat="48.39109" lon="2.13311">
        <ele>127</ele>
        <time>2011-04-15T13:32:12Z</time>
      </trkpt>
      <trkpt lat="48.39108" lon="2.13308">
        <ele>127</ele>
        <time>2011-04-15T13:32:13Z</time>
      </trkpt>
      <trkpt lat="48.39108" lon="2.13307">
        <ele>127</ele>
        <time>2011-04-15T13:32:14Z</time>
      </trkpt>
      <trkpt lat="48.39107" lon="2.13305">
        <ele>127</ele>
        <time>2011-04-15T13:32:15Z</time>
      </trkpt>
      <trkpt lat="48.39106" lon="2.13302">
        <ele>127</ele>
        <time>2011-04-15T13:32:16Z</time>
      </trkpt>
      <trkpt lat="48.39106" lon="2.133">
        <ele>127</ele>
        <time>2011-04-15T13:32:17Z</time>
      </trkpt>
      <trkpt lat="48.39105" lon="2.13299">
        <ele>127</ele>
        <time>2011-04-15T13:32:18Z</time>
      </trkpt>
      <trkpt lat="48.39105" lon="2.13297">
        <ele>127</ele>
        <time>2011-04-15T13:32:19Z</time>
      </trkpt>
      <trkpt lat="48.39104" lon="2.13295">
        <ele>127</ele>
        <time>2011-04-15T13:32:20Z</time>
      </trkpt>
      <trkpt lat="48.39103" lon="2.13293">
        <ele>127</ele>
        <time>2011-04-15T13:32:21Z</time>
      </trkpt>
      <trkpt lat="48.39103" lon="2.13291">
        <ele>127</ele>
        <time>2011-04-15T13:32:22Z</time>
      </trkpt>
      <trkpt lat="48.39102" lon="2.13289">
        <ele>127</ele>
        <time>2011-04-15T13:32:23Z</time>
      </trkpt>
      <trkpt lat="48.39102" lon="2.13287">
        <ele>127</ele>
        <time>2011-04-15T13:32:24Z</time>
      </trkpt>
      <trkpt lat="48.39101" lon="2.13285">
        <ele>127</ele>
        <time>2011-04-15T13:32:25Z</time>
      </trkpt>
      <trkpt lat="48.391" lon="2.13283">
        <ele>127</ele>
        <time>2011-04-15T13:32:26Z</time>
      </trkpt>
      <trkpt lat="48.391" lon="2.13281">
        <ele>127</ele>
        <time>2011-04-15T13:32:27Z</time>
      </trkpt>
      <trkpt lat="48.39099" lon="2.13278">
        <ele>127</ele>
        <time>2011-04-15T13:32:28Z</time>
      </trkpt>
      <trkpt lat="48.39098" lon="2.13275">
        <ele>127</ele>
        <time>2011-04-15T13:32:29Z</time>
      </trkpt>
      <trkpt lat="48.39097" lon="2.13272">
        <ele>127</ele>
        <time>2011-04-15T13:32:30Z</time>
      </trkpt>
      <trkpt lat="48.39096" lon="2.1327">
        <ele>127</ele>
        <time>2011-04-15T13:32:31Z</time>
      </trkpt>
      <trkpt lat="48.39095" lon="2.13267">
        <ele>127</ele>
        <time>2011-04-15T13:32:32Z</time>
      </trkpt>
      <trkpt lat="48.39095" lon="2.13265">
        <ele>127</ele>
        <time>2011-04-15T13:32:33Z</time>
      </trkpt>
      <trkpt lat="48.39094" lon="2.13262">
        <ele>127</ele>
        <time>2011-04-15T13:32:34Z</time>
      </trkpt>
      <trkpt lat="48.39093" lon="2.1326">
        <ele>127</ele>
        <time>2011-04-15T13:32:35Z</time>
      </trkpt>
      <trkpt lat="48.39092" lon="2.13258">
        <ele>127</ele>
        <time>2011-04-15T13:32:36Z</time>
      </trkpt>
      <trkpt lat="48.39092" lon="2.13255">
        <ele>127</ele>
        <time>2011-04-15T13:32:37Z</time>
      </trkpt>
      <trkpt lat="48.39091" lon="2.13253">
        <ele>127</ele>
        <time>2011-04-15T13:32:38Z</time>
      </trkpt>
      <trkpt lat="48.3909" lon="2.13251">
        <ele>127</ele>
        <time>2011-04-15T13:32:39Z</time>
      </trkpt>
      <trkpt lat="48.39089" lon="2.13249">
        <ele>127</ele>
        <time>2011-04-15T13:32:40Z</time>
      </trkpt>
      <trkpt lat="48.39089" lon="2.13247">
        <ele>127</ele>
        <time>2011-04-15T13:32:41Z</time>
      </trkpt>
      <trkpt lat="48.39088" lon="2.13245">
        <ele>127</ele>
        <time>2011-04-15T13:32:42Z</time>
      </trkpt>
      <trkpt lat="48.39087" lon="2.13243">
        <ele>127</ele>
        <time>2011-04-15T13:32:43Z</time>
      </trkpt>
      <trkpt lat="48.39087" lon="2.13241">
        <ele>127</ele>
        <time>2011-04-15T13:32:44Z</time>
      </trkpt>
      <trkpt lat="48.39086" lon="2.13239">
        <ele>127</ele>
        <time>2011-04-15T13:32:45Z</time>
      </trkpt>
      <trkpt lat="48.39085" lon="2.13237">
        <ele>127</ele>
        <time>2011-04-15T13:32:46Z</time>
      </trkpt>
      <trkpt lat="48.39085" lon="2.13235">
        <ele>127</ele>
        <time>2011-04-15T13:32:47Z</time>
      </trkpt>
      <trkpt lat="48.39084" lon="2.13233">
        <ele>127</ele>
        <time>2011-04-15T13:32:48Z</time>
      </trkpt>
      <trkpt lat="48.39083" lon="2.13231">
        <ele>127</ele>
        <time>2011-04-15T13:32:49Z</time>
      </trkpt>
      <trkpt lat="48.39083" lon="2.13229">
        <ele>127</ele>
        <time>2011-04-15T13:32:50Z</time>
      </trkpt>
      <trkpt lat="48.39082" lon="2.13227">
        <ele>127</ele>
        <time>2011-04-15T13:32:51Z</time>
      </trkpt>
      <trkpt lat="48.39081" lon="2.13225">
        <ele>128</ele>
        <time>2011-04-15T13:32:52Z</time>
      </trkpt>
      <trkpt lat="48.39081" lon="2.13223">
        <ele>128</ele>
        <time>2011-04-15T13:32:53Z</time>
      </trkpt>
      <trkpt lat="48.3908" lon="2.13221">
        <ele>128</ele>
        <time>2011-04-15T13:32:54Z</time>
      </trkpt>
      <trkpt lat="48.3908" lon="2.13219">
        <ele>128</ele>
        <time>2011-04-15T13:32:55Z</time>
      </trkpt>
      <trkpt lat="48.39079" lon="2.13217">
        <ele>128</ele>
        <time>2011-04-15T13:32:56Z</time>
      </trkpt>
      <trkpt lat="48.39078" lon="2.13216">
        <ele>128</ele>
        <time>2011-04-15T13:32:57Z</time>
      </trkpt>
      <trkpt lat="48.39078" lon="2.13214">
        <ele>128</ele>
        <time>2011-04-15T13:32:58Z</time>
      </trkpt>
      <trkpt lat="48.39077" lon="2.13212">
        <ele>128</ele>
        <time>2011-04-15T13:32:59Z</time>
      </trkpt>
      <trkpt lat="48.39076" lon="2.1321">
        <ele>128</ele>
        <time>2011-04-15T13:33:00Z</time>
      </trkpt>
      <trkpt lat="48.39076" lon="2.13208">
        <ele>128</ele>
        <time>2011-04-15T13:33:01Z</time>
      </trkpt>
      <trkpt lat="48.39075" lon="2.13206">
        <ele>128</ele>
        <time>2011-04-15T13:33:02Z</time>
      </trkpt>
      <trkpt lat="48.39074" lon="2.13204">
        <ele>128</ele>
        <time>2011-04-15T13:33:03Z</time>
      </trkpt>
      <trkpt lat="48.39074" lon="2.13202">
        <ele>128</ele>
        <time>2011-04-15T13:33:04Z</time>
      </trkpt>
      <trkpt lat="48.39073" lon="2.132">
        <ele>128</ele>
        <time>2011-04-15T13:33:05Z</time>
      </trkpt>
      <trkpt lat="48.39072" lon="2.13197">
        <ele>128</ele>
        <time>2011-04-15T13:33:06Z</time>
      </trkpt>
      <trkpt lat="48.39071" lon="2.13193">
        <ele>128</ele>
        <time>2011-04-15T13:33:07Z</time>
      </trkpt>
      <trkpt lat="48.3907" lon="2.1319">
        <ele>128</ele>
        <time>2011-04-15T13:33:08Z</time>
      </trkpt>
      <trkpt lat="48.39069" lon="2.13188">
        <ele>128</ele>
        <time>2011-04-15T13:33:09Z</time>
      </trkpt>
      <trkpt lat="48.39068" lon="2.13186">
        <ele>128</ele>
        <time>2011-04-15T13:33:10Z</time>
      </trkpt>
      <trkpt lat="48.39067" lon="2.13183">
        <ele>128</ele>
        <time>2011-04-15T13:33:11Z</time>
      </trkpt>
      <trkpt lat="48.39067" lon="2.13181">
        <ele>128</ele>
        <time>2011-04-15T13:33:12Z</time>
      </trkpt>
      <trkpt lat="48.39066" lon="2.13179">
        <ele>128</ele>
        <time>2011-04-15T13:33:13Z</time>
      </trkpt>
      <trkpt lat="48.39065" lon="2.13177">
        <ele>128</ele>
        <time>2011-04-15T13:33:14Z</time>
      </trkpt>
      <trkpt lat="48.39064" lon="2.13175">
        <ele>128</ele>
        <time>2011-04-15T13:33:15Z</time>
      </trkpt>
      <trkpt lat="48.39063" lon="2.13173">
        <ele>128</ele>
        <time>2011-04-15T13:33:16Z</time>
      </trkpt>
      <trkpt lat="48.39063" lon="2.13171">
        <ele>128</ele>
        <time>2011-04-15T13:33:17Z</time>
      </trkpt>
      <trkpt lat="48.39062" lon="2.13169">
        <ele>128</ele>
        <time>2011-04-15T13:33:18Z</time>
      </trkpt>
      <trkpt lat="48.39061" lon="2.13167">
        <ele>128</ele>
        <time>2011-04-15T13:33:19Z</time>
      </trkpt>
      <trkpt lat="48.39061" lon="2.13165">
        <ele>128</ele>
        <time>2011-04-15T13:33:20Z</time>
      </trkpt>
      <trkpt lat="48.3906" lon="2.13163">
        <ele>128</ele>
        <time>2011-04-15T13:33:21Z</time>
      </trkpt>
      <trkpt lat="48.39059" lon="2.13161">
        <ele>128</ele>
        <time>2011-04-15T13:33:22Z</time>
      </trkpt>
      <trkpt lat="48.39058" lon="2.13159">
        <ele>128</ele>
        <time>2011-04-15T13:33:23Z</time>
      </trkpt>
      <trkpt lat="48.39058" lon="2.13157">
        <ele>128</ele>
        <time>2011-04-15T13:33:24Z</time>
      </trkpt>
      <trkpt lat="48.39057" lon="2.13155">
        <ele>128</ele>
        <time>2011-04-15T13:33:25Z</time>
      </trkpt>
      <trkpt lat="48.39056" lon="2.13153">
        <ele>129</ele>
        <time>2011-04-15T13:33:26Z</time>
      </trkpt>
      <trkpt lat="48.39056" lon="2.13151">
        <ele>129</ele>
        <time>2011-04-15T13:33:27Z</time>
      </trkpt>
      <trkpt lat="48.39055" lon="2.13149">
        <ele>129</ele>
        <time>2011-04-15T13:33:28Z</time>
      </trkpt>
      <trkpt lat="48.39054" lon="2.13147">
        <ele>129</ele>
        <time>2011-04-15T13:33:29Z</time>
      </trkpt>
      <trkpt lat="48.39053" lon="2.13145">
        <ele>129</ele>
        <time>2011-04-15T13:33:30Z</time>
      </trkpt>
      <trkpt lat="48.39053" lon="2.13143">
        <ele>129</ele>
        <time>2011-04-15T13:33:31Z</time>
      </trkpt>
      <trkpt lat="48.39052" lon="2.13141">
        <ele>129</ele>
        <time>2011-04-15T13:33:32Z</time>
      </trkpt>
      <trkpt lat="48.39051" lon="2.13139">
        <ele>129</ele>
        <time>2011-04-15T13:33:33Z</time>
      </trkpt>
      <trkpt lat="48.39051" lon="2.13137">
        <ele>129</ele>
        <time>2011-04-15T13:33:34Z</time>
      </trkpt>
      <trkpt lat="48.3905" lon="2.13135">
        <ele>129</ele>
        <time>2011-04-15T13:33:35Z</time>
      </trkpt>
      <trkpt lat="48.39049" lon="2.13133">
        <ele>129</ele>
        <time>2011-04-15T13:33:36Z</time>
      </trkpt>
      <trkpt lat="48.39048" lon="2.13131">
        <ele>129</ele>
        <time>2011-04-15T13:33:37Z</time>
      </trkpt>
      <trkpt lat="48.39048" lon="2.13129">
        <ele>129</ele>
        <time>2011-04-15T13:33:38Z</time>
      </trkpt>
      <trkpt lat="48.39047" lon="2.13127">
        <ele>129</ele>
        <time>2011-04-15T13:33:39Z</time>
      </trkpt>
      <trkpt lat="48.39046" lon="2.13125">
        <ele>129</ele>
        <time>2011-04-15T13:33:40Z</time>
      </trkpt>
      <trkpt lat="48.39046" lon="2.13123">
        <ele>130</ele>
        <time>2011-04-15T13:33:41Z</time>
      </trkpt>
      <trkpt lat="48.39045" lon="2.13121">
        <ele>130</ele>
        <time>2011-04-15T13:33:42Z</time>
      </trkpt>
      <trkpt lat="48.39044" lon="2.1312">
        <ele>130</ele>
        <time>2011-04-15T13:33:43Z</time>
      </trkpt>
      <trkpt lat="48.39043" lon="2.13118">
        <ele>130</ele>
        <time>2011-04-15T13:33:44Z</time>
      </trkpt>
      <trkpt lat="48.39043" lon="2.13116">
        <ele>130</ele>
        <time>2011-04-15T13:33:45Z</time>
      </trkpt>
      <trkpt lat="48.39042" lon="2.13114">
        <ele>130</ele>
        <time>2011-04-15T13:33:46Z</time>
      </trkpt>
      <trkpt lat="48.39041" lon="2.13112">
        <ele>130</ele>
        <time>2011-04-15T13:33:47Z</time>
      </trkpt>
      <trkpt lat="48.39041" lon="2.1311">
        <ele>130</ele>
        <time>2011-04-15T13:33:48Z</time>
      </trkpt>
      <trkpt lat="48.3904" lon="2.13108">
        <ele>130</ele>
        <time>2011-04-15T13:33:49Z</time>
      </trkpt>
      <trkpt lat="48.39039" lon="2.13106">
        <ele>130</ele>
        <time>2011-04-15T13:33:50Z</time>
      </trkpt>
      <trkpt lat="48.39038" lon="2.13104">
        <ele>130</ele>
        <time>2011-04-15T13:33:51Z</time>
      </trkpt>
      <trkpt lat="48.39038" lon="2.13102">
        <ele>130</ele>
        <time>2011-04-15T13:33:52Z</time>
      </trkpt>
      <trkpt lat="48.39037" lon="2.131">
        <ele>130</ele>
        <time>2011-04-15T13:33:53Z</time>
      </trkpt>
      <trkpt lat="48.39036" lon="2.13098">
        <ele>130</ele>
        <time>2011-04-15T13:33:54Z</time>
      </trkpt>
      <trkpt lat="48.39036" lon="2.13096">
        <ele>130</ele>
        <time>2011-04-15T13:33:55Z</time>
      </trkpt>
      <trkpt lat="48.39035" lon="2.13094">
        <ele>130</ele>
        <time>2011-04-15T13:33:56Z</time>
      </trkpt>
      <trkpt lat="48.39034" lon="2.13092">
        <ele>130</ele>
        <time>2011-04-15T13:33:57Z</time>
      </trkpt>
      <trkpt lat="48.39034" lon="2.1309">
        <ele>130</ele>
        <time>2011-04-15T13:33:58Z</time>
      </trkpt>
      <trkpt lat="48.39033" lon="2.13088">
        <ele>130</ele>
        <time>2011-04-15T13:33:59Z</time>
      </trkpt>
      <trkpt lat="48.39032" lon="2.13086">
        <ele>130</ele>
        <time>2011-04-15T13:34:00Z</time>
      </trkpt>
      <trkpt lat="48.39032" lon="2.13084">
        <ele>130</ele>
        <time>2011-04-15T13:34:01Z</time>
      </trkpt>
      <trkpt lat="48.39031" lon="2.13082">
        <ele>130</ele>
        <time>2011-04-15T13:34:02Z</time>
      </trkpt>
      <trkpt lat="48.3903" lon="2.1308">
        <ele>130</ele>
        <time>2011-04-15T13:34:03Z</time>
      </trkpt>
      <trkpt lat="48.39029" lon="2.13077">
        <ele>130</ele>
        <time>2011-04-15T13:34:04Z</time>
      </trkpt>
      <trkpt lat="48.39028" lon="2.13074">
        <ele>130</ele>
        <time>2011-04-15T13:34:05Z</time>
      </trkpt>
      <trkpt lat="48.39027" lon="2.1307">
        <ele>130</ele>
        <time>2011-04-15T13:34:06Z</time>
      </trkpt>
      <trkpt lat="48.39026" lon="2.13067">
        <ele>130</ele>
        <time>2011-04-15T13:34:07Z</time>
      </trkpt>
      <trkpt lat="48.39025" lon="2.13064">
        <ele>130</ele>
        <time>2011-04-15T13:34:08Z</time>
      </trkpt>
      <trkpt lat="48.39024" lon="2.13061">
        <ele>130</ele>
        <time>2011-04-15T13:34:09Z</time>
      </trkpt>
      <trkpt lat="48.39023" lon="2.13059">
        <ele>130</ele>
        <time>2011-04-15T13:34:10Z</time>
      </trkpt>
      <trkpt lat="48.39022" lon="2.13057">
        <ele>130</ele>
        <time>2011-04-15T13:34:11Z</time>
      </trkpt>
      <trkpt lat="48.39021" lon="2.13055">
        <ele>130</ele>
        <time>2011-04-15T13:34:12Z</time>
      </trkpt>
      <trkpt lat="48.3902" lon="2.13053">
        <ele>130</ele>
        <time>2011-04-15T13:34:13Z</time>
      </trkpt>
      <trkpt lat="48.3902" lon="2.13051">
        <ele>130</ele>
        <time>2011-04-15T13:34:14Z</time>
      </trkpt>
      <trkpt lat="48.39019" lon="2.13049">
        <ele>130</ele>
        <time>2011-04-15T13:34:15Z</time>
      </trkpt>
      <trkpt lat="48.39019" lon="2.13046">
        <ele>130</ele>
        <time>2011-04-15T13:34:16Z</time>
      </trkpt>
      <trkpt lat="48.39018" lon="2.13045">
        <ele>130</ele>
        <time>2011-04-15T13:34:17Z</time>
      </trkpt>
      <trkpt lat="48.39017" lon="2.13043">
        <ele>130</ele>
        <time>2011-04-15T13:34:18Z</time>
      </trkpt>
      <trkpt lat="48.39017" lon="2.13041">
        <ele>130</ele>
        <time>2011-04-15T13:34:19Z</time>
      </trkpt>
      <trkpt lat="48.39016" lon="2.13039">
        <ele>130</ele>
        <time>2011-04-15T13:34:20Z</time>
      </trkpt>
      <trkpt lat="48.39016" lon="2.13037">
        <ele>130</ele>
        <time>2011-04-15T13:34:21Z</time>
      </trkpt>
      <trkpt lat="48.39015" lon="2.13036">
        <ele>130</ele>
        <time>2011-04-15T13:34:22Z</time>
      </trkpt>
      <trkpt lat="48.39014" lon="2.13034">
        <ele>130</ele>
        <time>2011-04-15T13:34:23Z</time>
      </trkpt>
      <trkpt lat="48.39014" lon="2.13032">
        <ele>130</ele>
        <time>2011-04-15T13:34:24Z</time>
      </trkpt>
      <trkpt lat="48.39013" lon="2.1303">
        <ele>130</ele>
        <time>2011-04-15T13:34:25Z</time>
      </trkpt>
      <trkpt lat="48.39013" lon="2.13028">
        <ele>130</ele>
        <time>2011-04-15T13:34:26Z</time>
      </trkpt>
      <trkpt lat="48.39013" lon="2.13026">
        <ele>130</ele>
        <time>2011-04-15T13:34:27Z</time>
      </trkpt>
      <trkpt lat="48.39013" lon="2.13024">
        <ele>130</ele>
        <time>2011-04-15T13:34:28Z</time>
      </trkpt>
      <trkpt lat="48.39013" lon="2.13022">
        <ele>130</ele>
        <time>2011-04-15T13:34:29Z</time>
      </trkpt>
      <trkpt lat="48.39013" lon="2.1302">
        <ele>130</ele>
        <time>2011-04-15T13:34:30Z</time>
      </trkpt>
      <trkpt lat="48.39013" lon="2.13018">
        <ele>130</ele>
        <time>2011-04-15T13:34:31Z</time>
      </trkpt>
      <trkpt lat="48.39014" lon="2.13016">
        <ele>130</ele>
        <time>2011-04-15T13:34:32Z</time>
      </trkpt>
      <trkpt lat="48.39014" lon="2.13014">
        <ele>130</ele>
        <time>2011-04-15T13:34:33Z</time>
      </trkpt>
      <trkpt lat="48.39014" lon="2.13012">
        <ele>130</ele>
        <time>2011-04-15T13:34:34Z</time>
      </trkpt>
      <trkpt lat="48.39014" lon="2.1301">
        <ele>130</ele>
        <time>2011-04-15T13:34:35Z</time>
      </trkpt>
      <trkpt lat="48.39014" lon="2.13008">
        <ele>130</ele>
        <time>2011-04-15T13:34:36Z</time>
      </trkpt>
      <trkpt lat="48.39015" lon="2.13006">
        <ele>130</ele>
        <time>2011-04-15T13:34:37Z</time>
      </trkpt>
      <trkpt lat="48.39015" lon="2.13004">
        <ele>130</ele>
        <time>2011-04-15T13:34:38Z</time>
      </trkpt>
      <trkpt lat="48.39015" lon="2.13002">
        <ele>130</ele>
        <time>2011-04-15T13:34:39Z</time>
      </trkpt>
      <trkpt lat="48.39015" lon="2.13001">
        <ele>130</ele>
        <time>2011-04-15T13:34:40Z</time>
      </trkpt>
      <trkpt lat="48.39015" lon="2.12999">
        <ele>130</ele>
        <time>2011-04-15T13:34:41Z</time>
      </trkpt>
      <trkpt lat="48.39015" lon="2.12997">
        <ele>130</ele>
        <time>2011-04-15T13:34:42Z</time>
      </trkpt>
      <trkpt lat="48.39015" lon="2.12995">
        <ele>130</ele>
        <time>2011-04-15T13:34:43Z</time>
      </trkpt>
      <trkpt lat="48.39015" lon="2.12993">
        <ele>130</ele>
        <time>2011-04-15T13:34:44Z</time>
      </trkpt>
      <trkpt lat="48.39015" lon="2.12991">
        <ele>130</ele>
        <time>2011-04-15T13:34:45Z</time>
      </trkpt>
      <trkpt lat="48.39014" lon="2.12989">
        <ele>130</ele>
        <time>2011-04-15T13:34:46Z</time>
      </trkpt>
      <trkpt lat="48.39014" lon="2.12988">
        <ele>130</ele>
        <time>2011-04-15T13:34:47Z</time>
      </trkpt>
      <trkpt lat="48.39013" lon="2.12986">
        <ele>130</ele>
        <time>2011-04-15T13:34:48Z</time>
      </trkpt>
      <trkpt lat="48.39013" lon="2.12984">
        <ele>130</ele>
        <time>2011-04-15T13:34:49Z</time>
      </trkpt>
      <trkpt lat="48.39012" lon="2.12982">
        <ele>130</ele>
        <time>2011-04-15T13:34:50Z</time>
      </trkpt>
      <trkpt lat="48.39011" lon="2.1298">
        <ele>130</ele>
        <time>2011-04-15T13:34:51Z</time>
      </trkpt>
      <trkpt lat="48.39011" lon="2.12979">
        <ele>130</ele>
        <time>2011-04-15T13:34:52Z</time>
      </trkpt>
      <trkpt lat="48.39011" lon="2.12977">
        <ele>130</ele>
        <time>2011-04-15T13:34:53Z</time>
      </trkpt>
      <trkpt lat="48.3901" lon="2.12975">
        <ele>130</ele>
        <time>2011-04-15T13:34:54Z</time>
      </trkpt>
      <trkpt lat="48.39009" lon="2.12973">
        <ele>130</ele>
        <time>2011-04-15T13:34:55Z</time>
      </trkpt>
      <trkpt lat="48.39009" lon="2.12971">
        <ele>130</ele>
        <time>2011-04-15T13:34:56Z</time>
      </trkpt>
      <trkpt lat="48.39008" lon="2.1297">
        <ele>130</ele>
        <time>2011-04-15T13:34:57Z</time>
      </trkpt>
      <trkpt lat="48.39008" lon="2.12968">
        <ele>130</ele>
        <time>2011-04-15T13:34:58Z</time>
      </trkpt>
      <trkpt lat="48.39007" lon="2.12966">
        <ele>130</ele>
        <time>2011-04-15T13:34:59Z</time>
      </trkpt>
      <trkpt lat="48.39006" lon="2.12964">
        <ele>130</ele>
        <time>2011-04-15T13:35:00Z</time>
      </trkpt>
      <trkpt lat="48.39006" lon="2.12962">
        <ele>130</ele>
        <time>2011-04-15T13:35:01Z</time>
      </trkpt>
      <trkpt lat="48.39005" lon="2.12958">
        <ele>130</ele>
        <time>2011-04-15T13:35:02Z</time>
      </trkpt>
      <trkpt lat="48.39004" lon="2.12955">
        <ele>130</ele>
        <time>2011-04-15T13:35:03Z</time>
      </trkpt>
      <trkpt lat="48.39002" lon="2.12951">
        <ele>130</ele>
        <time>2011-04-15T13:35:04Z</time>
      </trkpt>
      <trkpt lat="48.39" lon="2.12948">
        <ele>130</ele>
        <time>2011-04-15T13:35:05Z</time>
      </trkpt>
      <trkpt lat="48.38999" lon="2.12944">
        <ele>130</ele>
        <time>2011-04-15T13:35:06Z</time>
      </trkpt>
      <trkpt lat="48.38998" lon="2.12941">
        <ele>130</ele>
        <time>2011-04-15T13:35:07Z</time>
      </trkpt>
      <trkpt lat="48.38997" lon="2.12937">
        <ele>130</ele>
        <time>2011-04-15T13:35:08Z</time>
      </trkpt>
      <trkpt lat="48.38996" lon="2.12935">
        <ele>130</ele>
        <time>2011-04-15T13:35:09Z</time>
      </trkpt>
      <trkpt lat="48.38995" lon="2.12933">
        <ele>130</ele>
        <time>2011-04-15T13:35:10Z</time>
      </trkpt>
      <trkpt lat="48.38995" lon="2.12931">
        <ele>130</ele>
        <time>2011-04-15T13:35:11Z</time>
      </trkpt>
      <trkpt lat="48.38995" lon="2.12929">
        <ele>130</ele>
        <time>2011-04-15T13:35:12Z</time>
      </trkpt>
      <trkpt lat="48.38994" lon="2.12927">
        <ele>130</ele>
        <time>2011-04-15T13:35:13Z</time>
      </trkpt>
      <trkpt lat="48.38994" lon="2.12925">
        <ele>130</ele>
        <time>2011-04-15T13:35:14Z</time>
      </trkpt>
      <trkpt lat="48.38993" lon="2.12923">
        <ele>130</ele>
        <time>2011-04-15T13:35:15Z</time>
      </trkpt>
      <trkpt lat="48.38993" lon="2.12921">
        <ele>130</ele>
        <time>2011-04-15T13:35:16Z</time>
      </trkpt>
      <trkpt lat="48.38992" lon="2.12919">
        <ele>130</ele>
        <time>2011-04-15T13:35:17Z</time>
      </trkpt>
      <trkpt lat="48.38991" lon="2.12917">
        <ele>130</ele>
        <time>2011-04-15T13:35:18Z</time>
      </trkpt>
      <trkpt lat="48.3899" lon="2.12916">
        <ele>130</ele>
        <time>2011-04-15T13:35:19Z</time>
      </trkpt>
      <trkpt lat="48.38989" lon="2.12914">
        <ele>130</ele>
        <time>2011-04-15T13:35:20Z</time>
      </trkpt>
      <trkpt lat="48.38988" lon="2.12913">
        <ele>130</ele>
        <time>2011-04-15T13:35:21Z</time>
      </trkpt>
      <trkpt lat="48.38987" lon="2.12912">
        <ele>130</ele>
        <time>2011-04-15T13:35:22Z</time>
      </trkpt>
      <trkpt lat="48.38985" lon="2.12912">
        <ele>130</ele>
        <time>2011-04-15T13:35:23Z</time>
      </trkpt>
      <trkpt lat="48.38983" lon="2.12912">
        <ele>130</ele>
        <time>2011-04-15T13:35:24Z</time>
      </trkpt>
      <trkpt lat="48.3898" lon="2.12912">
        <ele>130</ele>
        <time>2011-04-15T13:35:25Z</time>
      </trkpt>
      <trkpt lat="48.38978" lon="2.12912">
        <ele>130</ele>
        <time>2011-04-15T13:35:26Z</time>
      </trkpt>
      <trkpt lat="48.38976" lon="2.12913">
        <ele>130</ele>
        <time>2011-04-15T13:35:27Z</time>
      </trkpt>
      <trkpt lat="48.38975" lon="2.12913">
        <ele>130</ele>
        <time>2011-04-15T13:35:28Z</time>
      </trkpt>
      <trkpt lat="48.38973" lon="2.12913">
        <ele>130</ele>
        <time>2011-04-15T13:35:29Z</time>
      </trkpt>
      <trkpt lat="48.38972" lon="2.12913">
        <ele>130</ele>
        <time>2011-04-15T13:35:30Z</time>
      </trkpt>
      <trkpt lat="48.3897" lon="2.12914">
        <ele>130</ele>
        <time>2011-04-15T13:35:31Z</time>
      </trkpt>
      <trkpt lat="48.38969" lon="2.12914">
        <ele>130</ele>
        <time>2011-04-15T13:35:32Z</time>
      </trkpt>
      <trkpt lat="48.38967" lon="2.12914">
        <ele>130</ele>
        <time>2011-04-15T13:35:33Z</time>
      </trkpt>
      <trkpt lat="48.38966" lon="2.12914">
        <ele>130</ele>
        <time>2011-04-15T13:35:34Z</time>
      </trkpt>
      <trkpt lat="48.38964" lon="2.12914">
        <ele>130</ele>
        <time>2011-04-15T13:35:35Z</time>
      </trkpt>
      <trkpt lat="48.38963" lon="2.12915">
        <ele>130</ele>
        <time>2011-04-15T13:35:36Z</time>
      </trkpt>
      <trkpt lat="48.38961" lon="2.12915">
        <ele>130</ele>
        <time>2011-04-15T13:35:37Z</time>
      </trkpt>
      <trkpt lat="48.3896" lon="2.12915">
        <ele>130</ele>
        <time>2011-04-15T13:35:38Z</time>
      </trkpt>
      <trkpt lat="48.38958" lon="2.12915">
        <ele>130</ele>
        <time>2011-04-15T13:35:39Z</time>
      </trkpt>
      <trkpt lat="48.38957" lon="2.12915">
        <ele>130</ele>
        <time>2011-04-15T13:35:40Z</time>
      </trkpt>
      <trkpt lat="48.38956" lon="2.12916">
        <ele>130</ele>
        <time>2011-04-15T13:35:41Z</time>
      </trkpt>
      <trkpt lat="48.38955" lon="2.12916">
        <ele>130</ele>
        <time>2011-04-15T13:35:42Z</time>
      </trkpt>
      <trkpt lat="48.38953" lon="2.12916">
        <ele>130</ele>
        <time>2011-04-15T13:35:43Z</time>
      </trkpt>
      <trkpt lat="48.38952" lon="2.12917">
        <ele>130</ele>
        <time>2011-04-15T13:35:44Z</time>
      </trkpt>
      <trkpt lat="48.38951" lon="2.12917">
        <ele>130</ele>
        <time>2011-04-15T13:35:45Z</time>
      </trkpt>
      <trkpt lat="48.38949" lon="2.12917">
        <ele>130</ele>
        <time>2011-04-15T13:35:46Z</time>
      </trkpt>
      <trkpt lat="48.38948" lon="2.12918">
        <ele>130</ele>
        <time>2011-04-15T13:35:47Z</time>
      </trkpt>
      <trkpt lat="48.38947" lon="2.12918">
        <ele>130</ele>
        <time>2011-04-15T13:35:48Z</time>
      </trkpt>
      <trkpt lat="48.38945" lon="2.12919">
        <ele>130</ele>
        <time>2011-04-15T13:35:49Z</time>
      </trkpt>
      <trkpt lat="48.38944" lon="2.12919">
        <ele>130</ele>
        <time>2011-04-15T13:35:50Z</time>
      </trkpt>
      <trkpt lat="48.38942" lon="2.1292">
        <ele>130</ele>
        <time>2011-04-15T13:35:51Z</time>
      </trkpt>
      <trkpt lat="48.38941" lon="2.1292">
        <ele>130</ele>
        <time>2011-04-15T13:35:52Z</time>
      </trkpt>
      <trkpt lat="48.3894" lon="2.12921">
        <ele>130</ele>
        <time>2011-04-15T13:35:53Z</time>
      </trkpt>
      <trkpt lat="48.38938" lon="2.12921">
        <ele>130</ele>
        <time>2011-04-15T13:35:54Z</time>
      </trkpt>
      <trkpt lat="48.38937" lon="2.12922">
        <ele>130</ele>
        <time>2011-04-15T13:35:55Z</time>
      </trkpt>
      <trkpt lat="48.38936" lon="2.12922">
        <ele>130</ele>
        <time>2011-04-15T13:35:56Z</time>
      </trkpt>
      <trkpt lat="48.38934" lon="2.12923">
        <ele>130</ele>
        <time>2011-04-15T13:35:57Z</time>
      </trkpt>
      <trkpt lat="48.38933" lon="2.12923">
        <ele>130</ele>
        <time>2011-04-15T13:35:58Z</time>
      </trkpt>
      <trkpt lat="48.38932" lon="2.12924">
        <ele>130</ele>
        <time>2011-04-15T13:35:59Z</time>
      </trkpt>
      <trkpt lat="48.3893" lon="2.12924">
        <ele>130</ele>
        <time>2011-04-15T13:36:00Z</time>
      </trkpt>
      <trkpt lat="48.38929" lon="2.12925">
        <ele>130</ele>
        <time>2011-04-15T13:36:01Z</time>
      </trkpt>
      <trkpt lat="48.38927" lon="2.12926">
        <ele>130</ele>
        <time>2011-04-15T13:36:02Z</time>
      </trkpt>
      <trkpt lat="48.38926" lon="2.12926">
        <ele>130</ele>
        <time>2011-04-15T13:36:03Z</time>
      </trkpt>
      <trkpt lat="48.38925" lon="2.12927">
        <ele>130</ele>
        <time>2011-04-15T13:36:04Z</time>
      </trkpt>
      <trkpt lat="48.38923" lon="2.12927">
        <ele>130</ele>
        <time>2011-04-15T13:36:05Z</time>
      </trkpt>
      <trkpt lat="48.38922" lon="2.12928">
        <ele>130</ele>
        <time>2011-04-15T13:36:06Z</time>
      </trkpt>
      <trkpt lat="48.38921" lon="2.12928">
        <ele>130</ele>
        <time>2011-04-15T13:36:07Z</time>
      </trkpt>
      <trkpt lat="48.38919" lon="2.12929">
        <ele>130</ele>
        <time>2011-04-15T13:36:08Z</time>
      </trkpt>
      <trkpt lat="48.38918" lon="2.1293">
        <ele>130</ele>
        <time>2011-04-15T13:36:09Z</time>
      </trkpt>
      <trkpt lat="48.38917" lon="2.1293">
        <ele>130</ele>
        <time>2011-04-15T13:36:10Z</time>
      </trkpt>
      <trkpt lat="48.38915" lon="2.12931">
        <ele>130</ele>
        <time>2011-04-15T13:36:11Z</time>
      </trkpt>
      <trkpt lat="48.38914" lon="2.12931">
        <ele>130</ele>
        <time>2011-04-15T13:36:12Z</time>
      </trkpt>
      <trkpt lat="48.38913" lon="2.12932">
        <ele>130</ele>
        <time>2011-04-15T13:36:13Z</time>
      </trkpt>
      <trkpt lat="48.38911" lon="2.12933">
        <ele>130</ele>
        <time>2011-04-15T13:36:14Z</time>
      </trkpt>
      <trkpt lat="48.38909" lon="2.12933">
        <ele>130</ele>
        <time>2011-04-15T13:36:15Z</time>
      </trkpt>
      <trkpt lat="48.38907" lon="2.12934">
        <ele>130</ele>
        <time>2011-04-15T13:36:16Z</time>
      </trkpt>
      <trkpt lat="48.38905" lon="2.12935">
        <ele>130</ele>
        <time>2011-04-15T13:36:17Z</time>
      </trkpt>
      <trkpt lat="48.38903" lon="2.12935">
        <ele>130</ele>
        <time>2011-04-15T13:36:18Z</time>
      </trkpt>
      <trkpt lat="48.38902" lon="2.12936">
        <ele>130</ele>
        <time>2011-04-15T13:36:19Z</time>
      </trkpt>
      <trkpt lat="48.389" lon="2.12936">
        <ele>130</ele>
        <time>2011-04-15T13:36:20Z</time>
      </trkpt>
      <trkpt lat="48.38899" lon="2.12937">
        <ele>130</ele>
        <time>2011-04-15T13:36:21Z</time>
      </trkpt>
      <trkpt lat="48.38897" lon="2.12938">
        <ele>130</ele>
        <time>2011-04-15T13:36:22Z</time>
      </trkpt>
      <trkpt lat="48.38896" lon="2.12939">
        <ele>130</ele>
        <time>2011-04-15T13:36:23Z</time>
      </trkpt>
      <trkpt lat="48.38894" lon="2.12939">
        <ele>130</ele>
        <time>2011-04-15T13:36:24Z</time>
      </trkpt>
      <trkpt lat="48.38893" lon="2.1294">
        <ele>130</ele>
        <time>2011-04-15T13:36:25Z</time>
      </trkpt>
      <trkpt lat="48.38891" lon="2.12941">
        <ele>130</ele>
        <time>2011-04-15T13:36:26Z</time>
      </trkpt>
      <trkpt lat="48.3889" lon="2.12942">
        <ele>130</ele>
        <time>2011-04-15T13:36:27Z</time>
      </trkpt>
      <trkpt lat="48.38888" lon="2.12944">
        <ele>130</ele>
        <time>2011-04-15T13:36:28Z</time>
      </trkpt>
      <trkpt lat="48.38887" lon="2.12945">
        <ele>130</ele>
        <time>2011-04-15T13:36:29Z</time>
      </trkpt>
      <trkpt lat="48.38886" lon="2.12946">
        <ele>130</ele>
        <time>2011-04-15T13:36:30Z</time>
      </trkpt>
      <trkpt lat="48.38884" lon="2.12949">
        <ele>130</ele>
        <time>2011-04-15T13:36:32Z</time>
      </trkpt>
      <trkpt lat="48.38882" lon="2.1295">
        <ele>130</ele>
        <time>2011-04-15T13:36:33Z</time>
      </trkpt>
      <trkpt lat="48.3888" lon="2.12953">
        <ele>130</ele>
        <time>2011-04-15T13:36:35Z</time>
      </trkpt>
      <trkpt lat="48.38878" lon="2.12956">
        <ele>130</ele>
        <time>2011-04-15T13:36:37Z</time>
      </trkpt>
      <trkpt lat="48.38877" lon="2.12958">
        <ele>130</ele>
        <time>2011-04-15T13:36:38Z</time>
      </trkpt>
      <trkpt lat="48.38876" lon="2.12961">
        <ele>130</ele>
        <time>2011-04-15T13:36:40Z</time>
      </trkpt>
      <trkpt lat="48.38874" lon="2.12962">
        <ele>130</ele>
        <time>2011-04-15T13:36:41Z</time>
      </trkpt>
      <trkpt lat="48.38873" lon="2.12964">
        <ele>130</ele>
        <time>2011-04-15T13:36:42Z</time>
      </trkpt>
      <trkpt lat="48.38872" lon="2.12966">
        <ele>130</ele>
        <time>2011-04-15T13:36:43Z</time>
      </trkpt>
      <trkpt lat="48.38871" lon="2.12968">
        <ele>130</ele>
        <time>2011-04-15T13:36:44Z</time>
      </trkpt>
      <trkpt lat="48.3887" lon="2.12971">
        <ele>130</ele>
        <time>2011-04-15T13:36:45Z</time>
      </trkpt>
      <trkpt lat="48.38869" lon="2.12973">
        <ele>130</ele>
        <time>2011-04-15T13:36:46Z</time>
      </trkpt>
      <trkpt lat="48.38868" lon="2.12975">
        <ele>130</ele>
        <time>2011-04-15T13:36:47Z</time>
      </trkpt>
      <trkpt lat="48.38867" lon="2.12978">
        <ele>130</ele>
        <time>2011-04-15T13:36:48Z</time>
      </trkpt>
      <trkpt lat="48.38866" lon="2.1298">
        <ele>130</ele>
        <time>2011-04-15T13:36:49Z</time>
      </trkpt>
      <trkpt lat="48.38866" lon="2.12982">
        <ele>130</ele>
        <time>2011-04-15T13:36:50Z</time>
      </trkpt>
      <trkpt lat="48.38865" lon="2.12983">
        <ele>130</ele>
        <time>2011-04-15T13:36:51Z</time>
      </trkpt>
      <trkpt lat="48.38865" lon="2.12985">
        <ele>130</ele>
        <time>2011-04-15T13:36:52Z</time>
      </trkpt>
      <trkpt lat="48.38864" lon="2.12987">
        <ele>130</ele>
        <time>2011-04-15T13:36:53Z</time>
      </trkpt>
      <trkpt lat="48.38864" lon="2.12989">
        <ele>130</ele>
        <time>2011-04-15T13:36:54Z</time>
      </trkpt>
      <trkpt lat="48.38863" lon="2.12991">
        <ele>130</ele>
        <time>2011-04-15T13:36:55Z</time>
      </trkpt>
      <trkpt lat="48.38863" lon="2.12993">
        <ele>130</ele>
        <time>2011-04-15T13:36:56Z</time>
      </trkpt>
      <trkpt lat="48.38862" lon="2.12994">
        <ele>130</ele>
        <time>2011-04-15T13:36:57Z</time>
      </trkpt>
      <trkpt lat="48.38861" lon="2.12996">
        <ele>130</ele>
        <time>2011-04-15T13:36:58Z</time>
      </trkpt>
      <trkpt lat="48.3886" lon="2.12998">
        <ele>130</ele>
        <time>2011-04-15T13:36:59Z</time>
      </trkpt>
      <trkpt lat="48.38859" lon="2.13">
        <ele>130</ele>
        <time>2011-04-15T13:37:00Z</time>
      </trkpt>
      <trkpt lat="48.38859" lon="2.13002">
        <ele>130</ele>
        <time>2011-04-15T13:37:01Z</time>
      </trkpt>
      <trkpt lat="48.38858" lon="2.13004">
        <ele>130</ele>
        <time>2011-04-15T13:37:02Z</time>
      </trkpt>
      <trkpt lat="48.38857" lon="2.13006">
        <ele>130</ele>
        <time>2011-04-15T13:37:03Z</time>
      </trkpt>
      <trkpt lat="48.38856" lon="2.13008">
        <ele>130</ele>
        <time>2011-04-15T13:37:04Z</time>
      </trkpt>
      <trkpt lat="48.38855" lon="2.1301">
        <ele>130</ele>
        <time>2011-04-15T13:37:05Z</time>
      </trkpt>
      <trkpt lat="48.38854" lon="2.13012">
        <ele>130</ele>
        <time>2011-04-15T13:37:06Z</time>
      </trkpt>
      <trkpt lat="48.38852" lon="2.13015">
        <ele>130</ele>
        <time>2011-04-15T13:37:07Z</time>
      </trkpt>
      <trkpt lat="48.38851" lon="2.13017">
        <ele>130</ele>
        <time>2011-04-15T13:37:08Z</time>
      </trkpt>
      <trkpt lat="48.3885" lon="2.1302">
        <ele>131</ele>
        <time>2011-04-15T13:37:09Z</time>
      </trkpt>
      <trkpt lat="48.38849" lon="2.13022">
        <ele>131</ele>
        <time>2011-04-15T13:37:10Z</time>
      </trkpt>
      <trkpt lat="48.38848" lon="2.13024">
        <ele>131</ele>
        <time>2011-04-15T13:37:11Z</time>
      </trkpt>
      <trkpt lat="48.38847" lon="2.13026">
        <ele>131</ele>
        <time>2011-04-15T13:37:12Z</time>
      </trkpt>
      <trkpt lat="48.38846" lon="2.13028">
        <ele>131</ele>
        <time>2011-04-15T13:37:13Z</time>
      </trkpt>
      <trkpt lat="48.38844" lon="2.13031">
        <ele>131</ele>
        <time>2011-04-15T13:37:15Z</time>
      </trkpt>
      <trkpt lat="48.38843" lon="2.13033">
        <ele>131</ele>
        <time>2011-04-15T13:37:16Z</time>
      </trkpt>
      <trkpt lat="48.38842" lon="2.13036">
        <ele>132</ele>
        <time>2011-04-15T13:37:17Z</time>
      </trkpt>
      <trkpt lat="48.3884" lon="2.13038">
        <ele>132</ele>
        <time>2011-04-15T13:37:18Z</time>
      </trkpt>
      <trkpt lat="48.38839" lon="2.13041">
        <ele>132</ele>
        <time>2011-04-15T13:37:19Z</time>
      </trkpt>
      <trkpt lat="48.38838" lon="2.13043">
        <ele>132</ele>
        <time>2011-04-15T13:37:20Z</time>
      </trkpt>
      <trkpt lat="48.38837" lon="2.13045">
        <ele>132</ele>
        <time>2011-04-15T13:37:21Z</time>
      </trkpt>
      <trkpt lat="48.38835" lon="2.13047">
        <ele>132</ele>
        <time>2011-04-15T13:37:22Z</time>
      </trkpt>
      <trkpt lat="48.38834" lon="2.13049">
        <ele>132</ele>
        <time>2011-04-15T13:37:23Z</time>
      </trkpt>
      <trkpt lat="48.38833" lon="2.13051">
        <ele>132</ele>
        <time>2011-04-15T13:37:24Z</time>
      </trkpt>
      <trkpt lat="48.38832" lon="2.13053">
        <ele>132</ele>
        <time>2011-04-15T13:37:25Z</time>
      </trkpt>
      <trkpt lat="48.38831" lon="2.13055">
        <ele>132</ele>
        <time>2011-04-15T13:37:26Z</time>
      </trkpt>
      <trkpt lat="48.3883" lon="2.13057">
        <ele>132</ele>
        <time>2011-04-15T13:37:27Z</time>
      </trkpt>
      <trkpt lat="48.38829" lon="2.13059">
        <ele>132</ele>
        <time>2011-04-15T13:37:28Z</time>
      </trkpt>
      <trkpt lat="48.38828" lon="2.13061">
        <ele>133</ele>
        <time>2011-04-15T13:37:29Z</time>
      </trkpt>
      <trkpt lat="48.38827" lon="2.13063">
        <ele>133</ele>
        <time>2011-04-15T13:37:30Z</time>
      </trkpt>
      <trkpt lat="48.38826" lon="2.13065">
        <ele>133</ele>
        <time>2011-04-15T13:37:31Z</time>
      </trkpt>
      <trkpt lat="48.38825" lon="2.13066">
        <ele>133</ele>
        <time>2011-04-15T13:37:32Z</time>
      </trkpt>
      <trkpt lat="48.38824" lon="2.13068">
        <ele>133</ele>
        <time>2011-04-15T13:37:33Z</time>
      </trkpt>
      <trkpt lat="48.38823" lon="2.1307">
        <ele>133</ele>
        <time>2011-04-15T13:37:34Z</time>
      </trkpt>
      <trkpt lat="48.38822" lon="2.13071">
        <ele>133</ele>
        <time>2011-04-15T13:37:35Z</time>
      </trkpt>
      <trkpt lat="48.38821" lon="2.13073">
        <ele>133</ele>
        <time>2011-04-15T13:37:36Z</time>
      </trkpt>
      <trkpt lat="48.3882" lon="2.13075">
        <ele>133</ele>
        <time>2011-04-15T13:37:37Z</time>
      </trkpt>
      <trkpt lat="48.38819" lon="2.13077">
        <ele>133</ele>
        <time>2011-04-15T13:37:38Z</time>
      </trkpt>
      <trkpt lat="48.38818" lon="2.13079">
        <ele>133</ele>
        <time>2011-04-15T13:37:39Z</time>
      </trkpt>
      <trkpt lat="48.38816" lon="2.1308">
        <ele>133</ele>
        <time>2011-04-15T13:37:40Z</time>
      </trkpt>
      <trkpt lat="48.38815" lon="2.13082">
        <ele>133</ele>
        <time>2011-04-15T13:37:41Z</time>
      </trkpt>
      <trkpt lat="48.38814" lon="2.13084">
        <ele>133</ele>
        <time>2011-04-15T13:37:42Z</time>
      </trkpt>
      <trkpt lat="48.38813" lon="2.13085">
        <ele>133</ele>
        <time>2011-04-15T13:37:43Z</time>
      </trkpt>
      <trkpt lat="48.38812" lon="2.13087">
        <ele>134</ele>
        <time>2011-04-15T13:37:44Z</time>
      </trkpt>
      <trkpt lat="48.38811" lon="2.13089">
        <ele>134</ele>
        <time>2011-04-15T13:37:45Z</time>
      </trkpt>
      <trkpt lat="48.3881" lon="2.1309">
        <ele>134</ele>
        <time>2011-04-15T13:37:46Z</time>
      </trkpt>
      <trkpt lat="48.38809" lon="2.13092">
        <ele>134</ele>
        <time>2011-04-15T13:37:47Z</time>
      </trkpt>
      <trkpt lat="48.38807" lon="2.13095">
        <ele>134</ele>
        <time>2011-04-15T13:37:49Z</time>
      </trkpt>
      <trkpt lat="48.38806" lon="2.13097">
        <ele>134</ele>
        <time>2011-04-15T13:37:50Z</time>
      </trkpt>
      <trkpt lat="48.38804" lon="2.131">
        <ele>134</ele>
        <time>2011-04-15T13:37:52Z</time>
      </trkpt>
      <trkpt lat="48.38802" lon="2.13101">
        <ele>134</ele>
        <time>2011-04-15T13:37:53Z</time>
      </trkpt>
      <trkpt lat="48.38801" lon="2.13103">
        <ele>134</ele>
        <time>2011-04-15T13:37:54Z</time>
      </trkpt>
      <trkpt lat="48.388" lon="2.13105">
        <ele>134</ele>
        <time>2011-04-15T13:37:55Z</time>
      </trkpt>
      <trkpt lat="48.38799" lon="2.13106">
        <ele>134</ele>
        <time>2011-04-15T13:37:56Z</time>
      </trkpt>
      <trkpt lat="48.38798" lon="2.13108">
        <ele>134</ele>
        <time>2011-04-15T13:37:57Z</time>
      </trkpt>
      <trkpt lat="48.38796" lon="2.1311">
        <ele>134</ele>
        <time>2011-04-15T13:37:58Z</time>
      </trkpt>
      <trkpt lat="48.38795" lon="2.13111">
        <ele>134</ele>
        <time>2011-04-15T13:37:59Z</time>
      </trkpt>
      <trkpt lat="48.38794" lon="2.13113">
        <ele>134</ele>
        <time>2011-04-15T13:38:00Z</time>
      </trkpt>
      <trkpt lat="48.38792" lon="2.13115">
        <ele>134</ele>
        <time>2011-04-15T13:38:01Z</time>
      </trkpt>
      <trkpt lat="48.38791" lon="2.13116">
        <ele>134</ele>
        <time>2011-04-15T13:38:02Z</time>
      </trkpt>
      <trkpt lat="48.38789" lon="2.13119">
        <ele>134</ele>
        <time>2011-04-15T13:38:04Z</time>
      </trkpt>
      <trkpt lat="48.38788" lon="2.13121">
        <ele>134</ele>
        <time>2011-04-15T13:38:05Z</time>
      </trkpt>
      <trkpt lat="48.38787" lon="2.13123">
        <ele>135</ele>
        <time>2011-04-15T13:38:06Z</time>
      </trkpt>
      <trkpt lat="48.38785" lon="2.13125">
        <ele>135</ele>
        <time>2011-04-15T13:38:07Z</time>
      </trkpt>
      <trkpt lat="48.38784" lon="2.13126">
        <ele>135</ele>
        <time>2011-04-15T13:38:08Z</time>
      </trkpt>
      <trkpt lat="48.38783" lon="2.13128">
        <ele>135</ele>
        <time>2011-04-15T13:38:09Z</time>
      </trkpt>
      <trkpt lat="48.38782" lon="2.13129">
        <ele>135</ele>
        <time>2011-04-15T13:38:10Z</time>
      </trkpt>
      <trkpt lat="48.3878" lon="2.13132">
        <ele>135</ele>
        <time>2011-04-15T13:38:12Z</time>
      </trkpt>
      <trkpt lat="48.38779" lon="2.13134">
        <ele>135</ele>
        <time>2011-04-15T13:38:13Z</time>
      </trkpt>
      <trkpt lat="48.38777" lon="2.13135">
        <ele>135</ele>
        <time>2011-04-15T13:38:14Z</time>
      </trkpt>
      <trkpt lat="48.38776" lon="2.13137">
        <ele>135</ele>
        <time>2011-04-15T13:38:15Z</time>
      </trkpt>
      <trkpt lat="48.38775" lon="2.13139">
        <ele>135</ele>
        <time>2011-04-15T13:38:16Z</time>
      </trkpt>
      <trkpt lat="48.38774" lon="2.1314">
        <ele>135</ele>
        <time>2011-04-15T13:38:17Z</time>
      </trkpt>
      <trkpt lat="48.38772" lon="2.13141">
        <ele>135</ele>
        <time>2011-04-15T13:38:18Z</time>
      </trkpt>
      <trkpt lat="48.38771" lon="2.13143">
        <ele>135</ele>
        <time>2011-04-15T13:38:19Z</time>
      </trkpt>
      <trkpt lat="48.3877" lon="2.13145">
        <ele>135</ele>
        <time>2011-04-15T13:38:20Z</time>
      </trkpt>
      <trkpt lat="48.38768" lon="2.13147">
        <ele>135</ele>
        <time>2011-04-15T13:38:21Z</time>
      </trkpt>
      <trkpt lat="48.38767" lon="2.13149">
        <ele>135</ele>
        <time>2011-04-15T13:38:22Z</time>
      </trkpt>
      <trkpt lat="48.38765" lon="2.13151">
        <ele>135</ele>
        <time>2011-04-15T13:38:23Z</time>
      </trkpt>
      <trkpt lat="48.38763" lon="2.13153">
        <ele>135</ele>
        <time>2011-04-15T13:38:24Z</time>
      </trkpt>
      <trkpt lat="48.38762" lon="2.13156">
        <ele>135</ele>
        <time>2011-04-15T13:38:25Z</time>
      </trkpt>
      <trkpt lat="48.3876" lon="2.13158">
        <ele>135</ele>
        <time>2011-04-15T13:38:26Z</time>
      </trkpt>
      <trkpt lat="48.38758" lon="2.1316">
        <ele>135</ele>
        <time>2011-04-15T13:38:27Z</time>
      </trkpt>
      <trkpt lat="48.38756" lon="2.13163">
        <ele>135</ele>
        <time>2011-04-15T13:38:28Z</time>
      </trkpt>
      <trkpt lat="48.38754" lon="2.13165">
        <ele>135</ele>
        <time>2011-04-15T13:38:29Z</time>
      </trkpt>
      <trkpt lat="48.38752" lon="2.13168">
        <ele>135</ele>
        <time>2011-04-15T13:38:30Z</time>
      </trkpt>
      <trkpt lat="48.3875" lon="2.1317">
        <ele>135</ele>
        <time>2011-04-15T13:38:31Z</time>
      </trkpt>
      <trkpt lat="48.38748" lon="2.13173">
        <ele>135</ele>
        <time>2011-04-15T13:38:32Z</time>
      </trkpt>
      <trkpt lat="48.38746" lon="2.13176">
        <ele>136</ele>
        <time>2011-04-15T13:38:33Z</time>
      </trkpt>
      <trkpt lat="48.38743" lon="2.13179">
        <ele>136</ele>
        <time>2011-04-15T13:38:34Z</time>
      </trkpt>
      <trkpt lat="48.3874" lon="2.13183">
        <ele>136</ele>
        <time>2011-04-15T13:38:35Z</time>
      </trkpt>
      <trkpt lat="48.38737" lon="2.13186">
        <ele>136</ele>
        <time>2011-04-15T13:38:36Z</time>
      </trkpt>
      <trkpt lat="48.38734" lon="2.1319">
        <ele>136</ele>
        <time>2011-04-15T13:38:37Z</time>
      </trkpt>
      <trkpt lat="48.3873" lon="2.13194">
        <ele>136</ele>
        <time>2011-04-15T13:38:38Z</time>
      </trkpt>
      <trkpt lat="48.38727" lon="2.13198">
        <ele>136</ele>
        <time>2011-04-15T13:38:39Z</time>
      </trkpt>
      <trkpt lat="48.38723" lon="2.13202">
        <ele>136</ele>
        <time>2011-04-15T13:38:40Z</time>
      </trkpt>
      <trkpt lat="48.3872" lon="2.13206">
        <ele>136</ele>
        <time>2011-04-15T13:38:41Z</time>
      </trkpt>
      <trkpt lat="48.38716" lon="2.1321">
        <ele>136</ele>
        <time>2011-04-15T13:38:42Z</time>
      </trkpt>
      <trkpt lat="48.38712" lon="2.13214">
        <ele>136</ele>
        <time>2011-04-15T13:38:43Z</time>
      </trkpt>
      <trkpt lat="48.38708" lon="2.13217">
        <ele>136</ele>
        <time>2011-04-15T13:38:44Z</time>
      </trkpt>
      <trkpt lat="48.38704" lon="2.13221">
        <ele>136</ele>
        <time>2011-04-15T13:38:45Z</time>
      </trkpt>
      <trkpt lat="48.387" lon="2.13225">
        <ele>136</ele>
        <time>2011-04-15T13:38:46Z</time>
      </trkpt>
      <trkpt lat="48.38696" lon="2.13228">
        <ele>136</ele>
        <time>2011-04-15T13:38:47Z</time>
      </trkpt>
      <trkpt lat="48.38691" lon="2.13231">
        <ele>136</ele>
        <time>2011-04-15T13:38:48Z</time>
      </trkpt>
      <trkpt lat="48.38687" lon="2.13235">
        <ele>136</ele>
        <time>2011-04-15T13:38:49Z</time>
      </trkpt>
      <trkpt lat="48.38682" lon="2.13238">
        <ele>136</ele>
        <time>2011-04-15T13:38:50Z</time>
      </trkpt>
      <trkpt lat="48.38678" lon="2.1324">
        <ele>136</ele>
        <time>2011-04-15T13:38:51Z</time>
      </trkpt>
      <trkpt lat="48.38674" lon="2.13242">
        <ele>137</ele>
        <time>2011-04-15T13:38:52Z</time>
      </trkpt>
      <trkpt lat="48.38671" lon="2.13244">
        <ele>137</ele>
        <time>2011-04-15T13:38:53Z</time>
      </trkpt>
      <trkpt lat="48.38667" lon="2.13246">
        <ele>137</ele>
        <time>2011-04-15T13:38:54Z</time>
      </trkpt>
      <trkpt lat="48.38664" lon="2.13248">
        <ele>137</ele>
        <time>2011-04-15T13:38:55Z</time>
      </trkpt>
      <trkpt lat="48.3866" lon="2.1325">
        <ele>137</ele>
        <time>2011-04-15T13:38:56Z</time>
      </trkpt>
      <trkpt lat="48.38657" lon="2.13251">
        <ele>137</ele>
        <time>2011-04-15T13:38:57Z</time>
      </trkpt>
      <trkpt lat="48.38653" lon="2.13253">
        <ele>137</ele>
        <time>2011-04-15T13:38:58Z</time>
      </trkpt>
      <trkpt lat="48.3865" lon="2.13254">
        <ele>137</ele>
        <time>2011-04-15T13:38:59Z</time>
      </trkpt>
      <trkpt lat="48.38646" lon="2.13256">
        <ele>137</ele>
        <time>2011-04-15T13:39:00Z</time>
      </trkpt>
      <trkpt lat="48.38642" lon="2.13258">
        <ele>137</ele>
        <time>2011-04-15T13:39:01Z</time>
      </trkpt>
      <trkpt lat="48.38638" lon="2.13259">
        <ele>137</ele>
        <time>2011-04-15T13:39:02Z</time>
      </trkpt>
      <trkpt lat="48.38634" lon="2.1326">
        <ele>137</ele>
        <time>2011-04-15T13:39:03Z</time>
      </trkpt>
      <trkpt lat="48.3863" lon="2.13261">
        <ele>137</ele>
        <time>2011-04-15T13:39:04Z</time>
      </trkpt>
      <trkpt lat="48.38626" lon="2.13262">
        <ele>137</ele>
        <time>2011-04-15T13:39:05Z</time>
      </trkpt>
      <trkpt lat="48.38622" lon="2.13262">
        <ele>137</ele>
        <time>2011-04-15T13:39:06Z</time>
      </trkpt>
      <trkpt lat="48.38618" lon="2.13263">
        <ele>137</ele>
        <time>2011-04-15T13:39:07Z</time>
      </trkpt>
      <trkpt lat="48.38614" lon="2.13264">
        <ele>137</ele>
        <time>2011-04-15T13:39:08Z</time>
      </trkpt>
      <trkpt lat="48.3861" lon="2.13264">
        <ele>137</ele>
        <time>2011-04-15T13:39:09Z</time>
      </trkpt>
      <trkpt lat="48.38605" lon="2.13265">
        <ele>137</ele>
        <time>2011-04-15T13:39:10Z</time>
      </trkpt>
      <trkpt lat="48.38601" lon="2.13266">
        <ele>137</ele>
        <time>2011-04-15T13:39:11Z</time>
      </trkpt>
      <trkpt lat="48.38597" lon="2.13267">
        <ele>137</ele>
        <time>2011-04-15T13:39:12Z</time>
      </trkpt>
      <trkpt lat="48.38593" lon="2.13268">
        <ele>137</ele>
        <time>2011-04-15T13:39:13Z</time>
      </trkpt>
      <trkpt lat="48.38589" lon="2.13269">
        <ele>137</ele>
        <time>2011-04-15T13:39:14Z</time>
      </trkpt>
      <trkpt lat="48.38585" lon="2.1327">
        <ele>137</ele>
        <time>2011-04-15T13:39:15Z</time>
      </trkpt>
      <trkpt lat="48.3858" lon="2.13271">
        <ele>137</ele>
        <time>2011-04-15T13:39:16Z</time>
      </trkpt>
      <trkpt lat="48.38576" lon="2.13272">
        <ele>137</ele>
        <time>2011-04-15T13:39:17Z</time>
      </trkpt>
      <trkpt lat="48.38571" lon="2.13273">
        <ele>137</ele>
        <time>2011-04-15T13:39:18Z</time>
      </trkpt>
      <trkpt lat="48.38567" lon="2.13274">
        <ele>137</ele>
        <time>2011-04-15T13:39:19Z</time>
      </trkpt>
      <trkpt lat="48.38562" lon="2.13275">
        <ele>137</ele>
        <time>2011-04-15T13:39:20Z</time>
      </trkpt>
      <trkpt lat="48.38558" lon="2.13276">
        <ele>137</ele>
        <time>2011-04-15T13:39:21Z</time>
      </trkpt>
      <trkpt lat="48.38553" lon="2.13277">
        <ele>137</ele>
        <time>2011-04-15T13:39:22Z</time>
      </trkpt>
      <trkpt lat="48.38549" lon="2.13279">
        <ele>137</ele>
        <time>2011-04-15T13:39:23Z</time>
      </trkpt>
      <trkpt lat="48.38544" lon="2.1328">
        <ele>137</ele>
        <time>2011-04-15T13:39:24Z</time>
      </trkpt>
      <trkpt lat="48.3854" lon="2.13282">
        <ele>136</ele>
        <time>2011-04-15T13:39:25Z</time>
      </trkpt>
      <trkpt lat="48.38535" lon="2.13283">
        <ele>136</ele>
        <time>2011-04-15T13:39:26Z</time>
      </trkpt>
      <trkpt lat="48.3853" lon="2.13284">
        <ele>136</ele>
        <time>2011-04-15T13:39:27Z</time>
      </trkpt>
      <trkpt lat="48.38526" lon="2.13286">
        <ele>136</ele>
        <time>2011-04-15T13:39:28Z</time>
      </trkpt>
      <trkpt lat="48.38522" lon="2.13288">
        <ele>135</ele>
        <time>2011-04-15T13:39:29Z</time>
      </trkpt>
      <trkpt lat="48.38518" lon="2.1329">
        <ele>135</ele>
        <time>2011-04-15T13:39:30Z</time>
      </trkpt>
      <trkpt lat="48.38514" lon="2.13292">
        <ele>135</ele>
        <time>2011-04-15T13:39:31Z</time>
      </trkpt>
      <trkpt lat="48.3851" lon="2.13295">
        <ele>135</ele>
        <time>2011-04-15T13:39:32Z</time>
      </trkpt>
      <trkpt lat="48.38505" lon="2.13298">
        <ele>134</ele>
        <time>2011-04-15T13:39:33Z</time>
      </trkpt>
      <trkpt lat="48.38501" lon="2.13301">
        <ele>134</ele>
        <time>2011-04-15T13:39:34Z</time>
      </trkpt>
      <trkpt lat="48.38497" lon="2.13304">
        <ele>134</ele>
        <time>2011-04-15T13:39:35Z</time>
      </trkpt>
      <trkpt lat="48.38493" lon="2.13308">
        <ele>134</ele>
        <time>2011-04-15T13:39:36Z</time>
      </trkpt>
      <trkpt lat="48.38489" lon="2.13311">
        <ele>134</ele>
        <time>2011-04-15T13:39:37Z</time>
      </trkpt>
      <trkpt lat="48.38485" lon="2.13315">
        <ele>134</ele>
        <time>2011-04-15T13:39:38Z</time>
      </trkpt>
      <trkpt lat="48.38482" lon="2.13319">
        <ele>134</ele>
        <time>2011-04-15T13:39:39Z</time>
      </trkpt>
      <trkpt lat="48.38478" lon="2.13323">
        <ele>134</ele>
        <time>2011-04-15T13:39:40Z</time>
      </trkpt>
      <trkpt lat="48.38475" lon="2.13327">
        <ele>134</ele>
        <time>2011-04-15T13:39:41Z</time>
      </trkpt>
      <trkpt lat="48.38471" lon="2.1333">
        <ele>133</ele>
        <time>2011-04-15T13:39:42Z</time>
      </trkpt>
      <trkpt lat="48.38468" lon="2.13333">
        <ele>133</ele>
        <time>2011-04-15T13:39:43Z</time>
      </trkpt>
      <trkpt lat="48.38466" lon="2.13337">
        <ele>133</ele>
        <time>2011-04-15T13:39:44Z</time>
      </trkpt>
      <trkpt lat="48.38463" lon="2.1334">
        <ele>133</ele>
        <time>2011-04-15T13:39:45Z</time>
      </trkpt>
      <trkpt lat="48.3846" lon="2.13343">
        <ele>133</ele>
        <time>2011-04-15T13:39:46Z</time>
      </trkpt>
      <trkpt lat="48.38456" lon="2.13347">
        <ele>133</ele>
        <time>2011-04-15T13:39:47Z</time>
      </trkpt>
      <trkpt lat="48.38453" lon="2.13351">
        <ele>133</ele>
        <time>2011-04-15T13:39:48Z</time>
      </trkpt>
      <trkpt lat="48.38451" lon="2.13354">
        <ele>133</ele>
        <time>2011-04-15T13:39:49Z</time>
      </trkpt>
      <trkpt lat="48.38447" lon="2.13358">
        <ele>132</ele>
        <time>2011-04-15T13:39:50Z</time>
      </trkpt>
      <trkpt lat="48.38444" lon="2.13362">
        <ele>132</ele>
        <time>2011-04-15T13:39:51Z</time>
      </trkpt>
      <trkpt lat="48.38441" lon="2.13366">
        <ele>132</ele>
        <time>2011-04-15T13:39:52Z</time>
      </trkpt>
      <trkpt lat="48.38438" lon="2.1337">
        <ele>132</ele>
        <time>2011-04-15T13:39:53Z</time>
      </trkpt>
      <trkpt lat="48.38435" lon="2.13374">
        <ele>132</ele>
        <time>2011-04-15T13:39:54Z</time>
      </trkpt>
      <trkpt lat="48.38432" lon="2.13378">
        <ele>131</ele>
        <time>2011-04-15T13:39:55Z</time>
      </trkpt>
      <trkpt lat="48.38429" lon="2.13382">
        <ele>131</ele>
        <time>2011-04-15T13:39:56Z</time>
      </trkpt>
      <trkpt lat="48.38427" lon="2.13386">
        <ele>131</ele>
        <time>2011-04-15T13:39:57Z</time>
      </trkpt>
      <trkpt lat="48.38424" lon="2.1339">
        <ele>131</ele>
        <time>2011-04-15T13:39:58Z</time>
      </trkpt>
      <trkpt lat="48.38421" lon="2.13395">
        <ele>131</ele>
        <time>2011-04-15T13:39:59Z</time>
      </trkpt>
      <trkpt lat="48.38419" lon="2.134">
        <ele>131</ele>
        <time>2011-04-15T13:40:00Z</time>
      </trkpt>
      <trkpt lat="48.38416" lon="2.13405">
        <ele>131</ele>
        <time>2011-04-15T13:40:01Z</time>
      </trkpt>
      <trkpt lat="48.38413" lon="2.1341">
        <ele>131</ele>
        <time>2011-04-15T13:40:02Z</time>
      </trkpt>
      <trkpt lat="48.38411" lon="2.13414">
        <ele>131</ele>
        <time>2011-04-15T13:40:03Z</time>
      </trkpt>
      <trkpt lat="48.38408" lon="2.13419">
        <ele>131</ele>
        <time>2011-04-15T13:40:04Z</time>
      </trkpt>
      <trkpt lat="48.38406" lon="2.13423">
        <ele>130</ele>
        <time>2011-04-15T13:40:05Z</time>
      </trkpt>
      <trkpt lat="48.38403" lon="2.13428">
        <ele>130</ele>
        <time>2011-04-15T13:40:06Z</time>
      </trkpt>
      <trkpt lat="48.38401" lon="2.13432">
        <ele>130</ele>
        <time>2011-04-15T13:40:07Z</time>
      </trkpt>
      <trkpt lat="48.38398" lon="2.13437">
        <ele>130</ele>
        <time>2011-04-15T13:40:08Z</time>
      </trkpt>
      <trkpt lat="48.38396" lon="2.13441">
        <ele>130</ele>
        <time>2011-04-15T13:40:09Z</time>
      </trkpt>
      <trkpt lat="48.38393" lon="2.13445">
        <ele>130</ele>
        <time>2011-04-15T13:40:10Z</time>
      </trkpt>
      <trkpt lat="48.3839" lon="2.1345">
        <ele>130</ele>
        <time>2011-04-15T13:40:11Z</time>
      </trkpt>
      <trkpt lat="48.38388" lon="2.13454">
        <ele>130</ele>
        <time>2011-04-15T13:40:12Z</time>
      </trkpt>
      <trkpt lat="48.38385" lon="2.13458">
        <ele>130</ele>
        <time>2011-04-15T13:40:13Z</time>
      </trkpt>
      <trkpt lat="48.38382" lon="2.13463">
        <ele>129</ele>
        <time>2011-04-15T13:40:14Z</time>
      </trkpt>
      <trkpt lat="48.3838" lon="2.13467">
        <ele>129</ele>
        <time>2011-04-15T13:40:15Z</time>
      </trkpt>
      <trkpt lat="48.38377" lon="2.13471">
        <ele>129</ele>
        <time>2011-04-15T13:40:16Z</time>
      </trkpt>
      <trkpt lat="48.38375" lon="2.13475">
        <ele>129</ele>
        <time>2011-04-15T13:40:17Z</time>
      </trkpt>
      <trkpt lat="48.38372" lon="2.1348">
        <ele>129</ele>
        <time>2011-04-15T13:40:18Z</time>
      </trkpt>
      <trkpt lat="48.3837" lon="2.13484">
        <ele>129</ele>
        <time>2011-04-15T13:40:19Z</time>
      </trkpt>
      <trkpt lat="48.38367" lon="2.13488">
        <ele>129</ele>
        <time>2011-04-15T13:40:20Z</time>
      </trkpt>
      <trkpt lat="48.38365" lon="2.13492">
        <ele>128</ele>
        <time>2011-04-15T13:40:21Z</time>
      </trkpt>
      <trkpt lat="48.38362" lon="2.13496">
        <ele>128</ele>
        <time>2011-04-15T13:40:22Z</time>
      </trkpt>
      <trkpt lat="48.38359" lon="2.135">
        <ele>128</ele>
        <time>2011-04-15T13:40:23Z</time>
      </trkpt>
      <trkpt lat="48.38357" lon="2.13504">
        <ele>128</ele>
        <time>2011-04-15T13:40:24Z</time>
      </trkpt>
      <trkpt lat="48.38355" lon="2.13508">
        <ele>128</ele>
        <time>2011-04-15T13:40:25Z</time>
      </trkpt>
      <trkpt lat="48.38352" lon="2.13512">
        <ele>127</ele>
        <time>2011-04-15T13:40:26Z</time>
      </trkpt>
      <trkpt lat="48.3835" lon="2.13515">
        <ele>127</ele>
        <time>2011-04-15T13:40:27Z</time>
      </trkpt>
      <trkpt lat="48.38347" lon="2.13519">
        <ele>127</ele>
        <time>2011-04-15T13:40:28Z</time>
      </trkpt>
      <trkpt lat="48.38345" lon="2.13523">
        <ele>127</ele>
        <time>2011-04-15T13:40:29Z</time>
      </trkpt>
      <trkpt lat="48.38342" lon="2.13527">
        <ele>126</ele>
        <time>2011-04-15T13:40:30Z</time>
      </trkpt>
      <trkpt lat="48.3834" lon="2.13531">
        <ele>126</ele>
        <time>2011-04-15T13:40:31Z</time>
      </trkpt>
      <trkpt lat="48.38337" lon="2.13535">
        <ele>126</ele>
        <time>2011-04-15T13:40:32Z</time>
      </trkpt>
      <trkpt lat="48.38335" lon="2.13539">
        <ele>126</ele>
        <time>2011-04-15T13:40:33Z</time>
      </trkpt>
      <trkpt lat="48.38333" lon="2.13543">
        <ele>126</ele>
        <time>2011-04-15T13:40:34Z</time>
      </trkpt>
      <trkpt lat="48.3833" lon="2.13547">
        <ele>125</ele>
        <time>2011-04-15T13:40:35Z</time>
      </trkpt>
      <trkpt lat="48.38328" lon="2.13551">
        <ele>125</ele>
        <time>2011-04-15T13:40:36Z</time>
      </trkpt>
      <trkpt lat="48.38326" lon="2.13555">
        <ele>125</ele>
        <time>2011-04-15T13:40:37Z</time>
      </trkpt>
      <trkpt lat="48.38323" lon="2.13559">
        <ele>125</ele>
        <time>2011-04-15T13:40:38Z</time>
      </trkpt>
      <trkpt lat="48.38321" lon="2.13564">
        <ele>124</ele>
        <time>2011-04-15T13:40:39Z</time>
      </trkpt>
      <trkpt lat="48.38319" lon="2.13569">
        <ele>124</ele>
        <time>2011-04-15T13:40:40Z</time>
      </trkpt>
      <trkpt lat="48.38317" lon="2.13573">
        <ele>124</ele>
        <time>2011-04-15T13:40:41Z</time>
      </trkpt>
      <trkpt lat="48.38316" lon="2.13577">
        <ele>123</ele>
        <time>2011-04-15T13:40:42Z</time>
      </trkpt>
      <trkpt lat="48.38314" lon="2.13581">
        <ele>123</ele>
        <time>2011-04-15T13:40:43Z</time>
      </trkpt>
      <trkpt lat="48.38313" lon="2.13585">
        <ele>123</ele>
        <time>2011-04-15T13:40:44Z</time>
      </trkpt>
      <trkpt lat="48.38311" lon="2.13589">
        <ele>122</ele>
        <time>2011-04-15T13:40:45Z</time>
      </trkpt>
      <trkpt lat="48.3831" lon="2.13593">
        <ele>122</ele>
        <time>2011-04-15T13:40:46Z</time>
      </trkpt>
      <trkpt lat="48.38308" lon="2.13597">
        <ele>122</ele>
        <time>2011-04-15T13:40:47Z</time>
      </trkpt>
      <trkpt lat="48.38307" lon="2.136">
        <ele>121</ele>
        <time>2011-04-15T13:40:48Z</time>
      </trkpt>
      <trkpt lat="48.38305" lon="2.13604">
        <ele>121</ele>
        <time>2011-04-15T13:40:49Z</time>
      </trkpt>
      <trkpt lat="48.38304" lon="2.13608">
        <ele>121</ele>
        <time>2011-04-15T13:40:50Z</time>
      </trkpt>
      <trkpt lat="48.38302" lon="2.13612">
        <ele>120</ele>
        <time>2011-04-15T13:40:51Z</time>
      </trkpt>
      <trkpt lat="48.383" lon="2.13616">
        <ele>120</ele>
        <time>2011-04-15T13:40:52Z</time>
      </trkpt>
      <trkpt lat="48.38299" lon="2.13621">
        <ele>120</ele>
        <time>2011-04-15T13:40:53Z</time>
      </trkpt>
      <trkpt lat="48.38297" lon="2.13625">
        <ele>119</ele>
        <time>2011-04-15T13:40:54Z</time>
      </trkpt>
      <trkpt lat="48.38296" lon="2.1363">
        <ele>119</ele>
        <time>2011-04-15T13:40:55Z</time>
      </trkpt>
      <trkpt lat="48.38294" lon="2.13635">
        <ele>119</ele>
        <time>2011-04-15T13:40:56Z</time>
      </trkpt>
      <trkpt lat="48.38293" lon="2.13639">
        <ele>118</ele>
        <time>2011-04-15T13:40:57Z</time>
      </trkpt>
      <trkpt lat="48.38291" lon="2.13643">
        <ele>118</ele>
        <time>2011-04-15T13:40:58Z</time>
      </trkpt>
      <trkpt lat="48.3829" lon="2.13647">
        <ele>118</ele>
        <time>2011-04-15T13:40:59Z</time>
      </trkpt>
      <trkpt lat="48.38288" lon="2.1365">
        <ele>117</ele>
        <time>2011-04-15T13:41:00Z</time>
      </trkpt>
      <trkpt lat="48.38286" lon="2.13653">
        <ele>117</ele>
        <time>2011-04-15T13:41:01Z</time>
      </trkpt>
      <trkpt lat="48.38284" lon="2.13656">
        <ele>117</ele>
        <time>2011-04-15T13:41:02Z</time>
      </trkpt>
      <trkpt lat="48.38281" lon="2.13659">
        <ele>116</ele>
        <time>2011-04-15T13:41:03Z</time>
      </trkpt>
      <trkpt lat="48.38278" lon="2.13662">
        <ele>116</ele>
        <time>2011-04-15T13:41:04Z</time>
      </trkpt>
      <trkpt lat="48.38275" lon="2.13664">
        <ele>116</ele>
        <time>2011-04-15T13:41:05Z</time>
      </trkpt>
      <trkpt lat="48.38272" lon="2.13666">
        <ele>115</ele>
        <time>2011-04-15T13:41:06Z</time>
      </trkpt>
      <trkpt lat="48.38269" lon="2.13668">
        <ele>115</ele>
        <time>2011-04-15T13:41:07Z</time>
      </trkpt>
      <trkpt lat="48.38266" lon="2.13669">
        <ele>115</ele>
        <time>2011-04-15T13:41:08Z</time>
      </trkpt>
      <trkpt lat="48.38263" lon="2.13671">
        <ele>114</ele>
        <time>2011-04-15T13:41:09Z</time>
      </trkpt>
      <trkpt lat="48.3826" lon="2.13672">
        <ele>114</ele>
        <time>2011-04-15T13:41:10Z</time>
      </trkpt>
      <trkpt lat="48.38257" lon="2.13673">
        <ele>113</ele>
        <time>2011-04-15T13:41:11Z</time>
      </trkpt>
      <trkpt lat="48.38254" lon="2.13675">
        <ele>113</ele>
        <time>2011-04-15T13:41:12Z</time>
      </trkpt>
      <trkpt lat="48.38251" lon="2.13676">
        <ele>112</ele>
        <time>2011-04-15T13:41:13Z</time>
      </trkpt>
      <trkpt lat="48.38248" lon="2.13677">
        <ele>112</ele>
        <time>2011-04-15T13:41:14Z</time>
      </trkpt>
      <trkpt lat="48.38245" lon="2.13679">
        <ele>112</ele>
        <time>2011-04-15T13:41:15Z</time>
      </trkpt>
      <trkpt lat="48.38242" lon="2.13681">
        <ele>111</ele>
        <time>2011-04-15T13:41:16Z</time>
      </trkpt>
      <trkpt lat="48.38239" lon="2.13683">
        <ele>111</ele>
        <time>2011-04-15T13:41:17Z</time>
      </trkpt>
      <trkpt lat="48.38235" lon="2.13684">
        <ele>111</ele>
        <time>2011-04-15T13:41:18Z</time>
      </trkpt>
      <trkpt lat="48.38232" lon="2.13686">
        <ele>111</ele>
        <time>2011-04-15T13:41:19Z</time>
      </trkpt>
      <trkpt lat="48.3823" lon="2.13688">
        <ele>111</ele>
        <time>2011-04-15T13:41:20Z</time>
      </trkpt>
      <trkpt lat="48.38228" lon="2.1369">
        <ele>111</ele>
        <time>2011-04-15T13:41:21Z</time>
      </trkpt>
      <trkpt lat="48.38226" lon="2.13692">
        <ele>111</ele>
        <time>2011-04-15T13:41:22Z</time>
      </trkpt>
      <trkpt lat="48.38225" lon="2.13696">
        <ele>110</ele>
        <time>2011-04-15T13:41:23Z</time>
      </trkpt>
      <trkpt lat="48.38225" lon="2.13699">
        <ele>110</ele>
        <time>2011-04-15T13:41:24Z</time>
      </trkpt>
      <trkpt lat="48.38226" lon="2.13703">
        <ele>110</ele>
        <time>2011-04-15T13:41:25Z</time>
      </trkpt>
      <trkpt lat="48.38228" lon="2.13707">
        <ele>109</ele>
        <time>2011-04-15T13:41:26Z</time>
      </trkpt>
      <trkpt lat="48.3823" lon="2.13711">
        <ele>108</ele>
        <time>2011-04-15T13:41:27Z</time>
      </trkpt>
      <trkpt lat="48.38232" lon="2.13715">
        <ele>108</ele>
        <time>2011-04-15T13:41:28Z</time>
      </trkpt>
      <trkpt lat="48.38234" lon="2.13718">
        <ele>107</ele>
        <time>2011-04-15T13:41:29Z</time>
      </trkpt>
      <trkpt lat="48.38235" lon="2.13722">
        <ele>107</ele>
        <time>2011-04-15T13:41:30Z</time>
      </trkpt>
      <trkpt lat="48.38235" lon="2.13725">
        <ele>106</ele>
        <time>2011-04-15T13:41:31Z</time>
      </trkpt>
      <trkpt lat="48.38234" lon="2.13727">
        <ele>106</ele>
        <time>2011-04-15T13:41:32Z</time>
      </trkpt>
      <trkpt lat="48.38233" lon="2.13729">
        <ele>105</ele>
        <time>2011-04-15T13:41:34Z</time>
      </trkpt>
      <trkpt lat="48.38233" lon="2.13731">
        <ele>105</ele>
        <time>2011-04-15T13:41:37Z</time>
      </trkpt>
      <trkpt lat="48.38233" lon="2.13733">
        <ele>104</ele>
        <time>2011-04-15T13:41:40Z</time>
      </trkpt>
      <trkpt lat="48.38233" lon="2.13737">
        <ele>104</ele>
        <time>2011-04-15T13:41:42Z</time>
      </trkpt>
      <trkpt lat="48.38234" lon="2.13738">
        <ele>104</ele>
        <time>2011-04-15T13:41:43Z</time>
      </trkpt>
      <trkpt lat="48.38234" lon="2.1374">
        <ele>104</ele>
        <time>2011-04-15T13:41:44Z</time>
      </trkpt>
      <trkpt lat="48.38236" lon="2.13743">
        <ele>103</ele>
        <time>2011-04-15T13:41:46Z</time>
      </trkpt>
      <trkpt lat="48.38238" lon="2.13746">
        <ele>103</ele>
        <time>2011-04-15T13:41:48Z</time>
      </trkpt>
      <trkpt lat="48.38239" lon="2.13748">
        <ele>103</ele>
        <time>2011-04-15T13:41:49Z</time>
      </trkpt>
      <trkpt lat="48.3824" lon="2.13749">
        <ele>102</ele>
        <time>2011-04-15T13:41:50Z</time>
      </trkpt>
      <trkpt lat="48.38242" lon="2.13752">
        <ele>102</ele>
        <time>2011-04-15T13:41:52Z</time>
      </trkpt>
      <trkpt lat="48.38243" lon="2.13754">
        <ele>102</ele>
        <time>2011-04-15T13:41:53Z</time>
      </trkpt>
      <trkpt lat="48.38244" lon="2.13755">
        <ele>102</ele>
        <time>2011-04-15T13:41:54Z</time>
      </trkpt>
      <trkpt lat="48.38245" lon="2.13757">
        <ele>102</ele>
        <time>2011-04-15T13:41:55Z</time>
      </trkpt>
      <trkpt lat="48.38247" lon="2.1376">
        <ele>102</ele>
        <time>2011-04-15T13:41:57Z</time>
      </trkpt>
      <trkpt lat="48.38248" lon="2.13762">
        <ele>101</ele>
        <time>2011-04-15T13:41:58Z</time>
      </trkpt>
      <trkpt lat="48.38249" lon="2.13764">
        <ele>101</ele>
        <time>2011-04-15T13:41:59Z</time>
      </trkpt>
      <trkpt lat="48.3825" lon="2.13765">
        <ele>101</ele>
        <time>2011-04-15T13:42:00Z</time>
      </trkpt>
      <trkpt lat="48.38252" lon="2.13766">
        <ele>101</ele>
        <time>2011-04-15T13:42:01Z</time>
      </trkpt>
      <trkpt lat="48.38253" lon="2.13767">
        <ele>101</ele>
        <time>2011-04-15T13:42:02Z</time>
      </trkpt>
      <trkpt lat="48.38255" lon="2.13769">
        <ele>100</ele>
        <time>2011-04-15T13:42:03Z</time>
      </trkpt>
      <trkpt lat="48.38256" lon="2.1377">
        <ele>100</ele>
        <time>2011-04-15T13:42:04Z</time>
      </trkpt>
      <trkpt lat="48.38257" lon="2.13772">
        <ele>100</ele>
        <time>2011-04-15T13:42:05Z</time>
      </trkpt>
      <trkpt lat="48.38258" lon="2.13773">
        <ele>100</ele>
        <time>2011-04-15T13:42:06Z</time>
      </trkpt>
      <trkpt lat="48.38259" lon="2.13775">
        <ele>100</ele>
        <time>2011-04-15T13:42:07Z</time>
      </trkpt>
      <trkpt lat="48.38261" lon="2.13776">
        <ele>100</ele>
        <time>2011-04-15T13:42:08Z</time>
      </trkpt>
      <trkpt lat="48.38262" lon="2.13778">
        <ele>100</ele>
        <time>2011-04-15T13:42:09Z</time>
      </trkpt>
      <trkpt lat="48.38263" lon="2.1378">
        <ele>100</ele>
        <time>2011-04-15T13:42:10Z</time>
      </trkpt>
      <trkpt lat="48.38264" lon="2.13783">
        <ele>100</ele>
        <time>2011-04-15T13:42:12Z</time>
      </trkpt>
      <trkpt lat="48.38266" lon="2.13786">
        <ele>100</ele>
        <time>2011-04-15T13:42:14Z</time>
      </trkpt>
      <trkpt lat="48.38268" lon="2.13789">
        <ele>99</ele>
        <time>2011-04-15T13:42:16Z</time>
      </trkpt>
      <trkpt lat="48.38269" lon="2.13791">
        <ele>99</ele>
        <time>2011-04-15T13:42:18Z</time>
      </trkpt>
      <trkpt lat="48.38271" lon="2.13793">
        <ele>99</ele>
        <time>2011-04-15T13:42:19Z</time>
      </trkpt>
      <trkpt lat="48.38272" lon="2.13794">
        <ele>99</ele>
        <time>2011-04-15T13:42:20Z</time>
      </trkpt>
      <trkpt lat="48.38273" lon="2.13797">
        <ele>98</ele>
        <time>2011-04-15T13:42:22Z</time>
      </trkpt>
      <trkpt lat="48.38276" lon="2.138">
        <ele>98</ele>
        <time>2011-04-15T13:42:24Z</time>
      </trkpt>
      <trkpt lat="48.38277" lon="2.13802">
        <ele>98</ele>
        <time>2011-04-15T13:42:25Z</time>
      </trkpt>
      <trkpt lat="48.38279" lon="2.13803">
        <ele>98</ele>
        <time>2011-04-15T13:42:26Z</time>
      </trkpt>
      <trkpt lat="48.3828" lon="2.13805">
        <ele>98</ele>
        <time>2011-04-15T13:42:27Z</time>
      </trkpt>
      <trkpt lat="48.38281" lon="2.13806">
        <ele>98</ele>
        <time>2011-04-15T13:42:28Z</time>
      </trkpt>
      <trkpt lat="48.38283" lon="2.13808">
        <ele>98</ele>
        <time>2011-04-15T13:42:29Z</time>
      </trkpt>
      <trkpt lat="48.38284" lon="2.13809">
        <ele>98</ele>
        <time>2011-04-15T13:42:30Z</time>
      </trkpt>
      <trkpt lat="48.38285" lon="2.13811">
        <ele>98</ele>
        <time>2011-04-15T13:42:31Z</time>
      </trkpt>
      <trkpt lat="48.38287" lon="2.13814">
        <ele>98</ele>
        <time>2011-04-15T13:42:33Z</time>
      </trkpt>
      <trkpt lat="48.38288" lon="2.13815">
        <ele>98</ele>
        <time>2011-04-15T13:42:34Z</time>
      </trkpt>
      <trkpt lat="48.3829" lon="2.13819">
        <ele>98</ele>
        <time>2011-04-15T13:42:36Z</time>
      </trkpt>
      <trkpt lat="48.38291" lon="2.1382">
        <ele>98</ele>
        <time>2011-04-15T13:42:37Z</time>
      </trkpt>
      <trkpt lat="48.38293" lon="2.13822">
        <ele>98</ele>
        <time>2011-04-15T13:42:38Z</time>
      </trkpt>
      <trkpt lat="48.38294" lon="2.13824">
        <ele>98</ele>
        <time>2011-04-15T13:42:39Z</time>
      </trkpt>
      <trkpt lat="48.38295" lon="2.13825">
        <ele>98</ele>
        <time>2011-04-15T13:42:40Z</time>
      </trkpt>
      <trkpt lat="48.38296" lon="2.13827">
        <ele>97</ele>
        <time>2011-04-15T13:42:41Z</time>
      </trkpt>
      <trkpt lat="48.38297" lon="2.13829">
        <ele>97</ele>
        <time>2011-04-15T13:42:42Z</time>
      </trkpt>
      <trkpt lat="48.38298" lon="2.1383">
        <ele>97</ele>
        <time>2011-04-15T13:42:43Z</time>
      </trkpt>
      <trkpt lat="48.38299" lon="2.13832">
        <ele>97</ele>
        <time>2011-04-15T13:42:44Z</time>
      </trkpt>
      <trkpt lat="48.383" lon="2.13833">
        <ele>97</ele>
        <time>2011-04-15T13:42:45Z</time>
      </trkpt>
      <trkpt lat="48.38302" lon="2.13837">
        <ele>97</ele>
        <time>2011-04-15T13:42:47Z</time>
      </trkpt>
      <trkpt lat="48.38304" lon="2.1384">
        <ele>96</ele>
        <time>2011-04-15T13:42:49Z</time>
      </trkpt>
      <trkpt lat="48.38306" lon="2.13843">
        <ele>96</ele>
        <time>2011-04-15T13:42:51Z</time>
      </trkpt>
      <trkpt lat="48.38307" lon="2.13845">
        <ele>96</ele>
        <time>2011-04-15T13:42:52Z</time>
      </trkpt>
      <trkpt lat="48.38309" lon="2.13848">
        <ele>96</ele>
        <time>2011-04-15T13:42:54Z</time>
      </trkpt>
      <trkpt lat="48.38311" lon="2.1385">
        <ele>95</ele>
        <time>2011-04-15T13:42:56Z</time>
      </trkpt>
      <trkpt lat="48.38313" lon="2.13851">
        <ele>95</ele>
        <time>2011-04-15T13:42:58Z</time>
      </trkpt>
      <trkpt lat="48.38314" lon="2.13853">
        <ele>95</ele>
        <time>2011-04-15T13:43:00Z</time>
      </trkpt>
      <trkpt lat="48.38315" lon="2.13855">
        <ele>95</ele>
        <time>2011-04-15T13:43:04Z</time>
      </trkpt>
      <trkpt lat="48.38316" lon="2.13857">
        <ele>95</ele>
        <time>2011-04-15T13:43:06Z</time>
      </trkpt>
      <trkpt lat="48.38318" lon="2.13859">
        <ele>95</ele>
        <time>2011-04-15T13:43:08Z</time>
      </trkpt>
      <trkpt lat="48.38319" lon="2.13861">
        <ele>95</ele>
        <time>2011-04-15T13:43:09Z</time>
      </trkpt>
      <trkpt lat="48.38321" lon="2.13862">
        <ele>94</ele>
        <time>2011-04-15T13:43:10Z</time>
      </trkpt>
      <trkpt lat="48.38322" lon="2.13863">
        <ele>94</ele>
        <time>2011-04-15T13:43:11Z</time>
      </trkpt>
      <trkpt lat="48.38323" lon="2.13864">
        <ele>94</ele>
        <time>2011-04-15T13:43:12Z</time>
      </trkpt>
      <trkpt lat="48.38325" lon="2.13867">
        <ele>93</ele>
        <time>2011-04-15T13:43:14Z</time>
      </trkpt>
      <trkpt lat="48.38327" lon="2.1387">
        <ele>93</ele>
        <time>2011-04-15T13:43:16Z</time>
      </trkpt>
      <trkpt lat="48.38329" lon="2.13871">
        <ele>93</ele>
        <time>2011-04-15T13:43:17Z</time>
      </trkpt>
      <trkpt lat="48.38331" lon="2.13874">
        <ele>93</ele>
        <time>2011-04-15T13:43:19Z</time>
      </trkpt>
      <trkpt lat="48.38332" lon="2.13875">
        <ele>92</ele>
        <time>2011-04-15T13:43:20Z</time>
      </trkpt>
      <trkpt lat="48.38334" lon="2.13878">
        <ele>92</ele>
        <time>2011-04-15T13:43:22Z</time>
      </trkpt>
      <trkpt lat="48.38335" lon="2.13879">
        <ele>92</ele>
        <time>2011-04-15T13:43:23Z</time>
      </trkpt>
      <trkpt lat="48.38336" lon="2.13881">
        <ele>91</ele>
        <time>2011-04-15T13:43:24Z</time>
      </trkpt>
      <trkpt lat="48.38338" lon="2.13882">
        <ele>91</ele>
        <time>2011-04-15T13:43:25Z</time>
      </trkpt>
      <trkpt lat="48.38339" lon="2.13884">
        <ele>90</ele>
        <time>2011-04-15T13:43:26Z</time>
      </trkpt>
      <trkpt lat="48.3834" lon="2.13886">
        <ele>90</ele>
        <time>2011-04-15T13:43:27Z</time>
      </trkpt>
      <trkpt lat="48.38341" lon="2.13888">
        <ele>89</ele>
        <time>2011-04-15T13:43:28Z</time>
      </trkpt>
      <trkpt lat="48.38342" lon="2.1389">
        <ele>89</ele>
        <time>2011-04-15T13:43:29Z</time>
      </trkpt>
      <trkpt lat="48.38343" lon="2.13892">
        <ele>89</ele>
        <time>2011-04-15T13:43:30Z</time>
      </trkpt>
      <trkpt lat="48.38345" lon="2.13894">
        <ele>88</ele>
        <time>2011-04-15T13:43:31Z</time>
      </trkpt>
      <trkpt lat="48.38346" lon="2.13896">
        <ele>88</ele>
        <time>2011-04-15T13:43:32Z</time>
      </trkpt>
      <trkpt lat="48.38347" lon="2.13898">
        <ele>88</ele>
        <time>2011-04-15T13:43:33Z</time>
      </trkpt>
      <trkpt lat="48.38348" lon="2.139">
        <ele>88</ele>
        <time>2011-04-15T13:43:34Z</time>
      </trkpt>
      <trkpt lat="48.38348" lon="2.13902">
        <ele>88</ele>
        <time>2011-04-15T13:43:35Z</time>
      </trkpt>
      <trkpt lat="48.38348" lon="2.13905">
        <ele>87</ele>
        <time>2011-04-15T13:43:36Z</time>
      </trkpt>
      <trkpt lat="48.38348" lon="2.13907">
        <ele>87</ele>
        <time>2011-04-15T13:43:37Z</time>
      </trkpt>
      <trkpt lat="48.38349" lon="2.13909">
        <ele>87</ele>
        <time>2011-04-15T13:43:38Z</time>
      </trkpt>
      <trkpt lat="48.38349" lon="2.13911">
        <ele>86</ele>
        <time>2011-04-15T13:43:39Z</time>
      </trkpt>
      <trkpt lat="48.38349" lon="2.13914">
        <ele>86</ele>
        <time>2011-04-15T13:43:40Z</time>
      </trkpt>
      <trkpt lat="48.3835" lon="2.13916">
        <ele>86</ele>
        <time>2011-04-15T13:43:41Z</time>
      </trkpt>
      <trkpt lat="48.3835" lon="2.13918">
        <ele>85</ele>
        <time>2011-04-15T13:43:42Z</time>
      </trkpt>
      <trkpt lat="48.3835" lon="2.1392">
        <ele>85</ele>
        <time>2011-04-15T13:43:43Z</time>
      </trkpt>
      <trkpt lat="48.38351" lon="2.13922">
        <ele>85</ele>
        <time>2011-04-15T13:43:44Z</time>
      </trkpt>
      <trkpt lat="48.38352" lon="2.13924">
        <ele>85</ele>
        <time>2011-04-15T13:43:45Z</time>
      </trkpt>
      <trkpt lat="48.38352" lon="2.13926">
        <ele>84</ele>
        <time>2011-04-15T13:43:46Z</time>
      </trkpt>
      <trkpt lat="48.38352" lon="2.13929">
        <ele>84</ele>
        <time>2011-04-15T13:43:47Z</time>
      </trkpt>
      <trkpt lat="48.38352" lon="2.13931">
        <ele>84</ele>
        <time>2011-04-15T13:43:48Z</time>
      </trkpt>
      <trkpt lat="48.38353" lon="2.13933">
        <ele>84</ele>
        <time>2011-04-15T13:43:49Z</time>
      </trkpt>
      <trkpt lat="48.38353" lon="2.13936">
        <ele>83</ele>
        <time>2011-04-15T13:43:50Z</time>
      </trkpt>
      <trkpt lat="48.38353" lon="2.13938">
        <ele>83</ele>
        <time>2011-04-15T13:43:51Z</time>
      </trkpt>
      <trkpt lat="48.38354" lon="2.1394">
        <ele>83</ele>
        <time>2011-04-15T13:43:52Z</time>
      </trkpt>
      <trkpt lat="48.38354" lon="2.13943">
        <ele>82</ele>
        <time>2011-04-15T13:43:53Z</time>
      </trkpt>
      <trkpt lat="48.38354" lon="2.13945">
        <ele>82</ele>
        <time>2011-04-15T13:43:54Z</time>
      </trkpt>
      <trkpt lat="48.38354" lon="2.13947">
        <ele>82</ele>
        <time>2011-04-15T13:43:55Z</time>
      </trkpt>
      <trkpt lat="48.38355" lon="2.1395">
        <ele>82</ele>
        <time>2011-04-15T13:43:56Z</time>
      </trkpt>
      <trkpt lat="48.38355" lon="2.13952">
        <ele>81</ele>
        <time>2011-04-15T13:43:57Z</time>
      </trkpt>
      <trkpt lat="48.38355" lon="2.13954">
        <ele>81</ele>
        <time>2011-04-15T13:43:58Z</time>
      </trkpt>
      <trkpt lat="48.38356" lon="2.13956">
        <ele>81</ele>
        <time>2011-04-15T13:43:59Z</time>
      </trkpt>
      <trkpt lat="48.38356" lon="2.13959">
        <ele>81</ele>
        <time>2011-04-15T13:44:00Z</time>
      </trkpt>
      <trkpt lat="48.38357" lon="2.13961">
        <ele>81</ele>
        <time>2011-04-15T13:44:01Z</time>
      </trkpt>
      <trkpt lat="48.38357" lon="2.13963">
        <ele>80</ele>
        <time>2011-04-15T13:44:02Z</time>
      </trkpt>
      <trkpt lat="48.38357" lon="2.13966">
        <ele>80</ele>
        <time>2011-04-15T13:44:03Z</time>
      </trkpt>
      <trkpt lat="48.38357" lon="2.13968">
        <ele>80</ele>
        <time>2011-04-15T13:44:04Z</time>
      </trkpt>
      <trkpt lat="48.38358" lon="2.1397">
        <ele>80</ele>
        <time>2011-04-15T13:44:05Z</time>
      </trkpt>
      <trkpt lat="48.38358" lon="2.13972">
        <ele>79</ele>
        <time>2011-04-15T13:44:06Z</time>
      </trkpt>
      <trkpt lat="48.38358" lon="2.13974">
        <ele>79</ele>
        <time>2011-04-15T13:44:07Z</time>
      </trkpt>
      <trkpt lat="48.38359" lon="2.13977">
        <ele>79</ele>
        <time>2011-04-15T13:44:08Z</time>
      </trkpt>
      <trkpt lat="48.38359" lon="2.13979">
        <ele>79</ele>
        <time>2011-04-15T13:44:09Z</time>
      </trkpt>
      <trkpt lat="48.3836" lon="2.13981">
        <ele>79</ele>
        <time>2011-04-15T13:44:10Z</time>
      </trkpt>
      <trkpt lat="48.3836" lon="2.13983">
        <ele>79</ele>
        <time>2011-04-15T13:44:11Z</time>
      </trkpt>
      <trkpt lat="48.3836" lon="2.13985">
        <ele>79</ele>
        <time>2011-04-15T13:44:12Z</time>
      </trkpt>
      <trkpt lat="48.3836" lon="2.13987">
        <ele>78</ele>
        <time>2011-04-15T13:44:13Z</time>
      </trkpt>
      <trkpt lat="48.3836" lon="2.13989">
        <ele>78</ele>
        <time>2011-04-15T13:44:14Z</time>
      </trkpt>
      <trkpt lat="48.3836" lon="2.13991">
        <ele>78</ele>
        <time>2011-04-15T13:44:15Z</time>
      </trkpt>
      <trkpt lat="48.38361" lon="2.13993">
        <ele>78</ele>
        <time>2011-04-15T13:44:16Z</time>
      </trkpt>
      <trkpt lat="48.38361" lon="2.13996">
        <ele>77</ele>
        <time>2011-04-15T13:44:18Z</time>
      </trkpt>
      <trkpt lat="48.38362" lon="2.13999">
        <ele>77</ele>
        <time>2011-04-15T13:44:20Z</time>
      </trkpt>
      <trkpt lat="48.38362" lon="2.14001">
        <ele>77</ele>
        <time>2011-04-15T13:44:21Z</time>
      </trkpt>
      <trkpt lat="48.38362" lon="2.14003">
        <ele>76</ele>
        <time>2011-04-15T13:44:22Z</time>
      </trkpt>
      <trkpt lat="48.38362" lon="2.14005">
        <ele>76</ele>
        <time>2011-04-15T13:44:23Z</time>
      </trkpt>
      <trkpt lat="48.38362" lon="2.14006">
        <ele>76</ele>
        <time>2011-04-15T13:44:24Z</time>
      </trkpt>
      <trkpt lat="48.38362" lon="2.14009">
        <ele>76</ele>
        <time>2011-04-15T13:44:25Z</time>
      </trkpt>
      <trkpt lat="48.38363" lon="2.14011">
        <ele>76</ele>
        <time>2011-04-15T13:44:26Z</time>
      </trkpt>
      <trkpt lat="48.38363" lon="2.14014">
        <ele>76</ele>
        <time>2011-04-15T13:44:27Z</time>
      </trkpt>
      <trkpt lat="48.38364" lon="2.14016">
        <ele>76</ele>
        <time>2011-04-15T13:44:28Z</time>
      </trkpt>
      <trkpt lat="48.38365" lon="2.14018">
        <ele>76</ele>
        <time>2011-04-15T13:44:29Z</time>
      </trkpt>
      <trkpt lat="48.38366" lon="2.1402">
        <ele>76</ele>
        <time>2011-04-15T13:44:30Z</time>
      </trkpt>
      <trkpt lat="48.38366" lon="2.14022">
        <ele>76</ele>
        <time>2011-04-15T13:44:31Z</time>
      </trkpt>
      <trkpt lat="48.38367" lon="2.14024">
        <ele>76</ele>
        <time>2011-04-15T13:44:32Z</time>
      </trkpt>
      <trkpt lat="48.38367" lon="2.14026">
        <ele>76</ele>
        <time>2011-04-15T13:44:33Z</time>
      </trkpt>
      <trkpt lat="48.38368" lon="2.14028">
        <ele>76</ele>
        <time>2011-04-15T13:44:34Z</time>
      </trkpt>
      <trkpt lat="48.38369" lon="2.1403">
        <ele>76</ele>
        <time>2011-04-15T13:44:35Z</time>
      </trkpt>
      <trkpt lat="48.3837" lon="2.14032">
        <ele>76</ele>
        <time>2011-04-15T13:44:37Z</time>
      </trkpt>
      <trkpt lat="48.38372" lon="2.14033">
        <ele>76</ele>
        <time>2011-04-15T13:44:39Z</time>
      </trkpt>
      <trkpt lat="48.38373" lon="2.14034">
        <ele>76</ele>
        <time>2011-04-15T13:44:40Z</time>
      </trkpt>
      <trkpt lat="48.38375" lon="2.14034">
        <ele>76</ele>
        <time>2011-04-15T13:44:41Z</time>
      </trkpt>
      <trkpt lat="48.38376" lon="2.14034">
        <ele>76</ele>
        <time>2011-04-15T13:44:42Z</time>
      </trkpt>
      <trkpt lat="48.38377" lon="2.14034">
        <ele>76</ele>
        <time>2011-04-15T13:44:43Z</time>
      </trkpt>
      <trkpt lat="48.38379" lon="2.14034">
        <ele>76</ele>
        <time>2011-04-15T13:44:44Z</time>
      </trkpt>
      <trkpt lat="48.3838" lon="2.14034">
        <ele>76</ele>
        <time>2011-04-15T13:44:45Z</time>
      </trkpt>
      <trkpt lat="48.38382" lon="2.14034">
        <ele>76</ele>
        <time>2011-04-15T13:44:46Z</time>
      </trkpt>
      <trkpt lat="48.38383" lon="2.14034">
        <ele>76</ele>
        <time>2011-04-15T13:44:47Z</time>
      </trkpt>
      <trkpt lat="48.38385" lon="2.14034">
        <ele>76</ele>
        <time>2011-04-15T13:44:49Z</time>
      </trkpt>
      <trkpt lat="48.38386" lon="2.14033">
        <ele>76</ele>
        <time>2011-04-15T13:44:50Z</time>
      </trkpt>
      <trkpt lat="48.38388" lon="2.14033">
        <ele>76</ele>
        <time>2011-04-15T13:44:52Z</time>
      </trkpt>
      <trkpt lat="48.3839" lon="2.14032">
        <ele>76</ele>
        <time>2011-04-15T13:44:53Z</time>
      </trkpt>
      <trkpt lat="48.38391" lon="2.14032">
        <ele>76</ele>
        <time>2011-04-15T13:44:54Z</time>
      </trkpt>
      <trkpt lat="48.38393" lon="2.14031">
        <ele>76</ele>
        <time>2011-04-15T13:44:55Z</time>
      </trkpt>
      <trkpt lat="48.38394" lon="2.14031">
        <ele>76</ele>
        <time>2011-04-15T13:44:56Z</time>
      </trkpt>
      <trkpt lat="48.38395" lon="2.1403">
        <ele>76</ele>
        <time>2011-04-15T13:44:57Z</time>
      </trkpt>
      <trkpt lat="48.38397" lon="2.1403">
        <ele>76</ele>
        <time>2011-04-15T13:44:58Z</time>
      </trkpt>
      <trkpt lat="48.38398" lon="2.14029">
        <ele>76</ele>
        <time>2011-04-15T13:44:59Z</time>
      </trkpt>
      <trkpt lat="48.384" lon="2.14029">
        <ele>76</ele>
        <time>2011-04-15T13:45:00Z</time>
      </trkpt>
      <trkpt lat="48.38401" lon="2.14028">
        <ele>76</ele>
        <time>2011-04-15T13:45:01Z</time>
      </trkpt>
      <trkpt lat="48.38403" lon="2.14028">
        <ele>76</ele>
        <time>2011-04-15T13:45:02Z</time>
      </trkpt>
      <trkpt lat="48.38404" lon="2.14027">
        <ele>76</ele>
        <time>2011-04-15T13:45:03Z</time>
      </trkpt>
      <trkpt lat="48.38406" lon="2.14027">
        <ele>76</ele>
        <time>2011-04-15T13:45:04Z</time>
      </trkpt>
      <trkpt lat="48.38407" lon="2.14026">
        <ele>76</ele>
        <time>2011-04-15T13:45:05Z</time>
      </trkpt>
      <trkpt lat="48.38409" lon="2.14026">
        <ele>76</ele>
        <time>2011-04-15T13:45:06Z</time>
      </trkpt>
      <trkpt lat="48.3841" lon="2.14026">
        <ele>76</ele>
        <time>2011-04-15T13:45:07Z</time>
      </trkpt>
      <trkpt lat="48.38411" lon="2.14025">
        <ele>76</ele>
        <time>2011-04-15T13:45:08Z</time>
      </trkpt>
      <trkpt lat="48.38413" lon="2.14025">
        <ele>76</ele>
        <time>2011-04-15T13:45:09Z</time>
      </trkpt>
      <trkpt lat="48.38414" lon="2.14024">
        <ele>76</ele>
        <time>2011-04-15T13:45:10Z</time>
      </trkpt>
      <trkpt lat="48.38415" lon="2.14023">
        <ele>76</ele>
        <time>2011-04-15T13:45:11Z</time>
      </trkpt>
      <trkpt lat="48.38417" lon="2.14021">
        <ele>76</ele>
        <time>2011-04-15T13:45:13Z</time>
      </trkpt>
      <trkpt lat="48.38418" lon="2.1402">
        <ele>76</ele>
        <time>2011-04-15T13:45:14Z</time>
      </trkpt>
      <trkpt lat="48.3842" lon="2.14019">
        <ele>76</ele>
        <time>2011-04-15T13:45:15Z</time>
      </trkpt>
      <trkpt lat="48.38421" lon="2.14018">
        <ele>76</ele>
        <time>2011-04-15T13:45:16Z</time>
      </trkpt>
      <trkpt lat="48.38422" lon="2.14018">
        <ele>77</ele>
        <time>2011-04-15T13:45:17Z</time>
      </trkpt>
      <trkpt lat="48.38424" lon="2.14017">
        <ele>77</ele>
        <time>2011-04-15T13:45:18Z</time>
      </trkpt>
      <trkpt lat="48.38425" lon="2.14018">
        <ele>77</ele>
        <time>2011-04-15T13:45:19Z</time>
      </trkpt>
      <trkpt lat="48.38427" lon="2.14018">
        <ele>77</ele>
        <time>2011-04-15T13:45:20Z</time>
      </trkpt>
      <trkpt lat="48.38429" lon="2.14018">
        <ele>77</ele>
        <time>2011-04-15T13:45:21Z</time>
      </trkpt>
      <trkpt lat="48.3843" lon="2.14018">
        <ele>77</ele>
        <time>2011-04-15T13:45:22Z</time>
      </trkpt>
      <trkpt lat="48.38432" lon="2.14019">
        <ele>77</ele>
        <time>2011-04-15T13:45:23Z</time>
      </trkpt>
      <trkpt lat="48.38434" lon="2.14018">
        <ele>77</ele>
        <time>2011-04-15T13:45:24Z</time>
      </trkpt>
      <trkpt lat="48.38435" lon="2.14018">
        <ele>77</ele>
        <time>2011-04-15T13:45:25Z</time>
      </trkpt>
      <trkpt lat="48.38437" lon="2.14018">
        <ele>77</ele>
        <time>2011-04-15T13:45:26Z</time>
      </trkpt>
      <trkpt lat="48.38438" lon="2.14018">
        <ele>77</ele>
        <time>2011-04-15T13:45:27Z</time>
      </trkpt>
      <trkpt lat="48.3844" lon="2.14019">
        <ele>77</ele>
        <time>2011-04-15T13:45:28Z</time>
      </trkpt>
      <trkpt lat="48.38442" lon="2.14019">
        <ele>77</ele>
        <time>2011-04-15T13:45:29Z</time>
      </trkpt>
      <trkpt lat="48.38443" lon="2.1402">
        <ele>77</ele>
        <time>2011-04-15T13:45:30Z</time>
      </trkpt>
      <trkpt lat="48.38444" lon="2.14021">
        <ele>77</ele>
        <time>2011-04-15T13:45:31Z</time>
      </trkpt>
      <trkpt lat="48.38446" lon="2.14022">
        <ele>77</ele>
        <time>2011-04-15T13:45:32Z</time>
      </trkpt>
      <trkpt lat="48.38447" lon="2.14023">
        <ele>77</ele>
        <time>2011-04-15T13:45:33Z</time>
      </trkpt>
      <trkpt lat="48.38448" lon="2.14025">
        <ele>77</ele>
        <time>2011-04-15T13:45:34Z</time>
      </trkpt>
      <trkpt lat="48.38449" lon="2.14027">
        <ele>77</ele>
        <time>2011-04-15T13:45:35Z</time>
      </trkpt>
      <trkpt lat="48.38451" lon="2.14028">
        <ele>77</ele>
        <time>2011-04-15T13:45:36Z</time>
      </trkpt>
      <trkpt lat="48.38452" lon="2.1403">
        <ele>77</ele>
        <time>2011-04-15T13:45:37Z</time>
      </trkpt>
      <trkpt lat="48.38453" lon="2.14032">
        <ele>77</ele>
        <time>2011-04-15T13:45:38Z</time>
      </trkpt>
      <trkpt lat="48.38454" lon="2.14033">
        <ele>77</ele>
        <time>2011-04-15T13:45:39Z</time>
      </trkpt>
      <trkpt lat="48.38455" lon="2.14035">
        <ele>76</ele>
        <time>2011-04-15T13:45:40Z</time>
      </trkpt>
      <trkpt lat="48.38457" lon="2.14038">
        <ele>76</ele>
        <time>2011-04-15T13:45:42Z</time>
      </trkpt>
      <trkpt lat="48.38458" lon="2.1404">
        <ele>76</ele>
        <time>2011-04-15T13:45:43Z</time>
      </trkpt>
      <trkpt lat="48.38459" lon="2.14041">
        <ele>76</ele>
        <time>2011-04-15T13:45:44Z</time>
      </trkpt>
      <trkpt lat="48.3846" lon="2.14043">
        <ele>75</ele>
        <time>2011-04-15T13:45:45Z</time>
      </trkpt>
      <trkpt lat="48.38461" lon="2.14045">
        <ele>75</ele>
        <time>2011-04-15T13:45:46Z</time>
      </trkpt>
      <trkpt lat="48.38462" lon="2.14046">
        <ele>75</ele>
        <time>2011-04-15T13:45:47Z</time>
      </trkpt>
      <trkpt lat="48.38463" lon="2.14048">
        <ele>75</ele>
        <time>2011-04-15T13:45:48Z</time>
      </trkpt>
      <trkpt lat="48.38464" lon="2.1405">
        <ele>75</ele>
        <time>2011-04-15T13:45:49Z</time>
      </trkpt>
      <trkpt lat="48.38466" lon="2.14053">
        <ele>75</ele>
        <time>2011-04-15T13:45:51Z</time>
      </trkpt>
      <trkpt lat="48.38469" lon="2.14056">
        <ele>75</ele>
        <time>2011-04-15T13:45:53Z</time>
      </trkpt>
      <trkpt lat="48.3847" lon="2.14058">
        <ele>74</ele>
        <time>2011-04-15T13:45:54Z</time>
      </trkpt>
      <trkpt lat="48.38471" lon="2.14059">
        <ele>74</ele>
        <time>2011-04-15T13:45:55Z</time>
      </trkpt>
      <trkpt lat="48.38472" lon="2.14061">
        <ele>74</ele>
        <time>2011-04-15T13:45:56Z</time>
      </trkpt>
      <trkpt lat="48.38473" lon="2.14063">
        <ele>74</ele>
        <time>2011-04-15T13:45:57Z</time>
      </trkpt>
      <trkpt lat="48.38474" lon="2.14064">
        <ele>74</ele>
        <time>2011-04-15T13:45:58Z</time>
      </trkpt>
      <trkpt lat="48.38475" lon="2.14066">
        <ele>74</ele>
        <time>2011-04-15T13:45:59Z</time>
      </trkpt>
      <trkpt lat="48.38476" lon="2.14068">
        <ele>74</ele>
        <time>2011-04-15T13:46:00Z</time>
      </trkpt>
      <trkpt lat="48.38477" lon="2.14069">
        <ele>74</ele>
        <time>2011-04-15T13:46:01Z</time>
      </trkpt>
      <trkpt lat="48.38478" lon="2.14071">
        <ele>74</ele>
        <time>2011-04-15T13:46:02Z</time>
      </trkpt>
      <trkpt lat="48.3848" lon="2.14074">
        <ele>74</ele>
        <time>2011-04-15T13:46:04Z</time>
      </trkpt>
      <trkpt lat="48.38481" lon="2.14076">
        <ele>74</ele>
        <time>2011-04-15T13:46:05Z</time>
      </trkpt>
      <trkpt lat="48.38482" lon="2.14077">
        <ele>74</ele>
        <time>2011-04-15T13:46:06Z</time>
      </trkpt>
      <trkpt lat="48.38484" lon="2.1408">
        <ele>73</ele>
        <time>2011-04-15T13:46:08Z</time>
      </trkpt>
      <trkpt lat="48.38486" lon="2.14083">
        <ele>73</ele>
        <time>2011-04-15T13:46:10Z</time>
      </trkpt>
      <trkpt lat="48.38488" lon="2.14086">
        <ele>73</ele>
        <time>2011-04-15T13:46:12Z</time>
      </trkpt>
      <trkpt lat="48.38491" lon="2.14089">
        <ele>73</ele>
        <time>2011-04-15T13:46:14Z</time>
      </trkpt>
      <trkpt lat="48.38492" lon="2.1409">
        <ele>73</ele>
        <time>2011-04-15T13:46:15Z</time>
      </trkpt>
      <trkpt lat="48.38493" lon="2.14091">
        <ele>72</ele>
        <time>2011-04-15T13:46:16Z</time>
      </trkpt>
      <trkpt lat="48.38495" lon="2.14092">
        <ele>72</ele>
        <time>2011-04-15T13:46:17Z</time>
      </trkpt>
      <trkpt lat="48.38496" lon="2.14094">
        <ele>72</ele>
        <time>2011-04-15T13:46:18Z</time>
      </trkpt>
      <trkpt lat="48.38497" lon="2.14095">
        <ele>72</ele>
        <time>2011-04-15T13:46:19Z</time>
      </trkpt>
      <trkpt lat="48.38498" lon="2.14097">
        <ele>72</ele>
        <time>2011-04-15T13:46:20Z</time>
      </trkpt>
      <trkpt lat="48.385" lon="2.14098">
        <ele>72</ele>
        <time>2011-04-15T13:46:21Z</time>
      </trkpt>
      <trkpt lat="48.38501" lon="2.141">
        <ele>72</ele>
        <time>2011-04-15T13:46:22Z</time>
      </trkpt>
      <trkpt lat="48.38502" lon="2.14102">
        <ele>72</ele>
        <time>2011-04-15T13:46:23Z</time>
      </trkpt>
      <trkpt lat="48.38503" lon="2.14105">
        <ele>72</ele>
        <time>2011-04-15T13:46:25Z</time>
      </trkpt>
      <trkpt lat="48.38505" lon="2.14108">
        <ele>71</ele>
        <time>2011-04-15T13:46:27Z</time>
      </trkpt>
      <trkpt lat="48.38506" lon="2.1411">
        <ele>71</ele>
        <time>2011-04-15T13:46:28Z</time>
      </trkpt>
      <trkpt lat="48.38508" lon="2.14113">
        <ele>71</ele>
        <time>2011-04-15T13:46:30Z</time>
      </trkpt>
      <trkpt lat="48.38508" lon="2.14115">
        <ele>71</ele>
        <time>2011-04-15T13:46:31Z</time>
      </trkpt>
      <trkpt lat="48.38509" lon="2.14117">
        <ele>71</ele>
        <time>2011-04-15T13:46:32Z</time>
      </trkpt>
      <trkpt lat="48.3851" lon="2.14119">
        <ele>71</ele>
        <time>2011-04-15T13:46:33Z</time>
      </trkpt>
      <trkpt lat="48.38511" lon="2.1412">
        <ele>71</ele>
        <time>2011-04-15T13:46:34Z</time>
      </trkpt>
      <trkpt lat="48.38512" lon="2.14122">
        <ele>71</ele>
        <time>2011-04-15T13:46:35Z</time>
      </trkpt>
      <trkpt lat="48.38513" lon="2.14125">
        <ele>71</ele>
        <time>2011-04-15T13:46:36Z</time>
      </trkpt>
      <trkpt lat="48.38514" lon="2.14127">
        <ele>71</ele>
        <time>2011-04-15T13:46:37Z</time>
      </trkpt>
      <trkpt lat="48.38515" lon="2.1413">
        <ele>71</ele>
        <time>2011-04-15T13:46:38Z</time>
      </trkpt>
      <trkpt lat="48.38515" lon="2.14133">
        <ele>70</ele>
        <time>2011-04-15T13:46:39Z</time>
      </trkpt>
      <trkpt lat="48.38516" lon="2.14135">
        <ele>70</ele>
        <time>2011-04-15T13:46:40Z</time>
      </trkpt>
      <trkpt lat="48.38517" lon="2.14137">
        <ele>70</ele>
        <time>2011-04-15T13:46:41Z</time>
      </trkpt>
      <trkpt lat="48.38518" lon="2.14139">
        <ele>70</ele>
        <time>2011-04-15T13:46:42Z</time>
      </trkpt>
      <trkpt lat="48.38519" lon="2.14141">
        <ele>70</ele>
        <time>2011-04-15T13:46:43Z</time>
      </trkpt>
      <trkpt lat="48.3852" lon="2.14143">
        <ele>70</ele>
        <time>2011-04-15T13:46:44Z</time>
      </trkpt>
      <trkpt lat="48.3852" lon="2.14145">
        <ele>70</ele>
        <time>2011-04-15T13:46:45Z</time>
      </trkpt>
      <trkpt lat="48.38521" lon="2.14147">
        <ele>70</ele>
        <time>2011-04-15T13:46:46Z</time>
      </trkpt>
      <trkpt lat="48.38522" lon="2.14149">
        <ele>70</ele>
        <time>2011-04-15T13:46:47Z</time>
      </trkpt>
      <trkpt lat="48.38522" lon="2.14151">
        <ele>70</ele>
        <time>2011-04-15T13:46:48Z</time>
      </trkpt>
      <trkpt lat="48.38523" lon="2.14153">
        <ele>70</ele>
        <time>2011-04-15T13:46:49Z</time>
      </trkpt>
      <trkpt lat="48.38523" lon="2.14156">
        <ele>69</ele>
        <time>2011-04-15T13:46:50Z</time>
      </trkpt>
      <trkpt lat="48.38524" lon="2.14158">
        <ele>69</ele>
        <time>2011-04-15T13:46:51Z</time>
      </trkpt>
      <trkpt lat="48.38525" lon="2.1416">
        <ele>69</ele>
        <time>2011-04-15T13:46:52Z</time>
      </trkpt>
      <trkpt lat="48.38525" lon="2.14162">
        <ele>69</ele>
        <time>2011-04-15T13:46:53Z</time>
      </trkpt>
      <trkpt lat="48.38526" lon="2.14164">
        <ele>69</ele>
        <time>2011-04-15T13:46:54Z</time>
      </trkpt>
      <trkpt lat="48.38527" lon="2.14167">
        <ele>69</ele>
        <time>2011-04-15T13:46:55Z</time>
      </trkpt>
      <trkpt lat="48.38528" lon="2.14169">
        <ele>69</ele>
        <time>2011-04-15T13:46:56Z</time>
      </trkpt>
      <trkpt lat="48.38529" lon="2.14171">
        <ele>69</ele>
        <time>2011-04-15T13:46:57Z</time>
      </trkpt>
      <trkpt lat="48.3853" lon="2.14174">
        <ele>69</ele>
        <time>2011-04-15T13:46:58Z</time>
      </trkpt>
      <trkpt lat="48.38531" lon="2.14176">
        <ele>69</ele>
        <time>2011-04-15T13:46:59Z</time>
      </trkpt>
      <trkpt lat="48.38532" lon="2.14178">
        <ele>69</ele>
        <time>2011-04-15T13:47:00Z</time>
      </trkpt>
      <trkpt lat="48.38532" lon="2.1418">
        <ele>69</ele>
        <time>2011-04-15T13:47:01Z</time>
      </trkpt>
      <trkpt lat="48.38533" lon="2.14182">
        <ele>69</ele>
        <time>2011-04-15T13:47:02Z</time>
      </trkpt>
      <trkpt lat="48.38533" lon="2.14185">
        <ele>69</ele>
        <time>2011-04-15T13:47:03Z</time>
      </trkpt>
      <trkpt lat="48.38534" lon="2.14187">
        <ele>69</ele>
        <time>2011-04-15T13:47:04Z</time>
      </trkpt>
      <trkpt lat="48.38534" lon="2.14189">
        <ele>69</ele>
        <time>2011-04-15T13:47:05Z</time>
      </trkpt>
      <trkpt lat="48.38534" lon="2.14191">
        <ele>69</ele>
        <time>2011-04-15T13:47:06Z</time>
      </trkpt>
      <trkpt lat="48.38535" lon="2.14193">
        <ele>69</ele>
        <time>2011-04-15T13:47:07Z</time>
      </trkpt>
      <trkpt lat="48.38535" lon="2.14196">
        <ele>69</ele>
        <time>2011-04-15T13:47:08Z</time>
      </trkpt>
      <trkpt lat="48.38535" lon="2.14198">
        <ele>69</ele>
        <time>2011-04-15T13:47:09Z</time>
      </trkpt>
      <trkpt lat="48.38536" lon="2.142">
        <ele>68</ele>
        <time>2011-04-15T13:47:10Z</time>
      </trkpt>
      <trkpt lat="48.38537" lon="2.14202">
        <ele>68</ele>
        <time>2011-04-15T13:47:11Z</time>
      </trkpt>
      <trkpt lat="48.38537" lon="2.14204">
        <ele>68</ele>
        <time>2011-04-15T13:47:12Z</time>
      </trkpt>
      <trkpt lat="48.38538" lon="2.14206">
        <ele>68</ele>
        <time>2011-04-15T13:47:13Z</time>
      </trkpt>
      <trkpt lat="48.38539" lon="2.14208">
        <ele>68</ele>
        <time>2011-04-15T13:47:14Z</time>
      </trkpt>
      <trkpt lat="48.38539" lon="2.1421">
        <ele>68</ele>
        <time>2011-04-15T13:47:15Z</time>
      </trkpt>
      <trkpt lat="48.3854" lon="2.14212">
        <ele>68</ele>
        <time>2011-04-15T13:47:16Z</time>
      </trkpt>
      <trkpt lat="48.3854" lon="2.14214">
        <ele>68</ele>
        <time>2011-04-15T13:47:17Z</time>
      </trkpt>
      <trkpt lat="48.38541" lon="2.14216">
        <ele>68</ele>
        <time>2011-04-15T13:47:18Z</time>
      </trkpt>
      <trkpt lat="48.38541" lon="2.14218">
        <ele>68</ele>
        <time>2011-04-15T13:47:19Z</time>
      </trkpt>
      <trkpt lat="48.38542" lon="2.1422">
        <ele>68</ele>
        <time>2011-04-15T13:47:20Z</time>
      </trkpt>
      <trkpt lat="48.38542" lon="2.14222">
        <ele>68</ele>
        <time>2011-04-15T13:47:21Z</time>
      </trkpt>
      <trkpt lat="48.38543" lon="2.14224">
        <ele>68</ele>
        <time>2011-04-15T13:47:22Z</time>
      </trkpt>
      <trkpt lat="48.38543" lon="2.14226">
        <ele>68</ele>
        <time>2011-04-15T13:47:23Z</time>
      </trkpt>
      <trkpt lat="48.38544" lon="2.14228">
        <ele>68</ele>
        <time>2011-04-15T13:47:24Z</time>
      </trkpt>
      <trkpt lat="48.38544" lon="2.1423">
        <ele>67</ele>
        <time>2011-04-15T13:47:25Z</time>
      </trkpt>
      <trkpt lat="48.38544" lon="2.14232">
        <ele>67</ele>
        <time>2011-04-15T13:47:26Z</time>
      </trkpt>
      <trkpt lat="48.38545" lon="2.14234">
        <ele>67</ele>
        <time>2011-04-15T13:47:27Z</time>
      </trkpt>
      <trkpt lat="48.38547" lon="2.14235">
        <ele>67</ele>
        <time>2011-04-15T13:47:28Z</time>
      </trkpt>
      <trkpt lat="48.38548" lon="2.14237">
        <ele>67</ele>
        <time>2011-04-15T13:47:29Z</time>
      </trkpt>
      <trkpt lat="48.3855" lon="2.14238">
        <ele>67</ele>
        <time>2011-04-15T13:47:30Z</time>
      </trkpt>
      <trkpt lat="48.38553" lon="2.14239">
        <ele>67</ele>
        <time>2011-04-15T13:47:31Z</time>
      </trkpt>
      <trkpt lat="48.38553" lon="2.14241">
        <ele>67</ele>
        <time>2011-04-15T13:47:32Z</time>
      </trkpt>
      <trkpt lat="48.38554" lon="2.14243">
        <ele>67</ele>
        <time>2011-04-15T13:47:33Z</time>
      </trkpt>
      <trkpt lat="48.38555" lon="2.14246">
        <ele>67</ele>
        <time>2011-04-15T13:47:34Z</time>
      </trkpt>
      <trkpt lat="48.38557" lon="2.14248">
        <ele>67</ele>
        <time>2011-04-15T13:47:35Z</time>
      </trkpt>
      <trkpt lat="48.38557" lon="2.14251">
        <ele>67</ele>
        <time>2011-04-15T13:47:36Z</time>
      </trkpt>
      <trkpt lat="48.38558" lon="2.14254">
        <ele>67</ele>
        <time>2011-04-15T13:47:37Z</time>
      </trkpt>
      <trkpt lat="48.38559" lon="2.14256">
        <ele>67</ele>
        <time>2011-04-15T13:47:38Z</time>
      </trkpt>
      <trkpt lat="48.3856" lon="2.14259">
        <ele>67</ele>
        <time>2011-04-15T13:47:39Z</time>
      </trkpt>
      <trkpt lat="48.3856" lon="2.14261">
        <ele>67</ele>
        <time>2011-04-15T13:47:40Z</time>
      </trkpt>
      <trkpt lat="48.38561" lon="2.14263">
        <ele>67</ele>
        <time>2011-04-15T13:47:41Z</time>
      </trkpt>
      <trkpt lat="48.38562" lon="2.14265">
        <ele>67</ele>
        <time>2011-04-15T13:47:42Z</time>
      </trkpt>
      <trkpt lat="48.38563" lon="2.14267">
        <ele>67</ele>
        <time>2011-04-15T13:47:43Z</time>
      </trkpt>
      <trkpt lat="48.38564" lon="2.14269">
        <ele>67</ele>
        <time>2011-04-15T13:47:44Z</time>
      </trkpt>
      <trkpt lat="48.38564" lon="2.14271">
        <ele>67</ele>
        <time>2011-04-15T13:47:45Z</time>
      </trkpt>
      <trkpt lat="48.38565" lon="2.14273">
        <ele>67</ele>
        <time>2011-04-15T13:47:46Z</time>
      </trkpt>
      <trkpt lat="48.38566" lon="2.14275">
        <ele>67</ele>
        <time>2011-04-15T13:47:47Z</time>
      </trkpt>
      <trkpt lat="48.38566" lon="2.14276">
        <ele>67</ele>
        <time>2011-04-15T13:47:48Z</time>
      </trkpt>
      <trkpt lat="48.38567" lon="2.14278">
        <ele>67</ele>
        <time>2011-04-15T13:47:49Z</time>
      </trkpt>
      <trkpt lat="48.38568" lon="2.1428">
        <ele>67</ele>
        <time>2011-04-15T13:47:50Z</time>
      </trkpt>
      <trkpt lat="48.38568" lon="2.14282">
        <ele>67</ele>
        <time>2011-04-15T13:47:53Z</time>
      </trkpt>
      <trkpt lat="48.38567" lon="2.14282">
        <ele>67</ele>
        <time>2011-04-15T13:48:05Z</time>
      </trkpt>
      <trkpt lat="48.38568" lon="2.14282">
        <ele>67</ele>
        <time>2011-04-15T13:48:13Z</time>
      </trkpt>
      <trkpt lat="48.3857" lon="2.14282">
        <ele>67</ele>
        <time>2011-04-15T13:48:22Z</time>
      </trkpt>
      <trkpt lat="48.3857" lon="2.14285">
        <ele>67</ele>
        <time>2011-04-15T13:48:24Z</time>
      </trkpt>
      <trkpt lat="48.3857" lon="2.14287">
        <ele>67</ele>
        <time>2011-04-15T13:48:27Z</time>
      </trkpt>
      <trkpt lat="48.3857" lon="2.14288">
        <ele>67</ele>
        <time>2011-04-15T13:48:40Z</time>
      </trkpt>
      <trkpt lat="48.38571" lon="2.14291">
        <ele>67</ele>
        <time>2011-04-15T13:48:42Z</time>
      </trkpt>
      <trkpt lat="48.38569" lon="2.14291">
        <ele>67</ele>
        <time>2011-04-15T13:48:52Z</time>
      </trkpt>
      <trkpt lat="48.38568" lon="2.14292">
        <ele>66</ele>
        <time>2011-04-15T13:48:56Z</time>
      </trkpt>
      <trkpt lat="48.38567" lon="2.14293">
        <ele>65</ele>
        <time>2011-04-15T13:49:19Z</time>
      </trkpt>
      <trkpt lat="48.38567" lon="2.14295">
        <ele>65</ele>
        <time>2011-04-15T13:49:32Z</time>
      </trkpt>
      <trkpt lat="48.38568" lon="2.14298">
        <ele>65</ele>
        <time>2011-04-15T13:49:34Z</time>
      </trkpt>
      <trkpt lat="48.38569" lon="2.143">
        <ele>65</ele>
        <time>2011-04-15T13:49:36Z</time>
      </trkpt>
      <trkpt lat="48.3857" lon="2.14303">
        <ele>65</ele>
        <time>2011-04-15T13:49:38Z</time>
      </trkpt>
      <trkpt lat="48.38571" lon="2.14305">
        <ele>65</ele>
        <time>2011-04-15T13:49:39Z</time>
      </trkpt>
      <trkpt lat="48.38572" lon="2.14307">
        <ele>65</ele>
        <time>2011-04-15T13:49:40Z</time>
      </trkpt>
      <trkpt lat="48.38573" lon="2.1431">
        <ele>65</ele>
        <time>2011-04-15T13:49:41Z</time>
      </trkpt>
      <trkpt lat="48.38574" lon="2.14312">
        <ele>65</ele>
        <time>2011-04-15T13:49:42Z</time>
      </trkpt>
      <trkpt lat="48.38574" lon="2.14314">
        <ele>65</ele>
        <time>2011-04-15T13:49:43Z</time>
      </trkpt>
      <trkpt lat="48.38575" lon="2.14316">
        <ele>65</ele>
        <time>2011-04-15T13:49:44Z</time>
      </trkpt>
      <trkpt lat="48.38576" lon="2.14318">
        <ele>65</ele>
        <time>2011-04-15T13:49:45Z</time>
      </trkpt>
      <trkpt lat="48.38576" lon="2.1432">
        <ele>65</ele>
        <time>2011-04-15T13:49:46Z</time>
      </trkpt>
      <trkpt lat="48.38576" lon="2.14322">
        <ele>65</ele>
        <time>2011-04-15T13:49:47Z</time>
      </trkpt>
      <trkpt lat="48.38576" lon="2.14324">
        <ele>65</ele>
        <time>2011-04-15T13:49:48Z</time>
      </trkpt>
      <trkpt lat="48.38576" lon="2.14326">
        <ele>65</ele>
        <time>2011-04-15T13:49:49Z</time>
      </trkpt>
      <trkpt lat="48.38577" lon="2.14328">
        <ele>65</ele>
        <time>2011-04-15T13:49:50Z</time>
      </trkpt>
      <trkpt lat="48.38577" lon="2.1433">
        <ele>65</ele>
        <time>2011-04-15T13:49:51Z</time>
      </trkpt>
      <trkpt lat="48.38577" lon="2.14331">
        <ele>65</ele>
        <time>2011-04-15T13:49:52Z</time>
      </trkpt>
      <trkpt lat="48.38577" lon="2.14333">
        <ele>65</ele>
        <time>2011-04-15T13:49:53Z</time>
      </trkpt>
      <trkpt lat="48.38577" lon="2.14335">
        <ele>65</ele>
        <time>2011-04-15T13:49:54Z</time>
      </trkpt>
      <trkpt lat="48.38577" lon="2.14337">
        <ele>65</ele>
        <time>2011-04-15T13:49:55Z</time>
      </trkpt>
      <trkpt lat="48.38577" lon="2.14339">
        <ele>65</ele>
        <time>2011-04-15T13:49:56Z</time>
      </trkpt>
      <trkpt lat="48.38577" lon="2.14342">
        <ele>65</ele>
        <time>2011-04-15T13:49:57Z</time>
      </trkpt>
      <trkpt lat="48.38577" lon="2.14344">
        <ele>65</ele>
        <time>2011-04-15T13:49:58Z</time>
      </trkpt>
      <trkpt lat="48.38577" lon="2.14346">
        <ele>65</ele>
        <time>2011-04-15T13:49:59Z</time>
      </trkpt>
      <trkpt lat="48.38576" lon="2.14348">
        <ele>65</ele>
        <time>2011-04-15T13:50:00Z</time>
      </trkpt>
      <trkpt lat="48.38576" lon="2.1435">
        <ele>65</ele>
        <time>2011-04-15T13:50:01Z</time>
      </trkpt>
      <trkpt lat="48.38575" lon="2.14352">
        <ele>65</ele>
        <time>2011-04-15T13:50:02Z</time>
      </trkpt>
      <trkpt lat="48.38575" lon="2.14354">
        <ele>65</ele>
        <time>2011-04-15T13:50:03Z</time>
      </trkpt>
      <trkpt lat="48.38575" lon="2.14356">
        <ele>65</ele>
        <time>2011-04-15T13:50:04Z</time>
      </trkpt>
      <trkpt lat="48.38575" lon="2.14358">
        <ele>65</ele>
        <time>2011-04-15T13:50:05Z</time>
      </trkpt>
      <trkpt lat="48.38575" lon="2.1436">
        <ele>65</ele>
        <time>2011-04-15T13:50:07Z</time>
      </trkpt>
      <trkpt lat="48.38574" lon="2.14363">
        <ele>65</ele>
        <time>2011-04-15T13:50:22Z</time>
      </trkpt>
      <trkpt lat="48.38573" lon="2.14366">
        <ele>65</ele>
        <time>2011-04-15T13:50:24Z</time>
      </trkpt>
      <trkpt lat="48.38573" lon="2.14368">
        <ele>65</ele>
        <time>2011-04-15T13:50:25Z</time>
      </trkpt>
      <trkpt lat="48.38573" lon="2.1437">
        <ele>65</ele>
        <time>2011-04-15T13:50:26Z</time>
      </trkpt>
      <trkpt lat="48.38573" lon="2.14372">
        <ele>65</ele>
        <time>2011-04-15T13:50:27Z</time>
      </trkpt>
      <trkpt lat="48.38572" lon="2.14374">
        <ele>65</ele>
        <time>2011-04-15T13:50:29Z</time>
      </trkpt>
      <trkpt lat="48.38571" lon="2.14377">
        <ele>65</ele>
        <time>2011-04-15T13:50:31Z</time>
      </trkpt>
      <trkpt lat="48.3857" lon="2.1438">
        <ele>65</ele>
        <time>2011-04-15T13:50:33Z</time>
      </trkpt>
      <trkpt lat="48.38568" lon="2.14383">
        <ele>65</ele>
        <time>2011-04-15T13:50:35Z</time>
      </trkpt>
      <trkpt lat="48.38566" lon="2.14384">
        <ele>65</ele>
        <time>2011-04-15T13:50:36Z</time>
      </trkpt>
      <trkpt lat="48.38565" lon="2.14385">
        <ele>65</ele>
        <time>2011-04-15T13:50:37Z</time>
      </trkpt>
      <trkpt lat="48.38563" lon="2.14388">
        <ele>65</ele>
        <time>2011-04-15T13:50:39Z</time>
      </trkpt>
      <trkpt lat="48.38562" lon="2.1439">
        <ele>65</ele>
        <time>2011-04-15T13:50:40Z</time>
      </trkpt>
      <trkpt lat="48.3856" lon="2.14392">
        <ele>65</ele>
        <time>2011-04-15T13:50:42Z</time>
      </trkpt>
      <trkpt lat="48.38559" lon="2.14394">
        <ele>64</ele>
        <time>2011-04-15T13:50:43Z</time>
      </trkpt>
      <trkpt lat="48.38557" lon="2.14396">
        <ele>64</ele>
        <time>2011-04-15T13:50:45Z</time>
      </trkpt>
      <trkpt lat="48.38556" lon="2.14399">
        <ele>64</ele>
        <time>2011-04-15T13:50:47Z</time>
      </trkpt>
      <trkpt lat="48.38554" lon="2.14401">
        <ele>64</ele>
        <time>2011-04-15T13:50:49Z</time>
      </trkpt>
      <trkpt lat="48.38552" lon="2.14404">
        <ele>64</ele>
        <time>2011-04-15T13:50:51Z</time>
      </trkpt>
      <trkpt lat="48.3855" lon="2.14407">
        <ele>64</ele>
        <time>2011-04-15T13:50:53Z</time>
      </trkpt>
      <trkpt lat="48.38548" lon="2.1441">
        <ele>64</ele>
        <time>2011-04-15T13:50:55Z</time>
      </trkpt>
      <trkpt lat="48.38546" lon="2.14412">
        <ele>64</ele>
        <time>2011-04-15T13:50:57Z</time>
      </trkpt>
      <trkpt lat="48.38545" lon="2.14414">
        <ele>64</ele>
        <time>2011-04-15T13:50:58Z</time>
      </trkpt>
      <trkpt lat="48.38543" lon="2.14417">
        <ele>64</ele>
        <time>2011-04-15T13:51:00Z</time>
      </trkpt>
      <trkpt lat="48.38542" lon="2.1442">
        <ele>64</ele>
        <time>2011-04-15T13:51:02Z</time>
      </trkpt>
      <trkpt lat="48.3854" lon="2.14423">
        <ele>64</ele>
        <time>2011-04-15T13:51:04Z</time>
      </trkpt>
      <trkpt lat="48.38539" lon="2.14424">
        <ele>64</ele>
        <time>2011-04-15T13:51:05Z</time>
      </trkpt>
      <trkpt lat="48.38537" lon="2.14427">
        <ele>64</ele>
        <time>2011-04-15T13:51:07Z</time>
      </trkpt>
      <trkpt lat="48.38535" lon="2.1443">
        <ele>64</ele>
        <time>2011-04-15T13:51:09Z</time>
      </trkpt>
      <trkpt lat="48.38533" lon="2.14432">
        <ele>64</ele>
        <time>2011-04-15T13:51:10Z</time>
      </trkpt>
      <trkpt lat="48.38532" lon="2.14433">
        <ele>64</ele>
        <time>2011-04-15T13:51:11Z</time>
      </trkpt>
      <trkpt lat="48.38531" lon="2.14435">
        <ele>64</ele>
        <time>2011-04-15T13:51:12Z</time>
      </trkpt>
      <trkpt lat="48.38529" lon="2.14438">
        <ele>64</ele>
        <time>2011-04-15T13:51:14Z</time>
      </trkpt>
      <trkpt lat="48.38528" lon="2.1444">
        <ele>64</ele>
        <time>2011-04-15T13:51:15Z</time>
      </trkpt>
      <trkpt lat="48.38527" lon="2.14441">
        <ele>64</ele>
        <time>2011-04-15T13:51:16Z</time>
      </trkpt>
      <trkpt lat="48.38526" lon="2.14443">
        <ele>64</ele>
        <time>2011-04-15T13:51:17Z</time>
      </trkpt>
      <trkpt lat="48.38525" lon="2.14446">
        <ele>64</ele>
        <time>2011-04-15T13:51:19Z</time>
      </trkpt>
      <trkpt lat="48.38523" lon="2.14448">
        <ele>64</ele>
        <time>2011-04-15T13:51:20Z</time>
      </trkpt>
      <trkpt lat="48.38523" lon="2.14449">
        <ele>64</ele>
        <time>2011-04-15T13:51:21Z</time>
      </trkpt>
      <trkpt lat="48.38522" lon="2.14451">
        <ele>64</ele>
        <time>2011-04-15T13:51:22Z</time>
      </trkpt>
      <trkpt lat="48.38521" lon="2.14453">
        <ele>64</ele>
        <time>2011-04-15T13:51:23Z</time>
      </trkpt>
      <trkpt lat="48.3852" lon="2.14454">
        <ele>64</ele>
        <time>2011-04-15T13:51:24Z</time>
      </trkpt>
      <trkpt lat="48.3852" lon="2.14456">
        <ele>64</ele>
        <time>2011-04-15T13:51:25Z</time>
      </trkpt>
      <trkpt lat="48.38519" lon="2.14458">
        <ele>64</ele>
        <time>2011-04-15T13:51:26Z</time>
      </trkpt>
      <trkpt lat="48.38518" lon="2.14459">
        <ele>64</ele>
        <time>2011-04-15T13:51:27Z</time>
      </trkpt>
      <trkpt lat="48.38517" lon="2.14461">
        <ele>64</ele>
        <time>2011-04-15T13:51:28Z</time>
      </trkpt>
      <trkpt lat="48.38516" lon="2.14463">
        <ele>64</ele>
        <time>2011-04-15T13:51:29Z</time>
      </trkpt>
      <trkpt lat="48.38515" lon="2.14465">
        <ele>64</ele>
        <time>2011-04-15T13:51:30Z</time>
      </trkpt>
      <trkpt lat="48.38514" lon="2.14467">
        <ele>64</ele>
        <time>2011-04-15T13:51:31Z</time>
      </trkpt>
      <trkpt lat="48.38514" lon="2.14469">
        <ele>64</ele>
        <time>2011-04-15T13:51:32Z</time>
      </trkpt>
      <trkpt lat="48.38513" lon="2.14471">
        <ele>64</ele>
        <time>2011-04-15T13:51:33Z</time>
      </trkpt>
      <trkpt lat="48.38512" lon="2.14472">
        <ele>64</ele>
        <time>2011-04-15T13:51:34Z</time>
      </trkpt>
      <trkpt lat="48.38511" lon="2.14474">
        <ele>64</ele>
        <time>2011-04-15T13:51:35Z</time>
      </trkpt>
      <trkpt lat="48.38511" lon="2.14476">
        <ele>64</ele>
        <time>2011-04-15T13:51:36Z</time>
      </trkpt>
      <trkpt lat="48.3851" lon="2.14478">
        <ele>64</ele>
        <time>2011-04-15T13:51:37Z</time>
      </trkpt>
      <trkpt lat="48.38509" lon="2.1448">
        <ele>64</ele>
        <time>2011-04-15T13:51:38Z</time>
      </trkpt>
      <trkpt lat="48.38509" lon="2.14482">
        <ele>64</ele>
        <time>2011-04-15T13:51:39Z</time>
      </trkpt>
      <trkpt lat="48.38508" lon="2.14484">
        <ele>64</ele>
        <time>2011-04-15T13:51:40Z</time>
      </trkpt>
      <trkpt lat="48.38507" lon="2.14486">
        <ele>64</ele>
        <time>2011-04-15T13:51:41Z</time>
      </trkpt>
      <trkpt lat="48.38506" lon="2.14487">
        <ele>64</ele>
        <time>2011-04-15T13:51:42Z</time>
      </trkpt>
      <trkpt lat="48.38505" lon="2.14489">
        <ele>64</ele>
        <time>2011-04-15T13:51:43Z</time>
      </trkpt>
      <trkpt lat="48.38505" lon="2.14491">
        <ele>64</ele>
        <time>2011-04-15T13:51:44Z</time>
      </trkpt>
      <trkpt lat="48.38503" lon="2.14494">
        <ele>64</ele>
        <time>2011-04-15T13:51:46Z</time>
      </trkpt>
      <trkpt lat="48.38501" lon="2.14497">
        <ele>64</ele>
        <time>2011-04-15T13:51:48Z</time>
      </trkpt>
      <trkpt lat="48.38499" lon="2.14499">
        <ele>64</ele>
        <time>2011-04-15T13:51:50Z</time>
      </trkpt>
      <trkpt lat="48.38498" lon="2.14501">
        <ele>64</ele>
        <time>2011-04-15T13:51:51Z</time>
      </trkpt>
      <trkpt lat="48.38496" lon="2.14503">
        <ele>64</ele>
        <time>2011-04-15T13:51:52Z</time>
      </trkpt>
      <trkpt lat="48.38495" lon="2.14504">
        <ele>64</ele>
        <time>2011-04-15T13:51:53Z</time>
      </trkpt>
      <trkpt lat="48.38494" lon="2.14505">
        <ele>64</ele>
        <time>2011-04-15T13:51:54Z</time>
      </trkpt>
      <trkpt lat="48.38493" lon="2.14507">
        <ele>64</ele>
        <time>2011-04-15T13:51:55Z</time>
      </trkpt>
      <trkpt lat="48.38491" lon="2.14508">
        <ele>64</ele>
        <time>2011-04-15T13:51:56Z</time>
      </trkpt>
      <trkpt lat="48.3849" lon="2.14509">
        <ele>64</ele>
        <time>2011-04-15T13:51:57Z</time>
      </trkpt>
      <trkpt lat="48.38489" lon="2.1451">
        <ele>64</ele>
        <time>2011-04-15T13:51:58Z</time>
      </trkpt>
      <trkpt lat="48.38488" lon="2.14512">
        <ele>64</ele>
        <time>2011-04-15T13:51:59Z</time>
      </trkpt>
      <trkpt lat="48.38487" lon="2.14513">
        <ele>64</ele>
        <time>2011-04-15T13:52:00Z</time>
      </trkpt>
      <trkpt lat="48.38485" lon="2.14514">
        <ele>64</ele>
        <time>2011-04-15T13:52:01Z</time>
      </trkpt>
      <trkpt lat="48.38484" lon="2.14515">
        <ele>64</ele>
        <time>2011-04-15T13:52:02Z</time>
      </trkpt>
      <trkpt lat="48.38483" lon="2.14517">
        <ele>64</ele>
        <time>2011-04-15T13:52:03Z</time>
      </trkpt>
      <trkpt lat="48.38482" lon="2.14518">
        <ele>64</ele>
        <time>2011-04-15T13:52:04Z</time>
      </trkpt>
      <trkpt lat="48.38481" lon="2.14519">
        <ele>64</ele>
        <time>2011-04-15T13:52:05Z</time>
      </trkpt>
      <trkpt lat="48.38479" lon="2.1452">
        <ele>64</ele>
        <time>2011-04-15T13:52:06Z</time>
      </trkpt>
      <trkpt lat="48.38478" lon="2.14521">
        <ele>64</ele>
        <time>2011-04-15T13:52:07Z</time>
      </trkpt>
      <trkpt lat="48.38477" lon="2.14522">
        <ele>64</ele>
        <time>2011-04-15T13:52:08Z</time>
      </trkpt>
      <trkpt lat="48.38476" lon="2.14524">
        <ele>64</ele>
        <time>2011-04-15T13:52:09Z</time>
      </trkpt>
      <trkpt lat="48.38474" lon="2.14525">
        <ele>64</ele>
        <time>2011-04-15T13:52:10Z</time>
      </trkpt>
      <trkpt lat="48.38473" lon="2.14526">
        <ele>64</ele>
        <time>2011-04-15T13:52:11Z</time>
      </trkpt>
      <trkpt lat="48.38472" lon="2.14528">
        <ele>64</ele>
        <time>2011-04-15T13:52:12Z</time>
      </trkpt>
      <trkpt lat="48.38471" lon="2.14529">
        <ele>65</ele>
        <time>2011-04-15T13:52:13Z</time>
      </trkpt>
      <trkpt lat="48.3847" lon="2.1453">
        <ele>65</ele>
        <time>2011-04-15T13:52:14Z</time>
      </trkpt>
      <trkpt lat="48.38468" lon="2.14531">
        <ele>65</ele>
        <time>2011-04-15T13:52:15Z</time>
      </trkpt>
      <trkpt lat="48.38467" lon="2.14532">
        <ele>65</ele>
        <time>2011-04-15T13:52:16Z</time>
      </trkpt>
      <trkpt lat="48.38465" lon="2.14535">
        <ele>65</ele>
        <time>2011-04-15T13:52:18Z</time>
      </trkpt>
      <trkpt lat="48.38463" lon="2.14537">
        <ele>65</ele>
        <time>2011-04-15T13:52:20Z</time>
      </trkpt>
      <trkpt lat="48.38462" lon="2.14539">
        <ele>65</ele>
        <time>2011-04-15T13:52:21Z</time>
      </trkpt>
      <trkpt lat="48.38461" lon="2.1454">
        <ele>65</ele>
        <time>2011-04-15T13:52:22Z</time>
      </trkpt>
      <trkpt lat="48.38459" lon="2.14541">
        <ele>66</ele>
        <time>2011-04-15T13:52:23Z</time>
      </trkpt>
      <trkpt lat="48.38457" lon="2.14544">
        <ele>66</ele>
        <time>2011-04-15T13:52:25Z</time>
      </trkpt>
      <trkpt lat="48.38456" lon="2.14546">
        <ele>66</ele>
        <time>2011-04-15T13:52:26Z</time>
      </trkpt>
      <trkpt lat="48.38454" lon="2.14549">
        <ele>66</ele>
        <time>2011-04-15T13:52:28Z</time>
      </trkpt>
      <trkpt lat="48.38453" lon="2.14551">
        <ele>66</ele>
        <time>2011-04-15T13:52:29Z</time>
      </trkpt>
      <trkpt lat="48.38452" lon="2.14554">
        <ele>66</ele>
        <time>2011-04-15T13:52:31Z</time>
      </trkpt>
      <trkpt lat="48.38451" lon="2.14555">
        <ele>66</ele>
        <time>2011-04-15T13:52:32Z</time>
      </trkpt>
      <trkpt lat="48.38451" lon="2.14557">
        <ele>66</ele>
        <time>2011-04-15T13:52:33Z</time>
      </trkpt>
      <trkpt lat="48.38449" lon="2.1456">
        <ele>66</ele>
        <time>2011-04-15T13:52:35Z</time>
      </trkpt>
      <trkpt lat="48.38448" lon="2.14562">
        <ele>66</ele>
        <time>2011-04-15T13:52:36Z</time>
      </trkpt>
      <trkpt lat="48.38446" lon="2.14565">
        <ele>66</ele>
        <time>2011-04-15T13:52:38Z</time>
      </trkpt>
      <trkpt lat="48.38444" lon="2.14568">
        <ele>66</ele>
        <time>2011-04-15T13:52:40Z</time>
      </trkpt>
      <trkpt lat="48.38442" lon="2.1457">
        <ele>67</ele>
        <time>2011-04-15T13:52:42Z</time>
      </trkpt>
      <trkpt lat="48.38441" lon="2.14571">
        <ele>67</ele>
        <time>2011-04-15T13:52:43Z</time>
      </trkpt>
      <trkpt lat="48.38439" lon="2.14574">
        <ele>67</ele>
        <time>2011-04-15T13:52:45Z</time>
      </trkpt>
      <trkpt lat="48.38437" lon="2.14575">
        <ele>67</ele>
        <time>2011-04-15T13:52:46Z</time>
      </trkpt>
      <trkpt lat="48.38436" lon="2.14576">
        <ele>67</ele>
        <time>2011-04-15T13:52:47Z</time>
      </trkpt>
      <trkpt lat="48.38434" lon="2.14579">
        <ele>67</ele>
        <time>2011-04-15T13:52:49Z</time>
      </trkpt>
      <trkpt lat="48.38432" lon="2.14581">
        <ele>67</ele>
        <time>2011-04-15T13:52:51Z</time>
      </trkpt>
      <trkpt lat="48.3843" lon="2.14584">
        <ele>67</ele>
        <time>2011-04-15T13:52:53Z</time>
      </trkpt>
      <trkpt lat="48.38428" lon="2.14586">
        <ele>67</ele>
        <time>2011-04-15T13:52:54Z</time>
      </trkpt>
      <trkpt lat="48.38427" lon="2.14588">
        <ele>67</ele>
        <time>2011-04-15T13:52:55Z</time>
      </trkpt>
      <trkpt lat="48.38425" lon="2.1459">
        <ele>67</ele>
        <time>2011-04-15T13:52:56Z</time>
      </trkpt>
      <trkpt lat="48.38423" lon="2.14592">
        <ele>67</ele>
        <time>2011-04-15T13:52:57Z</time>
      </trkpt>
      <trkpt lat="48.38421" lon="2.14594">
        <ele>67</ele>
        <time>2011-04-15T13:52:58Z</time>
      </trkpt>
      <trkpt lat="48.38419" lon="2.14596">
        <ele>67</ele>
        <time>2011-04-15T13:52:59Z</time>
      </trkpt>
      <trkpt lat="48.38417" lon="2.14597">
        <ele>67</ele>
        <time>2011-04-15T13:53:00Z</time>
      </trkpt>
      <trkpt lat="48.38415" lon="2.14599">
        <ele>67</ele>
        <time>2011-04-15T13:53:01Z</time>
      </trkpt>
      <trkpt lat="48.38413" lon="2.146">
        <ele>67</ele>
        <time>2011-04-15T13:53:02Z</time>
      </trkpt>
      <trkpt lat="48.38412" lon="2.14602">
        <ele>67</ele>
        <time>2011-04-15T13:53:03Z</time>
      </trkpt>
      <trkpt lat="48.3841" lon="2.14604">
        <ele>67</ele>
        <time>2011-04-15T13:53:04Z</time>
      </trkpt>
      <trkpt lat="48.38409" lon="2.14606">
        <ele>67</ele>
        <time>2011-04-15T13:53:05Z</time>
      </trkpt>
      <trkpt lat="48.38407" lon="2.14608">
        <ele>67</ele>
        <time>2011-04-15T13:53:06Z</time>
      </trkpt>
      <trkpt lat="48.38405" lon="2.1461">
        <ele>67</ele>
        <time>2011-04-15T13:53:08Z</time>
      </trkpt>
      <trkpt lat="48.38404" lon="2.14611">
        <ele>67</ele>
        <time>2011-04-15T13:53:09Z</time>
      </trkpt>
      <trkpt lat="48.38403" lon="2.14612">
        <ele>67</ele>
        <time>2011-04-15T13:53:10Z</time>
      </trkpt>
      <trkpt lat="48.38401" lon="2.14613">
        <ele>67</ele>
        <time>2011-04-15T13:53:11Z</time>
      </trkpt>
      <trkpt lat="48.384" lon="2.14615">
        <ele>67</ele>
        <time>2011-04-15T13:53:12Z</time>
      </trkpt>
      <trkpt lat="48.38398" lon="2.14617">
        <ele>67</ele>
        <time>2011-04-15T13:53:14Z</time>
      </trkpt>
      <trkpt lat="48.38396" lon="2.1462">
        <ele>67</ele>
        <time>2011-04-15T13:53:16Z</time>
      </trkpt>
      <trkpt lat="48.38395" lon="2.14621">
        <ele>67</ele>
        <time>2011-04-15T13:53:17Z</time>
      </trkpt>
      <trkpt lat="48.38394" lon="2.14623">
        <ele>67</ele>
        <time>2011-04-15T13:53:18Z</time>
      </trkpt>
      <trkpt lat="48.38393" lon="2.14624">
        <ele>67</ele>
        <time>2011-04-15T13:53:19Z</time>
      </trkpt>
      <trkpt lat="48.38391" lon="2.14626">
        <ele>67</ele>
        <time>2011-04-15T13:53:21Z</time>
      </trkpt>
      <trkpt lat="48.38389" lon="2.14627">
        <ele>67</ele>
        <time>2011-04-15T13:53:22Z</time>
      </trkpt>
      <trkpt lat="48.38388" lon="2.14628">
        <ele>67</ele>
        <time>2011-04-15T13:53:23Z</time>
      </trkpt>
      <trkpt lat="48.38387" lon="2.14629">
        <ele>67</ele>
        <time>2011-04-15T13:53:24Z</time>
      </trkpt>
      <trkpt lat="48.38386" lon="2.1463">
        <ele>67</ele>
        <time>2011-04-15T13:53:25Z</time>
      </trkpt>
      <trkpt lat="48.38384" lon="2.14631">
        <ele>67</ele>
        <time>2011-04-15T13:53:26Z</time>
      </trkpt>
      <trkpt lat="48.38382" lon="2.14634">
        <ele>67</ele>
        <time>2011-04-15T13:53:28Z</time>
      </trkpt>
      <trkpt lat="48.38381" lon="2.14635">
        <ele>67</ele>
        <time>2011-04-15T13:53:29Z</time>
      </trkpt>
      <trkpt lat="48.38379" lon="2.14638">
        <ele>67</ele>
        <time>2011-04-15T13:53:31Z</time>
      </trkpt>
      <trkpt lat="48.38378" lon="2.1464">
        <ele>67</ele>
        <time>2011-04-15T13:53:32Z</time>
      </trkpt>
      <trkpt lat="48.38377" lon="2.14642">
        <ele>67</ele>
        <time>2011-04-15T13:53:33Z</time>
      </trkpt>
      <trkpt lat="48.38375" lon="2.14645">
        <ele>67</ele>
        <time>2011-04-15T13:53:35Z</time>
      </trkpt>
      <trkpt lat="48.38374" lon="2.14647">
        <ele>67</ele>
        <time>2011-04-15T13:53:36Z</time>
      </trkpt>
      <trkpt lat="48.38373" lon="2.14649">
        <ele>67</ele>
        <time>2011-04-15T13:53:37Z</time>
      </trkpt>
      <trkpt lat="48.38371" lon="2.14652">
        <ele>67</ele>
        <time>2011-04-15T13:53:39Z</time>
      </trkpt>
      <trkpt lat="48.38369" lon="2.14656">
        <ele>67</ele>
        <time>2011-04-15T13:53:41Z</time>
      </trkpt>
      <trkpt lat="48.38369" lon="2.14658">
        <ele>67</ele>
        <time>2011-04-15T13:53:42Z</time>
      </trkpt>
      <trkpt lat="48.38368" lon="2.1466">
        <ele>67</ele>
        <time>2011-04-15T13:53:43Z</time>
      </trkpt>
      <trkpt lat="48.38367" lon="2.14662">
        <ele>67</ele>
        <time>2011-04-15T13:53:44Z</time>
      </trkpt>
      <trkpt lat="48.38366" lon="2.14664">
        <ele>67</ele>
        <time>2011-04-15T13:53:45Z</time>
      </trkpt>
      <trkpt lat="48.38365" lon="2.14666">
        <ele>67</ele>
        <time>2011-04-15T13:53:46Z</time>
      </trkpt>
      <trkpt lat="48.38365" lon="2.14668">
        <ele>67</ele>
        <time>2011-04-15T13:53:47Z</time>
      </trkpt>
      <trkpt lat="48.38364" lon="2.14669">
        <ele>67</ele>
        <time>2011-04-15T13:53:48Z</time>
      </trkpt>
      <trkpt lat="48.38363" lon="2.14671">
        <ele>67</ele>
        <time>2011-04-15T13:53:49Z</time>
      </trkpt>
      <trkpt lat="48.38363" lon="2.14673">
        <ele>67</ele>
        <time>2011-04-15T13:53:50Z</time>
      </trkpt>
      <trkpt lat="48.38362" lon="2.14675">
        <ele>67</ele>
        <time>2011-04-15T13:53:51Z</time>
      </trkpt>
      <trkpt lat="48.38361" lon="2.14678">
        <ele>67</ele>
        <time>2011-04-15T13:53:52Z</time>
      </trkpt>
      <trkpt lat="48.38361" lon="2.1468">
        <ele>67</ele>
        <time>2011-04-15T13:53:53Z</time>
      </trkpt>
      <trkpt lat="48.3836" lon="2.14682">
        <ele>67</ele>
        <time>2011-04-15T13:53:54Z</time>
      </trkpt>
      <trkpt lat="48.38359" lon="2.14684">
        <ele>67</ele>
        <time>2011-04-15T13:53:55Z</time>
      </trkpt>
      <trkpt lat="48.38359" lon="2.14686">
        <ele>67</ele>
        <time>2011-04-15T13:53:56Z</time>
      </trkpt>
      <trkpt lat="48.38359" lon="2.14688">
        <ele>67</ele>
        <time>2011-04-15T13:53:57Z</time>
      </trkpt>
      <trkpt lat="48.38359" lon="2.1469">
        <ele>67</ele>
        <time>2011-04-15T13:53:58Z</time>
      </trkpt>
      <trkpt lat="48.38359" lon="2.14693">
        <ele>67</ele>
        <time>2011-04-15T13:53:59Z</time>
      </trkpt>
      <trkpt lat="48.38359" lon="2.14695">
        <ele>67</ele>
        <time>2011-04-15T13:54:00Z</time>
      </trkpt>
      <trkpt lat="48.38359" lon="2.14697">
        <ele>67</ele>
        <time>2011-04-15T13:54:01Z</time>
      </trkpt>
      <trkpt lat="48.38359" lon="2.14699">
        <ele>67</ele>
        <time>2011-04-15T13:54:02Z</time>
      </trkpt>
      <trkpt lat="48.3836" lon="2.14701">
        <ele>67</ele>
        <time>2011-04-15T13:54:03Z</time>
      </trkpt>
      <trkpt lat="48.3836" lon="2.14703">
        <ele>67</ele>
        <time>2011-04-15T13:54:04Z</time>
      </trkpt>
      <trkpt lat="48.3836" lon="2.14706">
        <ele>67</ele>
        <time>2011-04-15T13:54:05Z</time>
      </trkpt>
      <trkpt lat="48.38361" lon="2.14708">
        <ele>67</ele>
        <time>2011-04-15T13:54:06Z</time>
      </trkpt>
      <trkpt lat="48.38361" lon="2.1471">
        <ele>67</ele>
        <time>2011-04-15T13:54:07Z</time>
      </trkpt>
      <trkpt lat="48.38362" lon="2.14712">
        <ele>67</ele>
        <time>2011-04-15T13:54:08Z</time>
      </trkpt>
      <trkpt lat="48.38363" lon="2.14713">
        <ele>67</ele>
        <time>2011-04-15T13:54:09Z</time>
      </trkpt>
      <trkpt lat="48.38363" lon="2.14715">
        <ele>67</ele>
        <time>2011-04-15T13:54:10Z</time>
      </trkpt>
      <trkpt lat="48.38364" lon="2.14717">
        <ele>67</ele>
        <time>2011-04-15T13:54:11Z</time>
      </trkpt>
      <trkpt lat="48.38365" lon="2.14719">
        <ele>67</ele>
        <time>2011-04-15T13:54:12Z</time>
      </trkpt>
      <trkpt lat="48.38366" lon="2.14722">
        <ele>67</ele>
        <time>2011-04-15T13:54:13Z</time>
      </trkpt>
      <trkpt lat="48.38367" lon="2.14725">
        <ele>67</ele>
        <time>2011-04-15T13:54:14Z</time>
      </trkpt>
      <trkpt lat="48.38369" lon="2.14728">
        <ele>67</ele>
        <time>2011-04-15T13:54:15Z</time>
      </trkpt>
      <trkpt lat="48.38371" lon="2.14731">
        <ele>67</ele>
        <time>2011-04-15T13:54:16Z</time>
      </trkpt>
      <trkpt lat="48.38373" lon="2.14734">
        <ele>67</ele>
        <time>2011-04-15T13:54:17Z</time>
      </trkpt>
      <trkpt lat="48.38374" lon="2.14736">
        <ele>67</ele>
        <time>2011-04-15T13:54:18Z</time>
      </trkpt>
      <trkpt lat="48.38376" lon="2.14739">
        <ele>67</ele>
        <time>2011-04-15T13:54:19Z</time>
      </trkpt>
      <trkpt lat="48.38377" lon="2.14741">
        <ele>67</ele>
        <time>2011-04-15T13:54:20Z</time>
      </trkpt>
      <trkpt lat="48.38379" lon="2.14744">
        <ele>67</ele>
        <time>2011-04-15T13:54:21Z</time>
      </trkpt>
      <trkpt lat="48.3838" lon="2.14745">
        <ele>67</ele>
        <time>2011-04-15T13:54:22Z</time>
      </trkpt>
      <trkpt lat="48.38382" lon="2.14746">
        <ele>67</ele>
        <time>2011-04-15T13:54:23Z</time>
      </trkpt>
      <trkpt lat="48.38383" lon="2.14748">
        <ele>67</ele>
        <time>2011-04-15T13:54:24Z</time>
      </trkpt>
      <trkpt lat="48.38385" lon="2.1475">
        <ele>68</ele>
        <time>2011-04-15T13:54:26Z</time>
      </trkpt>
      <trkpt lat="48.38387" lon="2.14753">
        <ele>69</ele>
        <time>2011-04-15T13:54:28Z</time>
      </trkpt>
      <trkpt lat="48.38389" lon="2.14754">
        <ele>70</ele>
        <time>2011-04-15T13:54:29Z</time>
      </trkpt>
      <trkpt lat="48.3839" lon="2.14755">
        <ele>71</ele>
        <time>2011-04-15T13:54:30Z</time>
      </trkpt>
      <trkpt lat="48.38391" lon="2.14756">
        <ele>71</ele>
        <time>2011-04-15T13:54:31Z</time>
      </trkpt>
      <trkpt lat="48.38393" lon="2.14757">
        <ele>72</ele>
        <time>2011-04-15T13:54:32Z</time>
      </trkpt>
      <trkpt lat="48.38395" lon="2.14758">
        <ele>72</ele>
        <time>2011-04-15T13:54:33Z</time>
      </trkpt>
      <trkpt lat="48.38398" lon="2.14759">
        <ele>73</ele>
        <time>2011-04-15T13:54:34Z</time>
      </trkpt>
      <trkpt lat="48.38399" lon="2.1476">
        <ele>73</ele>
        <time>2011-04-15T13:54:35Z</time>
      </trkpt>
      <trkpt lat="48.384" lon="2.14761">
        <ele>73</ele>
        <time>2011-04-15T13:54:36Z</time>
      </trkpt>
      <trkpt lat="48.38402" lon="2.14764">
        <ele>74</ele>
        <time>2011-04-15T13:54:38Z</time>
      </trkpt>
      <trkpt lat="48.38404" lon="2.14767">
        <ele>74</ele>
        <time>2011-04-15T13:54:40Z</time>
      </trkpt>
      <trkpt lat="48.38405" lon="2.14768">
        <ele>74</ele>
        <time>2011-04-15T13:54:41Z</time>
      </trkpt>
      <trkpt lat="48.38407" lon="2.14769">
        <ele>74</ele>
        <time>2011-04-15T13:54:42Z</time>
      </trkpt>
      <trkpt lat="48.38408" lon="2.1477">
        <ele>74</ele>
        <time>2011-04-15T13:54:43Z</time>
      </trkpt>
      <trkpt lat="48.38409" lon="2.14771">
        <ele>74</ele>
        <time>2011-04-15T13:54:44Z</time>
      </trkpt>
      <trkpt lat="48.3841" lon="2.14773">
        <ele>74</ele>
        <time>2011-04-15T13:54:45Z</time>
      </trkpt>
      <trkpt lat="48.38412" lon="2.14774">
        <ele>74</ele>
        <time>2011-04-15T13:54:46Z</time>
      </trkpt>
      <trkpt lat="48.38413" lon="2.14775">
        <ele>74</ele>
        <time>2011-04-15T13:54:47Z</time>
      </trkpt>
      <trkpt lat="48.38414" lon="2.14777">
        <ele>74</ele>
        <time>2011-04-15T13:54:48Z</time>
      </trkpt>
      <trkpt lat="48.38415" lon="2.14778">
        <ele>74</ele>
        <time>2011-04-15T13:54:49Z</time>
      </trkpt>
      <trkpt lat="48.38417" lon="2.1478">
        <ele>74</ele>
        <time>2011-04-15T13:54:50Z</time>
      </trkpt>
      <trkpt lat="48.38419" lon="2.14783">
        <ele>74</ele>
        <time>2011-04-15T13:54:52Z</time>
      </trkpt>
      <trkpt lat="48.38421" lon="2.14785">
        <ele>74</ele>
        <time>2011-04-15T13:54:54Z</time>
      </trkpt>
      <trkpt lat="48.38422" lon="2.14787">
        <ele>74</ele>
        <time>2011-04-15T13:54:55Z</time>
      </trkpt>
      <trkpt lat="48.38424" lon="2.14788">
        <ele>74</ele>
        <time>2011-04-15T13:54:56Z</time>
      </trkpt>
      <trkpt lat="48.38425" lon="2.14789">
        <ele>74</ele>
        <time>2011-04-15T13:54:57Z</time>
      </trkpt>
      <trkpt lat="48.38427" lon="2.14791">
        <ele>74</ele>
        <time>2011-04-15T13:54:59Z</time>
      </trkpt>
      <trkpt lat="48.38428" lon="2.14793">
        <ele>74</ele>
        <time>2011-04-15T13:55:00Z</time>
      </trkpt>
      <trkpt lat="48.3843" lon="2.14795">
        <ele>75</ele>
        <time>2011-04-15T13:55:01Z</time>
      </trkpt>
      <trkpt lat="48.38431" lon="2.14797">
        <ele>75</ele>
        <time>2011-04-15T13:55:02Z</time>
      </trkpt>
      <trkpt lat="48.38432" lon="2.14798">
        <ele>75</ele>
        <time>2011-04-15T13:55:03Z</time>
      </trkpt>
      <trkpt lat="48.38433" lon="2.148">
        <ele>75</ele>
        <time>2011-04-15T13:55:04Z</time>
      </trkpt>
      <trkpt lat="48.38434" lon="2.14801">
        <ele>75</ele>
        <time>2011-04-15T13:55:05Z</time>
      </trkpt>
      <trkpt lat="48.38436" lon="2.14804">
        <ele>76</ele>
        <time>2011-04-15T13:55:07Z</time>
      </trkpt>
      <trkpt lat="48.38438" lon="2.14807">
        <ele>77</ele>
        <time>2011-04-15T13:55:09Z</time>
      </trkpt>
      <trkpt lat="48.38439" lon="2.14809">
        <ele>78</ele>
        <time>2011-04-15T13:55:10Z</time>
      </trkpt>
      <trkpt lat="48.3844" lon="2.14811">
        <ele>78</ele>
        <time>2011-04-15T13:55:11Z</time>
      </trkpt>
      <trkpt lat="48.38442" lon="2.14813">
        <ele>78</ele>
        <time>2011-04-15T13:55:12Z</time>
      </trkpt>
      <trkpt lat="48.38443" lon="2.14815">
        <ele>78</ele>
        <time>2011-04-15T13:55:13Z</time>
      </trkpt>
      <trkpt lat="48.38444" lon="2.14816">
        <ele>79</ele>
        <time>2011-04-15T13:55:14Z</time>
      </trkpt>
      <trkpt lat="48.38444" lon="2.14818">
        <ele>79</ele>
        <time>2011-04-15T13:55:15Z</time>
      </trkpt>
      <trkpt lat="48.38445" lon="2.1482">
        <ele>79</ele>
        <time>2011-04-15T13:55:16Z</time>
      </trkpt>
      <trkpt lat="48.38447" lon="2.14822">
        <ele>79</ele>
        <time>2011-04-15T13:55:17Z</time>
      </trkpt>
      <trkpt lat="48.38448" lon="2.14824">
        <ele>79</ele>
        <time>2011-04-15T13:55:18Z</time>
      </trkpt>
      <trkpt lat="48.38449" lon="2.14826">
        <ele>79</ele>
        <time>2011-04-15T13:55:19Z</time>
      </trkpt>
      <trkpt lat="48.3845" lon="2.14828">
        <ele>79</ele>
        <time>2011-04-15T13:55:20Z</time>
      </trkpt>
      <trkpt lat="48.38451" lon="2.14829">
        <ele>79</ele>
        <time>2011-04-15T13:55:21Z</time>
      </trkpt>
      <trkpt lat="48.38453" lon="2.14831">
        <ele>79</ele>
        <time>2011-04-15T13:55:22Z</time>
      </trkpt>
      <trkpt lat="48.38454" lon="2.14833">
        <ele>79</ele>
        <time>2011-04-15T13:55:23Z</time>
      </trkpt>
      <trkpt lat="48.38456" lon="2.14835">
        <ele>79</ele>
        <time>2011-04-15T13:55:24Z</time>
      </trkpt>
      <trkpt lat="48.38457" lon="2.14837">
        <ele>79</ele>
        <time>2011-04-15T13:55:25Z</time>
      </trkpt>
      <trkpt lat="48.38458" lon="2.14839">
        <ele>79</ele>
        <time>2011-04-15T13:55:26Z</time>
      </trkpt>
      <trkpt lat="48.38459" lon="2.1484">
        <ele>79</ele>
        <time>2011-04-15T13:55:27Z</time>
      </trkpt>
      <trkpt lat="48.3846" lon="2.14842">
        <ele>79</ele>
        <time>2011-04-15T13:55:28Z</time>
      </trkpt>
      <trkpt lat="48.38461" lon="2.14844">
        <ele>79</ele>
        <time>2011-04-15T13:55:29Z</time>
      </trkpt>
      <trkpt lat="48.38462" lon="2.14846">
        <ele>79</ele>
        <time>2011-04-15T13:55:30Z</time>
      </trkpt>
      <trkpt lat="48.38463" lon="2.14847">
        <ele>79</ele>
        <time>2011-04-15T13:55:31Z</time>
      </trkpt>
      <trkpt lat="48.38464" lon="2.14849">
        <ele>79</ele>
        <time>2011-04-15T13:55:32Z</time>
      </trkpt>
      <trkpt lat="48.38465" lon="2.14851">
        <ele>79</ele>
        <time>2011-04-15T13:55:33Z</time>
      </trkpt>
      <trkpt lat="48.38466" lon="2.14853">
        <ele>79</ele>
        <time>2011-04-15T13:55:34Z</time>
      </trkpt>
      <trkpt lat="48.38467" lon="2.14855">
        <ele>79</ele>
        <time>2011-04-15T13:55:35Z</time>
      </trkpt>
      <trkpt lat="48.38468" lon="2.14857">
        <ele>79</ele>
        <time>2011-04-15T13:55:36Z</time>
      </trkpt>
      <trkpt lat="48.38469" lon="2.14859">
        <ele>79</ele>
        <time>2011-04-15T13:55:37Z</time>
      </trkpt>
      <trkpt lat="48.3847" lon="2.14861">
        <ele>79</ele>
        <time>2011-04-15T13:55:38Z</time>
      </trkpt>
      <trkpt lat="48.3847" lon="2.14864">
        <ele>79</ele>
        <time>2011-04-15T13:55:39Z</time>
      </trkpt>
      <trkpt lat="48.38471" lon="2.14866">
        <ele>79</ele>
        <time>2011-04-15T13:55:40Z</time>
      </trkpt>
      <trkpt lat="48.38472" lon="2.14868">
        <ele>79</ele>
        <time>2011-04-15T13:55:41Z</time>
      </trkpt>
      <trkpt lat="48.38472" lon="2.1487">
        <ele>79</ele>
        <time>2011-04-15T13:55:42Z</time>
      </trkpt>
      <trkpt lat="48.38472" lon="2.14871">
        <ele>79</ele>
        <time>2011-04-15T13:55:43Z</time>
      </trkpt>
      <trkpt lat="48.38472" lon="2.14873">
        <ele>79</ele>
        <time>2011-04-15T13:55:44Z</time>
      </trkpt>
      <trkpt lat="48.38473" lon="2.14875">
        <ele>79</ele>
        <time>2011-04-15T13:55:45Z</time>
      </trkpt>
      <trkpt lat="48.38473" lon="2.14877">
        <ele>79</ele>
        <time>2011-04-15T13:55:46Z</time>
      </trkpt>
      <trkpt lat="48.38473" lon="2.14879">
        <ele>79</ele>
        <time>2011-04-15T13:55:47Z</time>
      </trkpt>
      <trkpt lat="48.38474" lon="2.14881">
        <ele>79</ele>
        <time>2011-04-15T13:55:48Z</time>
      </trkpt>
      <trkpt lat="48.38474" lon="2.14883">
        <ele>79</ele>
        <time>2011-04-15T13:55:49Z</time>
      </trkpt>
      <trkpt lat="48.38474" lon="2.14885">
        <ele>79</ele>
        <time>2011-04-15T13:55:50Z</time>
      </trkpt>
      <trkpt lat="48.38475" lon="2.14887">
        <ele>79</ele>
        <time>2011-04-15T13:55:51Z</time>
      </trkpt>
      <trkpt lat="48.38475" lon="2.14889">
        <ele>79</ele>
        <time>2011-04-15T13:55:52Z</time>
      </trkpt>
      <trkpt lat="48.38475" lon="2.14891">
        <ele>79</ele>
        <time>2011-04-15T13:55:53Z</time>
      </trkpt>
      <trkpt lat="48.38475" lon="2.14893">
        <ele>79</ele>
        <time>2011-04-15T13:55:54Z</time>
      </trkpt>
      <trkpt lat="48.38476" lon="2.14895">
        <ele>79</ele>
        <time>2011-04-15T13:55:55Z</time>
      </trkpt>
      <trkpt lat="48.38476" lon="2.14897">
        <ele>79</ele>
        <time>2011-04-15T13:55:56Z</time>
      </trkpt>
      <trkpt lat="48.38476" lon="2.14899">
        <ele>79</ele>
        <time>2011-04-15T13:55:57Z</time>
      </trkpt>
      <trkpt lat="48.38476" lon="2.14901">
        <ele>79</ele>
        <time>2011-04-15T13:55:58Z</time>
      </trkpt>
      <trkpt lat="48.38476" lon="2.14903">
        <ele>79</ele>
        <time>2011-04-15T13:55:59Z</time>
      </trkpt>
      <trkpt lat="48.38476" lon="2.14905">
        <ele>79</ele>
        <time>2011-04-15T13:56:00Z</time>
      </trkpt>
      <trkpt lat="48.38476" lon="2.14907">
        <ele>79</ele>
        <time>2011-04-15T13:56:01Z</time>
      </trkpt>
      <trkpt lat="48.38476" lon="2.1491">
        <ele>79</ele>
        <time>2011-04-15T13:56:02Z</time>
      </trkpt>
      <trkpt lat="48.38477" lon="2.14912">
        <ele>79</ele>
        <time>2011-04-15T13:56:03Z</time>
      </trkpt>
      <trkpt lat="48.38477" lon="2.14914">
        <ele>79</ele>
        <time>2011-04-15T13:56:04Z</time>
      </trkpt>
      <trkpt lat="48.38477" lon="2.14916">
        <ele>79</ele>
        <time>2011-04-15T13:56:05Z</time>
      </trkpt>
      <trkpt lat="48.38477" lon="2.14918">
        <ele>79</ele>
        <time>2011-04-15T13:56:06Z</time>
      </trkpt>
      <trkpt lat="48.38477" lon="2.1492">
        <ele>79</ele>
        <time>2011-04-15T13:56:07Z</time>
      </trkpt>
      <trkpt lat="48.38478" lon="2.14922">
        <ele>79</ele>
        <time>2011-04-15T13:56:08Z</time>
      </trkpt>
      <trkpt lat="48.38478" lon="2.14924">
        <ele>79</ele>
        <time>2011-04-15T13:56:09Z</time>
      </trkpt>
      <trkpt lat="48.38478" lon="2.14926">
        <ele>79</ele>
        <time>2011-04-15T13:56:10Z</time>
      </trkpt>
      <trkpt lat="48.38479" lon="2.14928">
        <ele>79</ele>
        <time>2011-04-15T13:56:11Z</time>
      </trkpt>
      <trkpt lat="48.3848" lon="2.1493">
        <ele>79</ele>
        <time>2011-04-15T13:56:12Z</time>
      </trkpt>
      <trkpt lat="48.3848" lon="2.14932">
        <ele>79</ele>
        <time>2011-04-15T13:56:13Z</time>
      </trkpt>
      <trkpt lat="48.3848" lon="2.14934">
        <ele>79</ele>
        <time>2011-04-15T13:56:14Z</time>
      </trkpt>
      <trkpt lat="48.38481" lon="2.14937">
        <ele>79</ele>
        <time>2011-04-15T13:56:15Z</time>
      </trkpt>
      <trkpt lat="48.38481" lon="2.14939">
        <ele>79</ele>
        <time>2011-04-15T13:56:16Z</time>
      </trkpt>
      <trkpt lat="48.38482" lon="2.14941">
        <ele>79</ele>
        <time>2011-04-15T13:56:17Z</time>
      </trkpt>
      <trkpt lat="48.38482" lon="2.14943">
        <ele>79</ele>
        <time>2011-04-15T13:56:18Z</time>
      </trkpt>
      <trkpt lat="48.38483" lon="2.14945">
        <ele>79</ele>
        <time>2011-04-15T13:56:19Z</time>
      </trkpt>
      <trkpt lat="48.38484" lon="2.14947">
        <ele>79</ele>
        <time>2011-04-15T13:56:20Z</time>
      </trkpt>
      <trkpt lat="48.38484" lon="2.14949">
        <ele>79</ele>
        <time>2011-04-15T13:56:21Z</time>
      </trkpt>
      <trkpt lat="48.38485" lon="2.14952">
        <ele>79</ele>
        <time>2011-04-15T13:56:22Z</time>
      </trkpt>
      <trkpt lat="48.38486" lon="2.14954">
        <ele>79</ele>
        <time>2011-04-15T13:56:23Z</time>
      </trkpt>
      <trkpt lat="48.38486" lon="2.14956">
        <ele>79</ele>
        <time>2011-04-15T13:56:24Z</time>
      </trkpt>
      <trkpt lat="48.38487" lon="2.14959">
        <ele>80</ele>
        <time>2011-04-15T13:56:25Z</time>
      </trkpt>
      <trkpt lat="48.38488" lon="2.14961">
        <ele>80</ele>
        <time>2011-04-15T13:56:26Z</time>
      </trkpt>
      <trkpt lat="48.38489" lon="2.14963">
        <ele>80</ele>
        <time>2011-04-15T13:56:27Z</time>
      </trkpt>
      <trkpt lat="48.38489" lon="2.14965">
        <ele>80</ele>
        <time>2011-04-15T13:56:28Z</time>
      </trkpt>
      <trkpt lat="48.3849" lon="2.14967">
        <ele>80</ele>
        <time>2011-04-15T13:56:29Z</time>
      </trkpt>
      <trkpt lat="48.3849" lon="2.14969">
        <ele>81</ele>
        <time>2011-04-15T13:56:30Z</time>
      </trkpt>
      <trkpt lat="48.3849" lon="2.14971">
        <ele>81</ele>
        <time>2011-04-15T13:56:31Z</time>
      </trkpt>
      <trkpt lat="48.38491" lon="2.14973">
        <ele>81</ele>
        <time>2011-04-15T13:56:32Z</time>
      </trkpt>
      <trkpt lat="48.38491" lon="2.14975">
        <ele>81</ele>
        <time>2011-04-15T13:56:33Z</time>
      </trkpt>
      <trkpt lat="48.38492" lon="2.14977">
        <ele>81</ele>
        <time>2011-04-15T13:56:34Z</time>
      </trkpt>
      <trkpt lat="48.38492" lon="2.14979">
        <ele>81</ele>
        <time>2011-04-15T13:56:35Z</time>
      </trkpt>
      <trkpt lat="48.38493" lon="2.14981">
        <ele>81</ele>
        <time>2011-04-15T13:56:36Z</time>
      </trkpt>
      <trkpt lat="48.38493" lon="2.14983">
        <ele>81</ele>
        <time>2011-04-15T13:56:37Z</time>
      </trkpt>
      <trkpt lat="48.38494" lon="2.14985">
        <ele>81</ele>
        <time>2011-04-15T13:56:38Z</time>
      </trkpt>
      <trkpt lat="48.38495" lon="2.14987">
        <ele>81</ele>
        <time>2011-04-15T13:56:39Z</time>
      </trkpt>
      <trkpt lat="48.38495" lon="2.1499">
        <ele>81</ele>
        <time>2011-04-15T13:56:40Z</time>
      </trkpt>
      <trkpt lat="48.38496" lon="2.14992">
        <ele>81</ele>
        <time>2011-04-15T13:56:41Z</time>
      </trkpt>
      <trkpt lat="48.38497" lon="2.14994">
        <ele>81</ele>
        <time>2011-04-15T13:56:42Z</time>
      </trkpt>
      <trkpt lat="48.38498" lon="2.14996">
        <ele>81</ele>
        <time>2011-04-15T13:56:43Z</time>
      </trkpt>
      <trkpt lat="48.38499" lon="2.14998">
        <ele>81</ele>
        <time>2011-04-15T13:56:44Z</time>
      </trkpt>
      <trkpt lat="48.385" lon="2.15">
        <ele>81</ele>
        <time>2011-04-15T13:56:45Z</time>
      </trkpt>
      <trkpt lat="48.38501" lon="2.15002">
        <ele>81</ele>
        <time>2011-04-15T13:56:46Z</time>
      </trkpt>
      <trkpt lat="48.38501" lon="2.15004">
        <ele>81</ele>
        <time>2011-04-15T13:56:47Z</time>
      </trkpt>
      <trkpt lat="48.38502" lon="2.15006">
        <ele>81</ele>
        <time>2011-04-15T13:56:48Z</time>
      </trkpt>
      <trkpt lat="48.38503" lon="2.15008">
        <ele>81</ele>
        <time>2011-04-15T13:56:49Z</time>
      </trkpt>
      <trkpt lat="48.38503" lon="2.15011">
        <ele>81</ele>
        <time>2011-04-15T13:56:50Z</time>
      </trkpt>
      <trkpt lat="48.38504" lon="2.15012">
        <ele>82</ele>
        <time>2011-04-15T13:56:51Z</time>
      </trkpt>
      <trkpt lat="48.38504" lon="2.15014">
        <ele>82</ele>
        <time>2011-04-15T13:56:52Z</time>
      </trkpt>
      <trkpt lat="48.38505" lon="2.15016">
        <ele>82</ele>
        <time>2011-04-15T13:56:53Z</time>
      </trkpt>
      <trkpt lat="48.38506" lon="2.15019">
        <ele>82</ele>
        <time>2011-04-15T13:56:54Z</time>
      </trkpt>
      <trkpt lat="48.38507" lon="2.15021">
        <ele>82</ele>
        <time>2011-04-15T13:56:55Z</time>
      </trkpt>
      <trkpt lat="48.38508" lon="2.15023">
        <ele>82</ele>
        <time>2011-04-15T13:56:56Z</time>
      </trkpt>
      <trkpt lat="48.38509" lon="2.15025">
        <ele>82</ele>
        <time>2011-04-15T13:56:57Z</time>
      </trkpt>
      <trkpt lat="48.38509" lon="2.15027">
        <ele>82</ele>
        <time>2011-04-15T13:56:58Z</time>
      </trkpt>
      <trkpt lat="48.3851" lon="2.15029">
        <ele>83</ele>
        <time>2011-04-15T13:56:59Z</time>
      </trkpt>
      <trkpt lat="48.38511" lon="2.15031">
        <ele>83</ele>
        <time>2011-04-15T13:57:00Z</time>
      </trkpt>
      <trkpt lat="48.38511" lon="2.15033">
        <ele>83</ele>
        <time>2011-04-15T13:57:01Z</time>
      </trkpt>
      <trkpt lat="48.38512" lon="2.15035">
        <ele>83</ele>
        <time>2011-04-15T13:57:02Z</time>
      </trkpt>
      <trkpt lat="48.38513" lon="2.15037">
        <ele>83</ele>
        <time>2011-04-15T13:57:03Z</time>
      </trkpt>
      <trkpt lat="48.38513" lon="2.15039">
        <ele>83</ele>
        <time>2011-04-15T13:57:04Z</time>
      </trkpt>
      <trkpt lat="48.38513" lon="2.15041">
        <ele>83</ele>
        <time>2011-04-15T13:57:05Z</time>
      </trkpt>
      <trkpt lat="48.38514" lon="2.15043">
        <ele>84</ele>
        <time>2011-04-15T13:57:06Z</time>
      </trkpt>
      <trkpt lat="48.38515" lon="2.15044">
        <ele>84</ele>
        <time>2011-04-15T13:57:07Z</time>
      </trkpt>
      <trkpt lat="48.38515" lon="2.15046">
        <ele>84</ele>
        <time>2011-04-15T13:57:08Z</time>
      </trkpt>
      <trkpt lat="48.38516" lon="2.15048">
        <ele>84</ele>
        <time>2011-04-15T13:57:09Z</time>
      </trkpt>
      <trkpt lat="48.38517" lon="2.1505">
        <ele>84</ele>
        <time>2011-04-15T13:57:10Z</time>
      </trkpt>
      <trkpt lat="48.38517" lon="2.15052">
        <ele>84</ele>
        <time>2011-04-15T13:57:11Z</time>
      </trkpt>
      <trkpt lat="48.38519" lon="2.15054">
        <ele>85</ele>
        <time>2011-04-15T13:57:12Z</time>
      </trkpt>
      <trkpt lat="48.38521" lon="2.15055">
        <ele>85</ele>
        <time>2011-04-15T13:57:13Z</time>
      </trkpt>
      <trkpt lat="48.38522" lon="2.15057">
        <ele>86</ele>
        <time>2011-04-15T13:57:14Z</time>
      </trkpt>
      <trkpt lat="48.38523" lon="2.15059">
        <ele>86</ele>
        <time>2011-04-15T13:57:15Z</time>
      </trkpt>
      <trkpt lat="48.38524" lon="2.15061">
        <ele>87</ele>
        <time>2011-04-15T13:57:16Z</time>
      </trkpt>
      <trkpt lat="48.38524" lon="2.15063">
        <ele>87</ele>
        <time>2011-04-15T13:57:17Z</time>
      </trkpt>
      <trkpt lat="48.38525" lon="2.15065">
        <ele>87</ele>
        <time>2011-04-15T13:57:18Z</time>
      </trkpt>
      <trkpt lat="48.38527" lon="2.15068">
        <ele>88</ele>
        <time>2011-04-15T13:57:20Z</time>
      </trkpt>
      <trkpt lat="48.38527" lon="2.1507">
        <ele>88</ele>
        <time>2011-04-15T13:57:21Z</time>
      </trkpt>
      <trkpt lat="48.38527" lon="2.15072">
        <ele>88</ele>
        <time>2011-04-15T13:57:22Z</time>
      </trkpt>
      <trkpt lat="48.38528" lon="2.15074">
        <ele>88</ele>
        <time>2011-04-15T13:57:23Z</time>
      </trkpt>
      <trkpt lat="48.38529" lon="2.15077">
        <ele>89</ele>
        <time>2011-04-15T13:57:24Z</time>
      </trkpt>
      <trkpt lat="48.38529" lon="2.15079">
        <ele>89</ele>
        <time>2011-04-15T13:57:25Z</time>
      </trkpt>
      <trkpt lat="48.38529" lon="2.15082">
        <ele>89</ele>
        <time>2011-04-15T13:57:26Z</time>
      </trkpt>
      <trkpt lat="48.3853" lon="2.15084">
        <ele>89</ele>
        <time>2011-04-15T13:57:27Z</time>
      </trkpt>
      <trkpt lat="48.3853" lon="2.15087">
        <ele>89</ele>
        <time>2011-04-15T13:57:28Z</time>
      </trkpt>
      <trkpt lat="48.3853" lon="2.15089">
        <ele>89</ele>
        <time>2011-04-15T13:57:29Z</time>
      </trkpt>
      <trkpt lat="48.3853" lon="2.15091">
        <ele>89</ele>
        <time>2011-04-15T13:57:30Z</time>
      </trkpt>
      <trkpt lat="48.3853" lon="2.15093">
        <ele>90</ele>
        <time>2011-04-15T13:57:31Z</time>
      </trkpt>
      <trkpt lat="48.3853" lon="2.15095">
        <ele>90</ele>
        <time>2011-04-15T13:57:32Z</time>
      </trkpt>
      <trkpt lat="48.3853" lon="2.15098">
        <ele>90</ele>
        <time>2011-04-15T13:57:33Z</time>
      </trkpt>
      <trkpt lat="48.38531" lon="2.151">
        <ele>90</ele>
        <time>2011-04-15T13:57:34Z</time>
      </trkpt>
      <trkpt lat="48.38531" lon="2.15102">
        <ele>90</ele>
        <time>2011-04-15T13:57:35Z</time>
      </trkpt>
      <trkpt lat="48.38531" lon="2.15104">
        <ele>91</ele>
        <time>2011-04-15T13:57:36Z</time>
      </trkpt>
      <trkpt lat="48.38531" lon="2.15106">
        <ele>91</ele>
        <time>2011-04-15T13:57:37Z</time>
      </trkpt>
      <trkpt lat="48.38531" lon="2.15109">
        <ele>91</ele>
        <time>2011-04-15T13:57:38Z</time>
      </trkpt>
      <trkpt lat="48.38531" lon="2.15111">
        <ele>91</ele>
        <time>2011-04-15T13:57:39Z</time>
      </trkpt>
      <trkpt lat="48.38531" lon="2.15113">
        <ele>91</ele>
        <time>2011-04-15T13:57:40Z</time>
      </trkpt>
      <trkpt lat="48.38531" lon="2.15115">
        <ele>91</ele>
        <time>2011-04-15T13:57:41Z</time>
      </trkpt>
      <trkpt lat="48.38531" lon="2.15117">
        <ele>91</ele>
        <time>2011-04-15T13:57:42Z</time>
      </trkpt>
      <trkpt lat="48.38531" lon="2.15119">
        <ele>91</ele>
        <time>2011-04-15T13:57:43Z</time>
      </trkpt>
      <trkpt lat="48.38532" lon="2.15121">
        <ele>91</ele>
        <time>2011-04-15T13:57:44Z</time>
      </trkpt>
      <trkpt lat="48.38532" lon="2.15123">
        <ele>91</ele>
        <time>2011-04-15T13:57:45Z</time>
      </trkpt>
      <trkpt lat="48.38533" lon="2.15125">
        <ele>91</ele>
        <time>2011-04-15T13:57:46Z</time>
      </trkpt>
      <trkpt lat="48.38533" lon="2.15127">
        <ele>91</ele>
        <time>2011-04-15T13:57:47Z</time>
      </trkpt>
      <trkpt lat="48.38534" lon="2.1513">
        <ele>91</ele>
        <time>2011-04-15T13:57:48Z</time>
      </trkpt>
      <trkpt lat="48.38534" lon="2.15132">
        <ele>91</ele>
        <time>2011-04-15T13:57:49Z</time>
      </trkpt>
      <trkpt lat="48.38535" lon="2.15135">
        <ele>91</ele>
        <time>2011-04-15T13:57:50Z</time>
      </trkpt>
      <trkpt lat="48.38536" lon="2.15137">
        <ele>91</ele>
        <time>2011-04-15T13:57:51Z</time>
      </trkpt>
      <trkpt lat="48.38536" lon="2.1514">
        <ele>91</ele>
        <time>2011-04-15T13:57:52Z</time>
      </trkpt>
      <trkpt lat="48.38537" lon="2.15142">
        <ele>91</ele>
        <time>2011-04-15T13:57:53Z</time>
      </trkpt>
      <trkpt lat="48.38537" lon="2.15144">
        <ele>91</ele>
        <time>2011-04-15T13:57:54Z</time>
      </trkpt>
      <trkpt lat="48.38538" lon="2.15147">
        <ele>91</ele>
        <time>2011-04-15T13:57:55Z</time>
      </trkpt>
      <trkpt lat="48.38538" lon="2.15149">
        <ele>91</ele>
        <time>2011-04-15T13:57:56Z</time>
      </trkpt>
      <trkpt lat="48.38538" lon="2.15151">
        <ele>91</ele>
        <time>2011-04-15T13:57:57Z</time>
      </trkpt>
      <trkpt lat="48.38539" lon="2.15153">
        <ele>91</ele>
        <time>2011-04-15T13:57:58Z</time>
      </trkpt>
      <trkpt lat="48.38539" lon="2.15155">
        <ele>91</ele>
        <time>2011-04-15T13:57:59Z</time>
      </trkpt>
      <trkpt lat="48.38539" lon="2.15158">
        <ele>92</ele>
        <time>2011-04-15T13:58:00Z</time>
      </trkpt>
      <trkpt lat="48.38539" lon="2.1516">
        <ele>92</ele>
        <time>2011-04-15T13:58:01Z</time>
      </trkpt>
      <trkpt lat="48.38539" lon="2.15162">
        <ele>92</ele>
        <time>2011-04-15T13:58:02Z</time>
      </trkpt>
      <trkpt lat="48.38539" lon="2.15164">
        <ele>92</ele>
        <time>2011-04-15T13:58:03Z</time>
      </trkpt>
      <trkpt lat="48.3854" lon="2.15166">
        <ele>92</ele>
        <time>2011-04-15T13:58:04Z</time>
      </trkpt>
      <trkpt lat="48.3854" lon="2.15168">
        <ele>92</ele>
        <time>2011-04-15T13:58:05Z</time>
      </trkpt>
      <trkpt lat="48.38541" lon="2.1517">
        <ele>92</ele>
        <time>2011-04-15T13:58:06Z</time>
      </trkpt>
      <trkpt lat="48.38541" lon="2.15172">
        <ele>92</ele>
        <time>2011-04-15T13:58:07Z</time>
      </trkpt>
      <trkpt lat="48.38542" lon="2.15175">
        <ele>92</ele>
        <time>2011-04-15T13:58:08Z</time>
      </trkpt>
      <trkpt lat="48.38542" lon="2.15177">
        <ele>92</ele>
        <time>2011-04-15T13:58:09Z</time>
      </trkpt>
      <trkpt lat="48.38543" lon="2.15178">
        <ele>92</ele>
        <time>2011-04-15T13:58:10Z</time>
      </trkpt>
      <trkpt lat="48.38543" lon="2.1518">
        <ele>92</ele>
        <time>2011-04-15T13:58:11Z</time>
      </trkpt>
      <trkpt lat="48.38544" lon="2.15182">
        <ele>92</ele>
        <time>2011-04-15T13:58:12Z</time>
      </trkpt>
      <trkpt lat="48.38544" lon="2.15184">
        <ele>92</ele>
        <time>2011-04-15T13:58:13Z</time>
      </trkpt>
      <trkpt lat="48.38545" lon="2.15186">
        <ele>92</ele>
        <time>2011-04-15T13:58:14Z</time>
      </trkpt>
      <trkpt lat="48.38545" lon="2.15188">
        <ele>92</ele>
        <time>2011-04-15T13:58:15Z</time>
      </trkpt>
      <trkpt lat="48.38546" lon="2.1519">
        <ele>92</ele>
        <time>2011-04-15T13:58:16Z</time>
      </trkpt>
      <trkpt lat="48.38547" lon="2.15192">
        <ele>92</ele>
        <time>2011-04-15T13:58:17Z</time>
      </trkpt>
      <trkpt lat="48.38548" lon="2.15194">
        <ele>92</ele>
        <time>2011-04-15T13:58:18Z</time>
      </trkpt>
      <trkpt lat="48.38549" lon="2.15196">
        <ele>92</ele>
        <time>2011-04-15T13:58:19Z</time>
      </trkpt>
      <trkpt lat="48.3855" lon="2.15198">
        <ele>92</ele>
        <time>2011-04-15T13:58:20Z</time>
      </trkpt>
      <trkpt lat="48.38551" lon="2.152">
        <ele>93</ele>
        <time>2011-04-15T13:58:21Z</time>
      </trkpt>
      <trkpt lat="48.38552" lon="2.15203">
        <ele>93</ele>
        <time>2011-04-15T13:58:22Z</time>
      </trkpt>
      <trkpt lat="48.38552" lon="2.15206">
        <ele>93</ele>
        <time>2011-04-15T13:58:23Z</time>
      </trkpt>
      <trkpt lat="48.38553" lon="2.15209">
        <ele>93</ele>
        <time>2011-04-15T13:58:24Z</time>
      </trkpt>
      <trkpt lat="48.38554" lon="2.15211">
        <ele>93</ele>
        <time>2011-04-15T13:58:25Z</time>
      </trkpt>
      <trkpt lat="48.38555" lon="2.15214">
        <ele>94</ele>
        <time>2011-04-15T13:58:26Z</time>
      </trkpt>
      <trkpt lat="48.38555" lon="2.15216">
        <ele>94</ele>
        <time>2011-04-15T13:58:27Z</time>
      </trkpt>
      <trkpt lat="48.38556" lon="2.15219">
        <ele>94</ele>
        <time>2011-04-15T13:58:28Z</time>
      </trkpt>
      <trkpt lat="48.38557" lon="2.15221">
        <ele>94</ele>
        <time>2011-04-15T13:58:29Z</time>
      </trkpt>
      <trkpt lat="48.38557" lon="2.15223">
        <ele>94</ele>
        <time>2011-04-15T13:58:30Z</time>
      </trkpt>
      <trkpt lat="48.38558" lon="2.15226">
        <ele>95</ele>
        <time>2011-04-15T13:58:31Z</time>
      </trkpt>
      <trkpt lat="48.38559" lon="2.15228">
        <ele>95</ele>
        <time>2011-04-15T13:58:32Z</time>
      </trkpt>
      <trkpt lat="48.38559" lon="2.1523">
        <ele>95</ele>
        <time>2011-04-15T13:58:33Z</time>
      </trkpt>
      <trkpt lat="48.3856" lon="2.15233">
        <ele>95</ele>
        <time>2011-04-15T13:58:34Z</time>
      </trkpt>
      <trkpt lat="48.3856" lon="2.15235">
        <ele>95</ele>
        <time>2011-04-15T13:58:35Z</time>
      </trkpt>
      <trkpt lat="48.38561" lon="2.15237">
        <ele>95</ele>
        <time>2011-04-15T13:58:36Z</time>
      </trkpt>
      <trkpt lat="48.38561" lon="2.15239">
        <ele>96</ele>
        <time>2011-04-15T13:58:37Z</time>
      </trkpt>
      <trkpt lat="48.38561" lon="2.15241">
        <ele>96</ele>
        <time>2011-04-15T13:58:38Z</time>
      </trkpt>
      <trkpt lat="48.38562" lon="2.15243">
        <ele>96</ele>
        <time>2011-04-15T13:58:39Z</time>
      </trkpt>
      <trkpt lat="48.38562" lon="2.15245">
        <ele>96</ele>
        <time>2011-04-15T13:58:40Z</time>
      </trkpt>
      <trkpt lat="48.38563" lon="2.15247">
        <ele>96</ele>
        <time>2011-04-15T13:58:41Z</time>
      </trkpt>
      <trkpt lat="48.38563" lon="2.15249">
        <ele>96</ele>
        <time>2011-04-15T13:58:42Z</time>
      </trkpt>
      <trkpt lat="48.38564" lon="2.15251">
        <ele>96</ele>
        <time>2011-04-15T13:58:43Z</time>
      </trkpt>
      <trkpt lat="48.38565" lon="2.15253">
        <ele>96</ele>
        <time>2011-04-15T13:58:44Z</time>
      </trkpt>
      <trkpt lat="48.38565" lon="2.15255">
        <ele>96</ele>
        <time>2011-04-15T13:58:45Z</time>
      </trkpt>
      <trkpt lat="48.38565" lon="2.15257">
        <ele>96</ele>
        <time>2011-04-15T13:58:46Z</time>
      </trkpt>
      <trkpt lat="48.38566" lon="2.15259">
        <ele>96</ele>
        <time>2011-04-15T13:58:47Z</time>
      </trkpt>
      <trkpt lat="48.38566" lon="2.15261">
        <ele>96</ele>
        <time>2011-04-15T13:58:48Z</time>
      </trkpt>
      <trkpt lat="48.38566" lon="2.15264">
        <ele>96</ele>
        <time>2011-04-15T13:58:49Z</time>
      </trkpt>
      <trkpt lat="48.38566" lon="2.15266">
        <ele>97</ele>
        <time>2011-04-15T13:58:50Z</time>
      </trkpt>
      <trkpt lat="48.38566" lon="2.15268">
        <ele>97</ele>
        <time>2011-04-15T13:58:51Z</time>
      </trkpt>
      <trkpt lat="48.38567" lon="2.1527">
        <ele>97</ele>
        <time>2011-04-15T13:58:52Z</time>
      </trkpt>
      <trkpt lat="48.38567" lon="2.15272">
        <ele>97</ele>
        <time>2011-04-15T13:58:53Z</time>
      </trkpt>
      <trkpt lat="48.38567" lon="2.15274">
        <ele>97</ele>
        <time>2011-04-15T13:58:54Z</time>
      </trkpt>
      <trkpt lat="48.38567" lon="2.15276">
        <ele>97</ele>
        <time>2011-04-15T13:58:55Z</time>
      </trkpt>
      <trkpt lat="48.38567" lon="2.15278">
        <ele>98</ele>
        <time>2011-04-15T13:58:56Z</time>
      </trkpt>
      <trkpt lat="48.38567" lon="2.1528">
        <ele>98</ele>
        <time>2011-04-15T13:58:57Z</time>
      </trkpt>
      <trkpt lat="48.38567" lon="2.15282">
        <ele>98</ele>
        <time>2011-04-15T13:58:58Z</time>
      </trkpt>
      <trkpt lat="48.38567" lon="2.15284">
        <ele>98</ele>
        <time>2011-04-15T13:58:59Z</time>
      </trkpt>
      <trkpt lat="48.38567" lon="2.15286">
        <ele>98</ele>
        <time>2011-04-15T13:59:00Z</time>
      </trkpt>
      <trkpt lat="48.38567" lon="2.15288">
        <ele>98</ele>
        <time>2011-04-15T13:59:01Z</time>
      </trkpt>
      <trkpt lat="48.38568" lon="2.1529">
        <ele>98</ele>
        <time>2011-04-15T13:59:02Z</time>
      </trkpt>
      <trkpt lat="48.38568" lon="2.15292">
        <ele>98</ele>
        <time>2011-04-15T13:59:03Z</time>
      </trkpt>
      <trkpt lat="48.38568" lon="2.15294">
        <ele>98</ele>
        <time>2011-04-15T13:59:04Z</time>
      </trkpt>
      <trkpt lat="48.38569" lon="2.15296">
        <ele>98</ele>
        <time>2011-04-15T13:59:05Z</time>
      </trkpt>
      <trkpt lat="48.38568" lon="2.15298">
        <ele>98</ele>
        <time>2011-04-15T13:59:06Z</time>
      </trkpt>
      <trkpt lat="48.3857" lon="2.15299">
        <ele>98</ele>
        <time>2011-04-15T13:59:07Z</time>
      </trkpt>
      <trkpt lat="48.38572" lon="2.15301">
        <ele>98</ele>
        <time>2011-04-15T13:59:08Z</time>
      </trkpt>
      <trkpt lat="48.38573" lon="2.15303">
        <ele>98</ele>
        <time>2011-04-15T13:59:09Z</time>
      </trkpt>
      <trkpt lat="48.38574" lon="2.15305">
        <ele>99</ele>
        <time>2011-04-15T13:59:10Z</time>
      </trkpt>
      <trkpt lat="48.38574" lon="2.15307">
        <ele>99</ele>
        <time>2011-04-15T13:59:11Z</time>
      </trkpt>
      <trkpt lat="48.38574" lon="2.15309">
        <ele>99</ele>
        <time>2011-04-15T13:59:12Z</time>
      </trkpt>
      <trkpt lat="48.38574" lon="2.15311">
        <ele>100</ele>
        <time>2011-04-15T13:59:13Z</time>
      </trkpt>
      <trkpt lat="48.38573" lon="2.15313">
        <ele>100</ele>
        <time>2011-04-15T13:59:14Z</time>
      </trkpt>
      <trkpt lat="48.38573" lon="2.15315">
        <ele>100</ele>
        <time>2011-04-15T13:59:15Z</time>
      </trkpt>
      <trkpt lat="48.38573" lon="2.15317">
        <ele>100</ele>
        <time>2011-04-15T13:59:16Z</time>
      </trkpt>
      <trkpt lat="48.38573" lon="2.15319">
        <ele>100</ele>
        <time>2011-04-15T13:59:17Z</time>
      </trkpt>
      <trkpt lat="48.38574" lon="2.15321">
        <ele>100</ele>
        <time>2011-04-15T13:59:18Z</time>
      </trkpt>
      <trkpt lat="48.38574" lon="2.15323">
        <ele>100</ele>
        <time>2011-04-15T13:59:19Z</time>
      </trkpt>
      <trkpt lat="48.38574" lon="2.15325">
        <ele>100</ele>
        <time>2011-04-15T13:59:20Z</time>
      </trkpt>
      <trkpt lat="48.38574" lon="2.15327">
        <ele>100</ele>
        <time>2011-04-15T13:59:21Z</time>
      </trkpt>
      <trkpt lat="48.38574" lon="2.15329">
        <ele>100</ele>
        <time>2011-04-15T13:59:22Z</time>
      </trkpt>
      <trkpt lat="48.38574" lon="2.1533">
        <ele>100</ele>
        <time>2011-04-15T13:59:23Z</time>
      </trkpt>
      <trkpt lat="48.38575" lon="2.15332">
        <ele>100</ele>
        <time>2011-04-15T13:59:24Z</time>
      </trkpt>
      <trkpt lat="48.38575" lon="2.15334">
        <ele>100</ele>
        <time>2011-04-15T13:59:25Z</time>
      </trkpt>
      <trkpt lat="48.38575" lon="2.15336">
        <ele>100</ele>
        <time>2011-04-15T13:59:26Z</time>
      </trkpt>
      <trkpt lat="48.38576" lon="2.15338">
        <ele>100</ele>
        <time>2011-04-15T13:59:27Z</time>
      </trkpt>
      <trkpt lat="48.38576" lon="2.1534">
        <ele>101</ele>
        <time>2011-04-15T13:59:28Z</time>
      </trkpt>
      <trkpt lat="48.38577" lon="2.15342">
        <ele>101</ele>
        <time>2011-04-15T13:59:29Z</time>
      </trkpt>
      <trkpt lat="48.38578" lon="2.15344">
        <ele>101</ele>
        <time>2011-04-15T13:59:30Z</time>
      </trkpt>
      <trkpt lat="48.38579" lon="2.15346">
        <ele>101</ele>
        <time>2011-04-15T13:59:31Z</time>
      </trkpt>
      <trkpt lat="48.3858" lon="2.15348">
        <ele>101</ele>
        <time>2011-04-15T13:59:32Z</time>
      </trkpt>
      <trkpt lat="48.38582" lon="2.1535">
        <ele>101</ele>
        <time>2011-04-15T13:59:33Z</time>
      </trkpt>
      <trkpt lat="48.38584" lon="2.15352">
        <ele>101</ele>
        <time>2011-04-15T13:59:34Z</time>
      </trkpt>
      <trkpt lat="48.38585" lon="2.15354">
        <ele>101</ele>
        <time>2011-04-15T13:59:35Z</time>
      </trkpt>
      <trkpt lat="48.38585" lon="2.15356">
        <ele>102</ele>
        <time>2011-04-15T13:59:36Z</time>
      </trkpt>
      <trkpt lat="48.38587" lon="2.15358">
        <ele>102</ele>
        <time>2011-04-15T13:59:37Z</time>
      </trkpt>
      <trkpt lat="48.38587" lon="2.1536">
        <ele>102</ele>
        <time>2011-04-15T13:59:38Z</time>
      </trkpt>
      <trkpt lat="48.38589" lon="2.15362">
        <ele>102</ele>
        <time>2011-04-15T13:59:39Z</time>
      </trkpt>
      <trkpt lat="48.38589" lon="2.15364">
        <ele>102</ele>
        <time>2011-04-15T13:59:40Z</time>
      </trkpt>
      <trkpt lat="48.38589" lon="2.15366">
        <ele>102</ele>
        <time>2011-04-15T13:59:41Z</time>
      </trkpt>
      <trkpt lat="48.3859" lon="2.15368">
        <ele>102</ele>
        <time>2011-04-15T13:59:42Z</time>
      </trkpt>
      <trkpt lat="48.38592" lon="2.15371">
        <ele>102</ele>
        <time>2011-04-15T13:59:44Z</time>
      </trkpt>
      <trkpt lat="48.38593" lon="2.15373">
        <ele>102</ele>
        <time>2011-04-15T13:59:45Z</time>
      </trkpt>
      <trkpt lat="48.38594" lon="2.15375">
        <ele>102</ele>
        <time>2011-04-15T13:59:46Z</time>
      </trkpt>
      <trkpt lat="48.38594" lon="2.15377">
        <ele>102</ele>
        <time>2011-04-15T13:59:47Z</time>
      </trkpt>
      <trkpt lat="48.38594" lon="2.15379">
        <ele>102</ele>
        <time>2011-04-15T13:59:48Z</time>
      </trkpt>
      <trkpt lat="48.38595" lon="2.15381">
        <ele>102</ele>
        <time>2011-04-15T13:59:49Z</time>
      </trkpt>
      <trkpt lat="48.38595" lon="2.15383">
        <ele>102</ele>
        <time>2011-04-15T13:59:50Z</time>
      </trkpt>
      <trkpt lat="48.38596" lon="2.15385">
        <ele>102</ele>
        <time>2011-04-15T13:59:51Z</time>
      </trkpt>
      <trkpt lat="48.38596" lon="2.15386">
        <ele>102</ele>
        <time>2011-04-15T13:59:52Z</time>
      </trkpt>
      <trkpt lat="48.38597" lon="2.15388">
        <ele>102</ele>
        <time>2011-04-15T13:59:53Z</time>
      </trkpt>
      <trkpt lat="48.38597" lon="2.1539">
        <ele>102</ele>
        <time>2011-04-15T13:59:54Z</time>
      </trkpt>
      <trkpt lat="48.38599" lon="2.15392">
        <ele>102</ele>
        <time>2011-04-15T13:59:55Z</time>
      </trkpt>
      <trkpt lat="48.386" lon="2.15394">
        <ele>102</ele>
        <time>2011-04-15T13:59:56Z</time>
      </trkpt>
      <trkpt lat="48.38601" lon="2.15396">
        <ele>102</ele>
        <time>2011-04-15T13:59:57Z</time>
      </trkpt>
      <trkpt lat="48.38602" lon="2.15398">
        <ele>102</ele>
        <time>2011-04-15T13:59:58Z</time>
      </trkpt>
      <trkpt lat="48.38602" lon="2.154">
        <ele>102</ele>
        <time>2011-04-15T13:59:59Z</time>
      </trkpt>
      <trkpt lat="48.38604" lon="2.15402">
        <ele>102</ele>
        <time>2011-04-15T14:00:00Z</time>
      </trkpt>
      <trkpt lat="48.38605" lon="2.15404">
        <ele>102</ele>
        <time>2011-04-15T14:00:01Z</time>
      </trkpt>
      <trkpt lat="48.38606" lon="2.15405">
        <ele>102</ele>
        <time>2011-04-15T14:00:02Z</time>
      </trkpt>
      <trkpt lat="48.38607" lon="2.15407">
        <ele>102</ele>
        <time>2011-04-15T14:00:03Z</time>
      </trkpt>
      <trkpt lat="48.38607" lon="2.15409">
        <ele>102</ele>
        <time>2011-04-15T14:00:04Z</time>
      </trkpt>
      <trkpt lat="48.38608" lon="2.15411">
        <ele>102</ele>
        <time>2011-04-15T14:00:05Z</time>
      </trkpt>
      <trkpt lat="48.38608" lon="2.15413">
        <ele>102</ele>
        <time>2011-04-15T14:00:06Z</time>
      </trkpt>
      <trkpt lat="48.38608" lon="2.15415">
        <ele>102</ele>
        <time>2011-04-15T14:00:07Z</time>
      </trkpt>
      <trkpt lat="48.38609" lon="2.15416">
        <ele>102</ele>
        <time>2011-04-15T14:00:08Z</time>
      </trkpt>
      <trkpt lat="48.3861" lon="2.15418">
        <ele>102</ele>
        <time>2011-04-15T14:00:09Z</time>
      </trkpt>
      <trkpt lat="48.3861" lon="2.1542">
        <ele>102</ele>
        <time>2011-04-15T14:00:10Z</time>
      </trkpt>
      <trkpt lat="48.38611" lon="2.15422">
        <ele>102</ele>
        <time>2011-04-15T14:00:11Z</time>
      </trkpt>
      <trkpt lat="48.38611" lon="2.15424">
        <ele>102</ele>
        <time>2011-04-15T14:00:12Z</time>
      </trkpt>
      <trkpt lat="48.38613" lon="2.15426">
        <ele>102</ele>
        <time>2011-04-15T14:00:13Z</time>
      </trkpt>
      <trkpt lat="48.38614" lon="2.15428">
        <ele>102</ele>
        <time>2011-04-15T14:00:14Z</time>
      </trkpt>
      <trkpt lat="48.38614" lon="2.15429">
        <ele>102</ele>
        <time>2011-04-15T14:00:15Z</time>
      </trkpt>
      <trkpt lat="48.38616" lon="2.15432">
        <ele>102</ele>
        <time>2011-04-15T14:00:17Z</time>
      </trkpt>
      <trkpt lat="48.38617" lon="2.15434">
        <ele>102</ele>
        <time>2011-04-15T14:00:18Z</time>
      </trkpt>
      <trkpt lat="48.38617" lon="2.15436">
        <ele>102</ele>
        <time>2011-04-15T14:00:19Z</time>
      </trkpt>
      <trkpt lat="48.38618" lon="2.15438">
        <ele>102</ele>
        <time>2011-04-15T14:00:20Z</time>
      </trkpt>
      <trkpt lat="48.38619" lon="2.15439">
        <ele>102</ele>
        <time>2011-04-15T14:00:21Z</time>
      </trkpt>
      <trkpt lat="48.38619" lon="2.15441">
        <ele>102</ele>
        <time>2011-04-15T14:00:22Z</time>
      </trkpt>
      <trkpt lat="48.3862" lon="2.15443">
        <ele>102</ele>
        <time>2011-04-15T14:00:23Z</time>
      </trkpt>
      <trkpt lat="48.38621" lon="2.15445">
        <ele>102</ele>
        <time>2011-04-15T14:00:24Z</time>
      </trkpt>
      <trkpt lat="48.38621" lon="2.15447">
        <ele>102</ele>
        <time>2011-04-15T14:00:25Z</time>
      </trkpt>
      <trkpt lat="48.38622" lon="2.15448">
        <ele>102</ele>
        <time>2011-04-15T14:00:26Z</time>
      </trkpt>
      <trkpt lat="48.38623" lon="2.1545">
        <ele>102</ele>
        <time>2011-04-15T14:00:27Z</time>
      </trkpt>
      <trkpt lat="48.38624" lon="2.15452">
        <ele>102</ele>
        <time>2011-04-15T14:00:28Z</time>
      </trkpt>
      <trkpt lat="48.38626" lon="2.15453">
        <ele>102</ele>
        <time>2011-04-15T14:00:29Z</time>
      </trkpt>
      <trkpt lat="48.38627" lon="2.15455">
        <ele>102</ele>
        <time>2011-04-15T14:00:30Z</time>
      </trkpt>
      <trkpt lat="48.38628" lon="2.15457">
        <ele>102</ele>
        <time>2011-04-15T14:00:31Z</time>
      </trkpt>
      <trkpt lat="48.38629" lon="2.15458">
        <ele>103</ele>
        <time>2011-04-15T14:00:32Z</time>
      </trkpt>
      <trkpt lat="48.3863" lon="2.15461">
        <ele>103</ele>
        <time>2011-04-15T14:00:34Z</time>
      </trkpt>
      <trkpt lat="48.38631" lon="2.15463">
        <ele>104</ele>
        <time>2011-04-15T14:00:35Z</time>
      </trkpt>
      <trkpt lat="48.38631" lon="2.15465">
        <ele>104</ele>
        <time>2011-04-15T14:00:36Z</time>
      </trkpt>
      <trkpt lat="48.38632" lon="2.15466">
        <ele>104</ele>
        <time>2011-04-15T14:00:37Z</time>
      </trkpt>
      <trkpt lat="48.38633" lon="2.15468">
        <ele>104</ele>
        <time>2011-04-15T14:00:38Z</time>
      </trkpt>
      <trkpt lat="48.38634" lon="2.1547">
        <ele>104</ele>
        <time>2011-04-15T14:00:39Z</time>
      </trkpt>
      <trkpt lat="48.38635" lon="2.15472">
        <ele>104</ele>
        <time>2011-04-15T14:00:40Z</time>
      </trkpt>
      <trkpt lat="48.38636" lon="2.15473">
        <ele>104</ele>
        <time>2011-04-15T14:00:41Z</time>
      </trkpt>
      <trkpt lat="48.38637" lon="2.15474">
        <ele>105</ele>
        <time>2011-04-15T14:00:42Z</time>
      </trkpt>
      <trkpt lat="48.38639" lon="2.15476">
        <ele>105</ele>
        <time>2011-04-15T14:00:43Z</time>
      </trkpt>
      <trkpt lat="48.3864" lon="2.15477">
        <ele>106</ele>
        <time>2011-04-15T14:00:44Z</time>
      </trkpt>
      <trkpt lat="48.38641" lon="2.1548">
        <ele>107</ele>
        <time>2011-04-15T14:00:46Z</time>
      </trkpt>
      <trkpt lat="48.38643" lon="2.15482">
        <ele>107</ele>
        <time>2011-04-15T14:00:48Z</time>
      </trkpt>
      <trkpt lat="48.38644" lon="2.15483">
        <ele>108</ele>
        <time>2011-04-15T14:00:50Z</time>
      </trkpt>
      <trkpt lat="48.38643" lon="2.15484">
        <ele>109</ele>
        <time>2011-04-15T14:00:55Z</time>
      </trkpt>
      <trkpt lat="48.38641" lon="2.15486">
        <ele>112</ele>
        <time>2011-04-15T14:01:03Z</time>
      </trkpt>
      <trkpt lat="48.3864" lon="2.15487">
        <ele>112</ele>
        <time>2011-04-15T14:01:08Z</time>
      </trkpt>
      <trkpt lat="48.38639" lon="2.15488">
        <ele>112</ele>
        <time>2011-04-15T14:01:10Z</time>
      </trkpt>
      <trkpt lat="48.38638" lon="2.15488">
        <ele>112</ele>
        <time>2011-04-15T14:01:13Z</time>
      </trkpt>
      <trkpt lat="48.38639" lon="2.15488">
        <ele>112</ele>
        <time>2011-04-15T14:01:17Z</time>
      </trkpt>
      <trkpt lat="48.3864" lon="2.15488">
        <ele>112</ele>
        <time>2011-04-15T14:01:19Z</time>
      </trkpt>
      <trkpt lat="48.38642" lon="2.15488">
        <ele>112</ele>
        <time>2011-04-15T14:01:21Z</time>
      </trkpt>
      <trkpt lat="48.38644" lon="2.15488">
        <ele>113</ele>
        <time>2011-04-15T14:01:22Z</time>
      </trkpt>
      <trkpt lat="48.38645" lon="2.15489">
        <ele>113</ele>
        <time>2011-04-15T14:01:24Z</time>
      </trkpt>
      <trkpt lat="48.38647" lon="2.15492">
        <ele>114</ele>
        <time>2011-04-15T14:01:26Z</time>
      </trkpt>
      <trkpt lat="48.38648" lon="2.15493">
        <ele>114</ele>
        <time>2011-04-15T14:01:27Z</time>
      </trkpt>
      <trkpt lat="48.38649" lon="2.15496">
        <ele>114</ele>
        <time>2011-04-15T14:01:29Z</time>
      </trkpt>
      <trkpt lat="48.38651" lon="2.15498">
        <ele>114</ele>
        <time>2011-04-15T14:01:31Z</time>
      </trkpt>
      <trkpt lat="48.38651" lon="2.15501">
        <ele>114</ele>
        <time>2011-04-15T14:01:33Z</time>
      </trkpt>
      <trkpt lat="48.38653" lon="2.15504">
        <ele>114</ele>
        <time>2011-04-15T14:01:35Z</time>
      </trkpt>
      <trkpt lat="48.38655" lon="2.15506">
        <ele>114</ele>
        <time>2011-04-15T14:01:37Z</time>
      </trkpt>
      <trkpt lat="48.38656" lon="2.15509">
        <ele>114</ele>
        <time>2011-04-15T14:01:39Z</time>
      </trkpt>
      <trkpt lat="48.38657" lon="2.15511">
        <ele>113</ele>
        <time>2011-04-15T14:01:40Z</time>
      </trkpt>
      <trkpt lat="48.38658" lon="2.15514">
        <ele>113</ele>
        <time>2011-04-15T14:01:42Z</time>
      </trkpt>
      <trkpt lat="48.38659" lon="2.15516">
        <ele>113</ele>
        <time>2011-04-15T14:01:43Z</time>
      </trkpt>
      <trkpt lat="48.38661" lon="2.15517">
        <ele>113</ele>
        <time>2011-04-15T14:01:44Z</time>
      </trkpt>
      <trkpt lat="48.38663" lon="2.1552">
        <ele>113</ele>
        <time>2011-04-15T14:01:46Z</time>
      </trkpt>
      <trkpt lat="48.38663" lon="2.15522">
        <ele>113</ele>
        <time>2011-04-15T14:01:47Z</time>
      </trkpt>
      <trkpt lat="48.38664" lon="2.15524">
        <ele>113</ele>
        <time>2011-04-15T14:01:48Z</time>
      </trkpt>
      <trkpt lat="48.38665" lon="2.15525">
        <ele>113</ele>
        <time>2011-04-15T14:01:49Z</time>
      </trkpt>
      <trkpt lat="48.38666" lon="2.15527">
        <ele>113</ele>
        <time>2011-04-15T14:01:50Z</time>
      </trkpt>
      <trkpt lat="48.38667" lon="2.15529">
        <ele>113</ele>
        <time>2011-04-15T14:01:51Z</time>
      </trkpt>
      <trkpt lat="48.38667" lon="2.15531">
        <ele>113</ele>
        <time>2011-04-15T14:01:52Z</time>
      </trkpt>
      <trkpt lat="48.38668" lon="2.15533">
        <ele>113</ele>
        <time>2011-04-15T14:01:53Z</time>
      </trkpt>
      <trkpt lat="48.38668" lon="2.15534">
        <ele>113</ele>
        <time>2011-04-15T14:01:54Z</time>
      </trkpt>
      <trkpt lat="48.3867" lon="2.15536">
        <ele>113</ele>
        <time>2011-04-15T14:01:55Z</time>
      </trkpt>
      <trkpt lat="48.38671" lon="2.15538">
        <ele>113</ele>
        <time>2011-04-15T14:01:56Z</time>
      </trkpt>
      <trkpt lat="48.38672" lon="2.15539">
        <ele>113</ele>
        <time>2011-04-15T14:01:57Z</time>
      </trkpt>
      <trkpt lat="48.38673" lon="2.15541">
        <ele>113</ele>
        <time>2011-04-15T14:01:58Z</time>
      </trkpt>
      <trkpt lat="48.38674" lon="2.15543">
        <ele>113</ele>
        <time>2011-04-15T14:01:59Z</time>
      </trkpt>
      <trkpt lat="48.38675" lon="2.15545">
        <ele>113</ele>
        <time>2011-04-15T14:02:00Z</time>
      </trkpt>
      <trkpt lat="48.38676" lon="2.15547">
        <ele>113</ele>
        <time>2011-04-15T14:02:01Z</time>
      </trkpt>
      <trkpt lat="48.38677" lon="2.15549">
        <ele>113</ele>
        <time>2011-04-15T14:02:02Z</time>
      </trkpt>
      <trkpt lat="48.38678" lon="2.1555">
        <ele>113</ele>
        <time>2011-04-15T14:02:03Z</time>
      </trkpt>
      <trkpt lat="48.38678" lon="2.15552">
        <ele>113</ele>
        <time>2011-04-15T14:02:04Z</time>
      </trkpt>
      <trkpt lat="48.38679" lon="2.15554">
        <ele>113</ele>
        <time>2011-04-15T14:02:05Z</time>
      </trkpt>
      <trkpt lat="48.38679" lon="2.15556">
        <ele>113</ele>
        <time>2011-04-15T14:02:06Z</time>
      </trkpt>
      <trkpt lat="48.3868" lon="2.15557">
        <ele>113</ele>
        <time>2011-04-15T14:02:07Z</time>
      </trkpt>
      <trkpt lat="48.38681" lon="2.15559">
        <ele>113</ele>
        <time>2011-04-15T14:02:08Z</time>
      </trkpt>
      <trkpt lat="48.38683" lon="2.15561">
        <ele>113</ele>
        <time>2011-04-15T14:02:09Z</time>
      </trkpt>
      <trkpt lat="48.38684" lon="2.15562">
        <ele>113</ele>
        <time>2011-04-15T14:02:10Z</time>
      </trkpt>
      <trkpt lat="48.38684" lon="2.15564">
        <ele>113</ele>
        <time>2011-04-15T14:02:11Z</time>
      </trkpt>
      <trkpt lat="48.38684" lon="2.15566">
        <ele>113</ele>
        <time>2011-04-15T14:02:12Z</time>
      </trkpt>
      <trkpt lat="48.38685" lon="2.1557">
        <ele>113</ele>
        <time>2011-04-15T14:02:14Z</time>
      </trkpt>
      <trkpt lat="48.38686" lon="2.15571">
        <ele>113</ele>
        <time>2011-04-15T14:02:15Z</time>
      </trkpt>
      <trkpt lat="48.38687" lon="2.15573">
        <ele>113</ele>
        <time>2011-04-15T14:02:16Z</time>
      </trkpt>
      <trkpt lat="48.38688" lon="2.15575">
        <ele>113</ele>
        <time>2011-04-15T14:02:17Z</time>
      </trkpt>
      <trkpt lat="48.38688" lon="2.15577">
        <ele>113</ele>
        <time>2011-04-15T14:02:18Z</time>
      </trkpt>
      <trkpt lat="48.38689" lon="2.15579">
        <ele>113</ele>
        <time>2011-04-15T14:02:19Z</time>
      </trkpt>
      <trkpt lat="48.38689" lon="2.15581">
        <ele>113</ele>
        <time>2011-04-15T14:02:20Z</time>
      </trkpt>
      <trkpt lat="48.38691" lon="2.15584">
        <ele>113</ele>
        <time>2011-04-15T14:02:22Z</time>
      </trkpt>
      <trkpt lat="48.38692" lon="2.15585">
        <ele>113</ele>
        <time>2011-04-15T14:02:23Z</time>
      </trkpt>
      <trkpt lat="48.38692" lon="2.15587">
        <ele>113</ele>
        <time>2011-04-15T14:02:24Z</time>
      </trkpt>
      <trkpt lat="48.38692" lon="2.15589">
        <ele>113</ele>
        <time>2011-04-15T14:02:25Z</time>
      </trkpt>
      <trkpt lat="48.38693" lon="2.15591">
        <ele>113</ele>
        <time>2011-04-15T14:02:26Z</time>
      </trkpt>
      <trkpt lat="48.38693" lon="2.15592">
        <ele>113</ele>
        <time>2011-04-15T14:02:27Z</time>
      </trkpt>
      <trkpt lat="48.38694" lon="2.15594">
        <ele>113</ele>
        <time>2011-04-15T14:02:28Z</time>
      </trkpt>
      <trkpt lat="48.38695" lon="2.15597">
        <ele>113</ele>
        <time>2011-04-15T14:02:30Z</time>
      </trkpt>
      <trkpt lat="48.38695" lon="2.15599">
        <ele>113</ele>
        <time>2011-04-15T14:02:31Z</time>
      </trkpt>
      <trkpt lat="48.38696" lon="2.15601">
        <ele>113</ele>
        <time>2011-04-15T14:02:32Z</time>
      </trkpt>
      <trkpt lat="48.38697" lon="2.15604">
        <ele>113</ele>
        <time>2011-04-15T14:02:34Z</time>
      </trkpt>
      <trkpt lat="48.38697" lon="2.15607">
        <ele>113</ele>
        <time>2011-04-15T14:02:35Z</time>
      </trkpt>
      <trkpt lat="48.38698" lon="2.15608">
        <ele>113</ele>
        <time>2011-04-15T14:02:36Z</time>
      </trkpt>
      <trkpt lat="48.38699" lon="2.15612">
        <ele>113</ele>
        <time>2011-04-15T14:02:38Z</time>
      </trkpt>
      <trkpt lat="48.38701" lon="2.15613">
        <ele>113</ele>
        <time>2011-04-15T14:02:39Z</time>
      </trkpt>
      <trkpt lat="48.38702" lon="2.15615">
        <ele>113</ele>
        <time>2011-04-15T14:02:40Z</time>
      </trkpt>
      <trkpt lat="48.38702" lon="2.15617">
        <ele>113</ele>
        <time>2011-04-15T14:02:41Z</time>
      </trkpt>
      <trkpt lat="48.38702" lon="2.15619">
        <ele>113</ele>
        <time>2011-04-15T14:02:42Z</time>
      </trkpt>
      <trkpt lat="48.38703" lon="2.15621">
        <ele>113</ele>
        <time>2011-04-15T14:02:43Z</time>
      </trkpt>
      <trkpt lat="48.38703" lon="2.15623">
        <ele>113</ele>
        <time>2011-04-15T14:02:44Z</time>
      </trkpt>
      <trkpt lat="48.38703" lon="2.15625">
        <ele>113</ele>
        <time>2011-04-15T14:02:45Z</time>
      </trkpt>
      <trkpt lat="48.38704" lon="2.15627">
        <ele>113</ele>
        <time>2011-04-15T14:02:46Z</time>
      </trkpt>
      <trkpt lat="48.38705" lon="2.15629">
        <ele>113</ele>
        <time>2011-04-15T14:02:47Z</time>
      </trkpt>
      <trkpt lat="48.38706" lon="2.15631">
        <ele>113</ele>
        <time>2011-04-15T14:02:48Z</time>
      </trkpt>
      <trkpt lat="48.38706" lon="2.15633">
        <ele>113</ele>
        <time>2011-04-15T14:02:49Z</time>
      </trkpt>
      <trkpt lat="48.38707" lon="2.15635">
        <ele>113</ele>
        <time>2011-04-15T14:02:50Z</time>
      </trkpt>
      <trkpt lat="48.38708" lon="2.15637">
        <ele>113</ele>
        <time>2011-04-15T14:02:51Z</time>
      </trkpt>
      <trkpt lat="48.38708" lon="2.15639">
        <ele>113</ele>
        <time>2011-04-15T14:02:52Z</time>
      </trkpt>
      <trkpt lat="48.38708" lon="2.15641">
        <ele>113</ele>
        <time>2011-04-15T14:02:53Z</time>
      </trkpt>
      <trkpt lat="48.38708" lon="2.15643">
        <ele>113</ele>
        <time>2011-04-15T14:02:54Z</time>
      </trkpt>
      <trkpt lat="48.38709" lon="2.15645">
        <ele>113</ele>
        <time>2011-04-15T14:02:55Z</time>
      </trkpt>
      <trkpt lat="48.38709" lon="2.15647">
        <ele>113</ele>
        <time>2011-04-15T14:02:56Z</time>
      </trkpt>
      <trkpt lat="48.38709" lon="2.15649">
        <ele>113</ele>
        <time>2011-04-15T14:02:57Z</time>
      </trkpt>
      <trkpt lat="48.38709" lon="2.15651">
        <ele>113</ele>
        <time>2011-04-15T14:02:58Z</time>
      </trkpt>
      <trkpt lat="48.3871" lon="2.15653">
        <ele>113</ele>
        <time>2011-04-15T14:02:59Z</time>
      </trkpt>
      <trkpt lat="48.3871" lon="2.15655">
        <ele>113</ele>
        <time>2011-04-15T14:03:00Z</time>
      </trkpt>
      <trkpt lat="48.3871" lon="2.15658">
        <ele>113</ele>
        <time>2011-04-15T14:03:01Z</time>
      </trkpt>
      <trkpt lat="48.38711" lon="2.1566">
        <ele>113</ele>
        <time>2011-04-15T14:03:02Z</time>
      </trkpt>
      <trkpt lat="48.38711" lon="2.15662">
        <ele>113</ele>
        <time>2011-04-15T14:03:03Z</time>
      </trkpt>
      <trkpt lat="48.38711" lon="2.15664">
        <ele>113</ele>
        <time>2011-04-15T14:03:04Z</time>
      </trkpt>
      <trkpt lat="48.38712" lon="2.15666">
        <ele>113</ele>
        <time>2011-04-15T14:03:05Z</time>
      </trkpt>
      <trkpt lat="48.38713" lon="2.15667">
        <ele>113</ele>
        <time>2011-04-15T14:03:06Z</time>
      </trkpt>
      <trkpt lat="48.38713" lon="2.15669">
        <ele>113</ele>
        <time>2011-04-15T14:03:07Z</time>
      </trkpt>
      <trkpt lat="48.38714" lon="2.15671">
        <ele>113</ele>
        <time>2011-04-15T14:03:08Z</time>
      </trkpt>
      <trkpt lat="48.38714" lon="2.15673">
        <ele>113</ele>
        <time>2011-04-15T14:03:09Z</time>
      </trkpt>
      <trkpt lat="48.38715" lon="2.15675">
        <ele>113</ele>
        <time>2011-04-15T14:03:10Z</time>
      </trkpt>
      <trkpt lat="48.38715" lon="2.15677">
        <ele>113</ele>
        <time>2011-04-15T14:03:11Z</time>
      </trkpt>
      <trkpt lat="48.38715" lon="2.15679">
        <ele>113</ele>
        <time>2011-04-15T14:03:12Z</time>
      </trkpt>
      <trkpt lat="48.38716" lon="2.15681">
        <ele>113</ele>
        <time>2011-04-15T14:03:13Z</time>
      </trkpt>
      <trkpt lat="48.38717" lon="2.15682">
        <ele>113</ele>
        <time>2011-04-15T14:03:14Z</time>
      </trkpt>
      <trkpt lat="48.38717" lon="2.15684">
        <ele>113</ele>
        <time>2011-04-15T14:03:15Z</time>
      </trkpt>
      <trkpt lat="48.38718" lon="2.15686">
        <ele>113</ele>
        <time>2011-04-15T14:03:16Z</time>
      </trkpt>
      <trkpt lat="48.38718" lon="2.15688">
        <ele>113</ele>
        <time>2011-04-15T14:03:17Z</time>
      </trkpt>
      <trkpt lat="48.38719" lon="2.1569">
        <ele>113</ele>
        <time>2011-04-15T14:03:18Z</time>
      </trkpt>
      <trkpt lat="48.3872" lon="2.15693">
        <ele>113</ele>
        <time>2011-04-15T14:03:19Z</time>
      </trkpt>
      <trkpt lat="48.3872" lon="2.15695">
        <ele>113</ele>
        <time>2011-04-15T14:03:20Z</time>
      </trkpt>
      <trkpt lat="48.38721" lon="2.15697">
        <ele>113</ele>
        <time>2011-04-15T14:03:21Z</time>
      </trkpt>
      <trkpt lat="48.38722" lon="2.15699">
        <ele>113</ele>
        <time>2011-04-15T14:03:22Z</time>
      </trkpt>
      <trkpt lat="48.38723" lon="2.157">
        <ele>113</ele>
        <time>2011-04-15T14:03:23Z</time>
      </trkpt>
      <trkpt lat="48.38724" lon="2.15702">
        <ele>113</ele>
        <time>2011-04-15T14:03:24Z</time>
      </trkpt>
      <trkpt lat="48.38724" lon="2.15704">
        <ele>113</ele>
        <time>2011-04-15T14:03:25Z</time>
      </trkpt>
      <trkpt lat="48.38724" lon="2.15706">
        <ele>113</ele>
        <time>2011-04-15T14:03:26Z</time>
      </trkpt>
      <trkpt lat="48.38724" lon="2.15708">
        <ele>113</ele>
        <time>2011-04-15T14:03:27Z</time>
      </trkpt>
      <trkpt lat="48.38725" lon="2.1571">
        <ele>113</ele>
        <time>2011-04-15T14:03:28Z</time>
      </trkpt>
      <trkpt lat="48.38728" lon="2.15711">
        <ele>113</ele>
        <time>2011-04-15T14:03:29Z</time>
      </trkpt>
      <trkpt lat="48.3873" lon="2.15713">
        <ele>113</ele>
        <time>2011-04-15T14:03:30Z</time>
      </trkpt>
      <trkpt lat="48.38729" lon="2.15715">
        <ele>113</ele>
        <time>2011-04-15T14:03:31Z</time>
      </trkpt>
      <trkpt lat="48.38729" lon="2.15717">
        <ele>113</ele>
        <time>2011-04-15T14:03:32Z</time>
      </trkpt>
      <trkpt lat="48.3873" lon="2.15719">
        <ele>113</ele>
        <time>2011-04-15T14:03:33Z</time>
      </trkpt>
      <trkpt lat="48.3873" lon="2.15721">
        <ele>113</ele>
        <time>2011-04-15T14:03:34Z</time>
      </trkpt>
      <trkpt lat="48.3873" lon="2.15723">
        <ele>113</ele>
        <time>2011-04-15T14:03:35Z</time>
      </trkpt>
      <trkpt lat="48.3873" lon="2.15725">
        <ele>113</ele>
        <time>2011-04-15T14:03:36Z</time>
      </trkpt>
      <trkpt lat="48.3873" lon="2.15727">
        <ele>113</ele>
        <time>2011-04-15T14:03:37Z</time>
      </trkpt>
      <trkpt lat="48.3873" lon="2.15729">
        <ele>113</ele>
        <time>2011-04-15T14:03:38Z</time>
      </trkpt>
      <trkpt lat="48.3873" lon="2.15731">
        <ele>113</ele>
        <time>2011-04-15T14:03:39Z</time>
      </trkpt>
      <trkpt lat="48.3873" lon="2.15733">
        <ele>113</ele>
        <time>2011-04-15T14:03:40Z</time>
      </trkpt>
      <trkpt lat="48.38731" lon="2.15735">
        <ele>113</ele>
        <time>2011-04-15T14:03:41Z</time>
      </trkpt>
      <trkpt lat="48.38731" lon="2.15737">
        <ele>113</ele>
        <time>2011-04-15T14:03:42Z</time>
      </trkpt>
      <trkpt lat="48.38731" lon="2.15739">
        <ele>113</ele>
        <time>2011-04-15T14:03:43Z</time>
      </trkpt>
      <trkpt lat="48.38731" lon="2.15741">
        <ele>113</ele>
        <time>2011-04-15T14:03:44Z</time>
      </trkpt>
      <trkpt lat="48.38732" lon="2.15744">
        <ele>113</ele>
        <time>2011-04-15T14:03:45Z</time>
      </trkpt>
      <trkpt lat="48.38732" lon="2.15746">
        <ele>113</ele>
        <time>2011-04-15T14:03:46Z</time>
      </trkpt>
      <trkpt lat="48.38732" lon="2.15748">
        <ele>113</ele>
        <time>2011-04-15T14:03:47Z</time>
      </trkpt>
      <trkpt lat="48.38732" lon="2.1575">
        <ele>113</ele>
        <time>2011-04-15T14:03:48Z</time>
      </trkpt>
      <trkpt lat="48.38732" lon="2.15752">
        <ele>113</ele>
        <time>2011-04-15T14:03:49Z</time>
      </trkpt>
      <trkpt lat="48.38733" lon="2.15754">
        <ele>113</ele>
        <time>2011-04-15T14:03:50Z</time>
      </trkpt>
      <trkpt lat="48.38733" lon="2.15756">
        <ele>113</ele>
        <time>2011-04-15T14:03:51Z</time>
      </trkpt>
      <trkpt lat="48.38733" lon="2.15758">
        <ele>113</ele>
        <time>2011-04-15T14:03:52Z</time>
      </trkpt>
      <trkpt lat="48.38733" lon="2.1576">
        <ele>113</ele>
        <time>2011-04-15T14:03:53Z</time>
      </trkpt>
      <trkpt lat="48.38733" lon="2.15762">
        <ele>113</ele>
        <time>2011-04-15T14:03:54Z</time>
      </trkpt>
      <trkpt lat="48.38733" lon="2.15764">
        <ele>113</ele>
        <time>2011-04-15T14:03:55Z</time>
      </trkpt>
      <trkpt lat="48.38734" lon="2.15766">
        <ele>113</ele>
        <time>2011-04-15T14:03:56Z</time>
      </trkpt>
      <trkpt lat="48.38734" lon="2.15768">
        <ele>113</ele>
        <time>2011-04-15T14:03:57Z</time>
      </trkpt>
      <trkpt lat="48.38734" lon="2.1577">
        <ele>113</ele>
        <time>2011-04-15T14:03:58Z</time>
      </trkpt>
      <trkpt lat="48.38733" lon="2.15772">
        <ele>113</ele>
        <time>2011-04-15T14:03:59Z</time>
      </trkpt>
      <trkpt lat="48.38733" lon="2.15774">
        <ele>113</ele>
        <time>2011-04-15T14:04:00Z</time>
      </trkpt>
      <trkpt lat="48.38733" lon="2.15777">
        <ele>113</ele>
        <time>2011-04-15T14:04:01Z</time>
      </trkpt>
      <trkpt lat="48.38733" lon="2.15779">
        <ele>113</ele>
        <time>2011-04-15T14:04:02Z</time>
      </trkpt>
      <trkpt lat="48.38733" lon="2.15781">
        <ele>113</ele>
        <time>2011-04-15T14:04:03Z</time>
      </trkpt>
      <trkpt lat="48.38733" lon="2.15783">
        <ele>113</ele>
        <time>2011-04-15T14:04:04Z</time>
      </trkpt>
      <trkpt lat="48.38734" lon="2.15786">
        <ele>113</ele>
        <time>2011-04-15T14:04:05Z</time>
      </trkpt>
      <trkpt lat="48.38733" lon="2.15788">
        <ele>113</ele>
        <time>2011-04-15T14:04:06Z</time>
      </trkpt>
      <trkpt lat="48.38732" lon="2.1579">
        <ele>113</ele>
        <time>2011-04-15T14:04:07Z</time>
      </trkpt>
      <trkpt lat="48.38732" lon="2.15792">
        <ele>113</ele>
        <time>2011-04-15T14:04:08Z</time>
      </trkpt>
      <trkpt lat="48.38732" lon="2.15794">
        <ele>113</ele>
        <time>2011-04-15T14:04:09Z</time>
      </trkpt>
      <trkpt lat="48.38732" lon="2.15795">
        <ele>113</ele>
        <time>2011-04-15T14:04:10Z</time>
      </trkpt>
      <trkpt lat="48.38734" lon="2.15797">
        <ele>113</ele>
        <time>2011-04-15T14:04:12Z</time>
      </trkpt>
      <trkpt lat="48.38736" lon="2.15795">
        <ele>114</ele>
        <time>2011-04-15T14:04:14Z</time>
      </trkpt>
      <trkpt lat="48.38737" lon="2.15793">
        <ele>114</ele>
        <time>2011-04-15T14:04:16Z</time>
      </trkpt>
      <trkpt lat="48.38737" lon="2.15791">
        <ele>116</ele>
        <time>2011-04-15T14:04:34Z</time>
      </trkpt>
      <trkpt lat="48.38737" lon="2.15788">
        <ele>116</ele>
        <time>2011-04-15T14:04:36Z</time>
      </trkpt>
      <trkpt lat="48.38737" lon="2.15786">
        <ele>116</ele>
        <time>2011-04-15T14:04:37Z</time>
      </trkpt>
      <trkpt lat="48.38737" lon="2.15784">
        <ele>116</ele>
        <time>2011-04-15T14:04:38Z</time>
      </trkpt>
      <trkpt lat="48.38736" lon="2.15782">
        <ele>116</ele>
        <time>2011-04-15T14:04:39Z</time>
      </trkpt>
      <trkpt lat="48.38736" lon="2.15781">
        <ele>116</ele>
        <time>2011-04-15T14:04:40Z</time>
      </trkpt>
      <trkpt lat="48.38736" lon="2.15779">
        <ele>116</ele>
        <time>2011-04-15T14:04:41Z</time>
      </trkpt>
      <trkpt lat="48.38736" lon="2.15777">
        <ele>116</ele>
        <time>2011-04-15T14:04:42Z</time>
      </trkpt>
      <trkpt lat="48.38736" lon="2.15774">
        <ele>116</ele>
        <time>2011-04-15T14:04:44Z</time>
      </trkpt>
      <trkpt lat="48.38736" lon="2.15772">
        <ele>116</ele>
        <time>2011-04-15T14:04:45Z</time>
      </trkpt>
      <trkpt lat="48.38735" lon="2.1577">
        <ele>116</ele>
        <time>2011-04-15T14:04:46Z</time>
      </trkpt>
      <trkpt lat="48.38735" lon="2.15768">
        <ele>116</ele>
        <time>2011-04-15T14:04:47Z</time>
      </trkpt>
      <trkpt lat="48.38735" lon="2.15767">
        <ele>116</ele>
        <time>2011-04-15T14:04:48Z</time>
      </trkpt>
      <trkpt lat="48.38735" lon="2.15765">
        <ele>116</ele>
        <time>2011-04-15T14:04:49Z</time>
      </trkpt>
      <trkpt lat="48.38735" lon="2.15763">
        <ele>116</ele>
        <time>2011-04-15T14:04:50Z</time>
      </trkpt>
      <trkpt lat="48.38735" lon="2.15762">
        <ele>116</ele>
        <time>2011-04-15T14:04:51Z</time>
      </trkpt>
      <trkpt lat="48.38735" lon="2.1576">
        <ele>116</ele>
        <time>2011-04-15T14:04:52Z</time>
      </trkpt>
      <trkpt lat="48.38735" lon="2.15758">
        <ele>116</ele>
        <time>2011-04-15T14:04:53Z</time>
      </trkpt>
      <trkpt lat="48.38734" lon="2.15755">
        <ele>116</ele>
        <time>2011-04-15T14:04:54Z</time>
      </trkpt>
      <trkpt lat="48.38735" lon="2.15753">
        <ele>116</ele>
        <time>2011-04-15T14:04:55Z</time>
      </trkpt>
      <trkpt lat="48.38735" lon="2.15751">
        <ele>116</ele>
        <time>2011-04-15T14:04:56Z</time>
      </trkpt>
      <trkpt lat="48.38734" lon="2.15749">
        <ele>116</ele>
        <time>2011-04-15T14:04:57Z</time>
      </trkpt>
      <trkpt lat="48.38734" lon="2.15747">
        <ele>116</ele>
        <time>2011-04-15T14:04:58Z</time>
      </trkpt>
      <trkpt lat="48.38734" lon="2.15744">
        <ele>116</ele>
        <time>2011-04-15T14:04:59Z</time>
      </trkpt>
      <trkpt lat="48.38733" lon="2.15742">
        <ele>116</ele>
        <time>2011-04-15T14:05:00Z</time>
      </trkpt>
      <trkpt lat="48.38733" lon="2.1574">
        <ele>116</ele>
        <time>2011-04-15T14:05:01Z</time>
      </trkpt>
      <trkpt lat="48.38733" lon="2.15739">
        <ele>116</ele>
        <time>2011-04-15T14:05:02Z</time>
      </trkpt>
      <trkpt lat="48.38733" lon="2.15737">
        <ele>116</ele>
        <time>2011-04-15T14:05:03Z</time>
      </trkpt>
      <trkpt lat="48.38733" lon="2.15735">
        <ele>116</ele>
        <time>2011-04-15T14:05:04Z</time>
      </trkpt>
      <trkpt lat="48.38733" lon="2.15733">
        <ele>116</ele>
        <time>2011-04-15T14:05:05Z</time>
      </trkpt>
      <trkpt lat="48.38733" lon="2.15731">
        <ele>116</ele>
        <time>2011-04-15T14:05:06Z</time>
      </trkpt>
      <trkpt lat="48.38733" lon="2.15729">
        <ele>116</ele>
        <time>2011-04-15T14:05:07Z</time>
      </trkpt>
      <trkpt lat="48.38733" lon="2.15727">
        <ele>116</ele>
        <time>2011-04-15T14:05:08Z</time>
      </trkpt>
      <trkpt lat="48.38733" lon="2.15725">
        <ele>116</ele>
        <time>2011-04-15T14:05:09Z</time>
      </trkpt>
      <trkpt lat="48.38733" lon="2.15723">
        <ele>116</ele>
        <time>2011-04-15T14:05:10Z</time>
      </trkpt>
      <trkpt lat="48.38733" lon="2.15721">
        <ele>116</ele>
        <time>2011-04-15T14:05:11Z</time>
      </trkpt>
      <trkpt lat="48.38733" lon="2.15718">
        <ele>117</ele>
        <time>2011-04-15T14:05:12Z</time>
      </trkpt>
      <trkpt lat="48.38733" lon="2.15716">
        <ele>117</ele>
        <time>2011-04-15T14:05:13Z</time>
      </trkpt>
      <trkpt lat="48.38733" lon="2.15714">
        <ele>117</ele>
        <time>2011-04-15T14:05:14Z</time>
      </trkpt>
      <trkpt lat="48.38733" lon="2.15712">
        <ele>118</ele>
        <time>2011-04-15T14:05:15Z</time>
      </trkpt>
      <trkpt lat="48.38733" lon="2.1571">
        <ele>118</ele>
        <time>2011-04-15T14:05:16Z</time>
      </trkpt>
      <trkpt lat="48.38733" lon="2.15708">
        <ele>118</ele>
        <time>2011-04-15T14:05:17Z</time>
      </trkpt>
      <trkpt lat="48.38732" lon="2.15706">
        <ele>119</ele>
        <time>2011-04-15T14:05:18Z</time>
      </trkpt>
      <trkpt lat="48.38732" lon="2.15704">
        <ele>119</ele>
        <time>2011-04-15T14:05:19Z</time>
      </trkpt>
      <trkpt lat="48.38732" lon="2.15702">
        <ele>119</ele>
        <time>2011-04-15T14:05:20Z</time>
      </trkpt>
      <trkpt lat="48.38732" lon="2.157">
        <ele>119</ele>
        <time>2011-04-15T14:05:21Z</time>
      </trkpt>
      <trkpt lat="48.38732" lon="2.15697">
        <ele>120</ele>
        <time>2011-04-15T14:05:22Z</time>
      </trkpt>
      <trkpt lat="48.38732" lon="2.15695">
        <ele>120</ele>
        <time>2011-04-15T14:05:23Z</time>
      </trkpt>
      <trkpt lat="48.38732" lon="2.15693">
        <ele>120</ele>
        <time>2011-04-15T14:05:24Z</time>
      </trkpt>
      <trkpt lat="48.38732" lon="2.15691">
        <ele>120</ele>
        <time>2011-04-15T14:05:25Z</time>
      </trkpt>
      <trkpt lat="48.38733" lon="2.15689">
        <ele>120</ele>
        <time>2011-04-15T14:05:26Z</time>
      </trkpt>
      <trkpt lat="48.38733" lon="2.15687">
        <ele>120</ele>
        <time>2011-04-15T14:05:27Z</time>
      </trkpt>
      <trkpt lat="48.38733" lon="2.15685">
        <ele>120</ele>
        <time>2011-04-15T14:05:28Z</time>
      </trkpt>
      <trkpt lat="48.38733" lon="2.15683">
        <ele>121</ele>
        <time>2011-04-15T14:05:29Z</time>
      </trkpt>
      <trkpt lat="48.38733" lon="2.15681">
        <ele>121</ele>
        <time>2011-04-15T14:05:30Z</time>
      </trkpt>
      <trkpt lat="48.38733" lon="2.15679">
        <ele>121</ele>
        <time>2011-04-15T14:05:31Z</time>
      </trkpt>
      <trkpt lat="48.38733" lon="2.15677">
        <ele>121</ele>
        <time>2011-04-15T14:05:32Z</time>
      </trkpt>
      <trkpt lat="48.38733" lon="2.15674">
        <ele>121</ele>
        <time>2011-04-15T14:05:33Z</time>
      </trkpt>
      <trkpt lat="48.38733" lon="2.15672">
        <ele>121</ele>
        <time>2011-04-15T14:05:34Z</time>
      </trkpt>
      <trkpt lat="48.38733" lon="2.1567">
        <ele>121</ele>
        <time>2011-04-15T14:05:35Z</time>
      </trkpt>
      <trkpt lat="48.38733" lon="2.15668">
        <ele>121</ele>
        <time>2011-04-15T14:05:36Z</time>
      </trkpt>
      <trkpt lat="48.38733" lon="2.15666">
        <ele>121</ele>
        <time>2011-04-15T14:05:37Z</time>
      </trkpt>
      <trkpt lat="48.38734" lon="2.15664">
        <ele>121</ele>
        <time>2011-04-15T14:05:38Z</time>
      </trkpt>
      <trkpt lat="48.38734" lon="2.15661">
        <ele>121</ele>
        <time>2011-04-15T14:05:39Z</time>
      </trkpt>
      <trkpt lat="48.38734" lon="2.1566">
        <ele>121</ele>
        <time>2011-04-15T14:05:40Z</time>
      </trkpt>
      <trkpt lat="48.38734" lon="2.15658">
        <ele>121</ele>
        <time>2011-04-15T14:05:41Z</time>
      </trkpt>
      <trkpt lat="48.38734" lon="2.15656">
        <ele>121</ele>
        <time>2011-04-15T14:05:42Z</time>
      </trkpt>
      <trkpt lat="48.38734" lon="2.15654">
        <ele>121</ele>
        <time>2011-04-15T14:05:43Z</time>
      </trkpt>
      <trkpt lat="48.38734" lon="2.15652">
        <ele>121</ele>
        <time>2011-04-15T14:05:44Z</time>
      </trkpt>
      <trkpt lat="48.38734" lon="2.1565">
        <ele>121</ele>
        <time>2011-04-15T14:05:45Z</time>
      </trkpt>
      <trkpt lat="48.38735" lon="2.15648">
        <ele>121</ele>
        <time>2011-04-15T14:05:46Z</time>
      </trkpt>
      <trkpt lat="48.38735" lon="2.15646">
        <ele>121</ele>
        <time>2011-04-15T14:05:47Z</time>
      </trkpt>
      <trkpt lat="48.38735" lon="2.15644">
        <ele>121</ele>
        <time>2011-04-15T14:05:48Z</time>
      </trkpt>
      <trkpt lat="48.38735" lon="2.15641">
        <ele>121</ele>
        <time>2011-04-15T14:05:49Z</time>
      </trkpt>
      <trkpt lat="48.38735" lon="2.15639">
        <ele>121</ele>
        <time>2011-04-15T14:05:50Z</time>
      </trkpt>
      <trkpt lat="48.38735" lon="2.15637">
        <ele>121</ele>
        <time>2011-04-15T14:05:51Z</time>
      </trkpt>
      <trkpt lat="48.38735" lon="2.15635">
        <ele>121</ele>
        <time>2011-04-15T14:05:52Z</time>
      </trkpt>
      <trkpt lat="48.38736" lon="2.15633">
        <ele>121</ele>
        <time>2011-04-15T14:05:53Z</time>
      </trkpt>
      <trkpt lat="48.38736" lon="2.15631">
        <ele>121</ele>
        <time>2011-04-15T14:05:54Z</time>
      </trkpt>
      <trkpt lat="48.38736" lon="2.15629">
        <ele>121</ele>
        <time>2011-04-15T14:05:55Z</time>
      </trkpt>
      <trkpt lat="48.38736" lon="2.15627">
        <ele>121</ele>
        <time>2011-04-15T14:05:56Z</time>
      </trkpt>
      <trkpt lat="48.38735" lon="2.15625">
        <ele>121</ele>
        <time>2011-04-15T14:05:57Z</time>
      </trkpt>
      <trkpt lat="48.38735" lon="2.15622">
        <ele>121</ele>
        <time>2011-04-15T14:05:58Z</time>
      </trkpt>
      <trkpt lat="48.38735" lon="2.1562">
        <ele>121</ele>
        <time>2011-04-15T14:05:59Z</time>
      </trkpt>
      <trkpt lat="48.38735" lon="2.15618">
        <ele>121</ele>
        <time>2011-04-15T14:06:00Z</time>
      </trkpt>
      <trkpt lat="48.38735" lon="2.15616">
        <ele>121</ele>
        <time>2011-04-15T14:06:01Z</time>
      </trkpt>
      <trkpt lat="48.38735" lon="2.15614">
        <ele>121</ele>
        <time>2011-04-15T14:06:02Z</time>
      </trkpt>
      <trkpt lat="48.38736" lon="2.15612">
        <ele>121</ele>
        <time>2011-04-15T14:06:03Z</time>
      </trkpt>
      <trkpt lat="48.38736" lon="2.1561">
        <ele>121</ele>
        <time>2011-04-15T14:06:04Z</time>
      </trkpt>
      <trkpt lat="48.38736" lon="2.15608">
        <ele>121</ele>
        <time>2011-04-15T14:06:05Z</time>
      </trkpt>
      <trkpt lat="48.38735" lon="2.15606">
        <ele>121</ele>
        <time>2011-04-15T14:06:06Z</time>
      </trkpt>
      <trkpt lat="48.38735" lon="2.15604">
        <ele>121</ele>
        <time>2011-04-15T14:06:07Z</time>
      </trkpt>
      <trkpt lat="48.38736" lon="2.15602">
        <ele>121</ele>
        <time>2011-04-15T14:06:08Z</time>
      </trkpt>
      <trkpt lat="48.38736" lon="2.156">
        <ele>121</ele>
        <time>2011-04-15T14:06:09Z</time>
      </trkpt>
      <trkpt lat="48.38736" lon="2.15598">
        <ele>121</ele>
        <time>2011-04-15T14:06:10Z</time>
      </trkpt>
      <trkpt lat="48.38736" lon="2.15596">
        <ele>121</ele>
        <time>2011-04-15T14:06:11Z</time>
      </trkpt>
      <trkpt lat="48.38736" lon="2.15594">
        <ele>121</ele>
        <time>2011-04-15T14:06:12Z</time>
      </trkpt>
      <trkpt lat="48.38736" lon="2.15592">
        <ele>121</ele>
        <time>2011-04-15T14:06:13Z</time>
      </trkpt>
      <trkpt lat="48.38736" lon="2.1559">
        <ele>121</ele>
        <time>2011-04-15T14:06:14Z</time>
      </trkpt>
      <trkpt lat="48.38736" lon="2.15588">
        <ele>121</ele>
        <time>2011-04-15T14:06:15Z</time>
      </trkpt>
      <trkpt lat="48.38737" lon="2.15586">
        <ele>121</ele>
        <time>2011-04-15T14:06:16Z</time>
      </trkpt>
      <trkpt lat="48.38737" lon="2.15584">
        <ele>121</ele>
        <time>2011-04-15T14:06:17Z</time>
      </trkpt>
      <trkpt lat="48.38738" lon="2.15583">
        <ele>121</ele>
        <time>2011-04-15T14:06:18Z</time>
      </trkpt>
      <trkpt lat="48.38739" lon="2.1558">
        <ele>121</ele>
        <time>2011-04-15T14:06:20Z</time>
      </trkpt>
      <trkpt lat="48.3874" lon="2.15579">
        <ele>121</ele>
        <time>2011-04-15T14:06:21Z</time>
      </trkpt>
      <trkpt lat="48.38741" lon="2.15577">
        <ele>121</ele>
        <time>2011-04-15T14:06:23Z</time>
      </trkpt>
      <trkpt lat="48.38739" lon="2.15576">
        <ele>121</ele>
        <time>2011-04-15T14:06:26Z</time>
      </trkpt>
      <trkpt lat="48.38738" lon="2.15576">
        <ele>121</ele>
        <time>2011-04-15T14:06:27Z</time>
      </trkpt>
      <trkpt lat="48.38737" lon="2.15575">
        <ele>121</ele>
        <time>2011-04-15T14:06:28Z</time>
      </trkpt>
      <trkpt lat="48.38735" lon="2.15572">
        <ele>121</ele>
        <time>2011-04-15T14:06:30Z</time>
      </trkpt>
      <trkpt lat="48.38734" lon="2.1557">
        <ele>121</ele>
        <time>2011-04-15T14:06:31Z</time>
      </trkpt>
      <trkpt lat="48.38733" lon="2.15567">
        <ele>121</ele>
        <time>2011-04-15T14:06:33Z</time>
      </trkpt>
      <trkpt lat="48.38733" lon="2.15565">
        <ele>121</ele>
        <time>2011-04-15T14:06:34Z</time>
      </trkpt>
      <trkpt lat="48.38733" lon="2.15562">
        <ele>121</ele>
        <time>2011-04-15T14:06:35Z</time>
      </trkpt>
      <trkpt lat="48.38732" lon="2.1556">
        <ele>121</ele>
        <time>2011-04-15T14:06:36Z</time>
      </trkpt>
      <trkpt lat="48.38732" lon="2.15559">
        <ele>121</ele>
        <time>2011-04-15T14:06:37Z</time>
      </trkpt>
      <trkpt lat="48.38731" lon="2.15556">
        <ele>121</ele>
        <time>2011-04-15T14:06:38Z</time>
      </trkpt>
      <trkpt lat="48.3873" lon="2.15553">
        <ele>121</ele>
        <time>2011-04-15T14:06:39Z</time>
      </trkpt>
      <trkpt lat="48.3873" lon="2.15551">
        <ele>121</ele>
        <time>2011-04-15T14:06:40Z</time>
      </trkpt>
      <trkpt lat="48.3873" lon="2.15549">
        <ele>121</ele>
        <time>2011-04-15T14:06:41Z</time>
      </trkpt>
      <trkpt lat="48.38729" lon="2.15548">
        <ele>121</ele>
        <time>2011-04-15T14:06:42Z</time>
      </trkpt>
      <trkpt lat="48.38729" lon="2.15546">
        <ele>121</ele>
        <time>2011-04-15T14:06:43Z</time>
      </trkpt>
      <trkpt lat="48.38728" lon="2.15544">
        <ele>121</ele>
        <time>2011-04-15T14:06:44Z</time>
      </trkpt>
      <trkpt lat="48.38728" lon="2.15542">
        <ele>121</ele>
        <time>2011-04-15T14:06:45Z</time>
      </trkpt>
      <trkpt lat="48.38727" lon="2.1554">
        <ele>121</ele>
        <time>2011-04-15T14:06:46Z</time>
      </trkpt>
      <trkpt lat="48.38727" lon="2.15537">
        <ele>121</ele>
        <time>2011-04-15T14:06:47Z</time>
      </trkpt>
      <trkpt lat="48.38726" lon="2.15535">
        <ele>121</ele>
        <time>2011-04-15T14:06:48Z</time>
      </trkpt>
      <trkpt lat="48.38726" lon="2.15533">
        <ele>121</ele>
        <time>2011-04-15T14:06:49Z</time>
      </trkpt>
      <trkpt lat="48.38726" lon="2.15532">
        <ele>121</ele>
        <time>2011-04-15T14:06:50Z</time>
      </trkpt>
      <trkpt lat="48.38726" lon="2.1553">
        <ele>121</ele>
        <time>2011-04-15T14:06:51Z</time>
      </trkpt>
      <trkpt lat="48.38725" lon="2.15528">
        <ele>121</ele>
        <time>2011-04-15T14:06:52Z</time>
      </trkpt>
      <trkpt lat="48.38725" lon="2.15526">
        <ele>121</ele>
        <time>2011-04-15T14:06:53Z</time>
      </trkpt>
      <trkpt lat="48.38724" lon="2.15524">
        <ele>121</ele>
        <time>2011-04-15T14:06:54Z</time>
      </trkpt>
      <trkpt lat="48.38724" lon="2.15522">
        <ele>121</ele>
        <time>2011-04-15T14:06:55Z</time>
      </trkpt>
      <trkpt lat="48.38724" lon="2.1552">
        <ele>121</ele>
        <time>2011-04-15T14:06:56Z</time>
      </trkpt>
      <trkpt lat="48.38724" lon="2.15518">
        <ele>121</ele>
        <time>2011-04-15T14:06:57Z</time>
      </trkpt>
      <trkpt lat="48.38723" lon="2.15516">
        <ele>121</ele>
        <time>2011-04-15T14:06:58Z</time>
      </trkpt>
      <trkpt lat="48.38723" lon="2.15514">
        <ele>121</ele>
        <time>2011-04-15T14:06:59Z</time>
      </trkpt>
      <trkpt lat="48.38722" lon="2.15512">
        <ele>121</ele>
        <time>2011-04-15T14:07:00Z</time>
      </trkpt>
      <trkpt lat="48.38722" lon="2.1551">
        <ele>121</ele>
        <time>2011-04-15T14:07:01Z</time>
      </trkpt>
      <trkpt lat="48.38721" lon="2.15508">
        <ele>121</ele>
        <time>2011-04-15T14:07:02Z</time>
      </trkpt>
      <trkpt lat="48.3872" lon="2.15505">
        <ele>121</ele>
        <time>2011-04-15T14:07:03Z</time>
      </trkpt>
      <trkpt lat="48.3872" lon="2.15503">
        <ele>121</ele>
        <time>2011-04-15T14:07:04Z</time>
      </trkpt>
      <trkpt lat="48.38719" lon="2.15502">
        <ele>121</ele>
        <time>2011-04-15T14:07:05Z</time>
      </trkpt>
      <trkpt lat="48.38718" lon="2.15499">
        <ele>121</ele>
        <time>2011-04-15T14:07:06Z</time>
      </trkpt>
      <trkpt lat="48.38718" lon="2.15498">
        <ele>121</ele>
        <time>2011-04-15T14:07:07Z</time>
      </trkpt>
      <trkpt lat="48.38717" lon="2.15494">
        <ele>121</ele>
        <time>2011-04-15T14:07:09Z</time>
      </trkpt>
      <trkpt lat="48.38716" lon="2.15493">
        <ele>121</ele>
        <time>2011-04-15T14:07:10Z</time>
      </trkpt>
      <trkpt lat="48.38716" lon="2.15491">
        <ele>121</ele>
        <time>2011-04-15T14:07:11Z</time>
      </trkpt>
      <trkpt lat="48.38715" lon="2.15489">
        <ele>121</ele>
        <time>2011-04-15T14:07:12Z</time>
      </trkpt>
      <trkpt lat="48.38715" lon="2.15487">
        <ele>121</ele>
        <time>2011-04-15T14:07:13Z</time>
      </trkpt>
      <trkpt lat="48.38714" lon="2.15486">
        <ele>121</ele>
        <time>2011-04-15T14:07:14Z</time>
      </trkpt>
      <trkpt lat="48.38713" lon="2.15484">
        <ele>121</ele>
        <time>2011-04-15T14:07:15Z</time>
      </trkpt>
      <trkpt lat="48.38713" lon="2.15482">
        <ele>121</ele>
        <time>2011-04-15T14:07:16Z</time>
      </trkpt>
      <trkpt lat="48.38712" lon="2.15479">
        <ele>122</ele>
        <time>2011-04-15T14:07:18Z</time>
      </trkpt>
      <trkpt lat="48.3871" lon="2.15476">
        <ele>122</ele>
        <time>2011-04-15T14:07:20Z</time>
      </trkpt>
      <trkpt lat="48.3871" lon="2.15474">
        <ele>122</ele>
        <time>2011-04-15T14:07:21Z</time>
      </trkpt>
      <trkpt lat="48.38709" lon="2.15472">
        <ele>122</ele>
        <time>2011-04-15T14:07:22Z</time>
      </trkpt>
      <trkpt lat="48.38708" lon="2.15471">
        <ele>122</ele>
        <time>2011-04-15T14:07:23Z</time>
      </trkpt>
      <trkpt lat="48.38708" lon="2.15469">
        <ele>122</ele>
        <time>2011-04-15T14:07:24Z</time>
      </trkpt>
      <trkpt lat="48.38707" lon="2.15467">
        <ele>122</ele>
        <time>2011-04-15T14:07:25Z</time>
      </trkpt>
      <trkpt lat="48.38706" lon="2.15465">
        <ele>122</ele>
        <time>2011-04-15T14:07:27Z</time>
      </trkpt>
      <trkpt lat="48.38705" lon="2.15463">
        <ele>122</ele>
        <time>2011-04-15T14:07:28Z</time>
      </trkpt>
      <trkpt lat="48.38704" lon="2.15461">
        <ele>122</ele>
        <time>2011-04-15T14:07:29Z</time>
      </trkpt>
      <trkpt lat="48.38703" lon="2.15458">
        <ele>122</ele>
        <time>2011-04-15T14:07:31Z</time>
      </trkpt>
      <trkpt lat="48.38703" lon="2.15456">
        <ele>122</ele>
        <time>2011-04-15T14:07:32Z</time>
      </trkpt>
      <trkpt lat="48.38701" lon="2.15453">
        <ele>122</ele>
        <time>2011-04-15T14:07:34Z</time>
      </trkpt>
      <trkpt lat="48.387" lon="2.15451">
        <ele>122</ele>
        <time>2011-04-15T14:07:36Z</time>
      </trkpt>
      <trkpt lat="48.38699" lon="2.15448">
        <ele>122</ele>
        <time>2011-04-15T14:07:38Z</time>
      </trkpt>
      <trkpt lat="48.38698" lon="2.15446">
        <ele>122</ele>
        <time>2011-04-15T14:07:39Z</time>
      </trkpt>
      <trkpt lat="48.38697" lon="2.15445">
        <ele>122</ele>
        <time>2011-04-15T14:07:40Z</time>
      </trkpt>
      <trkpt lat="48.38696" lon="2.15443">
        <ele>122</ele>
        <time>2011-04-15T14:07:41Z</time>
      </trkpt>
      <trkpt lat="48.38696" lon="2.15441">
        <ele>122</ele>
        <time>2011-04-15T14:07:42Z</time>
      </trkpt>
      <trkpt lat="48.38694" lon="2.15439">
        <ele>122</ele>
        <time>2011-04-15T14:07:43Z</time>
      </trkpt>
      <trkpt lat="48.38693" lon="2.15438">
        <ele>122</ele>
        <time>2011-04-15T14:07:44Z</time>
      </trkpt>
      <trkpt lat="48.38693" lon="2.15436">
        <ele>122</ele>
        <time>2011-04-15T14:07:45Z</time>
      </trkpt>
      <trkpt lat="48.38692" lon="2.15434">
        <ele>122</ele>
        <time>2011-04-15T14:07:46Z</time>
      </trkpt>
      <trkpt lat="48.38691" lon="2.15432">
        <ele>122</ele>
        <time>2011-04-15T14:07:47Z</time>
      </trkpt>
      <trkpt lat="48.38691" lon="2.15431">
        <ele>122</ele>
        <time>2011-04-15T14:07:48Z</time>
      </trkpt>
      <trkpt lat="48.3869" lon="2.15429">
        <ele>122</ele>
        <time>2011-04-15T14:07:49Z</time>
      </trkpt>
      <trkpt lat="48.38689" lon="2.15427">
        <ele>122</ele>
        <time>2011-04-15T14:07:50Z</time>
      </trkpt>
      <trkpt lat="48.38688" lon="2.15425">
        <ele>122</ele>
        <time>2011-04-15T14:07:51Z</time>
      </trkpt>
      <trkpt lat="48.38688" lon="2.15423">
        <ele>122</ele>
        <time>2011-04-15T14:07:52Z</time>
      </trkpt>
      <trkpt lat="48.38687" lon="2.15421">
        <ele>122</ele>
        <time>2011-04-15T14:07:53Z</time>
      </trkpt>
      <trkpt lat="48.38686" lon="2.15419">
        <ele>122</ele>
        <time>2011-04-15T14:07:54Z</time>
      </trkpt>
      <trkpt lat="48.38685" lon="2.15417">
        <ele>122</ele>
        <time>2011-04-15T14:07:55Z</time>
      </trkpt>
      <trkpt lat="48.38684" lon="2.15415">
        <ele>122</ele>
        <time>2011-04-15T14:07:56Z</time>
      </trkpt>
      <trkpt lat="48.38683" lon="2.15413">
        <ele>122</ele>
        <time>2011-04-15T14:07:57Z</time>
      </trkpt>
      <trkpt lat="48.38682" lon="2.15411">
        <ele>122</ele>
        <time>2011-04-15T14:07:58Z</time>
      </trkpt>
      <trkpt lat="48.38682" lon="2.15409">
        <ele>122</ele>
        <time>2011-04-15T14:07:59Z</time>
      </trkpt>
      <trkpt lat="48.38681" lon="2.15407">
        <ele>122</ele>
        <time>2011-04-15T14:08:00Z</time>
      </trkpt>
      <trkpt lat="48.3868" lon="2.15405">
        <ele>122</ele>
        <time>2011-04-15T14:08:01Z</time>
      </trkpt>
      <trkpt lat="48.38679" lon="2.15403">
        <ele>122</ele>
        <time>2011-04-15T14:08:02Z</time>
      </trkpt>
      <trkpt lat="48.38679" lon="2.15401">
        <ele>122</ele>
        <time>2011-04-15T14:08:03Z</time>
      </trkpt>
      <trkpt lat="48.38678" lon="2.154">
        <ele>122</ele>
        <time>2011-04-15T14:08:04Z</time>
      </trkpt>
      <trkpt lat="48.38677" lon="2.15398">
        <ele>122</ele>
        <time>2011-04-15T14:08:05Z</time>
      </trkpt>
      <trkpt lat="48.38677" lon="2.15396">
        <ele>122</ele>
        <time>2011-04-15T14:08:06Z</time>
      </trkpt>
      <trkpt lat="48.38676" lon="2.15394">
        <ele>122</ele>
        <time>2011-04-15T14:08:07Z</time>
      </trkpt>
      <trkpt lat="48.38676" lon="2.15392">
        <ele>122</ele>
        <time>2011-04-15T14:08:08Z</time>
      </trkpt>
      <trkpt lat="48.38675" lon="2.15391">
        <ele>122</ele>
        <time>2011-04-15T14:08:09Z</time>
      </trkpt>
      <trkpt lat="48.38675" lon="2.15389">
        <ele>122</ele>
        <time>2011-04-15T14:08:10Z</time>
      </trkpt>
      <trkpt lat="48.38674" lon="2.15387">
        <ele>122</ele>
        <time>2011-04-15T14:08:11Z</time>
      </trkpt>
      <trkpt lat="48.38673" lon="2.15385">
        <ele>122</ele>
        <time>2011-04-15T14:08:13Z</time>
      </trkpt>
      <trkpt lat="48.38672" lon="2.15381">
        <ele>122</ele>
        <time>2011-04-15T14:08:15Z</time>
      </trkpt>
      <trkpt lat="48.38672" lon="2.15379">
        <ele>122</ele>
        <time>2011-04-15T14:08:16Z</time>
      </trkpt>
      <trkpt lat="48.38671" lon="2.15378">
        <ele>122</ele>
        <time>2011-04-15T14:08:17Z</time>
      </trkpt>
      <trkpt lat="48.3867" lon="2.15376">
        <ele>122</ele>
        <time>2011-04-15T14:08:18Z</time>
      </trkpt>
      <trkpt lat="48.38669" lon="2.15374">
        <ele>122</ele>
        <time>2011-04-15T14:08:19Z</time>
      </trkpt>
      <trkpt lat="48.38669" lon="2.15372">
        <ele>122</ele>
        <time>2011-04-15T14:08:20Z</time>
      </trkpt>
      <trkpt lat="48.38668" lon="2.1537">
        <ele>122</ele>
        <time>2011-04-15T14:08:21Z</time>
      </trkpt>
      <trkpt lat="48.38668" lon="2.15368">
        <ele>122</ele>
        <time>2011-04-15T14:08:22Z</time>
      </trkpt>
      <trkpt lat="48.38667" lon="2.15365">
        <ele>122</ele>
        <time>2011-04-15T14:08:24Z</time>
      </trkpt>
      <trkpt lat="48.38666" lon="2.15362">
        <ele>122</ele>
        <time>2011-04-15T14:08:26Z</time>
      </trkpt>
      <trkpt lat="48.38665" lon="2.1536">
        <ele>122</ele>
        <time>2011-04-15T14:08:27Z</time>
      </trkpt>
      <trkpt lat="48.38665" lon="2.15358">
        <ele>122</ele>
        <time>2011-04-15T14:08:28Z</time>
      </trkpt>
      <trkpt lat="48.38664" lon="2.15357">
        <ele>122</ele>
        <time>2011-04-15T14:08:29Z</time>
      </trkpt>
      <trkpt lat="48.38664" lon="2.15355">
        <ele>122</ele>
        <time>2011-04-15T14:08:30Z</time>
      </trkpt>
      <trkpt lat="48.38663" lon="2.15353">
        <ele>122</ele>
        <time>2011-04-15T14:08:31Z</time>
      </trkpt>
      <trkpt lat="48.38663" lon="2.15351">
        <ele>122</ele>
        <time>2011-04-15T14:08:32Z</time>
      </trkpt>
      <trkpt lat="48.38662" lon="2.15349">
        <ele>122</ele>
        <time>2011-04-15T14:08:33Z</time>
      </trkpt>
      <trkpt lat="48.38662" lon="2.15347">
        <ele>122</ele>
        <time>2011-04-15T14:08:34Z</time>
      </trkpt>
      <trkpt lat="48.38661" lon="2.15345">
        <ele>122</ele>
        <time>2011-04-15T14:08:35Z</time>
      </trkpt>
      <trkpt lat="48.38661" lon="2.15343">
        <ele>122</ele>
        <time>2011-04-15T14:08:36Z</time>
      </trkpt>
      <trkpt lat="48.3866" lon="2.15342">
        <ele>122</ele>
        <time>2011-04-15T14:08:37Z</time>
      </trkpt>
      <trkpt lat="48.38659" lon="2.1534">
        <ele>122</ele>
        <time>2011-04-15T14:08:38Z</time>
      </trkpt>
      <trkpt lat="48.38659" lon="2.15338">
        <ele>122</ele>
        <time>2011-04-15T14:08:39Z</time>
      </trkpt>
      <trkpt lat="48.38658" lon="2.15336">
        <ele>122</ele>
        <time>2011-04-15T14:08:40Z</time>
      </trkpt>
      <trkpt lat="48.38658" lon="2.15334">
        <ele>122</ele>
        <time>2011-04-15T14:08:41Z</time>
      </trkpt>
      <trkpt lat="48.38657" lon="2.15332">
        <ele>122</ele>
        <time>2011-04-15T14:08:42Z</time>
      </trkpt>
      <trkpt lat="48.38657" lon="2.1533">
        <ele>122</ele>
        <time>2011-04-15T14:08:43Z</time>
      </trkpt>
      <trkpt lat="48.38656" lon="2.15328">
        <ele>122</ele>
        <time>2011-04-15T14:08:44Z</time>
      </trkpt>
      <trkpt lat="48.38656" lon="2.15326">
        <ele>122</ele>
        <time>2011-04-15T14:08:45Z</time>
      </trkpt>
      <trkpt lat="48.38655" lon="2.15324">
        <ele>122</ele>
        <time>2011-04-15T14:08:46Z</time>
      </trkpt>
      <trkpt lat="48.38655" lon="2.15322">
        <ele>122</ele>
        <time>2011-04-15T14:08:47Z</time>
      </trkpt>
      <trkpt lat="48.38655" lon="2.1532">
        <ele>122</ele>
        <time>2011-04-15T14:08:48Z</time>
      </trkpt>
      <trkpt lat="48.38654" lon="2.15318">
        <ele>122</ele>
        <time>2011-04-15T14:08:49Z</time>
      </trkpt>
      <trkpt lat="48.38654" lon="2.15317">
        <ele>122</ele>
        <time>2011-04-15T14:08:50Z</time>
      </trkpt>
      <trkpt lat="48.38653" lon="2.15315">
        <ele>122</ele>
        <time>2011-04-15T14:08:51Z</time>
      </trkpt>
      <trkpt lat="48.38653" lon="2.15312">
        <ele>122</ele>
        <time>2011-04-15T14:08:52Z</time>
      </trkpt>
      <trkpt lat="48.38652" lon="2.1531">
        <ele>122</ele>
        <time>2011-04-15T14:08:53Z</time>
      </trkpt>
      <trkpt lat="48.38651" lon="2.15307">
        <ele>122</ele>
        <time>2011-04-15T14:08:54Z</time>
      </trkpt>
      <trkpt lat="48.38651" lon="2.15305">
        <ele>123</ele>
        <time>2011-04-15T14:08:55Z</time>
      </trkpt>
      <trkpt lat="48.38651" lon="2.15303">
        <ele>123</ele>
        <time>2011-04-15T14:08:56Z</time>
      </trkpt>
      <trkpt lat="48.3865" lon="2.15301">
        <ele>123</ele>
        <time>2011-04-15T14:08:57Z</time>
      </trkpt>
      <trkpt lat="48.38649" lon="2.15298">
        <ele>123</ele>
        <time>2011-04-15T14:08:59Z</time>
      </trkpt>
      <trkpt lat="48.38649" lon="2.15296">
        <ele>123</ele>
        <time>2011-04-15T14:09:00Z</time>
      </trkpt>
      <trkpt lat="48.38649" lon="2.15294">
        <ele>123</ele>
        <time>2011-04-15T14:09:01Z</time>
      </trkpt>
      <trkpt lat="48.38649" lon="2.15292">
        <ele>123</ele>
        <time>2011-04-15T14:09:02Z</time>
      </trkpt>
      <trkpt lat="48.38648" lon="2.15291">
        <ele>123</ele>
        <time>2011-04-15T14:09:03Z</time>
      </trkpt>
      <trkpt lat="48.38648" lon="2.15289">
        <ele>123</ele>
        <time>2011-04-15T14:09:04Z</time>
      </trkpt>
      <trkpt lat="48.38648" lon="2.15287">
        <ele>123</ele>
        <time>2011-04-15T14:09:05Z</time>
      </trkpt>
      <trkpt lat="48.38648" lon="2.15285">
        <ele>123</ele>
        <time>2011-04-15T14:09:06Z</time>
      </trkpt>
      <trkpt lat="48.38647" lon="2.15283">
        <ele>123</ele>
        <time>2011-04-15T14:09:07Z</time>
      </trkpt>
      <trkpt lat="48.38647" lon="2.15281">
        <ele>123</ele>
        <time>2011-04-15T14:09:08Z</time>
      </trkpt>
      <trkpt lat="48.38646" lon="2.15279">
        <ele>123</ele>
        <time>2011-04-15T14:09:09Z</time>
      </trkpt>
      <trkpt lat="48.38646" lon="2.15277">
        <ele>123</ele>
        <time>2011-04-15T14:09:10Z</time>
      </trkpt>
      <trkpt lat="48.38646" lon="2.15275">
        <ele>123</ele>
        <time>2011-04-15T14:09:11Z</time>
      </trkpt>
      <trkpt lat="48.38646" lon="2.15272">
        <ele>123</ele>
        <time>2011-04-15T14:09:12Z</time>
      </trkpt>
      <trkpt lat="48.38645" lon="2.15271">
        <ele>123</ele>
        <time>2011-04-15T14:09:13Z</time>
      </trkpt>
      <trkpt lat="48.38645" lon="2.15268">
        <ele>123</ele>
        <time>2011-04-15T14:09:14Z</time>
      </trkpt>
      <trkpt lat="48.38644" lon="2.15266">
        <ele>123</ele>
        <time>2011-04-15T14:09:15Z</time>
      </trkpt>
      <trkpt lat="48.38644" lon="2.15264">
        <ele>123</ele>
        <time>2011-04-15T14:09:16Z</time>
      </trkpt>
      <trkpt lat="48.38644" lon="2.15262">
        <ele>123</ele>
        <time>2011-04-15T14:09:17Z</time>
      </trkpt>
      <trkpt lat="48.38644" lon="2.15261">
        <ele>123</ele>
        <time>2011-04-15T14:09:18Z</time>
      </trkpt>
      <trkpt lat="48.38644" lon="2.15259">
        <ele>123</ele>
        <time>2011-04-15T14:09:19Z</time>
      </trkpt>
      <trkpt lat="48.38643" lon="2.15256">
        <ele>123</ele>
        <time>2011-04-15T14:09:20Z</time>
      </trkpt>
      <trkpt lat="48.38644" lon="2.15255">
        <ele>123</ele>
        <time>2011-04-15T14:09:21Z</time>
      </trkpt>
      <trkpt lat="48.38644" lon="2.15253">
        <ele>123</ele>
        <time>2011-04-15T14:09:22Z</time>
      </trkpt>
      <trkpt lat="48.38644" lon="2.15251">
        <ele>123</ele>
        <time>2011-04-15T14:09:23Z</time>
      </trkpt>
      <trkpt lat="48.38644" lon="2.15249">
        <ele>123</ele>
        <time>2011-04-15T14:09:24Z</time>
      </trkpt>
      <trkpt lat="48.38644" lon="2.15247">
        <ele>123</ele>
        <time>2011-04-15T14:09:25Z</time>
      </trkpt>
      <trkpt lat="48.38644" lon="2.15244">
        <ele>123</ele>
        <time>2011-04-15T14:09:26Z</time>
      </trkpt>
      <trkpt lat="48.38644" lon="2.15242">
        <ele>123</ele>
        <time>2011-04-15T14:09:27Z</time>
      </trkpt>
      <trkpt lat="48.38644" lon="2.15241">
        <ele>123</ele>
        <time>2011-04-15T14:09:28Z</time>
      </trkpt>
      <trkpt lat="48.38644" lon="2.15239">
        <ele>123</ele>
        <time>2011-04-15T14:09:29Z</time>
      </trkpt>
      <trkpt lat="48.38644" lon="2.15237">
        <ele>123</ele>
        <time>2011-04-15T14:09:30Z</time>
      </trkpt>
      <trkpt lat="48.38644" lon="2.15235">
        <ele>123</ele>
        <time>2011-04-15T14:09:31Z</time>
      </trkpt>
      <trkpt lat="48.38644" lon="2.15233">
        <ele>123</ele>
        <time>2011-04-15T14:09:32Z</time>
      </trkpt>
      <trkpt lat="48.38643" lon="2.1523">
        <ele>123</ele>
        <time>2011-04-15T14:09:33Z</time>
      </trkpt>
      <trkpt lat="48.38643" lon="2.15227">
        <ele>123</ele>
        <time>2011-04-15T14:09:34Z</time>
      </trkpt>
      <trkpt lat="48.38643" lon="2.15226">
        <ele>123</ele>
        <time>2011-04-15T14:09:35Z</time>
      </trkpt>
      <trkpt lat="48.38644" lon="2.15224">
        <ele>123</ele>
        <time>2011-04-15T14:09:36Z</time>
      </trkpt>
      <trkpt lat="48.38645" lon="2.15222">
        <ele>123</ele>
        <time>2011-04-15T14:09:37Z</time>
      </trkpt>
      <trkpt lat="48.38645" lon="2.1522">
        <ele>123</ele>
        <time>2011-04-15T14:09:38Z</time>
      </trkpt>
      <trkpt lat="48.38646" lon="2.15218">
        <ele>123</ele>
        <time>2011-04-15T14:09:39Z</time>
      </trkpt>
      <trkpt lat="48.38646" lon="2.15216">
        <ele>123</ele>
        <time>2011-04-15T14:09:40Z</time>
      </trkpt>
      <trkpt lat="48.38647" lon="2.15215">
        <ele>123</ele>
        <time>2011-04-15T14:09:41Z</time>
      </trkpt>
      <trkpt lat="48.38649" lon="2.15212">
        <ele>123</ele>
        <time>2011-04-15T14:09:43Z</time>
      </trkpt>
      <trkpt lat="48.38651" lon="2.15209">
        <ele>123</ele>
        <time>2011-04-15T14:09:45Z</time>
      </trkpt>
      <trkpt lat="48.38652" lon="2.15208">
        <ele>123</ele>
        <time>2011-04-15T14:09:46Z</time>
      </trkpt>
      <trkpt lat="48.38655" lon="2.15205">
        <ele>123</ele>
        <time>2011-04-15T14:09:48Z</time>
      </trkpt>
      <trkpt lat="48.38656" lon="2.15204">
        <ele>123</ele>
        <time>2011-04-15T14:09:49Z</time>
      </trkpt>
      <trkpt lat="48.38657" lon="2.15204">
        <ele>123</ele>
        <time>2011-04-15T14:09:50Z</time>
      </trkpt>
      <trkpt lat="48.38659" lon="2.15203">
        <ele>123</ele>
        <time>2011-04-15T14:09:51Z</time>
      </trkpt>
      <trkpt lat="48.3866" lon="2.15202">
        <ele>123</ele>
        <time>2011-04-15T14:09:52Z</time>
      </trkpt>
      <trkpt lat="48.38662" lon="2.15201">
        <ele>123</ele>
        <time>2011-04-15T14:09:53Z</time>
      </trkpt>
      <trkpt lat="48.38663" lon="2.152">
        <ele>123</ele>
        <time>2011-04-15T14:09:54Z</time>
      </trkpt>
      <trkpt lat="48.38664" lon="2.152">
        <ele>123</ele>
        <time>2011-04-15T14:09:55Z</time>
      </trkpt>
      <trkpt lat="48.38666" lon="2.15199">
        <ele>123</ele>
        <time>2011-04-15T14:09:56Z</time>
      </trkpt>
      <trkpt lat="48.38667" lon="2.15199">
        <ele>123</ele>
        <time>2011-04-15T14:09:57Z</time>
      </trkpt>
      <trkpt lat="48.38668" lon="2.15198">
        <ele>123</ele>
        <time>2011-04-15T14:09:58Z</time>
      </trkpt>
      <trkpt lat="48.3867" lon="2.15198">
        <ele>123</ele>
        <time>2011-04-15T14:09:59Z</time>
      </trkpt>
      <trkpt lat="48.38671" lon="2.15198">
        <ele>123</ele>
        <time>2011-04-15T14:10:00Z</time>
      </trkpt>
      <trkpt lat="48.38672" lon="2.15198">
        <ele>123</ele>
        <time>2011-04-15T14:10:01Z</time>
      </trkpt>
      <trkpt lat="48.38674" lon="2.15198">
        <ele>123</ele>
        <time>2011-04-15T14:10:02Z</time>
      </trkpt>
      <trkpt lat="48.38675" lon="2.15197">
        <ele>123</ele>
        <time>2011-04-15T14:10:03Z</time>
      </trkpt>
      <trkpt lat="48.38676" lon="2.15197">
        <ele>124</ele>
        <time>2011-04-15T14:10:04Z</time>
      </trkpt>
      <trkpt lat="48.38678" lon="2.15197">
        <ele>124</ele>
        <time>2011-04-15T14:10:05Z</time>
      </trkpt>
      <trkpt lat="48.38679" lon="2.15196">
        <ele>124</ele>
        <time>2011-04-15T14:10:06Z</time>
      </trkpt>
      <trkpt lat="48.38681" lon="2.15196">
        <ele>124</ele>
        <time>2011-04-15T14:10:07Z</time>
      </trkpt>
      <trkpt lat="48.38682" lon="2.15196">
        <ele>125</ele>
        <time>2011-04-15T14:10:08Z</time>
      </trkpt>
      <trkpt lat="48.38683" lon="2.15196">
        <ele>125</ele>
        <time>2011-04-15T14:10:09Z</time>
      </trkpt>
      <trkpt lat="48.38684" lon="2.15196">
        <ele>125</ele>
        <time>2011-04-15T14:10:10Z</time>
      </trkpt>
      <trkpt lat="48.38686" lon="2.15195">
        <ele>125</ele>
        <time>2011-04-15T14:10:11Z</time>
      </trkpt>
      <trkpt lat="48.38687" lon="2.15195">
        <ele>125</ele>
        <time>2011-04-15T14:10:12Z</time>
      </trkpt>
      <trkpt lat="48.38688" lon="2.15195">
        <ele>125</ele>
        <time>2011-04-15T14:10:13Z</time>
      </trkpt>
      <trkpt lat="48.3869" lon="2.15194">
        <ele>125</ele>
        <time>2011-04-15T14:10:14Z</time>
      </trkpt>
      <trkpt lat="48.38691" lon="2.15194">
        <ele>125</ele>
        <time>2011-04-15T14:10:15Z</time>
      </trkpt>
      <trkpt lat="48.38692" lon="2.15194">
        <ele>125</ele>
        <time>2011-04-15T14:10:16Z</time>
      </trkpt>
      <trkpt lat="48.38693" lon="2.15193">
        <ele>125</ele>
        <time>2011-04-15T14:10:17Z</time>
      </trkpt>
      <trkpt lat="48.38695" lon="2.15193">
        <ele>125</ele>
        <time>2011-04-15T14:10:18Z</time>
      </trkpt>
      <trkpt lat="48.38696" lon="2.15192">
        <ele>126</ele>
        <time>2011-04-15T14:10:19Z</time>
      </trkpt>
      <trkpt lat="48.38697" lon="2.15192">
        <ele>126</ele>
        <time>2011-04-15T14:10:20Z</time>
      </trkpt>
      <trkpt lat="48.38699" lon="2.15191">
        <ele>126</ele>
        <time>2011-04-15T14:10:21Z</time>
      </trkpt>
      <trkpt lat="48.387" lon="2.15191">
        <ele>126</ele>
        <time>2011-04-15T14:10:22Z</time>
      </trkpt>
      <trkpt lat="48.38701" lon="2.1519">
        <ele>126</ele>
        <time>2011-04-15T14:10:23Z</time>
      </trkpt>
      <trkpt lat="48.38703" lon="2.15189">
        <ele>126</ele>
        <time>2011-04-15T14:10:24Z</time>
      </trkpt>
      <trkpt lat="48.38704" lon="2.15188">
        <ele>126</ele>
        <time>2011-04-15T14:10:25Z</time>
      </trkpt>
      <trkpt lat="48.38705" lon="2.15187">
        <ele>126</ele>
        <time>2011-04-15T14:10:26Z</time>
      </trkpt>
      <trkpt lat="48.38707" lon="2.15187">
        <ele>127</ele>
        <time>2011-04-15T14:10:27Z</time>
      </trkpt>
      <trkpt lat="48.38708" lon="2.15186">
        <ele>127</ele>
        <time>2011-04-15T14:10:28Z</time>
      </trkpt>
      <trkpt lat="48.38709" lon="2.15185">
        <ele>127</ele>
        <time>2011-04-15T14:10:29Z</time>
      </trkpt>
      <trkpt lat="48.3871" lon="2.15183">
        <ele>127</ele>
        <time>2011-04-15T14:10:30Z</time>
      </trkpt>
      <trkpt lat="48.38711" lon="2.15182">
        <ele>127</ele>
        <time>2011-04-15T14:10:31Z</time>
      </trkpt>
      <trkpt lat="48.38712" lon="2.1518">
        <ele>127</ele>
        <time>2011-04-15T14:10:32Z</time>
      </trkpt>
      <trkpt lat="48.38713" lon="2.15179">
        <ele>127</ele>
        <time>2011-04-15T14:10:33Z</time>
      </trkpt>
      <trkpt lat="48.38714" lon="2.15178">
        <ele>128</ele>
        <time>2011-04-15T14:10:34Z</time>
      </trkpt>
      <trkpt lat="48.38716" lon="2.15175">
        <ele>128</ele>
        <time>2011-04-15T14:10:36Z</time>
      </trkpt>
      <trkpt lat="48.38718" lon="2.15173">
        <ele>128</ele>
        <time>2011-04-15T14:10:38Z</time>
      </trkpt>
      <trkpt lat="48.3872" lon="2.1517">
        <ele>128</ele>
        <time>2011-04-15T14:10:40Z</time>
      </trkpt>
      <trkpt lat="48.38721" lon="2.15169">
        <ele>128</ele>
        <time>2011-04-15T14:10:41Z</time>
      </trkpt>
      <trkpt lat="48.38723" lon="2.15168">
        <ele>129</ele>
        <time>2011-04-15T14:10:44Z</time>
      </trkpt>
      <trkpt lat="48.38723" lon="2.1517">
        <ele>129</ele>
        <time>2011-04-15T14:10:48Z</time>
      </trkpt>
      <trkpt lat="48.38725" lon="2.1517">
        <ele>129</ele>
        <time>2011-04-15T14:10:50Z</time>
      </trkpt>
      <trkpt lat="48.38726" lon="2.15168">
        <ele>129</ele>
        <time>2011-04-15T14:10:52Z</time>
      </trkpt>
      <trkpt lat="48.38728" lon="2.15165">
        <ele>129</ele>
        <time>2011-04-15T14:10:54Z</time>
      </trkpt>
      <trkpt lat="48.38731" lon="2.15163">
        <ele>129</ele>
        <time>2011-04-15T14:10:56Z</time>
      </trkpt>
      <trkpt lat="48.38732" lon="2.1516">
        <ele>129</ele>
        <time>2011-04-15T14:10:58Z</time>
      </trkpt>
      <trkpt lat="48.38734" lon="2.15158">
        <ele>129</ele>
        <time>2011-04-15T14:11:00Z</time>
      </trkpt>
      <trkpt lat="48.38735" lon="2.15157">
        <ele>129</ele>
        <time>2011-04-15T14:11:01Z</time>
      </trkpt>
      <trkpt lat="48.38737" lon="2.15157">
        <ele>129</ele>
        <time>2011-04-15T14:11:02Z</time>
      </trkpt>
      <trkpt lat="48.38738" lon="2.15157">
        <ele>129</ele>
        <time>2011-04-15T14:11:03Z</time>
      </trkpt>
      <trkpt lat="48.38739" lon="2.15156">
        <ele>129</ele>
        <time>2011-04-15T14:11:04Z</time>
      </trkpt>
      <trkpt lat="48.38741" lon="2.15156">
        <ele>129</ele>
        <time>2011-04-15T14:11:05Z</time>
      </trkpt>
      <trkpt lat="48.38742" lon="2.15155">
        <ele>129</ele>
        <time>2011-04-15T14:11:06Z</time>
      </trkpt>
      <trkpt lat="48.38743" lon="2.15155">
        <ele>129</ele>
        <time>2011-04-15T14:11:07Z</time>
      </trkpt>
      <trkpt lat="48.38744" lon="2.15155">
        <ele>129</ele>
        <time>2011-04-15T14:11:09Z</time>
      </trkpt>
      <trkpt lat="48.38746" lon="2.15152">
        <ele>129</ele>
        <time>2011-04-15T14:11:20Z</time>
      </trkpt>
      <trkpt lat="48.38746" lon="2.15154">
        <ele>129</ele>
        <time>2011-04-15T14:11:25Z</time>
      </trkpt>
      <trkpt lat="48.38745" lon="2.15155">
        <ele>129</ele>
        <time>2011-04-15T14:11:27Z</time>
      </trkpt>
      <trkpt lat="48.38746" lon="2.15154">
        <ele>129</ele>
        <time>2011-04-15T14:11:29Z</time>
      </trkpt>
      <trkpt lat="48.38747" lon="2.15152">
        <ele>129</ele>
        <time>2011-04-15T14:11:33Z</time>
      </trkpt>
      <trkpt lat="48.38746" lon="2.15154">
        <ele>129</ele>
        <time>2011-04-15T14:11:40Z</time>
      </trkpt>
      <trkpt lat="48.38745" lon="2.15154">
        <ele>129</ele>
        <time>2011-04-15T14:11:45Z</time>
      </trkpt>
      <trkpt lat="48.38743" lon="2.15155">
        <ele>129</ele>
        <time>2011-04-15T14:11:53Z</time>
      </trkpt>
      <trkpt lat="48.38743" lon="2.15158">
        <ele>126</ele>
        <time>2011-04-15T14:12:09Z</time>
      </trkpt>
      <trkpt lat="48.38742" lon="2.1516">
        <ele>126</ele>
        <time>2011-04-15T14:12:12Z</time>
      </trkpt>
      <trkpt lat="48.38741" lon="2.15162">
        <ele>126</ele>
        <time>2011-04-15T14:12:14Z</time>
      </trkpt>
      <trkpt lat="48.3874" lon="2.15164">
        <ele>126</ele>
        <time>2011-04-15T14:12:22Z</time>
      </trkpt>
      <trkpt lat="48.3874" lon="2.15165">
        <ele>126</ele>
        <time>2011-04-15T14:12:23Z</time>
      </trkpt>
      <trkpt lat="48.38738" lon="2.15168">
        <ele>126</ele>
        <time>2011-04-15T14:12:25Z</time>
      </trkpt>
      <trkpt lat="48.38736" lon="2.15171">
        <ele>126</ele>
        <time>2011-04-15T14:12:27Z</time>
      </trkpt>
      <trkpt lat="48.38734" lon="2.15174">
        <ele>128</ele>
        <time>2011-04-15T14:12:29Z</time>
      </trkpt>
      <trkpt lat="48.38735" lon="2.15173">
        <ele>132</ele>
        <time>2011-04-15T14:12:39Z</time>
      </trkpt>
      <trkpt lat="48.38736" lon="2.1517">
        <ele>132</ele>
        <time>2011-04-15T14:12:41Z</time>
      </trkpt>
      <trkpt lat="48.38737" lon="2.15168">
        <ele>132</ele>
        <time>2011-04-15T14:12:44Z</time>
      </trkpt>
      <trkpt lat="48.38738" lon="2.15166">
        <ele>132</ele>
        <time>2011-04-15T14:12:46Z</time>
      </trkpt>
      <trkpt lat="48.38736" lon="2.15165">
        <ele>132</ele>
        <time>2011-04-15T14:12:49Z</time>
      </trkpt>
      <trkpt lat="48.38736" lon="2.15163">
        <ele>132</ele>
        <time>2011-04-15T14:12:50Z</time>
      </trkpt>
      <trkpt lat="48.38737" lon="2.15161">
        <ele>132</ele>
        <time>2011-04-15T14:12:52Z</time>
      </trkpt>
      <trkpt lat="48.38736" lon="2.1516">
        <ele>132</ele>
        <time>2011-04-15T14:12:58Z</time>
      </trkpt>
      <trkpt lat="48.38734" lon="2.15159">
        <ele>132</ele>
        <time>2011-04-15T14:13:00Z</time>
      </trkpt>
      <trkpt lat="48.38732" lon="2.15158">
        <ele>132</ele>
        <time>2011-04-15T14:13:02Z</time>
      </trkpt>
      <trkpt lat="48.3873" lon="2.15154">
        <ele>132</ele>
        <time>2011-04-15T14:13:04Z</time>
      </trkpt>
      <trkpt lat="48.3873" lon="2.15152">
        <ele>132</ele>
        <time>2011-04-15T14:13:05Z</time>
      </trkpt>
      <trkpt lat="48.3873" lon="2.15151">
        <ele>132</ele>
        <time>2011-04-15T14:13:06Z</time>
      </trkpt>
      <trkpt lat="48.38729" lon="2.15149">
        <ele>132</ele>
        <time>2011-04-15T14:13:07Z</time>
      </trkpt>
      <trkpt lat="48.38729" lon="2.15147">
        <ele>132</ele>
        <time>2011-04-15T14:13:08Z</time>
      </trkpt>
      <trkpt lat="48.38728" lon="2.15145">
        <ele>132</ele>
        <time>2011-04-15T14:13:10Z</time>
      </trkpt>
      <trkpt lat="48.38728" lon="2.15144">
        <ele>132</ele>
        <time>2011-04-15T14:13:13Z</time>
      </trkpt>
      <trkpt lat="48.38727" lon="2.15141">
        <ele>132</ele>
        <time>2011-04-15T14:13:15Z</time>
      </trkpt>
      <trkpt lat="48.38727" lon="2.15138">
        <ele>132</ele>
        <time>2011-04-15T14:13:17Z</time>
      </trkpt>
      <trkpt lat="48.38728" lon="2.15137">
        <ele>132</ele>
        <time>2011-04-15T14:13:18Z</time>
      </trkpt>
      <trkpt lat="48.38728" lon="2.15135">
        <ele>132</ele>
        <time>2011-04-15T14:13:19Z</time>
      </trkpt>
      <trkpt lat="48.38728" lon="2.15133">
        <ele>132</ele>
        <time>2011-04-15T14:13:20Z</time>
      </trkpt>
      <trkpt lat="48.38728" lon="2.15131">
        <ele>132</ele>
        <time>2011-04-15T14:13:21Z</time>
      </trkpt>
      <trkpt lat="48.38728" lon="2.15129">
        <ele>132</ele>
        <time>2011-04-15T14:13:24Z</time>
      </trkpt>
      <trkpt lat="48.38728" lon="2.15127">
        <ele>132</ele>
        <time>2011-04-15T14:13:25Z</time>
      </trkpt>
      <trkpt lat="48.38728" lon="2.15125">
        <ele>132</ele>
        <time>2011-04-15T14:13:26Z</time>
      </trkpt>
      <trkpt lat="48.38728" lon="2.15123">
        <ele>132</ele>
        <time>2011-04-15T14:13:28Z</time>
      </trkpt>
    </trkseg>
  </trk>
</gpx>